<?xml version="1.0" encoding="UTF-8" standalone="no" ?>
<gpx xmlns="http://www.topografix.com/GPX/1/1" xmlns:xsi="http://www.w3.org/2001/XMLSchema-instance" xsi:schemaLocation="http://www.topografix.com/GPX/1/1 http://www.topografix.com/GPX/1/1/gpx.xsd" version="1.1" creator="VisuGPX - https://www.visugpx.com">
  <metadata>
    <name>ajoncs20-1</name>
  </metadata>
  <trk>
    <name><![CDATA[ajoncs20-1_1]]></name>
    <trkseg>
      <trkpt lat="45.77844" lon="-1.23682">
        <ele>54</ele>
        <time>2020-01-26T06:51:36Z</time>
      </trkpt>
      <trkpt lat="45.77844" lon="-1.23679">
        <ele>54</ele>
        <time>2020-01-26T06:51:37Z</time>
      </trkpt>
      <trkpt lat="45.77844" lon="-1.23675">
        <ele>53.8</ele>
        <time>2020-01-26T06:51:38Z</time>
      </trkpt>
      <trkpt lat="45.77844" lon="-1.23671">
        <ele>53.6</ele>
        <time>2020-01-26T06:51:39Z</time>
      </trkpt>
      <trkpt lat="45.77844" lon="-1.23667">
        <ele>53.4</ele>
        <time>2020-01-26T06:51:40Z</time>
      </trkpt>
      <trkpt lat="45.77843" lon="-1.23662">
        <ele>53.4</ele>
        <time>2020-01-26T06:51:41Z</time>
      </trkpt>
      <trkpt lat="45.77843" lon="-1.23658">
        <ele>53.6</ele>
        <time>2020-01-26T06:51:42Z</time>
      </trkpt>
      <trkpt lat="45.77842" lon="-1.23653">
        <ele>53.6</ele>
        <time>2020-01-26T06:51:43Z</time>
      </trkpt>
      <trkpt lat="45.77841" lon="-1.23648">
        <ele>53.8</ele>
        <time>2020-01-26T06:51:44Z</time>
      </trkpt>
      <trkpt lat="45.7784" lon="-1.23643">
        <ele>53.8</ele>
        <time>2020-01-26T06:51:45Z</time>
      </trkpt>
      <trkpt lat="45.77839" lon="-1.23638">
        <ele>54.2</ele>
        <time>2020-01-26T06:51:46Z</time>
      </trkpt>
      <trkpt lat="45.77839" lon="-1.23633">
        <ele>54.4</ele>
        <time>2020-01-26T06:51:47Z</time>
      </trkpt>
      <trkpt lat="45.77838" lon="-1.23628">
        <ele>54.6</ele>
        <time>2020-01-26T06:51:48Z</time>
      </trkpt>
      <trkpt lat="45.77838" lon="-1.23624">
        <ele>54.6</ele>
        <time>2020-01-26T06:51:49Z</time>
      </trkpt>
      <trkpt lat="45.77838" lon="-1.2362">
        <ele>54.4</ele>
        <time>2020-01-26T06:51:50Z</time>
      </trkpt>
      <trkpt lat="45.77838" lon="-1.23615">
        <ele>54.4</ele>
        <time>2020-01-26T06:51:51Z</time>
      </trkpt>
      <trkpt lat="45.77837" lon="-1.23612">
        <ele>54.2</ele>
        <time>2020-01-26T06:51:52Z</time>
      </trkpt>
      <trkpt lat="45.77837" lon="-1.23607">
        <ele>54.4</ele>
        <time>2020-01-26T06:51:53Z</time>
      </trkpt>
      <trkpt lat="45.77836" lon="-1.23602">
        <ele>54.6</ele>
        <time>2020-01-26T06:51:54Z</time>
      </trkpt>
      <trkpt lat="45.77835" lon="-1.23598">
        <ele>54.6</ele>
        <time>2020-01-26T06:51:55Z</time>
      </trkpt>
      <trkpt lat="45.77835" lon="-1.23595">
        <ele>54.6</ele>
        <time>2020-01-26T06:51:56Z</time>
      </trkpt>
      <trkpt lat="45.77835" lon="-1.23592">
        <ele>54.4</ele>
        <time>2020-01-26T06:51:57Z</time>
      </trkpt>
      <trkpt lat="45.77834" lon="-1.23589">
        <ele>54.2</ele>
        <time>2020-01-26T06:51:58Z</time>
      </trkpt>
      <trkpt lat="45.77834" lon="-1.23586">
        <ele>54.2</ele>
        <time>2020-01-26T06:51:59Z</time>
      </trkpt>
      <trkpt lat="45.77833" lon="-1.23582">
        <ele>54.2</ele>
        <time>2020-01-26T06:52:00Z</time>
      </trkpt>
      <trkpt lat="45.77832" lon="-1.23579">
        <ele>54.2</ele>
        <time>2020-01-26T06:52:01Z</time>
      </trkpt>
      <trkpt lat="45.77832" lon="-1.23577">
        <ele>54</ele>
        <time>2020-01-26T06:52:02Z</time>
      </trkpt>
      <trkpt lat="45.77832" lon="-1.23575">
        <ele>54</ele>
        <time>2020-01-26T06:52:03Z</time>
      </trkpt>
      <trkpt lat="45.77832" lon="-1.23573">
        <ele>54</ele>
        <time>2020-01-26T06:52:04Z</time>
      </trkpt>
      <trkpt lat="45.77831" lon="-1.2357">
        <ele>54.4</ele>
        <time>2020-01-26T06:52:05Z</time>
      </trkpt>
      <trkpt lat="45.77831" lon="-1.23568">
        <ele>54.4</ele>
        <time>2020-01-26T06:52:06Z</time>
      </trkpt>
      <trkpt lat="45.77831" lon="-1.23565">
        <ele>54.4</ele>
        <time>2020-01-26T06:52:07Z</time>
      </trkpt>
      <trkpt lat="45.77831" lon="-1.23563">
        <ele>54.4</ele>
        <time>2020-01-26T06:52:08Z</time>
      </trkpt>
      <trkpt lat="45.77831" lon="-1.23561">
        <ele>54.4</ele>
        <time>2020-01-26T06:52:09Z</time>
      </trkpt>
      <trkpt lat="45.77831" lon="-1.23558">
        <ele>54.2</ele>
        <time>2020-01-26T06:52:10Z</time>
      </trkpt>
      <trkpt lat="45.77831" lon="-1.23556">
        <ele>54.2</ele>
        <time>2020-01-26T06:52:11Z</time>
      </trkpt>
      <trkpt lat="45.7783" lon="-1.23554">
        <ele>54.2</ele>
        <time>2020-01-26T06:52:12Z</time>
      </trkpt>
      <trkpt lat="45.7783" lon="-1.23552">
        <ele>54.2</ele>
        <time>2020-01-26T06:52:13Z</time>
      </trkpt>
      <trkpt lat="45.77829" lon="-1.2355">
        <ele>54</ele>
        <time>2020-01-26T06:52:14Z</time>
      </trkpt>
      <trkpt lat="45.77829" lon="-1.23548">
        <ele>54</ele>
        <time>2020-01-26T06:52:15Z</time>
      </trkpt>
      <trkpt lat="45.77829" lon="-1.23545">
        <ele>54</ele>
        <time>2020-01-26T06:52:16Z</time>
      </trkpt>
      <trkpt lat="45.77828" lon="-1.23544">
        <ele>54</ele>
        <time>2020-01-26T06:52:17Z</time>
      </trkpt>
      <trkpt lat="45.77827" lon="-1.23541">
        <ele>54</ele>
        <time>2020-01-26T06:52:18Z</time>
      </trkpt>
      <trkpt lat="45.77827" lon="-1.23538">
        <ele>54</ele>
        <time>2020-01-26T06:52:19Z</time>
      </trkpt>
      <trkpt lat="45.77827" lon="-1.23535">
        <ele>54</ele>
        <time>2020-01-26T06:52:20Z</time>
      </trkpt>
      <trkpt lat="45.77827" lon="-1.23532">
        <ele>54</ele>
        <time>2020-01-26T06:52:21Z</time>
      </trkpt>
      <trkpt lat="45.77827" lon="-1.23529">
        <ele>54</ele>
        <time>2020-01-26T06:52:22Z</time>
      </trkpt>
      <trkpt lat="45.77827" lon="-1.23526">
        <ele>54</ele>
        <time>2020-01-26T06:52:23Z</time>
      </trkpt>
      <trkpt lat="45.77826" lon="-1.23523">
        <ele>54</ele>
        <time>2020-01-26T06:52:24Z</time>
      </trkpt>
      <trkpt lat="45.77826" lon="-1.23521">
        <ele>54</ele>
        <time>2020-01-26T06:52:25Z</time>
      </trkpt>
      <trkpt lat="45.77826" lon="-1.23519">
        <ele>54</ele>
        <time>2020-01-26T06:52:26Z</time>
      </trkpt>
      <trkpt lat="45.77826" lon="-1.23517">
        <ele>54</ele>
        <time>2020-01-26T06:52:27Z</time>
      </trkpt>
      <trkpt lat="45.77826" lon="-1.23515">
        <ele>54</ele>
        <time>2020-01-26T06:52:28Z</time>
      </trkpt>
      <trkpt lat="45.77826" lon="-1.23513">
        <ele>54</ele>
        <time>2020-01-26T06:52:29Z</time>
      </trkpt>
      <trkpt lat="45.77825" lon="-1.23511">
        <ele>54</ele>
        <time>2020-01-26T06:52:30Z</time>
      </trkpt>
      <trkpt lat="45.77824" lon="-1.23508">
        <ele>54</ele>
        <time>2020-01-26T06:52:31Z</time>
      </trkpt>
      <trkpt lat="45.77824" lon="-1.23506">
        <ele>54.2</ele>
        <time>2020-01-26T06:52:32Z</time>
      </trkpt>
      <trkpt lat="45.77823" lon="-1.23503">
        <ele>54.4</ele>
        <time>2020-01-26T06:52:33Z</time>
      </trkpt>
      <trkpt lat="45.77822" lon="-1.23501">
        <ele>54.6</ele>
        <time>2020-01-26T06:52:34Z</time>
      </trkpt>
      <trkpt lat="45.77822" lon="-1.235">
        <ele>54.6</ele>
        <time>2020-01-26T06:52:35Z</time>
      </trkpt>
      <trkpt lat="45.77822" lon="-1.23498">
        <ele>54.8</ele>
        <time>2020-01-26T06:52:36Z</time>
      </trkpt>
      <trkpt lat="45.77822" lon="-1.23497">
        <ele>54.6</ele>
        <time>2020-01-26T06:52:37Z</time>
      </trkpt>
      <trkpt lat="45.77821" lon="-1.23495">
        <ele>54</ele>
        <time>2020-01-26T06:52:38Z</time>
      </trkpt>
      <trkpt lat="45.7782" lon="-1.23494">
        <ele>53.6</ele>
        <time>2020-01-26T06:52:39Z</time>
      </trkpt>
      <trkpt lat="45.77817" lon="-1.23493">
        <ele>53.4</ele>
        <time>2020-01-26T06:52:40Z</time>
      </trkpt>
      <trkpt lat="45.77815" lon="-1.23495">
        <ele>53.4</ele>
        <time>2020-01-26T06:52:41Z</time>
      </trkpt>
      <trkpt lat="45.77813" lon="-1.23495">
        <ele>53.2</ele>
        <time>2020-01-26T06:52:42Z</time>
      </trkpt>
      <trkpt lat="45.77811" lon="-1.23495">
        <ele>52.8</ele>
        <time>2020-01-26T06:52:43Z</time>
      </trkpt>
      <trkpt lat="45.77809" lon="-1.23494">
        <ele>52.4</ele>
        <time>2020-01-26T06:52:44Z</time>
      </trkpt>
      <trkpt lat="45.77806" lon="-1.23496">
        <ele>52</ele>
        <time>2020-01-26T06:52:45Z</time>
      </trkpt>
      <trkpt lat="45.77803" lon="-1.23496">
        <ele>51.8</ele>
        <time>2020-01-26T06:52:46Z</time>
      </trkpt>
      <trkpt lat="45.778" lon="-1.23496">
        <ele>51.6</ele>
        <time>2020-01-26T06:52:47Z</time>
      </trkpt>
      <trkpt lat="45.77797" lon="-1.23497">
        <ele>51.4</ele>
        <time>2020-01-26T06:52:48Z</time>
      </trkpt>
      <trkpt lat="45.77793" lon="-1.23497">
        <ele>51.4</ele>
        <time>2020-01-26T06:52:49Z</time>
      </trkpt>
      <trkpt lat="45.7779" lon="-1.23497">
        <ele>51.2</ele>
        <time>2020-01-26T06:52:50Z</time>
      </trkpt>
      <trkpt lat="45.77787" lon="-1.23497">
        <ele>51.2</ele>
        <time>2020-01-26T06:52:51Z</time>
      </trkpt>
      <trkpt lat="45.77784" lon="-1.23495">
        <ele>51.2</ele>
        <time>2020-01-26T06:52:52Z</time>
      </trkpt>
      <trkpt lat="45.77782" lon="-1.23492">
        <ele>51</ele>
        <time>2020-01-26T06:52:53Z</time>
      </trkpt>
      <trkpt lat="45.77781" lon="-1.23489">
        <ele>50.8</ele>
        <time>2020-01-26T06:52:54Z</time>
      </trkpt>
      <trkpt lat="45.7778" lon="-1.23485">
        <ele>50.6</ele>
        <time>2020-01-26T06:52:55Z</time>
      </trkpt>
      <trkpt lat="45.77781" lon="-1.23482">
        <ele>50.2</ele>
        <time>2020-01-26T06:52:56Z</time>
      </trkpt>
      <trkpt lat="45.77781" lon="-1.23479">
        <ele>49.8</ele>
        <time>2020-01-26T06:52:57Z</time>
      </trkpt>
      <trkpt lat="45.77781" lon="-1.23474">
        <ele>49.6</ele>
        <time>2020-01-26T06:52:58Z</time>
      </trkpt>
      <trkpt lat="45.77781" lon="-1.2347">
        <ele>49.2</ele>
        <time>2020-01-26T06:52:59Z</time>
      </trkpt>
      <trkpt lat="45.77781" lon="-1.23466">
        <ele>49</ele>
        <time>2020-01-26T06:53:00Z</time>
      </trkpt>
      <trkpt lat="45.7778" lon="-1.23462">
        <ele>48.6</ele>
        <time>2020-01-26T06:53:01Z</time>
      </trkpt>
      <trkpt lat="45.77779" lon="-1.23459">
        <ele>48.4</ele>
        <time>2020-01-26T06:53:02Z</time>
      </trkpt>
      <trkpt lat="45.77779" lon="-1.23454">
        <ele>48.2</ele>
        <time>2020-01-26T06:53:03Z</time>
      </trkpt>
      <trkpt lat="45.77779" lon="-1.2345">
        <ele>48.2</ele>
        <time>2020-01-26T06:53:04Z</time>
      </trkpt>
      <trkpt lat="45.7778" lon="-1.23446">
        <ele>48</ele>
        <time>2020-01-26T06:53:05Z</time>
      </trkpt>
      <trkpt lat="45.7778" lon="-1.23441">
        <ele>48</ele>
        <time>2020-01-26T06:53:06Z</time>
      </trkpt>
      <trkpt lat="45.77779" lon="-1.23436">
        <ele>47.8</ele>
        <time>2020-01-26T06:53:07Z</time>
      </trkpt>
      <trkpt lat="45.77778" lon="-1.23431">
        <ele>47.8</ele>
        <time>2020-01-26T06:53:08Z</time>
      </trkpt>
      <trkpt lat="45.77777" lon="-1.23427">
        <ele>48</ele>
        <time>2020-01-26T06:53:09Z</time>
      </trkpt>
      <trkpt lat="45.77776" lon="-1.23422">
        <ele>48.4</ele>
        <time>2020-01-26T06:53:10Z</time>
      </trkpt>
      <trkpt lat="45.77776" lon="-1.23418">
        <ele>48.8</ele>
        <time>2020-01-26T06:53:11Z</time>
      </trkpt>
      <trkpt lat="45.77776" lon="-1.23413">
        <ele>49.4</ele>
        <time>2020-01-26T06:53:12Z</time>
      </trkpt>
      <trkpt lat="45.77777" lon="-1.23408">
        <ele>50</ele>
        <time>2020-01-26T06:53:13Z</time>
      </trkpt>
      <trkpt lat="45.77777" lon="-1.23403">
        <ele>50.6</ele>
        <time>2020-01-26T06:53:14Z</time>
      </trkpt>
      <trkpt lat="45.77777" lon="-1.23397">
        <ele>50.6</ele>
        <time>2020-01-26T06:53:15Z</time>
      </trkpt>
      <trkpt lat="45.77777" lon="-1.2339">
        <ele>51</ele>
        <time>2020-01-26T06:53:16Z</time>
      </trkpt>
      <trkpt lat="45.77777" lon="-1.23385">
        <ele>51.6</ele>
        <time>2020-01-26T06:53:17Z</time>
      </trkpt>
      <trkpt lat="45.77777" lon="-1.23379">
        <ele>51.8</ele>
        <time>2020-01-26T06:53:18Z</time>
      </trkpt>
      <trkpt lat="45.77777" lon="-1.23373">
        <ele>52.2</ele>
        <time>2020-01-26T06:53:19Z</time>
      </trkpt>
      <trkpt lat="45.77777" lon="-1.23369">
        <ele>52.4</ele>
        <time>2020-01-26T06:53:20Z</time>
      </trkpt>
      <trkpt lat="45.77776" lon="-1.23362">
        <ele>52.2</ele>
        <time>2020-01-26T06:53:21Z</time>
      </trkpt>
      <trkpt lat="45.77775" lon="-1.23356">
        <ele>52.2</ele>
        <time>2020-01-26T06:53:22Z</time>
      </trkpt>
      <trkpt lat="45.77777" lon="-1.2335">
        <ele>51.8</ele>
        <time>2020-01-26T06:53:23Z</time>
      </trkpt>
      <trkpt lat="45.77777" lon="-1.23346">
        <ele>51.4</ele>
        <time>2020-01-26T06:53:24Z</time>
      </trkpt>
      <trkpt lat="45.77777" lon="-1.2334">
        <ele>51</ele>
        <time>2020-01-26T06:53:25Z</time>
      </trkpt>
      <trkpt lat="45.77778" lon="-1.23335">
        <ele>50.8</ele>
        <time>2020-01-26T06:53:26Z</time>
      </trkpt>
      <trkpt lat="45.77778" lon="-1.2333">
        <ele>50.6</ele>
        <time>2020-01-26T06:53:27Z</time>
      </trkpt>
      <trkpt lat="45.77778" lon="-1.23324">
        <ele>50.4</ele>
        <time>2020-01-26T06:53:28Z</time>
      </trkpt>
      <trkpt lat="45.77777" lon="-1.23318">
        <ele>50.6</ele>
        <time>2020-01-26T06:53:29Z</time>
      </trkpt>
      <trkpt lat="45.77776" lon="-1.23312">
        <ele>51</ele>
        <time>2020-01-26T06:53:30Z</time>
      </trkpt>
      <trkpt lat="45.77775" lon="-1.23307">
        <ele>51.2</ele>
        <time>2020-01-26T06:53:31Z</time>
      </trkpt>
      <trkpt lat="45.77775" lon="-1.23301">
        <ele>51.6</ele>
        <time>2020-01-26T06:53:32Z</time>
      </trkpt>
      <trkpt lat="45.77776" lon="-1.23295">
        <ele>51.8</ele>
        <time>2020-01-26T06:53:33Z</time>
      </trkpt>
      <trkpt lat="45.77775" lon="-1.23289">
        <ele>51.8</ele>
        <time>2020-01-26T06:53:34Z</time>
      </trkpt>
      <trkpt lat="45.77775" lon="-1.23283">
        <ele>52.2</ele>
        <time>2020-01-26T06:53:35Z</time>
      </trkpt>
      <trkpt lat="45.77774" lon="-1.23278">
        <ele>52.4</ele>
        <time>2020-01-26T06:53:36Z</time>
      </trkpt>
      <trkpt lat="45.77774" lon="-1.23274">
        <ele>52.4</ele>
        <time>2020-01-26T06:53:37Z</time>
      </trkpt>
      <trkpt lat="45.77773" lon="-1.2327">
        <ele>52.4</ele>
        <time>2020-01-26T06:53:38Z</time>
      </trkpt>
      <trkpt lat="45.77773" lon="-1.23265">
        <ele>52.2</ele>
        <time>2020-01-26T06:53:39Z</time>
      </trkpt>
      <trkpt lat="45.77771" lon="-1.2326">
        <ele>52</ele>
        <time>2020-01-26T06:53:40Z</time>
      </trkpt>
      <trkpt lat="45.77771" lon="-1.23254">
        <ele>52</ele>
        <time>2020-01-26T06:53:41Z</time>
      </trkpt>
      <trkpt lat="45.77771" lon="-1.23249">
        <ele>51.8</ele>
        <time>2020-01-26T06:53:42Z</time>
      </trkpt>
      <trkpt lat="45.7777" lon="-1.23245">
        <ele>51.4</ele>
        <time>2020-01-26T06:53:43Z</time>
      </trkpt>
      <trkpt lat="45.7777" lon="-1.23241">
        <ele>51.2</ele>
        <time>2020-01-26T06:53:44Z</time>
      </trkpt>
      <trkpt lat="45.7777" lon="-1.23236">
        <ele>51.2</ele>
        <time>2020-01-26T06:53:45Z</time>
      </trkpt>
      <trkpt lat="45.77772" lon="-1.2323">
        <ele>51</ele>
        <time>2020-01-26T06:53:46Z</time>
      </trkpt>
      <trkpt lat="45.77771" lon="-1.23225">
        <ele>51.2</ele>
        <time>2020-01-26T06:53:47Z</time>
      </trkpt>
      <trkpt lat="45.7777" lon="-1.23218">
        <ele>51.6</ele>
        <time>2020-01-26T06:53:48Z</time>
      </trkpt>
      <trkpt lat="45.77771" lon="-1.23212">
        <ele>52.4</ele>
        <time>2020-01-26T06:53:49Z</time>
      </trkpt>
      <trkpt lat="45.77771" lon="-1.23206">
        <ele>52.8</ele>
        <time>2020-01-26T06:53:50Z</time>
      </trkpt>
      <trkpt lat="45.77772" lon="-1.23201">
        <ele>53.2</ele>
        <time>2020-01-26T06:53:51Z</time>
      </trkpt>
      <trkpt lat="45.77771" lon="-1.23196">
        <ele>53</ele>
        <time>2020-01-26T06:53:52Z</time>
      </trkpt>
      <trkpt lat="45.77771" lon="-1.2319">
        <ele>53</ele>
        <time>2020-01-26T06:53:53Z</time>
      </trkpt>
      <trkpt lat="45.77771" lon="-1.23185">
        <ele>52.8</ele>
        <time>2020-01-26T06:53:54Z</time>
      </trkpt>
      <trkpt lat="45.77771" lon="-1.2318">
        <ele>52.2</ele>
        <time>2020-01-26T06:53:55Z</time>
      </trkpt>
      <trkpt lat="45.77772" lon="-1.23175">
        <ele>51.4</ele>
        <time>2020-01-26T06:53:56Z</time>
      </trkpt>
      <trkpt lat="45.77771" lon="-1.23169">
        <ele>51</ele>
        <time>2020-01-26T06:53:57Z</time>
      </trkpt>
      <trkpt lat="45.77769" lon="-1.23164">
        <ele>50.8</ele>
        <time>2020-01-26T06:53:58Z</time>
      </trkpt>
      <trkpt lat="45.77768" lon="-1.23159">
        <ele>50.6</ele>
        <time>2020-01-26T06:53:59Z</time>
      </trkpt>
      <trkpt lat="45.77765" lon="-1.23158">
        <ele>50.8</ele>
        <time>2020-01-26T06:54:00Z</time>
      </trkpt>
      <trkpt lat="45.77761" lon="-1.2316">
        <ele>50.6</ele>
        <time>2020-01-26T06:54:01Z</time>
      </trkpt>
      <trkpt lat="45.77758" lon="-1.23162">
        <ele>51</ele>
        <time>2020-01-26T06:54:02Z</time>
      </trkpt>
      <trkpt lat="45.77755" lon="-1.23165">
        <ele>51.2</ele>
        <time>2020-01-26T06:54:03Z</time>
      </trkpt>
      <trkpt lat="45.77753" lon="-1.2317">
        <ele>51.4</ele>
        <time>2020-01-26T06:54:04Z</time>
      </trkpt>
      <trkpt lat="45.7775" lon="-1.23173">
        <ele>51.4</ele>
        <time>2020-01-26T06:54:05Z</time>
      </trkpt>
      <trkpt lat="45.77747" lon="-1.23177">
        <ele>51.6</ele>
        <time>2020-01-26T06:54:06Z</time>
      </trkpt>
      <trkpt lat="45.77745" lon="-1.23181">
        <ele>51.8</ele>
        <time>2020-01-26T06:54:07Z</time>
      </trkpt>
      <trkpt lat="45.77742" lon="-1.23186">
        <ele>51.8</ele>
        <time>2020-01-26T06:54:08Z</time>
      </trkpt>
      <trkpt lat="45.77739" lon="-1.23189">
        <ele>52</ele>
        <time>2020-01-26T06:54:09Z</time>
      </trkpt>
      <trkpt lat="45.77736" lon="-1.23193">
        <ele>52.4</ele>
        <time>2020-01-26T06:54:10Z</time>
      </trkpt>
      <trkpt lat="45.77734" lon="-1.23197">
        <ele>52.6</ele>
        <time>2020-01-26T06:54:11Z</time>
      </trkpt>
      <trkpt lat="45.7773" lon="-1.23202">
        <ele>52.6</ele>
        <time>2020-01-26T06:54:12Z</time>
      </trkpt>
      <trkpt lat="45.77728" lon="-1.23207">
        <ele>52.6</ele>
        <time>2020-01-26T06:54:13Z</time>
      </trkpt>
      <trkpt lat="45.77724" lon="-1.23211">
        <ele>52.8</ele>
        <time>2020-01-26T06:54:14Z</time>
      </trkpt>
      <trkpt lat="45.77722" lon="-1.23216">
        <ele>52.8</ele>
        <time>2020-01-26T06:54:15Z</time>
      </trkpt>
      <trkpt lat="45.77719" lon="-1.23221">
        <ele>52.6</ele>
        <time>2020-01-26T06:54:16Z</time>
      </trkpt>
      <trkpt lat="45.77717" lon="-1.23226">
        <ele>52.2</ele>
        <time>2020-01-26T06:54:17Z</time>
      </trkpt>
      <trkpt lat="45.77715" lon="-1.23231">
        <ele>52</ele>
        <time>2020-01-26T06:54:18Z</time>
      </trkpt>
      <trkpt lat="45.7771" lon="-1.23236">
        <ele>52.2</ele>
        <time>2020-01-26T06:54:19Z</time>
      </trkpt>
      <trkpt lat="45.77708" lon="-1.23241">
        <ele>52.6</ele>
        <time>2020-01-26T06:54:20Z</time>
      </trkpt>
      <trkpt lat="45.77705" lon="-1.23246">
        <ele>52.8</ele>
        <time>2020-01-26T06:54:21Z</time>
      </trkpt>
      <trkpt lat="45.77702" lon="-1.2325">
        <ele>53.2</ele>
        <time>2020-01-26T06:54:22Z</time>
      </trkpt>
      <trkpt lat="45.77698" lon="-1.23253">
        <ele>54.2</ele>
        <time>2020-01-26T06:54:23Z</time>
      </trkpt>
      <trkpt lat="45.77695" lon="-1.23257">
        <ele>55.2</ele>
        <time>2020-01-26T06:54:24Z</time>
      </trkpt>
      <trkpt lat="45.77692" lon="-1.2326">
        <ele>55.8</ele>
        <time>2020-01-26T06:54:25Z</time>
      </trkpt>
      <trkpt lat="45.7769" lon="-1.23263">
        <ele>56.2</ele>
        <time>2020-01-26T06:54:26Z</time>
      </trkpt>
      <trkpt lat="45.77687" lon="-1.23267">
        <ele>56.4</ele>
        <time>2020-01-26T06:54:27Z</time>
      </trkpt>
      <trkpt lat="45.77684" lon="-1.23272">
        <ele>56.6</ele>
        <time>2020-01-26T06:54:28Z</time>
      </trkpt>
      <trkpt lat="45.77681" lon="-1.23277">
        <ele>57.2</ele>
        <time>2020-01-26T06:54:29Z</time>
      </trkpt>
      <trkpt lat="45.77678" lon="-1.23282">
        <ele>57.4</ele>
        <time>2020-01-26T06:54:30Z</time>
      </trkpt>
      <trkpt lat="45.77675" lon="-1.23287">
        <ele>57.6</ele>
        <time>2020-01-26T06:54:31Z</time>
      </trkpt>
      <trkpt lat="45.77672" lon="-1.23292">
        <ele>57.6</ele>
        <time>2020-01-26T06:54:32Z</time>
      </trkpt>
      <trkpt lat="45.77668" lon="-1.23296">
        <ele>57.8</ele>
        <time>2020-01-26T06:54:33Z</time>
      </trkpt>
      <trkpt lat="45.77665" lon="-1.23299">
        <ele>58</ele>
        <time>2020-01-26T06:54:34Z</time>
      </trkpt>
      <trkpt lat="45.77662" lon="-1.23303">
        <ele>57.8</ele>
        <time>2020-01-26T06:54:35Z</time>
      </trkpt>
      <trkpt lat="45.7766" lon="-1.23306">
        <ele>57.6</ele>
        <time>2020-01-26T06:54:36Z</time>
      </trkpt>
      <trkpt lat="45.77658" lon="-1.23309">
        <ele>57.4</ele>
        <time>2020-01-26T06:54:37Z</time>
      </trkpt>
      <trkpt lat="45.77655" lon="-1.23311">
        <ele>57</ele>
        <time>2020-01-26T06:54:38Z</time>
      </trkpt>
      <trkpt lat="45.77654" lon="-1.2331">
        <ele>56.8</ele>
        <time>2020-01-26T06:54:39Z</time>
      </trkpt>
      <trkpt lat="45.77652" lon="-1.23309">
        <ele>56.8</ele>
        <time>2020-01-26T06:54:40Z</time>
      </trkpt>
      <trkpt lat="45.7765" lon="-1.23309">
        <ele>56.8</ele>
        <time>2020-01-26T06:54:41Z</time>
      </trkpt>
      <trkpt lat="45.77649" lon="-1.2331">
        <ele>56.8</ele>
        <time>2020-01-26T06:54:42Z</time>
      </trkpt>
      <trkpt lat="45.77647" lon="-1.23311">
        <ele>57</ele>
        <time>2020-01-26T06:54:43Z</time>
      </trkpt>
      <trkpt lat="45.77647" lon="-1.2331">
        <ele>57</ele>
        <time>2020-01-26T06:54:44Z</time>
      </trkpt>
      <trkpt lat="45.77647" lon="-1.2331">
        <ele>57</ele>
        <time>2020-01-26T06:54:45Z</time>
      </trkpt>
      <trkpt lat="45.77644" lon="-1.23311">
        <ele>56.8</ele>
        <time>2020-01-26T06:54:46Z</time>
      </trkpt>
      <trkpt lat="45.7764" lon="-1.2331">
        <ele>57.2</ele>
        <time>2020-01-26T06:54:47Z</time>
      </trkpt>
      <trkpt lat="45.77636" lon="-1.2331">
        <ele>57.6</ele>
        <time>2020-01-26T06:54:48Z</time>
      </trkpt>
      <trkpt lat="45.77633" lon="-1.2331">
        <ele>58.2</ele>
        <time>2020-01-26T06:54:49Z</time>
      </trkpt>
      <trkpt lat="45.7763" lon="-1.23312">
        <ele>58.2</ele>
        <time>2020-01-26T06:54:50Z</time>
      </trkpt>
      <trkpt lat="45.77627" lon="-1.23313">
        <ele>58.4</ele>
        <time>2020-01-26T06:54:51Z</time>
      </trkpt>
      <trkpt lat="45.77624" lon="-1.23314">
        <ele>58.4</ele>
        <time>2020-01-26T06:54:52Z</time>
      </trkpt>
      <trkpt lat="45.7762" lon="-1.23315">
        <ele>58</ele>
        <time>2020-01-26T06:54:53Z</time>
      </trkpt>
      <trkpt lat="45.77616" lon="-1.23318">
        <ele>57</ele>
        <time>2020-01-26T06:54:54Z</time>
      </trkpt>
      <trkpt lat="45.77611" lon="-1.23318">
        <ele>56.2</ele>
        <time>2020-01-26T06:54:55Z</time>
      </trkpt>
      <trkpt lat="45.77606" lon="-1.2332">
        <ele>55.8</ele>
        <time>2020-01-26T06:54:56Z</time>
      </trkpt>
      <trkpt lat="45.77602" lon="-1.2332">
        <ele>55.8</ele>
        <time>2020-01-26T06:54:57Z</time>
      </trkpt>
      <trkpt lat="45.77599" lon="-1.23323">
        <ele>55.8</ele>
        <time>2020-01-26T06:54:58Z</time>
      </trkpt>
      <trkpt lat="45.77595" lon="-1.23325">
        <ele>56</ele>
        <time>2020-01-26T06:54:59Z</time>
      </trkpt>
      <trkpt lat="45.7759" lon="-1.23326">
        <ele>56.2</ele>
        <time>2020-01-26T06:55:00Z</time>
      </trkpt>
      <trkpt lat="45.77586" lon="-1.23326">
        <ele>56.6</ele>
        <time>2020-01-26T06:55:01Z</time>
      </trkpt>
      <trkpt lat="45.77583" lon="-1.23326">
        <ele>56.8</ele>
        <time>2020-01-26T06:55:02Z</time>
      </trkpt>
      <trkpt lat="45.77579" lon="-1.23325">
        <ele>57</ele>
        <time>2020-01-26T06:55:03Z</time>
      </trkpt>
      <trkpt lat="45.77576" lon="-1.23325">
        <ele>57</ele>
        <time>2020-01-26T06:55:04Z</time>
      </trkpt>
      <trkpt lat="45.77571" lon="-1.23321">
        <ele>56.4</ele>
        <time>2020-01-26T06:55:05Z</time>
      </trkpt>
      <trkpt lat="45.77567" lon="-1.23321">
        <ele>55.8</ele>
        <time>2020-01-26T06:55:06Z</time>
      </trkpt>
      <trkpt lat="45.77562" lon="-1.23318">
        <ele>55.4</ele>
        <time>2020-01-26T06:55:07Z</time>
      </trkpt>
      <trkpt lat="45.77559" lon="-1.23318">
        <ele>55.4</ele>
        <time>2020-01-26T06:55:08Z</time>
      </trkpt>
      <trkpt lat="45.77555" lon="-1.23317">
        <ele>55.4</ele>
        <time>2020-01-26T06:55:09Z</time>
      </trkpt>
      <trkpt lat="45.7755" lon="-1.23315">
        <ele>55.2</ele>
        <time>2020-01-26T06:55:10Z</time>
      </trkpt>
      <trkpt lat="45.77547" lon="-1.23313">
        <ele>54.8</ele>
        <time>2020-01-26T06:55:11Z</time>
      </trkpt>
      <trkpt lat="45.77543" lon="-1.23311">
        <ele>54.4</ele>
        <time>2020-01-26T06:55:12Z</time>
      </trkpt>
      <trkpt lat="45.77538" lon="-1.23309">
        <ele>53.4</ele>
        <time>2020-01-26T06:55:13Z</time>
      </trkpt>
      <trkpt lat="45.77532" lon="-1.2331">
        <ele>52.8</ele>
        <time>2020-01-26T06:55:14Z</time>
      </trkpt>
      <trkpt lat="45.77528" lon="-1.2331">
        <ele>52.2</ele>
        <time>2020-01-26T06:55:15Z</time>
      </trkpt>
      <trkpt lat="45.77523" lon="-1.23309">
        <ele>52</ele>
        <time>2020-01-26T06:55:16Z</time>
      </trkpt>
      <trkpt lat="45.77518" lon="-1.23309">
        <ele>52.2</ele>
        <time>2020-01-26T06:55:17Z</time>
      </trkpt>
      <trkpt lat="45.77513" lon="-1.2331">
        <ele>53</ele>
        <time>2020-01-26T06:55:18Z</time>
      </trkpt>
      <trkpt lat="45.77508" lon="-1.23308">
        <ele>53.8</ele>
        <time>2020-01-26T06:55:19Z</time>
      </trkpt>
      <trkpt lat="45.77505" lon="-1.23309">
        <ele>54</ele>
        <time>2020-01-26T06:55:20Z</time>
      </trkpt>
      <trkpt lat="45.77501" lon="-1.23308">
        <ele>54.6</ele>
        <time>2020-01-26T06:55:21Z</time>
      </trkpt>
      <trkpt lat="45.77497" lon="-1.23307">
        <ele>54.6</ele>
        <time>2020-01-26T06:55:22Z</time>
      </trkpt>
      <trkpt lat="45.77493" lon="-1.23307">
        <ele>55</ele>
        <time>2020-01-26T06:55:23Z</time>
      </trkpt>
      <trkpt lat="45.77489" lon="-1.23308">
        <ele>55.2</ele>
        <time>2020-01-26T06:55:24Z</time>
      </trkpt>
      <trkpt lat="45.77485" lon="-1.23308">
        <ele>55.6</ele>
        <time>2020-01-26T06:55:25Z</time>
      </trkpt>
      <trkpt lat="45.77482" lon="-1.23306">
        <ele>55.2</ele>
        <time>2020-01-26T06:55:26Z</time>
      </trkpt>
      <trkpt lat="45.77478" lon="-1.23305">
        <ele>54.6</ele>
        <time>2020-01-26T06:55:27Z</time>
      </trkpt>
      <trkpt lat="45.77473" lon="-1.23304">
        <ele>54.4</ele>
        <time>2020-01-26T06:55:28Z</time>
      </trkpt>
      <trkpt lat="45.77468" lon="-1.23305">
        <ele>53.8</ele>
        <time>2020-01-26T06:55:29Z</time>
      </trkpt>
      <trkpt lat="45.77464" lon="-1.23303">
        <ele>53</ele>
        <time>2020-01-26T06:55:30Z</time>
      </trkpt>
      <trkpt lat="45.7746" lon="-1.23301">
        <ele>52</ele>
        <time>2020-01-26T06:55:31Z</time>
      </trkpt>
      <trkpt lat="45.77456" lon="-1.23301">
        <ele>51.4</ele>
        <time>2020-01-26T06:55:32Z</time>
      </trkpt>
      <trkpt lat="45.7745" lon="-1.23301">
        <ele>51.4</ele>
        <time>2020-01-26T06:55:33Z</time>
      </trkpt>
      <trkpt lat="45.77445" lon="-1.233">
        <ele>51.8</ele>
        <time>2020-01-26T06:55:34Z</time>
      </trkpt>
      <trkpt lat="45.7744" lon="-1.233">
        <ele>51.8</ele>
        <time>2020-01-26T06:55:35Z</time>
      </trkpt>
      <trkpt lat="45.77435" lon="-1.23299">
        <ele>52.4</ele>
        <time>2020-01-26T06:55:36Z</time>
      </trkpt>
      <trkpt lat="45.7743" lon="-1.23298">
        <ele>52.8</ele>
        <time>2020-01-26T06:55:37Z</time>
      </trkpt>
      <trkpt lat="45.77426" lon="-1.23298">
        <ele>53.2</ele>
        <time>2020-01-26T06:55:38Z</time>
      </trkpt>
      <trkpt lat="45.77421" lon="-1.23296">
        <ele>53.6</ele>
        <time>2020-01-26T06:55:39Z</time>
      </trkpt>
      <trkpt lat="45.77417" lon="-1.23295">
        <ele>54.2</ele>
        <time>2020-01-26T06:55:40Z</time>
      </trkpt>
      <trkpt lat="45.77412" lon="-1.23294">
        <ele>55</ele>
        <time>2020-01-26T06:55:41Z</time>
      </trkpt>
      <trkpt lat="45.77407" lon="-1.23294">
        <ele>55.4</ele>
        <time>2020-01-26T06:55:42Z</time>
      </trkpt>
      <trkpt lat="45.77403" lon="-1.23295">
        <ele>56.2</ele>
        <time>2020-01-26T06:55:43Z</time>
      </trkpt>
      <trkpt lat="45.77399" lon="-1.23297">
        <ele>56.6</ele>
        <time>2020-01-26T06:55:44Z</time>
      </trkpt>
      <trkpt lat="45.77395" lon="-1.233">
        <ele>57</ele>
        <time>2020-01-26T06:55:45Z</time>
      </trkpt>
      <trkpt lat="45.77391" lon="-1.23302">
        <ele>57</ele>
        <time>2020-01-26T06:55:46Z</time>
      </trkpt>
      <trkpt lat="45.77388" lon="-1.23304">
        <ele>57</ele>
        <time>2020-01-26T06:55:47Z</time>
      </trkpt>
      <trkpt lat="45.77385" lon="-1.23307">
        <ele>57</ele>
        <time>2020-01-26T06:55:48Z</time>
      </trkpt>
      <trkpt lat="45.77381" lon="-1.23309">
        <ele>57</ele>
        <time>2020-01-26T06:55:49Z</time>
      </trkpt>
      <trkpt lat="45.77377" lon="-1.2331">
        <ele>57</ele>
        <time>2020-01-26T06:55:50Z</time>
      </trkpt>
      <trkpt lat="45.77373" lon="-1.2331">
        <ele>57</ele>
        <time>2020-01-26T06:55:51Z</time>
      </trkpt>
      <trkpt lat="45.77369" lon="-1.2331">
        <ele>56.8</ele>
        <time>2020-01-26T06:55:52Z</time>
      </trkpt>
      <trkpt lat="45.77364" lon="-1.2331">
        <ele>56.6</ele>
        <time>2020-01-26T06:55:53Z</time>
      </trkpt>
      <trkpt lat="45.77359" lon="-1.23309">
        <ele>57</ele>
        <time>2020-01-26T06:55:54Z</time>
      </trkpt>
      <trkpt lat="45.77355" lon="-1.23309">
        <ele>57</ele>
        <time>2020-01-26T06:55:55Z</time>
      </trkpt>
      <trkpt lat="45.77351" lon="-1.23308">
        <ele>57</ele>
        <time>2020-01-26T06:55:56Z</time>
      </trkpt>
      <trkpt lat="45.77346" lon="-1.23309">
        <ele>56.6</ele>
        <time>2020-01-26T06:55:57Z</time>
      </trkpt>
      <trkpt lat="45.77342" lon="-1.23308">
        <ele>56.6</ele>
        <time>2020-01-26T06:55:58Z</time>
      </trkpt>
      <trkpt lat="45.77337" lon="-1.23309">
        <ele>56.4</ele>
        <time>2020-01-26T06:55:59Z</time>
      </trkpt>
      <trkpt lat="45.77333" lon="-1.23311">
        <ele>56.2</ele>
        <time>2020-01-26T06:56:00Z</time>
      </trkpt>
      <trkpt lat="45.77328" lon="-1.23312">
        <ele>56</ele>
        <time>2020-01-26T06:56:01Z</time>
      </trkpt>
      <trkpt lat="45.77324" lon="-1.23313">
        <ele>55.8</ele>
        <time>2020-01-26T06:56:02Z</time>
      </trkpt>
      <trkpt lat="45.77319" lon="-1.23315">
        <ele>55.6</ele>
        <time>2020-01-26T06:56:03Z</time>
      </trkpt>
      <trkpt lat="45.77315" lon="-1.23317">
        <ele>55.2</ele>
        <time>2020-01-26T06:56:04Z</time>
      </trkpt>
      <trkpt lat="45.77311" lon="-1.23321">
        <ele>54.8</ele>
        <time>2020-01-26T06:56:05Z</time>
      </trkpt>
      <trkpt lat="45.77308" lon="-1.23323">
        <ele>54.6</ele>
        <time>2020-01-26T06:56:06Z</time>
      </trkpt>
      <trkpt lat="45.77303" lon="-1.23326">
        <ele>54.4</ele>
        <time>2020-01-26T06:56:07Z</time>
      </trkpt>
      <trkpt lat="45.77299" lon="-1.23327">
        <ele>54.2</ele>
        <time>2020-01-26T06:56:08Z</time>
      </trkpt>
      <trkpt lat="45.77294" lon="-1.23329">
        <ele>54</ele>
        <time>2020-01-26T06:56:09Z</time>
      </trkpt>
      <trkpt lat="45.7729" lon="-1.23331">
        <ele>54</ele>
        <time>2020-01-26T06:56:10Z</time>
      </trkpt>
      <trkpt lat="45.77285" lon="-1.23333">
        <ele>54</ele>
        <time>2020-01-26T06:56:11Z</time>
      </trkpt>
      <trkpt lat="45.77281" lon="-1.23334">
        <ele>54</ele>
        <time>2020-01-26T06:56:12Z</time>
      </trkpt>
      <trkpt lat="45.77277" lon="-1.23336">
        <ele>54</ele>
        <time>2020-01-26T06:56:13Z</time>
      </trkpt>
      <trkpt lat="45.77272" lon="-1.23337">
        <ele>54</ele>
        <time>2020-01-26T06:56:14Z</time>
      </trkpt>
      <trkpt lat="45.77267" lon="-1.23338">
        <ele>54</ele>
        <time>2020-01-26T06:56:15Z</time>
      </trkpt>
      <trkpt lat="45.77262" lon="-1.2334">
        <ele>54</ele>
        <time>2020-01-26T06:56:16Z</time>
      </trkpt>
      <trkpt lat="45.77258" lon="-1.2334">
        <ele>53.8</ele>
        <time>2020-01-26T06:56:17Z</time>
      </trkpt>
      <trkpt lat="45.77254" lon="-1.23341">
        <ele>53.6</ele>
        <time>2020-01-26T06:56:18Z</time>
      </trkpt>
      <trkpt lat="45.77249" lon="-1.23341">
        <ele>53.4</ele>
        <time>2020-01-26T06:56:19Z</time>
      </trkpt>
      <trkpt lat="45.77244" lon="-1.23341">
        <ele>53.4</ele>
        <time>2020-01-26T06:56:20Z</time>
      </trkpt>
      <trkpt lat="45.7724" lon="-1.2334">
        <ele>53.2</ele>
        <time>2020-01-26T06:56:21Z</time>
      </trkpt>
      <trkpt lat="45.77235" lon="-1.23339">
        <ele>52.8</ele>
        <time>2020-01-26T06:56:22Z</time>
      </trkpt>
      <trkpt lat="45.77232" lon="-1.23337">
        <ele>52.6</ele>
        <time>2020-01-26T06:56:23Z</time>
      </trkpt>
      <trkpt lat="45.77231" lon="-1.23333">
        <ele>52.6</ele>
        <time>2020-01-26T06:56:24Z</time>
      </trkpt>
      <trkpt lat="45.7723" lon="-1.23328">
        <ele>52.6</ele>
        <time>2020-01-26T06:56:25Z</time>
      </trkpt>
      <trkpt lat="45.7723" lon="-1.23323">
        <ele>52.8</ele>
        <time>2020-01-26T06:56:26Z</time>
      </trkpt>
      <trkpt lat="45.7723" lon="-1.23318">
        <ele>52.8</ele>
        <time>2020-01-26T06:56:27Z</time>
      </trkpt>
      <trkpt lat="45.7723" lon="-1.23313">
        <ele>52.8</ele>
        <time>2020-01-26T06:56:28Z</time>
      </trkpt>
      <trkpt lat="45.77231" lon="-1.23307">
        <ele>52.8</ele>
        <time>2020-01-26T06:56:29Z</time>
      </trkpt>
      <trkpt lat="45.77231" lon="-1.23301">
        <ele>53</ele>
        <time>2020-01-26T06:56:30Z</time>
      </trkpt>
      <trkpt lat="45.77231" lon="-1.23296">
        <ele>53.2</ele>
        <time>2020-01-26T06:56:31Z</time>
      </trkpt>
      <trkpt lat="45.77231" lon="-1.2329">
        <ele>53.4</ele>
        <time>2020-01-26T06:56:32Z</time>
      </trkpt>
      <trkpt lat="45.77231" lon="-1.23284">
        <ele>53.6</ele>
        <time>2020-01-26T06:56:33Z</time>
      </trkpt>
      <trkpt lat="45.77232" lon="-1.23278">
        <ele>53.8</ele>
        <time>2020-01-26T06:56:34Z</time>
      </trkpt>
      <trkpt lat="45.77232" lon="-1.23273">
        <ele>54</ele>
        <time>2020-01-26T06:56:35Z</time>
      </trkpt>
      <trkpt lat="45.77232" lon="-1.23267">
        <ele>54.2</ele>
        <time>2020-01-26T06:56:36Z</time>
      </trkpt>
      <trkpt lat="45.77232" lon="-1.23261">
        <ele>54.2</ele>
        <time>2020-01-26T06:56:37Z</time>
      </trkpt>
      <trkpt lat="45.77231" lon="-1.23255">
        <ele>54.4</ele>
        <time>2020-01-26T06:56:38Z</time>
      </trkpt>
      <trkpt lat="45.7723" lon="-1.23249">
        <ele>54.2</ele>
        <time>2020-01-26T06:56:39Z</time>
      </trkpt>
      <trkpt lat="45.7723" lon="-1.23243">
        <ele>54.2</ele>
        <time>2020-01-26T06:56:40Z</time>
      </trkpt>
      <trkpt lat="45.7723" lon="-1.23236">
        <ele>54.2</ele>
        <time>2020-01-26T06:56:41Z</time>
      </trkpt>
      <trkpt lat="45.77229" lon="-1.23228">
        <ele>53.8</ele>
        <time>2020-01-26T06:56:42Z</time>
      </trkpt>
      <trkpt lat="45.77228" lon="-1.23221">
        <ele>53.4</ele>
        <time>2020-01-26T06:56:43Z</time>
      </trkpt>
      <trkpt lat="45.77227" lon="-1.23212">
        <ele>53</ele>
        <time>2020-01-26T06:56:44Z</time>
      </trkpt>
      <trkpt lat="45.77225" lon="-1.23203">
        <ele>52.2</ele>
        <time>2020-01-26T06:56:45Z</time>
      </trkpt>
      <trkpt lat="45.77225" lon="-1.23195">
        <ele>51.6</ele>
        <time>2020-01-26T06:56:46Z</time>
      </trkpt>
      <trkpt lat="45.77225" lon="-1.23186">
        <ele>51.2</ele>
        <time>2020-01-26T06:56:47Z</time>
      </trkpt>
      <trkpt lat="45.77226" lon="-1.23179">
        <ele>51</ele>
        <time>2020-01-26T06:56:48Z</time>
      </trkpt>
      <trkpt lat="45.77225" lon="-1.23172">
        <ele>51</ele>
        <time>2020-01-26T06:56:49Z</time>
      </trkpt>
      <trkpt lat="45.77225" lon="-1.23165">
        <ele>51</ele>
        <time>2020-01-26T06:56:50Z</time>
      </trkpt>
      <trkpt lat="45.77224" lon="-1.23158">
        <ele>51</ele>
        <time>2020-01-26T06:56:51Z</time>
      </trkpt>
      <trkpt lat="45.77224" lon="-1.2315">
        <ele>51.2</ele>
        <time>2020-01-26T06:56:52Z</time>
      </trkpt>
      <trkpt lat="45.77224" lon="-1.23143">
        <ele>51.4</ele>
        <time>2020-01-26T06:56:53Z</time>
      </trkpt>
      <trkpt lat="45.77223" lon="-1.23137">
        <ele>51.4</ele>
        <time>2020-01-26T06:56:54Z</time>
      </trkpt>
      <trkpt lat="45.77224" lon="-1.23129">
        <ele>51.2</ele>
        <time>2020-01-26T06:56:55Z</time>
      </trkpt>
      <trkpt lat="45.77224" lon="-1.23122">
        <ele>51.2</ele>
        <time>2020-01-26T06:56:56Z</time>
      </trkpt>
      <trkpt lat="45.77225" lon="-1.23116">
        <ele>51.2</ele>
        <time>2020-01-26T06:56:57Z</time>
      </trkpt>
      <trkpt lat="45.77225" lon="-1.2311">
        <ele>51</ele>
        <time>2020-01-26T06:56:58Z</time>
      </trkpt>
      <trkpt lat="45.77226" lon="-1.23104">
        <ele>51</ele>
        <time>2020-01-26T06:56:59Z</time>
      </trkpt>
      <trkpt lat="45.77225" lon="-1.23097">
        <ele>51</ele>
        <time>2020-01-26T06:57:00Z</time>
      </trkpt>
      <trkpt lat="45.77225" lon="-1.23091">
        <ele>51.2</ele>
        <time>2020-01-26T06:57:01Z</time>
      </trkpt>
      <trkpt lat="45.77225" lon="-1.23084">
        <ele>51.2</ele>
        <time>2020-01-26T06:57:02Z</time>
      </trkpt>
      <trkpt lat="45.77225" lon="-1.23077">
        <ele>51.4</ele>
        <time>2020-01-26T06:57:03Z</time>
      </trkpt>
      <trkpt lat="45.77224" lon="-1.2307">
        <ele>51.6</ele>
        <time>2020-01-26T06:57:04Z</time>
      </trkpt>
      <trkpt lat="45.77225" lon="-1.23063">
        <ele>52</ele>
        <time>2020-01-26T06:57:05Z</time>
      </trkpt>
      <trkpt lat="45.77225" lon="-1.23056">
        <ele>52</ele>
        <time>2020-01-26T06:57:06Z</time>
      </trkpt>
      <trkpt lat="45.77225" lon="-1.23049">
        <ele>52</ele>
        <time>2020-01-26T06:57:07Z</time>
      </trkpt>
      <trkpt lat="45.77225" lon="-1.23041">
        <ele>52</ele>
        <time>2020-01-26T06:57:08Z</time>
      </trkpt>
      <trkpt lat="45.77224" lon="-1.23034">
        <ele>52</ele>
        <time>2020-01-26T06:57:09Z</time>
      </trkpt>
      <trkpt lat="45.77222" lon="-1.23029">
        <ele>52.2</ele>
        <time>2020-01-26T06:57:10Z</time>
      </trkpt>
      <trkpt lat="45.77222" lon="-1.23022">
        <ele>52.2</ele>
        <time>2020-01-26T06:57:11Z</time>
      </trkpt>
      <trkpt lat="45.77222" lon="-1.23015">
        <ele>52.2</ele>
        <time>2020-01-26T06:57:12Z</time>
      </trkpt>
      <trkpt lat="45.77222" lon="-1.23008">
        <ele>52</ele>
        <time>2020-01-26T06:57:13Z</time>
      </trkpt>
      <trkpt lat="45.77224" lon="-1.23001">
        <ele>52.2</ele>
        <time>2020-01-26T06:57:14Z</time>
      </trkpt>
      <trkpt lat="45.77224" lon="-1.22994">
        <ele>52.4</ele>
        <time>2020-01-26T06:57:15Z</time>
      </trkpt>
      <trkpt lat="45.77225" lon="-1.22988">
        <ele>52.6</ele>
        <time>2020-01-26T06:57:16Z</time>
      </trkpt>
      <trkpt lat="45.77225" lon="-1.22981">
        <ele>52.8</ele>
        <time>2020-01-26T06:57:17Z</time>
      </trkpt>
      <trkpt lat="45.77224" lon="-1.22975">
        <ele>53</ele>
        <time>2020-01-26T06:57:18Z</time>
      </trkpt>
      <trkpt lat="45.77222" lon="-1.22967">
        <ele>53.2</ele>
        <time>2020-01-26T06:57:19Z</time>
      </trkpt>
      <trkpt lat="45.77222" lon="-1.2296">
        <ele>53.4</ele>
        <time>2020-01-26T06:57:20Z</time>
      </trkpt>
      <trkpt lat="45.77221" lon="-1.22954">
        <ele>53.4</ele>
        <time>2020-01-26T06:57:21Z</time>
      </trkpt>
      <trkpt lat="45.77219" lon="-1.22949">
        <ele>53.4</ele>
        <time>2020-01-26T06:57:22Z</time>
      </trkpt>
      <trkpt lat="45.77217" lon="-1.22945">
        <ele>53.4</ele>
        <time>2020-01-26T06:57:23Z</time>
      </trkpt>
      <trkpt lat="45.77214" lon="-1.22939">
        <ele>54</ele>
        <time>2020-01-26T06:57:24Z</time>
      </trkpt>
      <trkpt lat="45.77214" lon="-1.22934">
        <ele>54.2</ele>
        <time>2020-01-26T06:57:25Z</time>
      </trkpt>
      <trkpt lat="45.77215" lon="-1.22928">
        <ele>54.2</ele>
        <time>2020-01-26T06:57:26Z</time>
      </trkpt>
      <trkpt lat="45.77216" lon="-1.22921">
        <ele>54.2</ele>
        <time>2020-01-26T06:57:27Z</time>
      </trkpt>
      <trkpt lat="45.77216" lon="-1.22914">
        <ele>54.4</ele>
        <time>2020-01-26T06:57:28Z</time>
      </trkpt>
      <trkpt lat="45.77216" lon="-1.22908">
        <ele>54.4</ele>
        <time>2020-01-26T06:57:29Z</time>
      </trkpt>
      <trkpt lat="45.77214" lon="-1.22903">
        <ele>54.2</ele>
        <time>2020-01-26T06:57:30Z</time>
      </trkpt>
      <trkpt lat="45.77216" lon="-1.22896">
        <ele>54</ele>
        <time>2020-01-26T06:57:31Z</time>
      </trkpt>
      <trkpt lat="45.77217" lon="-1.22889">
        <ele>53.8</ele>
        <time>2020-01-26T06:57:32Z</time>
      </trkpt>
      <trkpt lat="45.77216" lon="-1.22883">
        <ele>53.6</ele>
        <time>2020-01-26T06:57:33Z</time>
      </trkpt>
      <trkpt lat="45.77217" lon="-1.22877">
        <ele>53.4</ele>
        <time>2020-01-26T06:57:34Z</time>
      </trkpt>
      <trkpt lat="45.77217" lon="-1.2287">
        <ele>53.6</ele>
        <time>2020-01-26T06:57:35Z</time>
      </trkpt>
      <trkpt lat="45.77217" lon="-1.22864">
        <ele>53.2</ele>
        <time>2020-01-26T06:57:36Z</time>
      </trkpt>
      <trkpt lat="45.77217" lon="-1.22857">
        <ele>52.8</ele>
        <time>2020-01-26T06:57:37Z</time>
      </trkpt>
      <trkpt lat="45.77217" lon="-1.2285">
        <ele>52.6</ele>
        <time>2020-01-26T06:57:38Z</time>
      </trkpt>
      <trkpt lat="45.77217" lon="-1.22843">
        <ele>52.4</ele>
        <time>2020-01-26T06:57:39Z</time>
      </trkpt>
      <trkpt lat="45.77217" lon="-1.22835">
        <ele>52.4</ele>
        <time>2020-01-26T06:57:40Z</time>
      </trkpt>
      <trkpt lat="45.77217" lon="-1.2283">
        <ele>52.4</ele>
        <time>2020-01-26T06:57:41Z</time>
      </trkpt>
      <trkpt lat="45.77216" lon="-1.22823">
        <ele>52.6</ele>
        <time>2020-01-26T06:57:42Z</time>
      </trkpt>
      <trkpt lat="45.77217" lon="-1.22815">
        <ele>52.8</ele>
        <time>2020-01-26T06:57:43Z</time>
      </trkpt>
      <trkpt lat="45.77217" lon="-1.22809">
        <ele>53.2</ele>
        <time>2020-01-26T06:57:44Z</time>
      </trkpt>
      <trkpt lat="45.77216" lon="-1.22803">
        <ele>53.4</ele>
        <time>2020-01-26T06:57:45Z</time>
      </trkpt>
      <trkpt lat="45.77216" lon="-1.22797">
        <ele>53.2</ele>
        <time>2020-01-26T06:57:46Z</time>
      </trkpt>
      <trkpt lat="45.77216" lon="-1.2279">
        <ele>53.4</ele>
        <time>2020-01-26T06:57:47Z</time>
      </trkpt>
      <trkpt lat="45.77214" lon="-1.22779">
        <ele>54.6</ele>
        <time>2020-01-26T06:57:48Z</time>
      </trkpt>
      <trkpt lat="45.77214" lon="-1.22774">
        <ele>55.4</ele>
        <time>2020-01-26T06:57:49Z</time>
      </trkpt>
      <trkpt lat="45.77214" lon="-1.22766">
        <ele>56</ele>
        <time>2020-01-26T06:57:50Z</time>
      </trkpt>
      <trkpt lat="45.77213" lon="-1.22758">
        <ele>56.6</ele>
        <time>2020-01-26T06:57:51Z</time>
      </trkpt>
      <trkpt lat="45.77213" lon="-1.22752">
        <ele>57.2</ele>
        <time>2020-01-26T06:57:52Z</time>
      </trkpt>
      <trkpt lat="45.77213" lon="-1.22746">
        <ele>57.6</ele>
        <time>2020-01-26T06:57:53Z</time>
      </trkpt>
      <trkpt lat="45.77214" lon="-1.22741">
        <ele>58</ele>
        <time>2020-01-26T06:57:54Z</time>
      </trkpt>
      <trkpt lat="45.77215" lon="-1.22736">
        <ele>57.8</ele>
        <time>2020-01-26T06:57:55Z</time>
      </trkpt>
      <trkpt lat="45.77214" lon="-1.22731">
        <ele>57.8</ele>
        <time>2020-01-26T06:57:56Z</time>
      </trkpt>
      <trkpt lat="45.77214" lon="-1.22726">
        <ele>57.6</ele>
        <time>2020-01-26T06:57:57Z</time>
      </trkpt>
      <trkpt lat="45.77214" lon="-1.22721">
        <ele>57.4</ele>
        <time>2020-01-26T06:57:58Z</time>
      </trkpt>
      <trkpt lat="45.77217" lon="-1.22716">
        <ele>56.6</ele>
        <time>2020-01-26T06:57:59Z</time>
      </trkpt>
      <trkpt lat="45.77217" lon="-1.2271">
        <ele>56.4</ele>
        <time>2020-01-26T06:58:00Z</time>
      </trkpt>
      <trkpt lat="45.77217" lon="-1.22704">
        <ele>56.6</ele>
        <time>2020-01-26T06:58:01Z</time>
      </trkpt>
      <trkpt lat="45.77217" lon="-1.22699">
        <ele>57</ele>
        <time>2020-01-26T06:58:02Z</time>
      </trkpt>
      <trkpt lat="45.77216" lon="-1.22693">
        <ele>57.4</ele>
        <time>2020-01-26T06:58:03Z</time>
      </trkpt>
      <trkpt lat="45.77215" lon="-1.22686">
        <ele>58</ele>
        <time>2020-01-26T06:58:04Z</time>
      </trkpt>
      <trkpt lat="45.77215" lon="-1.2268">
        <ele>58.6</ele>
        <time>2020-01-26T06:58:05Z</time>
      </trkpt>
      <trkpt lat="45.77215" lon="-1.22673">
        <ele>59</ele>
        <time>2020-01-26T06:58:06Z</time>
      </trkpt>
      <trkpt lat="45.77214" lon="-1.22668">
        <ele>59.4</ele>
        <time>2020-01-26T06:58:07Z</time>
      </trkpt>
      <trkpt lat="45.77214" lon="-1.22662">
        <ele>59.4</ele>
        <time>2020-01-26T06:58:08Z</time>
      </trkpt>
      <trkpt lat="45.77214" lon="-1.22656">
        <ele>59.4</ele>
        <time>2020-01-26T06:58:09Z</time>
      </trkpt>
      <trkpt lat="45.77214" lon="-1.22651">
        <ele>59</ele>
        <time>2020-01-26T06:58:10Z</time>
      </trkpt>
      <trkpt lat="45.77214" lon="-1.22644">
        <ele>58.4</ele>
        <time>2020-01-26T06:58:11Z</time>
      </trkpt>
      <trkpt lat="45.77215" lon="-1.22637">
        <ele>58</ele>
        <time>2020-01-26T06:58:12Z</time>
      </trkpt>
      <trkpt lat="45.77216" lon="-1.2263">
        <ele>57.6</ele>
        <time>2020-01-26T06:58:13Z</time>
      </trkpt>
      <trkpt lat="45.77215" lon="-1.22622">
        <ele>56.8</ele>
        <time>2020-01-26T06:58:14Z</time>
      </trkpt>
      <trkpt lat="45.77214" lon="-1.22612">
        <ele>56.4</ele>
        <time>2020-01-26T06:58:15Z</time>
      </trkpt>
      <trkpt lat="45.77214" lon="-1.22602">
        <ele>56.2</ele>
        <time>2020-01-26T06:58:16Z</time>
      </trkpt>
      <trkpt lat="45.77215" lon="-1.22596">
        <ele>55.4</ele>
        <time>2020-01-26T06:58:17Z</time>
      </trkpt>
      <trkpt lat="45.77214" lon="-1.22588">
        <ele>54.6</ele>
        <time>2020-01-26T06:58:18Z</time>
      </trkpt>
      <trkpt lat="45.77213" lon="-1.2258">
        <ele>54.4</ele>
        <time>2020-01-26T06:58:19Z</time>
      </trkpt>
      <trkpt lat="45.77211" lon="-1.22571">
        <ele>55.6</ele>
        <time>2020-01-26T06:58:20Z</time>
      </trkpt>
      <trkpt lat="45.77211" lon="-1.22569">
        <ele>56.2</ele>
        <time>2020-01-26T06:58:21Z</time>
      </trkpt>
      <trkpt lat="45.7721" lon="-1.22566">
        <ele>56.8</ele>
        <time>2020-01-26T06:58:22Z</time>
      </trkpt>
      <trkpt lat="45.7721" lon="-1.22564">
        <ele>57.2</ele>
        <time>2020-01-26T06:58:23Z</time>
      </trkpt>
      <trkpt lat="45.77209" lon="-1.22562">
        <ele>57.4</ele>
        <time>2020-01-26T06:58:24Z</time>
      </trkpt>
      <trkpt lat="45.77209" lon="-1.2256">
        <ele>57.2</ele>
        <time>2020-01-26T06:58:25Z</time>
      </trkpt>
      <trkpt lat="45.77211" lon="-1.22559">
        <ele>57</ele>
        <time>2020-01-26T06:58:26Z</time>
      </trkpt>
      <trkpt lat="45.7721" lon="-1.22559">
        <ele>57.2</ele>
        <time>2020-01-26T06:58:27Z</time>
      </trkpt>
      <trkpt lat="45.7721" lon="-1.22564">
        <ele>57.4</ele>
        <time>2020-01-26T06:58:28Z</time>
      </trkpt>
      <trkpt lat="45.7721" lon="-1.22568">
        <ele>57.2</ele>
        <time>2020-01-26T06:58:29Z</time>
      </trkpt>
      <trkpt lat="45.77209" lon="-1.22572">
        <ele>57</ele>
        <time>2020-01-26T06:58:30Z</time>
      </trkpt>
      <trkpt lat="45.77209" lon="-1.22575">
        <ele>56.8</ele>
        <time>2020-01-26T06:58:31Z</time>
      </trkpt>
      <trkpt lat="45.77209" lon="-1.22577">
        <ele>56.4</ele>
        <time>2020-01-26T06:58:32Z</time>
      </trkpt>
      <trkpt lat="45.77207" lon="-1.22579">
        <ele>56</ele>
        <time>2020-01-26T06:58:33Z</time>
      </trkpt>
      <trkpt lat="45.77201" lon="-1.22575">
        <ele>56.8</ele>
        <time>2020-01-26T06:58:34Z</time>
      </trkpt>
      <trkpt lat="45.77198" lon="-1.22574">
        <ele>57.8</ele>
        <time>2020-01-26T06:58:35Z</time>
      </trkpt>
      <trkpt lat="45.77195" lon="-1.22573">
        <ele>58.4</ele>
        <time>2020-01-26T06:58:36Z</time>
      </trkpt>
      <trkpt lat="45.77193" lon="-1.22571">
        <ele>58.8</ele>
        <time>2020-01-26T06:58:37Z</time>
      </trkpt>
      <trkpt lat="45.77189" lon="-1.22568">
        <ele>59.8</ele>
        <time>2020-01-26T06:58:38Z</time>
      </trkpt>
      <trkpt lat="45.77187" lon="-1.22567">
        <ele>60.4</ele>
        <time>2020-01-26T06:58:39Z</time>
      </trkpt>
      <trkpt lat="45.77183" lon="-1.22565">
        <ele>60.4</ele>
        <time>2020-01-26T06:58:40Z</time>
      </trkpt>
      <trkpt lat="45.7718" lon="-1.22562">
        <ele>60.4</ele>
        <time>2020-01-26T06:58:41Z</time>
      </trkpt>
      <trkpt lat="45.77177" lon="-1.22558">
        <ele>60.6</ele>
        <time>2020-01-26T06:58:42Z</time>
      </trkpt>
      <trkpt lat="45.77173" lon="-1.22555">
        <ele>60.8</ele>
        <time>2020-01-26T06:58:43Z</time>
      </trkpt>
      <trkpt lat="45.77169" lon="-1.22551">
        <ele>61</ele>
        <time>2020-01-26T06:58:44Z</time>
      </trkpt>
      <trkpt lat="45.77166" lon="-1.22548">
        <ele>60.8</ele>
        <time>2020-01-26T06:58:45Z</time>
      </trkpt>
      <trkpt lat="45.77163" lon="-1.22545">
        <ele>60.8</ele>
        <time>2020-01-26T06:58:46Z</time>
      </trkpt>
      <trkpt lat="45.7716" lon="-1.22542">
        <ele>60.6</ele>
        <time>2020-01-26T06:58:47Z</time>
      </trkpt>
      <trkpt lat="45.77155" lon="-1.22535">
        <ele>61.2</ele>
        <time>2020-01-26T06:58:48Z</time>
      </trkpt>
      <trkpt lat="45.77152" lon="-1.22531">
        <ele>62</ele>
        <time>2020-01-26T06:58:49Z</time>
      </trkpt>
      <trkpt lat="45.77151" lon="-1.22526">
        <ele>62</ele>
        <time>2020-01-26T06:58:50Z</time>
      </trkpt>
      <trkpt lat="45.77148" lon="-1.22519">
        <ele>62</ele>
        <time>2020-01-26T06:58:51Z</time>
      </trkpt>
      <trkpt lat="45.77144" lon="-1.22513">
        <ele>61.6</ele>
        <time>2020-01-26T06:58:52Z</time>
      </trkpt>
      <trkpt lat="45.77141" lon="-1.22507">
        <ele>61.4</ele>
        <time>2020-01-26T06:58:53Z</time>
      </trkpt>
      <trkpt lat="45.77139" lon="-1.22502">
        <ele>61.2</ele>
        <time>2020-01-26T06:58:54Z</time>
      </trkpt>
      <trkpt lat="45.77136" lon="-1.22495">
        <ele>61</ele>
        <time>2020-01-26T06:58:55Z</time>
      </trkpt>
      <trkpt lat="45.77134" lon="-1.22492">
        <ele>60.6</ele>
        <time>2020-01-26T06:58:56Z</time>
      </trkpt>
      <trkpt lat="45.77132" lon="-1.22485">
        <ele>60.2</ele>
        <time>2020-01-26T06:58:57Z</time>
      </trkpt>
      <trkpt lat="45.77131" lon="-1.22478">
        <ele>59.8</ele>
        <time>2020-01-26T06:58:58Z</time>
      </trkpt>
      <trkpt lat="45.7713" lon="-1.22474">
        <ele>59.2</ele>
        <time>2020-01-26T06:58:59Z</time>
      </trkpt>
      <trkpt lat="45.77125" lon="-1.22465">
        <ele>60</ele>
        <time>2020-01-26T06:59:00Z</time>
      </trkpt>
      <trkpt lat="45.77124" lon="-1.22459">
        <ele>60.8</ele>
        <time>2020-01-26T06:59:01Z</time>
      </trkpt>
      <trkpt lat="45.77122" lon="-1.22452">
        <ele>61.6</ele>
        <time>2020-01-26T06:59:02Z</time>
      </trkpt>
      <trkpt lat="45.77123" lon="-1.22447">
        <ele>62.2</ele>
        <time>2020-01-26T06:59:03Z</time>
      </trkpt>
      <trkpt lat="45.77123" lon="-1.22441">
        <ele>62</ele>
        <time>2020-01-26T06:59:04Z</time>
      </trkpt>
      <trkpt lat="45.77122" lon="-1.22435">
        <ele>62</ele>
        <time>2020-01-26T06:59:05Z</time>
      </trkpt>
      <trkpt lat="45.77122" lon="-1.22429">
        <ele>62</ele>
        <time>2020-01-26T06:59:06Z</time>
      </trkpt>
      <trkpt lat="45.77122" lon="-1.22424">
        <ele>61.8</ele>
        <time>2020-01-26T06:59:07Z</time>
      </trkpt>
      <trkpt lat="45.77122" lon="-1.22418">
        <ele>61.6</ele>
        <time>2020-01-26T06:59:08Z</time>
      </trkpt>
      <trkpt lat="45.7712" lon="-1.22413">
        <ele>61.4</ele>
        <time>2020-01-26T06:59:09Z</time>
      </trkpt>
      <trkpt lat="45.77119" lon="-1.22407">
        <ele>61.4</ele>
        <time>2020-01-26T06:59:10Z</time>
      </trkpt>
      <trkpt lat="45.77118" lon="-1.22402">
        <ele>61.2</ele>
        <time>2020-01-26T06:59:11Z</time>
      </trkpt>
      <trkpt lat="45.77116" lon="-1.22396">
        <ele>61.4</ele>
        <time>2020-01-26T06:59:12Z</time>
      </trkpt>
      <trkpt lat="45.77115" lon="-1.22391">
        <ele>61.4</ele>
        <time>2020-01-26T06:59:13Z</time>
      </trkpt>
      <trkpt lat="45.77113" lon="-1.22387">
        <ele>61.4</ele>
        <time>2020-01-26T06:59:14Z</time>
      </trkpt>
      <trkpt lat="45.77111" lon="-1.22382">
        <ele>61.4</ele>
        <time>2020-01-26T06:59:15Z</time>
      </trkpt>
      <trkpt lat="45.77109" lon="-1.22376">
        <ele>62.4</ele>
        <time>2020-01-26T06:59:16Z</time>
      </trkpt>
      <trkpt lat="45.77108" lon="-1.22372">
        <ele>63.2</ele>
        <time>2020-01-26T06:59:17Z</time>
      </trkpt>
      <trkpt lat="45.77107" lon="-1.22367">
        <ele>64</ele>
        <time>2020-01-26T06:59:18Z</time>
      </trkpt>
      <trkpt lat="45.77105" lon="-1.22363">
        <ele>64.8</ele>
        <time>2020-01-26T06:59:19Z</time>
      </trkpt>
      <trkpt lat="45.77103" lon="-1.2236">
        <ele>65.6</ele>
        <time>2020-01-26T06:59:20Z</time>
      </trkpt>
      <trkpt lat="45.77102" lon="-1.22357">
        <ele>66</ele>
        <time>2020-01-26T06:59:21Z</time>
      </trkpt>
      <trkpt lat="45.771" lon="-1.22353">
        <ele>66.2</ele>
        <time>2020-01-26T06:59:22Z</time>
      </trkpt>
      <trkpt lat="45.77098" lon="-1.22348">
        <ele>66.6</ele>
        <time>2020-01-26T06:59:23Z</time>
      </trkpt>
      <trkpt lat="45.77096" lon="-1.22345">
        <ele>67</ele>
        <time>2020-01-26T06:59:24Z</time>
      </trkpt>
      <trkpt lat="45.77095" lon="-1.22341">
        <ele>67.2</ele>
        <time>2020-01-26T06:59:25Z</time>
      </trkpt>
      <trkpt lat="45.77093" lon="-1.22337">
        <ele>67.4</ele>
        <time>2020-01-26T06:59:26Z</time>
      </trkpt>
      <trkpt lat="45.77091" lon="-1.22334">
        <ele>67.6</ele>
        <time>2020-01-26T06:59:27Z</time>
      </trkpt>
      <trkpt lat="45.77089" lon="-1.22333">
        <ele>67.8</ele>
        <time>2020-01-26T06:59:28Z</time>
      </trkpt>
      <trkpt lat="45.77087" lon="-1.2233">
        <ele>68</ele>
        <time>2020-01-26T06:59:29Z</time>
      </trkpt>
      <trkpt lat="45.77084" lon="-1.22327">
        <ele>68.4</ele>
        <time>2020-01-26T06:59:30Z</time>
      </trkpt>
      <trkpt lat="45.77079" lon="-1.22321">
        <ele>69.6</ele>
        <time>2020-01-26T06:59:31Z</time>
      </trkpt>
      <trkpt lat="45.77077" lon="-1.22316">
        <ele>71</ele>
        <time>2020-01-26T06:59:32Z</time>
      </trkpt>
      <trkpt lat="45.77075" lon="-1.22313">
        <ele>72.2</ele>
        <time>2020-01-26T06:59:33Z</time>
      </trkpt>
      <trkpt lat="45.77073" lon="-1.2231">
        <ele>73.2</ele>
        <time>2020-01-26T06:59:34Z</time>
      </trkpt>
      <trkpt lat="45.77073" lon="-1.22309">
        <ele>73.4</ele>
        <time>2020-01-26T06:59:35Z</time>
      </trkpt>
      <trkpt lat="45.77071" lon="-1.22307">
        <ele>73.6</ele>
        <time>2020-01-26T06:59:36Z</time>
      </trkpt>
      <trkpt lat="45.7707" lon="-1.22304">
        <ele>73.6</ele>
        <time>2020-01-26T06:59:37Z</time>
      </trkpt>
      <trkpt lat="45.77069" lon="-1.22302">
        <ele>73.8</ele>
        <time>2020-01-26T06:59:38Z</time>
      </trkpt>
      <trkpt lat="45.77068" lon="-1.22299">
        <ele>73.8</ele>
        <time>2020-01-26T06:59:39Z</time>
      </trkpt>
      <trkpt lat="45.77065" lon="-1.22295">
        <ele>74.2</ele>
        <time>2020-01-26T06:59:40Z</time>
      </trkpt>
      <trkpt lat="45.77064" lon="-1.22293">
        <ele>74.4</ele>
        <time>2020-01-26T06:59:41Z</time>
      </trkpt>
      <trkpt lat="45.77063" lon="-1.2229">
        <ele>74.4</ele>
        <time>2020-01-26T06:59:42Z</time>
      </trkpt>
      <trkpt lat="45.77062" lon="-1.22288">
        <ele>74</ele>
        <time>2020-01-26T06:59:43Z</time>
      </trkpt>
      <trkpt lat="45.77061" lon="-1.22284">
        <ele>73.8</ele>
        <time>2020-01-26T06:59:44Z</time>
      </trkpt>
      <trkpt lat="45.7706" lon="-1.22279">
        <ele>73.6</ele>
        <time>2020-01-26T06:59:45Z</time>
      </trkpt>
      <trkpt lat="45.7706" lon="-1.22275">
        <ele>73.6</ele>
        <time>2020-01-26T06:59:46Z</time>
      </trkpt>
      <trkpt lat="45.77058" lon="-1.22271">
        <ele>74</ele>
        <time>2020-01-26T06:59:47Z</time>
      </trkpt>
      <trkpt lat="45.77058" lon="-1.22268">
        <ele>74.4</ele>
        <time>2020-01-26T06:59:48Z</time>
      </trkpt>
      <trkpt lat="45.77057" lon="-1.22265">
        <ele>75</ele>
        <time>2020-01-26T06:59:49Z</time>
      </trkpt>
      <trkpt lat="45.77057" lon="-1.22263">
        <ele>75.6</ele>
        <time>2020-01-26T06:59:50Z</time>
      </trkpt>
      <trkpt lat="45.77057" lon="-1.2226">
        <ele>76</ele>
        <time>2020-01-26T06:59:51Z</time>
      </trkpt>
      <trkpt lat="45.77057" lon="-1.22257">
        <ele>76</ele>
        <time>2020-01-26T06:59:52Z</time>
      </trkpt>
      <trkpt lat="45.77057" lon="-1.22253">
        <ele>76</ele>
        <time>2020-01-26T06:59:53Z</time>
      </trkpt>
      <trkpt lat="45.77055" lon="-1.22248">
        <ele>75.6</ele>
        <time>2020-01-26T06:59:54Z</time>
      </trkpt>
      <trkpt lat="45.77055" lon="-1.22243">
        <ele>75.4</ele>
        <time>2020-01-26T06:59:55Z</time>
      </trkpt>
      <trkpt lat="45.77053" lon="-1.22237">
        <ele>75.2</ele>
        <time>2020-01-26T06:59:56Z</time>
      </trkpt>
      <trkpt lat="45.77052" lon="-1.2223">
        <ele>74.8</ele>
        <time>2020-01-26T06:59:57Z</time>
      </trkpt>
      <trkpt lat="45.7705" lon="-1.22226">
        <ele>74.4</ele>
        <time>2020-01-26T06:59:58Z</time>
      </trkpt>
      <trkpt lat="45.77047" lon="-1.2222">
        <ele>74.4</ele>
        <time>2020-01-26T06:59:59Z</time>
      </trkpt>
      <trkpt lat="45.77045" lon="-1.22215">
        <ele>74.2</ele>
        <time>2020-01-26T07:00:00Z</time>
      </trkpt>
      <trkpt lat="45.77041" lon="-1.22207">
        <ele>74.2</ele>
        <time>2020-01-26T07:00:01Z</time>
      </trkpt>
      <trkpt lat="45.77037" lon="-1.222">
        <ele>74.2</ele>
        <time>2020-01-26T07:00:02Z</time>
      </trkpt>
      <trkpt lat="45.77036" lon="-1.22199">
        <ele>73.8</ele>
        <time>2020-01-26T07:00:03Z</time>
      </trkpt>
      <trkpt lat="45.77032" lon="-1.22197">
        <ele>73.2</ele>
        <time>2020-01-26T07:00:04Z</time>
      </trkpt>
      <trkpt lat="45.77031" lon="-1.22194">
        <ele>72.6</ele>
        <time>2020-01-26T07:00:05Z</time>
      </trkpt>
      <trkpt lat="45.7703" lon="-1.22191">
        <ele>72.2</ele>
        <time>2020-01-26T07:00:06Z</time>
      </trkpt>
      <trkpt lat="45.77028" lon="-1.22187">
        <ele>72.2</ele>
        <time>2020-01-26T07:00:07Z</time>
      </trkpt>
      <trkpt lat="45.77025" lon="-1.22183">
        <ele>72.2</ele>
        <time>2020-01-26T07:00:08Z</time>
      </trkpt>
      <trkpt lat="45.77024" lon="-1.22181">
        <ele>71.8</ele>
        <time>2020-01-26T07:00:09Z</time>
      </trkpt>
      <trkpt lat="45.77021" lon="-1.22176">
        <ele>71.4</ele>
        <time>2020-01-26T07:00:10Z</time>
      </trkpt>
      <trkpt lat="45.77019" lon="-1.22172">
        <ele>70.4</ele>
        <time>2020-01-26T07:00:11Z</time>
      </trkpt>
      <trkpt lat="45.77016" lon="-1.22166">
        <ele>69.8</ele>
        <time>2020-01-26T07:00:12Z</time>
      </trkpt>
      <trkpt lat="45.77014" lon="-1.22161">
        <ele>69.2</ele>
        <time>2020-01-26T07:00:13Z</time>
      </trkpt>
      <trkpt lat="45.7701" lon="-1.22156">
        <ele>68.2</ele>
        <time>2020-01-26T07:00:14Z</time>
      </trkpt>
      <trkpt lat="45.77008" lon="-1.22152">
        <ele>66.8</ele>
        <time>2020-01-26T07:00:15Z</time>
      </trkpt>
      <trkpt lat="45.77005" lon="-1.22147">
        <ele>65.6</ele>
        <time>2020-01-26T07:00:16Z</time>
      </trkpt>
      <trkpt lat="45.77001" lon="-1.22141">
        <ele>64.8</ele>
        <time>2020-01-26T07:00:17Z</time>
      </trkpt>
      <trkpt lat="45.76997" lon="-1.22135">
        <ele>63.8</ele>
        <time>2020-01-26T07:00:18Z</time>
      </trkpt>
      <trkpt lat="45.76992" lon="-1.22128">
        <ele>63</ele>
        <time>2020-01-26T07:00:19Z</time>
      </trkpt>
      <trkpt lat="45.76989" lon="-1.22121">
        <ele>62.2</ele>
        <time>2020-01-26T07:00:20Z</time>
      </trkpt>
      <trkpt lat="45.76984" lon="-1.22111">
        <ele>61.8</ele>
        <time>2020-01-26T07:00:21Z</time>
      </trkpt>
      <trkpt lat="45.7698" lon="-1.22101">
        <ele>61.8</ele>
        <time>2020-01-26T07:00:22Z</time>
      </trkpt>
      <trkpt lat="45.76977" lon="-1.22097">
        <ele>62.2</ele>
        <time>2020-01-26T07:00:23Z</time>
      </trkpt>
      <trkpt lat="45.76977" lon="-1.2209">
        <ele>62.4</ele>
        <time>2020-01-26T07:00:24Z</time>
      </trkpt>
      <trkpt lat="45.76975" lon="-1.22085">
        <ele>62.2</ele>
        <time>2020-01-26T07:00:25Z</time>
      </trkpt>
      <trkpt lat="45.76974" lon="-1.22079">
        <ele>62.4</ele>
        <time>2020-01-26T07:00:26Z</time>
      </trkpt>
      <trkpt lat="45.76974" lon="-1.22078">
        <ele>62.2</ele>
        <time>2020-01-26T07:00:27Z</time>
      </trkpt>
      <trkpt lat="45.76973" lon="-1.22072">
        <ele>62.6</ele>
        <time>2020-01-26T07:00:28Z</time>
      </trkpt>
      <trkpt lat="45.76973" lon="-1.22072">
        <ele>63.2</ele>
        <time>2020-01-26T07:00:29Z</time>
      </trkpt>
      <trkpt lat="45.76975" lon="-1.22072">
        <ele>63.4</ele>
        <time>2020-01-26T07:00:30Z</time>
      </trkpt>
      <trkpt lat="45.76978" lon="-1.22072">
        <ele>63.2</ele>
        <time>2020-01-26T07:00:31Z</time>
      </trkpt>
      <trkpt lat="45.7698" lon="-1.22073">
        <ele>63.2</ele>
        <time>2020-01-26T07:00:32Z</time>
      </trkpt>
      <trkpt lat="45.76983" lon="-1.22074">
        <ele>63.2</ele>
        <time>2020-01-26T07:00:33Z</time>
      </trkpt>
      <trkpt lat="45.76986" lon="-1.22074">
        <ele>63.2</ele>
        <time>2020-01-26T07:00:34Z</time>
      </trkpt>
      <trkpt lat="45.7699" lon="-1.22074">
        <ele>63.6</ele>
        <time>2020-01-26T07:00:35Z</time>
      </trkpt>
      <trkpt lat="45.76993" lon="-1.22075">
        <ele>64</ele>
        <time>2020-01-26T07:00:36Z</time>
      </trkpt>
      <trkpt lat="45.76995" lon="-1.22076">
        <ele>64</ele>
        <time>2020-01-26T07:00:37Z</time>
      </trkpt>
      <trkpt lat="45.76998" lon="-1.22076">
        <ele>64</ele>
        <time>2020-01-26T07:00:38Z</time>
      </trkpt>
      <trkpt lat="45.77001" lon="-1.22075">
        <ele>64.8</ele>
        <time>2020-01-26T07:00:39Z</time>
      </trkpt>
      <trkpt lat="45.77003" lon="-1.22075">
        <ele>65.6</ele>
        <time>2020-01-26T07:00:40Z</time>
      </trkpt>
      <trkpt lat="45.77004" lon="-1.22074">
        <ele>66.4</ele>
        <time>2020-01-26T07:00:41Z</time>
      </trkpt>
      <trkpt lat="45.77008" lon="-1.22076">
        <ele>67</ele>
        <time>2020-01-26T07:00:42Z</time>
      </trkpt>
      <trkpt lat="45.7701" lon="-1.22076">
        <ele>67.4</ele>
        <time>2020-01-26T07:00:43Z</time>
      </trkpt>
      <trkpt lat="45.77012" lon="-1.22074">
        <ele>67.8</ele>
        <time>2020-01-26T07:00:44Z</time>
      </trkpt>
      <trkpt lat="45.77014" lon="-1.22073">
        <ele>68</ele>
        <time>2020-01-26T07:00:45Z</time>
      </trkpt>
      <trkpt lat="45.77016" lon="-1.22073">
        <ele>68</ele>
        <time>2020-01-26T07:00:46Z</time>
      </trkpt>
      <trkpt lat="45.77017" lon="-1.22072">
        <ele>68.2</ele>
        <time>2020-01-26T07:00:47Z</time>
      </trkpt>
      <trkpt lat="45.77019" lon="-1.22073">
        <ele>67.6</ele>
        <time>2020-01-26T07:00:48Z</time>
      </trkpt>
      <trkpt lat="45.7702" lon="-1.22073">
        <ele>66.8</ele>
        <time>2020-01-26T07:00:49Z</time>
      </trkpt>
      <trkpt lat="45.77022" lon="-1.22071">
        <ele>66.2</ele>
        <time>2020-01-26T07:00:50Z</time>
      </trkpt>
      <trkpt lat="45.77024" lon="-1.22071">
        <ele>65.8</ele>
        <time>2020-01-26T07:00:51Z</time>
      </trkpt>
      <trkpt lat="45.77026" lon="-1.22069">
        <ele>65.8</ele>
        <time>2020-01-26T07:00:52Z</time>
      </trkpt>
      <trkpt lat="45.77028" lon="-1.22069">
        <ele>65.4</ele>
        <time>2020-01-26T07:00:53Z</time>
      </trkpt>
      <trkpt lat="45.77029" lon="-1.22069">
        <ele>65.2</ele>
        <time>2020-01-26T07:00:54Z</time>
      </trkpt>
      <trkpt lat="45.7703" lon="-1.22067">
        <ele>64.6</ele>
        <time>2020-01-26T07:00:55Z</time>
      </trkpt>
      <trkpt lat="45.77032" lon="-1.22067">
        <ele>64.2</ele>
        <time>2020-01-26T07:00:56Z</time>
      </trkpt>
      <trkpt lat="45.77034" lon="-1.22066">
        <ele>62.8</ele>
        <time>2020-01-26T07:00:57Z</time>
      </trkpt>
      <trkpt lat="45.77035" lon="-1.22066">
        <ele>61.4</ele>
        <time>2020-01-26T07:00:58Z</time>
      </trkpt>
      <trkpt lat="45.7704" lon="-1.22067">
        <ele>60.6</ele>
        <time>2020-01-26T07:00:59Z</time>
      </trkpt>
      <trkpt lat="45.77043" lon="-1.22067">
        <ele>60.2</ele>
        <time>2020-01-26T07:01:00Z</time>
      </trkpt>
      <trkpt lat="45.77045" lon="-1.22067">
        <ele>59.8</ele>
        <time>2020-01-26T07:01:01Z</time>
      </trkpt>
      <trkpt lat="45.77048" lon="-1.22066">
        <ele>59.6</ele>
        <time>2020-01-26T07:01:02Z</time>
      </trkpt>
      <trkpt lat="45.77051" lon="-1.22066">
        <ele>60</ele>
        <time>2020-01-26T07:01:03Z</time>
      </trkpt>
      <trkpt lat="45.77052" lon="-1.22065">
        <ele>61.2</ele>
        <time>2020-01-26T07:01:04Z</time>
      </trkpt>
      <trkpt lat="45.77054" lon="-1.22065">
        <ele>62.4</ele>
        <time>2020-01-26T07:01:05Z</time>
      </trkpt>
      <trkpt lat="45.77057" lon="-1.22065">
        <ele>63.6</ele>
        <time>2020-01-26T07:01:06Z</time>
      </trkpt>
      <trkpt lat="45.77059" lon="-1.22066">
        <ele>64.4</ele>
        <time>2020-01-26T07:01:07Z</time>
      </trkpt>
      <trkpt lat="45.77061" lon="-1.22066">
        <ele>64.8</ele>
        <time>2020-01-26T07:01:08Z</time>
      </trkpt>
      <trkpt lat="45.77064" lon="-1.22067">
        <ele>64.8</ele>
        <time>2020-01-26T07:01:09Z</time>
      </trkpt>
      <trkpt lat="45.77067" lon="-1.22068">
        <ele>64.6</ele>
        <time>2020-01-26T07:01:10Z</time>
      </trkpt>
      <trkpt lat="45.7707" lon="-1.22066">
        <ele>65</ele>
        <time>2020-01-26T07:01:11Z</time>
      </trkpt>
      <trkpt lat="45.77072" lon="-1.22066">
        <ele>65.2</ele>
        <time>2020-01-26T07:01:12Z</time>
      </trkpt>
      <trkpt lat="45.77074" lon="-1.22065">
        <ele>65.6</ele>
        <time>2020-01-26T07:01:13Z</time>
      </trkpt>
      <trkpt lat="45.77077" lon="-1.22066">
        <ele>66.4</ele>
        <time>2020-01-26T07:01:14Z</time>
      </trkpt>
      <trkpt lat="45.77079" lon="-1.22067">
        <ele>67.4</ele>
        <time>2020-01-26T07:01:15Z</time>
      </trkpt>
      <trkpt lat="45.77082" lon="-1.22067">
        <ele>68</ele>
        <time>2020-01-26T07:01:16Z</time>
      </trkpt>
      <trkpt lat="45.77085" lon="-1.22068">
        <ele>68.8</ele>
        <time>2020-01-26T07:01:17Z</time>
      </trkpt>
      <trkpt lat="45.77087" lon="-1.22068">
        <ele>69.4</ele>
        <time>2020-01-26T07:01:18Z</time>
      </trkpt>
      <trkpt lat="45.77089" lon="-1.22068">
        <ele>70</ele>
        <time>2020-01-26T07:01:19Z</time>
      </trkpt>
      <trkpt lat="45.77091" lon="-1.22068">
        <ele>70.8</ele>
        <time>2020-01-26T07:01:20Z</time>
      </trkpt>
      <trkpt lat="45.77094" lon="-1.22069">
        <ele>71.8</ele>
        <time>2020-01-26T07:01:21Z</time>
      </trkpt>
      <trkpt lat="45.77095" lon="-1.22069">
        <ele>72.6</ele>
        <time>2020-01-26T07:01:22Z</time>
      </trkpt>
      <trkpt lat="45.77097" lon="-1.22069">
        <ele>73</ele>
        <time>2020-01-26T07:01:23Z</time>
      </trkpt>
      <trkpt lat="45.771" lon="-1.22071">
        <ele>73.6</ele>
        <time>2020-01-26T07:01:24Z</time>
      </trkpt>
      <trkpt lat="45.77101" lon="-1.22071">
        <ele>74.4</ele>
        <time>2020-01-26T07:01:25Z</time>
      </trkpt>
      <trkpt lat="45.77103" lon="-1.22072">
        <ele>74.8</ele>
        <time>2020-01-26T07:01:26Z</time>
      </trkpt>
      <trkpt lat="45.77105" lon="-1.22072">
        <ele>75.6</ele>
        <time>2020-01-26T07:01:27Z</time>
      </trkpt>
      <trkpt lat="45.77109" lon="-1.22073">
        <ele>76.2</ele>
        <time>2020-01-26T07:01:28Z</time>
      </trkpt>
      <trkpt lat="45.77113" lon="-1.22073">
        <ele>76.6</ele>
        <time>2020-01-26T07:01:29Z</time>
      </trkpt>
      <trkpt lat="45.77112" lon="-1.2207">
        <ele>77</ele>
        <time>2020-01-26T07:01:30Z</time>
      </trkpt>
      <trkpt lat="45.77113" lon="-1.2207">
        <ele>77.6</ele>
        <time>2020-01-26T07:01:31Z</time>
      </trkpt>
      <trkpt lat="45.77115" lon="-1.22069">
        <ele>78.2</ele>
        <time>2020-01-26T07:01:32Z</time>
      </trkpt>
      <trkpt lat="45.77117" lon="-1.22071">
        <ele>78.4</ele>
        <time>2020-01-26T07:01:33Z</time>
      </trkpt>
      <trkpt lat="45.77119" lon="-1.22071">
        <ele>79</ele>
        <time>2020-01-26T07:01:34Z</time>
      </trkpt>
      <trkpt lat="45.77122" lon="-1.22072">
        <ele>79.2</ele>
        <time>2020-01-26T07:01:35Z</time>
      </trkpt>
      <trkpt lat="45.77125" lon="-1.22073">
        <ele>79.4</ele>
        <time>2020-01-26T07:01:36Z</time>
      </trkpt>
      <trkpt lat="45.77129" lon="-1.22074">
        <ele>79.4</ele>
        <time>2020-01-26T07:01:37Z</time>
      </trkpt>
      <trkpt lat="45.77133" lon="-1.22072">
        <ele>79.8</ele>
        <time>2020-01-26T07:01:38Z</time>
      </trkpt>
      <trkpt lat="45.77138" lon="-1.22073">
        <ele>80.6</ele>
        <time>2020-01-26T07:01:39Z</time>
      </trkpt>
      <trkpt lat="45.77142" lon="-1.22073">
        <ele>81.2</ele>
        <time>2020-01-26T07:01:40Z</time>
      </trkpt>
      <trkpt lat="45.77145" lon="-1.22073">
        <ele>81.2</ele>
        <time>2020-01-26T07:01:41Z</time>
      </trkpt>
      <trkpt lat="45.77148" lon="-1.22073">
        <ele>81.4</ele>
        <time>2020-01-26T07:01:42Z</time>
      </trkpt>
      <trkpt lat="45.77152" lon="-1.22073">
        <ele>81.6</ele>
        <time>2020-01-26T07:01:43Z</time>
      </trkpt>
      <trkpt lat="45.77155" lon="-1.22072">
        <ele>82</ele>
        <time>2020-01-26T07:01:44Z</time>
      </trkpt>
      <trkpt lat="45.77158" lon="-1.22071">
        <ele>82.2</ele>
        <time>2020-01-26T07:01:45Z</time>
      </trkpt>
      <trkpt lat="45.77161" lon="-1.22069">
        <ele>82.6</ele>
        <time>2020-01-26T07:01:46Z</time>
      </trkpt>
      <trkpt lat="45.77165" lon="-1.22069">
        <ele>82.8</ele>
        <time>2020-01-26T07:01:47Z</time>
      </trkpt>
      <trkpt lat="45.77168" lon="-1.22069">
        <ele>83</ele>
        <time>2020-01-26T07:01:48Z</time>
      </trkpt>
      <trkpt lat="45.77171" lon="-1.22068">
        <ele>82.4</ele>
        <time>2020-01-26T07:01:49Z</time>
      </trkpt>
      <trkpt lat="45.77173" lon="-1.22067">
        <ele>82</ele>
        <time>2020-01-26T07:01:50Z</time>
      </trkpt>
      <trkpt lat="45.77175" lon="-1.22067">
        <ele>82.2</ele>
        <time>2020-01-26T07:01:51Z</time>
      </trkpt>
      <trkpt lat="45.77177" lon="-1.22067">
        <ele>82.2</ele>
        <time>2020-01-26T07:01:52Z</time>
      </trkpt>
      <trkpt lat="45.77178" lon="-1.22066">
        <ele>82.4</ele>
        <time>2020-01-26T07:01:53Z</time>
      </trkpt>
      <trkpt lat="45.77179" lon="-1.22066">
        <ele>82.4</ele>
        <time>2020-01-26T07:01:54Z</time>
      </trkpt>
      <trkpt lat="45.77181" lon="-1.22065">
        <ele>82.6</ele>
        <time>2020-01-26T07:01:55Z</time>
      </trkpt>
      <trkpt lat="45.77185" lon="-1.22065">
        <ele>82</ele>
        <time>2020-01-26T07:01:56Z</time>
      </trkpt>
      <trkpt lat="45.77188" lon="-1.22065">
        <ele>81.2</ele>
        <time>2020-01-26T07:01:57Z</time>
      </trkpt>
      <trkpt lat="45.7719" lon="-1.22065">
        <ele>80.6</ele>
        <time>2020-01-26T07:01:58Z</time>
      </trkpt>
      <trkpt lat="45.77191" lon="-1.22064">
        <ele>80.4</ele>
        <time>2020-01-26T07:01:59Z</time>
      </trkpt>
      <trkpt lat="45.77192" lon="-1.22063">
        <ele>80.2</ele>
        <time>2020-01-26T07:02:00Z</time>
      </trkpt>
      <trkpt lat="45.77192" lon="-1.22062">
        <ele>79.8</ele>
        <time>2020-01-26T07:02:01Z</time>
      </trkpt>
      <trkpt lat="45.77193" lon="-1.22062">
        <ele>79.4</ele>
        <time>2020-01-26T07:02:02Z</time>
      </trkpt>
      <trkpt lat="45.77193" lon="-1.22062">
        <ele>79</ele>
        <time>2020-01-26T07:02:03Z</time>
      </trkpt>
      <trkpt lat="45.77194" lon="-1.22062">
        <ele>78.8</ele>
        <time>2020-01-26T07:02:04Z</time>
      </trkpt>
      <trkpt lat="45.77195" lon="-1.22062">
        <ele>78.6</ele>
        <time>2020-01-26T07:02:05Z</time>
      </trkpt>
      <trkpt lat="45.77195" lon="-1.22061">
        <ele>78.8</ele>
        <time>2020-01-26T07:02:06Z</time>
      </trkpt>
      <trkpt lat="45.77195" lon="-1.22061">
        <ele>79</ele>
        <time>2020-01-26T07:02:07Z</time>
      </trkpt>
      <trkpt lat="45.77195" lon="-1.22061">
        <ele>79.2</ele>
        <time>2020-01-26T07:02:08Z</time>
      </trkpt>
      <trkpt lat="45.77195" lon="-1.22061">
        <ele>79.6</ele>
        <time>2020-01-26T07:02:09Z</time>
      </trkpt>
      <trkpt lat="45.77195" lon="-1.22061">
        <ele>80</ele>
        <time>2020-01-26T07:02:10Z</time>
      </trkpt>
      <trkpt lat="45.77196" lon="-1.22061">
        <ele>80.2</ele>
        <time>2020-01-26T07:02:11Z</time>
      </trkpt>
      <trkpt lat="45.77196" lon="-1.22061">
        <ele>80.4</ele>
        <time>2020-01-26T07:02:12Z</time>
      </trkpt>
      <trkpt lat="45.77196" lon="-1.22061">
        <ele>80.6</ele>
        <time>2020-01-26T07:02:13Z</time>
      </trkpt>
      <trkpt lat="45.77197" lon="-1.22061">
        <ele>80.6</ele>
        <time>2020-01-26T07:02:14Z</time>
      </trkpt>
      <trkpt lat="45.77197" lon="-1.22061">
        <ele>80.8</ele>
        <time>2020-01-26T07:02:15Z</time>
      </trkpt>
      <trkpt lat="45.77197" lon="-1.22061">
        <ele>80.8</ele>
        <time>2020-01-26T07:02:16Z</time>
      </trkpt>
      <trkpt lat="45.77197" lon="-1.22061">
        <ele>80.8</ele>
        <time>2020-01-26T07:02:17Z</time>
      </trkpt>
      <trkpt lat="45.77197" lon="-1.22061">
        <ele>80.8</ele>
        <time>2020-01-26T07:02:18Z</time>
      </trkpt>
      <trkpt lat="45.77197" lon="-1.22061">
        <ele>80.8</ele>
        <time>2020-01-26T07:02:19Z</time>
      </trkpt>
      <trkpt lat="45.77197" lon="-1.22061">
        <ele>81</ele>
        <time>2020-01-26T07:02:20Z</time>
      </trkpt>
      <trkpt lat="45.77197" lon="-1.22061">
        <ele>81</ele>
        <time>2020-01-26T07:02:21Z</time>
      </trkpt>
      <trkpt lat="45.77197" lon="-1.22061">
        <ele>81</ele>
        <time>2020-01-26T07:02:22Z</time>
      </trkpt>
      <trkpt lat="45.77197" lon="-1.22061">
        <ele>81</ele>
        <time>2020-01-26T07:02:23Z</time>
      </trkpt>
      <trkpt lat="45.77197" lon="-1.22061">
        <ele>81</ele>
        <time>2020-01-26T07:02:24Z</time>
      </trkpt>
      <trkpt lat="45.77197" lon="-1.22061">
        <ele>81</ele>
        <time>2020-01-26T07:02:25Z</time>
      </trkpt>
      <trkpt lat="45.77197" lon="-1.22061">
        <ele>81</ele>
        <time>2020-01-26T07:02:26Z</time>
      </trkpt>
      <trkpt lat="45.77197" lon="-1.22061">
        <ele>81</ele>
        <time>2020-01-26T07:02:27Z</time>
      </trkpt>
      <trkpt lat="45.77197" lon="-1.22061">
        <ele>81</ele>
        <time>2020-01-26T07:02:28Z</time>
      </trkpt>
      <trkpt lat="45.77197" lon="-1.22061">
        <ele>81</ele>
        <time>2020-01-26T07:02:29Z</time>
      </trkpt>
      <trkpt lat="45.77197" lon="-1.22061">
        <ele>81</ele>
        <time>2020-01-26T07:02:30Z</time>
      </trkpt>
      <trkpt lat="45.77197" lon="-1.22061">
        <ele>81</ele>
        <time>2020-01-26T07:02:31Z</time>
      </trkpt>
      <trkpt lat="45.77197" lon="-1.22061">
        <ele>81</ele>
        <time>2020-01-26T07:02:32Z</time>
      </trkpt>
      <trkpt lat="45.77197" lon="-1.22061">
        <ele>81</ele>
        <time>2020-01-26T07:02:33Z</time>
      </trkpt>
      <trkpt lat="45.77197" lon="-1.22061">
        <ele>81</ele>
        <time>2020-01-26T07:02:34Z</time>
      </trkpt>
      <trkpt lat="45.77197" lon="-1.22061">
        <ele>81</ele>
        <time>2020-01-26T07:02:35Z</time>
      </trkpt>
      <trkpt lat="45.77197" lon="-1.22061">
        <ele>81</ele>
        <time>2020-01-26T07:02:36Z</time>
      </trkpt>
      <trkpt lat="45.77197" lon="-1.22061">
        <ele>81</ele>
        <time>2020-01-26T07:02:37Z</time>
      </trkpt>
      <trkpt lat="45.77197" lon="-1.22061">
        <ele>81</ele>
        <time>2020-01-26T07:02:38Z</time>
      </trkpt>
      <trkpt lat="45.77197" lon="-1.22061">
        <ele>81</ele>
        <time>2020-01-26T07:02:39Z</time>
      </trkpt>
      <trkpt lat="45.77197" lon="-1.22061">
        <ele>81</ele>
        <time>2020-01-26T07:02:40Z</time>
      </trkpt>
      <trkpt lat="45.77197" lon="-1.22061">
        <ele>81</ele>
        <time>2020-01-26T07:02:41Z</time>
      </trkpt>
      <trkpt lat="45.77197" lon="-1.22061">
        <ele>81</ele>
        <time>2020-01-26T07:02:42Z</time>
      </trkpt>
      <trkpt lat="45.77197" lon="-1.22061">
        <ele>81</ele>
        <time>2020-01-26T07:02:43Z</time>
      </trkpt>
      <trkpt lat="45.77197" lon="-1.22061">
        <ele>81</ele>
        <time>2020-01-26T07:02:44Z</time>
      </trkpt>
      <trkpt lat="45.77197" lon="-1.22061">
        <ele>81</ele>
        <time>2020-01-26T07:02:45Z</time>
      </trkpt>
      <trkpt lat="45.77197" lon="-1.22061">
        <ele>81</ele>
        <time>2020-01-26T07:02:46Z</time>
      </trkpt>
      <trkpt lat="45.77197" lon="-1.22061">
        <ele>81</ele>
        <time>2020-01-26T07:02:47Z</time>
      </trkpt>
      <trkpt lat="45.77197" lon="-1.22061">
        <ele>81</ele>
        <time>2020-01-26T07:02:48Z</time>
      </trkpt>
      <trkpt lat="45.77197" lon="-1.22061">
        <ele>81</ele>
        <time>2020-01-26T07:02:49Z</time>
      </trkpt>
      <trkpt lat="45.77197" lon="-1.22061">
        <ele>81</ele>
        <time>2020-01-26T07:02:50Z</time>
      </trkpt>
      <trkpt lat="45.77197" lon="-1.22061">
        <ele>81</ele>
        <time>2020-01-26T07:02:51Z</time>
      </trkpt>
      <trkpt lat="45.77197" lon="-1.22061">
        <ele>81</ele>
        <time>2020-01-26T07:02:52Z</time>
      </trkpt>
      <trkpt lat="45.77197" lon="-1.22061">
        <ele>81</ele>
        <time>2020-01-26T07:02:53Z</time>
      </trkpt>
      <trkpt lat="45.77197" lon="-1.22061">
        <ele>81</ele>
        <time>2020-01-26T07:02:54Z</time>
      </trkpt>
      <trkpt lat="45.77197" lon="-1.2206">
        <ele>81</ele>
        <time>2020-01-26T07:02:55Z</time>
      </trkpt>
      <trkpt lat="45.77198" lon="-1.2206">
        <ele>80.8</ele>
        <time>2020-01-26T07:02:56Z</time>
      </trkpt>
      <trkpt lat="45.77198" lon="-1.22059">
        <ele>80.8</ele>
        <time>2020-01-26T07:02:57Z</time>
      </trkpt>
      <trkpt lat="45.77198" lon="-1.22059">
        <ele>80.8</ele>
        <time>2020-01-26T07:02:58Z</time>
      </trkpt>
      <trkpt lat="45.77199" lon="-1.2206">
        <ele>80.6</ele>
        <time>2020-01-26T07:02:59Z</time>
      </trkpt>
      <trkpt lat="45.77199" lon="-1.2206">
        <ele>80.4</ele>
        <time>2020-01-26T07:03:00Z</time>
      </trkpt>
      <trkpt lat="45.77199" lon="-1.2206">
        <ele>80</ele>
        <time>2020-01-26T07:03:01Z</time>
      </trkpt>
      <trkpt lat="45.77199" lon="-1.2206">
        <ele>79.8</ele>
        <time>2020-01-26T07:03:02Z</time>
      </trkpt>
      <trkpt lat="45.77199" lon="-1.2206">
        <ele>79.6</ele>
        <time>2020-01-26T07:03:03Z</time>
      </trkpt>
      <trkpt lat="45.77199" lon="-1.2206">
        <ele>79.4</ele>
        <time>2020-01-26T07:03:04Z</time>
      </trkpt>
      <trkpt lat="45.77199" lon="-1.2206">
        <ele>79.4</ele>
        <time>2020-01-26T07:03:05Z</time>
      </trkpt>
      <trkpt lat="45.77199" lon="-1.2206">
        <ele>79.2</ele>
        <time>2020-01-26T07:03:06Z</time>
      </trkpt>
      <trkpt lat="45.77199" lon="-1.2206">
        <ele>79.2</ele>
        <time>2020-01-26T07:03:07Z</time>
      </trkpt>
      <trkpt lat="45.77199" lon="-1.2206">
        <ele>79.2</ele>
        <time>2020-01-26T07:03:08Z</time>
      </trkpt>
      <trkpt lat="45.77199" lon="-1.2206">
        <ele>79.2</ele>
        <time>2020-01-26T07:03:09Z</time>
      </trkpt>
      <trkpt lat="45.77199" lon="-1.2206">
        <ele>79</ele>
        <time>2020-01-26T07:03:10Z</time>
      </trkpt>
      <trkpt lat="45.77199" lon="-1.2206">
        <ele>79</ele>
        <time>2020-01-26T07:03:11Z</time>
      </trkpt>
      <trkpt lat="45.77199" lon="-1.2206">
        <ele>79</ele>
        <time>2020-01-26T07:03:12Z</time>
      </trkpt>
      <trkpt lat="45.77199" lon="-1.2206">
        <ele>79</ele>
        <time>2020-01-26T07:03:13Z</time>
      </trkpt>
      <trkpt lat="45.77199" lon="-1.2206">
        <ele>79</ele>
        <time>2020-01-26T07:03:14Z</time>
      </trkpt>
      <trkpt lat="45.77199" lon="-1.2206">
        <ele>79</ele>
        <time>2020-01-26T07:03:15Z</time>
      </trkpt>
      <trkpt lat="45.77199" lon="-1.2206">
        <ele>79</ele>
        <time>2020-01-26T07:03:16Z</time>
      </trkpt>
      <trkpt lat="45.77199" lon="-1.2206">
        <ele>79</ele>
        <time>2020-01-26T07:03:17Z</time>
      </trkpt>
      <trkpt lat="45.77199" lon="-1.2206">
        <ele>79</ele>
        <time>2020-01-26T07:03:18Z</time>
      </trkpt>
      <trkpt lat="45.77199" lon="-1.2206">
        <ele>79</ele>
        <time>2020-01-26T07:03:19Z</time>
      </trkpt>
      <trkpt lat="45.77199" lon="-1.2206">
        <ele>79</ele>
        <time>2020-01-26T07:03:20Z</time>
      </trkpt>
      <trkpt lat="45.77199" lon="-1.2206">
        <ele>79</ele>
        <time>2020-01-26T07:03:21Z</time>
      </trkpt>
      <trkpt lat="45.77199" lon="-1.2206">
        <ele>79</ele>
        <time>2020-01-26T07:03:22Z</time>
      </trkpt>
      <trkpt lat="45.77199" lon="-1.2206">
        <ele>79</ele>
        <time>2020-01-26T07:03:23Z</time>
      </trkpt>
      <trkpt lat="45.77199" lon="-1.2206">
        <ele>79</ele>
        <time>2020-01-26T07:03:24Z</time>
      </trkpt>
      <trkpt lat="45.77199" lon="-1.22059">
        <ele>78.8</ele>
        <time>2020-01-26T07:03:25Z</time>
      </trkpt>
      <trkpt lat="45.77199" lon="-1.22059">
        <ele>78.6</ele>
        <time>2020-01-26T07:03:26Z</time>
      </trkpt>
      <trkpt lat="45.77199" lon="-1.22059">
        <ele>78.4</ele>
        <time>2020-01-26T07:03:27Z</time>
      </trkpt>
      <trkpt lat="45.77199" lon="-1.2206">
        <ele>78.4</ele>
        <time>2020-01-26T07:03:28Z</time>
      </trkpt>
      <trkpt lat="45.77199" lon="-1.2206">
        <ele>78.2</ele>
        <time>2020-01-26T07:03:29Z</time>
      </trkpt>
      <trkpt lat="45.77199" lon="-1.2206">
        <ele>78.2</ele>
        <time>2020-01-26T07:03:30Z</time>
      </trkpt>
      <trkpt lat="45.77199" lon="-1.2206">
        <ele>78.2</ele>
        <time>2020-01-26T07:03:31Z</time>
      </trkpt>
      <trkpt lat="45.77199" lon="-1.2206">
        <ele>78</ele>
        <time>2020-01-26T07:03:32Z</time>
      </trkpt>
      <trkpt lat="45.77199" lon="-1.22059">
        <ele>78</ele>
        <time>2020-01-26T07:03:33Z</time>
      </trkpt>
      <trkpt lat="45.77199" lon="-1.22059">
        <ele>78</ele>
        <time>2020-01-26T07:03:34Z</time>
      </trkpt>
      <trkpt lat="45.77199" lon="-1.22059">
        <ele>78</ele>
        <time>2020-01-26T07:03:35Z</time>
      </trkpt>
      <trkpt lat="45.77199" lon="-1.22059">
        <ele>78</ele>
        <time>2020-01-26T07:03:36Z</time>
      </trkpt>
      <trkpt lat="45.77199" lon="-1.22059">
        <ele>78</ele>
        <time>2020-01-26T07:03:37Z</time>
      </trkpt>
      <trkpt lat="45.77199" lon="-1.2206">
        <ele>78</ele>
        <time>2020-01-26T07:03:38Z</time>
      </trkpt>
      <trkpt lat="45.77199" lon="-1.2206">
        <ele>78</ele>
        <time>2020-01-26T07:03:39Z</time>
      </trkpt>
      <trkpt lat="45.77199" lon="-1.2206">
        <ele>78</ele>
        <time>2020-01-26T07:03:40Z</time>
      </trkpt>
      <trkpt lat="45.77199" lon="-1.2206">
        <ele>78</ele>
        <time>2020-01-26T07:03:41Z</time>
      </trkpt>
      <trkpt lat="45.77199" lon="-1.2206">
        <ele>78</ele>
        <time>2020-01-26T07:03:42Z</time>
      </trkpt>
      <trkpt lat="45.77199" lon="-1.2206">
        <ele>78</ele>
        <time>2020-01-26T07:03:43Z</time>
      </trkpt>
      <trkpt lat="45.77199" lon="-1.2206">
        <ele>78</ele>
        <time>2020-01-26T07:03:44Z</time>
      </trkpt>
      <trkpt lat="45.77199" lon="-1.2206">
        <ele>78</ele>
        <time>2020-01-26T07:03:45Z</time>
      </trkpt>
      <trkpt lat="45.772" lon="-1.2206">
        <ele>78</ele>
        <time>2020-01-26T07:03:46Z</time>
      </trkpt>
      <trkpt lat="45.772" lon="-1.2206">
        <ele>78</ele>
        <time>2020-01-26T07:03:47Z</time>
      </trkpt>
      <trkpt lat="45.772" lon="-1.2206">
        <ele>78</ele>
        <time>2020-01-26T07:03:48Z</time>
      </trkpt>
      <trkpt lat="45.772" lon="-1.22059">
        <ele>78</ele>
        <time>2020-01-26T07:03:49Z</time>
      </trkpt>
      <trkpt lat="45.772" lon="-1.22059">
        <ele>78</ele>
        <time>2020-01-26T07:03:50Z</time>
      </trkpt>
      <trkpt lat="45.772" lon="-1.2206">
        <ele>78</ele>
        <time>2020-01-26T07:03:51Z</time>
      </trkpt>
      <trkpt lat="45.772" lon="-1.2206">
        <ele>78.2</ele>
        <time>2020-01-26T07:03:52Z</time>
      </trkpt>
      <trkpt lat="45.772" lon="-1.22059">
        <ele>78.4</ele>
        <time>2020-01-26T07:03:53Z</time>
      </trkpt>
      <trkpt lat="45.772" lon="-1.22059">
        <ele>78.8</ele>
        <time>2020-01-26T07:03:54Z</time>
      </trkpt>
      <trkpt lat="45.772" lon="-1.22059">
        <ele>79.2</ele>
        <time>2020-01-26T07:03:55Z</time>
      </trkpt>
      <trkpt lat="45.772" lon="-1.22059">
        <ele>79.4</ele>
        <time>2020-01-26T07:03:56Z</time>
      </trkpt>
      <trkpt lat="45.772" lon="-1.22059">
        <ele>79.2</ele>
        <time>2020-01-26T07:03:57Z</time>
      </trkpt>
      <trkpt lat="45.772" lon="-1.22059">
        <ele>79.4</ele>
        <time>2020-01-26T07:03:58Z</time>
      </trkpt>
      <trkpt lat="45.772" lon="-1.22059">
        <ele>79.6</ele>
        <time>2020-01-26T07:03:59Z</time>
      </trkpt>
      <trkpt lat="45.772" lon="-1.22058">
        <ele>79.8</ele>
        <time>2020-01-26T07:04:00Z</time>
      </trkpt>
      <trkpt lat="45.772" lon="-1.22057">
        <ele>80</ele>
        <time>2020-01-26T07:04:01Z</time>
      </trkpt>
      <trkpt lat="45.772" lon="-1.22057">
        <ele>80.2</ele>
        <time>2020-01-26T07:04:02Z</time>
      </trkpt>
      <trkpt lat="45.772" lon="-1.22057">
        <ele>80.4</ele>
        <time>2020-01-26T07:04:03Z</time>
      </trkpt>
      <trkpt lat="45.772" lon="-1.22056">
        <ele>80.4</ele>
        <time>2020-01-26T07:04:04Z</time>
      </trkpt>
      <trkpt lat="45.772" lon="-1.22056">
        <ele>80.2</ele>
        <time>2020-01-26T07:04:05Z</time>
      </trkpt>
      <trkpt lat="45.772" lon="-1.22056">
        <ele>80.4</ele>
        <time>2020-01-26T07:04:06Z</time>
      </trkpt>
      <trkpt lat="45.77199" lon="-1.22057">
        <ele>80.6</ele>
        <time>2020-01-26T07:04:07Z</time>
      </trkpt>
      <trkpt lat="45.77199" lon="-1.22057">
        <ele>80.6</ele>
        <time>2020-01-26T07:04:08Z</time>
      </trkpt>
      <trkpt lat="45.77199" lon="-1.22057">
        <ele>80.8</ele>
        <time>2020-01-26T07:04:09Z</time>
      </trkpt>
      <trkpt lat="45.77199" lon="-1.22057">
        <ele>80.8</ele>
        <time>2020-01-26T07:04:10Z</time>
      </trkpt>
      <trkpt lat="45.77199" lon="-1.22056">
        <ele>80.8</ele>
        <time>2020-01-26T07:04:11Z</time>
      </trkpt>
      <trkpt lat="45.77198" lon="-1.22054">
        <ele>81</ele>
        <time>2020-01-26T07:04:12Z</time>
      </trkpt>
      <trkpt lat="45.77198" lon="-1.22052">
        <ele>81</ele>
        <time>2020-01-26T07:04:13Z</time>
      </trkpt>
      <trkpt lat="45.77198" lon="-1.22051">
        <ele>81</ele>
        <time>2020-01-26T07:04:14Z</time>
      </trkpt>
      <trkpt lat="45.77198" lon="-1.22048">
        <ele>80.6</ele>
        <time>2020-01-26T07:04:15Z</time>
      </trkpt>
      <trkpt lat="45.77198" lon="-1.22046">
        <ele>80.6</ele>
        <time>2020-01-26T07:04:16Z</time>
      </trkpt>
      <trkpt lat="45.77198" lon="-1.22045">
        <ele>80.4</ele>
        <time>2020-01-26T07:04:17Z</time>
      </trkpt>
      <trkpt lat="45.77198" lon="-1.22045">
        <ele>80.2</ele>
        <time>2020-01-26T07:04:18Z</time>
      </trkpt>
      <trkpt lat="45.77198" lon="-1.22042">
        <ele>79.8</ele>
        <time>2020-01-26T07:04:19Z</time>
      </trkpt>
      <trkpt lat="45.77198" lon="-1.2204">
        <ele>79.2</ele>
        <time>2020-01-26T07:04:20Z</time>
      </trkpt>
      <trkpt lat="45.77198" lon="-1.22036">
        <ele>78.2</ele>
        <time>2020-01-26T07:04:21Z</time>
      </trkpt>
      <trkpt lat="45.77199" lon="-1.22034">
        <ele>77.4</ele>
        <time>2020-01-26T07:04:22Z</time>
      </trkpt>
      <trkpt lat="45.77199" lon="-1.22033">
        <ele>76.8</ele>
        <time>2020-01-26T07:04:23Z</time>
      </trkpt>
      <trkpt lat="45.772" lon="-1.22033">
        <ele>76.2</ele>
        <time>2020-01-26T07:04:24Z</time>
      </trkpt>
      <trkpt lat="45.772" lon="-1.22033">
        <ele>75.6</ele>
        <time>2020-01-26T07:04:25Z</time>
      </trkpt>
      <trkpt lat="45.772" lon="-1.22033">
        <ele>75.2</ele>
        <time>2020-01-26T07:04:26Z</time>
      </trkpt>
      <trkpt lat="45.772" lon="-1.22033">
        <ele>75</ele>
        <time>2020-01-26T07:04:27Z</time>
      </trkpt>
      <trkpt lat="45.772" lon="-1.22033">
        <ele>74.6</ele>
        <time>2020-01-26T07:04:28Z</time>
      </trkpt>
      <trkpt lat="45.77199" lon="-1.22032">
        <ele>74.6</ele>
        <time>2020-01-26T07:04:29Z</time>
      </trkpt>
      <trkpt lat="45.77199" lon="-1.22032">
        <ele>74.4</ele>
        <time>2020-01-26T07:04:30Z</time>
      </trkpt>
      <trkpt lat="45.77199" lon="-1.22032">
        <ele>74.4</ele>
        <time>2020-01-26T07:04:31Z</time>
      </trkpt>
      <trkpt lat="45.77199" lon="-1.22032">
        <ele>74.4</ele>
        <time>2020-01-26T07:04:32Z</time>
      </trkpt>
      <trkpt lat="45.772" lon="-1.22031">
        <ele>74.6</ele>
        <time>2020-01-26T07:04:33Z</time>
      </trkpt>
      <trkpt lat="45.772" lon="-1.22031">
        <ele>74.8</ele>
        <time>2020-01-26T07:04:34Z</time>
      </trkpt>
      <trkpt lat="45.772" lon="-1.22031">
        <ele>75</ele>
        <time>2020-01-26T07:04:35Z</time>
      </trkpt>
      <trkpt lat="45.772" lon="-1.22031">
        <ele>75.2</ele>
        <time>2020-01-26T07:04:36Z</time>
      </trkpt>
      <trkpt lat="45.772" lon="-1.22031">
        <ele>75.4</ele>
        <time>2020-01-26T07:04:37Z</time>
      </trkpt>
      <trkpt lat="45.772" lon="-1.22031">
        <ele>75.4</ele>
        <time>2020-01-26T07:04:38Z</time>
      </trkpt>
      <trkpt lat="45.772" lon="-1.22031">
        <ele>75.2</ele>
        <time>2020-01-26T07:04:39Z</time>
      </trkpt>
      <trkpt lat="45.772" lon="-1.22031">
        <ele>75.2</ele>
        <time>2020-01-26T07:04:40Z</time>
      </trkpt>
      <trkpt lat="45.772" lon="-1.22031">
        <ele>75.2</ele>
        <time>2020-01-26T07:04:41Z</time>
      </trkpt>
      <trkpt lat="45.772" lon="-1.22031">
        <ele>75</ele>
        <time>2020-01-26T07:04:42Z</time>
      </trkpt>
      <trkpt lat="45.77201" lon="-1.22031">
        <ele>74.8</ele>
        <time>2020-01-26T07:04:43Z</time>
      </trkpt>
      <trkpt lat="45.772" lon="-1.22031">
        <ele>74.6</ele>
        <time>2020-01-26T07:04:44Z</time>
      </trkpt>
      <trkpt lat="45.772" lon="-1.22029">
        <ele>74.8</ele>
        <time>2020-01-26T07:04:45Z</time>
      </trkpt>
      <trkpt lat="45.772" lon="-1.22029">
        <ele>74.8</ele>
        <time>2020-01-26T07:04:46Z</time>
      </trkpt>
      <trkpt lat="45.772" lon="-1.22031">
        <ele>74.6</ele>
        <time>2020-01-26T07:04:47Z</time>
      </trkpt>
      <trkpt lat="45.772" lon="-1.2203">
        <ele>74.4</ele>
        <time>2020-01-26T07:04:48Z</time>
      </trkpt>
      <trkpt lat="45.772" lon="-1.2203">
        <ele>74</ele>
        <time>2020-01-26T07:04:49Z</time>
      </trkpt>
      <trkpt lat="45.772" lon="-1.2203">
        <ele>73.8</ele>
        <time>2020-01-26T07:04:50Z</time>
      </trkpt>
      <trkpt lat="45.77201" lon="-1.22028">
        <ele>73.2</ele>
        <time>2020-01-26T07:04:51Z</time>
      </trkpt>
      <trkpt lat="45.77201" lon="-1.22024">
        <ele>72.6</ele>
        <time>2020-01-26T07:04:52Z</time>
      </trkpt>
      <trkpt lat="45.772" lon="-1.22019">
        <ele>72</ele>
        <time>2020-01-26T07:04:53Z</time>
      </trkpt>
      <trkpt lat="45.77199" lon="-1.22013">
        <ele>71.2</ele>
        <time>2020-01-26T07:04:54Z</time>
      </trkpt>
      <trkpt lat="45.77198" lon="-1.22007">
        <ele>70.4</ele>
        <time>2020-01-26T07:04:55Z</time>
      </trkpt>
      <trkpt lat="45.77197" lon="-1.21999">
        <ele>70.4</ele>
        <time>2020-01-26T07:04:56Z</time>
      </trkpt>
      <trkpt lat="45.77197" lon="-1.21995">
        <ele>69.8</ele>
        <time>2020-01-26T07:04:57Z</time>
      </trkpt>
      <trkpt lat="45.77198" lon="-1.21994">
        <ele>68.8</ele>
        <time>2020-01-26T07:04:58Z</time>
      </trkpt>
      <trkpt lat="45.77199" lon="-1.21993">
        <ele>68</ele>
        <time>2020-01-26T07:04:59Z</time>
      </trkpt>
      <trkpt lat="45.77198" lon="-1.21991">
        <ele>67.8</ele>
        <time>2020-01-26T07:05:00Z</time>
      </trkpt>
      <trkpt lat="45.77198" lon="-1.21991">
        <ele>67.8</ele>
        <time>2020-01-26T07:05:01Z</time>
      </trkpt>
      <trkpt lat="45.77197" lon="-1.21991">
        <ele>68.2</ele>
        <time>2020-01-26T07:05:02Z</time>
      </trkpt>
      <trkpt lat="45.77197" lon="-1.21991">
        <ele>68</ele>
        <time>2020-01-26T07:05:03Z</time>
      </trkpt>
      <trkpt lat="45.77197" lon="-1.21991">
        <ele>68.2</ele>
        <time>2020-01-26T07:05:04Z</time>
      </trkpt>
      <trkpt lat="45.77196" lon="-1.21987">
        <ele>68.4</ele>
        <time>2020-01-26T07:05:05Z</time>
      </trkpt>
      <trkpt lat="45.77198" lon="-1.21988">
        <ele>68</ele>
        <time>2020-01-26T07:05:06Z</time>
      </trkpt>
      <trkpt lat="45.77198" lon="-1.21985">
        <ele>67.4</ele>
        <time>2020-01-26T07:05:07Z</time>
      </trkpt>
      <trkpt lat="45.77198" lon="-1.21979">
        <ele>67</ele>
        <time>2020-01-26T07:05:08Z</time>
      </trkpt>
      <trkpt lat="45.77197" lon="-1.21974">
        <ele>66.4</ele>
        <time>2020-01-26T07:05:09Z</time>
      </trkpt>
      <trkpt lat="45.77197" lon="-1.21969">
        <ele>66.2</ele>
        <time>2020-01-26T07:05:10Z</time>
      </trkpt>
      <trkpt lat="45.77197" lon="-1.21962">
        <ele>65.8</ele>
        <time>2020-01-26T07:05:11Z</time>
      </trkpt>
      <trkpt lat="45.77197" lon="-1.21957">
        <ele>65.4</ele>
        <time>2020-01-26T07:05:12Z</time>
      </trkpt>
      <trkpt lat="45.77197" lon="-1.21952">
        <ele>64.8</ele>
        <time>2020-01-26T07:05:13Z</time>
      </trkpt>
      <trkpt lat="45.77197" lon="-1.21947">
        <ele>64.6</ele>
        <time>2020-01-26T07:05:14Z</time>
      </trkpt>
      <trkpt lat="45.77195" lon="-1.21941">
        <ele>64.4</ele>
        <time>2020-01-26T07:05:15Z</time>
      </trkpt>
      <trkpt lat="45.77195" lon="-1.21936">
        <ele>64.4</ele>
        <time>2020-01-26T07:05:16Z</time>
      </trkpt>
      <trkpt lat="45.77195" lon="-1.21932">
        <ele>64.4</ele>
        <time>2020-01-26T07:05:17Z</time>
      </trkpt>
      <trkpt lat="45.77195" lon="-1.21927">
        <ele>64.6</ele>
        <time>2020-01-26T07:05:18Z</time>
      </trkpt>
      <trkpt lat="45.77195" lon="-1.21925">
        <ele>64.8</ele>
        <time>2020-01-26T07:05:19Z</time>
      </trkpt>
      <trkpt lat="45.77197" lon="-1.21923">
        <ele>64.8</ele>
        <time>2020-01-26T07:05:20Z</time>
      </trkpt>
      <trkpt lat="45.77198" lon="-1.21919">
        <ele>65</ele>
        <time>2020-01-26T07:05:21Z</time>
      </trkpt>
      <trkpt lat="45.77197" lon="-1.21916">
        <ele>65.2</ele>
        <time>2020-01-26T07:05:22Z</time>
      </trkpt>
      <trkpt lat="45.77198" lon="-1.21913">
        <ele>65.4</ele>
        <time>2020-01-26T07:05:23Z</time>
      </trkpt>
      <trkpt lat="45.77197" lon="-1.2191">
        <ele>65.6</ele>
        <time>2020-01-26T07:05:24Z</time>
      </trkpt>
      <trkpt lat="45.77195" lon="-1.21908">
        <ele>65.6</ele>
        <time>2020-01-26T07:05:25Z</time>
      </trkpt>
      <trkpt lat="45.77194" lon="-1.21908">
        <ele>65.8</ele>
        <time>2020-01-26T07:05:26Z</time>
      </trkpt>
      <trkpt lat="45.77194" lon="-1.21907">
        <ele>65.8</ele>
        <time>2020-01-26T07:05:27Z</time>
      </trkpt>
      <trkpt lat="45.77194" lon="-1.21908">
        <ele>65.8</ele>
        <time>2020-01-26T07:05:28Z</time>
      </trkpt>
      <trkpt lat="45.77193" lon="-1.21909">
        <ele>65.8</ele>
        <time>2020-01-26T07:05:29Z</time>
      </trkpt>
      <trkpt lat="45.77192" lon="-1.21909">
        <ele>66</ele>
        <time>2020-01-26T07:05:30Z</time>
      </trkpt>
      <trkpt lat="45.77192" lon="-1.2191">
        <ele>66</ele>
        <time>2020-01-26T07:05:31Z</time>
      </trkpt>
      <trkpt lat="45.77192" lon="-1.2191">
        <ele>66</ele>
        <time>2020-01-26T07:05:32Z</time>
      </trkpt>
      <trkpt lat="45.77192" lon="-1.2191">
        <ele>66</ele>
        <time>2020-01-26T07:05:33Z</time>
      </trkpt>
      <trkpt lat="45.77192" lon="-1.21911">
        <ele>65.8</ele>
        <time>2020-01-26T07:05:34Z</time>
      </trkpt>
      <trkpt lat="45.77192" lon="-1.21911">
        <ele>65.8</ele>
        <time>2020-01-26T07:05:35Z</time>
      </trkpt>
      <trkpt lat="45.77192" lon="-1.21911">
        <ele>66.2</ele>
        <time>2020-01-26T07:05:36Z</time>
      </trkpt>
      <trkpt lat="45.77191" lon="-1.21911">
        <ele>66.4</ele>
        <time>2020-01-26T07:05:37Z</time>
      </trkpt>
      <trkpt lat="45.77191" lon="-1.21911">
        <ele>66.6</ele>
        <time>2020-01-26T07:05:38Z</time>
      </trkpt>
      <trkpt lat="45.77191" lon="-1.21911">
        <ele>66.6</ele>
        <time>2020-01-26T07:05:39Z</time>
      </trkpt>
      <trkpt lat="45.77191" lon="-1.21911">
        <ele>66.8</ele>
        <time>2020-01-26T07:05:40Z</time>
      </trkpt>
      <trkpt lat="45.77191" lon="-1.21911">
        <ele>66.8</ele>
        <time>2020-01-26T07:05:41Z</time>
      </trkpt>
      <trkpt lat="45.77191" lon="-1.21911">
        <ele>66.8</ele>
        <time>2020-01-26T07:05:42Z</time>
      </trkpt>
      <trkpt lat="45.77191" lon="-1.21911">
        <ele>66.8</ele>
        <time>2020-01-26T07:05:43Z</time>
      </trkpt>
      <trkpt lat="45.77192" lon="-1.21911">
        <ele>66.6</ele>
        <time>2020-01-26T07:05:44Z</time>
      </trkpt>
      <trkpt lat="45.77192" lon="-1.21911">
        <ele>66.2</ele>
        <time>2020-01-26T07:05:45Z</time>
      </trkpt>
      <trkpt lat="45.77192" lon="-1.21911">
        <ele>65.8</ele>
        <time>2020-01-26T07:05:46Z</time>
      </trkpt>
      <trkpt lat="45.77192" lon="-1.21911">
        <ele>65.6</ele>
        <time>2020-01-26T07:05:47Z</time>
      </trkpt>
      <trkpt lat="45.77192" lon="-1.21911">
        <ele>65.6</ele>
        <time>2020-01-26T07:05:48Z</time>
      </trkpt>
      <trkpt lat="45.77192" lon="-1.21911">
        <ele>65.4</ele>
        <time>2020-01-26T07:05:49Z</time>
      </trkpt>
      <trkpt lat="45.77192" lon="-1.21911">
        <ele>65.2</ele>
        <time>2020-01-26T07:05:50Z</time>
      </trkpt>
      <trkpt lat="45.77192" lon="-1.21911">
        <ele>65.2</ele>
        <time>2020-01-26T07:05:51Z</time>
      </trkpt>
      <trkpt lat="45.77192" lon="-1.21911">
        <ele>65.2</ele>
        <time>2020-01-26T07:05:52Z</time>
      </trkpt>
      <trkpt lat="45.77192" lon="-1.21911">
        <ele>65.2</ele>
        <time>2020-01-26T07:05:53Z</time>
      </trkpt>
      <trkpt lat="45.77192" lon="-1.21911">
        <ele>65</ele>
        <time>2020-01-26T07:05:54Z</time>
      </trkpt>
      <trkpt lat="45.77192" lon="-1.21911">
        <ele>65</ele>
        <time>2020-01-26T07:05:55Z</time>
      </trkpt>
      <trkpt lat="45.77192" lon="-1.21911">
        <ele>65</ele>
        <time>2020-01-26T07:05:56Z</time>
      </trkpt>
      <trkpt lat="45.77192" lon="-1.21911">
        <ele>65</ele>
        <time>2020-01-26T07:05:57Z</time>
      </trkpt>
      <trkpt lat="45.77192" lon="-1.21911">
        <ele>65</ele>
        <time>2020-01-26T07:05:58Z</time>
      </trkpt>
      <trkpt lat="45.77192" lon="-1.21911">
        <ele>65</ele>
        <time>2020-01-26T07:05:59Z</time>
      </trkpt>
      <trkpt lat="45.77192" lon="-1.21911">
        <ele>64.8</ele>
        <time>2020-01-26T07:06:00Z</time>
      </trkpt>
      <trkpt lat="45.77192" lon="-1.21911">
        <ele>64.6</ele>
        <time>2020-01-26T07:06:01Z</time>
      </trkpt>
      <trkpt lat="45.77192" lon="-1.21911">
        <ele>64.4</ele>
        <time>2020-01-26T07:06:02Z</time>
      </trkpt>
      <trkpt lat="45.77192" lon="-1.2191">
        <ele>64.4</ele>
        <time>2020-01-26T07:06:03Z</time>
      </trkpt>
      <trkpt lat="45.77192" lon="-1.2191">
        <ele>64.2</ele>
        <time>2020-01-26T07:06:04Z</time>
      </trkpt>
      <trkpt lat="45.77192" lon="-1.2191">
        <ele>64.2</ele>
        <time>2020-01-26T07:06:05Z</time>
      </trkpt>
      <trkpt lat="45.77192" lon="-1.2191">
        <ele>64.2</ele>
        <time>2020-01-26T07:06:06Z</time>
      </trkpt>
      <trkpt lat="45.77192" lon="-1.21909">
        <ele>64</ele>
        <time>2020-01-26T07:06:07Z</time>
      </trkpt>
      <trkpt lat="45.77191" lon="-1.21907">
        <ele>64</ele>
        <time>2020-01-26T07:06:08Z</time>
      </trkpt>
      <trkpt lat="45.77191" lon="-1.21903">
        <ele>64</ele>
        <time>2020-01-26T07:06:09Z</time>
      </trkpt>
      <trkpt lat="45.77192" lon="-1.219">
        <ele>63.8</ele>
        <time>2020-01-26T07:06:10Z</time>
      </trkpt>
      <trkpt lat="45.77193" lon="-1.21896">
        <ele>63.8</ele>
        <time>2020-01-26T07:06:11Z</time>
      </trkpt>
      <trkpt lat="45.77194" lon="-1.21891">
        <ele>64.2</ele>
        <time>2020-01-26T07:06:12Z</time>
      </trkpt>
      <trkpt lat="45.77194" lon="-1.21886">
        <ele>64.6</ele>
        <time>2020-01-26T07:06:13Z</time>
      </trkpt>
      <trkpt lat="45.77193" lon="-1.21882">
        <ele>64.8</ele>
        <time>2020-01-26T07:06:14Z</time>
      </trkpt>
      <trkpt lat="45.77193" lon="-1.21876">
        <ele>65</ele>
        <time>2020-01-26T07:06:15Z</time>
      </trkpt>
      <trkpt lat="45.77192" lon="-1.21873">
        <ele>65</ele>
        <time>2020-01-26T07:06:16Z</time>
      </trkpt>
      <trkpt lat="45.77192" lon="-1.21869">
        <ele>65</ele>
        <time>2020-01-26T07:06:17Z</time>
      </trkpt>
      <trkpt lat="45.7719" lon="-1.21865">
        <ele>65.4</ele>
        <time>2020-01-26T07:06:18Z</time>
      </trkpt>
      <trkpt lat="45.77191" lon="-1.21859">
        <ele>66.4</ele>
        <time>2020-01-26T07:06:19Z</time>
      </trkpt>
      <trkpt lat="45.7719" lon="-1.21857">
        <ele>67.8</ele>
        <time>2020-01-26T07:06:20Z</time>
      </trkpt>
      <trkpt lat="45.7719" lon="-1.21853">
        <ele>68.2</ele>
        <time>2020-01-26T07:06:21Z</time>
      </trkpt>
      <trkpt lat="45.7719" lon="-1.21849">
        <ele>68.6</ele>
        <time>2020-01-26T07:06:22Z</time>
      </trkpt>
      <trkpt lat="45.77189" lon="-1.21846">
        <ele>68.8</ele>
        <time>2020-01-26T07:06:23Z</time>
      </trkpt>
      <trkpt lat="45.77189" lon="-1.21842">
        <ele>68.8</ele>
        <time>2020-01-26T07:06:24Z</time>
      </trkpt>
      <trkpt lat="45.77189" lon="-1.21838">
        <ele>68.6</ele>
        <time>2020-01-26T07:06:25Z</time>
      </trkpt>
      <trkpt lat="45.7719" lon="-1.21835">
        <ele>68.6</ele>
        <time>2020-01-26T07:06:26Z</time>
      </trkpt>
      <trkpt lat="45.7719" lon="-1.21831">
        <ele>68.6</ele>
        <time>2020-01-26T07:06:27Z</time>
      </trkpt>
      <trkpt lat="45.7719" lon="-1.21827">
        <ele>68.4</ele>
        <time>2020-01-26T07:06:28Z</time>
      </trkpt>
      <trkpt lat="45.77191" lon="-1.21825">
        <ele>68</ele>
        <time>2020-01-26T07:06:29Z</time>
      </trkpt>
      <trkpt lat="45.77191" lon="-1.21822">
        <ele>67.8</ele>
        <time>2020-01-26T07:06:30Z</time>
      </trkpt>
      <trkpt lat="45.77191" lon="-1.21819">
        <ele>67.6</ele>
        <time>2020-01-26T07:06:31Z</time>
      </trkpt>
      <trkpt lat="45.77192" lon="-1.21819">
        <ele>66.8</ele>
        <time>2020-01-26T07:06:32Z</time>
      </trkpt>
      <trkpt lat="45.77193" lon="-1.21816">
        <ele>66.4</ele>
        <time>2020-01-26T07:06:33Z</time>
      </trkpt>
      <trkpt lat="45.77193" lon="-1.21813">
        <ele>66</ele>
        <time>2020-01-26T07:06:34Z</time>
      </trkpt>
      <trkpt lat="45.77194" lon="-1.2181">
        <ele>65.8</ele>
        <time>2020-01-26T07:06:35Z</time>
      </trkpt>
      <trkpt lat="45.77193" lon="-1.21804">
        <ele>66</ele>
        <time>2020-01-26T07:06:36Z</time>
      </trkpt>
      <trkpt lat="45.77193" lon="-1.21802">
        <ele>65.8</ele>
        <time>2020-01-26T07:06:37Z</time>
      </trkpt>
      <trkpt lat="45.77193" lon="-1.21799">
        <ele>65.4</ele>
        <time>2020-01-26T07:06:38Z</time>
      </trkpt>
      <trkpt lat="45.77193" lon="-1.21796">
        <ele>65.6</ele>
        <time>2020-01-26T07:06:39Z</time>
      </trkpt>
      <trkpt lat="45.77193" lon="-1.21795">
        <ele>65.4</ele>
        <time>2020-01-26T07:06:40Z</time>
      </trkpt>
      <trkpt lat="45.77192" lon="-1.21793">
        <ele>66.2</ele>
        <time>2020-01-26T07:06:41Z</time>
      </trkpt>
      <trkpt lat="45.77192" lon="-1.2179">
        <ele>66.6</ele>
        <time>2020-01-26T07:06:42Z</time>
      </trkpt>
      <trkpt lat="45.77193" lon="-1.21789">
        <ele>66.6</ele>
        <time>2020-01-26T07:06:43Z</time>
      </trkpt>
      <trkpt lat="45.77194" lon="-1.21787">
        <ele>66.8</ele>
        <time>2020-01-26T07:06:44Z</time>
      </trkpt>
      <trkpt lat="45.77196" lon="-1.21786">
        <ele>67.2</ele>
        <time>2020-01-26T07:06:45Z</time>
      </trkpt>
      <trkpt lat="45.77197" lon="-1.21785">
        <ele>67.6</ele>
        <time>2020-01-26T07:06:46Z</time>
      </trkpt>
      <trkpt lat="45.77198" lon="-1.21786">
        <ele>67.8</ele>
        <time>2020-01-26T07:06:47Z</time>
      </trkpt>
      <trkpt lat="45.77199" lon="-1.21786">
        <ele>68</ele>
        <time>2020-01-26T07:06:48Z</time>
      </trkpt>
      <trkpt lat="45.772" lon="-1.21787">
        <ele>68</ele>
        <time>2020-01-26T07:06:49Z</time>
      </trkpt>
      <trkpt lat="45.77201" lon="-1.21788">
        <ele>68</ele>
        <time>2020-01-26T07:06:50Z</time>
      </trkpt>
      <trkpt lat="45.77202" lon="-1.21789">
        <ele>68</ele>
        <time>2020-01-26T07:06:51Z</time>
      </trkpt>
      <trkpt lat="45.77204" lon="-1.21789">
        <ele>68</ele>
        <time>2020-01-26T07:06:52Z</time>
      </trkpt>
      <trkpt lat="45.77206" lon="-1.2179">
        <ele>68</ele>
        <time>2020-01-26T07:06:53Z</time>
      </trkpt>
      <trkpt lat="45.77207" lon="-1.21789">
        <ele>68.2</ele>
        <time>2020-01-26T07:06:54Z</time>
      </trkpt>
      <trkpt lat="45.7721" lon="-1.2179">
        <ele>68.4</ele>
        <time>2020-01-26T07:06:55Z</time>
      </trkpt>
      <trkpt lat="45.77212" lon="-1.21791">
        <ele>68.6</ele>
        <time>2020-01-26T07:06:56Z</time>
      </trkpt>
      <trkpt lat="45.77215" lon="-1.21792">
        <ele>68.6</ele>
        <time>2020-01-26T07:06:57Z</time>
      </trkpt>
      <trkpt lat="45.77217" lon="-1.21793">
        <ele>68.8</ele>
        <time>2020-01-26T07:06:58Z</time>
      </trkpt>
      <trkpt lat="45.77219" lon="-1.21797">
        <ele>68.8</ele>
        <time>2020-01-26T07:06:59Z</time>
      </trkpt>
      <trkpt lat="45.7722" lon="-1.21802">
        <ele>68.6</ele>
        <time>2020-01-26T07:07:00Z</time>
      </trkpt>
      <trkpt lat="45.77222" lon="-1.21805">
        <ele>68.4</ele>
        <time>2020-01-26T07:07:01Z</time>
      </trkpt>
      <trkpt lat="45.77225" lon="-1.21807">
        <ele>68.4</ele>
        <time>2020-01-26T07:07:02Z</time>
      </trkpt>
      <trkpt lat="45.77229" lon="-1.21808">
        <ele>68.2</ele>
        <time>2020-01-26T07:07:03Z</time>
      </trkpt>
      <trkpt lat="45.77232" lon="-1.21808">
        <ele>68.2</ele>
        <time>2020-01-26T07:07:04Z</time>
      </trkpt>
      <trkpt lat="45.77235" lon="-1.21807">
        <ele>68.4</ele>
        <time>2020-01-26T07:07:05Z</time>
      </trkpt>
      <trkpt lat="45.77239" lon="-1.21806">
        <ele>68.2</ele>
        <time>2020-01-26T07:07:06Z</time>
      </trkpt>
      <trkpt lat="45.77242" lon="-1.21805">
        <ele>68.2</ele>
        <time>2020-01-26T07:07:07Z</time>
      </trkpt>
      <trkpt lat="45.77245" lon="-1.21805">
        <ele>68.2</ele>
        <time>2020-01-26T07:07:08Z</time>
      </trkpt>
      <trkpt lat="45.77248" lon="-1.21803">
        <ele>68.2</ele>
        <time>2020-01-26T07:07:09Z</time>
      </trkpt>
      <trkpt lat="45.77251" lon="-1.218">
        <ele>68.4</ele>
        <time>2020-01-26T07:07:10Z</time>
      </trkpt>
      <trkpt lat="45.77253" lon="-1.21797">
        <ele>68.8</ele>
        <time>2020-01-26T07:07:11Z</time>
      </trkpt>
      <trkpt lat="45.77255" lon="-1.21794">
        <ele>68.8</ele>
        <time>2020-01-26T07:07:12Z</time>
      </trkpt>
      <trkpt lat="45.77258" lon="-1.21793">
        <ele>68.8</ele>
        <time>2020-01-26T07:07:13Z</time>
      </trkpt>
      <trkpt lat="45.7726" lon="-1.21793">
        <ele>68.8</ele>
        <time>2020-01-26T07:07:14Z</time>
      </trkpt>
      <trkpt lat="45.77262" lon="-1.21792">
        <ele>68.6</ele>
        <time>2020-01-26T07:07:15Z</time>
      </trkpt>
      <trkpt lat="45.77265" lon="-1.21791">
        <ele>68.6</ele>
        <time>2020-01-26T07:07:16Z</time>
      </trkpt>
      <trkpt lat="45.77267" lon="-1.21789">
        <ele>69</ele>
        <time>2020-01-26T07:07:17Z</time>
      </trkpt>
      <trkpt lat="45.77267" lon="-1.21786">
        <ele>69.8</ele>
        <time>2020-01-26T07:07:18Z</time>
      </trkpt>
      <trkpt lat="45.77269" lon="-1.21785">
        <ele>70.6</ele>
        <time>2020-01-26T07:07:19Z</time>
      </trkpt>
      <trkpt lat="45.77271" lon="-1.21785">
        <ele>71.2</ele>
        <time>2020-01-26T07:07:20Z</time>
      </trkpt>
      <trkpt lat="45.77273" lon="-1.21783">
        <ele>72.2</ele>
        <time>2020-01-26T07:07:21Z</time>
      </trkpt>
      <trkpt lat="45.77275" lon="-1.21782">
        <ele>72.8</ele>
        <time>2020-01-26T07:07:22Z</time>
      </trkpt>
      <trkpt lat="45.77276" lon="-1.21779">
        <ele>73.4</ele>
        <time>2020-01-26T07:07:23Z</time>
      </trkpt>
      <trkpt lat="45.77277" lon="-1.21776">
        <ele>73.8</ele>
        <time>2020-01-26T07:07:24Z</time>
      </trkpt>
      <trkpt lat="45.77277" lon="-1.21773">
        <ele>74.2</ele>
        <time>2020-01-26T07:07:25Z</time>
      </trkpt>
      <trkpt lat="45.77279" lon="-1.2177">
        <ele>74.4</ele>
        <time>2020-01-26T07:07:26Z</time>
      </trkpt>
      <trkpt lat="45.7728" lon="-1.21768">
        <ele>74.6</ele>
        <time>2020-01-26T07:07:27Z</time>
      </trkpt>
      <trkpt lat="45.77281" lon="-1.21765">
        <ele>75.4</ele>
        <time>2020-01-26T07:07:28Z</time>
      </trkpt>
      <trkpt lat="45.77283" lon="-1.21764">
        <ele>76</ele>
        <time>2020-01-26T07:07:29Z</time>
      </trkpt>
      <trkpt lat="45.77287" lon="-1.21764">
        <ele>76.6</ele>
        <time>2020-01-26T07:07:30Z</time>
      </trkpt>
      <trkpt lat="45.77289" lon="-1.21762">
        <ele>77</ele>
        <time>2020-01-26T07:07:31Z</time>
      </trkpt>
      <trkpt lat="45.77291" lon="-1.21761">
        <ele>77.4</ele>
        <time>2020-01-26T07:07:32Z</time>
      </trkpt>
      <trkpt lat="45.77294" lon="-1.2176">
        <ele>78.2</ele>
        <time>2020-01-26T07:07:33Z</time>
      </trkpt>
      <trkpt lat="45.77295" lon="-1.2176">
        <ele>78.8</ele>
        <time>2020-01-26T07:07:34Z</time>
      </trkpt>
      <trkpt lat="45.77298" lon="-1.21759">
        <ele>79.4</ele>
        <time>2020-01-26T07:07:35Z</time>
      </trkpt>
      <trkpt lat="45.773" lon="-1.21758">
        <ele>80.4</ele>
        <time>2020-01-26T07:07:36Z</time>
      </trkpt>
      <trkpt lat="45.77303" lon="-1.21757">
        <ele>81.2</ele>
        <time>2020-01-26T07:07:37Z</time>
      </trkpt>
      <trkpt lat="45.77305" lon="-1.21756">
        <ele>82</ele>
        <time>2020-01-26T07:07:38Z</time>
      </trkpt>
      <trkpt lat="45.77307" lon="-1.21754">
        <ele>82.4</ele>
        <time>2020-01-26T07:07:39Z</time>
      </trkpt>
      <trkpt lat="45.77308" lon="-1.21752">
        <ele>82.8</ele>
        <time>2020-01-26T07:07:40Z</time>
      </trkpt>
      <trkpt lat="45.7731" lon="-1.2175">
        <ele>82.8</ele>
        <time>2020-01-26T07:07:41Z</time>
      </trkpt>
      <trkpt lat="45.77311" lon="-1.21748">
        <ele>83</ele>
        <time>2020-01-26T07:07:42Z</time>
      </trkpt>
      <trkpt lat="45.77311" lon="-1.21745">
        <ele>83.2</ele>
        <time>2020-01-26T07:07:43Z</time>
      </trkpt>
      <trkpt lat="45.77311" lon="-1.21741">
        <ele>83.4</ele>
        <time>2020-01-26T07:07:44Z</time>
      </trkpt>
      <trkpt lat="45.77311" lon="-1.21738">
        <ele>83.8</ele>
        <time>2020-01-26T07:07:45Z</time>
      </trkpt>
      <trkpt lat="45.7731" lon="-1.21734">
        <ele>84.2</ele>
        <time>2020-01-26T07:07:46Z</time>
      </trkpt>
      <trkpt lat="45.77309" lon="-1.21732">
        <ele>84.4</ele>
        <time>2020-01-26T07:07:47Z</time>
      </trkpt>
      <trkpt lat="45.77308" lon="-1.21729">
        <ele>84.8</ele>
        <time>2020-01-26T07:07:48Z</time>
      </trkpt>
      <trkpt lat="45.77307" lon="-1.21727">
        <ele>85</ele>
        <time>2020-01-26T07:07:49Z</time>
      </trkpt>
      <trkpt lat="45.77306" lon="-1.21725">
        <ele>85.4</ele>
        <time>2020-01-26T07:07:50Z</time>
      </trkpt>
      <trkpt lat="45.77305" lon="-1.21722">
        <ele>85.8</ele>
        <time>2020-01-26T07:07:51Z</time>
      </trkpt>
      <trkpt lat="45.77304" lon="-1.2172">
        <ele>86</ele>
        <time>2020-01-26T07:07:52Z</time>
      </trkpt>
      <trkpt lat="45.77304" lon="-1.21717">
        <ele>86.2</ele>
        <time>2020-01-26T07:07:53Z</time>
      </trkpt>
      <trkpt lat="45.77303" lon="-1.21715">
        <ele>86.2</ele>
        <time>2020-01-26T07:07:54Z</time>
      </trkpt>
      <trkpt lat="45.77303" lon="-1.21713">
        <ele>85.8</ele>
        <time>2020-01-26T07:07:55Z</time>
      </trkpt>
      <trkpt lat="45.77303" lon="-1.21711">
        <ele>85.4</ele>
        <time>2020-01-26T07:07:56Z</time>
      </trkpt>
      <trkpt lat="45.77302" lon="-1.21707">
        <ele>85.4</ele>
        <time>2020-01-26T07:07:57Z</time>
      </trkpt>
      <trkpt lat="45.77301" lon="-1.21703">
        <ele>85.6</ele>
        <time>2020-01-26T07:07:58Z</time>
      </trkpt>
      <trkpt lat="45.77301" lon="-1.217">
        <ele>86</ele>
        <time>2020-01-26T07:07:59Z</time>
      </trkpt>
      <trkpt lat="45.773" lon="-1.21696">
        <ele>86.2</ele>
        <time>2020-01-26T07:08:00Z</time>
      </trkpt>
      <trkpt lat="45.77299" lon="-1.21692">
        <ele>86.4</ele>
        <time>2020-01-26T07:08:01Z</time>
      </trkpt>
      <trkpt lat="45.77299" lon="-1.21688">
        <ele>86.8</ele>
        <time>2020-01-26T07:08:02Z</time>
      </trkpt>
      <trkpt lat="45.77299" lon="-1.21685">
        <ele>87.2</ele>
        <time>2020-01-26T07:08:03Z</time>
      </trkpt>
      <trkpt lat="45.77298" lon="-1.21682">
        <ele>87.4</ele>
        <time>2020-01-26T07:08:04Z</time>
      </trkpt>
      <trkpt lat="45.77297" lon="-1.21679">
        <ele>87.4</ele>
        <time>2020-01-26T07:08:05Z</time>
      </trkpt>
      <trkpt lat="45.77296" lon="-1.21674">
        <ele>87.4</ele>
        <time>2020-01-26T07:08:06Z</time>
      </trkpt>
      <trkpt lat="45.77295" lon="-1.21669">
        <ele>87.8</ele>
        <time>2020-01-26T07:08:07Z</time>
      </trkpt>
      <trkpt lat="45.77293" lon="-1.21666">
        <ele>88.4</ele>
        <time>2020-01-26T07:08:08Z</time>
      </trkpt>
      <trkpt lat="45.77292" lon="-1.21662">
        <ele>88.6</ele>
        <time>2020-01-26T07:08:09Z</time>
      </trkpt>
      <trkpt lat="45.77292" lon="-1.21658">
        <ele>89</ele>
        <time>2020-01-26T07:08:10Z</time>
      </trkpt>
      <trkpt lat="45.77291" lon="-1.21654">
        <ele>89.2</ele>
        <time>2020-01-26T07:08:11Z</time>
      </trkpt>
      <trkpt lat="45.7729" lon="-1.2165">
        <ele>89.6</ele>
        <time>2020-01-26T07:08:12Z</time>
      </trkpt>
      <trkpt lat="45.7729" lon="-1.21647">
        <ele>89.8</ele>
        <time>2020-01-26T07:08:13Z</time>
      </trkpt>
      <trkpt lat="45.77289" lon="-1.21642">
        <ele>89.6</ele>
        <time>2020-01-26T07:08:14Z</time>
      </trkpt>
      <trkpt lat="45.77288" lon="-1.21638">
        <ele>89.4</ele>
        <time>2020-01-26T07:08:15Z</time>
      </trkpt>
      <trkpt lat="45.77289" lon="-1.21634">
        <ele>89</ele>
        <time>2020-01-26T07:08:16Z</time>
      </trkpt>
      <trkpt lat="45.77288" lon="-1.2163">
        <ele>88.4</ele>
        <time>2020-01-26T07:08:17Z</time>
      </trkpt>
      <trkpt lat="45.77287" lon="-1.21627">
        <ele>88.2</ele>
        <time>2020-01-26T07:08:18Z</time>
      </trkpt>
      <trkpt lat="45.77286" lon="-1.21622">
        <ele>87.8</ele>
        <time>2020-01-26T07:08:19Z</time>
      </trkpt>
      <trkpt lat="45.77284" lon="-1.21618">
        <ele>87.6</ele>
        <time>2020-01-26T07:08:20Z</time>
      </trkpt>
      <trkpt lat="45.77282" lon="-1.21613">
        <ele>87.4</ele>
        <time>2020-01-26T07:08:21Z</time>
      </trkpt>
      <trkpt lat="45.77281" lon="-1.21609">
        <ele>87.2</ele>
        <time>2020-01-26T07:08:22Z</time>
      </trkpt>
      <trkpt lat="45.77279" lon="-1.21604">
        <ele>87</ele>
        <time>2020-01-26T07:08:23Z</time>
      </trkpt>
      <trkpt lat="45.77278" lon="-1.21599">
        <ele>87</ele>
        <time>2020-01-26T07:08:24Z</time>
      </trkpt>
      <trkpt lat="45.77277" lon="-1.21594">
        <ele>87.4</ele>
        <time>2020-01-26T07:08:25Z</time>
      </trkpt>
      <trkpt lat="45.77276" lon="-1.2159">
        <ele>87.4</ele>
        <time>2020-01-26T07:08:26Z</time>
      </trkpt>
      <trkpt lat="45.77275" lon="-1.21586">
        <ele>87.6</ele>
        <time>2020-01-26T07:08:27Z</time>
      </trkpt>
      <trkpt lat="45.77274" lon="-1.21582">
        <ele>87.8</ele>
        <time>2020-01-26T07:08:28Z</time>
      </trkpt>
      <trkpt lat="45.77273" lon="-1.21577">
        <ele>87.8</ele>
        <time>2020-01-26T07:08:29Z</time>
      </trkpt>
      <trkpt lat="45.77272" lon="-1.21573">
        <ele>87.8</ele>
        <time>2020-01-26T07:08:30Z</time>
      </trkpt>
      <trkpt lat="45.77271" lon="-1.2157">
        <ele>87.6</ele>
        <time>2020-01-26T07:08:31Z</time>
      </trkpt>
      <trkpt lat="45.77268" lon="-1.21566">
        <ele>87.4</ele>
        <time>2020-01-26T07:08:32Z</time>
      </trkpt>
      <trkpt lat="45.77264" lon="-1.21564">
        <ele>87.6</ele>
        <time>2020-01-26T07:08:33Z</time>
      </trkpt>
      <trkpt lat="45.77261" lon="-1.21562">
        <ele>87.6</ele>
        <time>2020-01-26T07:08:34Z</time>
      </trkpt>
      <trkpt lat="45.77258" lon="-1.2156">
        <ele>88</ele>
        <time>2020-01-26T07:08:35Z</time>
      </trkpt>
      <trkpt lat="45.77255" lon="-1.21558">
        <ele>88.2</ele>
        <time>2020-01-26T07:08:36Z</time>
      </trkpt>
      <trkpt lat="45.77253" lon="-1.21555">
        <ele>88.4</ele>
        <time>2020-01-26T07:08:37Z</time>
      </trkpt>
      <trkpt lat="45.77251" lon="-1.21551">
        <ele>88.8</ele>
        <time>2020-01-26T07:08:38Z</time>
      </trkpt>
      <trkpt lat="45.77249" lon="-1.21547">
        <ele>89.2</ele>
        <time>2020-01-26T07:08:39Z</time>
      </trkpt>
      <trkpt lat="45.77247" lon="-1.21543">
        <ele>89.6</ele>
        <time>2020-01-26T07:08:40Z</time>
      </trkpt>
      <trkpt lat="45.77245" lon="-1.2154">
        <ele>90</ele>
        <time>2020-01-26T07:08:41Z</time>
      </trkpt>
      <trkpt lat="45.77242" lon="-1.21538">
        <ele>90.4</ele>
        <time>2020-01-26T07:08:42Z</time>
      </trkpt>
      <trkpt lat="45.7724" lon="-1.21535">
        <ele>90.8</ele>
        <time>2020-01-26T07:08:43Z</time>
      </trkpt>
      <trkpt lat="45.77237" lon="-1.21533">
        <ele>91.2</ele>
        <time>2020-01-26T07:08:44Z</time>
      </trkpt>
      <trkpt lat="45.77234" lon="-1.21532">
        <ele>91.6</ele>
        <time>2020-01-26T07:08:45Z</time>
      </trkpt>
      <trkpt lat="45.77232" lon="-1.21531">
        <ele>92</ele>
        <time>2020-01-26T07:08:46Z</time>
      </trkpt>
      <trkpt lat="45.77229" lon="-1.21529">
        <ele>92.2</ele>
        <time>2020-01-26T07:08:47Z</time>
      </trkpt>
      <trkpt lat="45.77226" lon="-1.21527">
        <ele>92.6</ele>
        <time>2020-01-26T07:08:48Z</time>
      </trkpt>
      <trkpt lat="45.77224" lon="-1.21525">
        <ele>93</ele>
        <time>2020-01-26T07:08:49Z</time>
      </trkpt>
      <trkpt lat="45.77222" lon="-1.21523">
        <ele>93.2</ele>
        <time>2020-01-26T07:08:50Z</time>
      </trkpt>
      <trkpt lat="45.7722" lon="-1.21522">
        <ele>93.2</ele>
        <time>2020-01-26T07:08:51Z</time>
      </trkpt>
      <trkpt lat="45.77218" lon="-1.21522">
        <ele>93.4</ele>
        <time>2020-01-26T07:08:52Z</time>
      </trkpt>
      <trkpt lat="45.77216" lon="-1.21521">
        <ele>93.4</ele>
        <time>2020-01-26T07:08:53Z</time>
      </trkpt>
      <trkpt lat="45.77214" lon="-1.2152">
        <ele>93.4</ele>
        <time>2020-01-26T07:08:54Z</time>
      </trkpt>
      <trkpt lat="45.77213" lon="-1.21519">
        <ele>93.4</ele>
        <time>2020-01-26T07:08:55Z</time>
      </trkpt>
      <trkpt lat="45.77211" lon="-1.21518">
        <ele>93.2</ele>
        <time>2020-01-26T07:08:56Z</time>
      </trkpt>
      <trkpt lat="45.77211" lon="-1.21516">
        <ele>93</ele>
        <time>2020-01-26T07:08:57Z</time>
      </trkpt>
      <trkpt lat="45.7721" lon="-1.21514">
        <ele>93</ele>
        <time>2020-01-26T07:08:58Z</time>
      </trkpt>
      <trkpt lat="45.77208" lon="-1.21513">
        <ele>93</ele>
        <time>2020-01-26T07:08:59Z</time>
      </trkpt>
      <trkpt lat="45.77206" lon="-1.21511">
        <ele>93</ele>
        <time>2020-01-26T07:09:00Z</time>
      </trkpt>
      <trkpt lat="45.77202" lon="-1.21511">
        <ele>93</ele>
        <time>2020-01-26T07:09:01Z</time>
      </trkpt>
      <trkpt lat="45.77199" lon="-1.21512">
        <ele>93.2</ele>
        <time>2020-01-26T07:09:02Z</time>
      </trkpt>
      <trkpt lat="45.77196" lon="-1.21514">
        <ele>93.2</ele>
        <time>2020-01-26T07:09:03Z</time>
      </trkpt>
      <trkpt lat="45.77193" lon="-1.21515">
        <ele>93.2</ele>
        <time>2020-01-26T07:09:04Z</time>
      </trkpt>
      <trkpt lat="45.77191" lon="-1.21513">
        <ele>93</ele>
        <time>2020-01-26T07:09:05Z</time>
      </trkpt>
      <trkpt lat="45.77188" lon="-1.21511">
        <ele>92.8</ele>
        <time>2020-01-26T07:09:06Z</time>
      </trkpt>
      <trkpt lat="45.77186" lon="-1.21509">
        <ele>92.2</ele>
        <time>2020-01-26T07:09:07Z</time>
      </trkpt>
      <trkpt lat="45.77184" lon="-1.21505">
        <ele>92</ele>
        <time>2020-01-26T07:09:08Z</time>
      </trkpt>
      <trkpt lat="45.77182" lon="-1.21502">
        <ele>91.8</ele>
        <time>2020-01-26T07:09:09Z</time>
      </trkpt>
      <trkpt lat="45.7718" lon="-1.21501">
        <ele>91.8</ele>
        <time>2020-01-26T07:09:10Z</time>
      </trkpt>
      <trkpt lat="45.77179" lon="-1.215">
        <ele>91.8</ele>
        <time>2020-01-26T07:09:11Z</time>
      </trkpt>
      <trkpt lat="45.77177" lon="-1.21499">
        <ele>92</ele>
        <time>2020-01-26T07:09:12Z</time>
      </trkpt>
      <trkpt lat="45.77176" lon="-1.21498">
        <ele>92</ele>
        <time>2020-01-26T07:09:13Z</time>
      </trkpt>
      <trkpt lat="45.77173" lon="-1.215">
        <ele>91.8</ele>
        <time>2020-01-26T07:09:14Z</time>
      </trkpt>
      <trkpt lat="45.77171" lon="-1.21501">
        <ele>91.6</ele>
        <time>2020-01-26T07:09:15Z</time>
      </trkpt>
      <trkpt lat="45.77168" lon="-1.21503">
        <ele>91.2</ele>
        <time>2020-01-26T07:09:16Z</time>
      </trkpt>
      <trkpt lat="45.77163" lon="-1.21503">
        <ele>90.6</ele>
        <time>2020-01-26T07:09:17Z</time>
      </trkpt>
      <trkpt lat="45.7716" lon="-1.21501">
        <ele>90.4</ele>
        <time>2020-01-26T07:09:18Z</time>
      </trkpt>
      <trkpt lat="45.77156" lon="-1.21499">
        <ele>90.2</ele>
        <time>2020-01-26T07:09:19Z</time>
      </trkpt>
      <trkpt lat="45.77152" lon="-1.21495">
        <ele>90.2</ele>
        <time>2020-01-26T07:09:20Z</time>
      </trkpt>
      <trkpt lat="45.77149" lon="-1.21491">
        <ele>90.2</ele>
        <time>2020-01-26T07:09:21Z</time>
      </trkpt>
      <trkpt lat="45.77145" lon="-1.21488">
        <ele>90</ele>
        <time>2020-01-26T07:09:22Z</time>
      </trkpt>
      <trkpt lat="45.77141" lon="-1.21486">
        <ele>89.6</ele>
        <time>2020-01-26T07:09:23Z</time>
      </trkpt>
      <trkpt lat="45.77137" lon="-1.21483">
        <ele>89.2</ele>
        <time>2020-01-26T07:09:24Z</time>
      </trkpt>
      <trkpt lat="45.77133" lon="-1.2148">
        <ele>89</ele>
        <time>2020-01-26T07:09:25Z</time>
      </trkpt>
      <trkpt lat="45.77129" lon="-1.21475">
        <ele>88.6</ele>
        <time>2020-01-26T07:09:26Z</time>
      </trkpt>
      <trkpt lat="45.77126" lon="-1.21471">
        <ele>88.2</ele>
        <time>2020-01-26T07:09:27Z</time>
      </trkpt>
      <trkpt lat="45.77124" lon="-1.21469">
        <ele>88</ele>
        <time>2020-01-26T07:09:28Z</time>
      </trkpt>
      <trkpt lat="45.77121" lon="-1.21468">
        <ele>87.6</ele>
        <time>2020-01-26T07:09:29Z</time>
      </trkpt>
      <trkpt lat="45.77119" lon="-1.2147">
        <ele>87.2</ele>
        <time>2020-01-26T07:09:30Z</time>
      </trkpt>
      <trkpt lat="45.77117" lon="-1.21471">
        <ele>87</ele>
        <time>2020-01-26T07:09:31Z</time>
      </trkpt>
      <trkpt lat="45.77113" lon="-1.21471">
        <ele>86.8</ele>
        <time>2020-01-26T07:09:32Z</time>
      </trkpt>
      <trkpt lat="45.77109" lon="-1.21471">
        <ele>86.6</ele>
        <time>2020-01-26T07:09:33Z</time>
      </trkpt>
      <trkpt lat="45.77104" lon="-1.2147">
        <ele>87</ele>
        <time>2020-01-26T07:09:34Z</time>
      </trkpt>
      <trkpt lat="45.77101" lon="-1.21466">
        <ele>87.2</ele>
        <time>2020-01-26T07:09:35Z</time>
      </trkpt>
      <trkpt lat="45.77098" lon="-1.21463">
        <ele>86.8</ele>
        <time>2020-01-26T07:09:36Z</time>
      </trkpt>
      <trkpt lat="45.77096" lon="-1.2146">
        <ele>86.6</ele>
        <time>2020-01-26T07:09:37Z</time>
      </trkpt>
      <trkpt lat="45.77093" lon="-1.21456">
        <ele>86.6</ele>
        <time>2020-01-26T07:09:38Z</time>
      </trkpt>
      <trkpt lat="45.77089" lon="-1.21452">
        <ele>86.6</ele>
        <time>2020-01-26T07:09:39Z</time>
      </trkpt>
      <trkpt lat="45.77087" lon="-1.21448">
        <ele>86.6</ele>
        <time>2020-01-26T07:09:40Z</time>
      </trkpt>
      <trkpt lat="45.77084" lon="-1.21444">
        <ele>86.8</ele>
        <time>2020-01-26T07:09:41Z</time>
      </trkpt>
      <trkpt lat="45.77082" lon="-1.21442">
        <ele>86.8</ele>
        <time>2020-01-26T07:09:42Z</time>
      </trkpt>
      <trkpt lat="45.77079" lon="-1.21437">
        <ele>86.8</ele>
        <time>2020-01-26T07:09:43Z</time>
      </trkpt>
      <trkpt lat="45.77076" lon="-1.21433">
        <ele>86.8</ele>
        <time>2020-01-26T07:09:44Z</time>
      </trkpt>
      <trkpt lat="45.77073" lon="-1.2143">
        <ele>87</ele>
        <time>2020-01-26T07:09:45Z</time>
      </trkpt>
      <trkpt lat="45.77069" lon="-1.21425">
        <ele>87</ele>
        <time>2020-01-26T07:09:46Z</time>
      </trkpt>
      <trkpt lat="45.77064" lon="-1.2142">
        <ele>87.2</ele>
        <time>2020-01-26T07:09:47Z</time>
      </trkpt>
      <trkpt lat="45.77062" lon="-1.21415">
        <ele>87.4</ele>
        <time>2020-01-26T07:09:48Z</time>
      </trkpt>
      <trkpt lat="45.77059" lon="-1.21409">
        <ele>87.6</ele>
        <time>2020-01-26T07:09:49Z</time>
      </trkpt>
      <trkpt lat="45.77055" lon="-1.21404">
        <ele>87.6</ele>
        <time>2020-01-26T07:09:50Z</time>
      </trkpt>
      <trkpt lat="45.77049" lon="-1.21401">
        <ele>87.8</ele>
        <time>2020-01-26T07:09:51Z</time>
      </trkpt>
      <trkpt lat="45.77044" lon="-1.21397">
        <ele>87.8</ele>
        <time>2020-01-26T07:09:52Z</time>
      </trkpt>
      <trkpt lat="45.7704" lon="-1.21392">
        <ele>88.2</ele>
        <time>2020-01-26T07:09:53Z</time>
      </trkpt>
      <trkpt lat="45.77035" lon="-1.21388">
        <ele>88</ele>
        <time>2020-01-26T07:09:54Z</time>
      </trkpt>
      <trkpt lat="45.77031" lon="-1.21382">
        <ele>88</ele>
        <time>2020-01-26T07:09:55Z</time>
      </trkpt>
      <trkpt lat="45.77025" lon="-1.21377">
        <ele>88</ele>
        <time>2020-01-26T07:09:56Z</time>
      </trkpt>
      <trkpt lat="45.77021" lon="-1.21374">
        <ele>88</ele>
        <time>2020-01-26T07:09:57Z</time>
      </trkpt>
      <trkpt lat="45.77017" lon="-1.21371">
        <ele>87.6</ele>
        <time>2020-01-26T07:09:58Z</time>
      </trkpt>
      <trkpt lat="45.77013" lon="-1.21366">
        <ele>87</ele>
        <time>2020-01-26T07:09:59Z</time>
      </trkpt>
      <trkpt lat="45.77011" lon="-1.21363">
        <ele>86.2</ele>
        <time>2020-01-26T07:10:00Z</time>
      </trkpt>
      <trkpt lat="45.77007" lon="-1.21361">
        <ele>85.4</ele>
        <time>2020-01-26T07:10:01Z</time>
      </trkpt>
      <trkpt lat="45.77003" lon="-1.21355">
        <ele>84.8</ele>
        <time>2020-01-26T07:10:02Z</time>
      </trkpt>
      <trkpt lat="45.76999" lon="-1.21351">
        <ele>84.4</ele>
        <time>2020-01-26T07:10:03Z</time>
      </trkpt>
      <trkpt lat="45.76993" lon="-1.21348">
        <ele>84</ele>
        <time>2020-01-26T07:10:04Z</time>
      </trkpt>
      <trkpt lat="45.76989" lon="-1.21347">
        <ele>83.8</ele>
        <time>2020-01-26T07:10:05Z</time>
      </trkpt>
      <trkpt lat="45.76986" lon="-1.21345">
        <ele>83.4</ele>
        <time>2020-01-26T07:10:06Z</time>
      </trkpt>
      <trkpt lat="45.76983" lon="-1.21342">
        <ele>83.2</ele>
        <time>2020-01-26T07:10:07Z</time>
      </trkpt>
      <trkpt lat="45.7698" lon="-1.2134">
        <ele>83.2</ele>
        <time>2020-01-26T07:10:08Z</time>
      </trkpt>
      <trkpt lat="45.76977" lon="-1.21336">
        <ele>82.6</ele>
        <time>2020-01-26T07:10:09Z</time>
      </trkpt>
      <trkpt lat="45.76974" lon="-1.21333">
        <ele>82.4</ele>
        <time>2020-01-26T07:10:10Z</time>
      </trkpt>
      <trkpt lat="45.76971" lon="-1.21331">
        <ele>82.8</ele>
        <time>2020-01-26T07:10:11Z</time>
      </trkpt>
      <trkpt lat="45.76969" lon="-1.21329">
        <ele>83.2</ele>
        <time>2020-01-26T07:10:12Z</time>
      </trkpt>
      <trkpt lat="45.76968" lon="-1.21328">
        <ele>84</ele>
        <time>2020-01-26T07:10:13Z</time>
      </trkpt>
      <trkpt lat="45.76967" lon="-1.21327">
        <ele>84.8</ele>
        <time>2020-01-26T07:10:14Z</time>
      </trkpt>
      <trkpt lat="45.76965" lon="-1.21327">
        <ele>85.4</ele>
        <time>2020-01-26T07:10:15Z</time>
      </trkpt>
      <trkpt lat="45.76963" lon="-1.21326">
        <ele>86</ele>
        <time>2020-01-26T07:10:16Z</time>
      </trkpt>
      <trkpt lat="45.76961" lon="-1.21326">
        <ele>86.2</ele>
        <time>2020-01-26T07:10:17Z</time>
      </trkpt>
      <trkpt lat="45.76959" lon="-1.21326">
        <ele>86.6</ele>
        <time>2020-01-26T07:10:18Z</time>
      </trkpt>
      <trkpt lat="45.76958" lon="-1.21325">
        <ele>86.4</ele>
        <time>2020-01-26T07:10:19Z</time>
      </trkpt>
      <trkpt lat="45.76957" lon="-1.21326">
        <ele>85.8</ele>
        <time>2020-01-26T07:10:20Z</time>
      </trkpt>
      <trkpt lat="45.76955" lon="-1.21325">
        <ele>85.4</ele>
        <time>2020-01-26T07:10:21Z</time>
      </trkpt>
      <trkpt lat="45.76954" lon="-1.21324">
        <ele>84.8</ele>
        <time>2020-01-26T07:10:22Z</time>
      </trkpt>
      <trkpt lat="45.76953" lon="-1.21324">
        <ele>84.6</ele>
        <time>2020-01-26T07:10:23Z</time>
      </trkpt>
      <trkpt lat="45.76952" lon="-1.21324">
        <ele>84.8</ele>
        <time>2020-01-26T07:10:24Z</time>
      </trkpt>
      <trkpt lat="45.7695" lon="-1.21323">
        <ele>85</ele>
        <time>2020-01-26T07:10:25Z</time>
      </trkpt>
      <trkpt lat="45.76948" lon="-1.21323">
        <ele>85.6</ele>
        <time>2020-01-26T07:10:26Z</time>
      </trkpt>
      <trkpt lat="45.76947" lon="-1.21323">
        <ele>86</ele>
        <time>2020-01-26T07:10:27Z</time>
      </trkpt>
      <trkpt lat="45.76944" lon="-1.21323">
        <ele>86.8</ele>
        <time>2020-01-26T07:10:28Z</time>
      </trkpt>
      <trkpt lat="45.76942" lon="-1.21322">
        <ele>87.4</ele>
        <time>2020-01-26T07:10:29Z</time>
      </trkpt>
      <trkpt lat="45.7694" lon="-1.21321">
        <ele>87.6</ele>
        <time>2020-01-26T07:10:30Z</time>
      </trkpt>
      <trkpt lat="45.76938" lon="-1.21321">
        <ele>87.8</ele>
        <time>2020-01-26T07:10:31Z</time>
      </trkpt>
      <trkpt lat="45.76937" lon="-1.21321">
        <ele>87.8</ele>
        <time>2020-01-26T07:10:32Z</time>
      </trkpt>
      <trkpt lat="45.76935" lon="-1.21321">
        <ele>87.8</ele>
        <time>2020-01-26T07:10:33Z</time>
      </trkpt>
      <trkpt lat="45.76933" lon="-1.2132">
        <ele>87.6</ele>
        <time>2020-01-26T07:10:34Z</time>
      </trkpt>
      <trkpt lat="45.76932" lon="-1.21321">
        <ele>87.2</ele>
        <time>2020-01-26T07:10:35Z</time>
      </trkpt>
      <trkpt lat="45.76931" lon="-1.21319">
        <ele>87.2</ele>
        <time>2020-01-26T07:10:36Z</time>
      </trkpt>
      <trkpt lat="45.76929" lon="-1.21317">
        <ele>86.8</ele>
        <time>2020-01-26T07:10:37Z</time>
      </trkpt>
      <trkpt lat="45.76928" lon="-1.21316">
        <ele>86.4</ele>
        <time>2020-01-26T07:10:38Z</time>
      </trkpt>
      <trkpt lat="45.76927" lon="-1.21314">
        <ele>86.6</ele>
        <time>2020-01-26T07:10:39Z</time>
      </trkpt>
      <trkpt lat="45.76926" lon="-1.21313">
        <ele>86.8</ele>
        <time>2020-01-26T07:10:40Z</time>
      </trkpt>
      <trkpt lat="45.76925" lon="-1.21312">
        <ele>87</ele>
        <time>2020-01-26T07:10:41Z</time>
      </trkpt>
      <trkpt lat="45.76924" lon="-1.21311">
        <ele>86.6</ele>
        <time>2020-01-26T07:10:42Z</time>
      </trkpt>
      <trkpt lat="45.76923" lon="-1.21311">
        <ele>86.2</ele>
        <time>2020-01-26T07:10:43Z</time>
      </trkpt>
      <trkpt lat="45.76922" lon="-1.21309">
        <ele>86</ele>
        <time>2020-01-26T07:10:44Z</time>
      </trkpt>
      <trkpt lat="45.76921" lon="-1.21308">
        <ele>86</ele>
        <time>2020-01-26T07:10:45Z</time>
      </trkpt>
      <trkpt lat="45.7692" lon="-1.21308">
        <ele>86.6</ele>
        <time>2020-01-26T07:10:46Z</time>
      </trkpt>
      <trkpt lat="45.76918" lon="-1.21307">
        <ele>87</ele>
        <time>2020-01-26T07:10:47Z</time>
      </trkpt>
      <trkpt lat="45.76916" lon="-1.21306">
        <ele>87.4</ele>
        <time>2020-01-26T07:10:48Z</time>
      </trkpt>
      <trkpt lat="45.76914" lon="-1.21305">
        <ele>88.2</ele>
        <time>2020-01-26T07:10:49Z</time>
      </trkpt>
      <trkpt lat="45.76913" lon="-1.21305">
        <ele>88.8</ele>
        <time>2020-01-26T07:10:50Z</time>
      </trkpt>
      <trkpt lat="45.76912" lon="-1.21305">
        <ele>89.6</ele>
        <time>2020-01-26T07:10:51Z</time>
      </trkpt>
      <trkpt lat="45.76911" lon="-1.21304">
        <ele>90.2</ele>
        <time>2020-01-26T07:10:52Z</time>
      </trkpt>
      <trkpt lat="45.7691" lon="-1.21303">
        <ele>90.6</ele>
        <time>2020-01-26T07:10:53Z</time>
      </trkpt>
      <trkpt lat="45.76908" lon="-1.21302">
        <ele>91</ele>
        <time>2020-01-26T07:10:54Z</time>
      </trkpt>
      <trkpt lat="45.76907" lon="-1.21301">
        <ele>91.2</ele>
        <time>2020-01-26T07:10:55Z</time>
      </trkpt>
      <trkpt lat="45.76905" lon="-1.21301">
        <ele>91.4</ele>
        <time>2020-01-26T07:10:56Z</time>
      </trkpt>
      <trkpt lat="45.76904" lon="-1.21301">
        <ele>91.8</ele>
        <time>2020-01-26T07:10:57Z</time>
      </trkpt>
      <trkpt lat="45.76903" lon="-1.213">
        <ele>92.2</ele>
        <time>2020-01-26T07:10:58Z</time>
      </trkpt>
      <trkpt lat="45.76902" lon="-1.213">
        <ele>92.4</ele>
        <time>2020-01-26T07:10:59Z</time>
      </trkpt>
      <trkpt lat="45.769" lon="-1.21298">
        <ele>92.6</ele>
        <time>2020-01-26T07:11:00Z</time>
      </trkpt>
      <trkpt lat="45.76898" lon="-1.21297">
        <ele>92.6</ele>
        <time>2020-01-26T07:11:01Z</time>
      </trkpt>
      <trkpt lat="45.76897" lon="-1.21297">
        <ele>93</ele>
        <time>2020-01-26T07:11:02Z</time>
      </trkpt>
      <trkpt lat="45.76896" lon="-1.21297">
        <ele>93.2</ele>
        <time>2020-01-26T07:11:03Z</time>
      </trkpt>
      <trkpt lat="45.76894" lon="-1.21295">
        <ele>93.4</ele>
        <time>2020-01-26T07:11:04Z</time>
      </trkpt>
      <trkpt lat="45.76892" lon="-1.21294">
        <ele>93.6</ele>
        <time>2020-01-26T07:11:05Z</time>
      </trkpt>
      <trkpt lat="45.76891" lon="-1.21293">
        <ele>93.8</ele>
        <time>2020-01-26T07:11:06Z</time>
      </trkpt>
      <trkpt lat="45.76889" lon="-1.21291">
        <ele>94</ele>
        <time>2020-01-26T07:11:07Z</time>
      </trkpt>
      <trkpt lat="45.76888" lon="-1.2129">
        <ele>94.6</ele>
        <time>2020-01-26T07:11:08Z</time>
      </trkpt>
      <trkpt lat="45.76888" lon="-1.21289">
        <ele>95.2</ele>
        <time>2020-01-26T07:11:09Z</time>
      </trkpt>
      <trkpt lat="45.76886" lon="-1.21288">
        <ele>96</ele>
        <time>2020-01-26T07:11:10Z</time>
      </trkpt>
      <trkpt lat="45.76885" lon="-1.21288">
        <ele>96.4</ele>
        <time>2020-01-26T07:11:11Z</time>
      </trkpt>
      <trkpt lat="45.76884" lon="-1.21288">
        <ele>97</ele>
        <time>2020-01-26T07:11:12Z</time>
      </trkpt>
      <trkpt lat="45.76883" lon="-1.21288">
        <ele>97.6</ele>
        <time>2020-01-26T07:11:13Z</time>
      </trkpt>
      <trkpt lat="45.76883" lon="-1.21288">
        <ele>98.2</ele>
        <time>2020-01-26T07:11:14Z</time>
      </trkpt>
      <trkpt lat="45.76881" lon="-1.21287">
        <ele>99</ele>
        <time>2020-01-26T07:11:15Z</time>
      </trkpt>
      <trkpt lat="45.7688" lon="-1.21286">
        <ele>99.4</ele>
        <time>2020-01-26T07:11:16Z</time>
      </trkpt>
      <trkpt lat="45.76879" lon="-1.21286">
        <ele>99.8</ele>
        <time>2020-01-26T07:11:17Z</time>
      </trkpt>
      <trkpt lat="45.76878" lon="-1.21286">
        <ele>100.4</ele>
        <time>2020-01-26T07:11:18Z</time>
      </trkpt>
      <trkpt lat="45.76878" lon="-1.21286">
        <ele>100.8</ele>
        <time>2020-01-26T07:11:19Z</time>
      </trkpt>
      <trkpt lat="45.76876" lon="-1.21286">
        <ele>101.4</ele>
        <time>2020-01-26T07:11:20Z</time>
      </trkpt>
      <trkpt lat="45.76875" lon="-1.21286">
        <ele>102</ele>
        <time>2020-01-26T07:11:21Z</time>
      </trkpt>
      <trkpt lat="45.76873" lon="-1.21287">
        <ele>102.6</ele>
        <time>2020-01-26T07:11:22Z</time>
      </trkpt>
      <trkpt lat="45.76871" lon="-1.21287">
        <ele>103.2</ele>
        <time>2020-01-26T07:11:23Z</time>
      </trkpt>
      <trkpt lat="45.7687" lon="-1.21287">
        <ele>103.6</ele>
        <time>2020-01-26T07:11:24Z</time>
      </trkpt>
      <trkpt lat="45.76869" lon="-1.21286">
        <ele>103.8</ele>
        <time>2020-01-26T07:11:25Z</time>
      </trkpt>
      <trkpt lat="45.76868" lon="-1.21286">
        <ele>104</ele>
        <time>2020-01-26T07:11:26Z</time>
      </trkpt>
      <trkpt lat="45.76866" lon="-1.21285">
        <ele>104.2</ele>
        <time>2020-01-26T07:11:27Z</time>
      </trkpt>
      <trkpt lat="45.76864" lon="-1.21285">
        <ele>104.4</ele>
        <time>2020-01-26T07:11:28Z</time>
      </trkpt>
      <trkpt lat="45.76863" lon="-1.21284">
        <ele>104.6</ele>
        <time>2020-01-26T07:11:29Z</time>
      </trkpt>
      <trkpt lat="45.76861" lon="-1.21282">
        <ele>104.8</ele>
        <time>2020-01-26T07:11:30Z</time>
      </trkpt>
      <trkpt lat="45.76859" lon="-1.21281">
        <ele>105</ele>
        <time>2020-01-26T07:11:31Z</time>
      </trkpt>
      <trkpt lat="45.76858" lon="-1.21279">
        <ele>105</ele>
        <time>2020-01-26T07:11:32Z</time>
      </trkpt>
      <trkpt lat="45.76857" lon="-1.21277">
        <ele>105.2</ele>
        <time>2020-01-26T07:11:33Z</time>
      </trkpt>
      <trkpt lat="45.76855" lon="-1.21276">
        <ele>105.2</ele>
        <time>2020-01-26T07:11:34Z</time>
      </trkpt>
      <trkpt lat="45.76854" lon="-1.21274">
        <ele>105.2</ele>
        <time>2020-01-26T07:11:35Z</time>
      </trkpt>
      <trkpt lat="45.76853" lon="-1.21273">
        <ele>105.2</ele>
        <time>2020-01-26T07:11:36Z</time>
      </trkpt>
      <trkpt lat="45.76851" lon="-1.21273">
        <ele>105</ele>
        <time>2020-01-26T07:11:37Z</time>
      </trkpt>
      <trkpt lat="45.76851" lon="-1.21272">
        <ele>105</ele>
        <time>2020-01-26T07:11:38Z</time>
      </trkpt>
      <trkpt lat="45.7685" lon="-1.21272">
        <ele>105</ele>
        <time>2020-01-26T07:11:39Z</time>
      </trkpt>
      <trkpt lat="45.76849" lon="-1.21273">
        <ele>105.4</ele>
        <time>2020-01-26T07:11:40Z</time>
      </trkpt>
      <trkpt lat="45.76847" lon="-1.21274">
        <ele>105.4</ele>
        <time>2020-01-26T07:11:41Z</time>
      </trkpt>
      <trkpt lat="45.76845" lon="-1.21274">
        <ele>105.8</ele>
        <time>2020-01-26T07:11:42Z</time>
      </trkpt>
      <trkpt lat="45.76843" lon="-1.21273">
        <ele>106.2</ele>
        <time>2020-01-26T07:11:43Z</time>
      </trkpt>
      <trkpt lat="45.76842" lon="-1.21272">
        <ele>106.4</ele>
        <time>2020-01-26T07:11:44Z</time>
      </trkpt>
      <trkpt lat="45.76841" lon="-1.21272">
        <ele>106.8</ele>
        <time>2020-01-26T07:11:45Z</time>
      </trkpt>
      <trkpt lat="45.76839" lon="-1.2127">
        <ele>106.8</ele>
        <time>2020-01-26T07:11:46Z</time>
      </trkpt>
      <trkpt lat="45.76838" lon="-1.21269">
        <ele>107.2</ele>
        <time>2020-01-26T07:11:47Z</time>
      </trkpt>
      <trkpt lat="45.76836" lon="-1.21268">
        <ele>107.4</ele>
        <time>2020-01-26T07:11:48Z</time>
      </trkpt>
      <trkpt lat="45.76835" lon="-1.21267">
        <ele>107.6</ele>
        <time>2020-01-26T07:11:49Z</time>
      </trkpt>
      <trkpt lat="45.76834" lon="-1.21265">
        <ele>107.6</ele>
        <time>2020-01-26T07:11:50Z</time>
      </trkpt>
      <trkpt lat="45.76833" lon="-1.21264">
        <ele>107.2</ele>
        <time>2020-01-26T07:11:51Z</time>
      </trkpt>
      <trkpt lat="45.76832" lon="-1.21263">
        <ele>106.8</ele>
        <time>2020-01-26T07:11:52Z</time>
      </trkpt>
      <trkpt lat="45.76831" lon="-1.21262">
        <ele>106.4</ele>
        <time>2020-01-26T07:11:53Z</time>
      </trkpt>
      <trkpt lat="45.7683" lon="-1.21262">
        <ele>106</ele>
        <time>2020-01-26T07:11:54Z</time>
      </trkpt>
      <trkpt lat="45.7683" lon="-1.21262">
        <ele>105.8</ele>
        <time>2020-01-26T07:11:55Z</time>
      </trkpt>
      <trkpt lat="45.7683" lon="-1.21262">
        <ele>105.6</ele>
        <time>2020-01-26T07:11:56Z</time>
      </trkpt>
      <trkpt lat="45.76829" lon="-1.21261">
        <ele>105.4</ele>
        <time>2020-01-26T07:11:57Z</time>
      </trkpt>
      <trkpt lat="45.76829" lon="-1.21261">
        <ele>105.4</ele>
        <time>2020-01-26T07:11:58Z</time>
      </trkpt>
      <trkpt lat="45.76829" lon="-1.21261">
        <ele>105.2</ele>
        <time>2020-01-26T07:11:59Z</time>
      </trkpt>
      <trkpt lat="45.76828" lon="-1.21261">
        <ele>105.4</ele>
        <time>2020-01-26T07:12:00Z</time>
      </trkpt>
      <trkpt lat="45.76828" lon="-1.2126">
        <ele>105.6</ele>
        <time>2020-01-26T07:12:01Z</time>
      </trkpt>
      <trkpt lat="45.76828" lon="-1.2126">
        <ele>105.6</ele>
        <time>2020-01-26T07:12:02Z</time>
      </trkpt>
      <trkpt lat="45.76827" lon="-1.2126">
        <ele>105.8</ele>
        <time>2020-01-26T07:12:03Z</time>
      </trkpt>
      <trkpt lat="45.76827" lon="-1.21259">
        <ele>106.2</ele>
        <time>2020-01-26T07:12:04Z</time>
      </trkpt>
      <trkpt lat="45.76826" lon="-1.21259">
        <ele>106.4</ele>
        <time>2020-01-26T07:12:05Z</time>
      </trkpt>
      <trkpt lat="45.76826" lon="-1.21259">
        <ele>106.4</ele>
        <time>2020-01-26T07:12:06Z</time>
      </trkpt>
      <trkpt lat="45.76826" lon="-1.21259">
        <ele>106.6</ele>
        <time>2020-01-26T07:12:07Z</time>
      </trkpt>
      <trkpt lat="45.76826" lon="-1.21259">
        <ele>106.8</ele>
        <time>2020-01-26T07:12:08Z</time>
      </trkpt>
      <trkpt lat="45.76825" lon="-1.21259">
        <ele>106.8</ele>
        <time>2020-01-26T07:12:09Z</time>
      </trkpt>
      <trkpt lat="45.76825" lon="-1.21258">
        <ele>106.8</ele>
        <time>2020-01-26T07:12:10Z</time>
      </trkpt>
      <trkpt lat="45.76825" lon="-1.21258">
        <ele>107.2</ele>
        <time>2020-01-26T07:12:11Z</time>
      </trkpt>
      <trkpt lat="45.76825" lon="-1.21258">
        <ele>107.4</ele>
        <time>2020-01-26T07:12:12Z</time>
      </trkpt>
      <trkpt lat="45.76825" lon="-1.21258">
        <ele>107.6</ele>
        <time>2020-01-26T07:12:13Z</time>
      </trkpt>
      <trkpt lat="45.76825" lon="-1.21258">
        <ele>107.6</ele>
        <time>2020-01-26T07:12:14Z</time>
      </trkpt>
      <trkpt lat="45.76825" lon="-1.21258">
        <ele>107.8</ele>
        <time>2020-01-26T07:12:15Z</time>
      </trkpt>
      <trkpt lat="45.76825" lon="-1.21258">
        <ele>107.8</ele>
        <time>2020-01-26T07:12:16Z</time>
      </trkpt>
      <trkpt lat="45.76825" lon="-1.21258">
        <ele>107.8</ele>
        <time>2020-01-26T07:12:17Z</time>
      </trkpt>
      <trkpt lat="45.76825" lon="-1.21258">
        <ele>107.8</ele>
        <time>2020-01-26T07:12:18Z</time>
      </trkpt>
      <trkpt lat="45.76825" lon="-1.21258">
        <ele>108</ele>
        <time>2020-01-26T07:12:19Z</time>
      </trkpt>
      <trkpt lat="45.76825" lon="-1.21258">
        <ele>108</ele>
        <time>2020-01-26T07:12:20Z</time>
      </trkpt>
      <trkpt lat="45.76825" lon="-1.21258">
        <ele>108</ele>
        <time>2020-01-26T07:12:21Z</time>
      </trkpt>
      <trkpt lat="45.76825" lon="-1.21258">
        <ele>108</ele>
        <time>2020-01-26T07:12:22Z</time>
      </trkpt>
      <trkpt lat="45.76825" lon="-1.21258">
        <ele>108</ele>
        <time>2020-01-26T07:12:23Z</time>
      </trkpt>
      <trkpt lat="45.76825" lon="-1.21258">
        <ele>108</ele>
        <time>2020-01-26T07:12:24Z</time>
      </trkpt>
      <trkpt lat="45.76825" lon="-1.21258">
        <ele>108</ele>
        <time>2020-01-26T07:12:25Z</time>
      </trkpt>
      <trkpt lat="45.76825" lon="-1.21258">
        <ele>108</ele>
        <time>2020-01-26T07:12:26Z</time>
      </trkpt>
      <trkpt lat="45.76825" lon="-1.21258">
        <ele>108</ele>
        <time>2020-01-26T07:12:27Z</time>
      </trkpt>
      <trkpt lat="45.76825" lon="-1.21258">
        <ele>108</ele>
        <time>2020-01-26T07:12:28Z</time>
      </trkpt>
      <trkpt lat="45.76825" lon="-1.21258">
        <ele>108</ele>
        <time>2020-01-26T07:12:29Z</time>
      </trkpt>
      <trkpt lat="45.76825" lon="-1.21258">
        <ele>108</ele>
        <time>2020-01-26T07:12:30Z</time>
      </trkpt>
      <trkpt lat="45.76825" lon="-1.21258">
        <ele>108</ele>
        <time>2020-01-26T07:12:31Z</time>
      </trkpt>
      <trkpt lat="45.76825" lon="-1.21258">
        <ele>108</ele>
        <time>2020-01-26T07:12:32Z</time>
      </trkpt>
      <trkpt lat="45.76825" lon="-1.21258">
        <ele>108</ele>
        <time>2020-01-26T07:12:33Z</time>
      </trkpt>
      <trkpt lat="45.76825" lon="-1.21258">
        <ele>108</ele>
        <time>2020-01-26T07:12:34Z</time>
      </trkpt>
      <trkpt lat="45.76825" lon="-1.21258">
        <ele>108</ele>
        <time>2020-01-26T07:12:35Z</time>
      </trkpt>
      <trkpt lat="45.76825" lon="-1.21258">
        <ele>108</ele>
        <time>2020-01-26T07:12:36Z</time>
      </trkpt>
      <trkpt lat="45.76825" lon="-1.21258">
        <ele>108</ele>
        <time>2020-01-26T07:12:37Z</time>
      </trkpt>
      <trkpt lat="45.76825" lon="-1.21258">
        <ele>108</ele>
        <time>2020-01-26T07:12:38Z</time>
      </trkpt>
      <trkpt lat="45.76825" lon="-1.21258">
        <ele>108</ele>
        <time>2020-01-26T07:12:39Z</time>
      </trkpt>
      <trkpt lat="45.76825" lon="-1.21258">
        <ele>108</ele>
        <time>2020-01-26T07:12:40Z</time>
      </trkpt>
      <trkpt lat="45.76825" lon="-1.21258">
        <ele>108</ele>
        <time>2020-01-26T07:12:41Z</time>
      </trkpt>
      <trkpt lat="45.76825" lon="-1.21258">
        <ele>108</ele>
        <time>2020-01-26T07:12:42Z</time>
      </trkpt>
      <trkpt lat="45.76825" lon="-1.21258">
        <ele>108</ele>
        <time>2020-01-26T07:12:43Z</time>
      </trkpt>
      <trkpt lat="45.76825" lon="-1.21258">
        <ele>108</ele>
        <time>2020-01-26T07:12:44Z</time>
      </trkpt>
      <trkpt lat="45.76825" lon="-1.21258">
        <ele>108</ele>
        <time>2020-01-26T07:12:45Z</time>
      </trkpt>
      <trkpt lat="45.76825" lon="-1.21258">
        <ele>108</ele>
        <time>2020-01-26T07:12:46Z</time>
      </trkpt>
      <trkpt lat="45.76825" lon="-1.21258">
        <ele>108</ele>
        <time>2020-01-26T07:12:47Z</time>
      </trkpt>
      <trkpt lat="45.76825" lon="-1.21258">
        <ele>108</ele>
        <time>2020-01-26T07:12:48Z</time>
      </trkpt>
      <trkpt lat="45.76825" lon="-1.21258">
        <ele>108</ele>
        <time>2020-01-26T07:12:49Z</time>
      </trkpt>
      <trkpt lat="45.76825" lon="-1.21258">
        <ele>108</ele>
        <time>2020-01-26T07:12:50Z</time>
      </trkpt>
      <trkpt lat="45.76825" lon="-1.21258">
        <ele>108</ele>
        <time>2020-01-26T07:12:51Z</time>
      </trkpt>
      <trkpt lat="45.76825" lon="-1.21258">
        <ele>108</ele>
        <time>2020-01-26T07:12:52Z</time>
      </trkpt>
      <trkpt lat="45.76825" lon="-1.21258">
        <ele>108</ele>
        <time>2020-01-26T07:12:53Z</time>
      </trkpt>
      <trkpt lat="45.76825" lon="-1.21258">
        <ele>108</ele>
        <time>2020-01-26T07:12:54Z</time>
      </trkpt>
      <trkpt lat="45.76825" lon="-1.21258">
        <ele>108</ele>
        <time>2020-01-26T07:12:55Z</time>
      </trkpt>
      <trkpt lat="45.76825" lon="-1.21258">
        <ele>108</ele>
        <time>2020-01-26T07:12:56Z</time>
      </trkpt>
      <trkpt lat="45.76825" lon="-1.21258">
        <ele>108</ele>
        <time>2020-01-26T07:12:57Z</time>
      </trkpt>
      <trkpt lat="45.76825" lon="-1.21258">
        <ele>108</ele>
        <time>2020-01-26T07:12:58Z</time>
      </trkpt>
      <trkpt lat="45.76825" lon="-1.21258">
        <ele>108</ele>
        <time>2020-01-26T07:12:59Z</time>
      </trkpt>
      <trkpt lat="45.76825" lon="-1.21258">
        <ele>108</ele>
        <time>2020-01-26T07:13:00Z</time>
      </trkpt>
      <trkpt lat="45.76825" lon="-1.21258">
        <ele>108</ele>
        <time>2020-01-26T07:13:01Z</time>
      </trkpt>
      <trkpt lat="45.76825" lon="-1.21258">
        <ele>108</ele>
        <time>2020-01-26T07:13:02Z</time>
      </trkpt>
      <trkpt lat="45.76825" lon="-1.21258">
        <ele>108</ele>
        <time>2020-01-26T07:13:03Z</time>
      </trkpt>
      <trkpt lat="45.76825" lon="-1.21258">
        <ele>108</ele>
        <time>2020-01-26T07:13:04Z</time>
      </trkpt>
      <trkpt lat="45.76825" lon="-1.21258">
        <ele>108</ele>
        <time>2020-01-26T07:13:05Z</time>
      </trkpt>
      <trkpt lat="45.76825" lon="-1.21258">
        <ele>108</ele>
        <time>2020-01-26T07:13:06Z</time>
      </trkpt>
      <trkpt lat="45.76825" lon="-1.21258">
        <ele>108</ele>
        <time>2020-01-26T07:13:07Z</time>
      </trkpt>
      <trkpt lat="45.76824" lon="-1.21259">
        <ele>108.6</ele>
        <time>2020-01-26T07:13:08Z</time>
      </trkpt>
      <trkpt lat="45.76823" lon="-1.21258">
        <ele>109</ele>
        <time>2020-01-26T07:13:09Z</time>
      </trkpt>
      <trkpt lat="45.76823" lon="-1.21258">
        <ele>109.2</ele>
        <time>2020-01-26T07:13:10Z</time>
      </trkpt>
      <trkpt lat="45.76822" lon="-1.21258">
        <ele>109.4</ele>
        <time>2020-01-26T07:13:11Z</time>
      </trkpt>
      <trkpt lat="45.76821" lon="-1.21258">
        <ele>109.6</ele>
        <time>2020-01-26T07:13:12Z</time>
      </trkpt>
      <trkpt lat="45.7682" lon="-1.21255">
        <ele>109.4</ele>
        <time>2020-01-26T07:13:13Z</time>
      </trkpt>
      <trkpt lat="45.76819" lon="-1.2125">
        <ele>109.6</ele>
        <time>2020-01-26T07:13:14Z</time>
      </trkpt>
      <trkpt lat="45.7682" lon="-1.21247">
        <ele>110</ele>
        <time>2020-01-26T07:13:15Z</time>
      </trkpt>
      <trkpt lat="45.7682" lon="-1.21245">
        <ele>110</ele>
        <time>2020-01-26T07:13:16Z</time>
      </trkpt>
      <trkpt lat="45.76821" lon="-1.21244">
        <ele>109.6</ele>
        <time>2020-01-26T07:13:17Z</time>
      </trkpt>
      <trkpt lat="45.76821" lon="-1.21243">
        <ele>109.6</ele>
        <time>2020-01-26T07:13:18Z</time>
      </trkpt>
      <trkpt lat="45.76821" lon="-1.21243">
        <ele>109.4</ele>
        <time>2020-01-26T07:13:19Z</time>
      </trkpt>
      <trkpt lat="45.76821" lon="-1.21243">
        <ele>109.2</ele>
        <time>2020-01-26T07:13:20Z</time>
      </trkpt>
      <trkpt lat="45.76821" lon="-1.21243">
        <ele>109.2</ele>
        <time>2020-01-26T07:13:21Z</time>
      </trkpt>
      <trkpt lat="45.76821" lon="-1.21242">
        <ele>109.2</ele>
        <time>2020-01-26T07:13:22Z</time>
      </trkpt>
      <trkpt lat="45.76821" lon="-1.21241">
        <ele>109.4</ele>
        <time>2020-01-26T07:13:23Z</time>
      </trkpt>
      <trkpt lat="45.76821" lon="-1.21241">
        <ele>109.6</ele>
        <time>2020-01-26T07:13:24Z</time>
      </trkpt>
      <trkpt lat="45.7682" lon="-1.21241">
        <ele>109.6</ele>
        <time>2020-01-26T07:13:25Z</time>
      </trkpt>
      <trkpt lat="45.7682" lon="-1.21241">
        <ele>109.8</ele>
        <time>2020-01-26T07:13:26Z</time>
      </trkpt>
      <trkpt lat="45.7682" lon="-1.21241">
        <ele>110</ele>
        <time>2020-01-26T07:13:27Z</time>
      </trkpt>
      <trkpt lat="45.7682" lon="-1.21241">
        <ele>110.4</ele>
        <time>2020-01-26T07:13:28Z</time>
      </trkpt>
      <trkpt lat="45.7682" lon="-1.21241">
        <ele>110.4</ele>
        <time>2020-01-26T07:13:29Z</time>
      </trkpt>
      <trkpt lat="45.7682" lon="-1.21241">
        <ele>110.6</ele>
        <time>2020-01-26T07:13:30Z</time>
      </trkpt>
      <trkpt lat="45.7682" lon="-1.21241">
        <ele>110.8</ele>
        <time>2020-01-26T07:13:31Z</time>
      </trkpt>
      <trkpt lat="45.7682" lon="-1.21241">
        <ele>110.8</ele>
        <time>2020-01-26T07:13:32Z</time>
      </trkpt>
      <trkpt lat="45.7682" lon="-1.21241">
        <ele>110.8</ele>
        <time>2020-01-26T07:13:33Z</time>
      </trkpt>
      <trkpt lat="45.7682" lon="-1.21241">
        <ele>110.8</ele>
        <time>2020-01-26T07:13:34Z</time>
      </trkpt>
      <trkpt lat="45.7682" lon="-1.21241">
        <ele>111</ele>
        <time>2020-01-26T07:13:35Z</time>
      </trkpt>
      <trkpt lat="45.7682" lon="-1.21241">
        <ele>111</ele>
        <time>2020-01-26T07:13:36Z</time>
      </trkpt>
      <trkpt lat="45.7682" lon="-1.21241">
        <ele>111</ele>
        <time>2020-01-26T07:13:37Z</time>
      </trkpt>
      <trkpt lat="45.7682" lon="-1.21241">
        <ele>111</ele>
        <time>2020-01-26T07:13:38Z</time>
      </trkpt>
      <trkpt lat="45.7682" lon="-1.21241">
        <ele>111</ele>
        <time>2020-01-26T07:13:39Z</time>
      </trkpt>
      <trkpt lat="45.7682" lon="-1.21241">
        <ele>111</ele>
        <time>2020-01-26T07:13:40Z</time>
      </trkpt>
      <trkpt lat="45.7682" lon="-1.21241">
        <ele>111</ele>
        <time>2020-01-26T07:13:41Z</time>
      </trkpt>
      <trkpt lat="45.7682" lon="-1.21241">
        <ele>111</ele>
        <time>2020-01-26T07:13:42Z</time>
      </trkpt>
      <trkpt lat="45.7682" lon="-1.21241">
        <ele>111</ele>
        <time>2020-01-26T07:13:43Z</time>
      </trkpt>
      <trkpt lat="45.7682" lon="-1.21241">
        <ele>111</ele>
        <time>2020-01-26T07:13:44Z</time>
      </trkpt>
      <trkpt lat="45.7682" lon="-1.21241">
        <ele>111</ele>
        <time>2020-01-26T07:13:45Z</time>
      </trkpt>
      <trkpt lat="45.76819" lon="-1.2124">
        <ele>111</ele>
        <time>2020-01-26T07:13:46Z</time>
      </trkpt>
      <trkpt lat="45.76818" lon="-1.21238">
        <ele>111</ele>
        <time>2020-01-26T07:13:47Z</time>
      </trkpt>
      <trkpt lat="45.76817" lon="-1.21237">
        <ele>111</ele>
        <time>2020-01-26T07:13:48Z</time>
      </trkpt>
      <trkpt lat="45.76817" lon="-1.21235">
        <ele>111</ele>
        <time>2020-01-26T07:13:49Z</time>
      </trkpt>
      <trkpt lat="45.76815" lon="-1.21233">
        <ele>111.2</ele>
        <time>2020-01-26T07:13:50Z</time>
      </trkpt>
      <trkpt lat="45.76814" lon="-1.21231">
        <ele>111.4</ele>
        <time>2020-01-26T07:13:51Z</time>
      </trkpt>
      <trkpt lat="45.76814" lon="-1.2123">
        <ele>111</ele>
        <time>2020-01-26T07:13:52Z</time>
      </trkpt>
      <trkpt lat="45.76814" lon="-1.21229">
        <ele>110.8</ele>
        <time>2020-01-26T07:13:53Z</time>
      </trkpt>
      <trkpt lat="45.76815" lon="-1.21228">
        <ele>110</ele>
        <time>2020-01-26T07:13:54Z</time>
      </trkpt>
      <trkpt lat="45.76814" lon="-1.21226">
        <ele>109.4</ele>
        <time>2020-01-26T07:13:55Z</time>
      </trkpt>
      <trkpt lat="45.76814" lon="-1.21222">
        <ele>108.8</ele>
        <time>2020-01-26T07:13:56Z</time>
      </trkpt>
      <trkpt lat="45.76814" lon="-1.21218">
        <ele>108.4</ele>
        <time>2020-01-26T07:13:57Z</time>
      </trkpt>
      <trkpt lat="45.76814" lon="-1.21213">
        <ele>107.8</ele>
        <time>2020-01-26T07:13:58Z</time>
      </trkpt>
      <trkpt lat="45.76815" lon="-1.21208">
        <ele>106.8</ele>
        <time>2020-01-26T07:13:59Z</time>
      </trkpt>
      <trkpt lat="45.76814" lon="-1.21203">
        <ele>105.8</ele>
        <time>2020-01-26T07:14:00Z</time>
      </trkpt>
      <trkpt lat="45.76814" lon="-1.21199">
        <ele>104.8</ele>
        <time>2020-01-26T07:14:01Z</time>
      </trkpt>
      <trkpt lat="45.76813" lon="-1.21195">
        <ele>103.8</ele>
        <time>2020-01-26T07:14:02Z</time>
      </trkpt>
      <trkpt lat="45.76813" lon="-1.21191">
        <ele>103.2</ele>
        <time>2020-01-26T07:14:03Z</time>
      </trkpt>
      <trkpt lat="45.76813" lon="-1.21187">
        <ele>102.6</ele>
        <time>2020-01-26T07:14:04Z</time>
      </trkpt>
      <trkpt lat="45.76813" lon="-1.21183">
        <ele>101.8</ele>
        <time>2020-01-26T07:14:05Z</time>
      </trkpt>
      <trkpt lat="45.76814" lon="-1.21178">
        <ele>101.2</ele>
        <time>2020-01-26T07:14:06Z</time>
      </trkpt>
      <trkpt lat="45.76814" lon="-1.21174">
        <ele>100</ele>
        <time>2020-01-26T07:14:07Z</time>
      </trkpt>
      <trkpt lat="45.76814" lon="-1.21169">
        <ele>98.8</ele>
        <time>2020-01-26T07:14:08Z</time>
      </trkpt>
      <trkpt lat="45.76814" lon="-1.21165">
        <ele>97.4</ele>
        <time>2020-01-26T07:14:09Z</time>
      </trkpt>
      <trkpt lat="45.76814" lon="-1.2116">
        <ele>96.4</ele>
        <time>2020-01-26T07:14:10Z</time>
      </trkpt>
      <trkpt lat="45.76814" lon="-1.21154">
        <ele>95</ele>
        <time>2020-01-26T07:14:11Z</time>
      </trkpt>
      <trkpt lat="45.76813" lon="-1.21149">
        <ele>93.6</ele>
        <time>2020-01-26T07:14:12Z</time>
      </trkpt>
      <trkpt lat="45.76813" lon="-1.21145">
        <ele>92.2</ele>
        <time>2020-01-26T07:14:13Z</time>
      </trkpt>
      <trkpt lat="45.76814" lon="-1.21141">
        <ele>90.8</ele>
        <time>2020-01-26T07:14:14Z</time>
      </trkpt>
      <trkpt lat="45.76814" lon="-1.21137">
        <ele>89.6</ele>
        <time>2020-01-26T07:14:15Z</time>
      </trkpt>
      <trkpt lat="45.76814" lon="-1.21132">
        <ele>88.4</ele>
        <time>2020-01-26T07:14:16Z</time>
      </trkpt>
      <trkpt lat="45.76813" lon="-1.21126">
        <ele>87.4</ele>
        <time>2020-01-26T07:14:17Z</time>
      </trkpt>
      <trkpt lat="45.76811" lon="-1.21121">
        <ele>86.2</ele>
        <time>2020-01-26T07:14:18Z</time>
      </trkpt>
      <trkpt lat="45.7681" lon="-1.21117">
        <ele>84.8</ele>
        <time>2020-01-26T07:14:19Z</time>
      </trkpt>
      <trkpt lat="45.7681" lon="-1.21112">
        <ele>83.8</ele>
        <time>2020-01-26T07:14:20Z</time>
      </trkpt>
      <trkpt lat="45.7681" lon="-1.21109">
        <ele>83</ele>
        <time>2020-01-26T07:14:21Z</time>
      </trkpt>
      <trkpt lat="45.7681" lon="-1.21104">
        <ele>82</ele>
        <time>2020-01-26T07:14:22Z</time>
      </trkpt>
      <trkpt lat="45.76811" lon="-1.21098">
        <ele>80.4</ele>
        <time>2020-01-26T07:14:23Z</time>
      </trkpt>
      <trkpt lat="45.76813" lon="-1.21092">
        <ele>78.8</ele>
        <time>2020-01-26T07:14:24Z</time>
      </trkpt>
      <trkpt lat="45.76814" lon="-1.21085">
        <ele>77.4</ele>
        <time>2020-01-26T07:14:25Z</time>
      </trkpt>
      <trkpt lat="45.76815" lon="-1.21077">
        <ele>76.8</ele>
        <time>2020-01-26T07:14:26Z</time>
      </trkpt>
      <trkpt lat="45.76817" lon="-1.21074">
        <ele>75.8</ele>
        <time>2020-01-26T07:14:27Z</time>
      </trkpt>
      <trkpt lat="45.76817" lon="-1.21071">
        <ele>74.8</ele>
        <time>2020-01-26T07:14:28Z</time>
      </trkpt>
      <trkpt lat="45.76818" lon="-1.21068">
        <ele>74.4</ele>
        <time>2020-01-26T07:14:29Z</time>
      </trkpt>
      <trkpt lat="45.76819" lon="-1.21065">
        <ele>74</ele>
        <time>2020-01-26T07:14:30Z</time>
      </trkpt>
      <trkpt lat="45.76819" lon="-1.21064">
        <ele>74</ele>
        <time>2020-01-26T07:14:31Z</time>
      </trkpt>
      <trkpt lat="45.7682" lon="-1.2106">
        <ele>73.8</ele>
        <time>2020-01-26T07:14:32Z</time>
      </trkpt>
      <trkpt lat="45.7682" lon="-1.21057">
        <ele>73.4</ele>
        <time>2020-01-26T07:14:33Z</time>
      </trkpt>
      <trkpt lat="45.76821" lon="-1.21053">
        <ele>73</ele>
        <time>2020-01-26T07:14:34Z</time>
      </trkpt>
      <trkpt lat="45.76819" lon="-1.21049">
        <ele>73</ele>
        <time>2020-01-26T07:14:35Z</time>
      </trkpt>
      <trkpt lat="45.76818" lon="-1.21044">
        <ele>73.2</ele>
        <time>2020-01-26T07:14:36Z</time>
      </trkpt>
      <trkpt lat="45.76818" lon="-1.21038">
        <ele>73.2</ele>
        <time>2020-01-26T07:14:37Z</time>
      </trkpt>
      <trkpt lat="45.76817" lon="-1.21033">
        <ele>73.4</ele>
        <time>2020-01-26T07:14:38Z</time>
      </trkpt>
      <trkpt lat="45.76817" lon="-1.21028">
        <ele>73.6</ele>
        <time>2020-01-26T07:14:39Z</time>
      </trkpt>
      <trkpt lat="45.76817" lon="-1.21024">
        <ele>73.8</ele>
        <time>2020-01-26T07:14:40Z</time>
      </trkpt>
      <trkpt lat="45.76816" lon="-1.21022">
        <ele>73.6</ele>
        <time>2020-01-26T07:14:41Z</time>
      </trkpt>
      <trkpt lat="45.76815" lon="-1.21018">
        <ele>73.8</ele>
        <time>2020-01-26T07:14:42Z</time>
      </trkpt>
      <trkpt lat="45.76815" lon="-1.21015">
        <ele>74</ele>
        <time>2020-01-26T07:14:43Z</time>
      </trkpt>
      <trkpt lat="45.76816" lon="-1.21012">
        <ele>74.4</ele>
        <time>2020-01-26T07:14:44Z</time>
      </trkpt>
      <trkpt lat="45.76815" lon="-1.21008">
        <ele>74.8</ele>
        <time>2020-01-26T07:14:45Z</time>
      </trkpt>
      <trkpt lat="45.76815" lon="-1.21005">
        <ele>75</ele>
        <time>2020-01-26T07:14:46Z</time>
      </trkpt>
      <trkpt lat="45.76814" lon="-1.21001">
        <ele>75.6</ele>
        <time>2020-01-26T07:14:47Z</time>
      </trkpt>
      <trkpt lat="45.76812" lon="-1.21001">
        <ele>75.4</ele>
        <time>2020-01-26T07:14:48Z</time>
      </trkpt>
      <trkpt lat="45.76809" lon="-1.21">
        <ele>75.4</ele>
        <time>2020-01-26T07:14:49Z</time>
      </trkpt>
      <trkpt lat="45.76806" lon="-1.20998">
        <ele>75.4</ele>
        <time>2020-01-26T07:14:50Z</time>
      </trkpt>
      <trkpt lat="45.76804" lon="-1.20998">
        <ele>75.6</ele>
        <time>2020-01-26T07:14:51Z</time>
      </trkpt>
      <trkpt lat="45.76802" lon="-1.20999">
        <ele>75.6</ele>
        <time>2020-01-26T07:14:52Z</time>
      </trkpt>
      <trkpt lat="45.768" lon="-1.21">
        <ele>75.6</ele>
        <time>2020-01-26T07:14:53Z</time>
      </trkpt>
      <trkpt lat="45.76797" lon="-1.21">
        <ele>75.4</ele>
        <time>2020-01-26T07:14:54Z</time>
      </trkpt>
      <trkpt lat="45.76793" lon="-1.21">
        <ele>75.2</ele>
        <time>2020-01-26T07:14:55Z</time>
      </trkpt>
      <trkpt lat="45.76789" lon="-1.21001">
        <ele>75</ele>
        <time>2020-01-26T07:14:56Z</time>
      </trkpt>
      <trkpt lat="45.76784" lon="-1.21">
        <ele>74.6</ele>
        <time>2020-01-26T07:14:57Z</time>
      </trkpt>
      <trkpt lat="45.7678" lon="-1.21">
        <ele>74.2</ele>
        <time>2020-01-26T07:14:58Z</time>
      </trkpt>
      <trkpt lat="45.76775" lon="-1.20999">
        <ele>74</ele>
        <time>2020-01-26T07:14:59Z</time>
      </trkpt>
      <trkpt lat="45.76772" lon="-1.20998">
        <ele>73.8</ele>
        <time>2020-01-26T07:15:00Z</time>
      </trkpt>
      <trkpt lat="45.76767" lon="-1.20995">
        <ele>73.2</ele>
        <time>2020-01-26T07:15:01Z</time>
      </trkpt>
      <trkpt lat="45.76765" lon="-1.20993">
        <ele>73.2</ele>
        <time>2020-01-26T07:15:02Z</time>
      </trkpt>
      <trkpt lat="45.76764" lon="-1.2099">
        <ele>72.8</ele>
        <time>2020-01-26T07:15:03Z</time>
      </trkpt>
      <trkpt lat="45.76764" lon="-1.20987">
        <ele>72.6</ele>
        <time>2020-01-26T07:15:04Z</time>
      </trkpt>
      <trkpt lat="45.76762" lon="-1.20985">
        <ele>72.8</ele>
        <time>2020-01-26T07:15:05Z</time>
      </trkpt>
      <trkpt lat="45.76762" lon="-1.20982">
        <ele>72.8</ele>
        <time>2020-01-26T07:15:06Z</time>
      </trkpt>
      <trkpt lat="45.76762" lon="-1.20979">
        <ele>72.8</ele>
        <time>2020-01-26T07:15:07Z</time>
      </trkpt>
      <trkpt lat="45.76761" lon="-1.20977">
        <ele>72.6</ele>
        <time>2020-01-26T07:15:08Z</time>
      </trkpt>
      <trkpt lat="45.76761" lon="-1.20974">
        <ele>72.2</ele>
        <time>2020-01-26T07:15:09Z</time>
      </trkpt>
      <trkpt lat="45.7676" lon="-1.20971">
        <ele>71.8</ele>
        <time>2020-01-26T07:15:10Z</time>
      </trkpt>
      <trkpt lat="45.76759" lon="-1.20967">
        <ele>71.6</ele>
        <time>2020-01-26T07:15:11Z</time>
      </trkpt>
      <trkpt lat="45.76757" lon="-1.20963">
        <ele>71.6</ele>
        <time>2020-01-26T07:15:12Z</time>
      </trkpt>
      <trkpt lat="45.76754" lon="-1.2096">
        <ele>72</ele>
        <time>2020-01-26T07:15:13Z</time>
      </trkpt>
      <trkpt lat="45.76752" lon="-1.20955">
        <ele>72.4</ele>
        <time>2020-01-26T07:15:14Z</time>
      </trkpt>
      <trkpt lat="45.76751" lon="-1.20951">
        <ele>72.8</ele>
        <time>2020-01-26T07:15:15Z</time>
      </trkpt>
      <trkpt lat="45.76749" lon="-1.20947">
        <ele>73.2</ele>
        <time>2020-01-26T07:15:16Z</time>
      </trkpt>
      <trkpt lat="45.76746" lon="-1.20945">
        <ele>73.6</ele>
        <time>2020-01-26T07:15:17Z</time>
      </trkpt>
      <trkpt lat="45.76744" lon="-1.20941">
        <ele>73.8</ele>
        <time>2020-01-26T07:15:18Z</time>
      </trkpt>
      <trkpt lat="45.76743" lon="-1.20938">
        <ele>74.2</ele>
        <time>2020-01-26T07:15:19Z</time>
      </trkpt>
      <trkpt lat="45.76741" lon="-1.20934">
        <ele>74.4</ele>
        <time>2020-01-26T07:15:20Z</time>
      </trkpt>
      <trkpt lat="45.76738" lon="-1.20931">
        <ele>73.8</ele>
        <time>2020-01-26T07:15:21Z</time>
      </trkpt>
      <trkpt lat="45.76735" lon="-1.20925">
        <ele>73.6</ele>
        <time>2020-01-26T07:15:22Z</time>
      </trkpt>
      <trkpt lat="45.76733" lon="-1.2092">
        <ele>73.8</ele>
        <time>2020-01-26T07:15:23Z</time>
      </trkpt>
      <trkpt lat="45.7673" lon="-1.20916">
        <ele>73.8</ele>
        <time>2020-01-26T07:15:24Z</time>
      </trkpt>
      <trkpt lat="45.76729" lon="-1.20912">
        <ele>73.8</ele>
        <time>2020-01-26T07:15:25Z</time>
      </trkpt>
      <trkpt lat="45.76728" lon="-1.20908">
        <ele>73.4</ele>
        <time>2020-01-26T07:15:26Z</time>
      </trkpt>
      <trkpt lat="45.76727" lon="-1.20903">
        <ele>72.8</ele>
        <time>2020-01-26T07:15:27Z</time>
      </trkpt>
      <trkpt lat="45.76725" lon="-1.20901">
        <ele>71.4</ele>
        <time>2020-01-26T07:15:28Z</time>
      </trkpt>
      <trkpt lat="45.76728" lon="-1.20898">
        <ele>70.4</ele>
        <time>2020-01-26T07:15:29Z</time>
      </trkpt>
      <trkpt lat="45.76729" lon="-1.20897">
        <ele>69.8</ele>
        <time>2020-01-26T07:15:30Z</time>
      </trkpt>
      <trkpt lat="45.76731" lon="-1.20896">
        <ele>69.2</ele>
        <time>2020-01-26T07:15:31Z</time>
      </trkpt>
      <trkpt lat="45.76733" lon="-1.20895">
        <ele>69</ele>
        <time>2020-01-26T07:15:32Z</time>
      </trkpt>
      <trkpt lat="45.76734" lon="-1.20894">
        <ele>68.4</ele>
        <time>2020-01-26T07:15:33Z</time>
      </trkpt>
      <trkpt lat="45.76736" lon="-1.20894">
        <ele>68.4</ele>
        <time>2020-01-26T07:15:34Z</time>
      </trkpt>
      <trkpt lat="45.76738" lon="-1.20893">
        <ele>68.2</ele>
        <time>2020-01-26T07:15:35Z</time>
      </trkpt>
      <trkpt lat="45.7674" lon="-1.20893">
        <ele>67.8</ele>
        <time>2020-01-26T07:15:36Z</time>
      </trkpt>
      <trkpt lat="45.76741" lon="-1.20891">
        <ele>67.2</ele>
        <time>2020-01-26T07:15:37Z</time>
      </trkpt>
      <trkpt lat="45.76744" lon="-1.2089">
        <ele>66.4</ele>
        <time>2020-01-26T07:15:38Z</time>
      </trkpt>
      <trkpt lat="45.76745" lon="-1.20891">
        <ele>65.4</ele>
        <time>2020-01-26T07:15:39Z</time>
      </trkpt>
      <trkpt lat="45.76748" lon="-1.20892">
        <ele>64.6</ele>
        <time>2020-01-26T07:15:40Z</time>
      </trkpt>
      <trkpt lat="45.76749" lon="-1.20891">
        <ele>63.6</ele>
        <time>2020-01-26T07:15:41Z</time>
      </trkpt>
      <trkpt lat="45.76752" lon="-1.20892">
        <ele>63</ele>
        <time>2020-01-26T07:15:42Z</time>
      </trkpt>
      <trkpt lat="45.76756" lon="-1.20893">
        <ele>62.4</ele>
        <time>2020-01-26T07:15:43Z</time>
      </trkpt>
      <trkpt lat="45.76759" lon="-1.20893">
        <ele>61.8</ele>
        <time>2020-01-26T07:15:44Z</time>
      </trkpt>
      <trkpt lat="45.7676" lon="-1.20893">
        <ele>61.6</ele>
        <time>2020-01-26T07:15:45Z</time>
      </trkpt>
      <trkpt lat="45.76762" lon="-1.20892">
        <ele>61.6</ele>
        <time>2020-01-26T07:15:46Z</time>
      </trkpt>
      <trkpt lat="45.76765" lon="-1.20892">
        <ele>61.6</ele>
        <time>2020-01-26T07:15:47Z</time>
      </trkpt>
      <trkpt lat="45.76768" lon="-1.20891">
        <ele>62</ele>
        <time>2020-01-26T07:15:48Z</time>
      </trkpt>
      <trkpt lat="45.7677" lon="-1.2089">
        <ele>62.4</ele>
        <time>2020-01-26T07:15:49Z</time>
      </trkpt>
      <trkpt lat="45.76772" lon="-1.2089">
        <ele>62.6</ele>
        <time>2020-01-26T07:15:50Z</time>
      </trkpt>
      <trkpt lat="45.76774" lon="-1.20889">
        <ele>62.8</ele>
        <time>2020-01-26T07:15:51Z</time>
      </trkpt>
      <trkpt lat="45.76777" lon="-1.20889">
        <ele>63</ele>
        <time>2020-01-26T07:15:52Z</time>
      </trkpt>
      <trkpt lat="45.7678" lon="-1.2089">
        <ele>63.6</ele>
        <time>2020-01-26T07:15:53Z</time>
      </trkpt>
      <trkpt lat="45.76783" lon="-1.20892">
        <ele>64</ele>
        <time>2020-01-26T07:15:54Z</time>
      </trkpt>
      <trkpt lat="45.76785" lon="-1.20892">
        <ele>64.2</ele>
        <time>2020-01-26T07:15:55Z</time>
      </trkpt>
      <trkpt lat="45.76788" lon="-1.20892">
        <ele>64.4</ele>
        <time>2020-01-26T07:15:56Z</time>
      </trkpt>
      <trkpt lat="45.7679" lon="-1.20892">
        <ele>64.6</ele>
        <time>2020-01-26T07:15:57Z</time>
      </trkpt>
      <trkpt lat="45.76792" lon="-1.20893">
        <ele>65</ele>
        <time>2020-01-26T07:15:58Z</time>
      </trkpt>
      <trkpt lat="45.76794" lon="-1.20894">
        <ele>65.2</ele>
        <time>2020-01-26T07:15:59Z</time>
      </trkpt>
      <trkpt lat="45.76796" lon="-1.20897">
        <ele>65.6</ele>
        <time>2020-01-26T07:16:00Z</time>
      </trkpt>
      <trkpt lat="45.76797" lon="-1.20898">
        <ele>65.8</ele>
        <time>2020-01-26T07:16:01Z</time>
      </trkpt>
      <trkpt lat="45.768" lon="-1.20901">
        <ele>66</ele>
        <time>2020-01-26T07:16:02Z</time>
      </trkpt>
      <trkpt lat="45.76803" lon="-1.20904">
        <ele>66.4</ele>
        <time>2020-01-26T07:16:03Z</time>
      </trkpt>
      <trkpt lat="45.76805" lon="-1.20907">
        <ele>66.4</ele>
        <time>2020-01-26T07:16:04Z</time>
      </trkpt>
      <trkpt lat="45.76808" lon="-1.20909">
        <ele>66.6</ele>
        <time>2020-01-26T07:16:05Z</time>
      </trkpt>
      <trkpt lat="45.7681" lon="-1.20912">
        <ele>67</ele>
        <time>2020-01-26T07:16:06Z</time>
      </trkpt>
      <trkpt lat="45.76811" lon="-1.20915">
        <ele>67.6</ele>
        <time>2020-01-26T07:16:07Z</time>
      </trkpt>
      <trkpt lat="45.76812" lon="-1.20915">
        <ele>68.2</ele>
        <time>2020-01-26T07:16:08Z</time>
      </trkpt>
      <trkpt lat="45.76814" lon="-1.20914">
        <ele>68.6</ele>
        <time>2020-01-26T07:16:09Z</time>
      </trkpt>
      <trkpt lat="45.76815" lon="-1.20914">
        <ele>69</ele>
        <time>2020-01-26T07:16:10Z</time>
      </trkpt>
      <trkpt lat="45.76815" lon="-1.20914">
        <ele>69</ele>
        <time>2020-01-26T07:16:11Z</time>
      </trkpt>
      <trkpt lat="45.76815" lon="-1.20914">
        <ele>69.2</ele>
        <time>2020-01-26T07:16:12Z</time>
      </trkpt>
      <trkpt lat="45.76815" lon="-1.20914">
        <ele>69.2</ele>
        <time>2020-01-26T07:16:13Z</time>
      </trkpt>
      <trkpt lat="45.76814" lon="-1.20914">
        <ele>69.2</ele>
        <time>2020-01-26T07:16:14Z</time>
      </trkpt>
      <trkpt lat="45.76814" lon="-1.20914">
        <ele>69</ele>
        <time>2020-01-26T07:16:15Z</time>
      </trkpt>
      <trkpt lat="45.76814" lon="-1.20914">
        <ele>69</ele>
        <time>2020-01-26T07:16:16Z</time>
      </trkpt>
      <trkpt lat="45.76814" lon="-1.20914">
        <ele>69</ele>
        <time>2020-01-26T07:16:17Z</time>
      </trkpt>
      <trkpt lat="45.76815" lon="-1.20914">
        <ele>69</ele>
        <time>2020-01-26T07:16:18Z</time>
      </trkpt>
      <trkpt lat="45.76815" lon="-1.20914">
        <ele>69</ele>
        <time>2020-01-26T07:16:19Z</time>
      </trkpt>
      <trkpt lat="45.76815" lon="-1.20914">
        <ele>69</ele>
        <time>2020-01-26T07:16:20Z</time>
      </trkpt>
      <trkpt lat="45.76815" lon="-1.20914">
        <ele>68.8</ele>
        <time>2020-01-26T07:16:21Z</time>
      </trkpt>
      <trkpt lat="45.76815" lon="-1.20915">
        <ele>68.6</ele>
        <time>2020-01-26T07:16:22Z</time>
      </trkpt>
      <trkpt lat="45.76815" lon="-1.20915">
        <ele>68.4</ele>
        <time>2020-01-26T07:16:23Z</time>
      </trkpt>
      <trkpt lat="45.76815" lon="-1.20915">
        <ele>68.4</ele>
        <time>2020-01-26T07:16:24Z</time>
      </trkpt>
      <trkpt lat="45.76815" lon="-1.20915">
        <ele>68.2</ele>
        <time>2020-01-26T07:16:25Z</time>
      </trkpt>
      <trkpt lat="45.76815" lon="-1.20915">
        <ele>68.2</ele>
        <time>2020-01-26T07:16:26Z</time>
      </trkpt>
      <trkpt lat="45.76815" lon="-1.20915">
        <ele>68.4</ele>
        <time>2020-01-26T07:16:27Z</time>
      </trkpt>
      <trkpt lat="45.76815" lon="-1.20915">
        <ele>68.6</ele>
        <time>2020-01-26T07:16:28Z</time>
      </trkpt>
      <trkpt lat="45.76815" lon="-1.20915">
        <ele>68.6</ele>
        <time>2020-01-26T07:16:29Z</time>
      </trkpt>
      <trkpt lat="45.76815" lon="-1.20915">
        <ele>68.8</ele>
        <time>2020-01-26T07:16:30Z</time>
      </trkpt>
      <trkpt lat="45.76815" lon="-1.20915">
        <ele>68.8</ele>
        <time>2020-01-26T07:16:31Z</time>
      </trkpt>
      <trkpt lat="45.76815" lon="-1.20915">
        <ele>68.8</ele>
        <time>2020-01-26T07:16:32Z</time>
      </trkpt>
      <trkpt lat="45.76815" lon="-1.20915">
        <ele>68.8</ele>
        <time>2020-01-26T07:16:33Z</time>
      </trkpt>
      <trkpt lat="45.76815" lon="-1.20915">
        <ele>69</ele>
        <time>2020-01-26T07:16:34Z</time>
      </trkpt>
      <trkpt lat="45.76815" lon="-1.20915">
        <ele>69</ele>
        <time>2020-01-26T07:16:35Z</time>
      </trkpt>
      <trkpt lat="45.76815" lon="-1.20915">
        <ele>69</ele>
        <time>2020-01-26T07:16:36Z</time>
      </trkpt>
      <trkpt lat="45.76815" lon="-1.20915">
        <ele>69</ele>
        <time>2020-01-26T07:16:37Z</time>
      </trkpt>
      <trkpt lat="45.76815" lon="-1.20915">
        <ele>69</ele>
        <time>2020-01-26T07:16:38Z</time>
      </trkpt>
      <trkpt lat="45.76816" lon="-1.20914">
        <ele>68.8</ele>
        <time>2020-01-26T07:16:39Z</time>
      </trkpt>
      <trkpt lat="45.76815" lon="-1.20914">
        <ele>68.8</ele>
        <time>2020-01-26T07:16:40Z</time>
      </trkpt>
      <trkpt lat="45.76815" lon="-1.20914">
        <ele>68.8</ele>
        <time>2020-01-26T07:16:41Z</time>
      </trkpt>
      <trkpt lat="45.76815" lon="-1.20914">
        <ele>68.8</ele>
        <time>2020-01-26T07:16:42Z</time>
      </trkpt>
      <trkpt lat="45.76815" lon="-1.20913">
        <ele>68.8</ele>
        <time>2020-01-26T07:16:43Z</time>
      </trkpt>
      <trkpt lat="45.76815" lon="-1.20913">
        <ele>69</ele>
        <time>2020-01-26T07:16:44Z</time>
      </trkpt>
      <trkpt lat="45.76815" lon="-1.20913">
        <ele>69</ele>
        <time>2020-01-26T07:16:45Z</time>
      </trkpt>
      <trkpt lat="45.76815" lon="-1.20913">
        <ele>69</ele>
        <time>2020-01-26T07:16:46Z</time>
      </trkpt>
      <trkpt lat="45.76816" lon="-1.20913">
        <ele>69.2</ele>
        <time>2020-01-26T07:16:47Z</time>
      </trkpt>
      <trkpt lat="45.76816" lon="-1.20913">
        <ele>69.4</ele>
        <time>2020-01-26T07:16:48Z</time>
      </trkpt>
      <trkpt lat="45.76816" lon="-1.20914">
        <ele>69.4</ele>
        <time>2020-01-26T07:16:49Z</time>
      </trkpt>
      <trkpt lat="45.76817" lon="-1.20914">
        <ele>69.6</ele>
        <time>2020-01-26T07:16:50Z</time>
      </trkpt>
      <trkpt lat="45.76817" lon="-1.20914">
        <ele>69.6</ele>
        <time>2020-01-26T07:16:51Z</time>
      </trkpt>
      <trkpt lat="45.76817" lon="-1.20914">
        <ele>69.8</ele>
        <time>2020-01-26T07:16:52Z</time>
      </trkpt>
      <trkpt lat="45.76818" lon="-1.20912">
        <ele>70</ele>
        <time>2020-01-26T07:16:53Z</time>
      </trkpt>
      <trkpt lat="45.76819" lon="-1.2091">
        <ele>70.2</ele>
        <time>2020-01-26T07:16:54Z</time>
      </trkpt>
      <trkpt lat="45.7682" lon="-1.20911">
        <ele>70.6</ele>
        <time>2020-01-26T07:16:55Z</time>
      </trkpt>
      <trkpt lat="45.76823" lon="-1.20915">
        <ele>70.4</ele>
        <time>2020-01-26T07:16:56Z</time>
      </trkpt>
      <trkpt lat="45.76825" lon="-1.20919">
        <ele>70.4</ele>
        <time>2020-01-26T07:16:57Z</time>
      </trkpt>
      <trkpt lat="45.76828" lon="-1.20923">
        <ele>70</ele>
        <time>2020-01-26T07:16:58Z</time>
      </trkpt>
      <trkpt lat="45.76831" lon="-1.20927">
        <ele>69.8</ele>
        <time>2020-01-26T07:16:59Z</time>
      </trkpt>
      <trkpt lat="45.76834" lon="-1.20932">
        <ele>69.6</ele>
        <time>2020-01-26T07:17:00Z</time>
      </trkpt>
      <trkpt lat="45.76838" lon="-1.20936">
        <ele>69.4</ele>
        <time>2020-01-26T07:17:01Z</time>
      </trkpt>
      <trkpt lat="45.76841" lon="-1.20941">
        <ele>69.6</ele>
        <time>2020-01-26T07:17:02Z</time>
      </trkpt>
      <trkpt lat="45.76844" lon="-1.20945">
        <ele>69.6</ele>
        <time>2020-01-26T07:17:03Z</time>
      </trkpt>
      <trkpt lat="45.76847" lon="-1.20949">
        <ele>69.8</ele>
        <time>2020-01-26T07:17:04Z</time>
      </trkpt>
      <trkpt lat="45.7685" lon="-1.20949">
        <ele>70</ele>
        <time>2020-01-26T07:17:05Z</time>
      </trkpt>
      <trkpt lat="45.76854" lon="-1.20945">
        <ele>70.4</ele>
        <time>2020-01-26T07:17:06Z</time>
      </trkpt>
      <trkpt lat="45.76858" lon="-1.20944">
        <ele>70.4</ele>
        <time>2020-01-26T07:17:07Z</time>
      </trkpt>
      <trkpt lat="45.76861" lon="-1.20943">
        <ele>70.4</ele>
        <time>2020-01-26T07:17:08Z</time>
      </trkpt>
      <trkpt lat="45.76865" lon="-1.20942">
        <ele>70.2</ele>
        <time>2020-01-26T07:17:09Z</time>
      </trkpt>
      <trkpt lat="45.76868" lon="-1.20941">
        <ele>70</ele>
        <time>2020-01-26T07:17:10Z</time>
      </trkpt>
      <trkpt lat="45.76871" lon="-1.20941">
        <ele>69.6</ele>
        <time>2020-01-26T07:17:11Z</time>
      </trkpt>
      <trkpt lat="45.76873" lon="-1.20944">
        <ele>69.2</ele>
        <time>2020-01-26T07:17:12Z</time>
      </trkpt>
      <trkpt lat="45.76874" lon="-1.20947">
        <ele>68.6</ele>
        <time>2020-01-26T07:17:13Z</time>
      </trkpt>
      <trkpt lat="45.76876" lon="-1.2095">
        <ele>68.6</ele>
        <time>2020-01-26T07:17:14Z</time>
      </trkpt>
      <trkpt lat="45.76878" lon="-1.20952">
        <ele>68.4</ele>
        <time>2020-01-26T07:17:15Z</time>
      </trkpt>
      <trkpt lat="45.76881" lon="-1.20953">
        <ele>68.4</ele>
        <time>2020-01-26T07:17:16Z</time>
      </trkpt>
      <trkpt lat="45.76882" lon="-1.20954">
        <ele>67.8</ele>
        <time>2020-01-26T07:17:17Z</time>
      </trkpt>
      <trkpt lat="45.76883" lon="-1.20955">
        <ele>67.4</ele>
        <time>2020-01-26T07:17:18Z</time>
      </trkpt>
      <trkpt lat="45.76883" lon="-1.20957">
        <ele>67</ele>
        <time>2020-01-26T07:17:19Z</time>
      </trkpt>
      <trkpt lat="45.76884" lon="-1.2096">
        <ele>66</ele>
        <time>2020-01-26T07:17:20Z</time>
      </trkpt>
      <trkpt lat="45.76885" lon="-1.20961">
        <ele>65.4</ele>
        <time>2020-01-26T07:17:21Z</time>
      </trkpt>
      <trkpt lat="45.76885" lon="-1.20962">
        <ele>64.8</ele>
        <time>2020-01-26T07:17:22Z</time>
      </trkpt>
      <trkpt lat="45.76886" lon="-1.20964">
        <ele>64.2</ele>
        <time>2020-01-26T07:17:23Z</time>
      </trkpt>
      <trkpt lat="45.76888" lon="-1.20964">
        <ele>63.8</ele>
        <time>2020-01-26T07:17:24Z</time>
      </trkpt>
      <trkpt lat="45.76889" lon="-1.20962">
        <ele>63.6</ele>
        <time>2020-01-26T07:17:25Z</time>
      </trkpt>
      <trkpt lat="45.7689" lon="-1.2096">
        <ele>63</ele>
        <time>2020-01-26T07:17:26Z</time>
      </trkpt>
      <trkpt lat="45.76892" lon="-1.20959">
        <ele>62.4</ele>
        <time>2020-01-26T07:17:27Z</time>
      </trkpt>
      <trkpt lat="45.76894" lon="-1.20957">
        <ele>61.6</ele>
        <time>2020-01-26T07:17:28Z</time>
      </trkpt>
      <trkpt lat="45.76895" lon="-1.20958">
        <ele>61.2</ele>
        <time>2020-01-26T07:17:29Z</time>
      </trkpt>
      <trkpt lat="45.76896" lon="-1.20964">
        <ele>60.2</ele>
        <time>2020-01-26T07:17:30Z</time>
      </trkpt>
      <trkpt lat="45.76897" lon="-1.2097">
        <ele>58.6</ele>
        <time>2020-01-26T07:17:31Z</time>
      </trkpt>
      <trkpt lat="45.76899" lon="-1.20976">
        <ele>57.2</ele>
        <time>2020-01-26T07:17:32Z</time>
      </trkpt>
      <trkpt lat="45.76901" lon="-1.20984">
        <ele>55.8</ele>
        <time>2020-01-26T07:17:33Z</time>
      </trkpt>
      <trkpt lat="45.76904" lon="-1.20993">
        <ele>54.6</ele>
        <time>2020-01-26T07:17:34Z</time>
      </trkpt>
      <trkpt lat="45.76907" lon="-1.21003">
        <ele>53.8</ele>
        <time>2020-01-26T07:17:35Z</time>
      </trkpt>
      <trkpt lat="45.7691" lon="-1.21013">
        <ele>53.4</ele>
        <time>2020-01-26T07:17:36Z</time>
      </trkpt>
      <trkpt lat="45.76914" lon="-1.21021">
        <ele>53</ele>
        <time>2020-01-26T07:17:37Z</time>
      </trkpt>
      <trkpt lat="45.76918" lon="-1.21029">
        <ele>53</ele>
        <time>2020-01-26T07:17:38Z</time>
      </trkpt>
      <trkpt lat="45.7692" lon="-1.21037">
        <ele>53</ele>
        <time>2020-01-26T07:17:39Z</time>
      </trkpt>
      <trkpt lat="45.7692" lon="-1.21046">
        <ele>53</ele>
        <time>2020-01-26T07:17:40Z</time>
      </trkpt>
      <trkpt lat="45.76919" lon="-1.21054">
        <ele>53</ele>
        <time>2020-01-26T07:17:41Z</time>
      </trkpt>
      <trkpt lat="45.76917" lon="-1.21064">
        <ele>52.8</ele>
        <time>2020-01-26T07:17:42Z</time>
      </trkpt>
      <trkpt lat="45.76916" lon="-1.21073">
        <ele>52.8</ele>
        <time>2020-01-26T07:17:43Z</time>
      </trkpt>
      <trkpt lat="45.76916" lon="-1.21083">
        <ele>53.2</ele>
        <time>2020-01-26T07:17:44Z</time>
      </trkpt>
      <trkpt lat="45.76917" lon="-1.21091">
        <ele>53.8</ele>
        <time>2020-01-26T07:17:45Z</time>
      </trkpt>
      <trkpt lat="45.76918" lon="-1.21098">
        <ele>54.2</ele>
        <time>2020-01-26T07:17:46Z</time>
      </trkpt>
      <trkpt lat="45.76919" lon="-1.21105">
        <ele>54.6</ele>
        <time>2020-01-26T07:17:47Z</time>
      </trkpt>
      <trkpt lat="45.7692" lon="-1.21112">
        <ele>55.2</ele>
        <time>2020-01-26T07:17:48Z</time>
      </trkpt>
      <trkpt lat="45.76922" lon="-1.21116">
        <ele>55.6</ele>
        <time>2020-01-26T07:17:49Z</time>
      </trkpt>
      <trkpt lat="45.76922" lon="-1.2112">
        <ele>55.8</ele>
        <time>2020-01-26T07:17:50Z</time>
      </trkpt>
      <trkpt lat="45.76923" lon="-1.21125">
        <ele>55.8</ele>
        <time>2020-01-26T07:17:51Z</time>
      </trkpt>
      <trkpt lat="45.76926" lon="-1.21129">
        <ele>56.2</ele>
        <time>2020-01-26T07:17:52Z</time>
      </trkpt>
      <trkpt lat="45.76927" lon="-1.21133">
        <ele>56.4</ele>
        <time>2020-01-26T07:17:53Z</time>
      </trkpt>
      <trkpt lat="45.76928" lon="-1.21137">
        <ele>56.6</ele>
        <time>2020-01-26T07:17:54Z</time>
      </trkpt>
      <trkpt lat="45.76928" lon="-1.21141">
        <ele>56.6</ele>
        <time>2020-01-26T07:17:55Z</time>
      </trkpt>
      <trkpt lat="45.76926" lon="-1.21144">
        <ele>56.6</ele>
        <time>2020-01-26T07:17:56Z</time>
      </trkpt>
      <trkpt lat="45.76925" lon="-1.21147">
        <ele>56.4</ele>
        <time>2020-01-26T07:17:57Z</time>
      </trkpt>
      <trkpt lat="45.76924" lon="-1.21151">
        <ele>55.8</ele>
        <time>2020-01-26T07:17:58Z</time>
      </trkpt>
      <trkpt lat="45.76923" lon="-1.21154">
        <ele>55.8</ele>
        <time>2020-01-26T07:17:59Z</time>
      </trkpt>
      <trkpt lat="45.76923" lon="-1.21157">
        <ele>56.2</ele>
        <time>2020-01-26T07:18:00Z</time>
      </trkpt>
      <trkpt lat="45.76923" lon="-1.2116">
        <ele>56.4</ele>
        <time>2020-01-26T07:18:01Z</time>
      </trkpt>
      <trkpt lat="45.76923" lon="-1.21162">
        <ele>56.6</ele>
        <time>2020-01-26T07:18:02Z</time>
      </trkpt>
      <trkpt lat="45.76923" lon="-1.21165">
        <ele>56.4</ele>
        <time>2020-01-26T07:18:03Z</time>
      </trkpt>
      <trkpt lat="45.76924" lon="-1.21167">
        <ele>56</ele>
        <time>2020-01-26T07:18:04Z</time>
      </trkpt>
      <trkpt lat="45.76925" lon="-1.21169">
        <ele>55.4</ele>
        <time>2020-01-26T07:18:05Z</time>
      </trkpt>
      <trkpt lat="45.76927" lon="-1.21175">
        <ele>54.8</ele>
        <time>2020-01-26T07:18:06Z</time>
      </trkpt>
      <trkpt lat="45.76928" lon="-1.21179">
        <ele>53.8</ele>
        <time>2020-01-26T07:18:07Z</time>
      </trkpt>
      <trkpt lat="45.7693" lon="-1.21185">
        <ele>53.2</ele>
        <time>2020-01-26T07:18:08Z</time>
      </trkpt>
      <trkpt lat="45.76931" lon="-1.2119">
        <ele>52.8</ele>
        <time>2020-01-26T07:18:09Z</time>
      </trkpt>
      <trkpt lat="45.76933" lon="-1.21194">
        <ele>52.6</ele>
        <time>2020-01-26T07:18:10Z</time>
      </trkpt>
      <trkpt lat="45.76934" lon="-1.21197">
        <ele>52</ele>
        <time>2020-01-26T07:18:11Z</time>
      </trkpt>
      <trkpt lat="45.76935" lon="-1.212">
        <ele>51.4</ele>
        <time>2020-01-26T07:18:12Z</time>
      </trkpt>
      <trkpt lat="45.76936" lon="-1.21199">
        <ele>50.8</ele>
        <time>2020-01-26T07:18:13Z</time>
      </trkpt>
      <trkpt lat="45.76938" lon="-1.212">
        <ele>50.8</ele>
        <time>2020-01-26T07:18:14Z</time>
      </trkpt>
      <trkpt lat="45.76942" lon="-1.21201">
        <ele>51.6</ele>
        <time>2020-01-26T07:18:15Z</time>
      </trkpt>
      <trkpt lat="45.76945" lon="-1.21203">
        <ele>53</ele>
        <time>2020-01-26T07:18:16Z</time>
      </trkpt>
      <trkpt lat="45.76948" lon="-1.21204">
        <ele>54</ele>
        <time>2020-01-26T07:18:17Z</time>
      </trkpt>
      <trkpt lat="45.7695" lon="-1.21205">
        <ele>55</ele>
        <time>2020-01-26T07:18:18Z</time>
      </trkpt>
      <trkpt lat="45.76955" lon="-1.21208">
        <ele>55.6</ele>
        <time>2020-01-26T07:18:19Z</time>
      </trkpt>
      <trkpt lat="45.76959" lon="-1.21212">
        <ele>56.2</ele>
        <time>2020-01-26T07:18:20Z</time>
      </trkpt>
      <trkpt lat="45.76964" lon="-1.21214">
        <ele>56.6</ele>
        <time>2020-01-26T07:18:21Z</time>
      </trkpt>
      <trkpt lat="45.76969" lon="-1.21219">
        <ele>56.6</ele>
        <time>2020-01-26T07:18:22Z</time>
      </trkpt>
      <trkpt lat="45.76973" lon="-1.21218">
        <ele>56.2</ele>
        <time>2020-01-26T07:18:23Z</time>
      </trkpt>
      <trkpt lat="45.7698" lon="-1.21222">
        <ele>55.6</ele>
        <time>2020-01-26T07:18:24Z</time>
      </trkpt>
      <trkpt lat="45.76988" lon="-1.21223">
        <ele>55.8</ele>
        <time>2020-01-26T07:18:25Z</time>
      </trkpt>
      <trkpt lat="45.76995" lon="-1.21223">
        <ele>55.8</ele>
        <time>2020-01-26T07:18:26Z</time>
      </trkpt>
      <trkpt lat="45.76998" lon="-1.21222">
        <ele>55.6</ele>
        <time>2020-01-26T07:18:27Z</time>
      </trkpt>
      <trkpt lat="45.77002" lon="-1.21219">
        <ele>56</ele>
        <time>2020-01-26T07:18:28Z</time>
      </trkpt>
      <trkpt lat="45.77004" lon="-1.21218">
        <ele>56</ele>
        <time>2020-01-26T07:18:29Z</time>
      </trkpt>
      <trkpt lat="45.77007" lon="-1.21219">
        <ele>55.8</ele>
        <time>2020-01-26T07:18:30Z</time>
      </trkpt>
      <trkpt lat="45.7701" lon="-1.2122">
        <ele>55.2</ele>
        <time>2020-01-26T07:18:31Z</time>
      </trkpt>
      <trkpt lat="45.77013" lon="-1.2122">
        <ele>54.4</ele>
        <time>2020-01-26T07:18:32Z</time>
      </trkpt>
      <trkpt lat="45.77017" lon="-1.21221">
        <ele>53.6</ele>
        <time>2020-01-26T07:18:33Z</time>
      </trkpt>
      <trkpt lat="45.77021" lon="-1.21225">
        <ele>52.8</ele>
        <time>2020-01-26T07:18:34Z</time>
      </trkpt>
      <trkpt lat="45.77029" lon="-1.2123">
        <ele>52.6</ele>
        <time>2020-01-26T07:18:35Z</time>
      </trkpt>
      <trkpt lat="45.77035" lon="-1.21234">
        <ele>52.4</ele>
        <time>2020-01-26T07:18:36Z</time>
      </trkpt>
      <trkpt lat="45.77039" lon="-1.21236">
        <ele>52.8</ele>
        <time>2020-01-26T07:18:37Z</time>
      </trkpt>
      <trkpt lat="45.77043" lon="-1.21238">
        <ele>53.4</ele>
        <time>2020-01-26T07:18:38Z</time>
      </trkpt>
      <trkpt lat="45.77045" lon="-1.2124">
        <ele>53.8</ele>
        <time>2020-01-26T07:18:39Z</time>
      </trkpt>
      <trkpt lat="45.77048" lon="-1.21242">
        <ele>54</ele>
        <time>2020-01-26T07:18:40Z</time>
      </trkpt>
      <trkpt lat="45.7705" lon="-1.21245">
        <ele>53.4</ele>
        <time>2020-01-26T07:18:41Z</time>
      </trkpt>
      <trkpt lat="45.77052" lon="-1.21247">
        <ele>52.6</ele>
        <time>2020-01-26T07:18:42Z</time>
      </trkpt>
      <trkpt lat="45.77054" lon="-1.21249">
        <ele>52</ele>
        <time>2020-01-26T07:18:43Z</time>
      </trkpt>
      <trkpt lat="45.77056" lon="-1.21251">
        <ele>51.4</ele>
        <time>2020-01-26T07:18:44Z</time>
      </trkpt>
      <trkpt lat="45.77057" lon="-1.21254">
        <ele>50.8</ele>
        <time>2020-01-26T07:18:45Z</time>
      </trkpt>
      <trkpt lat="45.77058" lon="-1.21257">
        <ele>50.4</ele>
        <time>2020-01-26T07:18:46Z</time>
      </trkpt>
      <trkpt lat="45.7706" lon="-1.21261">
        <ele>50</ele>
        <time>2020-01-26T07:18:47Z</time>
      </trkpt>
      <trkpt lat="45.77063" lon="-1.21265">
        <ele>49.4</ele>
        <time>2020-01-26T07:18:48Z</time>
      </trkpt>
      <trkpt lat="45.77067" lon="-1.21271">
        <ele>48.8</ele>
        <time>2020-01-26T07:18:49Z</time>
      </trkpt>
      <trkpt lat="45.77069" lon="-1.21277">
        <ele>48.6</ele>
        <time>2020-01-26T07:18:50Z</time>
      </trkpt>
      <trkpt lat="45.77071" lon="-1.21284">
        <ele>48.8</ele>
        <time>2020-01-26T07:18:51Z</time>
      </trkpt>
      <trkpt lat="45.77075" lon="-1.21289">
        <ele>48.8</ele>
        <time>2020-01-26T07:18:52Z</time>
      </trkpt>
      <trkpt lat="45.77078" lon="-1.21293">
        <ele>48.8</ele>
        <time>2020-01-26T07:18:53Z</time>
      </trkpt>
      <trkpt lat="45.7708" lon="-1.21296">
        <ele>49</ele>
        <time>2020-01-26T07:18:54Z</time>
      </trkpt>
      <trkpt lat="45.7708" lon="-1.21301">
        <ele>49</ele>
        <time>2020-01-26T07:18:55Z</time>
      </trkpt>
      <trkpt lat="45.77082" lon="-1.21303">
        <ele>49</ele>
        <time>2020-01-26T07:18:56Z</time>
      </trkpt>
      <trkpt lat="45.77083" lon="-1.21305">
        <ele>48.6</ele>
        <time>2020-01-26T07:18:57Z</time>
      </trkpt>
      <trkpt lat="45.77084" lon="-1.21308">
        <ele>48</ele>
        <time>2020-01-26T07:18:58Z</time>
      </trkpt>
      <trkpt lat="45.77085" lon="-1.21311">
        <ele>47.4</ele>
        <time>2020-01-26T07:18:59Z</time>
      </trkpt>
      <trkpt lat="45.77086" lon="-1.21314">
        <ele>47</ele>
        <time>2020-01-26T07:19:00Z</time>
      </trkpt>
      <trkpt lat="45.77087" lon="-1.21317">
        <ele>46.6</ele>
        <time>2020-01-26T07:19:01Z</time>
      </trkpt>
      <trkpt lat="45.77087" lon="-1.21321">
        <ele>46.2</ele>
        <time>2020-01-26T07:19:02Z</time>
      </trkpt>
      <trkpt lat="45.77088" lon="-1.21324">
        <ele>46.2</ele>
        <time>2020-01-26T07:19:03Z</time>
      </trkpt>
      <trkpt lat="45.77089" lon="-1.21326">
        <ele>46.2</ele>
        <time>2020-01-26T07:19:04Z</time>
      </trkpt>
      <trkpt lat="45.7709" lon="-1.2133">
        <ele>46</ele>
        <time>2020-01-26T07:19:05Z</time>
      </trkpt>
      <trkpt lat="45.7709" lon="-1.21334">
        <ele>46</ele>
        <time>2020-01-26T07:19:06Z</time>
      </trkpt>
      <trkpt lat="45.7709" lon="-1.21338">
        <ele>46</ele>
        <time>2020-01-26T07:19:07Z</time>
      </trkpt>
      <trkpt lat="45.77092" lon="-1.2134">
        <ele>46</ele>
        <time>2020-01-26T07:19:08Z</time>
      </trkpt>
      <trkpt lat="45.77094" lon="-1.21343">
        <ele>46.6</ele>
        <time>2020-01-26T07:19:09Z</time>
      </trkpt>
      <trkpt lat="45.77095" lon="-1.21345">
        <ele>47</ele>
        <time>2020-01-26T07:19:10Z</time>
      </trkpt>
      <trkpt lat="45.77097" lon="-1.21345">
        <ele>47.4</ele>
        <time>2020-01-26T07:19:11Z</time>
      </trkpt>
      <trkpt lat="45.77101" lon="-1.21344">
        <ele>47.6</ele>
        <time>2020-01-26T07:19:12Z</time>
      </trkpt>
      <trkpt lat="45.77105" lon="-1.21346">
        <ele>48.6</ele>
        <time>2020-01-26T07:19:13Z</time>
      </trkpt>
      <trkpt lat="45.77109" lon="-1.21349">
        <ele>49.4</ele>
        <time>2020-01-26T07:19:14Z</time>
      </trkpt>
      <trkpt lat="45.77113" lon="-1.21351">
        <ele>50.8</ele>
        <time>2020-01-26T07:19:15Z</time>
      </trkpt>
      <trkpt lat="45.77115" lon="-1.21352">
        <ele>52.2</ele>
        <time>2020-01-26T07:19:16Z</time>
      </trkpt>
      <trkpt lat="45.77116" lon="-1.21356">
        <ele>52.8</ele>
        <time>2020-01-26T07:19:17Z</time>
      </trkpt>
      <trkpt lat="45.77116" lon="-1.21359">
        <ele>53.4</ele>
        <time>2020-01-26T07:19:18Z</time>
      </trkpt>
      <trkpt lat="45.77117" lon="-1.21361">
        <ele>54.2</ele>
        <time>2020-01-26T07:19:19Z</time>
      </trkpt>
      <trkpt lat="45.77118" lon="-1.21363">
        <ele>54.8</ele>
        <time>2020-01-26T07:19:20Z</time>
      </trkpt>
      <trkpt lat="45.77119" lon="-1.21365">
        <ele>55.6</ele>
        <time>2020-01-26T07:19:21Z</time>
      </trkpt>
      <trkpt lat="45.77121" lon="-1.21368">
        <ele>56.2</ele>
        <time>2020-01-26T07:19:22Z</time>
      </trkpt>
      <trkpt lat="45.77122" lon="-1.21369">
        <ele>57.2</ele>
        <time>2020-01-26T07:19:23Z</time>
      </trkpt>
      <trkpt lat="45.77125" lon="-1.21371">
        <ele>58.6</ele>
        <time>2020-01-26T07:19:24Z</time>
      </trkpt>
      <trkpt lat="45.77127" lon="-1.21373">
        <ele>59.8</ele>
        <time>2020-01-26T07:19:25Z</time>
      </trkpt>
      <trkpt lat="45.77129" lon="-1.21375">
        <ele>60.6</ele>
        <time>2020-01-26T07:19:26Z</time>
      </trkpt>
      <trkpt lat="45.77129" lon="-1.21376">
        <ele>61.2</ele>
        <time>2020-01-26T07:19:27Z</time>
      </trkpt>
      <trkpt lat="45.77131" lon="-1.21377">
        <ele>61.4</ele>
        <time>2020-01-26T07:19:28Z</time>
      </trkpt>
      <trkpt lat="45.77132" lon="-1.21377">
        <ele>61.4</ele>
        <time>2020-01-26T07:19:29Z</time>
      </trkpt>
      <trkpt lat="45.77134" lon="-1.21378">
        <ele>61.6</ele>
        <time>2020-01-26T07:19:30Z</time>
      </trkpt>
      <trkpt lat="45.77138" lon="-1.21377">
        <ele>62.2</ele>
        <time>2020-01-26T07:19:31Z</time>
      </trkpt>
      <trkpt lat="45.77141" lon="-1.2138">
        <ele>62.4</ele>
        <time>2020-01-26T07:19:32Z</time>
      </trkpt>
      <trkpt lat="45.77144" lon="-1.21382">
        <ele>62.2</ele>
        <time>2020-01-26T07:19:33Z</time>
      </trkpt>
      <trkpt lat="45.77146" lon="-1.21382">
        <ele>62.2</ele>
        <time>2020-01-26T07:19:34Z</time>
      </trkpt>
      <trkpt lat="45.77148" lon="-1.21383">
        <ele>62.4</ele>
        <time>2020-01-26T07:19:35Z</time>
      </trkpt>
      <trkpt lat="45.77149" lon="-1.21384">
        <ele>62.6</ele>
        <time>2020-01-26T07:19:36Z</time>
      </trkpt>
      <trkpt lat="45.7715" lon="-1.21384">
        <ele>62.6</ele>
        <time>2020-01-26T07:19:37Z</time>
      </trkpt>
      <trkpt lat="45.77153" lon="-1.21387">
        <ele>62.6</ele>
        <time>2020-01-26T07:19:38Z</time>
      </trkpt>
      <trkpt lat="45.77155" lon="-1.21389">
        <ele>62.4</ele>
        <time>2020-01-26T07:19:39Z</time>
      </trkpt>
      <trkpt lat="45.77156" lon="-1.21391">
        <ele>62.4</ele>
        <time>2020-01-26T07:19:40Z</time>
      </trkpt>
      <trkpt lat="45.77158" lon="-1.21392">
        <ele>62.4</ele>
        <time>2020-01-26T07:19:41Z</time>
      </trkpt>
      <trkpt lat="45.7716" lon="-1.2139">
        <ele>62</ele>
        <time>2020-01-26T07:19:42Z</time>
      </trkpt>
      <trkpt lat="45.77161" lon="-1.2139">
        <ele>61.4</ele>
        <time>2020-01-26T07:19:43Z</time>
      </trkpt>
      <trkpt lat="45.77163" lon="-1.21388">
        <ele>61.2</ele>
        <time>2020-01-26T07:19:44Z</time>
      </trkpt>
      <trkpt lat="45.77166" lon="-1.21387">
        <ele>61.2</ele>
        <time>2020-01-26T07:19:45Z</time>
      </trkpt>
      <trkpt lat="45.77168" lon="-1.21385">
        <ele>61.4</ele>
        <time>2020-01-26T07:19:46Z</time>
      </trkpt>
      <trkpt lat="45.77171" lon="-1.21382">
        <ele>62.4</ele>
        <time>2020-01-26T07:19:47Z</time>
      </trkpt>
      <trkpt lat="45.77172" lon="-1.21379">
        <ele>63.2</ele>
        <time>2020-01-26T07:19:48Z</time>
      </trkpt>
      <trkpt lat="45.77175" lon="-1.21372">
        <ele>64.2</ele>
        <time>2020-01-26T07:19:49Z</time>
      </trkpt>
      <trkpt lat="45.77177" lon="-1.21365">
        <ele>64.6</ele>
        <time>2020-01-26T07:19:50Z</time>
      </trkpt>
      <trkpt lat="45.77177" lon="-1.21357">
        <ele>64.6</ele>
        <time>2020-01-26T07:19:51Z</time>
      </trkpt>
      <trkpt lat="45.77177" lon="-1.21351">
        <ele>64.4</ele>
        <time>2020-01-26T07:19:52Z</time>
      </trkpt>
      <trkpt lat="45.77177" lon="-1.21344">
        <ele>64.2</ele>
        <time>2020-01-26T07:19:53Z</time>
      </trkpt>
      <trkpt lat="45.77177" lon="-1.21338">
        <ele>63.8</ele>
        <time>2020-01-26T07:19:54Z</time>
      </trkpt>
      <trkpt lat="45.77177" lon="-1.21333">
        <ele>63.4</ele>
        <time>2020-01-26T07:19:55Z</time>
      </trkpt>
      <trkpt lat="45.77176" lon="-1.2133">
        <ele>62.8</ele>
        <time>2020-01-26T07:19:56Z</time>
      </trkpt>
      <trkpt lat="45.77176" lon="-1.21327">
        <ele>62</ele>
        <time>2020-01-26T07:19:57Z</time>
      </trkpt>
      <trkpt lat="45.77176" lon="-1.21324">
        <ele>61.6</ele>
        <time>2020-01-26T07:19:58Z</time>
      </trkpt>
      <trkpt lat="45.77176" lon="-1.21321">
        <ele>61.2</ele>
        <time>2020-01-26T07:19:59Z</time>
      </trkpt>
      <trkpt lat="45.77176" lon="-1.21317">
        <ele>60.8</ele>
        <time>2020-01-26T07:20:00Z</time>
      </trkpt>
      <trkpt lat="45.77177" lon="-1.21312">
        <ele>61</ele>
        <time>2020-01-26T07:20:01Z</time>
      </trkpt>
      <trkpt lat="45.77176" lon="-1.21302">
        <ele>61.4</ele>
        <time>2020-01-26T07:20:02Z</time>
      </trkpt>
      <trkpt lat="45.77176" lon="-1.21296">
        <ele>61.8</ele>
        <time>2020-01-26T07:20:03Z</time>
      </trkpt>
      <trkpt lat="45.77175" lon="-1.21287">
        <ele>62.2</ele>
        <time>2020-01-26T07:20:04Z</time>
      </trkpt>
      <trkpt lat="45.77175" lon="-1.21283">
        <ele>62.4</ele>
        <time>2020-01-26T07:20:05Z</time>
      </trkpt>
      <trkpt lat="45.77175" lon="-1.21275">
        <ele>62.6</ele>
        <time>2020-01-26T07:20:06Z</time>
      </trkpt>
      <trkpt lat="45.77175" lon="-1.21267">
        <ele>63</ele>
        <time>2020-01-26T07:20:07Z</time>
      </trkpt>
      <trkpt lat="45.77175" lon="-1.21261">
        <ele>63.2</ele>
        <time>2020-01-26T07:20:08Z</time>
      </trkpt>
      <trkpt lat="45.77174" lon="-1.21254">
        <ele>63.6</ele>
        <time>2020-01-26T07:20:09Z</time>
      </trkpt>
      <trkpt lat="45.77174" lon="-1.21249">
        <ele>64.2</ele>
        <time>2020-01-26T07:20:10Z</time>
      </trkpt>
      <trkpt lat="45.77174" lon="-1.21245">
        <ele>64.6</ele>
        <time>2020-01-26T07:20:11Z</time>
      </trkpt>
      <trkpt lat="45.77174" lon="-1.21241">
        <ele>64.4</ele>
        <time>2020-01-26T07:20:12Z</time>
      </trkpt>
      <trkpt lat="45.77175" lon="-1.21234">
        <ele>64.4</ele>
        <time>2020-01-26T07:20:13Z</time>
      </trkpt>
      <trkpt lat="45.77175" lon="-1.21228">
        <ele>64.6</ele>
        <time>2020-01-26T07:20:14Z</time>
      </trkpt>
      <trkpt lat="45.77174" lon="-1.21221">
        <ele>65</ele>
        <time>2020-01-26T07:20:15Z</time>
      </trkpt>
      <trkpt lat="45.77174" lon="-1.21215">
        <ele>65.2</ele>
        <time>2020-01-26T07:20:16Z</time>
      </trkpt>
      <trkpt lat="45.77174" lon="-1.21208">
        <ele>65.4</ele>
        <time>2020-01-26T07:20:17Z</time>
      </trkpt>
      <trkpt lat="45.77174" lon="-1.21202">
        <ele>65.6</ele>
        <time>2020-01-26T07:20:18Z</time>
      </trkpt>
      <trkpt lat="45.77174" lon="-1.21196">
        <ele>65.4</ele>
        <time>2020-01-26T07:20:19Z</time>
      </trkpt>
      <trkpt lat="45.77174" lon="-1.21192">
        <ele>65.2</ele>
        <time>2020-01-26T07:20:20Z</time>
      </trkpt>
      <trkpt lat="45.77174" lon="-1.21187">
        <ele>65</ele>
        <time>2020-01-26T07:20:21Z</time>
      </trkpt>
      <trkpt lat="45.77174" lon="-1.21181">
        <ele>64.4</ele>
        <time>2020-01-26T07:20:22Z</time>
      </trkpt>
      <trkpt lat="45.77174" lon="-1.21175">
        <ele>64.4</ele>
        <time>2020-01-26T07:20:23Z</time>
      </trkpt>
      <trkpt lat="45.77174" lon="-1.2117">
        <ele>64.2</ele>
        <time>2020-01-26T07:20:24Z</time>
      </trkpt>
      <trkpt lat="45.77174" lon="-1.21167">
        <ele>64.2</ele>
        <time>2020-01-26T07:20:25Z</time>
      </trkpt>
      <trkpt lat="45.77175" lon="-1.21162">
        <ele>63.8</ele>
        <time>2020-01-26T07:20:26Z</time>
      </trkpt>
      <trkpt lat="45.77175" lon="-1.2116">
        <ele>63.4</ele>
        <time>2020-01-26T07:20:27Z</time>
      </trkpt>
      <trkpt lat="45.77175" lon="-1.21156">
        <ele>62.8</ele>
        <time>2020-01-26T07:20:28Z</time>
      </trkpt>
      <trkpt lat="45.77174" lon="-1.2115">
        <ele>62.4</ele>
        <time>2020-01-26T07:20:29Z</time>
      </trkpt>
      <trkpt lat="45.77174" lon="-1.21143">
        <ele>62.4</ele>
        <time>2020-01-26T07:20:30Z</time>
      </trkpt>
      <trkpt lat="45.77174" lon="-1.21137">
        <ele>62.8</ele>
        <time>2020-01-26T07:20:31Z</time>
      </trkpt>
      <trkpt lat="45.77174" lon="-1.2113">
        <ele>62.8</ele>
        <time>2020-01-26T07:20:32Z</time>
      </trkpt>
      <trkpt lat="45.77174" lon="-1.21122">
        <ele>62.8</ele>
        <time>2020-01-26T07:20:33Z</time>
      </trkpt>
      <trkpt lat="45.77174" lon="-1.21116">
        <ele>63.2</ele>
        <time>2020-01-26T07:20:34Z</time>
      </trkpt>
      <trkpt lat="45.77174" lon="-1.2111">
        <ele>63.4</ele>
        <time>2020-01-26T07:20:35Z</time>
      </trkpt>
      <trkpt lat="45.77173" lon="-1.21106">
        <ele>63</ele>
        <time>2020-01-26T07:20:36Z</time>
      </trkpt>
      <trkpt lat="45.77173" lon="-1.21103">
        <ele>62.4</ele>
        <time>2020-01-26T07:20:37Z</time>
      </trkpt>
      <trkpt lat="45.77173" lon="-1.21099">
        <ele>62.2</ele>
        <time>2020-01-26T07:20:38Z</time>
      </trkpt>
      <trkpt lat="45.77172" lon="-1.21096">
        <ele>62.4</ele>
        <time>2020-01-26T07:20:39Z</time>
      </trkpt>
      <trkpt lat="45.77172" lon="-1.21093">
        <ele>62.6</ele>
        <time>2020-01-26T07:20:40Z</time>
      </trkpt>
      <trkpt lat="45.77172" lon="-1.2109">
        <ele>62.6</ele>
        <time>2020-01-26T07:20:41Z</time>
      </trkpt>
      <trkpt lat="45.77172" lon="-1.21085">
        <ele>62.4</ele>
        <time>2020-01-26T07:20:42Z</time>
      </trkpt>
      <trkpt lat="45.77171" lon="-1.21081">
        <ele>62.6</ele>
        <time>2020-01-26T07:20:43Z</time>
      </trkpt>
      <trkpt lat="45.77171" lon="-1.21078">
        <ele>63</ele>
        <time>2020-01-26T07:20:44Z</time>
      </trkpt>
      <trkpt lat="45.77171" lon="-1.21076">
        <ele>63</ele>
        <time>2020-01-26T07:20:45Z</time>
      </trkpt>
      <trkpt lat="45.7717" lon="-1.21074">
        <ele>63</ele>
        <time>2020-01-26T07:20:46Z</time>
      </trkpt>
      <trkpt lat="45.7717" lon="-1.21072">
        <ele>63</ele>
        <time>2020-01-26T07:20:47Z</time>
      </trkpt>
      <trkpt lat="45.7717" lon="-1.2107">
        <ele>63.2</ele>
        <time>2020-01-26T07:20:48Z</time>
      </trkpt>
      <trkpt lat="45.7717" lon="-1.21068">
        <ele>63.8</ele>
        <time>2020-01-26T07:20:49Z</time>
      </trkpt>
      <trkpt lat="45.7717" lon="-1.21066">
        <ele>64.4</ele>
        <time>2020-01-26T07:20:50Z</time>
      </trkpt>
      <trkpt lat="45.77171" lon="-1.21064">
        <ele>64.8</ele>
        <time>2020-01-26T07:20:51Z</time>
      </trkpt>
      <trkpt lat="45.77171" lon="-1.21063">
        <ele>65</ele>
        <time>2020-01-26T07:20:52Z</time>
      </trkpt>
      <trkpt lat="45.77172" lon="-1.21061">
        <ele>65</ele>
        <time>2020-01-26T07:20:53Z</time>
      </trkpt>
      <trkpt lat="45.77172" lon="-1.2106">
        <ele>65</ele>
        <time>2020-01-26T07:20:54Z</time>
      </trkpt>
      <trkpt lat="45.77171" lon="-1.21058">
        <ele>65.2</ele>
        <time>2020-01-26T07:20:55Z</time>
      </trkpt>
      <trkpt lat="45.77171" lon="-1.21057">
        <ele>65.4</ele>
        <time>2020-01-26T07:20:56Z</time>
      </trkpt>
      <trkpt lat="45.77171" lon="-1.21056">
        <ele>65.6</ele>
        <time>2020-01-26T07:20:57Z</time>
      </trkpt>
      <trkpt lat="45.77169" lon="-1.21056">
        <ele>64.8</ele>
        <time>2020-01-26T07:20:58Z</time>
      </trkpt>
      <trkpt lat="45.77169" lon="-1.21055">
        <ele>64.4</ele>
        <time>2020-01-26T07:20:59Z</time>
      </trkpt>
      <trkpt lat="45.7717" lon="-1.21054">
        <ele>63.8</ele>
        <time>2020-01-26T07:21:00Z</time>
      </trkpt>
      <trkpt lat="45.7717" lon="-1.21054">
        <ele>63.4</ele>
        <time>2020-01-26T07:21:01Z</time>
      </trkpt>
      <trkpt lat="45.77171" lon="-1.21052">
        <ele>63.4</ele>
        <time>2020-01-26T07:21:02Z</time>
      </trkpt>
      <trkpt lat="45.7717" lon="-1.21052">
        <ele>63.4</ele>
        <time>2020-01-26T07:21:03Z</time>
      </trkpt>
      <trkpt lat="45.77169" lon="-1.21051">
        <ele>63.6</ele>
        <time>2020-01-26T07:21:04Z</time>
      </trkpt>
      <trkpt lat="45.77169" lon="-1.21049">
        <ele>64</ele>
        <time>2020-01-26T07:21:05Z</time>
      </trkpt>
      <trkpt lat="45.77168" lon="-1.21048">
        <ele>64.4</ele>
        <time>2020-01-26T07:21:06Z</time>
      </trkpt>
      <trkpt lat="45.77167" lon="-1.21047">
        <ele>64.6</ele>
        <time>2020-01-26T07:21:07Z</time>
      </trkpt>
      <trkpt lat="45.77166" lon="-1.21045">
        <ele>64.4</ele>
        <time>2020-01-26T07:21:08Z</time>
      </trkpt>
      <trkpt lat="45.77166" lon="-1.21043">
        <ele>64</ele>
        <time>2020-01-26T07:21:09Z</time>
      </trkpt>
      <trkpt lat="45.77165" lon="-1.21041">
        <ele>63.8</ele>
        <time>2020-01-26T07:21:10Z</time>
      </trkpt>
      <trkpt lat="45.77164" lon="-1.21041">
        <ele>63.6</ele>
        <time>2020-01-26T07:21:11Z</time>
      </trkpt>
      <trkpt lat="45.77163" lon="-1.21039">
        <ele>63.8</ele>
        <time>2020-01-26T07:21:12Z</time>
      </trkpt>
      <trkpt lat="45.77161" lon="-1.21037">
        <ele>63.8</ele>
        <time>2020-01-26T07:21:13Z</time>
      </trkpt>
      <trkpt lat="45.77161" lon="-1.21036">
        <ele>63.6</ele>
        <time>2020-01-26T07:21:14Z</time>
      </trkpt>
      <trkpt lat="45.77159" lon="-1.21034">
        <ele>63.2</ele>
        <time>2020-01-26T07:21:15Z</time>
      </trkpt>
      <trkpt lat="45.77158" lon="-1.21032">
        <ele>62.8</ele>
        <time>2020-01-26T07:21:16Z</time>
      </trkpt>
      <trkpt lat="45.77156" lon="-1.2103">
        <ele>62.6</ele>
        <time>2020-01-26T07:21:17Z</time>
      </trkpt>
      <trkpt lat="45.77155" lon="-1.21029">
        <ele>62.4</ele>
        <time>2020-01-26T07:21:18Z</time>
      </trkpt>
      <trkpt lat="45.77153" lon="-1.21027">
        <ele>62.4</ele>
        <time>2020-01-26T07:21:19Z</time>
      </trkpt>
      <trkpt lat="45.77152" lon="-1.21024">
        <ele>62.2</ele>
        <time>2020-01-26T07:21:20Z</time>
      </trkpt>
      <trkpt lat="45.7715" lon="-1.21022">
        <ele>62.2</ele>
        <time>2020-01-26T07:21:21Z</time>
      </trkpt>
      <trkpt lat="45.77148" lon="-1.2102">
        <ele>62.2</ele>
        <time>2020-01-26T07:21:22Z</time>
      </trkpt>
      <trkpt lat="45.77147" lon="-1.21018">
        <ele>62.2</ele>
        <time>2020-01-26T07:21:23Z</time>
      </trkpt>
      <trkpt lat="45.77145" lon="-1.21015">
        <ele>62.6</ele>
        <time>2020-01-26T07:21:24Z</time>
      </trkpt>
      <trkpt lat="45.77142" lon="-1.2101">
        <ele>63.4</ele>
        <time>2020-01-26T07:21:25Z</time>
      </trkpt>
      <trkpt lat="45.77141" lon="-1.21008">
        <ele>63.6</ele>
        <time>2020-01-26T07:21:26Z</time>
      </trkpt>
      <trkpt lat="45.77139" lon="-1.21005">
        <ele>63.6</ele>
        <time>2020-01-26T07:21:27Z</time>
      </trkpt>
      <trkpt lat="45.77137" lon="-1.21002">
        <ele>63.4</ele>
        <time>2020-01-26T07:21:28Z</time>
      </trkpt>
      <trkpt lat="45.77135" lon="-1.20998">
        <ele>63</ele>
        <time>2020-01-26T07:21:29Z</time>
      </trkpt>
      <trkpt lat="45.77134" lon="-1.20995">
        <ele>62.6</ele>
        <time>2020-01-26T07:21:30Z</time>
      </trkpt>
      <trkpt lat="45.77134" lon="-1.20993">
        <ele>62.2</ele>
        <time>2020-01-26T07:21:31Z</time>
      </trkpt>
      <trkpt lat="45.77134" lon="-1.20992">
        <ele>62</ele>
        <time>2020-01-26T07:21:32Z</time>
      </trkpt>
      <trkpt lat="45.77132" lon="-1.20988">
        <ele>62.6</ele>
        <time>2020-01-26T07:21:33Z</time>
      </trkpt>
      <trkpt lat="45.77131" lon="-1.20987">
        <ele>63.2</ele>
        <time>2020-01-26T07:21:34Z</time>
      </trkpt>
      <trkpt lat="45.7713" lon="-1.20986">
        <ele>63.8</ele>
        <time>2020-01-26T07:21:35Z</time>
      </trkpt>
      <trkpt lat="45.77129" lon="-1.20983">
        <ele>64.4</ele>
        <time>2020-01-26T07:21:36Z</time>
      </trkpt>
      <trkpt lat="45.77129" lon="-1.20983">
        <ele>65.4</ele>
        <time>2020-01-26T07:21:37Z</time>
      </trkpt>
      <trkpt lat="45.77128" lon="-1.20983">
        <ele>66</ele>
        <time>2020-01-26T07:21:38Z</time>
      </trkpt>
      <trkpt lat="45.77127" lon="-1.20982">
        <ele>66.8</ele>
        <time>2020-01-26T07:21:39Z</time>
      </trkpt>
      <trkpt lat="45.77126" lon="-1.20982">
        <ele>66.8</ele>
        <time>2020-01-26T07:21:40Z</time>
      </trkpt>
      <trkpt lat="45.77125" lon="-1.2098">
        <ele>66.6</ele>
        <time>2020-01-26T07:21:41Z</time>
      </trkpt>
      <trkpt lat="45.77123" lon="-1.20977">
        <ele>66.2</ele>
        <time>2020-01-26T07:21:42Z</time>
      </trkpt>
      <trkpt lat="45.7712" lon="-1.20972">
        <ele>65.6</ele>
        <time>2020-01-26T07:21:43Z</time>
      </trkpt>
      <trkpt lat="45.77118" lon="-1.20969">
        <ele>65.2</ele>
        <time>2020-01-26T07:21:44Z</time>
      </trkpt>
      <trkpt lat="45.77116" lon="-1.20965">
        <ele>65.4</ele>
        <time>2020-01-26T07:21:45Z</time>
      </trkpt>
      <trkpt lat="45.77114" lon="-1.20962">
        <ele>65.6</ele>
        <time>2020-01-26T07:21:46Z</time>
      </trkpt>
      <trkpt lat="45.77114" lon="-1.20959">
        <ele>65.6</ele>
        <time>2020-01-26T07:21:47Z</time>
      </trkpt>
      <trkpt lat="45.77113" lon="-1.20957">
        <ele>65.8</ele>
        <time>2020-01-26T07:21:48Z</time>
      </trkpt>
      <trkpt lat="45.77112" lon="-1.20955">
        <ele>65.8</ele>
        <time>2020-01-26T07:21:49Z</time>
      </trkpt>
      <trkpt lat="45.77111" lon="-1.20951">
        <ele>65.8</ele>
        <time>2020-01-26T07:21:50Z</time>
      </trkpt>
      <trkpt lat="45.7711" lon="-1.20948">
        <ele>66</ele>
        <time>2020-01-26T07:21:51Z</time>
      </trkpt>
      <trkpt lat="45.77109" lon="-1.20947">
        <ele>66.2</ele>
        <time>2020-01-26T07:21:52Z</time>
      </trkpt>
      <trkpt lat="45.77108" lon="-1.20946">
        <ele>66.6</ele>
        <time>2020-01-26T07:21:53Z</time>
      </trkpt>
      <trkpt lat="45.77108" lon="-1.20944">
        <ele>66.8</ele>
        <time>2020-01-26T07:21:54Z</time>
      </trkpt>
      <trkpt lat="45.77106" lon="-1.20941">
        <ele>66.8</ele>
        <time>2020-01-26T07:21:55Z</time>
      </trkpt>
      <trkpt lat="45.77105" lon="-1.20938">
        <ele>66.8</ele>
        <time>2020-01-26T07:21:56Z</time>
      </trkpt>
      <trkpt lat="45.77104" lon="-1.20935">
        <ele>66.6</ele>
        <time>2020-01-26T07:21:57Z</time>
      </trkpt>
      <trkpt lat="45.77104" lon="-1.20932">
        <ele>66.6</ele>
        <time>2020-01-26T07:21:58Z</time>
      </trkpt>
      <trkpt lat="45.77103" lon="-1.20929">
        <ele>66.8</ele>
        <time>2020-01-26T07:21:59Z</time>
      </trkpt>
      <trkpt lat="45.77103" lon="-1.20927">
        <ele>67.2</ele>
        <time>2020-01-26T07:22:00Z</time>
      </trkpt>
      <trkpt lat="45.77101" lon="-1.20926">
        <ele>67.6</ele>
        <time>2020-01-26T07:22:01Z</time>
      </trkpt>
      <trkpt lat="45.77099" lon="-1.20925">
        <ele>67.8</ele>
        <time>2020-01-26T07:22:02Z</time>
      </trkpt>
      <trkpt lat="45.77097" lon="-1.20925">
        <ele>67.2</ele>
        <time>2020-01-26T07:22:03Z</time>
      </trkpt>
      <trkpt lat="45.77094" lon="-1.20925">
        <ele>66</ele>
        <time>2020-01-26T07:22:04Z</time>
      </trkpt>
      <trkpt lat="45.77093" lon="-1.20925">
        <ele>65.6</ele>
        <time>2020-01-26T07:22:05Z</time>
      </trkpt>
      <trkpt lat="45.77091" lon="-1.20926">
        <ele>65.2</ele>
        <time>2020-01-26T07:22:06Z</time>
      </trkpt>
      <trkpt lat="45.77089" lon="-1.20925">
        <ele>65</ele>
        <time>2020-01-26T07:22:07Z</time>
      </trkpt>
      <trkpt lat="45.77089" lon="-1.20924">
        <ele>64.6</ele>
        <time>2020-01-26T07:22:08Z</time>
      </trkpt>
      <trkpt lat="45.77087" lon="-1.20924">
        <ele>63.8</ele>
        <time>2020-01-26T07:22:09Z</time>
      </trkpt>
      <trkpt lat="45.77085" lon="-1.20924">
        <ele>63.4</ele>
        <time>2020-01-26T07:22:10Z</time>
      </trkpt>
      <trkpt lat="45.77082" lon="-1.20923">
        <ele>63.4</ele>
        <time>2020-01-26T07:22:11Z</time>
      </trkpt>
      <trkpt lat="45.7708" lon="-1.20923">
        <ele>63.4</ele>
        <time>2020-01-26T07:22:12Z</time>
      </trkpt>
      <trkpt lat="45.77077" lon="-1.20924">
        <ele>64</ele>
        <time>2020-01-26T07:22:13Z</time>
      </trkpt>
      <trkpt lat="45.77074" lon="-1.20925">
        <ele>64.2</ele>
        <time>2020-01-26T07:22:14Z</time>
      </trkpt>
      <trkpt lat="45.77073" lon="-1.20925">
        <ele>64.4</ele>
        <time>2020-01-26T07:22:15Z</time>
      </trkpt>
      <trkpt lat="45.7707" lon="-1.20926">
        <ele>64</ele>
        <time>2020-01-26T07:22:16Z</time>
      </trkpt>
      <trkpt lat="45.77067" lon="-1.20927">
        <ele>63.8</ele>
        <time>2020-01-26T07:22:17Z</time>
      </trkpt>
      <trkpt lat="45.77064" lon="-1.20928">
        <ele>63.6</ele>
        <time>2020-01-26T07:22:18Z</time>
      </trkpt>
      <trkpt lat="45.77062" lon="-1.20929">
        <ele>63.4</ele>
        <time>2020-01-26T07:22:19Z</time>
      </trkpt>
      <trkpt lat="45.7706" lon="-1.2093">
        <ele>63</ele>
        <time>2020-01-26T07:22:20Z</time>
      </trkpt>
      <trkpt lat="45.77058" lon="-1.20929">
        <ele>63</ele>
        <time>2020-01-26T07:22:21Z</time>
      </trkpt>
      <trkpt lat="45.77056" lon="-1.20929">
        <ele>63</ele>
        <time>2020-01-26T07:22:22Z</time>
      </trkpt>
      <trkpt lat="45.77053" lon="-1.20927">
        <ele>63.4</ele>
        <time>2020-01-26T07:22:23Z</time>
      </trkpt>
      <trkpt lat="45.77051" lon="-1.20926">
        <ele>63.8</ele>
        <time>2020-01-26T07:22:24Z</time>
      </trkpt>
      <trkpt lat="45.77049" lon="-1.20925">
        <ele>63.8</ele>
        <time>2020-01-26T07:22:25Z</time>
      </trkpt>
      <trkpt lat="45.77048" lon="-1.20925">
        <ele>63.8</ele>
        <time>2020-01-26T07:22:26Z</time>
      </trkpt>
      <trkpt lat="45.77046" lon="-1.20925">
        <ele>64</ele>
        <time>2020-01-26T07:22:27Z</time>
      </trkpt>
      <trkpt lat="45.77045" lon="-1.20924">
        <ele>64.2</ele>
        <time>2020-01-26T07:22:28Z</time>
      </trkpt>
      <trkpt lat="45.77043" lon="-1.20923">
        <ele>64.2</ele>
        <time>2020-01-26T07:22:29Z</time>
      </trkpt>
      <trkpt lat="45.77041" lon="-1.20923">
        <ele>64.2</ele>
        <time>2020-01-26T07:22:30Z</time>
      </trkpt>
      <trkpt lat="45.7704" lon="-1.20923">
        <ele>64.4</ele>
        <time>2020-01-26T07:22:31Z</time>
      </trkpt>
      <trkpt lat="45.77038" lon="-1.20923">
        <ele>64.8</ele>
        <time>2020-01-26T07:22:32Z</time>
      </trkpt>
      <trkpt lat="45.77037" lon="-1.20924">
        <ele>65.4</ele>
        <time>2020-01-26T07:22:33Z</time>
      </trkpt>
      <trkpt lat="45.77034" lon="-1.20924">
        <ele>65.4</ele>
        <time>2020-01-26T07:22:34Z</time>
      </trkpt>
      <trkpt lat="45.77032" lon="-1.20925">
        <ele>65.4</ele>
        <time>2020-01-26T07:22:35Z</time>
      </trkpt>
      <trkpt lat="45.77029" lon="-1.20925">
        <ele>65.2</ele>
        <time>2020-01-26T07:22:36Z</time>
      </trkpt>
      <trkpt lat="45.77026" lon="-1.20925">
        <ele>65.4</ele>
        <time>2020-01-26T07:22:37Z</time>
      </trkpt>
      <trkpt lat="45.77023" lon="-1.20925">
        <ele>65.6</ele>
        <time>2020-01-26T07:22:38Z</time>
      </trkpt>
      <trkpt lat="45.7702" lon="-1.20924">
        <ele>65.6</ele>
        <time>2020-01-26T07:22:39Z</time>
      </trkpt>
      <trkpt lat="45.77021" lon="-1.20919">
        <ele>65.6</ele>
        <time>2020-01-26T07:22:40Z</time>
      </trkpt>
      <trkpt lat="45.77019" lon="-1.20917">
        <ele>66</ele>
        <time>2020-01-26T07:22:41Z</time>
      </trkpt>
      <trkpt lat="45.77018" lon="-1.20915">
        <ele>66.2</ele>
        <time>2020-01-26T07:22:42Z</time>
      </trkpt>
      <trkpt lat="45.77015" lon="-1.20913">
        <ele>66.4</ele>
        <time>2020-01-26T07:22:43Z</time>
      </trkpt>
      <trkpt lat="45.77012" lon="-1.20911">
        <ele>66.6</ele>
        <time>2020-01-26T07:22:44Z</time>
      </trkpt>
      <trkpt lat="45.7701" lon="-1.2091">
        <ele>66.6</ele>
        <time>2020-01-26T07:22:45Z</time>
      </trkpt>
      <trkpt lat="45.77008" lon="-1.20908">
        <ele>67</ele>
        <time>2020-01-26T07:22:46Z</time>
      </trkpt>
      <trkpt lat="45.77005" lon="-1.20907">
        <ele>66.4</ele>
        <time>2020-01-26T07:22:47Z</time>
      </trkpt>
      <trkpt lat="45.77001" lon="-1.20905">
        <ele>65.4</ele>
        <time>2020-01-26T07:22:48Z</time>
      </trkpt>
      <trkpt lat="45.76996" lon="-1.20905">
        <ele>64.6</ele>
        <time>2020-01-26T07:22:49Z</time>
      </trkpt>
      <trkpt lat="45.76991" lon="-1.20902">
        <ele>64.2</ele>
        <time>2020-01-26T07:22:50Z</time>
      </trkpt>
      <trkpt lat="45.76987" lon="-1.20899">
        <ele>63.6</ele>
        <time>2020-01-26T07:22:51Z</time>
      </trkpt>
      <trkpt lat="45.76986" lon="-1.20899">
        <ele>63.4</ele>
        <time>2020-01-26T07:22:52Z</time>
      </trkpt>
      <trkpt lat="45.76986" lon="-1.20899">
        <ele>63.2</ele>
        <time>2020-01-26T07:22:53Z</time>
      </trkpt>
      <trkpt lat="45.76984" lon="-1.20897">
        <ele>63.4</ele>
        <time>2020-01-26T07:22:54Z</time>
      </trkpt>
      <trkpt lat="45.76983" lon="-1.20895">
        <ele>63.6</ele>
        <time>2020-01-26T07:22:55Z</time>
      </trkpt>
      <trkpt lat="45.76981" lon="-1.20893">
        <ele>64</ele>
        <time>2020-01-26T07:22:56Z</time>
      </trkpt>
      <trkpt lat="45.76979" lon="-1.20891">
        <ele>64.2</ele>
        <time>2020-01-26T07:22:57Z</time>
      </trkpt>
      <trkpt lat="45.76978" lon="-1.2089">
        <ele>64.6</ele>
        <time>2020-01-26T07:22:58Z</time>
      </trkpt>
      <trkpt lat="45.76977" lon="-1.2089">
        <ele>65</ele>
        <time>2020-01-26T07:22:59Z</time>
      </trkpt>
      <trkpt lat="45.76977" lon="-1.20892">
        <ele>64.4</ele>
        <time>2020-01-26T07:23:00Z</time>
      </trkpt>
      <trkpt lat="45.76976" lon="-1.20891">
        <ele>64</ele>
        <time>2020-01-26T07:23:01Z</time>
      </trkpt>
      <trkpt lat="45.76976" lon="-1.2089">
        <ele>63.8</ele>
        <time>2020-01-26T07:23:02Z</time>
      </trkpt>
      <trkpt lat="45.76974" lon="-1.20891">
        <ele>64</ele>
        <time>2020-01-26T07:23:03Z</time>
      </trkpt>
      <trkpt lat="45.76973" lon="-1.20893">
        <ele>64.2</ele>
        <time>2020-01-26T07:23:04Z</time>
      </trkpt>
      <trkpt lat="45.76972" lon="-1.20894">
        <ele>64.6</ele>
        <time>2020-01-26T07:23:05Z</time>
      </trkpt>
      <trkpt lat="45.76972" lon="-1.20895">
        <ele>64.6</ele>
        <time>2020-01-26T07:23:06Z</time>
      </trkpt>
      <trkpt lat="45.76971" lon="-1.20896">
        <ele>64.4</ele>
        <time>2020-01-26T07:23:07Z</time>
      </trkpt>
      <trkpt lat="45.76969" lon="-1.20895">
        <ele>64</ele>
        <time>2020-01-26T07:23:08Z</time>
      </trkpt>
      <trkpt lat="45.76968" lon="-1.20895">
        <ele>63.2</ele>
        <time>2020-01-26T07:23:09Z</time>
      </trkpt>
      <trkpt lat="45.76966" lon="-1.20894">
        <ele>62.8</ele>
        <time>2020-01-26T07:23:10Z</time>
      </trkpt>
      <trkpt lat="45.76965" lon="-1.20893">
        <ele>62.6</ele>
        <time>2020-01-26T07:23:11Z</time>
      </trkpt>
      <trkpt lat="45.76964" lon="-1.20891">
        <ele>62.6</ele>
        <time>2020-01-26T07:23:12Z</time>
      </trkpt>
      <trkpt lat="45.76963" lon="-1.20888">
        <ele>62.6</ele>
        <time>2020-01-26T07:23:13Z</time>
      </trkpt>
      <trkpt lat="45.76962" lon="-1.20888">
        <ele>62.6</ele>
        <time>2020-01-26T07:23:14Z</time>
      </trkpt>
      <trkpt lat="45.76961" lon="-1.20887">
        <ele>62.2</ele>
        <time>2020-01-26T07:23:15Z</time>
      </trkpt>
      <trkpt lat="45.76958" lon="-1.20885">
        <ele>61.4</ele>
        <time>2020-01-26T07:23:16Z</time>
      </trkpt>
      <trkpt lat="45.76956" lon="-1.20883">
        <ele>60.8</ele>
        <time>2020-01-26T07:23:17Z</time>
      </trkpt>
      <trkpt lat="45.76955" lon="-1.20881">
        <ele>60.2</ele>
        <time>2020-01-26T07:23:18Z</time>
      </trkpt>
      <trkpt lat="45.76955" lon="-1.2088">
        <ele>59.6</ele>
        <time>2020-01-26T07:23:19Z</time>
      </trkpt>
      <trkpt lat="45.76954" lon="-1.20877">
        <ele>59</ele>
        <time>2020-01-26T07:23:20Z</time>
      </trkpt>
      <trkpt lat="45.76951" lon="-1.20874">
        <ele>59</ele>
        <time>2020-01-26T07:23:21Z</time>
      </trkpt>
      <trkpt lat="45.7695" lon="-1.20872">
        <ele>58.4</ele>
        <time>2020-01-26T07:23:22Z</time>
      </trkpt>
      <trkpt lat="45.76948" lon="-1.20871">
        <ele>58</ele>
        <time>2020-01-26T07:23:23Z</time>
      </trkpt>
      <trkpt lat="45.76946" lon="-1.20868">
        <ele>57.6</ele>
        <time>2020-01-26T07:23:24Z</time>
      </trkpt>
      <trkpt lat="45.76944" lon="-1.20866">
        <ele>57.6</ele>
        <time>2020-01-26T07:23:25Z</time>
      </trkpt>
      <trkpt lat="45.76943" lon="-1.20863">
        <ele>57.6</ele>
        <time>2020-01-26T07:23:26Z</time>
      </trkpt>
      <trkpt lat="45.76942" lon="-1.20862">
        <ele>57.4</ele>
        <time>2020-01-26T07:23:27Z</time>
      </trkpt>
      <trkpt lat="45.76941" lon="-1.2086">
        <ele>57.2</ele>
        <time>2020-01-26T07:23:28Z</time>
      </trkpt>
      <trkpt lat="45.7694" lon="-1.20859">
        <ele>57.2</ele>
        <time>2020-01-26T07:23:29Z</time>
      </trkpt>
      <trkpt lat="45.76938" lon="-1.20857">
        <ele>57.4</ele>
        <time>2020-01-26T07:23:30Z</time>
      </trkpt>
      <trkpt lat="45.76937" lon="-1.20857">
        <ele>57.8</ele>
        <time>2020-01-26T07:23:31Z</time>
      </trkpt>
      <trkpt lat="45.76936" lon="-1.20858">
        <ele>58.2</ele>
        <time>2020-01-26T07:23:32Z</time>
      </trkpt>
      <trkpt lat="45.76934" lon="-1.20858">
        <ele>58.6</ele>
        <time>2020-01-26T07:23:33Z</time>
      </trkpt>
      <trkpt lat="45.76933" lon="-1.20859">
        <ele>59</ele>
        <time>2020-01-26T07:23:34Z</time>
      </trkpt>
      <trkpt lat="45.76931" lon="-1.20859">
        <ele>59.2</ele>
        <time>2020-01-26T07:23:35Z</time>
      </trkpt>
      <trkpt lat="45.76929" lon="-1.20859">
        <ele>59.8</ele>
        <time>2020-01-26T07:23:36Z</time>
      </trkpt>
      <trkpt lat="45.76927" lon="-1.20858">
        <ele>60.2</ele>
        <time>2020-01-26T07:23:37Z</time>
      </trkpt>
      <trkpt lat="45.76925" lon="-1.20858">
        <ele>60.8</ele>
        <time>2020-01-26T07:23:38Z</time>
      </trkpt>
      <trkpt lat="45.76923" lon="-1.20858">
        <ele>61.2</ele>
        <time>2020-01-26T07:23:39Z</time>
      </trkpt>
      <trkpt lat="45.76921" lon="-1.2086">
        <ele>61.2</ele>
        <time>2020-01-26T07:23:40Z</time>
      </trkpt>
      <trkpt lat="45.7692" lon="-1.20858">
        <ele>60.6</ele>
        <time>2020-01-26T07:23:41Z</time>
      </trkpt>
      <trkpt lat="45.76917" lon="-1.20856">
        <ele>60</ele>
        <time>2020-01-26T07:23:42Z</time>
      </trkpt>
      <trkpt lat="45.76916" lon="-1.20851">
        <ele>59.8</ele>
        <time>2020-01-26T07:23:43Z</time>
      </trkpt>
      <trkpt lat="45.76915" lon="-1.20847">
        <ele>59.6</ele>
        <time>2020-01-26T07:23:44Z</time>
      </trkpt>
      <trkpt lat="45.76914" lon="-1.20842">
        <ele>60</ele>
        <time>2020-01-26T07:23:45Z</time>
      </trkpt>
      <trkpt lat="45.76914" lon="-1.20836">
        <ele>60.6</ele>
        <time>2020-01-26T07:23:46Z</time>
      </trkpt>
      <trkpt lat="45.76913" lon="-1.2083">
        <ele>61.4</ele>
        <time>2020-01-26T07:23:47Z</time>
      </trkpt>
      <trkpt lat="45.76913" lon="-1.20825">
        <ele>61.6</ele>
        <time>2020-01-26T07:23:48Z</time>
      </trkpt>
      <trkpt lat="45.76913" lon="-1.2082">
        <ele>62</ele>
        <time>2020-01-26T07:23:49Z</time>
      </trkpt>
      <trkpt lat="45.76913" lon="-1.20816">
        <ele>62.6</ele>
        <time>2020-01-26T07:23:50Z</time>
      </trkpt>
      <trkpt lat="45.76913" lon="-1.20809">
        <ele>63.2</ele>
        <time>2020-01-26T07:23:51Z</time>
      </trkpt>
      <trkpt lat="45.76911" lon="-1.208">
        <ele>64.2</ele>
        <time>2020-01-26T07:23:52Z</time>
      </trkpt>
      <trkpt lat="45.76911" lon="-1.20792">
        <ele>64.8</ele>
        <time>2020-01-26T07:23:53Z</time>
      </trkpt>
      <trkpt lat="45.76911" lon="-1.20785">
        <ele>65.6</ele>
        <time>2020-01-26T07:23:54Z</time>
      </trkpt>
      <trkpt lat="45.7691" lon="-1.20781">
        <ele>67.2</ele>
        <time>2020-01-26T07:23:55Z</time>
      </trkpt>
      <trkpt lat="45.7691" lon="-1.20777">
        <ele>68</ele>
        <time>2020-01-26T07:23:56Z</time>
      </trkpt>
      <trkpt lat="45.76909" lon="-1.20773">
        <ele>68.8</ele>
        <time>2020-01-26T07:23:57Z</time>
      </trkpt>
      <trkpt lat="45.7691" lon="-1.20771">
        <ele>69.4</ele>
        <time>2020-01-26T07:23:58Z</time>
      </trkpt>
      <trkpt lat="45.7691" lon="-1.20768">
        <ele>70.2</ele>
        <time>2020-01-26T07:23:59Z</time>
      </trkpt>
      <trkpt lat="45.76909" lon="-1.20765">
        <ele>71.4</ele>
        <time>2020-01-26T07:24:00Z</time>
      </trkpt>
      <trkpt lat="45.7691" lon="-1.20762">
        <ele>72.4</ele>
        <time>2020-01-26T07:24:01Z</time>
      </trkpt>
      <trkpt lat="45.7691" lon="-1.20762">
        <ele>73.2</ele>
        <time>2020-01-26T07:24:02Z</time>
      </trkpt>
      <trkpt lat="45.7691" lon="-1.20758">
        <ele>73.6</ele>
        <time>2020-01-26T07:24:03Z</time>
      </trkpt>
      <trkpt lat="45.76909" lon="-1.20751">
        <ele>74.4</ele>
        <time>2020-01-26T07:24:04Z</time>
      </trkpt>
      <trkpt lat="45.76908" lon="-1.20745">
        <ele>75</ele>
        <time>2020-01-26T07:24:05Z</time>
      </trkpt>
      <trkpt lat="45.76906" lon="-1.20741">
        <ele>76.2</ele>
        <time>2020-01-26T07:24:06Z</time>
      </trkpt>
      <trkpt lat="45.76905" lon="-1.20737">
        <ele>77.4</ele>
        <time>2020-01-26T07:24:07Z</time>
      </trkpt>
      <trkpt lat="45.76904" lon="-1.20733">
        <ele>78.4</ele>
        <time>2020-01-26T07:24:08Z</time>
      </trkpt>
      <trkpt lat="45.76902" lon="-1.20728">
        <ele>79</ele>
        <time>2020-01-26T07:24:09Z</time>
      </trkpt>
      <trkpt lat="45.76901" lon="-1.20724">
        <ele>79.6</ele>
        <time>2020-01-26T07:24:10Z</time>
      </trkpt>
      <trkpt lat="45.76901" lon="-1.2072">
        <ele>80.2</ele>
        <time>2020-01-26T07:24:11Z</time>
      </trkpt>
      <trkpt lat="45.76901" lon="-1.20716">
        <ele>80.4</ele>
        <time>2020-01-26T07:24:12Z</time>
      </trkpt>
      <trkpt lat="45.769" lon="-1.20709">
        <ele>81.2</ele>
        <time>2020-01-26T07:24:13Z</time>
      </trkpt>
      <trkpt lat="45.76898" lon="-1.20704">
        <ele>82</ele>
        <time>2020-01-26T07:24:14Z</time>
      </trkpt>
      <trkpt lat="45.76897" lon="-1.207">
        <ele>83</ele>
        <time>2020-01-26T07:24:15Z</time>
      </trkpt>
      <trkpt lat="45.76895" lon="-1.20694">
        <ele>84</ele>
        <time>2020-01-26T07:24:16Z</time>
      </trkpt>
      <trkpt lat="45.76894" lon="-1.20688">
        <ele>85</ele>
        <time>2020-01-26T07:24:17Z</time>
      </trkpt>
      <trkpt lat="45.76893" lon="-1.20684">
        <ele>85.6</ele>
        <time>2020-01-26T07:24:18Z</time>
      </trkpt>
      <trkpt lat="45.76893" lon="-1.20678">
        <ele>86.2</ele>
        <time>2020-01-26T07:24:19Z</time>
      </trkpt>
      <trkpt lat="45.76893" lon="-1.20673">
        <ele>86.4</ele>
        <time>2020-01-26T07:24:20Z</time>
      </trkpt>
      <trkpt lat="45.76894" lon="-1.20668">
        <ele>87</ele>
        <time>2020-01-26T07:24:21Z</time>
      </trkpt>
      <trkpt lat="45.76893" lon="-1.20664">
        <ele>87.8</ele>
        <time>2020-01-26T07:24:22Z</time>
      </trkpt>
      <trkpt lat="45.76893" lon="-1.20658">
        <ele>88.4</ele>
        <time>2020-01-26T07:24:23Z</time>
      </trkpt>
      <trkpt lat="45.76892" lon="-1.20653">
        <ele>87.8</ele>
        <time>2020-01-26T07:24:24Z</time>
      </trkpt>
      <trkpt lat="45.76891" lon="-1.20648">
        <ele>87.2</ele>
        <time>2020-01-26T07:24:25Z</time>
      </trkpt>
      <trkpt lat="45.7689" lon="-1.20643">
        <ele>87.4</ele>
        <time>2020-01-26T07:24:26Z</time>
      </trkpt>
      <trkpt lat="45.76889" lon="-1.20638">
        <ele>87.2</ele>
        <time>2020-01-26T07:24:27Z</time>
      </trkpt>
      <trkpt lat="45.76888" lon="-1.20633">
        <ele>87.2</ele>
        <time>2020-01-26T07:24:28Z</time>
      </trkpt>
      <trkpt lat="45.76887" lon="-1.2063">
        <ele>87.2</ele>
        <time>2020-01-26T07:24:29Z</time>
      </trkpt>
      <trkpt lat="45.76886" lon="-1.20625">
        <ele>87.2</ele>
        <time>2020-01-26T07:24:30Z</time>
      </trkpt>
      <trkpt lat="45.76886" lon="-1.20621">
        <ele>86.8</ele>
        <time>2020-01-26T07:24:31Z</time>
      </trkpt>
      <trkpt lat="45.76885" lon="-1.20616">
        <ele>87</ele>
        <time>2020-01-26T07:24:32Z</time>
      </trkpt>
      <trkpt lat="45.76885" lon="-1.20612">
        <ele>87.4</ele>
        <time>2020-01-26T07:24:33Z</time>
      </trkpt>
      <trkpt lat="45.76884" lon="-1.20609">
        <ele>87.2</ele>
        <time>2020-01-26T07:24:34Z</time>
      </trkpt>
      <trkpt lat="45.76884" lon="-1.20604">
        <ele>86.8</ele>
        <time>2020-01-26T07:24:35Z</time>
      </trkpt>
      <trkpt lat="45.76884" lon="-1.206">
        <ele>86.2</ele>
        <time>2020-01-26T07:24:36Z</time>
      </trkpt>
      <trkpt lat="45.76883" lon="-1.20596">
        <ele>85.4</ele>
        <time>2020-01-26T07:24:37Z</time>
      </trkpt>
      <trkpt lat="45.76883" lon="-1.20592">
        <ele>85</ele>
        <time>2020-01-26T07:24:38Z</time>
      </trkpt>
      <trkpt lat="45.76883" lon="-1.20588">
        <ele>84.8</ele>
        <time>2020-01-26T07:24:39Z</time>
      </trkpt>
      <trkpt lat="45.76883" lon="-1.20586">
        <ele>84.4</ele>
        <time>2020-01-26T07:24:40Z</time>
      </trkpt>
      <trkpt lat="45.76882" lon="-1.20582">
        <ele>84.4</ele>
        <time>2020-01-26T07:24:41Z</time>
      </trkpt>
      <trkpt lat="45.76881" lon="-1.20576">
        <ele>85</ele>
        <time>2020-01-26T07:24:42Z</time>
      </trkpt>
      <trkpt lat="45.76881" lon="-1.20575">
        <ele>85.2</ele>
        <time>2020-01-26T07:24:43Z</time>
      </trkpt>
      <trkpt lat="45.7688" lon="-1.20572">
        <ele>85.4</ele>
        <time>2020-01-26T07:24:44Z</time>
      </trkpt>
      <trkpt lat="45.76878" lon="-1.20569">
        <ele>86</ele>
        <time>2020-01-26T07:24:45Z</time>
      </trkpt>
      <trkpt lat="45.76877" lon="-1.20566">
        <ele>86.8</ele>
        <time>2020-01-26T07:24:46Z</time>
      </trkpt>
      <trkpt lat="45.76876" lon="-1.20562">
        <ele>87.6</ele>
        <time>2020-01-26T07:24:47Z</time>
      </trkpt>
      <trkpt lat="45.76874" lon="-1.20558">
        <ele>88.4</ele>
        <time>2020-01-26T07:24:48Z</time>
      </trkpt>
      <trkpt lat="45.76872" lon="-1.20553">
        <ele>88.8</ele>
        <time>2020-01-26T07:24:49Z</time>
      </trkpt>
      <trkpt lat="45.76873" lon="-1.20551">
        <ele>89.4</ele>
        <time>2020-01-26T07:24:50Z</time>
      </trkpt>
      <trkpt lat="45.76873" lon="-1.20548">
        <ele>89.8</ele>
        <time>2020-01-26T07:24:51Z</time>
      </trkpt>
      <trkpt lat="45.76873" lon="-1.20545">
        <ele>90.2</ele>
        <time>2020-01-26T07:24:52Z</time>
      </trkpt>
      <trkpt lat="45.76872" lon="-1.20542">
        <ele>90.2</ele>
        <time>2020-01-26T07:24:53Z</time>
      </trkpt>
      <trkpt lat="45.7687" lon="-1.20537">
        <ele>89.8</ele>
        <time>2020-01-26T07:24:54Z</time>
      </trkpt>
      <trkpt lat="45.76867" lon="-1.20535">
        <ele>89.6</ele>
        <time>2020-01-26T07:24:55Z</time>
      </trkpt>
      <trkpt lat="45.76865" lon="-1.2053">
        <ele>89.4</ele>
        <time>2020-01-26T07:24:56Z</time>
      </trkpt>
      <trkpt lat="45.76864" lon="-1.20527">
        <ele>89.4</ele>
        <time>2020-01-26T07:24:57Z</time>
      </trkpt>
      <trkpt lat="45.76862" lon="-1.20524">
        <ele>89.4</ele>
        <time>2020-01-26T07:24:58Z</time>
      </trkpt>
      <trkpt lat="45.7686" lon="-1.20519">
        <ele>89.4</ele>
        <time>2020-01-26T07:24:59Z</time>
      </trkpt>
      <trkpt lat="45.76857" lon="-1.20512">
        <ele>89.6</ele>
        <time>2020-01-26T07:25:00Z</time>
      </trkpt>
      <trkpt lat="45.76857" lon="-1.20506">
        <ele>90</ele>
        <time>2020-01-26T07:25:01Z</time>
      </trkpt>
      <trkpt lat="45.76856" lon="-1.20504">
        <ele>91</ele>
        <time>2020-01-26T07:25:02Z</time>
      </trkpt>
      <trkpt lat="45.76855" lon="-1.20501">
        <ele>92</ele>
        <time>2020-01-26T07:25:03Z</time>
      </trkpt>
      <trkpt lat="45.76855" lon="-1.20498">
        <ele>92.6</ele>
        <time>2020-01-26T07:25:04Z</time>
      </trkpt>
      <trkpt lat="45.76854" lon="-1.20494">
        <ele>92.8</ele>
        <time>2020-01-26T07:25:05Z</time>
      </trkpt>
      <trkpt lat="45.76852" lon="-1.20491">
        <ele>92.8</ele>
        <time>2020-01-26T07:25:06Z</time>
      </trkpt>
      <trkpt lat="45.76851" lon="-1.20488">
        <ele>92.6</ele>
        <time>2020-01-26T07:25:07Z</time>
      </trkpt>
      <trkpt lat="45.7685" lon="-1.20484">
        <ele>92</ele>
        <time>2020-01-26T07:25:08Z</time>
      </trkpt>
      <trkpt lat="45.7685" lon="-1.2048">
        <ele>91.2</ele>
        <time>2020-01-26T07:25:09Z</time>
      </trkpt>
      <trkpt lat="45.76849" lon="-1.20476">
        <ele>90.6</ele>
        <time>2020-01-26T07:25:10Z</time>
      </trkpt>
      <trkpt lat="45.76848" lon="-1.20472">
        <ele>90.2</ele>
        <time>2020-01-26T07:25:11Z</time>
      </trkpt>
      <trkpt lat="45.76847" lon="-1.20469">
        <ele>90.2</ele>
        <time>2020-01-26T07:25:12Z</time>
      </trkpt>
      <trkpt lat="45.76847" lon="-1.20467">
        <ele>90</ele>
        <time>2020-01-26T07:25:13Z</time>
      </trkpt>
      <trkpt lat="45.76848" lon="-1.20466">
        <ele>89.6</ele>
        <time>2020-01-26T07:25:14Z</time>
      </trkpt>
      <trkpt lat="45.76848" lon="-1.20466">
        <ele>89.2</ele>
        <time>2020-01-26T07:25:15Z</time>
      </trkpt>
      <trkpt lat="45.76849" lon="-1.20466">
        <ele>88.8</ele>
        <time>2020-01-26T07:25:16Z</time>
      </trkpt>
      <trkpt lat="45.76849" lon="-1.20465">
        <ele>88.6</ele>
        <time>2020-01-26T07:25:17Z</time>
      </trkpt>
      <trkpt lat="45.7685" lon="-1.20465">
        <ele>88.6</ele>
        <time>2020-01-26T07:25:18Z</time>
      </trkpt>
      <trkpt lat="45.76851" lon="-1.20464">
        <ele>89</ele>
        <time>2020-01-26T07:25:19Z</time>
      </trkpt>
      <trkpt lat="45.76851" lon="-1.20463">
        <ele>89.2</ele>
        <time>2020-01-26T07:25:20Z</time>
      </trkpt>
      <trkpt lat="45.76852" lon="-1.20462">
        <ele>89.4</ele>
        <time>2020-01-26T07:25:21Z</time>
      </trkpt>
      <trkpt lat="45.76852" lon="-1.2046">
        <ele>89.6</ele>
        <time>2020-01-26T07:25:22Z</time>
      </trkpt>
      <trkpt lat="45.76852" lon="-1.20458">
        <ele>90</ele>
        <time>2020-01-26T07:25:23Z</time>
      </trkpt>
      <trkpt lat="45.76852" lon="-1.20457">
        <ele>90.2</ele>
        <time>2020-01-26T07:25:24Z</time>
      </trkpt>
      <trkpt lat="45.76851" lon="-1.20452">
        <ele>90.2</ele>
        <time>2020-01-26T07:25:25Z</time>
      </trkpt>
      <trkpt lat="45.76849" lon="-1.20447">
        <ele>90</ele>
        <time>2020-01-26T07:25:26Z</time>
      </trkpt>
      <trkpt lat="45.76847" lon="-1.20443">
        <ele>90</ele>
        <time>2020-01-26T07:25:27Z</time>
      </trkpt>
      <trkpt lat="45.76845" lon="-1.20438">
        <ele>90</ele>
        <time>2020-01-26T07:25:28Z</time>
      </trkpt>
      <trkpt lat="45.76843" lon="-1.20432">
        <ele>89.8</ele>
        <time>2020-01-26T07:25:29Z</time>
      </trkpt>
      <trkpt lat="45.76841" lon="-1.20425">
        <ele>89.2</ele>
        <time>2020-01-26T07:25:30Z</time>
      </trkpt>
      <trkpt lat="45.76839" lon="-1.20419">
        <ele>89</ele>
        <time>2020-01-26T07:25:31Z</time>
      </trkpt>
      <trkpt lat="45.76836" lon="-1.20413">
        <ele>88.4</ele>
        <time>2020-01-26T07:25:32Z</time>
      </trkpt>
      <trkpt lat="45.76836" lon="-1.20411">
        <ele>88.4</ele>
        <time>2020-01-26T07:25:33Z</time>
      </trkpt>
      <trkpt lat="45.76834" lon="-1.2041">
        <ele>88.2</ele>
        <time>2020-01-26T07:25:34Z</time>
      </trkpt>
      <trkpt lat="45.76834" lon="-1.20408">
        <ele>88.2</ele>
        <time>2020-01-26T07:25:35Z</time>
      </trkpt>
      <trkpt lat="45.76834" lon="-1.20407">
        <ele>88.2</ele>
        <time>2020-01-26T07:25:36Z</time>
      </trkpt>
      <trkpt lat="45.76834" lon="-1.20408">
        <ele>88.2</ele>
        <time>2020-01-26T07:25:37Z</time>
      </trkpt>
      <trkpt lat="45.76834" lon="-1.20407">
        <ele>88.2</ele>
        <time>2020-01-26T07:25:38Z</time>
      </trkpt>
      <trkpt lat="45.76834" lon="-1.20407">
        <ele>88.4</ele>
        <time>2020-01-26T07:25:39Z</time>
      </trkpt>
      <trkpt lat="45.76834" lon="-1.20407">
        <ele>88.6</ele>
        <time>2020-01-26T07:25:40Z</time>
      </trkpt>
      <trkpt lat="45.76834" lon="-1.20407">
        <ele>88.6</ele>
        <time>2020-01-26T07:25:41Z</time>
      </trkpt>
      <trkpt lat="45.76834" lon="-1.20407">
        <ele>88.4</ele>
        <time>2020-01-26T07:25:42Z</time>
      </trkpt>
      <trkpt lat="45.76834" lon="-1.20407">
        <ele>88.4</ele>
        <time>2020-01-26T07:25:43Z</time>
      </trkpt>
      <trkpt lat="45.76834" lon="-1.20407">
        <ele>88.2</ele>
        <time>2020-01-26T07:25:44Z</time>
      </trkpt>
      <trkpt lat="45.76834" lon="-1.20407">
        <ele>88.4</ele>
        <time>2020-01-26T07:25:45Z</time>
      </trkpt>
      <trkpt lat="45.76834" lon="-1.20407">
        <ele>88.6</ele>
        <time>2020-01-26T07:25:46Z</time>
      </trkpt>
      <trkpt lat="45.76834" lon="-1.20407">
        <ele>88.6</ele>
        <time>2020-01-26T07:25:47Z</time>
      </trkpt>
      <trkpt lat="45.76834" lon="-1.20407">
        <ele>88.8</ele>
        <time>2020-01-26T07:25:48Z</time>
      </trkpt>
      <trkpt lat="45.76834" lon="-1.20407">
        <ele>88.8</ele>
        <time>2020-01-26T07:25:49Z</time>
      </trkpt>
      <trkpt lat="45.76834" lon="-1.20407">
        <ele>88.8</ele>
        <time>2020-01-26T07:25:50Z</time>
      </trkpt>
      <trkpt lat="45.76834" lon="-1.20407">
        <ele>89</ele>
        <time>2020-01-26T07:25:51Z</time>
      </trkpt>
      <trkpt lat="45.76834" lon="-1.20407">
        <ele>89</ele>
        <time>2020-01-26T07:25:52Z</time>
      </trkpt>
      <trkpt lat="45.76834" lon="-1.20407">
        <ele>89</ele>
        <time>2020-01-26T07:25:53Z</time>
      </trkpt>
      <trkpt lat="45.76834" lon="-1.20406">
        <ele>89</ele>
        <time>2020-01-26T07:25:54Z</time>
      </trkpt>
      <trkpt lat="45.76834" lon="-1.20404">
        <ele>89.2</ele>
        <time>2020-01-26T07:25:55Z</time>
      </trkpt>
      <trkpt lat="45.76833" lon="-1.20402">
        <ele>89.2</ele>
        <time>2020-01-26T07:25:56Z</time>
      </trkpt>
      <trkpt lat="45.76833" lon="-1.204">
        <ele>88.8</ele>
        <time>2020-01-26T07:25:57Z</time>
      </trkpt>
      <trkpt lat="45.76831" lon="-1.20397">
        <ele>88.4</ele>
        <time>2020-01-26T07:25:58Z</time>
      </trkpt>
      <trkpt lat="45.76831" lon="-1.20394">
        <ele>87.8</ele>
        <time>2020-01-26T07:25:59Z</time>
      </trkpt>
      <trkpt lat="45.7683" lon="-1.20392">
        <ele>87</ele>
        <time>2020-01-26T07:26:00Z</time>
      </trkpt>
      <trkpt lat="45.7683" lon="-1.20389">
        <ele>86.2</ele>
        <time>2020-01-26T07:26:01Z</time>
      </trkpt>
      <trkpt lat="45.76828" lon="-1.20387">
        <ele>85.4</ele>
        <time>2020-01-26T07:26:02Z</time>
      </trkpt>
      <trkpt lat="45.76827" lon="-1.20381">
        <ele>85.4</ele>
        <time>2020-01-26T07:26:03Z</time>
      </trkpt>
      <trkpt lat="45.76825" lon="-1.20378">
        <ele>85</ele>
        <time>2020-01-26T07:26:04Z</time>
      </trkpt>
      <trkpt lat="45.76824" lon="-1.20376">
        <ele>84.2</ele>
        <time>2020-01-26T07:26:05Z</time>
      </trkpt>
      <trkpt lat="45.76823" lon="-1.20373">
        <ele>83.4</ele>
        <time>2020-01-26T07:26:06Z</time>
      </trkpt>
      <trkpt lat="45.76822" lon="-1.2037">
        <ele>82.8</ele>
        <time>2020-01-26T07:26:07Z</time>
      </trkpt>
      <trkpt lat="45.76821" lon="-1.2037">
        <ele>82</ele>
        <time>2020-01-26T07:26:08Z</time>
      </trkpt>
      <trkpt lat="45.76822" lon="-1.2037">
        <ele>81.6</ele>
        <time>2020-01-26T07:26:09Z</time>
      </trkpt>
      <trkpt lat="45.76822" lon="-1.2037">
        <ele>81.2</ele>
        <time>2020-01-26T07:26:10Z</time>
      </trkpt>
      <trkpt lat="45.76822" lon="-1.20369">
        <ele>81.2</ele>
        <time>2020-01-26T07:26:11Z</time>
      </trkpt>
      <trkpt lat="45.76821" lon="-1.20369">
        <ele>81.2</ele>
        <time>2020-01-26T07:26:12Z</time>
      </trkpt>
      <trkpt lat="45.76821" lon="-1.20369">
        <ele>81</ele>
        <time>2020-01-26T07:26:13Z</time>
      </trkpt>
      <trkpt lat="45.76821" lon="-1.20369">
        <ele>81</ele>
        <time>2020-01-26T07:26:14Z</time>
      </trkpt>
      <trkpt lat="45.76821" lon="-1.20369">
        <ele>81</ele>
        <time>2020-01-26T07:26:15Z</time>
      </trkpt>
      <trkpt lat="45.76821" lon="-1.20369">
        <ele>81</ele>
        <time>2020-01-26T07:26:16Z</time>
      </trkpt>
      <trkpt lat="45.76821" lon="-1.20369">
        <ele>80.8</ele>
        <time>2020-01-26T07:26:17Z</time>
      </trkpt>
      <trkpt lat="45.7682" lon="-1.20369">
        <ele>80.6</ele>
        <time>2020-01-26T07:26:18Z</time>
      </trkpt>
      <trkpt lat="45.7682" lon="-1.20369">
        <ele>80.4</ele>
        <time>2020-01-26T07:26:19Z</time>
      </trkpt>
      <trkpt lat="45.7682" lon="-1.20369">
        <ele>80.4</ele>
        <time>2020-01-26T07:26:20Z</time>
      </trkpt>
      <trkpt lat="45.7682" lon="-1.20369">
        <ele>80.4</ele>
        <time>2020-01-26T07:26:21Z</time>
      </trkpt>
      <trkpt lat="45.7682" lon="-1.20369">
        <ele>80.4</ele>
        <time>2020-01-26T07:26:22Z</time>
      </trkpt>
      <trkpt lat="45.7682" lon="-1.20369">
        <ele>80.2</ele>
        <time>2020-01-26T07:26:23Z</time>
      </trkpt>
      <trkpt lat="45.7682" lon="-1.20368">
        <ele>80.2</ele>
        <time>2020-01-26T07:26:24Z</time>
      </trkpt>
      <trkpt lat="45.7682" lon="-1.20368">
        <ele>80.2</ele>
        <time>2020-01-26T07:26:25Z</time>
      </trkpt>
      <trkpt lat="45.76819" lon="-1.20367">
        <ele>80</ele>
        <time>2020-01-26T07:26:26Z</time>
      </trkpt>
      <trkpt lat="45.76819" lon="-1.20366">
        <ele>79.8</ele>
        <time>2020-01-26T07:26:27Z</time>
      </trkpt>
      <trkpt lat="45.76818" lon="-1.20363">
        <ele>79.4</ele>
        <time>2020-01-26T07:26:28Z</time>
      </trkpt>
      <trkpt lat="45.76817" lon="-1.2036">
        <ele>78.8</ele>
        <time>2020-01-26T07:26:29Z</time>
      </trkpt>
      <trkpt lat="45.76815" lon="-1.20356">
        <ele>78</ele>
        <time>2020-01-26T07:26:30Z</time>
      </trkpt>
      <trkpt lat="45.76813" lon="-1.20351">
        <ele>77.2</ele>
        <time>2020-01-26T07:26:31Z</time>
      </trkpt>
      <trkpt lat="45.76809" lon="-1.20344">
        <ele>76.2</ele>
        <time>2020-01-26T07:26:32Z</time>
      </trkpt>
      <trkpt lat="45.76805" lon="-1.20332">
        <ele>75.2</ele>
        <time>2020-01-26T07:26:33Z</time>
      </trkpt>
      <trkpt lat="45.76796" lon="-1.20317">
        <ele>73.4</ele>
        <time>2020-01-26T07:26:34Z</time>
      </trkpt>
      <trkpt lat="45.76788" lon="-1.20305">
        <ele>71.2</ele>
        <time>2020-01-26T07:26:35Z</time>
      </trkpt>
      <trkpt lat="45.76781" lon="-1.20296">
        <ele>69.2</ele>
        <time>2020-01-26T07:26:36Z</time>
      </trkpt>
      <trkpt lat="45.76772" lon="-1.20285">
        <ele>67.8</ele>
        <time>2020-01-26T07:26:37Z</time>
      </trkpt>
      <trkpt lat="45.76765" lon="-1.20275">
        <ele>66.6</ele>
        <time>2020-01-26T07:26:38Z</time>
      </trkpt>
      <trkpt lat="45.7676" lon="-1.20263">
        <ele>65.6</ele>
        <time>2020-01-26T07:26:39Z</time>
      </trkpt>
      <trkpt lat="45.76755" lon="-1.20253">
        <ele>64.8</ele>
        <time>2020-01-26T07:26:40Z</time>
      </trkpt>
      <trkpt lat="45.76749" lon="-1.20245">
        <ele>64</ele>
        <time>2020-01-26T07:26:41Z</time>
      </trkpt>
      <trkpt lat="45.76742" lon="-1.20241">
        <ele>63.2</ele>
        <time>2020-01-26T07:26:42Z</time>
      </trkpt>
      <trkpt lat="45.76736" lon="-1.20243">
        <ele>62.2</ele>
        <time>2020-01-26T07:26:43Z</time>
      </trkpt>
      <trkpt lat="45.76731" lon="-1.20244">
        <ele>61.6</ele>
        <time>2020-01-26T07:26:44Z</time>
      </trkpt>
      <trkpt lat="45.76726" lon="-1.20244">
        <ele>61</ele>
        <time>2020-01-26T07:26:45Z</time>
      </trkpt>
      <trkpt lat="45.76722" lon="-1.20244">
        <ele>60</ele>
        <time>2020-01-26T07:26:46Z</time>
      </trkpt>
      <trkpt lat="45.76718" lon="-1.20241">
        <ele>59.2</ele>
        <time>2020-01-26T07:26:47Z</time>
      </trkpt>
      <trkpt lat="45.76714" lon="-1.2024">
        <ele>58.6</ele>
        <time>2020-01-26T07:26:48Z</time>
      </trkpt>
      <trkpt lat="45.76711" lon="-1.20237">
        <ele>58.2</ele>
        <time>2020-01-26T07:26:49Z</time>
      </trkpt>
      <trkpt lat="45.76707" lon="-1.20234">
        <ele>58.2</ele>
        <time>2020-01-26T07:26:50Z</time>
      </trkpt>
      <trkpt lat="45.76704" lon="-1.2023">
        <ele>58.4</ele>
        <time>2020-01-26T07:26:51Z</time>
      </trkpt>
      <trkpt lat="45.76702" lon="-1.20226">
        <ele>58.8</ele>
        <time>2020-01-26T07:26:52Z</time>
      </trkpt>
      <trkpt lat="45.76699" lon="-1.20222">
        <ele>59.4</ele>
        <time>2020-01-26T07:26:53Z</time>
      </trkpt>
      <trkpt lat="45.76698" lon="-1.20218">
        <ele>59.2</ele>
        <time>2020-01-26T07:26:54Z</time>
      </trkpt>
      <trkpt lat="45.76695" lon="-1.20215">
        <ele>59.2</ele>
        <time>2020-01-26T07:26:55Z</time>
      </trkpt>
      <trkpt lat="45.76693" lon="-1.20212">
        <ele>59</ele>
        <time>2020-01-26T07:26:56Z</time>
      </trkpt>
      <trkpt lat="45.76691" lon="-1.20208">
        <ele>59</ele>
        <time>2020-01-26T07:26:57Z</time>
      </trkpt>
      <trkpt lat="45.76688" lon="-1.20205">
        <ele>59</ele>
        <time>2020-01-26T07:26:58Z</time>
      </trkpt>
      <trkpt lat="45.76683" lon="-1.20202">
        <ele>59.2</ele>
        <time>2020-01-26T07:26:59Z</time>
      </trkpt>
      <trkpt lat="45.7668" lon="-1.20201">
        <ele>59.2</ele>
        <time>2020-01-26T07:27:00Z</time>
      </trkpt>
      <trkpt lat="45.76677" lon="-1.202">
        <ele>59.2</ele>
        <time>2020-01-26T07:27:01Z</time>
      </trkpt>
      <trkpt lat="45.76673" lon="-1.20198">
        <ele>59.4</ele>
        <time>2020-01-26T07:27:02Z</time>
      </trkpt>
      <trkpt lat="45.76669" lon="-1.20197">
        <ele>59.8</ele>
        <time>2020-01-26T07:27:03Z</time>
      </trkpt>
      <trkpt lat="45.76662" lon="-1.20196">
        <ele>59.8</ele>
        <time>2020-01-26T07:27:04Z</time>
      </trkpt>
      <trkpt lat="45.76657" lon="-1.20197">
        <ele>60.2</ele>
        <time>2020-01-26T07:27:05Z</time>
      </trkpt>
      <trkpt lat="45.76651" lon="-1.202">
        <ele>60.4</ele>
        <time>2020-01-26T07:27:06Z</time>
      </trkpt>
      <trkpt lat="45.76647" lon="-1.20203">
        <ele>60.6</ele>
        <time>2020-01-26T07:27:07Z</time>
      </trkpt>
      <trkpt lat="45.76642" lon="-1.20204">
        <ele>61</ele>
        <time>2020-01-26T07:27:08Z</time>
      </trkpt>
      <trkpt lat="45.76639" lon="-1.20208">
        <ele>61.2</ele>
        <time>2020-01-26T07:27:09Z</time>
      </trkpt>
      <trkpt lat="45.76636" lon="-1.2021">
        <ele>61.6</ele>
        <time>2020-01-26T07:27:10Z</time>
      </trkpt>
      <trkpt lat="45.76633" lon="-1.20213">
        <ele>62.2</ele>
        <time>2020-01-26T07:27:11Z</time>
      </trkpt>
      <trkpt lat="45.76631" lon="-1.20215">
        <ele>62.6</ele>
        <time>2020-01-26T07:27:12Z</time>
      </trkpt>
      <trkpt lat="45.76628" lon="-1.20219">
        <ele>63</ele>
        <time>2020-01-26T07:27:13Z</time>
      </trkpt>
      <trkpt lat="45.76626" lon="-1.20222">
        <ele>63.2</ele>
        <time>2020-01-26T07:27:14Z</time>
      </trkpt>
      <trkpt lat="45.76624" lon="-1.20226">
        <ele>63.2</ele>
        <time>2020-01-26T07:27:15Z</time>
      </trkpt>
      <trkpt lat="45.76622" lon="-1.20228">
        <ele>63.4</ele>
        <time>2020-01-26T07:27:16Z</time>
      </trkpt>
      <trkpt lat="45.7662" lon="-1.2023">
        <ele>63.6</ele>
        <time>2020-01-26T07:27:17Z</time>
      </trkpt>
      <trkpt lat="45.76618" lon="-1.20233">
        <ele>63.6</ele>
        <time>2020-01-26T07:27:18Z</time>
      </trkpt>
      <trkpt lat="45.76615" lon="-1.20234">
        <ele>63.8</ele>
        <time>2020-01-26T07:27:19Z</time>
      </trkpt>
      <trkpt lat="45.76612" lon="-1.20236">
        <ele>64</ele>
        <time>2020-01-26T07:27:20Z</time>
      </trkpt>
      <trkpt lat="45.7661" lon="-1.20236">
        <ele>64.4</ele>
        <time>2020-01-26T07:27:21Z</time>
      </trkpt>
      <trkpt lat="45.76608" lon="-1.20235">
        <ele>64.6</ele>
        <time>2020-01-26T07:27:22Z</time>
      </trkpt>
      <trkpt lat="45.76607" lon="-1.20231">
        <ele>64.8</ele>
        <time>2020-01-26T07:27:23Z</time>
      </trkpt>
      <trkpt lat="45.76606" lon="-1.20229">
        <ele>65.2</ele>
        <time>2020-01-26T07:27:24Z</time>
      </trkpt>
      <trkpt lat="45.76606" lon="-1.20227">
        <ele>65.4</ele>
        <time>2020-01-26T07:27:25Z</time>
      </trkpt>
      <trkpt lat="45.76606" lon="-1.20226">
        <ele>65.2</ele>
        <time>2020-01-26T07:27:26Z</time>
      </trkpt>
      <trkpt lat="45.76606" lon="-1.20225">
        <ele>65.2</ele>
        <time>2020-01-26T07:27:27Z</time>
      </trkpt>
      <trkpt lat="45.76606" lon="-1.20223">
        <ele>64.8</ele>
        <time>2020-01-26T07:27:28Z</time>
      </trkpt>
      <trkpt lat="45.76606" lon="-1.20222">
        <ele>64.6</ele>
        <time>2020-01-26T07:27:29Z</time>
      </trkpt>
      <trkpt lat="45.76605" lon="-1.2022">
        <ele>64.8</ele>
        <time>2020-01-26T07:27:30Z</time>
      </trkpt>
      <trkpt lat="45.76605" lon="-1.20218">
        <ele>64.8</ele>
        <time>2020-01-26T07:27:31Z</time>
      </trkpt>
      <trkpt lat="45.76605" lon="-1.20216">
        <ele>64.6</ele>
        <time>2020-01-26T07:27:32Z</time>
      </trkpt>
      <trkpt lat="45.76604" lon="-1.20214">
        <ele>64.4</ele>
        <time>2020-01-26T07:27:33Z</time>
      </trkpt>
      <trkpt lat="45.76604" lon="-1.20212">
        <ele>64.6</ele>
        <time>2020-01-26T07:27:34Z</time>
      </trkpt>
      <trkpt lat="45.76604" lon="-1.2021">
        <ele>64.8</ele>
        <time>2020-01-26T07:27:35Z</time>
      </trkpt>
      <trkpt lat="45.76604" lon="-1.20208">
        <ele>64.8</ele>
        <time>2020-01-26T07:27:36Z</time>
      </trkpt>
      <trkpt lat="45.76604" lon="-1.20206">
        <ele>64.8</ele>
        <time>2020-01-26T07:27:37Z</time>
      </trkpt>
      <trkpt lat="45.76604" lon="-1.20205">
        <ele>65</ele>
        <time>2020-01-26T07:27:38Z</time>
      </trkpt>
      <trkpt lat="45.76604" lon="-1.20202">
        <ele>65.2</ele>
        <time>2020-01-26T07:27:39Z</time>
      </trkpt>
      <trkpt lat="45.76604" lon="-1.20198">
        <ele>65.4</ele>
        <time>2020-01-26T07:27:40Z</time>
      </trkpt>
      <trkpt lat="45.76604" lon="-1.20194">
        <ele>65.6</ele>
        <time>2020-01-26T07:27:41Z</time>
      </trkpt>
      <trkpt lat="45.76604" lon="-1.20187">
        <ele>65.4</ele>
        <time>2020-01-26T07:27:42Z</time>
      </trkpt>
      <trkpt lat="45.76603" lon="-1.2018">
        <ele>65</ele>
        <time>2020-01-26T07:27:43Z</time>
      </trkpt>
      <trkpt lat="45.76603" lon="-1.20172">
        <ele>64.8</ele>
        <time>2020-01-26T07:27:44Z</time>
      </trkpt>
      <trkpt lat="45.76603" lon="-1.20163">
        <ele>64.6</ele>
        <time>2020-01-26T07:27:45Z</time>
      </trkpt>
      <trkpt lat="45.76604" lon="-1.20152">
        <ele>64.2</ele>
        <time>2020-01-26T07:27:46Z</time>
      </trkpt>
      <trkpt lat="45.76604" lon="-1.20142">
        <ele>63.8</ele>
        <time>2020-01-26T07:27:47Z</time>
      </trkpt>
      <trkpt lat="45.76604" lon="-1.20132">
        <ele>63.4</ele>
        <time>2020-01-26T07:27:48Z</time>
      </trkpt>
      <trkpt lat="45.76603" lon="-1.20122">
        <ele>63.2</ele>
        <time>2020-01-26T07:27:49Z</time>
      </trkpt>
      <trkpt lat="45.76603" lon="-1.20111">
        <ele>62.6</ele>
        <time>2020-01-26T07:27:50Z</time>
      </trkpt>
      <trkpt lat="45.76601" lon="-1.201">
        <ele>62.2</ele>
        <time>2020-01-26T07:27:51Z</time>
      </trkpt>
      <trkpt lat="45.766" lon="-1.20087">
        <ele>62.2</ele>
        <time>2020-01-26T07:27:52Z</time>
      </trkpt>
      <trkpt lat="45.766" lon="-1.20075">
        <ele>62.4</ele>
        <time>2020-01-26T07:27:53Z</time>
      </trkpt>
      <trkpt lat="45.76598" lon="-1.20063">
        <ele>62.6</ele>
        <time>2020-01-26T07:27:54Z</time>
      </trkpt>
      <trkpt lat="45.76598" lon="-1.20055">
        <ele>62.4</ele>
        <time>2020-01-26T07:27:55Z</time>
      </trkpt>
      <trkpt lat="45.76598" lon="-1.20046">
        <ele>62.2</ele>
        <time>2020-01-26T07:27:56Z</time>
      </trkpt>
      <trkpt lat="45.76598" lon="-1.20038">
        <ele>62.6</ele>
        <time>2020-01-26T07:27:57Z</time>
      </trkpt>
      <trkpt lat="45.76598" lon="-1.20028">
        <ele>63</ele>
        <time>2020-01-26T07:27:58Z</time>
      </trkpt>
      <trkpt lat="45.76599" lon="-1.20018">
        <ele>63.6</ele>
        <time>2020-01-26T07:27:59Z</time>
      </trkpt>
      <trkpt lat="45.76598" lon="-1.20009">
        <ele>64</ele>
        <time>2020-01-26T07:28:00Z</time>
      </trkpt>
      <trkpt lat="45.76597" lon="-1.20003">
        <ele>63.8</ele>
        <time>2020-01-26T07:28:01Z</time>
      </trkpt>
      <trkpt lat="45.76597" lon="-1.19996">
        <ele>63.4</ele>
        <time>2020-01-26T07:28:02Z</time>
      </trkpt>
      <trkpt lat="45.76596" lon="-1.19989">
        <ele>63.2</ele>
        <time>2020-01-26T07:28:03Z</time>
      </trkpt>
      <trkpt lat="45.76596" lon="-1.19981">
        <ele>63.2</ele>
        <time>2020-01-26T07:28:04Z</time>
      </trkpt>
      <trkpt lat="45.76595" lon="-1.19973">
        <ele>63.4</ele>
        <time>2020-01-26T07:28:05Z</time>
      </trkpt>
      <trkpt lat="45.76595" lon="-1.19966">
        <ele>63.2</ele>
        <time>2020-01-26T07:28:06Z</time>
      </trkpt>
      <trkpt lat="45.76595" lon="-1.19961">
        <ele>63.2</ele>
        <time>2020-01-26T07:28:07Z</time>
      </trkpt>
      <trkpt lat="45.76595" lon="-1.19956">
        <ele>63.4</ele>
        <time>2020-01-26T07:28:08Z</time>
      </trkpt>
      <trkpt lat="45.76595" lon="-1.19951">
        <ele>63.4</ele>
        <time>2020-01-26T07:28:09Z</time>
      </trkpt>
      <trkpt lat="45.76595" lon="-1.19946">
        <ele>63.2</ele>
        <time>2020-01-26T07:28:10Z</time>
      </trkpt>
      <trkpt lat="45.76595" lon="-1.19942">
        <ele>63.4</ele>
        <time>2020-01-26T07:28:11Z</time>
      </trkpt>
      <trkpt lat="45.76594" lon="-1.19937">
        <ele>63.8</ele>
        <time>2020-01-26T07:28:12Z</time>
      </trkpt>
      <trkpt lat="45.76594" lon="-1.19933">
        <ele>64.4</ele>
        <time>2020-01-26T07:28:13Z</time>
      </trkpt>
      <trkpt lat="45.76594" lon="-1.1993">
        <ele>64.8</ele>
        <time>2020-01-26T07:28:14Z</time>
      </trkpt>
      <trkpt lat="45.76595" lon="-1.19927">
        <ele>65.2</ele>
        <time>2020-01-26T07:28:15Z</time>
      </trkpt>
      <trkpt lat="45.76595" lon="-1.19923">
        <ele>65.4</ele>
        <time>2020-01-26T07:28:16Z</time>
      </trkpt>
      <trkpt lat="45.76595" lon="-1.19921">
        <ele>65.6</ele>
        <time>2020-01-26T07:28:17Z</time>
      </trkpt>
      <trkpt lat="45.76594" lon="-1.19917">
        <ele>65.8</ele>
        <time>2020-01-26T07:28:18Z</time>
      </trkpt>
      <trkpt lat="45.76594" lon="-1.19914">
        <ele>66.2</ele>
        <time>2020-01-26T07:28:19Z</time>
      </trkpt>
      <trkpt lat="45.76594" lon="-1.19911">
        <ele>66.4</ele>
        <time>2020-01-26T07:28:20Z</time>
      </trkpt>
      <trkpt lat="45.76593" lon="-1.19909">
        <ele>66.8</ele>
        <time>2020-01-26T07:28:21Z</time>
      </trkpt>
      <trkpt lat="45.76594" lon="-1.19907">
        <ele>67.2</ele>
        <time>2020-01-26T07:28:22Z</time>
      </trkpt>
      <trkpt lat="45.76594" lon="-1.19904">
        <ele>67.4</ele>
        <time>2020-01-26T07:28:23Z</time>
      </trkpt>
      <trkpt lat="45.76594" lon="-1.19903">
        <ele>67.6</ele>
        <time>2020-01-26T07:28:24Z</time>
      </trkpt>
      <trkpt lat="45.76594" lon="-1.199">
        <ele>67.8</ele>
        <time>2020-01-26T07:28:25Z</time>
      </trkpt>
      <trkpt lat="45.76594" lon="-1.19897">
        <ele>68.2</ele>
        <time>2020-01-26T07:28:26Z</time>
      </trkpt>
      <trkpt lat="45.76593" lon="-1.19894">
        <ele>68.6</ele>
        <time>2020-01-26T07:28:27Z</time>
      </trkpt>
      <trkpt lat="45.76594" lon="-1.19891">
        <ele>69</ele>
        <time>2020-01-26T07:28:28Z</time>
      </trkpt>
      <trkpt lat="45.76594" lon="-1.19888">
        <ele>69.2</ele>
        <time>2020-01-26T07:28:29Z</time>
      </trkpt>
      <trkpt lat="45.76594" lon="-1.19886">
        <ele>69.4</ele>
        <time>2020-01-26T07:28:30Z</time>
      </trkpt>
      <trkpt lat="45.76593" lon="-1.19883">
        <ele>69.2</ele>
        <time>2020-01-26T07:28:31Z</time>
      </trkpt>
      <trkpt lat="45.76593" lon="-1.19881">
        <ele>69</ele>
        <time>2020-01-26T07:28:32Z</time>
      </trkpt>
      <trkpt lat="45.76593" lon="-1.19879">
        <ele>68.8</ele>
        <time>2020-01-26T07:28:33Z</time>
      </trkpt>
      <trkpt lat="45.76593" lon="-1.19876">
        <ele>68.6</ele>
        <time>2020-01-26T07:28:34Z</time>
      </trkpt>
      <trkpt lat="45.76593" lon="-1.19874">
        <ele>68.2</ele>
        <time>2020-01-26T07:28:35Z</time>
      </trkpt>
      <trkpt lat="45.76593" lon="-1.19871">
        <ele>68</ele>
        <time>2020-01-26T07:28:36Z</time>
      </trkpt>
      <trkpt lat="45.76593" lon="-1.19868">
        <ele>67.8</ele>
        <time>2020-01-26T07:28:37Z</time>
      </trkpt>
      <trkpt lat="45.76593" lon="-1.19865">
        <ele>68</ele>
        <time>2020-01-26T07:28:38Z</time>
      </trkpt>
      <trkpt lat="45.76593" lon="-1.19863">
        <ele>68.2</ele>
        <time>2020-01-26T07:28:39Z</time>
      </trkpt>
      <trkpt lat="45.76593" lon="-1.1986">
        <ele>68.4</ele>
        <time>2020-01-26T07:28:40Z</time>
      </trkpt>
      <trkpt lat="45.76593" lon="-1.19857">
        <ele>68.6</ele>
        <time>2020-01-26T07:28:41Z</time>
      </trkpt>
      <trkpt lat="45.76593" lon="-1.19855">
        <ele>68.8</ele>
        <time>2020-01-26T07:28:42Z</time>
      </trkpt>
      <trkpt lat="45.76593" lon="-1.19853">
        <ele>69</ele>
        <time>2020-01-26T07:28:43Z</time>
      </trkpt>
      <trkpt lat="45.76593" lon="-1.1985">
        <ele>69.4</ele>
        <time>2020-01-26T07:28:44Z</time>
      </trkpt>
      <trkpt lat="45.76593" lon="-1.19847">
        <ele>69.8</ele>
        <time>2020-01-26T07:28:45Z</time>
      </trkpt>
      <trkpt lat="45.76594" lon="-1.19845">
        <ele>69.8</ele>
        <time>2020-01-26T07:28:46Z</time>
      </trkpt>
      <trkpt lat="45.76593" lon="-1.19842">
        <ele>69.6</ele>
        <time>2020-01-26T07:28:47Z</time>
      </trkpt>
      <trkpt lat="45.76593" lon="-1.1984">
        <ele>69.8</ele>
        <time>2020-01-26T07:28:48Z</time>
      </trkpt>
      <trkpt lat="45.76592" lon="-1.19837">
        <ele>69.8</ele>
        <time>2020-01-26T07:28:49Z</time>
      </trkpt>
      <trkpt lat="45.76591" lon="-1.19834">
        <ele>69.8</ele>
        <time>2020-01-26T07:28:50Z</time>
      </trkpt>
      <trkpt lat="45.76591" lon="-1.19832">
        <ele>70.2</ele>
        <time>2020-01-26T07:28:51Z</time>
      </trkpt>
      <trkpt lat="45.76591" lon="-1.19829">
        <ele>70.4</ele>
        <time>2020-01-26T07:28:52Z</time>
      </trkpt>
      <trkpt lat="45.76592" lon="-1.19825">
        <ele>70.6</ele>
        <time>2020-01-26T07:28:53Z</time>
      </trkpt>
      <trkpt lat="45.76592" lon="-1.19822">
        <ele>71</ele>
        <time>2020-01-26T07:28:54Z</time>
      </trkpt>
      <trkpt lat="45.76592" lon="-1.19819">
        <ele>71.2</ele>
        <time>2020-01-26T07:28:55Z</time>
      </trkpt>
      <trkpt lat="45.76592" lon="-1.19816">
        <ele>71.6</ele>
        <time>2020-01-26T07:28:56Z</time>
      </trkpt>
      <trkpt lat="45.76593" lon="-1.19814">
        <ele>72</ele>
        <time>2020-01-26T07:28:57Z</time>
      </trkpt>
      <trkpt lat="45.76593" lon="-1.19812">
        <ele>72.2</ele>
        <time>2020-01-26T07:28:58Z</time>
      </trkpt>
      <trkpt lat="45.76595" lon="-1.1981">
        <ele>72.4</ele>
        <time>2020-01-26T07:28:59Z</time>
      </trkpt>
      <trkpt lat="45.76596" lon="-1.19809">
        <ele>72.8</ele>
        <time>2020-01-26T07:29:00Z</time>
      </trkpt>
      <trkpt lat="45.76597" lon="-1.19807">
        <ele>73.2</ele>
        <time>2020-01-26T07:29:01Z</time>
      </trkpt>
      <trkpt lat="45.76598" lon="-1.19807">
        <ele>73</ele>
        <time>2020-01-26T07:29:02Z</time>
      </trkpt>
      <trkpt lat="45.766" lon="-1.19806">
        <ele>73</ele>
        <time>2020-01-26T07:29:03Z</time>
      </trkpt>
      <trkpt lat="45.76601" lon="-1.19804">
        <ele>73</ele>
        <time>2020-01-26T07:29:04Z</time>
      </trkpt>
      <trkpt lat="45.76604" lon="-1.19803">
        <ele>72.8</ele>
        <time>2020-01-26T07:29:05Z</time>
      </trkpt>
      <trkpt lat="45.76605" lon="-1.19802">
        <ele>72.6</ele>
        <time>2020-01-26T07:29:06Z</time>
      </trkpt>
      <trkpt lat="45.76608" lon="-1.19802">
        <ele>72.2</ele>
        <time>2020-01-26T07:29:07Z</time>
      </trkpt>
      <trkpt lat="45.76612" lon="-1.19801">
        <ele>72.4</ele>
        <time>2020-01-26T07:29:08Z</time>
      </trkpt>
      <trkpt lat="45.76619" lon="-1.198">
        <ele>72.2</ele>
        <time>2020-01-26T07:29:09Z</time>
      </trkpt>
      <trkpt lat="45.76625" lon="-1.198">
        <ele>72.2</ele>
        <time>2020-01-26T07:29:10Z</time>
      </trkpt>
      <trkpt lat="45.76631" lon="-1.19799">
        <ele>72.2</ele>
        <time>2020-01-26T07:29:11Z</time>
      </trkpt>
      <trkpt lat="45.76637" lon="-1.19798">
        <ele>71.8</ele>
        <time>2020-01-26T07:29:12Z</time>
      </trkpt>
      <trkpt lat="45.76643" lon="-1.19799">
        <ele>71.6</ele>
        <time>2020-01-26T07:29:13Z</time>
      </trkpt>
      <trkpt lat="45.76649" lon="-1.198">
        <ele>71.2</ele>
        <time>2020-01-26T07:29:14Z</time>
      </trkpt>
      <trkpt lat="45.76653" lon="-1.19798">
        <ele>70.6</ele>
        <time>2020-01-26T07:29:15Z</time>
      </trkpt>
      <trkpt lat="45.76657" lon="-1.19798">
        <ele>70</ele>
        <time>2020-01-26T07:29:16Z</time>
      </trkpt>
      <trkpt lat="45.76662" lon="-1.19798">
        <ele>69.4</ele>
        <time>2020-01-26T07:29:17Z</time>
      </trkpt>
      <trkpt lat="45.76667" lon="-1.19797">
        <ele>69.2</ele>
        <time>2020-01-26T07:29:18Z</time>
      </trkpt>
      <trkpt lat="45.76673" lon="-1.19797">
        <ele>69</ele>
        <time>2020-01-26T07:29:19Z</time>
      </trkpt>
      <trkpt lat="45.76677" lon="-1.19795">
        <ele>68.8</ele>
        <time>2020-01-26T07:29:20Z</time>
      </trkpt>
      <trkpt lat="45.76681" lon="-1.19795">
        <ele>69.2</ele>
        <time>2020-01-26T07:29:21Z</time>
      </trkpt>
      <trkpt lat="45.76684" lon="-1.19796">
        <ele>69.4</ele>
        <time>2020-01-26T07:29:22Z</time>
      </trkpt>
      <trkpt lat="45.76687" lon="-1.19796">
        <ele>69.8</ele>
        <time>2020-01-26T07:29:23Z</time>
      </trkpt>
      <trkpt lat="45.7669" lon="-1.19796">
        <ele>70.4</ele>
        <time>2020-01-26T07:29:24Z</time>
      </trkpt>
      <trkpt lat="45.76693" lon="-1.19795">
        <ele>70.8</ele>
        <time>2020-01-26T07:29:25Z</time>
      </trkpt>
      <trkpt lat="45.76696" lon="-1.19796">
        <ele>71</ele>
        <time>2020-01-26T07:29:26Z</time>
      </trkpt>
      <trkpt lat="45.76699" lon="-1.19797">
        <ele>71.4</ele>
        <time>2020-01-26T07:29:27Z</time>
      </trkpt>
      <trkpt lat="45.76702" lon="-1.19796">
        <ele>71.8</ele>
        <time>2020-01-26T07:29:28Z</time>
      </trkpt>
      <trkpt lat="45.76704" lon="-1.19796">
        <ele>72.2</ele>
        <time>2020-01-26T07:29:29Z</time>
      </trkpt>
      <trkpt lat="45.76706" lon="-1.19796">
        <ele>72.6</ele>
        <time>2020-01-26T07:29:30Z</time>
      </trkpt>
      <trkpt lat="45.76708" lon="-1.19796">
        <ele>72.8</ele>
        <time>2020-01-26T07:29:31Z</time>
      </trkpt>
      <trkpt lat="45.76711" lon="-1.19794">
        <ele>73</ele>
        <time>2020-01-26T07:29:32Z</time>
      </trkpt>
      <trkpt lat="45.76714" lon="-1.19793">
        <ele>73</ele>
        <time>2020-01-26T07:29:33Z</time>
      </trkpt>
      <trkpt lat="45.76717" lon="-1.19794">
        <ele>73</ele>
        <time>2020-01-26T07:29:34Z</time>
      </trkpt>
      <trkpt lat="45.7672" lon="-1.19793">
        <ele>72.6</ele>
        <time>2020-01-26T07:29:35Z</time>
      </trkpt>
      <trkpt lat="45.76723" lon="-1.19793">
        <ele>72.6</ele>
        <time>2020-01-26T07:29:36Z</time>
      </trkpt>
      <trkpt lat="45.76728" lon="-1.19793">
        <ele>72.2</ele>
        <time>2020-01-26T07:29:37Z</time>
      </trkpt>
      <trkpt lat="45.76734" lon="-1.1979">
        <ele>71.8</ele>
        <time>2020-01-26T07:29:38Z</time>
      </trkpt>
      <trkpt lat="45.76742" lon="-1.19791">
        <ele>71</ele>
        <time>2020-01-26T07:29:39Z</time>
      </trkpt>
      <trkpt lat="45.76748" lon="-1.19791">
        <ele>70.2</ele>
        <time>2020-01-26T07:29:40Z</time>
      </trkpt>
      <trkpt lat="45.76756" lon="-1.19791">
        <ele>69.4</ele>
        <time>2020-01-26T07:29:41Z</time>
      </trkpt>
      <trkpt lat="45.76762" lon="-1.19791">
        <ele>68.6</ele>
        <time>2020-01-26T07:29:42Z</time>
      </trkpt>
      <trkpt lat="45.7677" lon="-1.19791">
        <ele>67.8</ele>
        <time>2020-01-26T07:29:43Z</time>
      </trkpt>
      <trkpt lat="45.76777" lon="-1.19793">
        <ele>66.8</ele>
        <time>2020-01-26T07:29:44Z</time>
      </trkpt>
      <trkpt lat="45.76783" lon="-1.19798">
        <ele>66.2</ele>
        <time>2020-01-26T07:29:45Z</time>
      </trkpt>
      <trkpt lat="45.76788" lon="-1.19807">
        <ele>65</ele>
        <time>2020-01-26T07:29:46Z</time>
      </trkpt>
      <trkpt lat="45.7679" lon="-1.19814">
        <ele>64</ele>
        <time>2020-01-26T07:29:47Z</time>
      </trkpt>
      <trkpt lat="45.76792" lon="-1.19819">
        <ele>63</ele>
        <time>2020-01-26T07:29:48Z</time>
      </trkpt>
      <trkpt lat="45.76796" lon="-1.19824">
        <ele>62.2</ele>
        <time>2020-01-26T07:29:49Z</time>
      </trkpt>
      <trkpt lat="45.76798" lon="-1.19829">
        <ele>61.6</ele>
        <time>2020-01-26T07:29:50Z</time>
      </trkpt>
      <trkpt lat="45.76801" lon="-1.19833">
        <ele>61</ele>
        <time>2020-01-26T07:29:51Z</time>
      </trkpt>
      <trkpt lat="45.76804" lon="-1.19838">
        <ele>60.4</ele>
        <time>2020-01-26T07:29:52Z</time>
      </trkpt>
      <trkpt lat="45.76806" lon="-1.19843">
        <ele>60.2</ele>
        <time>2020-01-26T07:29:53Z</time>
      </trkpt>
      <trkpt lat="45.76808" lon="-1.19848">
        <ele>59.8</ele>
        <time>2020-01-26T07:29:54Z</time>
      </trkpt>
      <trkpt lat="45.7681" lon="-1.19853">
        <ele>59.4</ele>
        <time>2020-01-26T07:29:55Z</time>
      </trkpt>
      <trkpt lat="45.76812" lon="-1.19859">
        <ele>59</ele>
        <time>2020-01-26T07:29:56Z</time>
      </trkpt>
      <trkpt lat="45.76814" lon="-1.19865">
        <ele>59</ele>
        <time>2020-01-26T07:29:57Z</time>
      </trkpt>
      <trkpt lat="45.76815" lon="-1.19872">
        <ele>59</ele>
        <time>2020-01-26T07:29:58Z</time>
      </trkpt>
      <trkpt lat="45.76817" lon="-1.19878">
        <ele>59</ele>
        <time>2020-01-26T07:29:59Z</time>
      </trkpt>
      <trkpt lat="45.76818" lon="-1.19884">
        <ele>59</ele>
        <time>2020-01-26T07:30:00Z</time>
      </trkpt>
      <trkpt lat="45.76819" lon="-1.1989">
        <ele>59.2</ele>
        <time>2020-01-26T07:30:01Z</time>
      </trkpt>
      <trkpt lat="45.7682" lon="-1.19895">
        <ele>59.6</ele>
        <time>2020-01-26T07:30:02Z</time>
      </trkpt>
      <trkpt lat="45.7682" lon="-1.199">
        <ele>60.2</ele>
        <time>2020-01-26T07:30:03Z</time>
      </trkpt>
      <trkpt lat="45.76821" lon="-1.19904">
        <ele>60.8</ele>
        <time>2020-01-26T07:30:04Z</time>
      </trkpt>
      <trkpt lat="45.76821" lon="-1.19909">
        <ele>61.2</ele>
        <time>2020-01-26T07:30:05Z</time>
      </trkpt>
      <trkpt lat="45.76822" lon="-1.19914">
        <ele>61.6</ele>
        <time>2020-01-26T07:30:06Z</time>
      </trkpt>
      <trkpt lat="45.76822" lon="-1.19918">
        <ele>62</ele>
        <time>2020-01-26T07:30:07Z</time>
      </trkpt>
      <trkpt lat="45.76823" lon="-1.19921">
        <ele>62</ele>
        <time>2020-01-26T07:30:08Z</time>
      </trkpt>
      <trkpt lat="45.76824" lon="-1.19924">
        <ele>62</ele>
        <time>2020-01-26T07:30:09Z</time>
      </trkpt>
      <trkpt lat="45.76824" lon="-1.19929">
        <ele>61.8</ele>
        <time>2020-01-26T07:30:10Z</time>
      </trkpt>
      <trkpt lat="45.76825" lon="-1.19933">
        <ele>61.8</ele>
        <time>2020-01-26T07:30:11Z</time>
      </trkpt>
      <trkpt lat="45.76826" lon="-1.19937">
        <ele>61.6</ele>
        <time>2020-01-26T07:30:12Z</time>
      </trkpt>
      <trkpt lat="45.76826" lon="-1.19943">
        <ele>61.4</ele>
        <time>2020-01-26T07:30:13Z</time>
      </trkpt>
      <trkpt lat="45.76827" lon="-1.19947">
        <ele>61.4</ele>
        <time>2020-01-26T07:30:14Z</time>
      </trkpt>
      <trkpt lat="45.76828" lon="-1.19952">
        <ele>61.2</ele>
        <time>2020-01-26T07:30:15Z</time>
      </trkpt>
      <trkpt lat="45.7683" lon="-1.19956">
        <ele>61.2</ele>
        <time>2020-01-26T07:30:16Z</time>
      </trkpt>
      <trkpt lat="45.76831" lon="-1.19962">
        <ele>61.2</ele>
        <time>2020-01-26T07:30:17Z</time>
      </trkpt>
      <trkpt lat="45.76833" lon="-1.19968">
        <ele>61.4</ele>
        <time>2020-01-26T07:30:18Z</time>
      </trkpt>
      <trkpt lat="45.76836" lon="-1.19973">
        <ele>61.2</ele>
        <time>2020-01-26T07:30:19Z</time>
      </trkpt>
      <trkpt lat="45.76838" lon="-1.19979">
        <ele>61</ele>
        <time>2020-01-26T07:30:20Z</time>
      </trkpt>
      <trkpt lat="45.7684" lon="-1.19985">
        <ele>60.6</ele>
        <time>2020-01-26T07:30:21Z</time>
      </trkpt>
      <trkpt lat="45.76843" lon="-1.19991">
        <ele>60.6</ele>
        <time>2020-01-26T07:30:22Z</time>
      </trkpt>
      <trkpt lat="45.76845" lon="-1.19996">
        <ele>60.6</ele>
        <time>2020-01-26T07:30:23Z</time>
      </trkpt>
      <trkpt lat="45.76848" lon="-1.20001">
        <ele>60.8</ele>
        <time>2020-01-26T07:30:24Z</time>
      </trkpt>
      <trkpt lat="45.76851" lon="-1.20006">
        <ele>60.6</ele>
        <time>2020-01-26T07:30:25Z</time>
      </trkpt>
      <trkpt lat="45.76854" lon="-1.2001">
        <ele>60.4</ele>
        <time>2020-01-26T07:30:26Z</time>
      </trkpt>
      <trkpt lat="45.76857" lon="-1.20016">
        <ele>60.6</ele>
        <time>2020-01-26T07:30:27Z</time>
      </trkpt>
      <trkpt lat="45.76861" lon="-1.20021">
        <ele>60.6</ele>
        <time>2020-01-26T07:30:28Z</time>
      </trkpt>
      <trkpt lat="45.76865" lon="-1.20025">
        <ele>60.8</ele>
        <time>2020-01-26T07:30:29Z</time>
      </trkpt>
      <trkpt lat="45.76868" lon="-1.2003">
        <ele>61</ele>
        <time>2020-01-26T07:30:30Z</time>
      </trkpt>
      <trkpt lat="45.76872" lon="-1.20034">
        <ele>61.4</ele>
        <time>2020-01-26T07:30:31Z</time>
      </trkpt>
      <trkpt lat="45.76875" lon="-1.20039">
        <ele>61.4</ele>
        <time>2020-01-26T07:30:32Z</time>
      </trkpt>
      <trkpt lat="45.76879" lon="-1.20043">
        <ele>61.6</ele>
        <time>2020-01-26T07:30:33Z</time>
      </trkpt>
      <trkpt lat="45.76882" lon="-1.20047">
        <ele>61.6</ele>
        <time>2020-01-26T07:30:34Z</time>
      </trkpt>
      <trkpt lat="45.76885" lon="-1.20051">
        <ele>61.6</ele>
        <time>2020-01-26T07:30:35Z</time>
      </trkpt>
      <trkpt lat="45.76889" lon="-1.20055">
        <ele>61.4</ele>
        <time>2020-01-26T07:30:36Z</time>
      </trkpt>
      <trkpt lat="45.76892" lon="-1.20058">
        <ele>61.2</ele>
        <time>2020-01-26T07:30:37Z</time>
      </trkpt>
      <trkpt lat="45.76896" lon="-1.20063">
        <ele>61</ele>
        <time>2020-01-26T07:30:38Z</time>
      </trkpt>
      <trkpt lat="45.76899" lon="-1.20067">
        <ele>60.8</ele>
        <time>2020-01-26T07:30:39Z</time>
      </trkpt>
      <trkpt lat="45.76902" lon="-1.20072">
        <ele>60.6</ele>
        <time>2020-01-26T07:30:40Z</time>
      </trkpt>
      <trkpt lat="45.76906" lon="-1.20076">
        <ele>60</ele>
        <time>2020-01-26T07:30:41Z</time>
      </trkpt>
      <trkpt lat="45.7691" lon="-1.2008">
        <ele>59.6</ele>
        <time>2020-01-26T07:30:42Z</time>
      </trkpt>
      <trkpt lat="45.76913" lon="-1.20085">
        <ele>59</ele>
        <time>2020-01-26T07:30:43Z</time>
      </trkpt>
      <trkpt lat="45.76917" lon="-1.20088">
        <ele>58.4</ele>
        <time>2020-01-26T07:30:44Z</time>
      </trkpt>
      <trkpt lat="45.76919" lon="-1.20092">
        <ele>58.2</ele>
        <time>2020-01-26T07:30:45Z</time>
      </trkpt>
      <trkpt lat="45.76923" lon="-1.20096">
        <ele>58.2</ele>
        <time>2020-01-26T07:30:46Z</time>
      </trkpt>
      <trkpt lat="45.76925" lon="-1.20098">
        <ele>58</ele>
        <time>2020-01-26T07:30:47Z</time>
      </trkpt>
      <trkpt lat="45.76928" lon="-1.20101">
        <ele>57.8</ele>
        <time>2020-01-26T07:30:48Z</time>
      </trkpt>
      <trkpt lat="45.7693" lon="-1.20103">
        <ele>57.6</ele>
        <time>2020-01-26T07:30:49Z</time>
      </trkpt>
      <trkpt lat="45.76933" lon="-1.20104">
        <ele>57.4</ele>
        <time>2020-01-26T07:30:50Z</time>
      </trkpt>
      <trkpt lat="45.76935" lon="-1.20107">
        <ele>57.6</ele>
        <time>2020-01-26T07:30:51Z</time>
      </trkpt>
      <trkpt lat="45.76938" lon="-1.20108">
        <ele>58</ele>
        <time>2020-01-26T07:30:52Z</time>
      </trkpt>
      <trkpt lat="45.7694" lon="-1.20111">
        <ele>58</ele>
        <time>2020-01-26T07:30:53Z</time>
      </trkpt>
      <trkpt lat="45.76941" lon="-1.20113">
        <ele>58.2</ele>
        <time>2020-01-26T07:30:54Z</time>
      </trkpt>
      <trkpt lat="45.76942" lon="-1.20115">
        <ele>58.4</ele>
        <time>2020-01-26T07:30:55Z</time>
      </trkpt>
      <trkpt lat="45.7694" lon="-1.20117">
        <ele>58.6</ele>
        <time>2020-01-26T07:30:56Z</time>
      </trkpt>
      <trkpt lat="45.76939" lon="-1.2012">
        <ele>58.8</ele>
        <time>2020-01-26T07:30:57Z</time>
      </trkpt>
      <trkpt lat="45.7694" lon="-1.20123">
        <ele>59</ele>
        <time>2020-01-26T07:30:58Z</time>
      </trkpt>
      <trkpt lat="45.76939" lon="-1.20127">
        <ele>59.4</ele>
        <time>2020-01-26T07:30:59Z</time>
      </trkpt>
      <trkpt lat="45.76939" lon="-1.20131">
        <ele>59.4</ele>
        <time>2020-01-26T07:31:00Z</time>
      </trkpt>
      <trkpt lat="45.76939" lon="-1.20136">
        <ele>58.8</ele>
        <time>2020-01-26T07:31:01Z</time>
      </trkpt>
      <trkpt lat="45.76939" lon="-1.20143">
        <ele>58</ele>
        <time>2020-01-26T07:31:02Z</time>
      </trkpt>
      <trkpt lat="45.76939" lon="-1.20149">
        <ele>57.6</ele>
        <time>2020-01-26T07:31:03Z</time>
      </trkpt>
      <trkpt lat="45.7694" lon="-1.20156">
        <ele>57.2</ele>
        <time>2020-01-26T07:31:04Z</time>
      </trkpt>
      <trkpt lat="45.76943" lon="-1.20162">
        <ele>57.2</ele>
        <time>2020-01-26T07:31:05Z</time>
      </trkpt>
      <trkpt lat="45.76945" lon="-1.20167">
        <ele>57.2</ele>
        <time>2020-01-26T07:31:06Z</time>
      </trkpt>
      <trkpt lat="45.76947" lon="-1.20172">
        <ele>57.4</ele>
        <time>2020-01-26T07:31:07Z</time>
      </trkpt>
      <trkpt lat="45.76948" lon="-1.20177">
        <ele>57.2</ele>
        <time>2020-01-26T07:31:08Z</time>
      </trkpt>
      <trkpt lat="45.7695" lon="-1.2018">
        <ele>56.6</ele>
        <time>2020-01-26T07:31:09Z</time>
      </trkpt>
      <trkpt lat="45.76954" lon="-1.20187">
        <ele>56</ele>
        <time>2020-01-26T07:31:10Z</time>
      </trkpt>
      <trkpt lat="45.76955" lon="-1.20193">
        <ele>55.4</ele>
        <time>2020-01-26T07:31:11Z</time>
      </trkpt>
      <trkpt lat="45.76958" lon="-1.20199">
        <ele>55.4</ele>
        <time>2020-01-26T07:31:12Z</time>
      </trkpt>
      <trkpt lat="45.76958" lon="-1.20204">
        <ele>55.2</ele>
        <time>2020-01-26T07:31:13Z</time>
      </trkpt>
      <trkpt lat="45.76961" lon="-1.20208">
        <ele>55.2</ele>
        <time>2020-01-26T07:31:14Z</time>
      </trkpt>
      <trkpt lat="45.76963" lon="-1.20214">
        <ele>55.4</ele>
        <time>2020-01-26T07:31:15Z</time>
      </trkpt>
      <trkpt lat="45.76965" lon="-1.20219">
        <ele>55.6</ele>
        <time>2020-01-26T07:31:16Z</time>
      </trkpt>
      <trkpt lat="45.76968" lon="-1.20225">
        <ele>55.4</ele>
        <time>2020-01-26T07:31:17Z</time>
      </trkpt>
      <trkpt lat="45.76971" lon="-1.20231">
        <ele>55.6</ele>
        <time>2020-01-26T07:31:18Z</time>
      </trkpt>
      <trkpt lat="45.76973" lon="-1.20237">
        <ele>55.6</ele>
        <time>2020-01-26T07:31:19Z</time>
      </trkpt>
      <trkpt lat="45.76975" lon="-1.20243">
        <ele>55.8</ele>
        <time>2020-01-26T07:31:20Z</time>
      </trkpt>
      <trkpt lat="45.76976" lon="-1.2025">
        <ele>56</ele>
        <time>2020-01-26T07:31:21Z</time>
      </trkpt>
      <trkpt lat="45.76977" lon="-1.20257">
        <ele>56</ele>
        <time>2020-01-26T07:31:22Z</time>
      </trkpt>
      <trkpt lat="45.76978" lon="-1.20263">
        <ele>56.2</ele>
        <time>2020-01-26T07:31:23Z</time>
      </trkpt>
      <trkpt lat="45.76978" lon="-1.20269">
        <ele>56.2</ele>
        <time>2020-01-26T07:31:24Z</time>
      </trkpt>
      <trkpt lat="45.76978" lon="-1.20275">
        <ele>56.2</ele>
        <time>2020-01-26T07:31:25Z</time>
      </trkpt>
      <trkpt lat="45.76978" lon="-1.20281">
        <ele>55.8</ele>
        <time>2020-01-26T07:31:26Z</time>
      </trkpt>
      <trkpt lat="45.76977" lon="-1.20287">
        <ele>55.6</ele>
        <time>2020-01-26T07:31:27Z</time>
      </trkpt>
      <trkpt lat="45.76975" lon="-1.20291">
        <ele>55.2</ele>
        <time>2020-01-26T07:31:28Z</time>
      </trkpt>
      <trkpt lat="45.76975" lon="-1.20296">
        <ele>55.2</ele>
        <time>2020-01-26T07:31:29Z</time>
      </trkpt>
      <trkpt lat="45.76975" lon="-1.20302">
        <ele>55.2</ele>
        <time>2020-01-26T07:31:30Z</time>
      </trkpt>
      <trkpt lat="45.76976" lon="-1.20308">
        <ele>54.8</ele>
        <time>2020-01-26T07:31:31Z</time>
      </trkpt>
      <trkpt lat="45.76977" lon="-1.20312">
        <ele>54.6</ele>
        <time>2020-01-26T07:31:32Z</time>
      </trkpt>
      <trkpt lat="45.76978" lon="-1.20318">
        <ele>54.4</ele>
        <time>2020-01-26T07:31:33Z</time>
      </trkpt>
      <trkpt lat="45.7698" lon="-1.20323">
        <ele>54.6</ele>
        <time>2020-01-26T07:31:34Z</time>
      </trkpt>
      <trkpt lat="45.76982" lon="-1.20327">
        <ele>55.2</ele>
        <time>2020-01-26T07:31:35Z</time>
      </trkpt>
      <trkpt lat="45.76985" lon="-1.20331">
        <ele>56</ele>
        <time>2020-01-26T07:31:36Z</time>
      </trkpt>
      <trkpt lat="45.76987" lon="-1.20336">
        <ele>56.6</ele>
        <time>2020-01-26T07:31:37Z</time>
      </trkpt>
      <trkpt lat="45.76988" lon="-1.2034">
        <ele>57.4</ele>
        <time>2020-01-26T07:31:38Z</time>
      </trkpt>
      <trkpt lat="45.76989" lon="-1.20343">
        <ele>57.6</ele>
        <time>2020-01-26T07:31:39Z</time>
      </trkpt>
      <trkpt lat="45.76992" lon="-1.20346">
        <ele>57.6</ele>
        <time>2020-01-26T07:31:40Z</time>
      </trkpt>
      <trkpt lat="45.76994" lon="-1.20349">
        <ele>58</ele>
        <time>2020-01-26T07:31:41Z</time>
      </trkpt>
      <trkpt lat="45.76996" lon="-1.20353">
        <ele>58.2</ele>
        <time>2020-01-26T07:31:42Z</time>
      </trkpt>
      <trkpt lat="45.76998" lon="-1.20358">
        <ele>58.4</ele>
        <time>2020-01-26T07:31:43Z</time>
      </trkpt>
      <trkpt lat="45.77" lon="-1.20362">
        <ele>58.6</ele>
        <time>2020-01-26T07:31:44Z</time>
      </trkpt>
      <trkpt lat="45.77001" lon="-1.20366">
        <ele>58.8</ele>
        <time>2020-01-26T07:31:45Z</time>
      </trkpt>
      <trkpt lat="45.77001" lon="-1.2037">
        <ele>59.2</ele>
        <time>2020-01-26T07:31:46Z</time>
      </trkpt>
      <trkpt lat="45.77001" lon="-1.20374">
        <ele>59</ele>
        <time>2020-01-26T07:31:47Z</time>
      </trkpt>
      <trkpt lat="45.77" lon="-1.20377">
        <ele>59</ele>
        <time>2020-01-26T07:31:48Z</time>
      </trkpt>
      <trkpt lat="45.77" lon="-1.20381">
        <ele>58.8</ele>
        <time>2020-01-26T07:31:49Z</time>
      </trkpt>
      <trkpt lat="45.77001" lon="-1.20384">
        <ele>58.4</ele>
        <time>2020-01-26T07:31:50Z</time>
      </trkpt>
      <trkpt lat="45.77002" lon="-1.20387">
        <ele>58.2</ele>
        <time>2020-01-26T07:31:51Z</time>
      </trkpt>
      <trkpt lat="45.77003" lon="-1.20391">
        <ele>58.2</ele>
        <time>2020-01-26T07:31:52Z</time>
      </trkpt>
      <trkpt lat="45.77003" lon="-1.20394">
        <ele>58.2</ele>
        <time>2020-01-26T07:31:53Z</time>
      </trkpt>
      <trkpt lat="45.77004" lon="-1.20397">
        <ele>58.4</ele>
        <time>2020-01-26T07:31:54Z</time>
      </trkpt>
      <trkpt lat="45.77007" lon="-1.20401">
        <ele>58.8</ele>
        <time>2020-01-26T07:31:55Z</time>
      </trkpt>
      <trkpt lat="45.77009" lon="-1.20404">
        <ele>59.2</ele>
        <time>2020-01-26T07:31:56Z</time>
      </trkpt>
      <trkpt lat="45.77011" lon="-1.20407">
        <ele>59.4</ele>
        <time>2020-01-26T07:31:57Z</time>
      </trkpt>
      <trkpt lat="45.77013" lon="-1.2041">
        <ele>60</ele>
        <time>2020-01-26T07:31:58Z</time>
      </trkpt>
      <trkpt lat="45.77016" lon="-1.20413">
        <ele>60</ele>
        <time>2020-01-26T07:31:59Z</time>
      </trkpt>
      <trkpt lat="45.77018" lon="-1.20416">
        <ele>60</ele>
        <time>2020-01-26T07:32:00Z</time>
      </trkpt>
      <trkpt lat="45.7702" lon="-1.20419">
        <ele>60.4</ele>
        <time>2020-01-26T07:32:01Z</time>
      </trkpt>
      <trkpt lat="45.77022" lon="-1.20421">
        <ele>61</ele>
        <time>2020-01-26T07:32:02Z</time>
      </trkpt>
      <trkpt lat="45.77023" lon="-1.20424">
        <ele>61.4</ele>
        <time>2020-01-26T07:32:03Z</time>
      </trkpt>
      <trkpt lat="45.77023" lon="-1.20426">
        <ele>61.6</ele>
        <time>2020-01-26T07:32:04Z</time>
      </trkpt>
      <trkpt lat="45.77023" lon="-1.20428">
        <ele>62</ele>
        <time>2020-01-26T07:32:05Z</time>
      </trkpt>
      <trkpt lat="45.77023" lon="-1.20429">
        <ele>61.6</ele>
        <time>2020-01-26T07:32:06Z</time>
      </trkpt>
      <trkpt lat="45.77022" lon="-1.20431">
        <ele>61.6</ele>
        <time>2020-01-26T07:32:07Z</time>
      </trkpt>
      <trkpt lat="45.77022" lon="-1.20433">
        <ele>61.4</ele>
        <time>2020-01-26T07:32:08Z</time>
      </trkpt>
      <trkpt lat="45.77022" lon="-1.20436">
        <ele>60.8</ele>
        <time>2020-01-26T07:32:09Z</time>
      </trkpt>
      <trkpt lat="45.77022" lon="-1.20439">
        <ele>60.4</ele>
        <time>2020-01-26T07:32:10Z</time>
      </trkpt>
      <trkpt lat="45.77022" lon="-1.20443">
        <ele>60.6</ele>
        <time>2020-01-26T07:32:11Z</time>
      </trkpt>
      <trkpt lat="45.77023" lon="-1.20446">
        <ele>60.6</ele>
        <time>2020-01-26T07:32:12Z</time>
      </trkpt>
      <trkpt lat="45.77024" lon="-1.20449">
        <ele>60.8</ele>
        <time>2020-01-26T07:32:13Z</time>
      </trkpt>
      <trkpt lat="45.77025" lon="-1.20453">
        <ele>61</ele>
        <time>2020-01-26T07:32:14Z</time>
      </trkpt>
      <trkpt lat="45.77026" lon="-1.20455">
        <ele>61</ele>
        <time>2020-01-26T07:32:15Z</time>
      </trkpt>
      <trkpt lat="45.77028" lon="-1.20458">
        <ele>61.4</ele>
        <time>2020-01-26T07:32:16Z</time>
      </trkpt>
      <trkpt lat="45.77029" lon="-1.20461">
        <ele>61.8</ele>
        <time>2020-01-26T07:32:17Z</time>
      </trkpt>
      <trkpt lat="45.77031" lon="-1.20463">
        <ele>62.2</ele>
        <time>2020-01-26T07:32:18Z</time>
      </trkpt>
      <trkpt lat="45.77032" lon="-1.20465">
        <ele>62.8</ele>
        <time>2020-01-26T07:32:19Z</time>
      </trkpt>
      <trkpt lat="45.77034" lon="-1.20467">
        <ele>63.4</ele>
        <time>2020-01-26T07:32:20Z</time>
      </trkpt>
      <trkpt lat="45.77036" lon="-1.20469">
        <ele>64.2</ele>
        <time>2020-01-26T07:32:21Z</time>
      </trkpt>
      <trkpt lat="45.77038" lon="-1.20472">
        <ele>64.6</ele>
        <time>2020-01-26T07:32:22Z</time>
      </trkpt>
      <trkpt lat="45.77039" lon="-1.20474">
        <ele>65</ele>
        <time>2020-01-26T07:32:23Z</time>
      </trkpt>
      <trkpt lat="45.7704" lon="-1.20475">
        <ele>65.2</ele>
        <time>2020-01-26T07:32:24Z</time>
      </trkpt>
      <trkpt lat="45.77042" lon="-1.20477">
        <ele>65.8</ele>
        <time>2020-01-26T07:32:25Z</time>
      </trkpt>
      <trkpt lat="45.77044" lon="-1.20479">
        <ele>66.4</ele>
        <time>2020-01-26T07:32:26Z</time>
      </trkpt>
      <trkpt lat="45.77045" lon="-1.2048">
        <ele>66.8</ele>
        <time>2020-01-26T07:32:27Z</time>
      </trkpt>
      <trkpt lat="45.77047" lon="-1.20481">
        <ele>67.6</ele>
        <time>2020-01-26T07:32:28Z</time>
      </trkpt>
      <trkpt lat="45.77048" lon="-1.20483">
        <ele>68.2</ele>
        <time>2020-01-26T07:32:29Z</time>
      </trkpt>
      <trkpt lat="45.77051" lon="-1.20485">
        <ele>68.6</ele>
        <time>2020-01-26T07:32:30Z</time>
      </trkpt>
      <trkpt lat="45.77052" lon="-1.20487">
        <ele>69</ele>
        <time>2020-01-26T07:32:31Z</time>
      </trkpt>
      <trkpt lat="45.77055" lon="-1.20489">
        <ele>69.4</ele>
        <time>2020-01-26T07:32:32Z</time>
      </trkpt>
      <trkpt lat="45.77057" lon="-1.20491">
        <ele>69.6</ele>
        <time>2020-01-26T07:32:33Z</time>
      </trkpt>
      <trkpt lat="45.77059" lon="-1.20493">
        <ele>69.4</ele>
        <time>2020-01-26T07:32:34Z</time>
      </trkpt>
      <trkpt lat="45.77061" lon="-1.20494">
        <ele>69.6</ele>
        <time>2020-01-26T07:32:35Z</time>
      </trkpt>
      <trkpt lat="45.77063" lon="-1.20494">
        <ele>69.4</ele>
        <time>2020-01-26T07:32:36Z</time>
      </trkpt>
      <trkpt lat="45.77065" lon="-1.20496">
        <ele>69.8</ele>
        <time>2020-01-26T07:32:37Z</time>
      </trkpt>
      <trkpt lat="45.77066" lon="-1.20498">
        <ele>70.2</ele>
        <time>2020-01-26T07:32:38Z</time>
      </trkpt>
      <trkpt lat="45.77069" lon="-1.20499">
        <ele>70.8</ele>
        <time>2020-01-26T07:32:39Z</time>
      </trkpt>
      <trkpt lat="45.77071" lon="-1.20501">
        <ele>71.6</ele>
        <time>2020-01-26T07:32:40Z</time>
      </trkpt>
      <trkpt lat="45.77073" lon="-1.20504">
        <ele>72.2</ele>
        <time>2020-01-26T07:32:41Z</time>
      </trkpt>
      <trkpt lat="45.77074" lon="-1.20505">
        <ele>72.6</ele>
        <time>2020-01-26T07:32:42Z</time>
      </trkpt>
      <trkpt lat="45.77076" lon="-1.20506">
        <ele>73</ele>
        <time>2020-01-26T07:32:43Z</time>
      </trkpt>
      <trkpt lat="45.77077" lon="-1.20508">
        <ele>73.4</ele>
        <time>2020-01-26T07:32:44Z</time>
      </trkpt>
      <trkpt lat="45.77079" lon="-1.2051">
        <ele>73.6</ele>
        <time>2020-01-26T07:32:45Z</time>
      </trkpt>
      <trkpt lat="45.77081" lon="-1.20511">
        <ele>74</ele>
        <time>2020-01-26T07:32:46Z</time>
      </trkpt>
      <trkpt lat="45.77082" lon="-1.20513">
        <ele>74.4</ele>
        <time>2020-01-26T07:32:47Z</time>
      </trkpt>
      <trkpt lat="45.77084" lon="-1.20515">
        <ele>74.6</ele>
        <time>2020-01-26T07:32:48Z</time>
      </trkpt>
      <trkpt lat="45.77086" lon="-1.20516">
        <ele>74.4</ele>
        <time>2020-01-26T07:32:49Z</time>
      </trkpt>
      <trkpt lat="45.77088" lon="-1.20517">
        <ele>74.2</ele>
        <time>2020-01-26T07:32:50Z</time>
      </trkpt>
      <trkpt lat="45.77089" lon="-1.20519">
        <ele>74</ele>
        <time>2020-01-26T07:32:51Z</time>
      </trkpt>
      <trkpt lat="45.77091" lon="-1.20521">
        <ele>73.4</ele>
        <time>2020-01-26T07:32:52Z</time>
      </trkpt>
      <trkpt lat="45.77093" lon="-1.20523">
        <ele>73.4</ele>
        <time>2020-01-26T07:32:53Z</time>
      </trkpt>
      <trkpt lat="45.77095" lon="-1.20525">
        <ele>73.4</ele>
        <time>2020-01-26T07:32:54Z</time>
      </trkpt>
      <trkpt lat="45.77095" lon="-1.20526">
        <ele>73.4</ele>
        <time>2020-01-26T07:32:55Z</time>
      </trkpt>
      <trkpt lat="45.77097" lon="-1.20528">
        <ele>74</ele>
        <time>2020-01-26T07:32:56Z</time>
      </trkpt>
      <trkpt lat="45.77099" lon="-1.20531">
        <ele>74.4</ele>
        <time>2020-01-26T07:32:57Z</time>
      </trkpt>
      <trkpt lat="45.77101" lon="-1.20534">
        <ele>75</ele>
        <time>2020-01-26T07:32:58Z</time>
      </trkpt>
      <trkpt lat="45.77102" lon="-1.20537">
        <ele>75</ele>
        <time>2020-01-26T07:32:59Z</time>
      </trkpt>
      <trkpt lat="45.77103" lon="-1.20539">
        <ele>75.2</ele>
        <time>2020-01-26T07:33:00Z</time>
      </trkpt>
      <trkpt lat="45.77105" lon="-1.20542">
        <ele>75.4</ele>
        <time>2020-01-26T07:33:01Z</time>
      </trkpt>
      <trkpt lat="45.77105" lon="-1.20545">
        <ele>75.6</ele>
        <time>2020-01-26T07:33:02Z</time>
      </trkpt>
      <trkpt lat="45.77107" lon="-1.20547">
        <ele>76</ele>
        <time>2020-01-26T07:33:03Z</time>
      </trkpt>
      <trkpt lat="45.77111" lon="-1.20548">
        <ele>76.4</ele>
        <time>2020-01-26T07:33:04Z</time>
      </trkpt>
      <trkpt lat="45.77115" lon="-1.20549">
        <ele>76.6</ele>
        <time>2020-01-26T07:33:05Z</time>
      </trkpt>
      <trkpt lat="45.77118" lon="-1.20549">
        <ele>77</ele>
        <time>2020-01-26T07:33:06Z</time>
      </trkpt>
      <trkpt lat="45.77121" lon="-1.2055">
        <ele>77.4</ele>
        <time>2020-01-26T07:33:07Z</time>
      </trkpt>
      <trkpt lat="45.77122" lon="-1.2055">
        <ele>78</ele>
        <time>2020-01-26T07:33:08Z</time>
      </trkpt>
      <trkpt lat="45.77124" lon="-1.20549">
        <ele>78.4</ele>
        <time>2020-01-26T07:33:09Z</time>
      </trkpt>
      <trkpt lat="45.77126" lon="-1.20549">
        <ele>78.6</ele>
        <time>2020-01-26T07:33:10Z</time>
      </trkpt>
      <trkpt lat="45.77127" lon="-1.20549">
        <ele>79</ele>
        <time>2020-01-26T07:33:11Z</time>
      </trkpt>
      <trkpt lat="45.77129" lon="-1.2055">
        <ele>79.2</ele>
        <time>2020-01-26T07:33:12Z</time>
      </trkpt>
      <trkpt lat="45.7713" lon="-1.20551">
        <ele>79</ele>
        <time>2020-01-26T07:33:13Z</time>
      </trkpt>
      <trkpt lat="45.77132" lon="-1.20555">
        <ele>78.8</ele>
        <time>2020-01-26T07:33:14Z</time>
      </trkpt>
      <trkpt lat="45.77134" lon="-1.20558">
        <ele>78.6</ele>
        <time>2020-01-26T07:33:15Z</time>
      </trkpt>
      <trkpt lat="45.77135" lon="-1.20563">
        <ele>78</ele>
        <time>2020-01-26T07:33:16Z</time>
      </trkpt>
      <trkpt lat="45.77137" lon="-1.20567">
        <ele>77.8</ele>
        <time>2020-01-26T07:33:17Z</time>
      </trkpt>
      <trkpt lat="45.7714" lon="-1.2057">
        <ele>77.6</ele>
        <time>2020-01-26T07:33:18Z</time>
      </trkpt>
      <trkpt lat="45.77143" lon="-1.20573">
        <ele>77.6</ele>
        <time>2020-01-26T07:33:19Z</time>
      </trkpt>
      <trkpt lat="45.77145" lon="-1.20574">
        <ele>77.8</ele>
        <time>2020-01-26T07:33:20Z</time>
      </trkpt>
      <trkpt lat="45.77148" lon="-1.20575">
        <ele>77.8</ele>
        <time>2020-01-26T07:33:21Z</time>
      </trkpt>
      <trkpt lat="45.7715" lon="-1.20577">
        <ele>77</ele>
        <time>2020-01-26T07:33:22Z</time>
      </trkpt>
      <trkpt lat="45.77153" lon="-1.20579">
        <ele>76.2</ele>
        <time>2020-01-26T07:33:23Z</time>
      </trkpt>
      <trkpt lat="45.77156" lon="-1.20578">
        <ele>76</ele>
        <time>2020-01-26T07:33:24Z</time>
      </trkpt>
      <trkpt lat="45.77159" lon="-1.20577">
        <ele>75.4</ele>
        <time>2020-01-26T07:33:25Z</time>
      </trkpt>
      <trkpt lat="45.77161" lon="-1.20578">
        <ele>75</ele>
        <time>2020-01-26T07:33:26Z</time>
      </trkpt>
      <trkpt lat="45.77163" lon="-1.20581">
        <ele>74.8</ele>
        <time>2020-01-26T07:33:27Z</time>
      </trkpt>
      <trkpt lat="45.77165" lon="-1.20584">
        <ele>74.6</ele>
        <time>2020-01-26T07:33:28Z</time>
      </trkpt>
      <trkpt lat="45.77165" lon="-1.20588">
        <ele>74.4</ele>
        <time>2020-01-26T07:33:29Z</time>
      </trkpt>
      <trkpt lat="45.77165" lon="-1.20591">
        <ele>74.4</ele>
        <time>2020-01-26T07:33:30Z</time>
      </trkpt>
      <trkpt lat="45.77165" lon="-1.20594">
        <ele>74.6</ele>
        <time>2020-01-26T07:33:31Z</time>
      </trkpt>
      <trkpt lat="45.77166" lon="-1.206">
        <ele>74.6</ele>
        <time>2020-01-26T07:33:32Z</time>
      </trkpt>
      <trkpt lat="45.77167" lon="-1.20605">
        <ele>74.8</ele>
        <time>2020-01-26T07:33:33Z</time>
      </trkpt>
      <trkpt lat="45.77167" lon="-1.20611">
        <ele>75</ele>
        <time>2020-01-26T07:33:34Z</time>
      </trkpt>
      <trkpt lat="45.77168" lon="-1.20616">
        <ele>75.4</ele>
        <time>2020-01-26T07:33:35Z</time>
      </trkpt>
      <trkpt lat="45.77168" lon="-1.20621">
        <ele>75.6</ele>
        <time>2020-01-26T07:33:36Z</time>
      </trkpt>
      <trkpt lat="45.77169" lon="-1.20626">
        <ele>75.8</ele>
        <time>2020-01-26T07:33:37Z</time>
      </trkpt>
      <trkpt lat="45.77169" lon="-1.2063">
        <ele>76.2</ele>
        <time>2020-01-26T07:33:38Z</time>
      </trkpt>
      <trkpt lat="45.77169" lon="-1.20635">
        <ele>76</ele>
        <time>2020-01-26T07:33:39Z</time>
      </trkpt>
      <trkpt lat="45.77169" lon="-1.20638">
        <ele>75.8</ele>
        <time>2020-01-26T07:33:40Z</time>
      </trkpt>
      <trkpt lat="45.77169" lon="-1.20643">
        <ele>75.6</ele>
        <time>2020-01-26T07:33:41Z</time>
      </trkpt>
      <trkpt lat="45.77169" lon="-1.20646">
        <ele>75.4</ele>
        <time>2020-01-26T07:33:42Z</time>
      </trkpt>
      <trkpt lat="45.77169" lon="-1.2065">
        <ele>75.4</ele>
        <time>2020-01-26T07:33:43Z</time>
      </trkpt>
      <trkpt lat="45.77169" lon="-1.20654">
        <ele>75.2</ele>
        <time>2020-01-26T07:33:44Z</time>
      </trkpt>
      <trkpt lat="45.77169" lon="-1.20658">
        <ele>75.6</ele>
        <time>2020-01-26T07:33:45Z</time>
      </trkpt>
      <trkpt lat="45.77169" lon="-1.20662">
        <ele>75.8</ele>
        <time>2020-01-26T07:33:46Z</time>
      </trkpt>
      <trkpt lat="45.77169" lon="-1.20667">
        <ele>76.2</ele>
        <time>2020-01-26T07:33:47Z</time>
      </trkpt>
      <trkpt lat="45.7717" lon="-1.20671">
        <ele>76.6</ele>
        <time>2020-01-26T07:33:48Z</time>
      </trkpt>
      <trkpt lat="45.77171" lon="-1.20675">
        <ele>77</ele>
        <time>2020-01-26T07:33:49Z</time>
      </trkpt>
      <trkpt lat="45.77171" lon="-1.20679">
        <ele>77.4</ele>
        <time>2020-01-26T07:33:50Z</time>
      </trkpt>
      <trkpt lat="45.77171" lon="-1.20682">
        <ele>77.6</ele>
        <time>2020-01-26T07:33:51Z</time>
      </trkpt>
      <trkpt lat="45.77171" lon="-1.20686">
        <ele>78.2</ele>
        <time>2020-01-26T07:33:52Z</time>
      </trkpt>
      <trkpt lat="45.7717" lon="-1.20691">
        <ele>78.4</ele>
        <time>2020-01-26T07:33:53Z</time>
      </trkpt>
      <trkpt lat="45.77168" lon="-1.20695">
        <ele>78.6</ele>
        <time>2020-01-26T07:33:54Z</time>
      </trkpt>
      <trkpt lat="45.77167" lon="-1.20699">
        <ele>78.6</ele>
        <time>2020-01-26T07:33:55Z</time>
      </trkpt>
      <trkpt lat="45.77166" lon="-1.20703">
        <ele>78.2</ele>
        <time>2020-01-26T07:33:56Z</time>
      </trkpt>
      <trkpt lat="45.77166" lon="-1.20707">
        <ele>77.6</ele>
        <time>2020-01-26T07:33:57Z</time>
      </trkpt>
      <trkpt lat="45.77166" lon="-1.20712">
        <ele>77</ele>
        <time>2020-01-26T07:33:58Z</time>
      </trkpt>
      <trkpt lat="45.77166" lon="-1.20717">
        <ele>76.2</ele>
        <time>2020-01-26T07:33:59Z</time>
      </trkpt>
      <trkpt lat="45.77166" lon="-1.20721">
        <ele>75.6</ele>
        <time>2020-01-26T07:34:00Z</time>
      </trkpt>
      <trkpt lat="45.77164" lon="-1.20725">
        <ele>75</ele>
        <time>2020-01-26T07:34:01Z</time>
      </trkpt>
      <trkpt lat="45.77164" lon="-1.20728">
        <ele>74.2</ele>
        <time>2020-01-26T07:34:02Z</time>
      </trkpt>
      <trkpt lat="45.77164" lon="-1.20731">
        <ele>74</ele>
        <time>2020-01-26T07:34:03Z</time>
      </trkpt>
      <trkpt lat="45.77166" lon="-1.20735">
        <ele>73.6</ele>
        <time>2020-01-26T07:34:04Z</time>
      </trkpt>
      <trkpt lat="45.77167" lon="-1.20738">
        <ele>73.2</ele>
        <time>2020-01-26T07:34:05Z</time>
      </trkpt>
      <trkpt lat="45.77167" lon="-1.20742">
        <ele>72.4</ele>
        <time>2020-01-26T07:34:06Z</time>
      </trkpt>
      <trkpt lat="45.77168" lon="-1.20746">
        <ele>71.8</ele>
        <time>2020-01-26T07:34:07Z</time>
      </trkpt>
      <trkpt lat="45.77168" lon="-1.20751">
        <ele>71</ele>
        <time>2020-01-26T07:34:08Z</time>
      </trkpt>
      <trkpt lat="45.77169" lon="-1.20754">
        <ele>70.6</ele>
        <time>2020-01-26T07:34:09Z</time>
      </trkpt>
      <trkpt lat="45.77169" lon="-1.20762">
        <ele>70.4</ele>
        <time>2020-01-26T07:34:10Z</time>
      </trkpt>
      <trkpt lat="45.7717" lon="-1.2077">
        <ele>70.6</ele>
        <time>2020-01-26T07:34:11Z</time>
      </trkpt>
      <trkpt lat="45.7717" lon="-1.20779">
        <ele>70.8</ele>
        <time>2020-01-26T07:34:12Z</time>
      </trkpt>
      <trkpt lat="45.77171" lon="-1.20788">
        <ele>70.8</ele>
        <time>2020-01-26T07:34:13Z</time>
      </trkpt>
      <trkpt lat="45.77172" lon="-1.20798">
        <ele>71.2</ele>
        <time>2020-01-26T07:34:14Z</time>
      </trkpt>
      <trkpt lat="45.77174" lon="-1.20807">
        <ele>71.6</ele>
        <time>2020-01-26T07:34:15Z</time>
      </trkpt>
      <trkpt lat="45.77174" lon="-1.20816">
        <ele>71.6</ele>
        <time>2020-01-26T07:34:16Z</time>
      </trkpt>
      <trkpt lat="45.77175" lon="-1.20828">
        <ele>71.2</ele>
        <time>2020-01-26T07:34:17Z</time>
      </trkpt>
      <trkpt lat="45.77174" lon="-1.20841">
        <ele>70.6</ele>
        <time>2020-01-26T07:34:18Z</time>
      </trkpt>
      <trkpt lat="45.77174" lon="-1.20855">
        <ele>69.6</ele>
        <time>2020-01-26T07:34:19Z</time>
      </trkpt>
      <trkpt lat="45.77174" lon="-1.20869">
        <ele>68.8</ele>
        <time>2020-01-26T07:34:20Z</time>
      </trkpt>
      <trkpt lat="45.77176" lon="-1.20882">
        <ele>68</ele>
        <time>2020-01-26T07:34:21Z</time>
      </trkpt>
      <trkpt lat="45.7718" lon="-1.20892">
        <ele>67.2</ele>
        <time>2020-01-26T07:34:22Z</time>
      </trkpt>
      <trkpt lat="45.77178" lon="-1.20907">
        <ele>67</ele>
        <time>2020-01-26T07:34:23Z</time>
      </trkpt>
      <trkpt lat="45.77179" lon="-1.2092">
        <ele>66.4</ele>
        <time>2020-01-26T07:34:24Z</time>
      </trkpt>
      <trkpt lat="45.77179" lon="-1.20934">
        <ele>66</ele>
        <time>2020-01-26T07:34:25Z</time>
      </trkpt>
      <trkpt lat="45.7718" lon="-1.20942">
        <ele>65.8</ele>
        <time>2020-01-26T07:34:26Z</time>
      </trkpt>
      <trkpt lat="45.77179" lon="-1.20951">
        <ele>65.4</ele>
        <time>2020-01-26T07:34:27Z</time>
      </trkpt>
      <trkpt lat="45.77179" lon="-1.2096">
        <ele>64.8</ele>
        <time>2020-01-26T07:34:28Z</time>
      </trkpt>
      <trkpt lat="45.77178" lon="-1.20964">
        <ele>64.6</ele>
        <time>2020-01-26T07:34:29Z</time>
      </trkpt>
      <trkpt lat="45.77178" lon="-1.2097">
        <ele>65</ele>
        <time>2020-01-26T07:34:30Z</time>
      </trkpt>
      <trkpt lat="45.77178" lon="-1.20975">
        <ele>65.8</ele>
        <time>2020-01-26T07:34:31Z</time>
      </trkpt>
      <trkpt lat="45.7718" lon="-1.20978">
        <ele>66</ele>
        <time>2020-01-26T07:34:32Z</time>
      </trkpt>
      <trkpt lat="45.77182" lon="-1.20983">
        <ele>66.2</ele>
        <time>2020-01-26T07:34:33Z</time>
      </trkpt>
      <trkpt lat="45.77182" lon="-1.20986">
        <ele>66.2</ele>
        <time>2020-01-26T07:34:34Z</time>
      </trkpt>
      <trkpt lat="45.77183" lon="-1.20989">
        <ele>66.6</ele>
        <time>2020-01-26T07:34:35Z</time>
      </trkpt>
      <trkpt lat="45.77184" lon="-1.20992">
        <ele>67.4</ele>
        <time>2020-01-26T07:34:36Z</time>
      </trkpt>
      <trkpt lat="45.77185" lon="-1.20995">
        <ele>67.4</ele>
        <time>2020-01-26T07:34:37Z</time>
      </trkpt>
      <trkpt lat="45.77186" lon="-1.20999">
        <ele>67.6</ele>
        <time>2020-01-26T07:34:38Z</time>
      </trkpt>
      <trkpt lat="45.77188" lon="-1.21004">
        <ele>67.4</ele>
        <time>2020-01-26T07:34:39Z</time>
      </trkpt>
      <trkpt lat="45.77188" lon="-1.21009">
        <ele>67.4</ele>
        <time>2020-01-26T07:34:40Z</time>
      </trkpt>
      <trkpt lat="45.77191" lon="-1.21013">
        <ele>68</ele>
        <time>2020-01-26T07:34:41Z</time>
      </trkpt>
      <trkpt lat="45.77192" lon="-1.21015">
        <ele>68.2</ele>
        <time>2020-01-26T07:34:42Z</time>
      </trkpt>
      <trkpt lat="45.77194" lon="-1.21016">
        <ele>68.4</ele>
        <time>2020-01-26T07:34:43Z</time>
      </trkpt>
      <trkpt lat="45.77196" lon="-1.21018">
        <ele>68.6</ele>
        <time>2020-01-26T07:34:44Z</time>
      </trkpt>
      <trkpt lat="45.77196" lon="-1.21018">
        <ele>68.8</ele>
        <time>2020-01-26T07:34:45Z</time>
      </trkpt>
      <trkpt lat="45.77199" lon="-1.21025">
        <ele>68</ele>
        <time>2020-01-26T07:34:46Z</time>
      </trkpt>
      <trkpt lat="45.77201" lon="-1.21029">
        <ele>66.4</ele>
        <time>2020-01-26T07:34:47Z</time>
      </trkpt>
      <trkpt lat="45.77205" lon="-1.21033">
        <ele>64.4</ele>
        <time>2020-01-26T07:34:48Z</time>
      </trkpt>
      <trkpt lat="45.77206" lon="-1.21039">
        <ele>62.8</ele>
        <time>2020-01-26T07:34:49Z</time>
      </trkpt>
      <trkpt lat="45.77208" lon="-1.21045">
        <ele>62</ele>
        <time>2020-01-26T07:34:50Z</time>
      </trkpt>
      <trkpt lat="45.77209" lon="-1.2105">
        <ele>61.6</ele>
        <time>2020-01-26T07:34:51Z</time>
      </trkpt>
      <trkpt lat="45.77212" lon="-1.21055">
        <ele>61.2</ele>
        <time>2020-01-26T07:34:52Z</time>
      </trkpt>
      <trkpt lat="45.77215" lon="-1.21059">
        <ele>60.6</ele>
        <time>2020-01-26T07:34:53Z</time>
      </trkpt>
      <trkpt lat="45.77218" lon="-1.21064">
        <ele>60.8</ele>
        <time>2020-01-26T07:34:54Z</time>
      </trkpt>
      <trkpt lat="45.77221" lon="-1.2107">
        <ele>60.6</ele>
        <time>2020-01-26T07:34:55Z</time>
      </trkpt>
      <trkpt lat="45.77224" lon="-1.21075">
        <ele>60.4</ele>
        <time>2020-01-26T07:34:56Z</time>
      </trkpt>
      <trkpt lat="45.77227" lon="-1.21079">
        <ele>60</ele>
        <time>2020-01-26T07:34:57Z</time>
      </trkpt>
      <trkpt lat="45.7723" lon="-1.21083">
        <ele>60</ele>
        <time>2020-01-26T07:34:58Z</time>
      </trkpt>
      <trkpt lat="45.77231" lon="-1.21087">
        <ele>60</ele>
        <time>2020-01-26T07:34:59Z</time>
      </trkpt>
      <trkpt lat="45.77234" lon="-1.21093">
        <ele>60.6</ele>
        <time>2020-01-26T07:35:00Z</time>
      </trkpt>
      <trkpt lat="45.77236" lon="-1.21095">
        <ele>61</ele>
        <time>2020-01-26T07:35:01Z</time>
      </trkpt>
      <trkpt lat="45.7724" lon="-1.21099">
        <ele>61.6</ele>
        <time>2020-01-26T07:35:02Z</time>
      </trkpt>
      <trkpt lat="45.77241" lon="-1.211">
        <ele>62.6</ele>
        <time>2020-01-26T07:35:03Z</time>
      </trkpt>
      <trkpt lat="45.77243" lon="-1.21104">
        <ele>63.4</ele>
        <time>2020-01-26T07:35:04Z</time>
      </trkpt>
      <trkpt lat="45.77244" lon="-1.21108">
        <ele>63</ele>
        <time>2020-01-26T07:35:05Z</time>
      </trkpt>
      <trkpt lat="45.77245" lon="-1.21112">
        <ele>62.6</ele>
        <time>2020-01-26T07:35:06Z</time>
      </trkpt>
      <trkpt lat="45.77246" lon="-1.21116">
        <ele>62.4</ele>
        <time>2020-01-26T07:35:07Z</time>
      </trkpt>
      <trkpt lat="45.77247" lon="-1.2112">
        <ele>62.8</ele>
        <time>2020-01-26T07:35:08Z</time>
      </trkpt>
      <trkpt lat="45.77249" lon="-1.21125">
        <ele>63.2</ele>
        <time>2020-01-26T07:35:09Z</time>
      </trkpt>
      <trkpt lat="45.7725" lon="-1.21127">
        <ele>63.4</ele>
        <time>2020-01-26T07:35:10Z</time>
      </trkpt>
      <trkpt lat="45.7725" lon="-1.21128">
        <ele>63.6</ele>
        <time>2020-01-26T07:35:11Z</time>
      </trkpt>
      <trkpt lat="45.77251" lon="-1.2113">
        <ele>63.6</ele>
        <time>2020-01-26T07:35:12Z</time>
      </trkpt>
      <trkpt lat="45.77252" lon="-1.21132">
        <ele>63.6</ele>
        <time>2020-01-26T07:35:13Z</time>
      </trkpt>
      <trkpt lat="45.77254" lon="-1.21134">
        <ele>63.6</ele>
        <time>2020-01-26T07:35:14Z</time>
      </trkpt>
      <trkpt lat="45.77254" lon="-1.21135">
        <ele>63.4</ele>
        <time>2020-01-26T07:35:15Z</time>
      </trkpt>
      <trkpt lat="45.77256" lon="-1.21138">
        <ele>63.8</ele>
        <time>2020-01-26T07:35:16Z</time>
      </trkpt>
      <trkpt lat="45.77257" lon="-1.2114">
        <ele>64.4</ele>
        <time>2020-01-26T07:35:17Z</time>
      </trkpt>
      <trkpt lat="45.77258" lon="-1.21142">
        <ele>64.8</ele>
        <time>2020-01-26T07:35:18Z</time>
      </trkpt>
      <trkpt lat="45.77259" lon="-1.21144">
        <ele>64.8</ele>
        <time>2020-01-26T07:35:19Z</time>
      </trkpt>
      <trkpt lat="45.7726" lon="-1.21146">
        <ele>65</ele>
        <time>2020-01-26T07:35:20Z</time>
      </trkpt>
      <trkpt lat="45.77261" lon="-1.21147">
        <ele>65.4</ele>
        <time>2020-01-26T07:35:21Z</time>
      </trkpt>
      <trkpt lat="45.77262" lon="-1.21148">
        <ele>66.2</ele>
        <time>2020-01-26T07:35:22Z</time>
      </trkpt>
      <trkpt lat="45.77262" lon="-1.21149">
        <ele>66.8</ele>
        <time>2020-01-26T07:35:23Z</time>
      </trkpt>
      <trkpt lat="45.77263" lon="-1.2115">
        <ele>67.4</ele>
        <time>2020-01-26T07:35:24Z</time>
      </trkpt>
      <trkpt lat="45.77264" lon="-1.21151">
        <ele>67.8</ele>
        <time>2020-01-26T07:35:25Z</time>
      </trkpt>
      <trkpt lat="45.77266" lon="-1.21153">
        <ele>68.4</ele>
        <time>2020-01-26T07:35:26Z</time>
      </trkpt>
      <trkpt lat="45.77267" lon="-1.21154">
        <ele>69</ele>
        <time>2020-01-26T07:35:27Z</time>
      </trkpt>
      <trkpt lat="45.77268" lon="-1.21156">
        <ele>69.2</ele>
        <time>2020-01-26T07:35:28Z</time>
      </trkpt>
      <trkpt lat="45.77269" lon="-1.21158">
        <ele>69.4</ele>
        <time>2020-01-26T07:35:29Z</time>
      </trkpt>
      <trkpt lat="45.77269" lon="-1.2116">
        <ele>68.6</ele>
        <time>2020-01-26T07:35:30Z</time>
      </trkpt>
      <trkpt lat="45.77269" lon="-1.21162">
        <ele>67.8</ele>
        <time>2020-01-26T07:35:31Z</time>
      </trkpt>
      <trkpt lat="45.7727" lon="-1.21164">
        <ele>67.4</ele>
        <time>2020-01-26T07:35:32Z</time>
      </trkpt>
      <trkpt lat="45.7727" lon="-1.21165">
        <ele>67.4</ele>
        <time>2020-01-26T07:35:33Z</time>
      </trkpt>
      <trkpt lat="45.77271" lon="-1.21166">
        <ele>67.4</ele>
        <time>2020-01-26T07:35:34Z</time>
      </trkpt>
      <trkpt lat="45.77271" lon="-1.21167">
        <ele>67.6</ele>
        <time>2020-01-26T07:35:35Z</time>
      </trkpt>
      <trkpt lat="45.77271" lon="-1.21167">
        <ele>67.6</ele>
        <time>2020-01-26T07:35:36Z</time>
      </trkpt>
      <trkpt lat="45.77271" lon="-1.21167">
        <ele>67.2</ele>
        <time>2020-01-26T07:35:37Z</time>
      </trkpt>
      <trkpt lat="45.77271" lon="-1.21168">
        <ele>67.2</ele>
        <time>2020-01-26T07:35:38Z</time>
      </trkpt>
      <trkpt lat="45.77271" lon="-1.21168">
        <ele>67.4</ele>
        <time>2020-01-26T07:35:39Z</time>
      </trkpt>
      <trkpt lat="45.77272" lon="-1.21169">
        <ele>67.8</ele>
        <time>2020-01-26T07:35:40Z</time>
      </trkpt>
      <trkpt lat="45.77272" lon="-1.21169">
        <ele>68.2</ele>
        <time>2020-01-26T07:35:41Z</time>
      </trkpt>
      <trkpt lat="45.77272" lon="-1.2117">
        <ele>68.8</ele>
        <time>2020-01-26T07:35:42Z</time>
      </trkpt>
      <trkpt lat="45.77272" lon="-1.2117">
        <ele>69.4</ele>
        <time>2020-01-26T07:35:43Z</time>
      </trkpt>
      <trkpt lat="45.77273" lon="-1.2117">
        <ele>70</ele>
        <time>2020-01-26T07:35:44Z</time>
      </trkpt>
      <trkpt lat="45.77274" lon="-1.21171">
        <ele>70.6</ele>
        <time>2020-01-26T07:35:45Z</time>
      </trkpt>
      <trkpt lat="45.77274" lon="-1.21171">
        <ele>71</ele>
        <time>2020-01-26T07:35:46Z</time>
      </trkpt>
      <trkpt lat="45.77275" lon="-1.21172">
        <ele>71.6</ele>
        <time>2020-01-26T07:35:47Z</time>
      </trkpt>
      <trkpt lat="45.77275" lon="-1.21174">
        <ele>72.2</ele>
        <time>2020-01-26T07:35:48Z</time>
      </trkpt>
      <trkpt lat="45.77275" lon="-1.21174">
        <ele>72.6</ele>
        <time>2020-01-26T07:35:49Z</time>
      </trkpt>
      <trkpt lat="45.77276" lon="-1.21175">
        <ele>73</ele>
        <time>2020-01-26T07:35:50Z</time>
      </trkpt>
      <trkpt lat="45.77277" lon="-1.21177">
        <ele>74</ele>
        <time>2020-01-26T07:35:51Z</time>
      </trkpt>
      <trkpt lat="45.77277" lon="-1.21178">
        <ele>74.6</ele>
        <time>2020-01-26T07:35:52Z</time>
      </trkpt>
      <trkpt lat="45.77277" lon="-1.21179">
        <ele>74.8</ele>
        <time>2020-01-26T07:35:53Z</time>
      </trkpt>
      <trkpt lat="45.77277" lon="-1.2118">
        <ele>75.2</ele>
        <time>2020-01-26T07:35:54Z</time>
      </trkpt>
      <trkpt lat="45.77277" lon="-1.2118">
        <ele>75.4</ele>
        <time>2020-01-26T07:35:55Z</time>
      </trkpt>
      <trkpt lat="45.77277" lon="-1.21182">
        <ele>75.8</ele>
        <time>2020-01-26T07:35:56Z</time>
      </trkpt>
      <trkpt lat="45.77277" lon="-1.21184">
        <ele>75.8</ele>
        <time>2020-01-26T07:35:57Z</time>
      </trkpt>
      <trkpt lat="45.77277" lon="-1.21185">
        <ele>75.2</ele>
        <time>2020-01-26T07:35:58Z</time>
      </trkpt>
      <trkpt lat="45.77278" lon="-1.21188">
        <ele>74.4</ele>
        <time>2020-01-26T07:35:59Z</time>
      </trkpt>
      <trkpt lat="45.77278" lon="-1.21189">
        <ele>74.2</ele>
        <time>2020-01-26T07:36:00Z</time>
      </trkpt>
      <trkpt lat="45.77278" lon="-1.21191">
        <ele>74.2</ele>
        <time>2020-01-26T07:36:01Z</time>
      </trkpt>
      <trkpt lat="45.7728" lon="-1.21192">
        <ele>74.4</ele>
        <time>2020-01-26T07:36:02Z</time>
      </trkpt>
      <trkpt lat="45.7728" lon="-1.21192">
        <ele>74.8</ele>
        <time>2020-01-26T07:36:03Z</time>
      </trkpt>
      <trkpt lat="45.77281" lon="-1.21194">
        <ele>74.8</ele>
        <time>2020-01-26T07:36:04Z</time>
      </trkpt>
      <trkpt lat="45.77281" lon="-1.21195">
        <ele>75.2</ele>
        <time>2020-01-26T07:36:05Z</time>
      </trkpt>
      <trkpt lat="45.77282" lon="-1.21196">
        <ele>75.6</ele>
        <time>2020-01-26T07:36:06Z</time>
      </trkpt>
      <trkpt lat="45.77283" lon="-1.21198">
        <ele>76</ele>
        <time>2020-01-26T07:36:07Z</time>
      </trkpt>
      <trkpt lat="45.77285" lon="-1.21201">
        <ele>76.4</ele>
        <time>2020-01-26T07:36:08Z</time>
      </trkpt>
      <trkpt lat="45.77286" lon="-1.21203">
        <ele>76.4</ele>
        <time>2020-01-26T07:36:09Z</time>
      </trkpt>
      <trkpt lat="45.77287" lon="-1.21206">
        <ele>76.6</ele>
        <time>2020-01-26T07:36:10Z</time>
      </trkpt>
      <trkpt lat="45.77288" lon="-1.21207">
        <ele>76.6</ele>
        <time>2020-01-26T07:36:11Z</time>
      </trkpt>
      <trkpt lat="45.77289" lon="-1.21209">
        <ele>77</ele>
        <time>2020-01-26T07:36:12Z</time>
      </trkpt>
      <trkpt lat="45.77291" lon="-1.21212">
        <ele>77</ele>
        <time>2020-01-26T07:36:13Z</time>
      </trkpt>
      <trkpt lat="45.77293" lon="-1.21215">
        <ele>77.2</ele>
        <time>2020-01-26T07:36:14Z</time>
      </trkpt>
      <trkpt lat="45.77294" lon="-1.21217">
        <ele>77.6</ele>
        <time>2020-01-26T07:36:15Z</time>
      </trkpt>
      <trkpt lat="45.77294" lon="-1.2122">
        <ele>77.8</ele>
        <time>2020-01-26T07:36:16Z</time>
      </trkpt>
      <trkpt lat="45.77294" lon="-1.21223">
        <ele>77.4</ele>
        <time>2020-01-26T07:36:17Z</time>
      </trkpt>
      <trkpt lat="45.77294" lon="-1.21225">
        <ele>77.2</ele>
        <time>2020-01-26T07:36:18Z</time>
      </trkpt>
      <trkpt lat="45.77295" lon="-1.21227">
        <ele>77.2</ele>
        <time>2020-01-26T07:36:19Z</time>
      </trkpt>
      <trkpt lat="45.77297" lon="-1.21229">
        <ele>77.2</ele>
        <time>2020-01-26T07:36:20Z</time>
      </trkpt>
      <trkpt lat="45.77298" lon="-1.21232">
        <ele>77.4</ele>
        <time>2020-01-26T07:36:21Z</time>
      </trkpt>
      <trkpt lat="45.77299" lon="-1.21234">
        <ele>78</ele>
        <time>2020-01-26T07:36:22Z</time>
      </trkpt>
      <trkpt lat="45.773" lon="-1.21237">
        <ele>78.6</ele>
        <time>2020-01-26T07:36:23Z</time>
      </trkpt>
      <trkpt lat="45.77302" lon="-1.21241">
        <ele>78.6</ele>
        <time>2020-01-26T07:36:24Z</time>
      </trkpt>
      <trkpt lat="45.77303" lon="-1.21243">
        <ele>79.2</ele>
        <time>2020-01-26T07:36:25Z</time>
      </trkpt>
      <trkpt lat="45.77304" lon="-1.21244">
        <ele>79.4</ele>
        <time>2020-01-26T07:36:26Z</time>
      </trkpt>
      <trkpt lat="45.77306" lon="-1.21246">
        <ele>79.4</ele>
        <time>2020-01-26T07:36:27Z</time>
      </trkpt>
      <trkpt lat="45.77307" lon="-1.21249">
        <ele>79.2</ele>
        <time>2020-01-26T07:36:28Z</time>
      </trkpt>
      <trkpt lat="45.77308" lon="-1.21251">
        <ele>79.2</ele>
        <time>2020-01-26T07:36:29Z</time>
      </trkpt>
      <trkpt lat="45.77309" lon="-1.21253">
        <ele>79.4</ele>
        <time>2020-01-26T07:36:30Z</time>
      </trkpt>
      <trkpt lat="45.77311" lon="-1.21254">
        <ele>80.2</ele>
        <time>2020-01-26T07:36:31Z</time>
      </trkpt>
      <trkpt lat="45.77312" lon="-1.21256">
        <ele>80.6</ele>
        <time>2020-01-26T07:36:32Z</time>
      </trkpt>
      <trkpt lat="45.77313" lon="-1.21259">
        <ele>81.2</ele>
        <time>2020-01-26T07:36:33Z</time>
      </trkpt>
      <trkpt lat="45.77314" lon="-1.21261">
        <ele>81.6</ele>
        <time>2020-01-26T07:36:34Z</time>
      </trkpt>
      <trkpt lat="45.77315" lon="-1.21263">
        <ele>82.2</ele>
        <time>2020-01-26T07:36:35Z</time>
      </trkpt>
      <trkpt lat="45.77317" lon="-1.21266">
        <ele>83.4</ele>
        <time>2020-01-26T07:36:36Z</time>
      </trkpt>
      <trkpt lat="45.77317" lon="-1.21267">
        <ele>84.4</ele>
        <time>2020-01-26T07:36:37Z</time>
      </trkpt>
      <trkpt lat="45.77319" lon="-1.2127">
        <ele>84.8</ele>
        <time>2020-01-26T07:36:38Z</time>
      </trkpt>
      <trkpt lat="45.77319" lon="-1.21272">
        <ele>85.4</ele>
        <time>2020-01-26T07:36:39Z</time>
      </trkpt>
      <trkpt lat="45.7732" lon="-1.21274">
        <ele>85.8</ele>
        <time>2020-01-26T07:36:40Z</time>
      </trkpt>
      <trkpt lat="45.77322" lon="-1.21276">
        <ele>86</ele>
        <time>2020-01-26T07:36:41Z</time>
      </trkpt>
      <trkpt lat="45.77323" lon="-1.21279">
        <ele>86</ele>
        <time>2020-01-26T07:36:42Z</time>
      </trkpt>
      <trkpt lat="45.77324" lon="-1.2128">
        <ele>86</ele>
        <time>2020-01-26T07:36:43Z</time>
      </trkpt>
      <trkpt lat="45.77325" lon="-1.21281">
        <ele>86.4</ele>
        <time>2020-01-26T07:36:44Z</time>
      </trkpt>
      <trkpt lat="45.77326" lon="-1.21283">
        <ele>86.4</ele>
        <time>2020-01-26T07:36:45Z</time>
      </trkpt>
      <trkpt lat="45.77327" lon="-1.21284">
        <ele>86.4</ele>
        <time>2020-01-26T07:36:46Z</time>
      </trkpt>
      <trkpt lat="45.7733" lon="-1.21286">
        <ele>86</ele>
        <time>2020-01-26T07:36:47Z</time>
      </trkpt>
      <trkpt lat="45.77332" lon="-1.21288">
        <ele>86</ele>
        <time>2020-01-26T07:36:48Z</time>
      </trkpt>
      <trkpt lat="45.77335" lon="-1.2129">
        <ele>86.2</ele>
        <time>2020-01-26T07:36:49Z</time>
      </trkpt>
      <trkpt lat="45.77337" lon="-1.21292">
        <ele>86.4</ele>
        <time>2020-01-26T07:36:50Z</time>
      </trkpt>
      <trkpt lat="45.77339" lon="-1.21293">
        <ele>86.6</ele>
        <time>2020-01-26T07:36:51Z</time>
      </trkpt>
      <trkpt lat="45.77341" lon="-1.21294">
        <ele>87</ele>
        <time>2020-01-26T07:36:52Z</time>
      </trkpt>
      <trkpt lat="45.77343" lon="-1.21295">
        <ele>87.2</ele>
        <time>2020-01-26T07:36:53Z</time>
      </trkpt>
      <trkpt lat="45.77345" lon="-1.21297">
        <ele>87.4</ele>
        <time>2020-01-26T07:36:54Z</time>
      </trkpt>
      <trkpt lat="45.77345" lon="-1.213">
        <ele>87.6</ele>
        <time>2020-01-26T07:36:55Z</time>
      </trkpt>
      <trkpt lat="45.77346" lon="-1.21302">
        <ele>87.6</ele>
        <time>2020-01-26T07:36:56Z</time>
      </trkpt>
      <trkpt lat="45.77346" lon="-1.21303">
        <ele>87.8</ele>
        <time>2020-01-26T07:36:57Z</time>
      </trkpt>
      <trkpt lat="45.77346" lon="-1.21305">
        <ele>87.8</ele>
        <time>2020-01-26T07:36:58Z</time>
      </trkpt>
      <trkpt lat="45.77347" lon="-1.21307">
        <ele>88.2</ele>
        <time>2020-01-26T07:36:59Z</time>
      </trkpt>
      <trkpt lat="45.77347" lon="-1.21307">
        <ele>88.4</ele>
        <time>2020-01-26T07:37:00Z</time>
      </trkpt>
      <trkpt lat="45.77349" lon="-1.21308">
        <ele>88.6</ele>
        <time>2020-01-26T07:37:01Z</time>
      </trkpt>
      <trkpt lat="45.7735" lon="-1.2131">
        <ele>88.6</ele>
        <time>2020-01-26T07:37:02Z</time>
      </trkpt>
      <trkpt lat="45.77349" lon="-1.21311">
        <ele>88.4</ele>
        <time>2020-01-26T07:37:03Z</time>
      </trkpt>
      <trkpt lat="45.77351" lon="-1.21313">
        <ele>88.6</ele>
        <time>2020-01-26T07:37:04Z</time>
      </trkpt>
      <trkpt lat="45.77352" lon="-1.21314">
        <ele>89</ele>
        <time>2020-01-26T07:37:05Z</time>
      </trkpt>
      <trkpt lat="45.77353" lon="-1.21315">
        <ele>89.6</ele>
        <time>2020-01-26T07:37:06Z</time>
      </trkpt>
      <trkpt lat="45.77354" lon="-1.21317">
        <ele>90</ele>
        <time>2020-01-26T07:37:07Z</time>
      </trkpt>
      <trkpt lat="45.77355" lon="-1.21318">
        <ele>90.4</ele>
        <time>2020-01-26T07:37:08Z</time>
      </trkpt>
      <trkpt lat="45.77356" lon="-1.2132">
        <ele>90.8</ele>
        <time>2020-01-26T07:37:09Z</time>
      </trkpt>
      <trkpt lat="45.77356" lon="-1.21322">
        <ele>91.2</ele>
        <time>2020-01-26T07:37:10Z</time>
      </trkpt>
      <trkpt lat="45.77357" lon="-1.21325">
        <ele>91.4</ele>
        <time>2020-01-26T07:37:11Z</time>
      </trkpt>
      <trkpt lat="45.77357" lon="-1.21328">
        <ele>91.4</ele>
        <time>2020-01-26T07:37:12Z</time>
      </trkpt>
      <trkpt lat="45.77358" lon="-1.21331">
        <ele>91.4</ele>
        <time>2020-01-26T07:37:13Z</time>
      </trkpt>
      <trkpt lat="45.77357" lon="-1.21334">
        <ele>91.2</ele>
        <time>2020-01-26T07:37:14Z</time>
      </trkpt>
      <trkpt lat="45.77356" lon="-1.21336">
        <ele>91.2</ele>
        <time>2020-01-26T07:37:15Z</time>
      </trkpt>
      <trkpt lat="45.77356" lon="-1.21339">
        <ele>91.2</ele>
        <time>2020-01-26T07:37:16Z</time>
      </trkpt>
      <trkpt lat="45.77356" lon="-1.21342">
        <ele>91.4</ele>
        <time>2020-01-26T07:37:17Z</time>
      </trkpt>
      <trkpt lat="45.77356" lon="-1.21343">
        <ele>91.2</ele>
        <time>2020-01-26T07:37:18Z</time>
      </trkpt>
      <trkpt lat="45.77357" lon="-1.21346">
        <ele>91.4</ele>
        <time>2020-01-26T07:37:19Z</time>
      </trkpt>
      <trkpt lat="45.77358" lon="-1.21347">
        <ele>91.6</ele>
        <time>2020-01-26T07:37:20Z</time>
      </trkpt>
      <trkpt lat="45.77358" lon="-1.21349">
        <ele>92</ele>
        <time>2020-01-26T07:37:21Z</time>
      </trkpt>
      <trkpt lat="45.77358" lon="-1.21351">
        <ele>92</ele>
        <time>2020-01-26T07:37:22Z</time>
      </trkpt>
      <trkpt lat="45.77357" lon="-1.21353">
        <ele>92</ele>
        <time>2020-01-26T07:37:23Z</time>
      </trkpt>
      <trkpt lat="45.77357" lon="-1.21355">
        <ele>92</ele>
        <time>2020-01-26T07:37:24Z</time>
      </trkpt>
      <trkpt lat="45.77357" lon="-1.21357">
        <ele>92.2</ele>
        <time>2020-01-26T07:37:25Z</time>
      </trkpt>
      <trkpt lat="45.77357" lon="-1.2136">
        <ele>92.4</ele>
        <time>2020-01-26T07:37:26Z</time>
      </trkpt>
      <trkpt lat="45.77358" lon="-1.21362">
        <ele>92.6</ele>
        <time>2020-01-26T07:37:27Z</time>
      </trkpt>
      <trkpt lat="45.77358" lon="-1.21364">
        <ele>92.8</ele>
        <time>2020-01-26T07:37:28Z</time>
      </trkpt>
      <trkpt lat="45.77359" lon="-1.21367">
        <ele>93</ele>
        <time>2020-01-26T07:37:29Z</time>
      </trkpt>
      <trkpt lat="45.77359" lon="-1.21369">
        <ele>93.6</ele>
        <time>2020-01-26T07:37:30Z</time>
      </trkpt>
      <trkpt lat="45.77359" lon="-1.21371">
        <ele>94</ele>
        <time>2020-01-26T07:37:31Z</time>
      </trkpt>
      <trkpt lat="45.77359" lon="-1.21374">
        <ele>94.2</ele>
        <time>2020-01-26T07:37:32Z</time>
      </trkpt>
      <trkpt lat="45.77359" lon="-1.21376">
        <ele>94.4</ele>
        <time>2020-01-26T07:37:33Z</time>
      </trkpt>
      <trkpt lat="45.77359" lon="-1.21379">
        <ele>94.6</ele>
        <time>2020-01-26T07:37:34Z</time>
      </trkpt>
      <trkpt lat="45.77359" lon="-1.21382">
        <ele>95</ele>
        <time>2020-01-26T07:37:35Z</time>
      </trkpt>
      <trkpt lat="45.77359" lon="-1.21384">
        <ele>95.2</ele>
        <time>2020-01-26T07:37:36Z</time>
      </trkpt>
      <trkpt lat="45.7736" lon="-1.21387">
        <ele>95.4</ele>
        <time>2020-01-26T07:37:37Z</time>
      </trkpt>
      <trkpt lat="45.7736" lon="-1.2139">
        <ele>95.6</ele>
        <time>2020-01-26T07:37:38Z</time>
      </trkpt>
      <trkpt lat="45.7736" lon="-1.21393">
        <ele>95.6</ele>
        <time>2020-01-26T07:37:39Z</time>
      </trkpt>
      <trkpt lat="45.7736" lon="-1.21396">
        <ele>96</ele>
        <time>2020-01-26T07:37:40Z</time>
      </trkpt>
      <trkpt lat="45.7736" lon="-1.214">
        <ele>96.2</ele>
        <time>2020-01-26T07:37:41Z</time>
      </trkpt>
      <trkpt lat="45.77361" lon="-1.21403">
        <ele>96.2</ele>
        <time>2020-01-26T07:37:42Z</time>
      </trkpt>
      <trkpt lat="45.77362" lon="-1.21406">
        <ele>96.4</ele>
        <time>2020-01-26T07:37:43Z</time>
      </trkpt>
      <trkpt lat="45.77362" lon="-1.21408">
        <ele>96.6</ele>
        <time>2020-01-26T07:37:44Z</time>
      </trkpt>
      <trkpt lat="45.77364" lon="-1.21411">
        <ele>96.6</ele>
        <time>2020-01-26T07:37:45Z</time>
      </trkpt>
      <trkpt lat="45.77365" lon="-1.21413">
        <ele>97</ele>
        <time>2020-01-26T07:37:46Z</time>
      </trkpt>
      <trkpt lat="45.77367" lon="-1.21413">
        <ele>97</ele>
        <time>2020-01-26T07:37:47Z</time>
      </trkpt>
      <trkpt lat="45.77369" lon="-1.21412">
        <ele>97</ele>
        <time>2020-01-26T07:37:48Z</time>
      </trkpt>
      <trkpt lat="45.77371" lon="-1.2141">
        <ele>97</ele>
        <time>2020-01-26T07:37:49Z</time>
      </trkpt>
      <trkpt lat="45.77372" lon="-1.21408">
        <ele>97.2</ele>
        <time>2020-01-26T07:37:50Z</time>
      </trkpt>
      <trkpt lat="45.77373" lon="-1.21405">
        <ele>97.4</ele>
        <time>2020-01-26T07:37:51Z</time>
      </trkpt>
      <trkpt lat="45.77375" lon="-1.21403">
        <ele>97.8</ele>
        <time>2020-01-26T07:37:52Z</time>
      </trkpt>
      <trkpt lat="45.77375" lon="-1.21402">
        <ele>98.2</ele>
        <time>2020-01-26T07:37:53Z</time>
      </trkpt>
      <trkpt lat="45.77377" lon="-1.214">
        <ele>98.4</ele>
        <time>2020-01-26T07:37:54Z</time>
      </trkpt>
      <trkpt lat="45.77378" lon="-1.21398">
        <ele>98.8</ele>
        <time>2020-01-26T07:37:55Z</time>
      </trkpt>
      <trkpt lat="45.77379" lon="-1.21395">
        <ele>99.4</ele>
        <time>2020-01-26T07:37:56Z</time>
      </trkpt>
      <trkpt lat="45.7738" lon="-1.21393">
        <ele>99.6</ele>
        <time>2020-01-26T07:37:57Z</time>
      </trkpt>
      <trkpt lat="45.77381" lon="-1.21392">
        <ele>99.6</ele>
        <time>2020-01-26T07:37:58Z</time>
      </trkpt>
      <trkpt lat="45.77382" lon="-1.2139">
        <ele>99.4</ele>
        <time>2020-01-26T07:37:59Z</time>
      </trkpt>
      <trkpt lat="45.77383" lon="-1.21387">
        <ele>99.4</ele>
        <time>2020-01-26T07:38:00Z</time>
      </trkpt>
      <trkpt lat="45.77385" lon="-1.21384">
        <ele>99.6</ele>
        <time>2020-01-26T07:38:01Z</time>
      </trkpt>
      <trkpt lat="45.77386" lon="-1.21381">
        <ele>100</ele>
        <time>2020-01-26T07:38:02Z</time>
      </trkpt>
      <trkpt lat="45.77387" lon="-1.21379">
        <ele>100.2</ele>
        <time>2020-01-26T07:38:03Z</time>
      </trkpt>
      <trkpt lat="45.77388" lon="-1.21377">
        <ele>100.4</ele>
        <time>2020-01-26T07:38:04Z</time>
      </trkpt>
      <trkpt lat="45.77388" lon="-1.21374">
        <ele>100.8</ele>
        <time>2020-01-26T07:38:05Z</time>
      </trkpt>
      <trkpt lat="45.77389" lon="-1.21372">
        <ele>101.2</ele>
        <time>2020-01-26T07:38:06Z</time>
      </trkpt>
      <trkpt lat="45.7739" lon="-1.21369">
        <ele>101.4</ele>
        <time>2020-01-26T07:38:07Z</time>
      </trkpt>
      <trkpt lat="45.77391" lon="-1.21366">
        <ele>101.8</ele>
        <time>2020-01-26T07:38:08Z</time>
      </trkpt>
      <trkpt lat="45.77391" lon="-1.21363">
        <ele>102</ele>
        <time>2020-01-26T07:38:09Z</time>
      </trkpt>
      <trkpt lat="45.77391" lon="-1.21362">
        <ele>102.2</ele>
        <time>2020-01-26T07:38:10Z</time>
      </trkpt>
      <trkpt lat="45.77391" lon="-1.2136">
        <ele>102.2</ele>
        <time>2020-01-26T07:38:11Z</time>
      </trkpt>
      <trkpt lat="45.77392" lon="-1.21357">
        <ele>102.2</ele>
        <time>2020-01-26T07:38:12Z</time>
      </trkpt>
      <trkpt lat="45.77393" lon="-1.21355">
        <ele>102.2</ele>
        <time>2020-01-26T07:38:13Z</time>
      </trkpt>
      <trkpt lat="45.77394" lon="-1.21355">
        <ele>102</ele>
        <time>2020-01-26T07:38:14Z</time>
      </trkpt>
      <trkpt lat="45.77396" lon="-1.21356">
        <ele>102</ele>
        <time>2020-01-26T07:38:15Z</time>
      </trkpt>
      <trkpt lat="45.77397" lon="-1.21356">
        <ele>102.4</ele>
        <time>2020-01-26T07:38:16Z</time>
      </trkpt>
      <trkpt lat="45.77398" lon="-1.21357">
        <ele>102.8</ele>
        <time>2020-01-26T07:38:17Z</time>
      </trkpt>
      <trkpt lat="45.77399" lon="-1.21358">
        <ele>103.4</ele>
        <time>2020-01-26T07:38:18Z</time>
      </trkpt>
      <trkpt lat="45.774" lon="-1.21359">
        <ele>103.4</ele>
        <time>2020-01-26T07:38:19Z</time>
      </trkpt>
      <trkpt lat="45.77401" lon="-1.2136">
        <ele>103.6</ele>
        <time>2020-01-26T07:38:20Z</time>
      </trkpt>
      <trkpt lat="45.77402" lon="-1.21361">
        <ele>103.8</ele>
        <time>2020-01-26T07:38:21Z</time>
      </trkpt>
      <trkpt lat="45.77404" lon="-1.21362">
        <ele>103.8</ele>
        <time>2020-01-26T07:38:22Z</time>
      </trkpt>
      <trkpt lat="45.77405" lon="-1.21363">
        <ele>104</ele>
        <time>2020-01-26T07:38:23Z</time>
      </trkpt>
      <trkpt lat="45.77405" lon="-1.21364">
        <ele>104</ele>
        <time>2020-01-26T07:38:24Z</time>
      </trkpt>
      <trkpt lat="45.77405" lon="-1.21364">
        <ele>104</ele>
        <time>2020-01-26T07:38:25Z</time>
      </trkpt>
      <trkpt lat="45.77405" lon="-1.21364">
        <ele>104</ele>
        <time>2020-01-26T07:38:26Z</time>
      </trkpt>
      <trkpt lat="45.77406" lon="-1.21363">
        <ele>104</ele>
        <time>2020-01-26T07:38:27Z</time>
      </trkpt>
      <trkpt lat="45.77406" lon="-1.21364">
        <ele>104.2</ele>
        <time>2020-01-26T07:38:28Z</time>
      </trkpt>
      <trkpt lat="45.77406" lon="-1.21364">
        <ele>104.4</ele>
        <time>2020-01-26T07:38:29Z</time>
      </trkpt>
      <trkpt lat="45.77406" lon="-1.21364">
        <ele>104.6</ele>
        <time>2020-01-26T07:38:30Z</time>
      </trkpt>
      <trkpt lat="45.77406" lon="-1.21364">
        <ele>104.8</ele>
        <time>2020-01-26T07:38:31Z</time>
      </trkpt>
      <trkpt lat="45.77407" lon="-1.21364">
        <ele>104.8</ele>
        <time>2020-01-26T07:38:32Z</time>
      </trkpt>
      <trkpt lat="45.77407" lon="-1.21364">
        <ele>104.8</ele>
        <time>2020-01-26T07:38:33Z</time>
      </trkpt>
      <trkpt lat="45.77407" lon="-1.21364">
        <ele>104.8</ele>
        <time>2020-01-26T07:38:34Z</time>
      </trkpt>
      <trkpt lat="45.77407" lon="-1.21364">
        <ele>105</ele>
        <time>2020-01-26T07:38:35Z</time>
      </trkpt>
      <trkpt lat="45.77408" lon="-1.21364">
        <ele>105</ele>
        <time>2020-01-26T07:38:36Z</time>
      </trkpt>
      <trkpt lat="45.77407" lon="-1.21364">
        <ele>105</ele>
        <time>2020-01-26T07:38:37Z</time>
      </trkpt>
      <trkpt lat="45.77407" lon="-1.21364">
        <ele>105</ele>
        <time>2020-01-26T07:38:38Z</time>
      </trkpt>
      <trkpt lat="45.77406" lon="-1.21364">
        <ele>105</ele>
        <time>2020-01-26T07:38:39Z</time>
      </trkpt>
      <trkpt lat="45.77406" lon="-1.21363">
        <ele>105.2</ele>
        <time>2020-01-26T07:38:40Z</time>
      </trkpt>
      <trkpt lat="45.77406" lon="-1.21363">
        <ele>105.2</ele>
        <time>2020-01-26T07:38:41Z</time>
      </trkpt>
      <trkpt lat="45.77407" lon="-1.21364">
        <ele>105.8</ele>
        <time>2020-01-26T07:38:42Z</time>
      </trkpt>
      <trkpt lat="45.77407" lon="-1.21364">
        <ele>106</ele>
        <time>2020-01-26T07:38:43Z</time>
      </trkpt>
      <trkpt lat="45.77407" lon="-1.21364">
        <ele>106.2</ele>
        <time>2020-01-26T07:38:44Z</time>
      </trkpt>
      <trkpt lat="45.77409" lon="-1.21365">
        <ele>106.2</ele>
        <time>2020-01-26T07:38:45Z</time>
      </trkpt>
      <trkpt lat="45.7741" lon="-1.21367">
        <ele>106.2</ele>
        <time>2020-01-26T07:38:46Z</time>
      </trkpt>
      <trkpt lat="45.77413" lon="-1.2137">
        <ele>105.8</ele>
        <time>2020-01-26T07:38:47Z</time>
      </trkpt>
      <trkpt lat="45.77416" lon="-1.21374">
        <ele>105.4</ele>
        <time>2020-01-26T07:38:48Z</time>
      </trkpt>
      <trkpt lat="45.7742" lon="-1.21379">
        <ele>105</ele>
        <time>2020-01-26T07:38:49Z</time>
      </trkpt>
      <trkpt lat="45.77425" lon="-1.21383">
        <ele>104.6</ele>
        <time>2020-01-26T07:38:50Z</time>
      </trkpt>
      <trkpt lat="45.77431" lon="-1.21387">
        <ele>104</ele>
        <time>2020-01-26T07:38:51Z</time>
      </trkpt>
      <trkpt lat="45.77438" lon="-1.21391">
        <ele>103.6</ele>
        <time>2020-01-26T07:38:52Z</time>
      </trkpt>
      <trkpt lat="45.77444" lon="-1.21396">
        <ele>102.6</ele>
        <time>2020-01-26T07:38:53Z</time>
      </trkpt>
      <trkpt lat="45.77451" lon="-1.21401">
        <ele>101.8</ele>
        <time>2020-01-26T07:38:54Z</time>
      </trkpt>
      <trkpt lat="45.77458" lon="-1.21407">
        <ele>101.2</ele>
        <time>2020-01-26T07:38:55Z</time>
      </trkpt>
      <trkpt lat="45.77465" lon="-1.21413">
        <ele>100.8</ele>
        <time>2020-01-26T07:38:56Z</time>
      </trkpt>
      <trkpt lat="45.77472" lon="-1.21419">
        <ele>99.6</ele>
        <time>2020-01-26T07:38:57Z</time>
      </trkpt>
      <trkpt lat="45.77477" lon="-1.21423">
        <ele>98.8</ele>
        <time>2020-01-26T07:38:58Z</time>
      </trkpt>
      <trkpt lat="45.77483" lon="-1.21428">
        <ele>98.2</ele>
        <time>2020-01-26T07:38:59Z</time>
      </trkpt>
      <trkpt lat="45.77488" lon="-1.21432">
        <ele>97.4</ele>
        <time>2020-01-26T07:39:00Z</time>
      </trkpt>
      <trkpt lat="45.77492" lon="-1.21437">
        <ele>96.6</ele>
        <time>2020-01-26T07:39:01Z</time>
      </trkpt>
      <trkpt lat="45.77498" lon="-1.21441">
        <ele>95</ele>
        <time>2020-01-26T07:39:02Z</time>
      </trkpt>
      <trkpt lat="45.77503" lon="-1.21445">
        <ele>93.8</ele>
        <time>2020-01-26T07:39:03Z</time>
      </trkpt>
      <trkpt lat="45.77507" lon="-1.21449">
        <ele>92.8</ele>
        <time>2020-01-26T07:39:04Z</time>
      </trkpt>
      <trkpt lat="45.77512" lon="-1.21453">
        <ele>92</ele>
        <time>2020-01-26T07:39:05Z</time>
      </trkpt>
      <trkpt lat="45.77517" lon="-1.21457">
        <ele>91</ele>
        <time>2020-01-26T07:39:06Z</time>
      </trkpt>
      <trkpt lat="45.77522" lon="-1.21462">
        <ele>89.4</ele>
        <time>2020-01-26T07:39:07Z</time>
      </trkpt>
      <trkpt lat="45.77526" lon="-1.21467">
        <ele>87.8</ele>
        <time>2020-01-26T07:39:08Z</time>
      </trkpt>
      <trkpt lat="45.77531" lon="-1.2147">
        <ele>86.4</ele>
        <time>2020-01-26T07:39:09Z</time>
      </trkpt>
      <trkpt lat="45.77535" lon="-1.21473">
        <ele>85</ele>
        <time>2020-01-26T07:39:10Z</time>
      </trkpt>
      <trkpt lat="45.77537" lon="-1.21475">
        <ele>84.2</ele>
        <time>2020-01-26T07:39:11Z</time>
      </trkpt>
      <trkpt lat="45.7754" lon="-1.21476">
        <ele>83.4</ele>
        <time>2020-01-26T07:39:12Z</time>
      </trkpt>
      <trkpt lat="45.77541" lon="-1.21478">
        <ele>82.4</ele>
        <time>2020-01-26T07:39:13Z</time>
      </trkpt>
      <trkpt lat="45.77542" lon="-1.21481">
        <ele>81.4</ele>
        <time>2020-01-26T07:39:14Z</time>
      </trkpt>
      <trkpt lat="45.77542" lon="-1.21484">
        <ele>80.6</ele>
        <time>2020-01-26T07:39:15Z</time>
      </trkpt>
      <trkpt lat="45.77541" lon="-1.21487">
        <ele>79.6</ele>
        <time>2020-01-26T07:39:16Z</time>
      </trkpt>
      <trkpt lat="45.77541" lon="-1.21493">
        <ele>78.6</ele>
        <time>2020-01-26T07:39:17Z</time>
      </trkpt>
      <trkpt lat="45.77541" lon="-1.21499">
        <ele>77.4</ele>
        <time>2020-01-26T07:39:18Z</time>
      </trkpt>
      <trkpt lat="45.77542" lon="-1.21506">
        <ele>75.8</ele>
        <time>2020-01-26T07:39:19Z</time>
      </trkpt>
      <trkpt lat="45.77543" lon="-1.21513">
        <ele>74</ele>
        <time>2020-01-26T07:39:20Z</time>
      </trkpt>
      <trkpt lat="45.77543" lon="-1.21522">
        <ele>72</ele>
        <time>2020-01-26T07:39:21Z</time>
      </trkpt>
      <trkpt lat="45.77544" lon="-1.21533">
        <ele>69.8</ele>
        <time>2020-01-26T07:39:22Z</time>
      </trkpt>
      <trkpt lat="45.77545" lon="-1.21546">
        <ele>67.8</ele>
        <time>2020-01-26T07:39:23Z</time>
      </trkpt>
      <trkpt lat="45.77546" lon="-1.21561">
        <ele>65.8</ele>
        <time>2020-01-26T07:39:24Z</time>
      </trkpt>
      <trkpt lat="45.77546" lon="-1.21572">
        <ele>64</ele>
        <time>2020-01-26T07:39:25Z</time>
      </trkpt>
      <trkpt lat="45.77547" lon="-1.2158">
        <ele>62.6</ele>
        <time>2020-01-26T07:39:26Z</time>
      </trkpt>
      <trkpt lat="45.77549" lon="-1.21585">
        <ele>61.4</ele>
        <time>2020-01-26T07:39:27Z</time>
      </trkpt>
      <trkpt lat="45.77552" lon="-1.2159">
        <ele>60.6</ele>
        <time>2020-01-26T07:39:28Z</time>
      </trkpt>
      <trkpt lat="45.77557" lon="-1.21592">
        <ele>59.6</ele>
        <time>2020-01-26T07:39:29Z</time>
      </trkpt>
      <trkpt lat="45.77563" lon="-1.21591">
        <ele>58.8</ele>
        <time>2020-01-26T07:39:30Z</time>
      </trkpt>
      <trkpt lat="45.77569" lon="-1.2159">
        <ele>58</ele>
        <time>2020-01-26T07:39:31Z</time>
      </trkpt>
      <trkpt lat="45.77576" lon="-1.21589">
        <ele>57.2</ele>
        <time>2020-01-26T07:39:32Z</time>
      </trkpt>
      <trkpt lat="45.77583" lon="-1.21589">
        <ele>56.4</ele>
        <time>2020-01-26T07:39:33Z</time>
      </trkpt>
      <trkpt lat="45.77589" lon="-1.21589">
        <ele>55.8</ele>
        <time>2020-01-26T07:39:34Z</time>
      </trkpt>
      <trkpt lat="45.77595" lon="-1.21589">
        <ele>55.4</ele>
        <time>2020-01-26T07:39:35Z</time>
      </trkpt>
      <trkpt lat="45.77601" lon="-1.21589">
        <ele>55</ele>
        <time>2020-01-26T07:39:36Z</time>
      </trkpt>
      <trkpt lat="45.77606" lon="-1.21589">
        <ele>54.8</ele>
        <time>2020-01-26T07:39:37Z</time>
      </trkpt>
      <trkpt lat="45.7761" lon="-1.21589">
        <ele>54.6</ele>
        <time>2020-01-26T07:39:38Z</time>
      </trkpt>
      <trkpt lat="45.77613" lon="-1.21588">
        <ele>54.4</ele>
        <time>2020-01-26T07:39:39Z</time>
      </trkpt>
      <trkpt lat="45.77616" lon="-1.21588">
        <ele>54.6</ele>
        <time>2020-01-26T07:39:40Z</time>
      </trkpt>
      <trkpt lat="45.77618" lon="-1.21587">
        <ele>54.6</ele>
        <time>2020-01-26T07:39:41Z</time>
      </trkpt>
      <trkpt lat="45.7762" lon="-1.21585">
        <ele>54.8</ele>
        <time>2020-01-26T07:39:42Z</time>
      </trkpt>
      <trkpt lat="45.77621" lon="-1.21584">
        <ele>54.8</ele>
        <time>2020-01-26T07:39:43Z</time>
      </trkpt>
      <trkpt lat="45.77621" lon="-1.2158">
        <ele>54.8</ele>
        <time>2020-01-26T07:39:44Z</time>
      </trkpt>
      <trkpt lat="45.77622" lon="-1.21577">
        <ele>55</ele>
        <time>2020-01-26T07:39:45Z</time>
      </trkpt>
      <trkpt lat="45.77621" lon="-1.21574">
        <ele>55.2</ele>
        <time>2020-01-26T07:39:46Z</time>
      </trkpt>
      <trkpt lat="45.77621" lon="-1.2157">
        <ele>55.4</ele>
        <time>2020-01-26T07:39:47Z</time>
      </trkpt>
      <trkpt lat="45.77621" lon="-1.21568">
        <ele>55.6</ele>
        <time>2020-01-26T07:39:48Z</time>
      </trkpt>
      <trkpt lat="45.77622" lon="-1.21566">
        <ele>55.4</ele>
        <time>2020-01-26T07:39:49Z</time>
      </trkpt>
      <trkpt lat="45.77622" lon="-1.21562">
        <ele>55</ele>
        <time>2020-01-26T07:39:50Z</time>
      </trkpt>
      <trkpt lat="45.77622" lon="-1.2156">
        <ele>55</ele>
        <time>2020-01-26T07:39:51Z</time>
      </trkpt>
      <trkpt lat="45.77623" lon="-1.21557">
        <ele>54.8</ele>
        <time>2020-01-26T07:39:52Z</time>
      </trkpt>
      <trkpt lat="45.77623" lon="-1.21554">
        <ele>54.4</ele>
        <time>2020-01-26T07:39:53Z</time>
      </trkpt>
      <trkpt lat="45.77623" lon="-1.21551">
        <ele>54.2</ele>
        <time>2020-01-26T07:39:54Z</time>
      </trkpt>
      <trkpt lat="45.77625" lon="-1.21548">
        <ele>54.2</ele>
        <time>2020-01-26T07:39:55Z</time>
      </trkpt>
      <trkpt lat="45.77626" lon="-1.21545">
        <ele>54.6</ele>
        <time>2020-01-26T07:39:56Z</time>
      </trkpt>
      <trkpt lat="45.77626" lon="-1.21544">
        <ele>55</ele>
        <time>2020-01-26T07:39:57Z</time>
      </trkpt>
      <trkpt lat="45.77626" lon="-1.21542">
        <ele>55.6</ele>
        <time>2020-01-26T07:39:58Z</time>
      </trkpt>
      <trkpt lat="45.77626" lon="-1.21539">
        <ele>56</ele>
        <time>2020-01-26T07:39:59Z</time>
      </trkpt>
      <trkpt lat="45.77626" lon="-1.21537">
        <ele>56.4</ele>
        <time>2020-01-26T07:40:00Z</time>
      </trkpt>
      <trkpt lat="45.77626" lon="-1.21534">
        <ele>57.2</ele>
        <time>2020-01-26T07:40:01Z</time>
      </trkpt>
      <trkpt lat="45.77625" lon="-1.21531">
        <ele>57.8</ele>
        <time>2020-01-26T07:40:02Z</time>
      </trkpt>
      <trkpt lat="45.77625" lon="-1.21529">
        <ele>58.6</ele>
        <time>2020-01-26T07:40:03Z</time>
      </trkpt>
      <trkpt lat="45.77625" lon="-1.21525">
        <ele>59.2</ele>
        <time>2020-01-26T07:40:04Z</time>
      </trkpt>
      <trkpt lat="45.77626" lon="-1.21521">
        <ele>60.2</ele>
        <time>2020-01-26T07:40:05Z</time>
      </trkpt>
      <trkpt lat="45.77626" lon="-1.21518">
        <ele>61</ele>
        <time>2020-01-26T07:40:06Z</time>
      </trkpt>
      <trkpt lat="45.77626" lon="-1.21515">
        <ele>61.4</ele>
        <time>2020-01-26T07:40:07Z</time>
      </trkpt>
      <trkpt lat="45.77626" lon="-1.21511">
        <ele>62</ele>
        <time>2020-01-26T07:40:08Z</time>
      </trkpt>
      <trkpt lat="45.77626" lon="-1.21509">
        <ele>62</ele>
        <time>2020-01-26T07:40:09Z</time>
      </trkpt>
      <trkpt lat="45.77626" lon="-1.21506">
        <ele>62</ele>
        <time>2020-01-26T07:40:10Z</time>
      </trkpt>
      <trkpt lat="45.77626" lon="-1.21502">
        <ele>62</ele>
        <time>2020-01-26T07:40:11Z</time>
      </trkpt>
      <trkpt lat="45.77625" lon="-1.21499">
        <ele>62</ele>
        <time>2020-01-26T07:40:12Z</time>
      </trkpt>
      <trkpt lat="45.77625" lon="-1.21496">
        <ele>62.2</ele>
        <time>2020-01-26T07:40:13Z</time>
      </trkpt>
      <trkpt lat="45.77625" lon="-1.21492">
        <ele>62.4</ele>
        <time>2020-01-26T07:40:14Z</time>
      </trkpt>
      <trkpt lat="45.77624" lon="-1.21489">
        <ele>62.6</ele>
        <time>2020-01-26T07:40:15Z</time>
      </trkpt>
      <trkpt lat="45.77623" lon="-1.21487">
        <ele>62.6</ele>
        <time>2020-01-26T07:40:16Z</time>
      </trkpt>
      <trkpt lat="45.77622" lon="-1.21484">
        <ele>62.8</ele>
        <time>2020-01-26T07:40:17Z</time>
      </trkpt>
      <trkpt lat="45.77621" lon="-1.21481">
        <ele>62.6</ele>
        <time>2020-01-26T07:40:18Z</time>
      </trkpt>
      <trkpt lat="45.7762" lon="-1.21479">
        <ele>62.6</ele>
        <time>2020-01-26T07:40:19Z</time>
      </trkpt>
      <trkpt lat="45.77619" lon="-1.21476">
        <ele>62.8</ele>
        <time>2020-01-26T07:40:20Z</time>
      </trkpt>
      <trkpt lat="45.77618" lon="-1.21473">
        <ele>63</ele>
        <time>2020-01-26T07:40:21Z</time>
      </trkpt>
      <trkpt lat="45.77617" lon="-1.21467">
        <ele>63.8</ele>
        <time>2020-01-26T07:40:22Z</time>
      </trkpt>
      <trkpt lat="45.77615" lon="-1.21463">
        <ele>64.6</ele>
        <time>2020-01-26T07:40:23Z</time>
      </trkpt>
      <trkpt lat="45.77615" lon="-1.2146">
        <ele>65.2</ele>
        <time>2020-01-26T07:40:24Z</time>
      </trkpt>
      <trkpt lat="45.77615" lon="-1.21457">
        <ele>65.8</ele>
        <time>2020-01-26T07:40:25Z</time>
      </trkpt>
      <trkpt lat="45.77614" lon="-1.21454">
        <ele>66.4</ele>
        <time>2020-01-26T07:40:26Z</time>
      </trkpt>
      <trkpt lat="45.77614" lon="-1.21452">
        <ele>66.2</ele>
        <time>2020-01-26T07:40:27Z</time>
      </trkpt>
      <trkpt lat="45.77613" lon="-1.2145">
        <ele>66</ele>
        <time>2020-01-26T07:40:28Z</time>
      </trkpt>
      <trkpt lat="45.77612" lon="-1.21447">
        <ele>65.8</ele>
        <time>2020-01-26T07:40:29Z</time>
      </trkpt>
      <trkpt lat="45.77611" lon="-1.21443">
        <ele>65.8</ele>
        <time>2020-01-26T07:40:30Z</time>
      </trkpt>
      <trkpt lat="45.7761" lon="-1.21441">
        <ele>65.6</ele>
        <time>2020-01-26T07:40:31Z</time>
      </trkpt>
      <trkpt lat="45.7761" lon="-1.21438">
        <ele>65.4</ele>
        <time>2020-01-26T07:40:32Z</time>
      </trkpt>
      <trkpt lat="45.77608" lon="-1.21433">
        <ele>65.2</ele>
        <time>2020-01-26T07:40:33Z</time>
      </trkpt>
      <trkpt lat="45.77608" lon="-1.2143">
        <ele>64.8</ele>
        <time>2020-01-26T07:40:34Z</time>
      </trkpt>
      <trkpt lat="45.77607" lon="-1.21427">
        <ele>64.2</ele>
        <time>2020-01-26T07:40:35Z</time>
      </trkpt>
      <trkpt lat="45.77605" lon="-1.21423">
        <ele>64</ele>
        <time>2020-01-26T07:40:36Z</time>
      </trkpt>
      <trkpt lat="45.77604" lon="-1.21419">
        <ele>63.8</ele>
        <time>2020-01-26T07:40:37Z</time>
      </trkpt>
      <trkpt lat="45.77603" lon="-1.21415">
        <ele>63.8</ele>
        <time>2020-01-26T07:40:38Z</time>
      </trkpt>
      <trkpt lat="45.77603" lon="-1.21412">
        <ele>63.6</ele>
        <time>2020-01-26T07:40:39Z</time>
      </trkpt>
      <trkpt lat="45.77602" lon="-1.21408">
        <ele>64</ele>
        <time>2020-01-26T07:40:40Z</time>
      </trkpt>
      <trkpt lat="45.77601" lon="-1.21404">
        <ele>64.6</ele>
        <time>2020-01-26T07:40:41Z</time>
      </trkpt>
      <trkpt lat="45.776" lon="-1.21399">
        <ele>65.4</ele>
        <time>2020-01-26T07:40:42Z</time>
      </trkpt>
      <trkpt lat="45.776" lon="-1.21396">
        <ele>66</ele>
        <time>2020-01-26T07:40:43Z</time>
      </trkpt>
      <trkpt lat="45.77599" lon="-1.21393">
        <ele>66.4</ele>
        <time>2020-01-26T07:40:44Z</time>
      </trkpt>
      <trkpt lat="45.77598" lon="-1.21388">
        <ele>67</ele>
        <time>2020-01-26T07:40:45Z</time>
      </trkpt>
      <trkpt lat="45.77597" lon="-1.21384">
        <ele>67.8</ele>
        <time>2020-01-26T07:40:46Z</time>
      </trkpt>
      <trkpt lat="45.77597" lon="-1.21381">
        <ele>67.8</ele>
        <time>2020-01-26T07:40:47Z</time>
      </trkpt>
      <trkpt lat="45.77597" lon="-1.21375">
        <ele>67.6</ele>
        <time>2020-01-26T07:40:48Z</time>
      </trkpt>
      <trkpt lat="45.77596" lon="-1.2137">
        <ele>67.2</ele>
        <time>2020-01-26T07:40:49Z</time>
      </trkpt>
      <trkpt lat="45.77595" lon="-1.21365">
        <ele>67.2</ele>
        <time>2020-01-26T07:40:50Z</time>
      </trkpt>
      <trkpt lat="45.77594" lon="-1.21361">
        <ele>66.8</ele>
        <time>2020-01-26T07:40:51Z</time>
      </trkpt>
      <trkpt lat="45.77594" lon="-1.21356">
        <ele>66.6</ele>
        <time>2020-01-26T07:40:52Z</time>
      </trkpt>
      <trkpt lat="45.77594" lon="-1.21352">
        <ele>66.4</ele>
        <time>2020-01-26T07:40:53Z</time>
      </trkpt>
      <trkpt lat="45.77595" lon="-1.21349">
        <ele>66.4</ele>
        <time>2020-01-26T07:40:54Z</time>
      </trkpt>
      <trkpt lat="45.77594" lon="-1.21342">
        <ele>66</ele>
        <time>2020-01-26T07:40:55Z</time>
      </trkpt>
      <trkpt lat="45.77593" lon="-1.21335">
        <ele>66.6</ele>
        <time>2020-01-26T07:40:56Z</time>
      </trkpt>
      <trkpt lat="45.77593" lon="-1.21331">
        <ele>66.4</ele>
        <time>2020-01-26T07:40:57Z</time>
      </trkpt>
      <trkpt lat="45.77593" lon="-1.21328">
        <ele>66.6</ele>
        <time>2020-01-26T07:40:58Z</time>
      </trkpt>
      <trkpt lat="45.77592" lon="-1.21323">
        <ele>66.6</ele>
        <time>2020-01-26T07:40:59Z</time>
      </trkpt>
      <trkpt lat="45.77591" lon="-1.21318">
        <ele>66.4</ele>
        <time>2020-01-26T07:41:00Z</time>
      </trkpt>
      <trkpt lat="45.77591" lon="-1.21314">
        <ele>66.4</ele>
        <time>2020-01-26T07:41:01Z</time>
      </trkpt>
      <trkpt lat="45.7759" lon="-1.21312">
        <ele>66.6</ele>
        <time>2020-01-26T07:41:02Z</time>
      </trkpt>
      <trkpt lat="45.77591" lon="-1.2131">
        <ele>66.4</ele>
        <time>2020-01-26T07:41:03Z</time>
      </trkpt>
      <trkpt lat="45.77591" lon="-1.21307">
        <ele>66</ele>
        <time>2020-01-26T07:41:04Z</time>
      </trkpt>
      <trkpt lat="45.77589" lon="-1.21293">
        <ele>64.8</ele>
        <time>2020-01-26T07:41:05Z</time>
      </trkpt>
      <trkpt lat="45.77589" lon="-1.21289">
        <ele>63.6</ele>
        <time>2020-01-26T07:41:06Z</time>
      </trkpt>
      <trkpt lat="45.77589" lon="-1.21284">
        <ele>62.4</ele>
        <time>2020-01-26T07:41:07Z</time>
      </trkpt>
      <trkpt lat="45.77588" lon="-1.21276">
        <ele>61.6</ele>
        <time>2020-01-26T07:41:08Z</time>
      </trkpt>
      <trkpt lat="45.77588" lon="-1.21267">
        <ele>61.2</ele>
        <time>2020-01-26T07:41:09Z</time>
      </trkpt>
      <trkpt lat="45.77587" lon="-1.21261">
        <ele>60.8</ele>
        <time>2020-01-26T07:41:10Z</time>
      </trkpt>
      <trkpt lat="45.77587" lon="-1.21257">
        <ele>60.4</ele>
        <time>2020-01-26T07:41:11Z</time>
      </trkpt>
      <trkpt lat="45.77587" lon="-1.2125">
        <ele>60</ele>
        <time>2020-01-26T07:41:12Z</time>
      </trkpt>
      <trkpt lat="45.77588" lon="-1.21244">
        <ele>59.6</ele>
        <time>2020-01-26T07:41:13Z</time>
      </trkpt>
      <trkpt lat="45.77587" lon="-1.21237">
        <ele>59.6</ele>
        <time>2020-01-26T07:41:14Z</time>
      </trkpt>
      <trkpt lat="45.77587" lon="-1.21231">
        <ele>59.8</ele>
        <time>2020-01-26T07:41:15Z</time>
      </trkpt>
      <trkpt lat="45.77587" lon="-1.21224">
        <ele>59.8</ele>
        <time>2020-01-26T07:41:16Z</time>
      </trkpt>
      <trkpt lat="45.77588" lon="-1.21219">
        <ele>59.6</ele>
        <time>2020-01-26T07:41:17Z</time>
      </trkpt>
      <trkpt lat="45.77587" lon="-1.21211">
        <ele>59.4</ele>
        <time>2020-01-26T07:41:18Z</time>
      </trkpt>
      <trkpt lat="45.77586" lon="-1.21202">
        <ele>59.4</ele>
        <time>2020-01-26T07:41:19Z</time>
      </trkpt>
      <trkpt lat="45.77586" lon="-1.21195">
        <ele>60</ele>
        <time>2020-01-26T07:41:20Z</time>
      </trkpt>
      <trkpt lat="45.77586" lon="-1.21189">
        <ele>60</ele>
        <time>2020-01-26T07:41:21Z</time>
      </trkpt>
      <trkpt lat="45.77585" lon="-1.21181">
        <ele>60.2</ele>
        <time>2020-01-26T07:41:22Z</time>
      </trkpt>
      <trkpt lat="45.77586" lon="-1.21175">
        <ele>60</ele>
        <time>2020-01-26T07:41:23Z</time>
      </trkpt>
      <trkpt lat="45.77586" lon="-1.21169">
        <ele>59.4</ele>
        <time>2020-01-26T07:41:24Z</time>
      </trkpt>
      <trkpt lat="45.77586" lon="-1.21162">
        <ele>59.2</ele>
        <time>2020-01-26T07:41:25Z</time>
      </trkpt>
      <trkpt lat="45.77584" lon="-1.21155">
        <ele>59.6</ele>
        <time>2020-01-26T07:41:26Z</time>
      </trkpt>
      <trkpt lat="45.77583" lon="-1.21148">
        <ele>60</ele>
        <time>2020-01-26T07:41:27Z</time>
      </trkpt>
      <trkpt lat="45.77583" lon="-1.21142">
        <ele>60</ele>
        <time>2020-01-26T07:41:28Z</time>
      </trkpt>
      <trkpt lat="45.77581" lon="-1.21135">
        <ele>60.2</ele>
        <time>2020-01-26T07:41:29Z</time>
      </trkpt>
      <trkpt lat="45.77579" lon="-1.21128">
        <ele>60.6</ele>
        <time>2020-01-26T07:41:30Z</time>
      </trkpt>
      <trkpt lat="45.77578" lon="-1.21123">
        <ele>60.8</ele>
        <time>2020-01-26T07:41:31Z</time>
      </trkpt>
      <trkpt lat="45.77576" lon="-1.21119">
        <ele>61.6</ele>
        <time>2020-01-26T07:41:32Z</time>
      </trkpt>
      <trkpt lat="45.77575" lon="-1.21113">
        <ele>62.4</ele>
        <time>2020-01-26T07:41:33Z</time>
      </trkpt>
      <trkpt lat="45.77573" lon="-1.21105">
        <ele>62.6</ele>
        <time>2020-01-26T07:41:34Z</time>
      </trkpt>
      <trkpt lat="45.7757" lon="-1.21098">
        <ele>63</ele>
        <time>2020-01-26T07:41:35Z</time>
      </trkpt>
      <trkpt lat="45.77568" lon="-1.21091">
        <ele>63.2</ele>
        <time>2020-01-26T07:41:36Z</time>
      </trkpt>
      <trkpt lat="45.77565" lon="-1.21085">
        <ele>63.4</ele>
        <time>2020-01-26T07:41:37Z</time>
      </trkpt>
      <trkpt lat="45.77563" lon="-1.21078">
        <ele>63.6</ele>
        <time>2020-01-26T07:41:38Z</time>
      </trkpt>
      <trkpt lat="45.77561" lon="-1.21071">
        <ele>63.8</ele>
        <time>2020-01-26T07:41:39Z</time>
      </trkpt>
      <trkpt lat="45.77559" lon="-1.21064">
        <ele>63.6</ele>
        <time>2020-01-26T07:41:40Z</time>
      </trkpt>
      <trkpt lat="45.77557" lon="-1.21059">
        <ele>63.2</ele>
        <time>2020-01-26T07:41:41Z</time>
      </trkpt>
      <trkpt lat="45.77556" lon="-1.21053">
        <ele>63</ele>
        <time>2020-01-26T07:41:42Z</time>
      </trkpt>
      <trkpt lat="45.77554" lon="-1.21045">
        <ele>62.6</ele>
        <time>2020-01-26T07:41:43Z</time>
      </trkpt>
      <trkpt lat="45.77551" lon="-1.21037">
        <ele>62.6</ele>
        <time>2020-01-26T07:41:44Z</time>
      </trkpt>
      <trkpt lat="45.77548" lon="-1.2103">
        <ele>62.4</ele>
        <time>2020-01-26T07:41:45Z</time>
      </trkpt>
      <trkpt lat="45.77544" lon="-1.21018">
        <ele>62</ele>
        <time>2020-01-26T07:41:46Z</time>
      </trkpt>
      <trkpt lat="45.77541" lon="-1.21009">
        <ele>62</ele>
        <time>2020-01-26T07:41:47Z</time>
      </trkpt>
      <trkpt lat="45.77538" lon="-1.21001">
        <ele>62.2</ele>
        <time>2020-01-26T07:41:48Z</time>
      </trkpt>
      <trkpt lat="45.77535" lon="-1.20993">
        <ele>62.4</ele>
        <time>2020-01-26T07:41:49Z</time>
      </trkpt>
      <trkpt lat="45.77533" lon="-1.20984">
        <ele>62.2</ele>
        <time>2020-01-26T07:41:50Z</time>
      </trkpt>
      <trkpt lat="45.77529" lon="-1.20975">
        <ele>61.8</ele>
        <time>2020-01-26T07:41:51Z</time>
      </trkpt>
      <trkpt lat="45.77526" lon="-1.20966">
        <ele>61.6</ele>
        <time>2020-01-26T07:41:52Z</time>
      </trkpt>
      <trkpt lat="45.77523" lon="-1.20959">
        <ele>61.4</ele>
        <time>2020-01-26T07:41:53Z</time>
      </trkpt>
      <trkpt lat="45.7752" lon="-1.20952">
        <ele>61</ele>
        <time>2020-01-26T07:41:54Z</time>
      </trkpt>
      <trkpt lat="45.77518" lon="-1.20945">
        <ele>60.6</ele>
        <time>2020-01-26T07:41:55Z</time>
      </trkpt>
      <trkpt lat="45.77516" lon="-1.20937">
        <ele>60.2</ele>
        <time>2020-01-26T07:41:56Z</time>
      </trkpt>
      <trkpt lat="45.77513" lon="-1.20929">
        <ele>60</ele>
        <time>2020-01-26T07:41:57Z</time>
      </trkpt>
      <trkpt lat="45.7751" lon="-1.20921">
        <ele>59.8</ele>
        <time>2020-01-26T07:41:58Z</time>
      </trkpt>
      <trkpt lat="45.77508" lon="-1.20912">
        <ele>59.6</ele>
        <time>2020-01-26T07:41:59Z</time>
      </trkpt>
      <trkpt lat="45.77505" lon="-1.20903">
        <ele>59.4</ele>
        <time>2020-01-26T07:42:00Z</time>
      </trkpt>
      <trkpt lat="45.77503" lon="-1.20896">
        <ele>59</ele>
        <time>2020-01-26T07:42:01Z</time>
      </trkpt>
      <trkpt lat="45.77501" lon="-1.20887">
        <ele>58.8</ele>
        <time>2020-01-26T07:42:02Z</time>
      </trkpt>
      <trkpt lat="45.77499" lon="-1.20879">
        <ele>58.4</ele>
        <time>2020-01-26T07:42:03Z</time>
      </trkpt>
      <trkpt lat="45.77497" lon="-1.2087">
        <ele>58.2</ele>
        <time>2020-01-26T07:42:04Z</time>
      </trkpt>
      <trkpt lat="45.77495" lon="-1.20862">
        <ele>58</ele>
        <time>2020-01-26T07:42:05Z</time>
      </trkpt>
      <trkpt lat="45.77493" lon="-1.20853">
        <ele>57.6</ele>
        <time>2020-01-26T07:42:06Z</time>
      </trkpt>
      <trkpt lat="45.77491" lon="-1.20843">
        <ele>57.6</ele>
        <time>2020-01-26T07:42:07Z</time>
      </trkpt>
      <trkpt lat="45.77489" lon="-1.20836">
        <ele>57.6</ele>
        <time>2020-01-26T07:42:08Z</time>
      </trkpt>
      <trkpt lat="45.77488" lon="-1.2083">
        <ele>58</ele>
        <time>2020-01-26T07:42:09Z</time>
      </trkpt>
      <trkpt lat="45.77487" lon="-1.20824">
        <ele>58</ele>
        <time>2020-01-26T07:42:10Z</time>
      </trkpt>
      <trkpt lat="45.77486" lon="-1.20821">
        <ele>58</ele>
        <time>2020-01-26T07:42:11Z</time>
      </trkpt>
      <trkpt lat="45.77486" lon="-1.20818">
        <ele>58.2</ele>
        <time>2020-01-26T07:42:12Z</time>
      </trkpt>
      <trkpt lat="45.77486" lon="-1.20816">
        <ele>58.4</ele>
        <time>2020-01-26T07:42:13Z</time>
      </trkpt>
      <trkpt lat="45.77485" lon="-1.20814">
        <ele>58.6</ele>
        <time>2020-01-26T07:42:14Z</time>
      </trkpt>
      <trkpt lat="45.77485" lon="-1.20812">
        <ele>59</ele>
        <time>2020-01-26T07:42:15Z</time>
      </trkpt>
      <trkpt lat="45.77485" lon="-1.2081">
        <ele>59.6</ele>
        <time>2020-01-26T07:42:16Z</time>
      </trkpt>
      <trkpt lat="45.77485" lon="-1.20809">
        <ele>59.8</ele>
        <time>2020-01-26T07:42:17Z</time>
      </trkpt>
      <trkpt lat="45.77484" lon="-1.20807">
        <ele>59.6</ele>
        <time>2020-01-26T07:42:18Z</time>
      </trkpt>
      <trkpt lat="45.77483" lon="-1.20807">
        <ele>59</ele>
        <time>2020-01-26T07:42:19Z</time>
      </trkpt>
      <trkpt lat="45.77481" lon="-1.20807">
        <ele>58.4</ele>
        <time>2020-01-26T07:42:20Z</time>
      </trkpt>
      <trkpt lat="45.77481" lon="-1.20808">
        <ele>57.8</ele>
        <time>2020-01-26T07:42:21Z</time>
      </trkpt>
      <trkpt lat="45.77481" lon="-1.20809">
        <ele>57</ele>
        <time>2020-01-26T07:42:22Z</time>
      </trkpt>
      <trkpt lat="45.77481" lon="-1.20811">
        <ele>56.6</ele>
        <time>2020-01-26T07:42:23Z</time>
      </trkpt>
      <trkpt lat="45.77481" lon="-1.20813">
        <ele>55.8</ele>
        <time>2020-01-26T07:42:24Z</time>
      </trkpt>
      <trkpt lat="45.7748" lon="-1.20816">
        <ele>55.4</ele>
        <time>2020-01-26T07:42:25Z</time>
      </trkpt>
      <trkpt lat="45.7748" lon="-1.20818">
        <ele>54.8</ele>
        <time>2020-01-26T07:42:26Z</time>
      </trkpt>
      <trkpt lat="45.77478" lon="-1.2082">
        <ele>54.4</ele>
        <time>2020-01-26T07:42:27Z</time>
      </trkpt>
      <trkpt lat="45.77478" lon="-1.20824">
        <ele>53.8</ele>
        <time>2020-01-26T07:42:28Z</time>
      </trkpt>
      <trkpt lat="45.77477" lon="-1.20827">
        <ele>53</ele>
        <time>2020-01-26T07:42:29Z</time>
      </trkpt>
      <trkpt lat="45.77476" lon="-1.20829">
        <ele>52.2</ele>
        <time>2020-01-26T07:42:30Z</time>
      </trkpt>
      <trkpt lat="45.77475" lon="-1.20831">
        <ele>51.4</ele>
        <time>2020-01-26T07:42:31Z</time>
      </trkpt>
      <trkpt lat="45.77473" lon="-1.20832">
        <ele>51.4</ele>
        <time>2020-01-26T07:42:32Z</time>
      </trkpt>
      <trkpt lat="45.77473" lon="-1.20834">
        <ele>51.6</ele>
        <time>2020-01-26T07:42:33Z</time>
      </trkpt>
      <trkpt lat="45.77472" lon="-1.20836">
        <ele>52</ele>
        <time>2020-01-26T07:42:34Z</time>
      </trkpt>
      <trkpt lat="45.77471" lon="-1.20838">
        <ele>52.6</ele>
        <time>2020-01-26T07:42:35Z</time>
      </trkpt>
      <trkpt lat="45.77469" lon="-1.2084">
        <ele>53.4</ele>
        <time>2020-01-26T07:42:36Z</time>
      </trkpt>
      <trkpt lat="45.77468" lon="-1.20843">
        <ele>54.2</ele>
        <time>2020-01-26T07:42:37Z</time>
      </trkpt>
      <trkpt lat="45.77467" lon="-1.20845">
        <ele>54.8</ele>
        <time>2020-01-26T07:42:38Z</time>
      </trkpt>
      <trkpt lat="45.77465" lon="-1.20848">
        <ele>55.4</ele>
        <time>2020-01-26T07:42:39Z</time>
      </trkpt>
      <trkpt lat="45.77464" lon="-1.2085">
        <ele>56</ele>
        <time>2020-01-26T07:42:40Z</time>
      </trkpt>
      <trkpt lat="45.77463" lon="-1.20853">
        <ele>56.6</ele>
        <time>2020-01-26T07:42:41Z</time>
      </trkpt>
      <trkpt lat="45.77462" lon="-1.20856">
        <ele>57.2</ele>
        <time>2020-01-26T07:42:42Z</time>
      </trkpt>
      <trkpt lat="45.77461" lon="-1.20858">
        <ele>57.8</ele>
        <time>2020-01-26T07:42:43Z</time>
      </trkpt>
      <trkpt lat="45.77459" lon="-1.20861">
        <ele>58.2</ele>
        <time>2020-01-26T07:42:44Z</time>
      </trkpt>
      <trkpt lat="45.77457" lon="-1.20863">
        <ele>58</ele>
        <time>2020-01-26T07:42:45Z</time>
      </trkpt>
      <trkpt lat="45.77457" lon="-1.20866">
        <ele>57.8</ele>
        <time>2020-01-26T07:42:46Z</time>
      </trkpt>
      <trkpt lat="45.77456" lon="-1.20869">
        <ele>57.8</ele>
        <time>2020-01-26T07:42:47Z</time>
      </trkpt>
      <trkpt lat="45.77455" lon="-1.20871">
        <ele>58</ele>
        <time>2020-01-26T07:42:48Z</time>
      </trkpt>
      <trkpt lat="45.77455" lon="-1.20873">
        <ele>58.4</ele>
        <time>2020-01-26T07:42:49Z</time>
      </trkpt>
      <trkpt lat="45.77454" lon="-1.20875">
        <ele>59.2</ele>
        <time>2020-01-26T07:42:50Z</time>
      </trkpt>
      <trkpt lat="45.77454" lon="-1.20877">
        <ele>59.6</ele>
        <time>2020-01-26T07:42:51Z</time>
      </trkpt>
      <trkpt lat="45.77454" lon="-1.20879">
        <ele>59.6</ele>
        <time>2020-01-26T07:42:52Z</time>
      </trkpt>
      <trkpt lat="45.77454" lon="-1.20881">
        <ele>60</ele>
        <time>2020-01-26T07:42:53Z</time>
      </trkpt>
      <trkpt lat="45.77454" lon="-1.20883">
        <ele>60.6</ele>
        <time>2020-01-26T07:42:54Z</time>
      </trkpt>
      <trkpt lat="45.77452" lon="-1.20885">
        <ele>61.2</ele>
        <time>2020-01-26T07:42:55Z</time>
      </trkpt>
      <trkpt lat="45.77451" lon="-1.20888">
        <ele>61.6</ele>
        <time>2020-01-26T07:42:56Z</time>
      </trkpt>
      <trkpt lat="45.7745" lon="-1.2089">
        <ele>61.8</ele>
        <time>2020-01-26T07:42:57Z</time>
      </trkpt>
      <trkpt lat="45.77449" lon="-1.20894">
        <ele>61.6</ele>
        <time>2020-01-26T07:42:58Z</time>
      </trkpt>
      <trkpt lat="45.77448" lon="-1.20896">
        <ele>61.8</ele>
        <time>2020-01-26T07:42:59Z</time>
      </trkpt>
      <trkpt lat="45.77448" lon="-1.20898">
        <ele>62</ele>
        <time>2020-01-26T07:43:00Z</time>
      </trkpt>
      <trkpt lat="45.77445" lon="-1.20901">
        <ele>61.8</ele>
        <time>2020-01-26T07:43:01Z</time>
      </trkpt>
      <trkpt lat="45.77443" lon="-1.20902">
        <ele>61.4</ele>
        <time>2020-01-26T07:43:02Z</time>
      </trkpt>
      <trkpt lat="45.77441" lon="-1.20904">
        <ele>61</ele>
        <time>2020-01-26T07:43:03Z</time>
      </trkpt>
      <trkpt lat="45.7744" lon="-1.20907">
        <ele>60.8</ele>
        <time>2020-01-26T07:43:04Z</time>
      </trkpt>
      <trkpt lat="45.77439" lon="-1.2091">
        <ele>60.8</ele>
        <time>2020-01-26T07:43:05Z</time>
      </trkpt>
      <trkpt lat="45.77439" lon="-1.20913">
        <ele>61.4</ele>
        <time>2020-01-26T07:43:06Z</time>
      </trkpt>
      <trkpt lat="45.77438" lon="-1.20917">
        <ele>61.8</ele>
        <time>2020-01-26T07:43:07Z</time>
      </trkpt>
      <trkpt lat="45.77437" lon="-1.20919">
        <ele>61.8</ele>
        <time>2020-01-26T07:43:08Z</time>
      </trkpt>
      <trkpt lat="45.77435" lon="-1.20924">
        <ele>62</ele>
        <time>2020-01-26T07:43:09Z</time>
      </trkpt>
      <trkpt lat="45.77435" lon="-1.20927">
        <ele>62.2</ele>
        <time>2020-01-26T07:43:10Z</time>
      </trkpt>
      <trkpt lat="45.77433" lon="-1.2093">
        <ele>62.4</ele>
        <time>2020-01-26T07:43:11Z</time>
      </trkpt>
      <trkpt lat="45.77432" lon="-1.20933">
        <ele>62.6</ele>
        <time>2020-01-26T07:43:12Z</time>
      </trkpt>
      <trkpt lat="45.77432" lon="-1.20937">
        <ele>62.6</ele>
        <time>2020-01-26T07:43:13Z</time>
      </trkpt>
      <trkpt lat="45.77431" lon="-1.20941">
        <ele>63</ele>
        <time>2020-01-26T07:43:14Z</time>
      </trkpt>
      <trkpt lat="45.77429" lon="-1.20944">
        <ele>63.2</ele>
        <time>2020-01-26T07:43:15Z</time>
      </trkpt>
      <trkpt lat="45.77428" lon="-1.20947">
        <ele>63.2</ele>
        <time>2020-01-26T07:43:16Z</time>
      </trkpt>
      <trkpt lat="45.77427" lon="-1.2095">
        <ele>63.4</ele>
        <time>2020-01-26T07:43:17Z</time>
      </trkpt>
      <trkpt lat="45.77426" lon="-1.20954">
        <ele>63.8</ele>
        <time>2020-01-26T07:43:18Z</time>
      </trkpt>
      <trkpt lat="45.77425" lon="-1.20957">
        <ele>64</ele>
        <time>2020-01-26T07:43:19Z</time>
      </trkpt>
      <trkpt lat="45.77423" lon="-1.2096">
        <ele>64.4</ele>
        <time>2020-01-26T07:43:20Z</time>
      </trkpt>
      <trkpt lat="45.77421" lon="-1.20963">
        <ele>65</ele>
        <time>2020-01-26T07:43:21Z</time>
      </trkpt>
      <trkpt lat="45.7742" lon="-1.20966">
        <ele>65.8</ele>
        <time>2020-01-26T07:43:22Z</time>
      </trkpt>
      <trkpt lat="45.77419" lon="-1.2097">
        <ele>66.6</ele>
        <time>2020-01-26T07:43:23Z</time>
      </trkpt>
      <trkpt lat="45.77418" lon="-1.20974">
        <ele>67</ele>
        <time>2020-01-26T07:43:24Z</time>
      </trkpt>
      <trkpt lat="45.77417" lon="-1.20977">
        <ele>67.8</ele>
        <time>2020-01-26T07:43:25Z</time>
      </trkpt>
      <trkpt lat="45.77416" lon="-1.20981">
        <ele>68.6</ele>
        <time>2020-01-26T07:43:26Z</time>
      </trkpt>
      <trkpt lat="45.77414" lon="-1.20983">
        <ele>69.2</ele>
        <time>2020-01-26T07:43:27Z</time>
      </trkpt>
      <trkpt lat="45.77413" lon="-1.20986">
        <ele>69.6</ele>
        <time>2020-01-26T07:43:28Z</time>
      </trkpt>
      <trkpt lat="45.77412" lon="-1.2099">
        <ele>69.8</ele>
        <time>2020-01-26T07:43:29Z</time>
      </trkpt>
      <trkpt lat="45.77411" lon="-1.20994">
        <ele>70</ele>
        <time>2020-01-26T07:43:30Z</time>
      </trkpt>
      <trkpt lat="45.77409" lon="-1.20998">
        <ele>70</ele>
        <time>2020-01-26T07:43:31Z</time>
      </trkpt>
      <trkpt lat="45.77407" lon="-1.21002">
        <ele>69.8</ele>
        <time>2020-01-26T07:43:32Z</time>
      </trkpt>
      <trkpt lat="45.77406" lon="-1.21006">
        <ele>69.6</ele>
        <time>2020-01-26T07:43:33Z</time>
      </trkpt>
      <trkpt lat="45.77405" lon="-1.21009">
        <ele>69.4</ele>
        <time>2020-01-26T07:43:34Z</time>
      </trkpt>
      <trkpt lat="45.77404" lon="-1.21013">
        <ele>69.4</ele>
        <time>2020-01-26T07:43:35Z</time>
      </trkpt>
      <trkpt lat="45.77402" lon="-1.21016">
        <ele>69.2</ele>
        <time>2020-01-26T07:43:36Z</time>
      </trkpt>
      <trkpt lat="45.77401" lon="-1.21021">
        <ele>69.2</ele>
        <time>2020-01-26T07:43:37Z</time>
      </trkpt>
      <trkpt lat="45.77399" lon="-1.21025">
        <ele>69.2</ele>
        <time>2020-01-26T07:43:38Z</time>
      </trkpt>
      <trkpt lat="45.77398" lon="-1.21028">
        <ele>69.4</ele>
        <time>2020-01-26T07:43:39Z</time>
      </trkpt>
      <trkpt lat="45.77397" lon="-1.21033">
        <ele>69.2</ele>
        <time>2020-01-26T07:43:40Z</time>
      </trkpt>
      <trkpt lat="45.77396" lon="-1.21037">
        <ele>69.2</ele>
        <time>2020-01-26T07:43:41Z</time>
      </trkpt>
      <trkpt lat="45.77393" lon="-1.2104">
        <ele>69.4</ele>
        <time>2020-01-26T07:43:42Z</time>
      </trkpt>
      <trkpt lat="45.77393" lon="-1.21043">
        <ele>69.8</ele>
        <time>2020-01-26T07:43:43Z</time>
      </trkpt>
      <trkpt lat="45.77391" lon="-1.21045">
        <ele>70.2</ele>
        <time>2020-01-26T07:43:44Z</time>
      </trkpt>
      <trkpt lat="45.77389" lon="-1.21047">
        <ele>70.6</ele>
        <time>2020-01-26T07:43:45Z</time>
      </trkpt>
      <trkpt lat="45.77388" lon="-1.21049">
        <ele>71.2</ele>
        <time>2020-01-26T07:43:46Z</time>
      </trkpt>
      <trkpt lat="45.77386" lon="-1.21052">
        <ele>72</ele>
        <time>2020-01-26T07:43:47Z</time>
      </trkpt>
      <trkpt lat="45.77384" lon="-1.21054">
        <ele>72.8</ele>
        <time>2020-01-26T07:43:48Z</time>
      </trkpt>
      <trkpt lat="45.77381" lon="-1.21054">
        <ele>73.2</ele>
        <time>2020-01-26T07:43:49Z</time>
      </trkpt>
      <trkpt lat="45.77379" lon="-1.21056">
        <ele>73.6</ele>
        <time>2020-01-26T07:43:50Z</time>
      </trkpt>
      <trkpt lat="45.77378" lon="-1.21059">
        <ele>73.8</ele>
        <time>2020-01-26T07:43:51Z</time>
      </trkpt>
      <trkpt lat="45.77377" lon="-1.21061">
        <ele>74.2</ele>
        <time>2020-01-26T07:43:52Z</time>
      </trkpt>
      <trkpt lat="45.77376" lon="-1.21062">
        <ele>75.2</ele>
        <time>2020-01-26T07:43:53Z</time>
      </trkpt>
      <trkpt lat="45.77375" lon="-1.21063">
        <ele>76.2</ele>
        <time>2020-01-26T07:43:54Z</time>
      </trkpt>
      <trkpt lat="45.77373" lon="-1.21066">
        <ele>76.8</ele>
        <time>2020-01-26T07:43:55Z</time>
      </trkpt>
      <trkpt lat="45.77371" lon="-1.21067">
        <ele>77.6</ele>
        <time>2020-01-26T07:43:56Z</time>
      </trkpt>
      <trkpt lat="45.7737" lon="-1.21068">
        <ele>78.6</ele>
        <time>2020-01-26T07:43:57Z</time>
      </trkpt>
      <trkpt lat="45.77369" lon="-1.2107">
        <ele>79.2</ele>
        <time>2020-01-26T07:43:58Z</time>
      </trkpt>
      <trkpt lat="45.77367" lon="-1.21071">
        <ele>79.8</ele>
        <time>2020-01-26T07:43:59Z</time>
      </trkpt>
      <trkpt lat="45.77365" lon="-1.21072">
        <ele>80.2</ele>
        <time>2020-01-26T07:44:00Z</time>
      </trkpt>
      <trkpt lat="45.77363" lon="-1.21073">
        <ele>81</ele>
        <time>2020-01-26T07:44:01Z</time>
      </trkpt>
      <trkpt lat="45.77362" lon="-1.21073">
        <ele>81.8</ele>
        <time>2020-01-26T07:44:02Z</time>
      </trkpt>
      <trkpt lat="45.7736" lon="-1.21073">
        <ele>82.6</ele>
        <time>2020-01-26T07:44:03Z</time>
      </trkpt>
      <trkpt lat="45.77359" lon="-1.21074">
        <ele>83</ele>
        <time>2020-01-26T07:44:04Z</time>
      </trkpt>
      <trkpt lat="45.77356" lon="-1.21074">
        <ele>82.8</ele>
        <time>2020-01-26T07:44:05Z</time>
      </trkpt>
      <trkpt lat="45.77355" lon="-1.21075">
        <ele>82.4</ele>
        <time>2020-01-26T07:44:06Z</time>
      </trkpt>
      <trkpt lat="45.77354" lon="-1.21076">
        <ele>82.2</ele>
        <time>2020-01-26T07:44:07Z</time>
      </trkpt>
      <trkpt lat="45.77353" lon="-1.21076">
        <ele>82.2</ele>
        <time>2020-01-26T07:44:08Z</time>
      </trkpt>
      <trkpt lat="45.77352" lon="-1.21079">
        <ele>82</ele>
        <time>2020-01-26T07:44:09Z</time>
      </trkpt>
      <trkpt lat="45.7735" lon="-1.21081">
        <ele>81.8</ele>
        <time>2020-01-26T07:44:10Z</time>
      </trkpt>
      <trkpt lat="45.77348" lon="-1.21082">
        <ele>81.4</ele>
        <time>2020-01-26T07:44:11Z</time>
      </trkpt>
      <trkpt lat="45.77347" lon="-1.21084">
        <ele>81</ele>
        <time>2020-01-26T07:44:12Z</time>
      </trkpt>
      <trkpt lat="45.77346" lon="-1.21085">
        <ele>81</ele>
        <time>2020-01-26T07:44:13Z</time>
      </trkpt>
      <trkpt lat="45.77346" lon="-1.21087">
        <ele>81.4</ele>
        <time>2020-01-26T07:44:14Z</time>
      </trkpt>
      <trkpt lat="45.77343" lon="-1.21087">
        <ele>81.8</ele>
        <time>2020-01-26T07:44:15Z</time>
      </trkpt>
      <trkpt lat="45.77342" lon="-1.21089">
        <ele>81.8</ele>
        <time>2020-01-26T07:44:16Z</time>
      </trkpt>
      <trkpt lat="45.7734" lon="-1.21091">
        <ele>81.6</ele>
        <time>2020-01-26T07:44:17Z</time>
      </trkpt>
      <trkpt lat="45.77338" lon="-1.21091">
        <ele>81.8</ele>
        <time>2020-01-26T07:44:18Z</time>
      </trkpt>
      <trkpt lat="45.77337" lon="-1.21092">
        <ele>81.8</ele>
        <time>2020-01-26T07:44:19Z</time>
      </trkpt>
      <trkpt lat="45.77335" lon="-1.21094">
        <ele>81.6</ele>
        <time>2020-01-26T07:44:20Z</time>
      </trkpt>
      <trkpt lat="45.77335" lon="-1.21096">
        <ele>81.2</ele>
        <time>2020-01-26T07:44:21Z</time>
      </trkpt>
      <trkpt lat="45.77334" lon="-1.21097">
        <ele>80.8</ele>
        <time>2020-01-26T07:44:22Z</time>
      </trkpt>
      <trkpt lat="45.77333" lon="-1.21096">
        <ele>80.6</ele>
        <time>2020-01-26T07:44:23Z</time>
      </trkpt>
      <trkpt lat="45.77331" lon="-1.21097">
        <ele>80.8</ele>
        <time>2020-01-26T07:44:24Z</time>
      </trkpt>
      <trkpt lat="45.7733" lon="-1.21097">
        <ele>80.8</ele>
        <time>2020-01-26T07:44:25Z</time>
      </trkpt>
      <trkpt lat="45.77329" lon="-1.21096">
        <ele>80.8</ele>
        <time>2020-01-26T07:44:26Z</time>
      </trkpt>
      <trkpt lat="45.77329" lon="-1.21096">
        <ele>80.6</ele>
        <time>2020-01-26T07:44:27Z</time>
      </trkpt>
      <trkpt lat="45.77328" lon="-1.21096">
        <ele>80.4</ele>
        <time>2020-01-26T07:44:28Z</time>
      </trkpt>
      <trkpt lat="45.77328" lon="-1.21093">
        <ele>80.4</ele>
        <time>2020-01-26T07:44:29Z</time>
      </trkpt>
      <trkpt lat="45.77327" lon="-1.21092">
        <ele>80</ele>
        <time>2020-01-26T07:44:30Z</time>
      </trkpt>
      <trkpt lat="45.77327" lon="-1.21091">
        <ele>80</ele>
        <time>2020-01-26T07:44:31Z</time>
      </trkpt>
      <trkpt lat="45.77327" lon="-1.2109">
        <ele>80</ele>
        <time>2020-01-26T07:44:32Z</time>
      </trkpt>
      <trkpt lat="45.77326" lon="-1.21089">
        <ele>79.8</ele>
        <time>2020-01-26T07:44:33Z</time>
      </trkpt>
      <trkpt lat="45.77327" lon="-1.21088">
        <ele>79.2</ele>
        <time>2020-01-26T07:44:34Z</time>
      </trkpt>
      <trkpt lat="45.77327" lon="-1.21087">
        <ele>78.8</ele>
        <time>2020-01-26T07:44:35Z</time>
      </trkpt>
      <trkpt lat="45.77327" lon="-1.21086">
        <ele>78.6</ele>
        <time>2020-01-26T07:44:36Z</time>
      </trkpt>
      <trkpt lat="45.77327" lon="-1.21085">
        <ele>78.4</ele>
        <time>2020-01-26T07:44:37Z</time>
      </trkpt>
      <trkpt lat="45.77326" lon="-1.21083">
        <ele>78.8</ele>
        <time>2020-01-26T07:44:38Z</time>
      </trkpt>
      <trkpt lat="45.77326" lon="-1.21083">
        <ele>79.2</ele>
        <time>2020-01-26T07:44:39Z</time>
      </trkpt>
      <trkpt lat="45.77325" lon="-1.2108">
        <ele>79.6</ele>
        <time>2020-01-26T07:44:40Z</time>
      </trkpt>
      <trkpt lat="45.77325" lon="-1.21077">
        <ele>80.2</ele>
        <time>2020-01-26T07:44:41Z</time>
      </trkpt>
      <trkpt lat="45.77326" lon="-1.21075">
        <ele>81.2</ele>
        <time>2020-01-26T07:44:42Z</time>
      </trkpt>
      <trkpt lat="45.77325" lon="-1.21073">
        <ele>81.8</ele>
        <time>2020-01-26T07:44:43Z</time>
      </trkpt>
      <trkpt lat="45.77325" lon="-1.21072">
        <ele>82.2</ele>
        <time>2020-01-26T07:44:44Z</time>
      </trkpt>
      <trkpt lat="45.77325" lon="-1.21071">
        <ele>82.4</ele>
        <time>2020-01-26T07:44:45Z</time>
      </trkpt>
      <trkpt lat="45.77325" lon="-1.21071">
        <ele>82.8</ele>
        <time>2020-01-26T07:44:46Z</time>
      </trkpt>
      <trkpt lat="45.77324" lon="-1.2107">
        <ele>82.8</ele>
        <time>2020-01-26T07:44:47Z</time>
      </trkpt>
      <trkpt lat="45.77324" lon="-1.2107">
        <ele>83.2</ele>
        <time>2020-01-26T07:44:48Z</time>
      </trkpt>
      <trkpt lat="45.77323" lon="-1.21069">
        <ele>83.6</ele>
        <time>2020-01-26T07:44:49Z</time>
      </trkpt>
      <trkpt lat="45.77324" lon="-1.2107">
        <ele>83.4</ele>
        <time>2020-01-26T07:44:50Z</time>
      </trkpt>
      <trkpt lat="45.77324" lon="-1.2107">
        <ele>83.4</ele>
        <time>2020-01-26T07:44:51Z</time>
      </trkpt>
      <trkpt lat="45.77325" lon="-1.2107">
        <ele>83.2</ele>
        <time>2020-01-26T07:44:52Z</time>
      </trkpt>
      <trkpt lat="45.77325" lon="-1.2107">
        <ele>82.8</ele>
        <time>2020-01-26T07:44:53Z</time>
      </trkpt>
      <trkpt lat="45.77328" lon="-1.21073">
        <ele>82.2</ele>
        <time>2020-01-26T07:44:54Z</time>
      </trkpt>
      <trkpt lat="45.7733" lon="-1.21073">
        <ele>82</ele>
        <time>2020-01-26T07:44:55Z</time>
      </trkpt>
      <trkpt lat="45.77331" lon="-1.21071">
        <ele>82</ele>
        <time>2020-01-26T07:44:56Z</time>
      </trkpt>
      <trkpt lat="45.77332" lon="-1.2107">
        <ele>81.8</ele>
        <time>2020-01-26T07:44:57Z</time>
      </trkpt>
      <trkpt lat="45.77333" lon="-1.21069">
        <ele>81.4</ele>
        <time>2020-01-26T07:44:58Z</time>
      </trkpt>
      <trkpt lat="45.77334" lon="-1.21066">
        <ele>81</ele>
        <time>2020-01-26T07:44:59Z</time>
      </trkpt>
      <trkpt lat="45.77334" lon="-1.21065">
        <ele>81</ele>
        <time>2020-01-26T07:45:00Z</time>
      </trkpt>
      <trkpt lat="45.77335" lon="-1.21065">
        <ele>81.4</ele>
        <time>2020-01-26T07:45:01Z</time>
      </trkpt>
      <trkpt lat="45.77334" lon="-1.21065">
        <ele>81.6</ele>
        <time>2020-01-26T07:45:02Z</time>
      </trkpt>
      <trkpt lat="45.77334" lon="-1.21063">
        <ele>82.2</ele>
        <time>2020-01-26T07:45:03Z</time>
      </trkpt>
      <trkpt lat="45.77334" lon="-1.21062">
        <ele>82.4</ele>
        <time>2020-01-26T07:45:04Z</time>
      </trkpt>
      <trkpt lat="45.77333" lon="-1.21058">
        <ele>82.4</ele>
        <time>2020-01-26T07:45:05Z</time>
      </trkpt>
      <trkpt lat="45.77333" lon="-1.21057">
        <ele>82</ele>
        <time>2020-01-26T07:45:06Z</time>
      </trkpt>
      <trkpt lat="45.77332" lon="-1.21056">
        <ele>81.8</ele>
        <time>2020-01-26T07:45:07Z</time>
      </trkpt>
      <trkpt lat="45.77332" lon="-1.21054">
        <ele>81.8</ele>
        <time>2020-01-26T07:45:08Z</time>
      </trkpt>
      <trkpt lat="45.77333" lon="-1.21052">
        <ele>81.4</ele>
        <time>2020-01-26T07:45:09Z</time>
      </trkpt>
      <trkpt lat="45.77333" lon="-1.2105">
        <ele>81</ele>
        <time>2020-01-26T07:45:10Z</time>
      </trkpt>
      <trkpt lat="45.77334" lon="-1.21048">
        <ele>80.6</ele>
        <time>2020-01-26T07:45:11Z</time>
      </trkpt>
      <trkpt lat="45.77334" lon="-1.21045">
        <ele>80.2</ele>
        <time>2020-01-26T07:45:12Z</time>
      </trkpt>
      <trkpt lat="45.77334" lon="-1.21041">
        <ele>80.2</ele>
        <time>2020-01-26T07:45:13Z</time>
      </trkpt>
      <trkpt lat="45.77334" lon="-1.21037">
        <ele>80.4</ele>
        <time>2020-01-26T07:45:14Z</time>
      </trkpt>
      <trkpt lat="45.77333" lon="-1.21034">
        <ele>80.2</ele>
        <time>2020-01-26T07:45:15Z</time>
      </trkpt>
      <trkpt lat="45.77333" lon="-1.21031">
        <ele>80.4</ele>
        <time>2020-01-26T07:45:16Z</time>
      </trkpt>
      <trkpt lat="45.77333" lon="-1.21029">
        <ele>80.6</ele>
        <time>2020-01-26T07:45:17Z</time>
      </trkpt>
      <trkpt lat="45.77333" lon="-1.21025">
        <ele>80.6</ele>
        <time>2020-01-26T07:45:18Z</time>
      </trkpt>
      <trkpt lat="45.77334" lon="-1.21022">
        <ele>80.6</ele>
        <time>2020-01-26T07:45:19Z</time>
      </trkpt>
      <trkpt lat="45.77335" lon="-1.21018">
        <ele>80.4</ele>
        <time>2020-01-26T07:45:20Z</time>
      </trkpt>
      <trkpt lat="45.77337" lon="-1.21014">
        <ele>80.4</ele>
        <time>2020-01-26T07:45:21Z</time>
      </trkpt>
      <trkpt lat="45.77336" lon="-1.2101">
        <ele>80.6</ele>
        <time>2020-01-26T07:45:22Z</time>
      </trkpt>
      <trkpt lat="45.77337" lon="-1.21006">
        <ele>80.8</ele>
        <time>2020-01-26T07:45:23Z</time>
      </trkpt>
      <trkpt lat="45.77338" lon="-1.21001">
        <ele>81.2</ele>
        <time>2020-01-26T07:45:24Z</time>
      </trkpt>
      <trkpt lat="45.77341" lon="-1.20998">
        <ele>81</ele>
        <time>2020-01-26T07:45:25Z</time>
      </trkpt>
      <trkpt lat="45.77345" lon="-1.20994">
        <ele>81</ele>
        <time>2020-01-26T07:45:26Z</time>
      </trkpt>
      <trkpt lat="45.77348" lon="-1.2099">
        <ele>80.8</ele>
        <time>2020-01-26T07:45:27Z</time>
      </trkpt>
      <trkpt lat="45.77351" lon="-1.20987">
        <ele>80.4</ele>
        <time>2020-01-26T07:45:28Z</time>
      </trkpt>
      <trkpt lat="45.77355" lon="-1.20984">
        <ele>79.8</ele>
        <time>2020-01-26T07:45:29Z</time>
      </trkpt>
      <trkpt lat="45.77358" lon="-1.20979">
        <ele>79</ele>
        <time>2020-01-26T07:45:30Z</time>
      </trkpt>
      <trkpt lat="45.77361" lon="-1.20974">
        <ele>78.6</ele>
        <time>2020-01-26T07:45:31Z</time>
      </trkpt>
      <trkpt lat="45.77364" lon="-1.20968">
        <ele>78.2</ele>
        <time>2020-01-26T07:45:32Z</time>
      </trkpt>
      <trkpt lat="45.77366" lon="-1.20962">
        <ele>77.6</ele>
        <time>2020-01-26T07:45:33Z</time>
      </trkpt>
      <trkpt lat="45.77367" lon="-1.20956">
        <ele>77.2</ele>
        <time>2020-01-26T07:45:34Z</time>
      </trkpt>
      <trkpt lat="45.7737" lon="-1.2095">
        <ele>76.6</ele>
        <time>2020-01-26T07:45:35Z</time>
      </trkpt>
      <trkpt lat="45.77373" lon="-1.20944">
        <ele>75.4</ele>
        <time>2020-01-26T07:45:36Z</time>
      </trkpt>
      <trkpt lat="45.77377" lon="-1.20937">
        <ele>74.2</ele>
        <time>2020-01-26T07:45:37Z</time>
      </trkpt>
      <trkpt lat="45.77379" lon="-1.20926">
        <ele>73.8</ele>
        <time>2020-01-26T07:45:38Z</time>
      </trkpt>
      <trkpt lat="45.77381" lon="-1.20914">
        <ele>73.6</ele>
        <time>2020-01-26T07:45:39Z</time>
      </trkpt>
      <trkpt lat="45.77382" lon="-1.20904">
        <ele>73.2</ele>
        <time>2020-01-26T07:45:40Z</time>
      </trkpt>
      <trkpt lat="45.77382" lon="-1.20897">
        <ele>73.4</ele>
        <time>2020-01-26T07:45:41Z</time>
      </trkpt>
      <trkpt lat="45.77383" lon="-1.20889">
        <ele>73.4</ele>
        <time>2020-01-26T07:45:42Z</time>
      </trkpt>
      <trkpt lat="45.77385" lon="-1.20882">
        <ele>73.6</ele>
        <time>2020-01-26T07:45:43Z</time>
      </trkpt>
      <trkpt lat="45.77387" lon="-1.20877">
        <ele>74.2</ele>
        <time>2020-01-26T07:45:44Z</time>
      </trkpt>
      <trkpt lat="45.77389" lon="-1.20872">
        <ele>74.4</ele>
        <time>2020-01-26T07:45:45Z</time>
      </trkpt>
      <trkpt lat="45.77389" lon="-1.20865">
        <ele>74</ele>
        <time>2020-01-26T07:45:46Z</time>
      </trkpt>
      <trkpt lat="45.7739" lon="-1.2086">
        <ele>73.2</ele>
        <time>2020-01-26T07:45:47Z</time>
      </trkpt>
      <trkpt lat="45.77391" lon="-1.20853">
        <ele>73</ele>
        <time>2020-01-26T07:45:48Z</time>
      </trkpt>
      <trkpt lat="45.77394" lon="-1.20844">
        <ele>72.8</ele>
        <time>2020-01-26T07:45:49Z</time>
      </trkpt>
      <trkpt lat="45.77396" lon="-1.20837">
        <ele>72.8</ele>
        <time>2020-01-26T07:45:50Z</time>
      </trkpt>
      <trkpt lat="45.77398" lon="-1.20831">
        <ele>73</ele>
        <time>2020-01-26T07:45:51Z</time>
      </trkpt>
      <trkpt lat="45.774" lon="-1.20825">
        <ele>73</ele>
        <time>2020-01-26T07:45:52Z</time>
      </trkpt>
      <trkpt lat="45.77404" lon="-1.20819">
        <ele>73</ele>
        <time>2020-01-26T07:45:53Z</time>
      </trkpt>
      <trkpt lat="45.77405" lon="-1.20813">
        <ele>73.2</ele>
        <time>2020-01-26T07:45:54Z</time>
      </trkpt>
      <trkpt lat="45.77405" lon="-1.20807">
        <ele>73.6</ele>
        <time>2020-01-26T07:45:55Z</time>
      </trkpt>
      <trkpt lat="45.77403" lon="-1.20802">
        <ele>74</ele>
        <time>2020-01-26T07:45:56Z</time>
      </trkpt>
      <trkpt lat="45.77401" lon="-1.20797">
        <ele>74.4</ele>
        <time>2020-01-26T07:45:57Z</time>
      </trkpt>
      <trkpt lat="45.77399" lon="-1.20793">
        <ele>74.6</ele>
        <time>2020-01-26T07:45:58Z</time>
      </trkpt>
      <trkpt lat="45.77397" lon="-1.20788">
        <ele>75</ele>
        <time>2020-01-26T07:45:59Z</time>
      </trkpt>
      <trkpt lat="45.77396" lon="-1.20782">
        <ele>75</ele>
        <time>2020-01-26T07:46:00Z</time>
      </trkpt>
      <trkpt lat="45.77394" lon="-1.20777">
        <ele>74.6</ele>
        <time>2020-01-26T07:46:01Z</time>
      </trkpt>
      <trkpt lat="45.77393" lon="-1.20771">
        <ele>74.4</ele>
        <time>2020-01-26T07:46:02Z</time>
      </trkpt>
      <trkpt lat="45.77393" lon="-1.20766">
        <ele>74.2</ele>
        <time>2020-01-26T07:46:03Z</time>
      </trkpt>
      <trkpt lat="45.77391" lon="-1.20761">
        <ele>73.8</ele>
        <time>2020-01-26T07:46:04Z</time>
      </trkpt>
      <trkpt lat="45.7739" lon="-1.20758">
        <ele>74</ele>
        <time>2020-01-26T07:46:05Z</time>
      </trkpt>
      <trkpt lat="45.77388" lon="-1.20755">
        <ele>74.2</ele>
        <time>2020-01-26T07:46:06Z</time>
      </trkpt>
      <trkpt lat="45.77387" lon="-1.20753">
        <ele>74.6</ele>
        <time>2020-01-26T07:46:07Z</time>
      </trkpt>
      <trkpt lat="45.77386" lon="-1.20751">
        <ele>75</ele>
        <time>2020-01-26T07:46:08Z</time>
      </trkpt>
      <trkpt lat="45.77385" lon="-1.20749">
        <ele>75.2</ele>
        <time>2020-01-26T07:46:09Z</time>
      </trkpt>
      <trkpt lat="45.77384" lon="-1.20746">
        <ele>76</ele>
        <time>2020-01-26T07:46:10Z</time>
      </trkpt>
      <trkpt lat="45.77383" lon="-1.20744">
        <ele>76.8</ele>
        <time>2020-01-26T07:46:11Z</time>
      </trkpt>
      <trkpt lat="45.77383" lon="-1.20742">
        <ele>77.6</ele>
        <time>2020-01-26T07:46:12Z</time>
      </trkpt>
      <trkpt lat="45.77382" lon="-1.2074">
        <ele>78.2</ele>
        <time>2020-01-26T07:46:13Z</time>
      </trkpt>
      <trkpt lat="45.77382" lon="-1.20738">
        <ele>79</ele>
        <time>2020-01-26T07:46:14Z</time>
      </trkpt>
      <trkpt lat="45.77382" lon="-1.20735">
        <ele>79.4</ele>
        <time>2020-01-26T07:46:15Z</time>
      </trkpt>
      <trkpt lat="45.77382" lon="-1.20732">
        <ele>79.8</ele>
        <time>2020-01-26T07:46:16Z</time>
      </trkpt>
      <trkpt lat="45.77383" lon="-1.20729">
        <ele>80</ele>
        <time>2020-01-26T07:46:17Z</time>
      </trkpt>
      <trkpt lat="45.77385" lon="-1.20724">
        <ele>80</ele>
        <time>2020-01-26T07:46:18Z</time>
      </trkpt>
      <trkpt lat="45.77385" lon="-1.20721">
        <ele>79.8</ele>
        <time>2020-01-26T07:46:19Z</time>
      </trkpt>
      <trkpt lat="45.77385" lon="-1.20717">
        <ele>79.6</ele>
        <time>2020-01-26T07:46:20Z</time>
      </trkpt>
      <trkpt lat="45.77385" lon="-1.20712">
        <ele>80</ele>
        <time>2020-01-26T07:46:21Z</time>
      </trkpt>
      <trkpt lat="45.77385" lon="-1.20705">
        <ele>79.8</ele>
        <time>2020-01-26T07:46:22Z</time>
      </trkpt>
      <trkpt lat="45.77385" lon="-1.20701">
        <ele>79.8</ele>
        <time>2020-01-26T07:46:23Z</time>
      </trkpt>
      <trkpt lat="45.77383" lon="-1.20697">
        <ele>80.2</ele>
        <time>2020-01-26T07:46:24Z</time>
      </trkpt>
      <trkpt lat="45.77382" lon="-1.20693">
        <ele>80.4</ele>
        <time>2020-01-26T07:46:25Z</time>
      </trkpt>
      <trkpt lat="45.77381" lon="-1.20689">
        <ele>80.8</ele>
        <time>2020-01-26T07:46:26Z</time>
      </trkpt>
      <trkpt lat="45.7738" lon="-1.20687">
        <ele>81</ele>
        <time>2020-01-26T07:46:27Z</time>
      </trkpt>
      <trkpt lat="45.77378" lon="-1.20685">
        <ele>81.2</ele>
        <time>2020-01-26T07:46:28Z</time>
      </trkpt>
      <trkpt lat="45.77377" lon="-1.20684">
        <ele>81.2</ele>
        <time>2020-01-26T07:46:29Z</time>
      </trkpt>
      <trkpt lat="45.77375" lon="-1.20682">
        <ele>81.2</ele>
        <time>2020-01-26T07:46:30Z</time>
      </trkpt>
      <trkpt lat="45.77373" lon="-1.2068">
        <ele>81.6</ele>
        <time>2020-01-26T07:46:31Z</time>
      </trkpt>
      <trkpt lat="45.77371" lon="-1.20679">
        <ele>82</ele>
        <time>2020-01-26T07:46:32Z</time>
      </trkpt>
      <trkpt lat="45.77369" lon="-1.20679">
        <ele>82.2</ele>
        <time>2020-01-26T07:46:33Z</time>
      </trkpt>
      <trkpt lat="45.77367" lon="-1.20678">
        <ele>82.8</ele>
        <time>2020-01-26T07:46:34Z</time>
      </trkpt>
      <trkpt lat="45.77365" lon="-1.20677">
        <ele>83</ele>
        <time>2020-01-26T07:46:35Z</time>
      </trkpt>
      <trkpt lat="45.77364" lon="-1.20676">
        <ele>83</ele>
        <time>2020-01-26T07:46:36Z</time>
      </trkpt>
      <trkpt lat="45.77363" lon="-1.20674">
        <ele>83.4</ele>
        <time>2020-01-26T07:46:37Z</time>
      </trkpt>
      <trkpt lat="45.77362" lon="-1.20672">
        <ele>83.8</ele>
        <time>2020-01-26T07:46:38Z</time>
      </trkpt>
      <trkpt lat="45.77361" lon="-1.20669">
        <ele>84.2</ele>
        <time>2020-01-26T07:46:39Z</time>
      </trkpt>
      <trkpt lat="45.7736" lon="-1.20667">
        <ele>84.8</ele>
        <time>2020-01-26T07:46:40Z</time>
      </trkpt>
      <trkpt lat="45.77358" lon="-1.20664">
        <ele>85.4</ele>
        <time>2020-01-26T07:46:41Z</time>
      </trkpt>
      <trkpt lat="45.77356" lon="-1.20662">
        <ele>86.2</ele>
        <time>2020-01-26T07:46:42Z</time>
      </trkpt>
      <trkpt lat="45.77355" lon="-1.2066">
        <ele>87</ele>
        <time>2020-01-26T07:46:43Z</time>
      </trkpt>
      <trkpt lat="45.77355" lon="-1.20657">
        <ele>87.8</ele>
        <time>2020-01-26T07:46:44Z</time>
      </trkpt>
      <trkpt lat="45.77354" lon="-1.20652">
        <ele>88.6</ele>
        <time>2020-01-26T07:46:45Z</time>
      </trkpt>
      <trkpt lat="45.77352" lon="-1.2065">
        <ele>89</ele>
        <time>2020-01-26T07:46:46Z</time>
      </trkpt>
      <trkpt lat="45.77349" lon="-1.20649">
        <ele>89.2</ele>
        <time>2020-01-26T07:46:47Z</time>
      </trkpt>
      <trkpt lat="45.77346" lon="-1.20648">
        <ele>88.8</ele>
        <time>2020-01-26T07:46:48Z</time>
      </trkpt>
      <trkpt lat="45.77343" lon="-1.20648">
        <ele>88.6</ele>
        <time>2020-01-26T07:46:49Z</time>
      </trkpt>
      <trkpt lat="45.77341" lon="-1.20647">
        <ele>88.4</ele>
        <time>2020-01-26T07:46:50Z</time>
      </trkpt>
      <trkpt lat="45.77338" lon="-1.20646">
        <ele>87.6</ele>
        <time>2020-01-26T07:46:51Z</time>
      </trkpt>
      <trkpt lat="45.77334" lon="-1.20645">
        <ele>86.6</ele>
        <time>2020-01-26T07:46:52Z</time>
      </trkpt>
      <trkpt lat="45.7733" lon="-1.20643">
        <ele>86</ele>
        <time>2020-01-26T07:46:53Z</time>
      </trkpt>
      <trkpt lat="45.77326" lon="-1.20639">
        <ele>85</ele>
        <time>2020-01-26T07:46:54Z</time>
      </trkpt>
      <trkpt lat="45.77323" lon="-1.20638">
        <ele>84</ele>
        <time>2020-01-26T07:46:55Z</time>
      </trkpt>
      <trkpt lat="45.77322" lon="-1.20638">
        <ele>83.2</ele>
        <time>2020-01-26T07:46:56Z</time>
      </trkpt>
      <trkpt lat="45.77322" lon="-1.20634">
        <ele>82.4</ele>
        <time>2020-01-26T07:46:57Z</time>
      </trkpt>
      <trkpt lat="45.77322" lon="-1.20629">
        <ele>81.8</ele>
        <time>2020-01-26T07:46:58Z</time>
      </trkpt>
      <trkpt lat="45.77324" lon="-1.20626">
        <ele>81</ele>
        <time>2020-01-26T07:46:59Z</time>
      </trkpt>
      <trkpt lat="45.77324" lon="-1.20622">
        <ele>80.4</ele>
        <time>2020-01-26T07:47:00Z</time>
      </trkpt>
      <trkpt lat="45.77319" lon="-1.2062">
        <ele>79.6</ele>
        <time>2020-01-26T07:47:01Z</time>
      </trkpt>
      <trkpt lat="45.77317" lon="-1.2062">
        <ele>78.6</ele>
        <time>2020-01-26T07:47:02Z</time>
      </trkpt>
      <trkpt lat="45.77314" lon="-1.20621">
        <ele>77.8</ele>
        <time>2020-01-26T07:47:03Z</time>
      </trkpt>
      <trkpt lat="45.77311" lon="-1.20617">
        <ele>77.4</ele>
        <time>2020-01-26T07:47:04Z</time>
      </trkpt>
      <trkpt lat="45.77308" lon="-1.20615">
        <ele>76.6</ele>
        <time>2020-01-26T07:47:05Z</time>
      </trkpt>
      <trkpt lat="45.77306" lon="-1.20613">
        <ele>76</ele>
        <time>2020-01-26T07:47:06Z</time>
      </trkpt>
      <trkpt lat="45.77303" lon="-1.20612">
        <ele>75.2</ele>
        <time>2020-01-26T07:47:07Z</time>
      </trkpt>
      <trkpt lat="45.77298" lon="-1.2061">
        <ele>74.2</ele>
        <time>2020-01-26T07:47:08Z</time>
      </trkpt>
      <trkpt lat="45.77295" lon="-1.2061">
        <ele>73.4</ele>
        <time>2020-01-26T07:47:09Z</time>
      </trkpt>
      <trkpt lat="45.77292" lon="-1.20609">
        <ele>73</ele>
        <time>2020-01-26T07:47:10Z</time>
      </trkpt>
      <trkpt lat="45.77289" lon="-1.20606">
        <ele>72.8</ele>
        <time>2020-01-26T07:47:11Z</time>
      </trkpt>
      <trkpt lat="45.77286" lon="-1.20603">
        <ele>72.2</ele>
        <time>2020-01-26T07:47:12Z</time>
      </trkpt>
      <trkpt lat="45.77283" lon="-1.20602">
        <ele>71.8</ele>
        <time>2020-01-26T07:47:13Z</time>
      </trkpt>
      <trkpt lat="45.77279" lon="-1.20602">
        <ele>71.6</ele>
        <time>2020-01-26T07:47:14Z</time>
      </trkpt>
      <trkpt lat="45.77275" lon="-1.20602">
        <ele>71.4</ele>
        <time>2020-01-26T07:47:15Z</time>
      </trkpt>
      <trkpt lat="45.77271" lon="-1.20602">
        <ele>71</ele>
        <time>2020-01-26T07:47:16Z</time>
      </trkpt>
      <trkpt lat="45.77269" lon="-1.20603">
        <ele>71</ele>
        <time>2020-01-26T07:47:17Z</time>
      </trkpt>
      <trkpt lat="45.77267" lon="-1.20605">
        <ele>71.4</ele>
        <time>2020-01-26T07:47:18Z</time>
      </trkpt>
      <trkpt lat="45.77264" lon="-1.20604">
        <ele>71.8</ele>
        <time>2020-01-26T07:47:19Z</time>
      </trkpt>
      <trkpt lat="45.77263" lon="-1.206">
        <ele>71.8</ele>
        <time>2020-01-26T07:47:20Z</time>
      </trkpt>
      <trkpt lat="45.77264" lon="-1.20597">
        <ele>72</ele>
        <time>2020-01-26T07:47:21Z</time>
      </trkpt>
      <trkpt lat="45.77265" lon="-1.20593">
        <ele>72.4</ele>
        <time>2020-01-26T07:47:22Z</time>
      </trkpt>
      <trkpt lat="45.77266" lon="-1.20589">
        <ele>73.4</ele>
        <time>2020-01-26T07:47:23Z</time>
      </trkpt>
      <trkpt lat="45.77268" lon="-1.20587">
        <ele>74.2</ele>
        <time>2020-01-26T07:47:24Z</time>
      </trkpt>
      <trkpt lat="45.77272" lon="-1.20587">
        <ele>74.2</ele>
        <time>2020-01-26T07:47:25Z</time>
      </trkpt>
      <trkpt lat="45.77276" lon="-1.20586">
        <ele>73.8</ele>
        <time>2020-01-26T07:47:26Z</time>
      </trkpt>
      <trkpt lat="45.77282" lon="-1.20584">
        <ele>74</ele>
        <time>2020-01-26T07:47:27Z</time>
      </trkpt>
      <trkpt lat="45.77288" lon="-1.20581">
        <ele>74.2</ele>
        <time>2020-01-26T07:47:28Z</time>
      </trkpt>
      <trkpt lat="45.77293" lon="-1.2058">
        <ele>74.2</ele>
        <time>2020-01-26T07:47:29Z</time>
      </trkpt>
      <trkpt lat="45.773" lon="-1.20577">
        <ele>74</ele>
        <time>2020-01-26T07:47:30Z</time>
      </trkpt>
      <trkpt lat="45.77306" lon="-1.20571">
        <ele>74.2</ele>
        <time>2020-01-26T07:47:31Z</time>
      </trkpt>
      <trkpt lat="45.77312" lon="-1.20567">
        <ele>74.6</ele>
        <time>2020-01-26T07:47:32Z</time>
      </trkpt>
      <trkpt lat="45.77318" lon="-1.20561">
        <ele>74.6</ele>
        <time>2020-01-26T07:47:33Z</time>
      </trkpt>
      <trkpt lat="45.77325" lon="-1.20555">
        <ele>74.8</ele>
        <time>2020-01-26T07:47:34Z</time>
      </trkpt>
      <trkpt lat="45.77332" lon="-1.2055">
        <ele>74.6</ele>
        <time>2020-01-26T07:47:35Z</time>
      </trkpt>
      <trkpt lat="45.77338" lon="-1.20546">
        <ele>74.4</ele>
        <time>2020-01-26T07:47:36Z</time>
      </trkpt>
      <trkpt lat="45.77345" lon="-1.20541">
        <ele>74.4</ele>
        <time>2020-01-26T07:47:37Z</time>
      </trkpt>
      <trkpt lat="45.7735" lon="-1.20535">
        <ele>74.2</ele>
        <time>2020-01-26T07:47:38Z</time>
      </trkpt>
      <trkpt lat="45.77351" lon="-1.20526">
        <ele>74.2</ele>
        <time>2020-01-26T07:47:39Z</time>
      </trkpt>
      <trkpt lat="45.77352" lon="-1.2052">
        <ele>74.2</ele>
        <time>2020-01-26T07:47:40Z</time>
      </trkpt>
      <trkpt lat="45.77354" lon="-1.20514">
        <ele>73.8</ele>
        <time>2020-01-26T07:47:41Z</time>
      </trkpt>
      <trkpt lat="45.77355" lon="-1.20509">
        <ele>73.8</ele>
        <time>2020-01-26T07:47:42Z</time>
      </trkpt>
      <trkpt lat="45.77354" lon="-1.20504">
        <ele>74</ele>
        <time>2020-01-26T07:47:43Z</time>
      </trkpt>
      <trkpt lat="45.77353" lon="-1.20493">
        <ele>74</ele>
        <time>2020-01-26T07:47:44Z</time>
      </trkpt>
      <trkpt lat="45.77353" lon="-1.20484">
        <ele>74</ele>
        <time>2020-01-26T07:47:45Z</time>
      </trkpt>
      <trkpt lat="45.77352" lon="-1.20477">
        <ele>74</ele>
        <time>2020-01-26T07:47:46Z</time>
      </trkpt>
      <trkpt lat="45.7735" lon="-1.2047">
        <ele>74</ele>
        <time>2020-01-26T07:47:47Z</time>
      </trkpt>
      <trkpt lat="45.77345" lon="-1.20461">
        <ele>73.4</ele>
        <time>2020-01-26T07:47:48Z</time>
      </trkpt>
      <trkpt lat="45.7734" lon="-1.20459">
        <ele>72.8</ele>
        <time>2020-01-26T07:47:49Z</time>
      </trkpt>
      <trkpt lat="45.77334" lon="-1.20453">
        <ele>72</ele>
        <time>2020-01-26T07:47:50Z</time>
      </trkpt>
      <trkpt lat="45.7733" lon="-1.20448">
        <ele>71.4</ele>
        <time>2020-01-26T07:47:51Z</time>
      </trkpt>
      <trkpt lat="45.77324" lon="-1.20441">
        <ele>70.6</ele>
        <time>2020-01-26T07:47:52Z</time>
      </trkpt>
      <trkpt lat="45.77319" lon="-1.20434">
        <ele>70</ele>
        <time>2020-01-26T07:47:53Z</time>
      </trkpt>
      <trkpt lat="45.77313" lon="-1.20426">
        <ele>69.2</ele>
        <time>2020-01-26T07:47:54Z</time>
      </trkpt>
      <trkpt lat="45.77307" lon="-1.20416">
        <ele>68.4</ele>
        <time>2020-01-26T07:47:55Z</time>
      </trkpt>
      <trkpt lat="45.773" lon="-1.20406">
        <ele>68</ele>
        <time>2020-01-26T07:47:56Z</time>
      </trkpt>
      <trkpt lat="45.77295" lon="-1.20399">
        <ele>67.8</ele>
        <time>2020-01-26T07:47:57Z</time>
      </trkpt>
      <trkpt lat="45.77289" lon="-1.20392">
        <ele>67.4</ele>
        <time>2020-01-26T07:47:58Z</time>
      </trkpt>
      <trkpt lat="45.77285" lon="-1.20384">
        <ele>67</ele>
        <time>2020-01-26T07:47:59Z</time>
      </trkpt>
      <trkpt lat="45.7728" lon="-1.20378">
        <ele>66.2</ele>
        <time>2020-01-26T07:48:00Z</time>
      </trkpt>
      <trkpt lat="45.77276" lon="-1.20369">
        <ele>64.6</ele>
        <time>2020-01-26T07:48:01Z</time>
      </trkpt>
      <trkpt lat="45.77272" lon="-1.20361">
        <ele>63.2</ele>
        <time>2020-01-26T07:48:02Z</time>
      </trkpt>
      <trkpt lat="45.77267" lon="-1.20353">
        <ele>62</ele>
        <time>2020-01-26T07:48:03Z</time>
      </trkpt>
      <trkpt lat="45.77262" lon="-1.20346">
        <ele>61</ele>
        <time>2020-01-26T07:48:04Z</time>
      </trkpt>
      <trkpt lat="45.77258" lon="-1.20339">
        <ele>60</ele>
        <time>2020-01-26T07:48:05Z</time>
      </trkpt>
      <trkpt lat="45.77255" lon="-1.20331">
        <ele>59</ele>
        <time>2020-01-26T07:48:06Z</time>
      </trkpt>
      <trkpt lat="45.77251" lon="-1.20325">
        <ele>58.2</ele>
        <time>2020-01-26T07:48:07Z</time>
      </trkpt>
      <trkpt lat="45.77246" lon="-1.20318">
        <ele>57.8</ele>
        <time>2020-01-26T07:48:08Z</time>
      </trkpt>
      <trkpt lat="45.77243" lon="-1.20313">
        <ele>57.8</ele>
        <time>2020-01-26T07:48:09Z</time>
      </trkpt>
      <trkpt lat="45.7724" lon="-1.20307">
        <ele>58</ele>
        <time>2020-01-26T07:48:10Z</time>
      </trkpt>
      <trkpt lat="45.77236" lon="-1.20299">
        <ele>58.4</ele>
        <time>2020-01-26T07:48:11Z</time>
      </trkpt>
      <trkpt lat="45.77233" lon="-1.20292">
        <ele>58.2</ele>
        <time>2020-01-26T07:48:12Z</time>
      </trkpt>
      <trkpt lat="45.77229" lon="-1.20285">
        <ele>57.6</ele>
        <time>2020-01-26T07:48:13Z</time>
      </trkpt>
      <trkpt lat="45.77225" lon="-1.20278">
        <ele>57.2</ele>
        <time>2020-01-26T07:48:14Z</time>
      </trkpt>
      <trkpt lat="45.77222" lon="-1.2027">
        <ele>56.8</ele>
        <time>2020-01-26T07:48:15Z</time>
      </trkpt>
      <trkpt lat="45.77219" lon="-1.20259">
        <ele>56.8</ele>
        <time>2020-01-26T07:48:16Z</time>
      </trkpt>
      <trkpt lat="45.77216" lon="-1.20249">
        <ele>56.2</ele>
        <time>2020-01-26T07:48:17Z</time>
      </trkpt>
      <trkpt lat="45.77213" lon="-1.20241">
        <ele>56</ele>
        <time>2020-01-26T07:48:18Z</time>
      </trkpt>
      <trkpt lat="45.77208" lon="-1.20234">
        <ele>55.8</ele>
        <time>2020-01-26T07:48:19Z</time>
      </trkpt>
      <trkpt lat="45.77204" lon="-1.20226">
        <ele>55.6</ele>
        <time>2020-01-26T07:48:20Z</time>
      </trkpt>
      <trkpt lat="45.772" lon="-1.2022">
        <ele>55.4</ele>
        <time>2020-01-26T07:48:21Z</time>
      </trkpt>
      <trkpt lat="45.77196" lon="-1.20216">
        <ele>55</ele>
        <time>2020-01-26T07:48:22Z</time>
      </trkpt>
      <trkpt lat="45.77192" lon="-1.20209">
        <ele>54.2</ele>
        <time>2020-01-26T07:48:23Z</time>
      </trkpt>
      <trkpt lat="45.77187" lon="-1.20203">
        <ele>53.6</ele>
        <time>2020-01-26T07:48:24Z</time>
      </trkpt>
      <trkpt lat="45.77182" lon="-1.20196">
        <ele>53</ele>
        <time>2020-01-26T07:48:25Z</time>
      </trkpt>
      <trkpt lat="45.77179" lon="-1.20191">
        <ele>52.8</ele>
        <time>2020-01-26T07:48:26Z</time>
      </trkpt>
      <trkpt lat="45.77175" lon="-1.20185">
        <ele>52.4</ele>
        <time>2020-01-26T07:48:27Z</time>
      </trkpt>
      <trkpt lat="45.77171" lon="-1.2018">
        <ele>52.2</ele>
        <time>2020-01-26T07:48:28Z</time>
      </trkpt>
      <trkpt lat="45.77167" lon="-1.20175">
        <ele>51.6</ele>
        <time>2020-01-26T07:48:29Z</time>
      </trkpt>
      <trkpt lat="45.77164" lon="-1.20172">
        <ele>51</ele>
        <time>2020-01-26T07:48:30Z</time>
      </trkpt>
      <trkpt lat="45.77161" lon="-1.20168">
        <ele>50.4</ele>
        <time>2020-01-26T07:48:31Z</time>
      </trkpt>
      <trkpt lat="45.77158" lon="-1.20163">
        <ele>50.4</ele>
        <time>2020-01-26T07:48:32Z</time>
      </trkpt>
      <trkpt lat="45.77155" lon="-1.20157">
        <ele>50.4</ele>
        <time>2020-01-26T07:48:33Z</time>
      </trkpt>
      <trkpt lat="45.77155" lon="-1.20151">
        <ele>49.8</ele>
        <time>2020-01-26T07:48:34Z</time>
      </trkpt>
      <trkpt lat="45.77153" lon="-1.20144">
        <ele>49.4</ele>
        <time>2020-01-26T07:48:35Z</time>
      </trkpt>
      <trkpt lat="45.77152" lon="-1.20136">
        <ele>49</ele>
        <time>2020-01-26T07:48:36Z</time>
      </trkpt>
      <trkpt lat="45.77152" lon="-1.2013">
        <ele>48.8</ele>
        <time>2020-01-26T07:48:37Z</time>
      </trkpt>
      <trkpt lat="45.77153" lon="-1.20125">
        <ele>48.6</ele>
        <time>2020-01-26T07:48:38Z</time>
      </trkpt>
      <trkpt lat="45.77154" lon="-1.2012">
        <ele>48.6</ele>
        <time>2020-01-26T07:48:39Z</time>
      </trkpt>
      <trkpt lat="45.77156" lon="-1.20117">
        <ele>48.4</ele>
        <time>2020-01-26T07:48:40Z</time>
      </trkpt>
      <trkpt lat="45.77153" lon="-1.20107">
        <ele>47.6</ele>
        <time>2020-01-26T07:48:41Z</time>
      </trkpt>
      <trkpt lat="45.77152" lon="-1.20098">
        <ele>47.4</ele>
        <time>2020-01-26T07:48:42Z</time>
      </trkpt>
      <trkpt lat="45.77152" lon="-1.2009">
        <ele>47.4</ele>
        <time>2020-01-26T07:48:43Z</time>
      </trkpt>
      <trkpt lat="45.7715" lon="-1.20082">
        <ele>47.6</ele>
        <time>2020-01-26T07:48:44Z</time>
      </trkpt>
      <trkpt lat="45.7715" lon="-1.20073">
        <ele>48</ele>
        <time>2020-01-26T07:48:45Z</time>
      </trkpt>
      <trkpt lat="45.77151" lon="-1.20064">
        <ele>48.2</ele>
        <time>2020-01-26T07:48:46Z</time>
      </trkpt>
      <trkpt lat="45.7715" lon="-1.20055">
        <ele>48.6</ele>
        <time>2020-01-26T07:48:47Z</time>
      </trkpt>
      <trkpt lat="45.7715" lon="-1.20049">
        <ele>49</ele>
        <time>2020-01-26T07:48:48Z</time>
      </trkpt>
      <trkpt lat="45.77151" lon="-1.20045">
        <ele>49.6</ele>
        <time>2020-01-26T07:48:49Z</time>
      </trkpt>
      <trkpt lat="45.77152" lon="-1.20042">
        <ele>50.2</ele>
        <time>2020-01-26T07:48:50Z</time>
      </trkpt>
      <trkpt lat="45.77154" lon="-1.20039">
        <ele>50.4</ele>
        <time>2020-01-26T07:48:51Z</time>
      </trkpt>
      <trkpt lat="45.77157" lon="-1.20037">
        <ele>50.8</ele>
        <time>2020-01-26T07:48:52Z</time>
      </trkpt>
      <trkpt lat="45.77158" lon="-1.20034">
        <ele>51.2</ele>
        <time>2020-01-26T07:48:53Z</time>
      </trkpt>
      <trkpt lat="45.77159" lon="-1.20033">
        <ele>51.6</ele>
        <time>2020-01-26T07:48:54Z</time>
      </trkpt>
      <trkpt lat="45.77161" lon="-1.20032">
        <ele>52</ele>
        <time>2020-01-26T07:48:55Z</time>
      </trkpt>
      <trkpt lat="45.77162" lon="-1.20032">
        <ele>52.4</ele>
        <time>2020-01-26T07:48:56Z</time>
      </trkpt>
      <trkpt lat="45.77165" lon="-1.20032">
        <ele>52.8</ele>
        <time>2020-01-26T07:48:57Z</time>
      </trkpt>
      <trkpt lat="45.77167" lon="-1.20031">
        <ele>53.2</ele>
        <time>2020-01-26T07:48:58Z</time>
      </trkpt>
      <trkpt lat="45.77169" lon="-1.20029">
        <ele>53.4</ele>
        <time>2020-01-26T07:48:59Z</time>
      </trkpt>
      <trkpt lat="45.77172" lon="-1.20028">
        <ele>53.4</ele>
        <time>2020-01-26T07:49:00Z</time>
      </trkpt>
      <trkpt lat="45.77178" lon="-1.20027">
        <ele>53.2</ele>
        <time>2020-01-26T07:49:01Z</time>
      </trkpt>
      <trkpt lat="45.77182" lon="-1.20024">
        <ele>52.8</ele>
        <time>2020-01-26T07:49:02Z</time>
      </trkpt>
      <trkpt lat="45.77187" lon="-1.20021">
        <ele>52.6</ele>
        <time>2020-01-26T07:49:03Z</time>
      </trkpt>
      <trkpt lat="45.77189" lon="-1.20016">
        <ele>52.4</ele>
        <time>2020-01-26T07:49:04Z</time>
      </trkpt>
      <trkpt lat="45.77192" lon="-1.20011">
        <ele>52.2</ele>
        <time>2020-01-26T07:49:05Z</time>
      </trkpt>
      <trkpt lat="45.77194" lon="-1.20003">
        <ele>52</ele>
        <time>2020-01-26T07:49:06Z</time>
      </trkpt>
      <trkpt lat="45.77197" lon="-1.19999">
        <ele>51.8</ele>
        <time>2020-01-26T07:49:07Z</time>
      </trkpt>
      <trkpt lat="45.77199" lon="-1.19998">
        <ele>51.6</ele>
        <time>2020-01-26T07:49:08Z</time>
      </trkpt>
      <trkpt lat="45.77201" lon="-1.19993">
        <ele>51.2</ele>
        <time>2020-01-26T07:49:09Z</time>
      </trkpt>
      <trkpt lat="45.77201" lon="-1.19989">
        <ele>50.6</ele>
        <time>2020-01-26T07:49:10Z</time>
      </trkpt>
      <trkpt lat="45.77202" lon="-1.19987">
        <ele>50</ele>
        <time>2020-01-26T07:49:11Z</time>
      </trkpt>
      <trkpt lat="45.77203" lon="-1.19985">
        <ele>49.4</ele>
        <time>2020-01-26T07:49:12Z</time>
      </trkpt>
      <trkpt lat="45.77205" lon="-1.19982">
        <ele>48.8</ele>
        <time>2020-01-26T07:49:13Z</time>
      </trkpt>
      <trkpt lat="45.77206" lon="-1.19978">
        <ele>48.4</ele>
        <time>2020-01-26T07:49:14Z</time>
      </trkpt>
      <trkpt lat="45.77207" lon="-1.19975">
        <ele>48</ele>
        <time>2020-01-26T07:49:15Z</time>
      </trkpt>
      <trkpt lat="45.7721" lon="-1.19974">
        <ele>48.4</ele>
        <time>2020-01-26T07:49:16Z</time>
      </trkpt>
      <trkpt lat="45.77212" lon="-1.19971">
        <ele>48.6</ele>
        <time>2020-01-26T07:49:17Z</time>
      </trkpt>
      <trkpt lat="45.77214" lon="-1.19967">
        <ele>48.8</ele>
        <time>2020-01-26T07:49:18Z</time>
      </trkpt>
      <trkpt lat="45.77216" lon="-1.19962">
        <ele>49.2</ele>
        <time>2020-01-26T07:49:19Z</time>
      </trkpt>
      <trkpt lat="45.77218" lon="-1.19959">
        <ele>49.4</ele>
        <time>2020-01-26T07:49:20Z</time>
      </trkpt>
      <trkpt lat="45.77221" lon="-1.19955">
        <ele>49.6</ele>
        <time>2020-01-26T07:49:21Z</time>
      </trkpt>
      <trkpt lat="45.77221" lon="-1.19949">
        <ele>50.2</ele>
        <time>2020-01-26T07:49:22Z</time>
      </trkpt>
      <trkpt lat="45.77222" lon="-1.19945">
        <ele>50.8</ele>
        <time>2020-01-26T07:49:23Z</time>
      </trkpt>
      <trkpt lat="45.77226" lon="-1.19942">
        <ele>51.4</ele>
        <time>2020-01-26T07:49:24Z</time>
      </trkpt>
      <trkpt lat="45.77229" lon="-1.19936">
        <ele>52.2</ele>
        <time>2020-01-26T07:49:25Z</time>
      </trkpt>
      <trkpt lat="45.77232" lon="-1.19933">
        <ele>53.2</ele>
        <time>2020-01-26T07:49:26Z</time>
      </trkpt>
      <trkpt lat="45.77235" lon="-1.1993">
        <ele>54.2</ele>
        <time>2020-01-26T07:49:27Z</time>
      </trkpt>
      <trkpt lat="45.77237" lon="-1.19927">
        <ele>54.8</ele>
        <time>2020-01-26T07:49:28Z</time>
      </trkpt>
      <trkpt lat="45.77241" lon="-1.19925">
        <ele>55.4</ele>
        <time>2020-01-26T07:49:29Z</time>
      </trkpt>
      <trkpt lat="45.77243" lon="-1.19921">
        <ele>55.8</ele>
        <time>2020-01-26T07:49:30Z</time>
      </trkpt>
      <trkpt lat="45.77247" lon="-1.19917">
        <ele>56.4</ele>
        <time>2020-01-26T07:49:31Z</time>
      </trkpt>
      <trkpt lat="45.7725" lon="-1.19912">
        <ele>57.2</ele>
        <time>2020-01-26T07:49:32Z</time>
      </trkpt>
      <trkpt lat="45.77253" lon="-1.19907">
        <ele>57.8</ele>
        <time>2020-01-26T07:49:33Z</time>
      </trkpt>
      <trkpt lat="45.77256" lon="-1.19902">
        <ele>58.4</ele>
        <time>2020-01-26T07:49:34Z</time>
      </trkpt>
      <trkpt lat="45.77258" lon="-1.19897">
        <ele>58.8</ele>
        <time>2020-01-26T07:49:35Z</time>
      </trkpt>
      <trkpt lat="45.7726" lon="-1.19894">
        <ele>59.4</ele>
        <time>2020-01-26T07:49:36Z</time>
      </trkpt>
      <trkpt lat="45.77261" lon="-1.19888">
        <ele>59.8</ele>
        <time>2020-01-26T07:49:37Z</time>
      </trkpt>
      <trkpt lat="45.77264" lon="-1.19883">
        <ele>59.8</ele>
        <time>2020-01-26T07:49:38Z</time>
      </trkpt>
      <trkpt lat="45.77265" lon="-1.19878">
        <ele>60.4</ele>
        <time>2020-01-26T07:49:39Z</time>
      </trkpt>
      <trkpt lat="45.77267" lon="-1.19873">
        <ele>61.4</ele>
        <time>2020-01-26T07:49:40Z</time>
      </trkpt>
      <trkpt lat="45.77269" lon="-1.19869">
        <ele>62</ele>
        <time>2020-01-26T07:49:41Z</time>
      </trkpt>
      <trkpt lat="45.77271" lon="-1.19864">
        <ele>62</ele>
        <time>2020-01-26T07:49:42Z</time>
      </trkpt>
      <trkpt lat="45.77272" lon="-1.19859">
        <ele>61.6</ele>
        <time>2020-01-26T07:49:43Z</time>
      </trkpt>
      <trkpt lat="45.77274" lon="-1.19855">
        <ele>61.4</ele>
        <time>2020-01-26T07:49:44Z</time>
      </trkpt>
      <trkpt lat="45.77276" lon="-1.19849">
        <ele>61.2</ele>
        <time>2020-01-26T07:49:45Z</time>
      </trkpt>
      <trkpt lat="45.77277" lon="-1.19844">
        <ele>60.6</ele>
        <time>2020-01-26T07:49:46Z</time>
      </trkpt>
      <trkpt lat="45.77279" lon="-1.19839">
        <ele>60.4</ele>
        <time>2020-01-26T07:49:47Z</time>
      </trkpt>
      <trkpt lat="45.7728" lon="-1.19835">
        <ele>60.4</ele>
        <time>2020-01-26T07:49:48Z</time>
      </trkpt>
      <trkpt lat="45.77283" lon="-1.1983">
        <ele>60</ele>
        <time>2020-01-26T07:49:49Z</time>
      </trkpt>
      <trkpt lat="45.77285" lon="-1.19826">
        <ele>59.4</ele>
        <time>2020-01-26T07:49:50Z</time>
      </trkpt>
      <trkpt lat="45.77285" lon="-1.19824">
        <ele>58.8</ele>
        <time>2020-01-26T07:49:51Z</time>
      </trkpt>
      <trkpt lat="45.77286" lon="-1.1982">
        <ele>58.2</ele>
        <time>2020-01-26T07:49:52Z</time>
      </trkpt>
      <trkpt lat="45.77287" lon="-1.19816">
        <ele>57.8</ele>
        <time>2020-01-26T07:49:53Z</time>
      </trkpt>
      <trkpt lat="45.77288" lon="-1.19813">
        <ele>58.2</ele>
        <time>2020-01-26T07:49:54Z</time>
      </trkpt>
      <trkpt lat="45.77288" lon="-1.19807">
        <ele>58.4</ele>
        <time>2020-01-26T07:49:55Z</time>
      </trkpt>
      <trkpt lat="45.77288" lon="-1.19801">
        <ele>58.6</ele>
        <time>2020-01-26T07:49:56Z</time>
      </trkpt>
      <trkpt lat="45.77288" lon="-1.19796">
        <ele>59</ele>
        <time>2020-01-26T07:49:57Z</time>
      </trkpt>
      <trkpt lat="45.77288" lon="-1.19792">
        <ele>59.4</ele>
        <time>2020-01-26T07:49:58Z</time>
      </trkpt>
      <trkpt lat="45.77288" lon="-1.19788">
        <ele>60.2</ele>
        <time>2020-01-26T07:49:59Z</time>
      </trkpt>
      <trkpt lat="45.77289" lon="-1.19784">
        <ele>61.4</ele>
        <time>2020-01-26T07:50:00Z</time>
      </trkpt>
      <trkpt lat="45.77288" lon="-1.19779">
        <ele>62</ele>
        <time>2020-01-26T07:50:01Z</time>
      </trkpt>
      <trkpt lat="45.77287" lon="-1.19774">
        <ele>62.8</ele>
        <time>2020-01-26T07:50:02Z</time>
      </trkpt>
      <trkpt lat="45.77284" lon="-1.19767">
        <ele>63.4</ele>
        <time>2020-01-26T07:50:03Z</time>
      </trkpt>
      <trkpt lat="45.77282" lon="-1.19762">
        <ele>63.8</ele>
        <time>2020-01-26T07:50:04Z</time>
      </trkpt>
      <trkpt lat="45.7728" lon="-1.19756">
        <ele>64</ele>
        <time>2020-01-26T07:50:05Z</time>
      </trkpt>
      <trkpt lat="45.77279" lon="-1.19752">
        <ele>64.2</ele>
        <time>2020-01-26T07:50:06Z</time>
      </trkpt>
      <trkpt lat="45.77276" lon="-1.19748">
        <ele>64.4</ele>
        <time>2020-01-26T07:50:07Z</time>
      </trkpt>
      <trkpt lat="45.77273" lon="-1.19745">
        <ele>64.6</ele>
        <time>2020-01-26T07:50:08Z</time>
      </trkpt>
      <trkpt lat="45.7727" lon="-1.19736">
        <ele>65.2</ele>
        <time>2020-01-26T07:50:09Z</time>
      </trkpt>
      <trkpt lat="45.77268" lon="-1.19729">
        <ele>65.6</ele>
        <time>2020-01-26T07:50:10Z</time>
      </trkpt>
      <trkpt lat="45.77265" lon="-1.19723">
        <ele>66</ele>
        <time>2020-01-26T07:50:11Z</time>
      </trkpt>
      <trkpt lat="45.77263" lon="-1.19719">
        <ele>65.8</ele>
        <time>2020-01-26T07:50:12Z</time>
      </trkpt>
      <trkpt lat="45.77261" lon="-1.19714">
        <ele>66</ele>
        <time>2020-01-26T07:50:13Z</time>
      </trkpt>
      <trkpt lat="45.77259" lon="-1.1971">
        <ele>66.2</ele>
        <time>2020-01-26T07:50:14Z</time>
      </trkpt>
      <trkpt lat="45.77257" lon="-1.19707">
        <ele>66.2</ele>
        <time>2020-01-26T07:50:15Z</time>
      </trkpt>
      <trkpt lat="45.77254" lon="-1.19702">
        <ele>66.2</ele>
        <time>2020-01-26T07:50:16Z</time>
      </trkpt>
      <trkpt lat="45.77252" lon="-1.19698">
        <ele>66.2</ele>
        <time>2020-01-26T07:50:17Z</time>
      </trkpt>
      <trkpt lat="45.77249" lon="-1.19694">
        <ele>66.2</ele>
        <time>2020-01-26T07:50:18Z</time>
      </trkpt>
      <trkpt lat="45.77246" lon="-1.19691">
        <ele>66.4</ele>
        <time>2020-01-26T07:50:19Z</time>
      </trkpt>
      <trkpt lat="45.77243" lon="-1.19687">
        <ele>66.8</ele>
        <time>2020-01-26T07:50:20Z</time>
      </trkpt>
      <trkpt lat="45.77239" lon="-1.19685">
        <ele>67</ele>
        <time>2020-01-26T07:50:21Z</time>
      </trkpt>
      <trkpt lat="45.77234" lon="-1.19689">
        <ele>67.2</ele>
        <time>2020-01-26T07:50:22Z</time>
      </trkpt>
      <trkpt lat="45.7723" lon="-1.19693">
        <ele>67</ele>
        <time>2020-01-26T07:50:23Z</time>
      </trkpt>
      <trkpt lat="45.77227" lon="-1.19697">
        <ele>67</ele>
        <time>2020-01-26T07:50:24Z</time>
      </trkpt>
      <trkpt lat="45.77224" lon="-1.197">
        <ele>67.2</ele>
        <time>2020-01-26T07:50:25Z</time>
      </trkpt>
      <trkpt lat="45.77221" lon="-1.19702">
        <ele>67.6</ele>
        <time>2020-01-26T07:50:26Z</time>
      </trkpt>
      <trkpt lat="45.77216" lon="-1.19704">
        <ele>68</ele>
        <time>2020-01-26T07:50:27Z</time>
      </trkpt>
      <trkpt lat="45.77211" lon="-1.19706">
        <ele>68.2</ele>
        <time>2020-01-26T07:50:28Z</time>
      </trkpt>
      <trkpt lat="45.77207" lon="-1.19705">
        <ele>67.6</ele>
        <time>2020-01-26T07:50:29Z</time>
      </trkpt>
      <trkpt lat="45.77203" lon="-1.19706">
        <ele>67.2</ele>
        <time>2020-01-26T07:50:30Z</time>
      </trkpt>
      <trkpt lat="45.772" lon="-1.19706">
        <ele>66.6</ele>
        <time>2020-01-26T07:50:31Z</time>
      </trkpt>
      <trkpt lat="45.77198" lon="-1.19707">
        <ele>66</ele>
        <time>2020-01-26T07:50:32Z</time>
      </trkpt>
      <trkpt lat="45.77194" lon="-1.19708">
        <ele>65.4</ele>
        <time>2020-01-26T07:50:33Z</time>
      </trkpt>
      <trkpt lat="45.7719" lon="-1.1971">
        <ele>64.8</ele>
        <time>2020-01-26T07:50:34Z</time>
      </trkpt>
      <trkpt lat="45.77186" lon="-1.19712">
        <ele>64.4</ele>
        <time>2020-01-26T07:50:35Z</time>
      </trkpt>
      <trkpt lat="45.7718" lon="-1.19715">
        <ele>64</ele>
        <time>2020-01-26T07:50:36Z</time>
      </trkpt>
      <trkpt lat="45.77175" lon="-1.19717">
        <ele>63.8</ele>
        <time>2020-01-26T07:50:37Z</time>
      </trkpt>
      <trkpt lat="45.77172" lon="-1.19719">
        <ele>63.6</ele>
        <time>2020-01-26T07:50:38Z</time>
      </trkpt>
      <trkpt lat="45.77169" lon="-1.19719">
        <ele>63.4</ele>
        <time>2020-01-26T07:50:39Z</time>
      </trkpt>
      <trkpt lat="45.77165" lon="-1.19719">
        <ele>63.4</ele>
        <time>2020-01-26T07:50:40Z</time>
      </trkpt>
      <trkpt lat="45.77161" lon="-1.19718">
        <ele>63.6</ele>
        <time>2020-01-26T07:50:41Z</time>
      </trkpt>
      <trkpt lat="45.77157" lon="-1.1972">
        <ele>63.6</ele>
        <time>2020-01-26T07:50:42Z</time>
      </trkpt>
      <trkpt lat="45.77155" lon="-1.19721">
        <ele>63.4</ele>
        <time>2020-01-26T07:50:43Z</time>
      </trkpt>
      <trkpt lat="45.77151" lon="-1.19724">
        <ele>63.2</ele>
        <time>2020-01-26T07:50:44Z</time>
      </trkpt>
      <trkpt lat="45.77149" lon="-1.19729">
        <ele>63.4</ele>
        <time>2020-01-26T07:50:45Z</time>
      </trkpt>
      <trkpt lat="45.77147" lon="-1.19733">
        <ele>63.8</ele>
        <time>2020-01-26T07:50:46Z</time>
      </trkpt>
      <trkpt lat="45.77146" lon="-1.19739">
        <ele>64.2</ele>
        <time>2020-01-26T07:50:47Z</time>
      </trkpt>
      <trkpt lat="45.77147" lon="-1.19745">
        <ele>64.6</ele>
        <time>2020-01-26T07:50:48Z</time>
      </trkpt>
      <trkpt lat="45.77147" lon="-1.19751">
        <ele>65</ele>
        <time>2020-01-26T07:50:49Z</time>
      </trkpt>
      <trkpt lat="45.77147" lon="-1.19757">
        <ele>65.2</ele>
        <time>2020-01-26T07:50:50Z</time>
      </trkpt>
      <trkpt lat="45.77147" lon="-1.19761">
        <ele>66</ele>
        <time>2020-01-26T07:50:51Z</time>
      </trkpt>
      <trkpt lat="45.77145" lon="-1.19767">
        <ele>66.4</ele>
        <time>2020-01-26T07:50:52Z</time>
      </trkpt>
      <trkpt lat="45.77143" lon="-1.19773">
        <ele>66.6</ele>
        <time>2020-01-26T07:50:53Z</time>
      </trkpt>
      <trkpt lat="45.7714" lon="-1.19778">
        <ele>66.8</ele>
        <time>2020-01-26T07:50:54Z</time>
      </trkpt>
      <trkpt lat="45.77136" lon="-1.19775">
        <ele>66.4</ele>
        <time>2020-01-26T07:50:55Z</time>
      </trkpt>
      <trkpt lat="45.77133" lon="-1.19775">
        <ele>65.8</ele>
        <time>2020-01-26T07:50:56Z</time>
      </trkpt>
      <trkpt lat="45.77129" lon="-1.19775">
        <ele>65</ele>
        <time>2020-01-26T07:50:57Z</time>
      </trkpt>
      <trkpt lat="45.77126" lon="-1.19776">
        <ele>64.6</ele>
        <time>2020-01-26T07:50:58Z</time>
      </trkpt>
      <trkpt lat="45.7712" lon="-1.19776">
        <ele>64.2</ele>
        <time>2020-01-26T07:50:59Z</time>
      </trkpt>
      <trkpt lat="45.77116" lon="-1.19777">
        <ele>63.6</ele>
        <time>2020-01-26T07:51:00Z</time>
      </trkpt>
      <trkpt lat="45.77112" lon="-1.19777">
        <ele>63.4</ele>
        <time>2020-01-26T07:51:01Z</time>
      </trkpt>
      <trkpt lat="45.77109" lon="-1.19777">
        <ele>62.2</ele>
        <time>2020-01-26T07:51:02Z</time>
      </trkpt>
      <trkpt lat="45.77106" lon="-1.19776">
        <ele>61.2</ele>
        <time>2020-01-26T07:51:03Z</time>
      </trkpt>
      <trkpt lat="45.77103" lon="-1.19779">
        <ele>60.4</ele>
        <time>2020-01-26T07:51:04Z</time>
      </trkpt>
      <trkpt lat="45.77098" lon="-1.1978">
        <ele>59.8</ele>
        <time>2020-01-26T07:51:05Z</time>
      </trkpt>
      <trkpt lat="45.77092" lon="-1.1978">
        <ele>59.4</ele>
        <time>2020-01-26T07:51:06Z</time>
      </trkpt>
      <trkpt lat="45.77087" lon="-1.19779">
        <ele>59</ele>
        <time>2020-01-26T07:51:07Z</time>
      </trkpt>
      <trkpt lat="45.77079" lon="-1.19779">
        <ele>58.4</ele>
        <time>2020-01-26T07:51:08Z</time>
      </trkpt>
      <trkpt lat="45.77072" lon="-1.19779">
        <ele>58.2</ele>
        <time>2020-01-26T07:51:09Z</time>
      </trkpt>
      <trkpt lat="45.77066" lon="-1.1978">
        <ele>58.2</ele>
        <time>2020-01-26T07:51:10Z</time>
      </trkpt>
      <trkpt lat="45.77061" lon="-1.19778">
        <ele>58.2</ele>
        <time>2020-01-26T07:51:11Z</time>
      </trkpt>
      <trkpt lat="45.77059" lon="-1.19775">
        <ele>58.6</ele>
        <time>2020-01-26T07:51:12Z</time>
      </trkpt>
      <trkpt lat="45.77058" lon="-1.1977">
        <ele>59</ele>
        <time>2020-01-26T07:51:13Z</time>
      </trkpt>
      <trkpt lat="45.7706" lon="-1.19764">
        <ele>59</ele>
        <time>2020-01-26T07:51:14Z</time>
      </trkpt>
      <trkpt lat="45.77061" lon="-1.1976">
        <ele>59</ele>
        <time>2020-01-26T07:51:15Z</time>
      </trkpt>
      <trkpt lat="45.77066" lon="-1.19755">
        <ele>59.2</ele>
        <time>2020-01-26T07:51:16Z</time>
      </trkpt>
      <trkpt lat="45.77069" lon="-1.19753">
        <ele>59.2</ele>
        <time>2020-01-26T07:51:17Z</time>
      </trkpt>
      <trkpt lat="45.77072" lon="-1.19749">
        <ele>59.6</ele>
        <time>2020-01-26T07:51:18Z</time>
      </trkpt>
      <trkpt lat="45.77075" lon="-1.19744">
        <ele>59.8</ele>
        <time>2020-01-26T07:51:19Z</time>
      </trkpt>
      <trkpt lat="45.77078" lon="-1.19739">
        <ele>59.8</ele>
        <time>2020-01-26T07:51:20Z</time>
      </trkpt>
      <trkpt lat="45.7708" lon="-1.19732">
        <ele>59.6</ele>
        <time>2020-01-26T07:51:21Z</time>
      </trkpt>
      <trkpt lat="45.77083" lon="-1.19727">
        <ele>59.2</ele>
        <time>2020-01-26T07:51:22Z</time>
      </trkpt>
      <trkpt lat="45.77085" lon="-1.19722">
        <ele>58.8</ele>
        <time>2020-01-26T07:51:23Z</time>
      </trkpt>
      <trkpt lat="45.77087" lon="-1.19716">
        <ele>59</ele>
        <time>2020-01-26T07:51:24Z</time>
      </trkpt>
      <trkpt lat="45.77089" lon="-1.19711">
        <ele>59</ele>
        <time>2020-01-26T07:51:25Z</time>
      </trkpt>
      <trkpt lat="45.77092" lon="-1.19704">
        <ele>58.6</ele>
        <time>2020-01-26T07:51:26Z</time>
      </trkpt>
      <trkpt lat="45.77096" lon="-1.19697">
        <ele>58.6</ele>
        <time>2020-01-26T07:51:27Z</time>
      </trkpt>
      <trkpt lat="45.77098" lon="-1.19689">
        <ele>58.6</ele>
        <time>2020-01-26T07:51:28Z</time>
      </trkpt>
      <trkpt lat="45.77099" lon="-1.19681">
        <ele>58.8</ele>
        <time>2020-01-26T07:51:29Z</time>
      </trkpt>
      <trkpt lat="45.77098" lon="-1.19674">
        <ele>58.8</ele>
        <time>2020-01-26T07:51:30Z</time>
      </trkpt>
      <trkpt lat="45.77097" lon="-1.19665">
        <ele>58.8</ele>
        <time>2020-01-26T07:51:31Z</time>
      </trkpt>
      <trkpt lat="45.77094" lon="-1.19656">
        <ele>58.6</ele>
        <time>2020-01-26T07:51:32Z</time>
      </trkpt>
      <trkpt lat="45.77093" lon="-1.19649">
        <ele>58.4</ele>
        <time>2020-01-26T07:51:33Z</time>
      </trkpt>
      <trkpt lat="45.77092" lon="-1.19642">
        <ele>58.6</ele>
        <time>2020-01-26T07:51:34Z</time>
      </trkpt>
      <trkpt lat="45.77092" lon="-1.19635">
        <ele>59.2</ele>
        <time>2020-01-26T07:51:35Z</time>
      </trkpt>
      <trkpt lat="45.77092" lon="-1.19625">
        <ele>60</ele>
        <time>2020-01-26T07:51:36Z</time>
      </trkpt>
      <trkpt lat="45.77093" lon="-1.19616">
        <ele>60.4</ele>
        <time>2020-01-26T07:51:37Z</time>
      </trkpt>
      <trkpt lat="45.77095" lon="-1.19609">
        <ele>60.8</ele>
        <time>2020-01-26T07:51:38Z</time>
      </trkpt>
      <trkpt lat="45.77098" lon="-1.196">
        <ele>60.8</ele>
        <time>2020-01-26T07:51:39Z</time>
      </trkpt>
      <trkpt lat="45.77098" lon="-1.19593">
        <ele>60.6</ele>
        <time>2020-01-26T07:51:40Z</time>
      </trkpt>
      <trkpt lat="45.77098" lon="-1.19587">
        <ele>60.2</ele>
        <time>2020-01-26T07:51:41Z</time>
      </trkpt>
      <trkpt lat="45.77095" lon="-1.19579">
        <ele>59.6</ele>
        <time>2020-01-26T07:51:42Z</time>
      </trkpt>
      <trkpt lat="45.7709" lon="-1.19572">
        <ele>59</ele>
        <time>2020-01-26T07:51:43Z</time>
      </trkpt>
      <trkpt lat="45.77085" lon="-1.19565">
        <ele>59</ele>
        <time>2020-01-26T07:51:44Z</time>
      </trkpt>
      <trkpt lat="45.77082" lon="-1.19558">
        <ele>59</ele>
        <time>2020-01-26T07:51:45Z</time>
      </trkpt>
      <trkpt lat="45.77079" lon="-1.19552">
        <ele>59.2</ele>
        <time>2020-01-26T07:51:46Z</time>
      </trkpt>
      <trkpt lat="45.77075" lon="-1.19546">
        <ele>59.4</ele>
        <time>2020-01-26T07:51:47Z</time>
      </trkpt>
      <trkpt lat="45.77071" lon="-1.19541">
        <ele>59.6</ele>
        <time>2020-01-26T07:51:48Z</time>
      </trkpt>
      <trkpt lat="45.77068" lon="-1.19536">
        <ele>59.8</ele>
        <time>2020-01-26T07:51:49Z</time>
      </trkpt>
      <trkpt lat="45.77064" lon="-1.19533">
        <ele>60</ele>
        <time>2020-01-26T07:51:50Z</time>
      </trkpt>
      <trkpt lat="45.77059" lon="-1.19531">
        <ele>60.6</ele>
        <time>2020-01-26T07:51:51Z</time>
      </trkpt>
      <trkpt lat="45.77055" lon="-1.19532">
        <ele>60.4</ele>
        <time>2020-01-26T07:51:52Z</time>
      </trkpt>
      <trkpt lat="45.7705" lon="-1.19533">
        <ele>60.2</ele>
        <time>2020-01-26T07:51:53Z</time>
      </trkpt>
      <trkpt lat="45.77046" lon="-1.19534">
        <ele>60</ele>
        <time>2020-01-26T07:51:54Z</time>
      </trkpt>
      <trkpt lat="45.77042" lon="-1.19534">
        <ele>59.6</ele>
        <time>2020-01-26T07:51:55Z</time>
      </trkpt>
      <trkpt lat="45.77039" lon="-1.19534">
        <ele>59.2</ele>
        <time>2020-01-26T07:51:56Z</time>
      </trkpt>
      <trkpt lat="45.77034" lon="-1.19534">
        <ele>59.2</ele>
        <time>2020-01-26T07:51:57Z</time>
      </trkpt>
      <trkpt lat="45.77031" lon="-1.19533">
        <ele>58.8</ele>
        <time>2020-01-26T07:51:58Z</time>
      </trkpt>
      <trkpt lat="45.77027" lon="-1.19533">
        <ele>58.6</ele>
        <time>2020-01-26T07:51:59Z</time>
      </trkpt>
      <trkpt lat="45.77023" lon="-1.19533">
        <ele>58.6</ele>
        <time>2020-01-26T07:52:00Z</time>
      </trkpt>
      <trkpt lat="45.7702" lon="-1.19532">
        <ele>58.4</ele>
        <time>2020-01-26T07:52:01Z</time>
      </trkpt>
      <trkpt lat="45.77017" lon="-1.19533">
        <ele>58.2</ele>
        <time>2020-01-26T07:52:02Z</time>
      </trkpt>
      <trkpt lat="45.77014" lon="-1.19534">
        <ele>58.2</ele>
        <time>2020-01-26T07:52:03Z</time>
      </trkpt>
      <trkpt lat="45.77011" lon="-1.19534">
        <ele>58.2</ele>
        <time>2020-01-26T07:52:04Z</time>
      </trkpt>
      <trkpt lat="45.77008" lon="-1.19534">
        <ele>57.8</ele>
        <time>2020-01-26T07:52:05Z</time>
      </trkpt>
      <trkpt lat="45.77005" lon="-1.19534">
        <ele>57.6</ele>
        <time>2020-01-26T07:52:06Z</time>
      </trkpt>
      <trkpt lat="45.77001" lon="-1.19535">
        <ele>57.4</ele>
        <time>2020-01-26T07:52:07Z</time>
      </trkpt>
      <trkpt lat="45.76997" lon="-1.19534">
        <ele>57.4</ele>
        <time>2020-01-26T07:52:08Z</time>
      </trkpt>
      <trkpt lat="45.76994" lon="-1.19534">
        <ele>57.6</ele>
        <time>2020-01-26T07:52:09Z</time>
      </trkpt>
      <trkpt lat="45.76992" lon="-1.19533">
        <ele>57.8</ele>
        <time>2020-01-26T07:52:10Z</time>
      </trkpt>
      <trkpt lat="45.7699" lon="-1.19533">
        <ele>58.2</ele>
        <time>2020-01-26T07:52:11Z</time>
      </trkpt>
      <trkpt lat="45.76988" lon="-1.19533">
        <ele>58.8</ele>
        <time>2020-01-26T07:52:12Z</time>
      </trkpt>
      <trkpt lat="45.76986" lon="-1.19533">
        <ele>59</ele>
        <time>2020-01-26T07:52:13Z</time>
      </trkpt>
      <trkpt lat="45.76984" lon="-1.19533">
        <ele>59.2</ele>
        <time>2020-01-26T07:52:14Z</time>
      </trkpt>
      <trkpt lat="45.76982" lon="-1.19533">
        <ele>59.2</ele>
        <time>2020-01-26T07:52:15Z</time>
      </trkpt>
      <trkpt lat="45.76981" lon="-1.19534">
        <ele>59.2</ele>
        <time>2020-01-26T07:52:16Z</time>
      </trkpt>
      <trkpt lat="45.7698" lon="-1.19534">
        <ele>58.8</ele>
        <time>2020-01-26T07:52:17Z</time>
      </trkpt>
      <trkpt lat="45.76978" lon="-1.19534">
        <ele>58.6</ele>
        <time>2020-01-26T07:52:18Z</time>
      </trkpt>
      <trkpt lat="45.76976" lon="-1.19534">
        <ele>58.4</ele>
        <time>2020-01-26T07:52:19Z</time>
      </trkpt>
      <trkpt lat="45.76974" lon="-1.19535">
        <ele>58.4</ele>
        <time>2020-01-26T07:52:20Z</time>
      </trkpt>
      <trkpt lat="45.76973" lon="-1.19535">
        <ele>58.6</ele>
        <time>2020-01-26T07:52:21Z</time>
      </trkpt>
      <trkpt lat="45.7697" lon="-1.19535">
        <ele>58.6</ele>
        <time>2020-01-26T07:52:22Z</time>
      </trkpt>
      <trkpt lat="45.76969" lon="-1.19534">
        <ele>58.8</ele>
        <time>2020-01-26T07:52:23Z</time>
      </trkpt>
      <trkpt lat="45.76967" lon="-1.19534">
        <ele>58.8</ele>
        <time>2020-01-26T07:52:24Z</time>
      </trkpt>
      <trkpt lat="45.76965" lon="-1.19534">
        <ele>58.8</ele>
        <time>2020-01-26T07:52:25Z</time>
      </trkpt>
      <trkpt lat="45.76963" lon="-1.19533">
        <ele>58.8</ele>
        <time>2020-01-26T07:52:26Z</time>
      </trkpt>
      <trkpt lat="45.76961" lon="-1.19533">
        <ele>59</ele>
        <time>2020-01-26T07:52:27Z</time>
      </trkpt>
      <trkpt lat="45.76959" lon="-1.19532">
        <ele>58.6</ele>
        <time>2020-01-26T07:52:28Z</time>
      </trkpt>
      <trkpt lat="45.76957" lon="-1.19532">
        <ele>58.2</ele>
        <time>2020-01-26T07:52:29Z</time>
      </trkpt>
      <trkpt lat="45.76956" lon="-1.19532">
        <ele>57.6</ele>
        <time>2020-01-26T07:52:30Z</time>
      </trkpt>
      <trkpt lat="45.76954" lon="-1.19532">
        <ele>57.6</ele>
        <time>2020-01-26T07:52:31Z</time>
      </trkpt>
      <trkpt lat="45.76952" lon="-1.19532">
        <ele>57.4</ele>
        <time>2020-01-26T07:52:32Z</time>
      </trkpt>
      <trkpt lat="45.7695" lon="-1.19531">
        <ele>57.8</ele>
        <time>2020-01-26T07:52:33Z</time>
      </trkpt>
      <trkpt lat="45.76949" lon="-1.19531">
        <ele>58.2</ele>
        <time>2020-01-26T07:52:34Z</time>
      </trkpt>
      <trkpt lat="45.76947" lon="-1.19531">
        <ele>58.4</ele>
        <time>2020-01-26T07:52:35Z</time>
      </trkpt>
      <trkpt lat="45.76945" lon="-1.19532">
        <ele>58.8</ele>
        <time>2020-01-26T07:52:36Z</time>
      </trkpt>
      <trkpt lat="45.76944" lon="-1.19532">
        <ele>59.4</ele>
        <time>2020-01-26T07:52:37Z</time>
      </trkpt>
      <trkpt lat="45.76942" lon="-1.19532">
        <ele>59.8</ele>
        <time>2020-01-26T07:52:38Z</time>
      </trkpt>
      <trkpt lat="45.7694" lon="-1.19533">
        <ele>59.8</ele>
        <time>2020-01-26T07:52:39Z</time>
      </trkpt>
      <trkpt lat="45.76937" lon="-1.19533">
        <ele>59.8</ele>
        <time>2020-01-26T07:52:40Z</time>
      </trkpt>
      <trkpt lat="45.76934" lon="-1.19533">
        <ele>59.6</ele>
        <time>2020-01-26T07:52:41Z</time>
      </trkpt>
      <trkpt lat="45.7693" lon="-1.19533">
        <ele>59.4</ele>
        <time>2020-01-26T07:52:42Z</time>
      </trkpt>
      <trkpt lat="45.76927" lon="-1.19533">
        <ele>59.4</ele>
        <time>2020-01-26T07:52:43Z</time>
      </trkpt>
      <trkpt lat="45.76924" lon="-1.19534">
        <ele>59.2</ele>
        <time>2020-01-26T07:52:44Z</time>
      </trkpt>
      <trkpt lat="45.7692" lon="-1.19534">
        <ele>58.8</ele>
        <time>2020-01-26T07:52:45Z</time>
      </trkpt>
      <trkpt lat="45.76916" lon="-1.19535">
        <ele>58.4</ele>
        <time>2020-01-26T07:52:46Z</time>
      </trkpt>
      <trkpt lat="45.7691" lon="-1.19536">
        <ele>57.8</ele>
        <time>2020-01-26T07:52:47Z</time>
      </trkpt>
      <trkpt lat="45.76902" lon="-1.19538">
        <ele>57</ele>
        <time>2020-01-26T07:52:48Z</time>
      </trkpt>
      <trkpt lat="45.76893" lon="-1.19539">
        <ele>56.6</ele>
        <time>2020-01-26T07:52:49Z</time>
      </trkpt>
      <trkpt lat="45.76886" lon="-1.19538">
        <ele>56.8</ele>
        <time>2020-01-26T07:52:50Z</time>
      </trkpt>
      <trkpt lat="45.7688" lon="-1.1954">
        <ele>56.8</ele>
        <time>2020-01-26T07:52:51Z</time>
      </trkpt>
      <trkpt lat="45.76873" lon="-1.19539">
        <ele>56.8</ele>
        <time>2020-01-26T07:52:52Z</time>
      </trkpt>
      <trkpt lat="45.76868" lon="-1.1954">
        <ele>56.8</ele>
        <time>2020-01-26T07:52:53Z</time>
      </trkpt>
      <trkpt lat="45.76862" lon="-1.1954">
        <ele>57</ele>
        <time>2020-01-26T07:52:54Z</time>
      </trkpt>
      <trkpt lat="45.76855" lon="-1.19541">
        <ele>57</ele>
        <time>2020-01-26T07:52:55Z</time>
      </trkpt>
      <trkpt lat="45.7685" lon="-1.19542">
        <ele>57.2</ele>
        <time>2020-01-26T07:52:56Z</time>
      </trkpt>
      <trkpt lat="45.76844" lon="-1.19542">
        <ele>57.2</ele>
        <time>2020-01-26T07:52:57Z</time>
      </trkpt>
      <trkpt lat="45.76839" lon="-1.19542">
        <ele>57.2</ele>
        <time>2020-01-26T07:52:58Z</time>
      </trkpt>
      <trkpt lat="45.76834" lon="-1.19543">
        <ele>57</ele>
        <time>2020-01-26T07:52:59Z</time>
      </trkpt>
      <trkpt lat="45.76828" lon="-1.19542">
        <ele>56.8</ele>
        <time>2020-01-26T07:53:00Z</time>
      </trkpt>
      <trkpt lat="45.76821" lon="-1.19543">
        <ele>56.6</ele>
        <time>2020-01-26T07:53:01Z</time>
      </trkpt>
      <trkpt lat="45.76815" lon="-1.19544">
        <ele>56.4</ele>
        <time>2020-01-26T07:53:02Z</time>
      </trkpt>
      <trkpt lat="45.76809" lon="-1.19544">
        <ele>56.4</ele>
        <time>2020-01-26T07:53:03Z</time>
      </trkpt>
      <trkpt lat="45.76804" lon="-1.19545">
        <ele>56.2</ele>
        <time>2020-01-26T07:53:04Z</time>
      </trkpt>
      <trkpt lat="45.76801" lon="-1.19546">
        <ele>56.2</ele>
        <time>2020-01-26T07:53:05Z</time>
      </trkpt>
      <trkpt lat="45.76796" lon="-1.19547">
        <ele>56.2</ele>
        <time>2020-01-26T07:53:06Z</time>
      </trkpt>
      <trkpt lat="45.76793" lon="-1.19547">
        <ele>56.2</ele>
        <time>2020-01-26T07:53:07Z</time>
      </trkpt>
      <trkpt lat="45.76791" lon="-1.19546">
        <ele>56.4</ele>
        <time>2020-01-26T07:53:08Z</time>
      </trkpt>
      <trkpt lat="45.76788" lon="-1.19544">
        <ele>56.2</ele>
        <time>2020-01-26T07:53:09Z</time>
      </trkpt>
      <trkpt lat="45.76785" lon="-1.19541">
        <ele>56.2</ele>
        <time>2020-01-26T07:53:10Z</time>
      </trkpt>
      <trkpt lat="45.76784" lon="-1.19537">
        <ele>56.2</ele>
        <time>2020-01-26T07:53:11Z</time>
      </trkpt>
      <trkpt lat="45.76784" lon="-1.19533">
        <ele>56.4</ele>
        <time>2020-01-26T07:53:12Z</time>
      </trkpt>
      <trkpt lat="45.76784" lon="-1.19529">
        <ele>56.6</ele>
        <time>2020-01-26T07:53:13Z</time>
      </trkpt>
      <trkpt lat="45.76785" lon="-1.19526">
        <ele>56.6</ele>
        <time>2020-01-26T07:53:14Z</time>
      </trkpt>
      <trkpt lat="45.76784" lon="-1.19521">
        <ele>56.6</ele>
        <time>2020-01-26T07:53:15Z</time>
      </trkpt>
      <trkpt lat="45.76784" lon="-1.19517">
        <ele>56.8</ele>
        <time>2020-01-26T07:53:16Z</time>
      </trkpt>
      <trkpt lat="45.76785" lon="-1.19514">
        <ele>56.8</ele>
        <time>2020-01-26T07:53:17Z</time>
      </trkpt>
      <trkpt lat="45.76786" lon="-1.19511">
        <ele>56.4</ele>
        <time>2020-01-26T07:53:18Z</time>
      </trkpt>
      <trkpt lat="45.76787" lon="-1.19507">
        <ele>56.2</ele>
        <time>2020-01-26T07:53:19Z</time>
      </trkpt>
      <trkpt lat="45.76788" lon="-1.19503">
        <ele>56</ele>
        <time>2020-01-26T07:53:20Z</time>
      </trkpt>
      <trkpt lat="45.76789" lon="-1.19499">
        <ele>55.8</ele>
        <time>2020-01-26T07:53:21Z</time>
      </trkpt>
      <trkpt lat="45.7679" lon="-1.19495">
        <ele>55.6</ele>
        <time>2020-01-26T07:53:22Z</time>
      </trkpt>
      <trkpt lat="45.76791" lon="-1.19491">
        <ele>55.2</ele>
        <time>2020-01-26T07:53:23Z</time>
      </trkpt>
      <trkpt lat="45.76791" lon="-1.19487">
        <ele>54.8</ele>
        <time>2020-01-26T07:53:24Z</time>
      </trkpt>
      <trkpt lat="45.7679" lon="-1.19484">
        <ele>55</ele>
        <time>2020-01-26T07:53:25Z</time>
      </trkpt>
      <trkpt lat="45.7679" lon="-1.19483">
        <ele>55.2</ele>
        <time>2020-01-26T07:53:26Z</time>
      </trkpt>
      <trkpt lat="45.7679" lon="-1.19481">
        <ele>55.4</ele>
        <time>2020-01-26T07:53:27Z</time>
      </trkpt>
      <trkpt lat="45.7679" lon="-1.19479">
        <ele>55.6</ele>
        <time>2020-01-26T07:53:28Z</time>
      </trkpt>
      <trkpt lat="45.76789" lon="-1.19478">
        <ele>55.6</ele>
        <time>2020-01-26T07:53:29Z</time>
      </trkpt>
      <trkpt lat="45.7679" lon="-1.19476">
        <ele>56</ele>
        <time>2020-01-26T07:53:30Z</time>
      </trkpt>
      <trkpt lat="45.7679" lon="-1.19474">
        <ele>56.2</ele>
        <time>2020-01-26T07:53:31Z</time>
      </trkpt>
      <trkpt lat="45.7679" lon="-1.19472">
        <ele>56.2</ele>
        <time>2020-01-26T07:53:32Z</time>
      </trkpt>
      <trkpt lat="45.76791" lon="-1.1947">
        <ele>56.8</ele>
        <time>2020-01-26T07:53:33Z</time>
      </trkpt>
      <trkpt lat="45.76792" lon="-1.19467">
        <ele>57</ele>
        <time>2020-01-26T07:53:34Z</time>
      </trkpt>
      <trkpt lat="45.76793" lon="-1.19466">
        <ele>57</ele>
        <time>2020-01-26T07:53:35Z</time>
      </trkpt>
      <trkpt lat="45.76794" lon="-1.19464">
        <ele>57</ele>
        <time>2020-01-26T07:53:36Z</time>
      </trkpt>
      <trkpt lat="45.76795" lon="-1.19464">
        <ele>56.8</ele>
        <time>2020-01-26T07:53:37Z</time>
      </trkpt>
      <trkpt lat="45.76796" lon="-1.19463">
        <ele>56.6</ele>
        <time>2020-01-26T07:53:38Z</time>
      </trkpt>
      <trkpt lat="45.76799" lon="-1.19462">
        <ele>56.4</ele>
        <time>2020-01-26T07:53:39Z</time>
      </trkpt>
      <trkpt lat="45.76801" lon="-1.1946">
        <ele>56.4</ele>
        <time>2020-01-26T07:53:40Z</time>
      </trkpt>
      <trkpt lat="45.76804" lon="-1.19457">
        <ele>56.4</ele>
        <time>2020-01-26T07:53:41Z</time>
      </trkpt>
      <trkpt lat="45.76807" lon="-1.19454">
        <ele>56.2</ele>
        <time>2020-01-26T07:53:42Z</time>
      </trkpt>
      <trkpt lat="45.76809" lon="-1.1945">
        <ele>56.4</ele>
        <time>2020-01-26T07:53:43Z</time>
      </trkpt>
      <trkpt lat="45.7681" lon="-1.19447">
        <ele>56.6</ele>
        <time>2020-01-26T07:53:44Z</time>
      </trkpt>
      <trkpt lat="45.76812" lon="-1.19444">
        <ele>56.8</ele>
        <time>2020-01-26T07:53:45Z</time>
      </trkpt>
      <trkpt lat="45.76814" lon="-1.1944">
        <ele>56.8</ele>
        <time>2020-01-26T07:53:46Z</time>
      </trkpt>
      <trkpt lat="45.76815" lon="-1.19437">
        <ele>56.8</ele>
        <time>2020-01-26T07:53:47Z</time>
      </trkpt>
      <trkpt lat="45.76817" lon="-1.19435">
        <ele>56.6</ele>
        <time>2020-01-26T07:53:48Z</time>
      </trkpt>
      <trkpt lat="45.76818" lon="-1.19432">
        <ele>56.4</ele>
        <time>2020-01-26T07:53:49Z</time>
      </trkpt>
      <trkpt lat="45.7682" lon="-1.19429">
        <ele>56.4</ele>
        <time>2020-01-26T07:53:50Z</time>
      </trkpt>
      <trkpt lat="45.7682" lon="-1.19426">
        <ele>56.2</ele>
        <time>2020-01-26T07:53:51Z</time>
      </trkpt>
      <trkpt lat="45.76822" lon="-1.19423">
        <ele>56.2</ele>
        <time>2020-01-26T07:53:52Z</time>
      </trkpt>
      <trkpt lat="45.76822" lon="-1.19421">
        <ele>56.2</ele>
        <time>2020-01-26T07:53:53Z</time>
      </trkpt>
      <trkpt lat="45.76822" lon="-1.1942">
        <ele>56.4</ele>
        <time>2020-01-26T07:53:54Z</time>
      </trkpt>
      <trkpt lat="45.76821" lon="-1.19419">
        <ele>56.8</ele>
        <time>2020-01-26T07:53:55Z</time>
      </trkpt>
      <trkpt lat="45.76821" lon="-1.19418">
        <ele>57.4</ele>
        <time>2020-01-26T07:53:56Z</time>
      </trkpt>
      <trkpt lat="45.76821" lon="-1.19418">
        <ele>57.6</ele>
        <time>2020-01-26T07:53:57Z</time>
      </trkpt>
      <trkpt lat="45.76821" lon="-1.19417">
        <ele>58</ele>
        <time>2020-01-26T07:53:58Z</time>
      </trkpt>
      <trkpt lat="45.76821" lon="-1.19416">
        <ele>58.4</ele>
        <time>2020-01-26T07:53:59Z</time>
      </trkpt>
      <trkpt lat="45.76821" lon="-1.19414">
        <ele>59.2</ele>
        <time>2020-01-26T07:54:00Z</time>
      </trkpt>
      <trkpt lat="45.76821" lon="-1.19413">
        <ele>59.8</ele>
        <time>2020-01-26T07:54:01Z</time>
      </trkpt>
      <trkpt lat="45.76822" lon="-1.19411">
        <ele>60.4</ele>
        <time>2020-01-26T07:54:02Z</time>
      </trkpt>
      <trkpt lat="45.76823" lon="-1.19408">
        <ele>60.2</ele>
        <time>2020-01-26T07:54:03Z</time>
      </trkpt>
      <trkpt lat="45.76824" lon="-1.19403">
        <ele>60.2</ele>
        <time>2020-01-26T07:54:04Z</time>
      </trkpt>
      <trkpt lat="45.76824" lon="-1.19398">
        <ele>60.2</ele>
        <time>2020-01-26T07:54:05Z</time>
      </trkpt>
      <trkpt lat="45.76823" lon="-1.19396">
        <ele>59.8</ele>
        <time>2020-01-26T07:54:06Z</time>
      </trkpt>
      <trkpt lat="45.76823" lon="-1.19393">
        <ele>59.4</ele>
        <time>2020-01-26T07:54:07Z</time>
      </trkpt>
      <trkpt lat="45.76824" lon="-1.19391">
        <ele>59</ele>
        <time>2020-01-26T07:54:08Z</time>
      </trkpt>
      <trkpt lat="45.76826" lon="-1.1939">
        <ele>59</ele>
        <time>2020-01-26T07:54:09Z</time>
      </trkpt>
      <trkpt lat="45.76828" lon="-1.19389">
        <ele>59.2</ele>
        <time>2020-01-26T07:54:10Z</time>
      </trkpt>
      <trkpt lat="45.7683" lon="-1.19386">
        <ele>59.4</ele>
        <time>2020-01-26T07:54:11Z</time>
      </trkpt>
      <trkpt lat="45.76832" lon="-1.19385">
        <ele>59.4</ele>
        <time>2020-01-26T07:54:12Z</time>
      </trkpt>
      <trkpt lat="45.76833" lon="-1.19383">
        <ele>59.4</ele>
        <time>2020-01-26T07:54:13Z</time>
      </trkpt>
      <trkpt lat="45.76835" lon="-1.19382">
        <ele>59</ele>
        <time>2020-01-26T07:54:14Z</time>
      </trkpt>
      <trkpt lat="45.76838" lon="-1.1938">
        <ele>58.8</ele>
        <time>2020-01-26T07:54:15Z</time>
      </trkpt>
      <trkpt lat="45.76839" lon="-1.19378">
        <ele>58.4</ele>
        <time>2020-01-26T07:54:16Z</time>
      </trkpt>
      <trkpt lat="45.76841" lon="-1.19377">
        <ele>57.8</ele>
        <time>2020-01-26T07:54:17Z</time>
      </trkpt>
      <trkpt lat="45.76842" lon="-1.19374">
        <ele>57.2</ele>
        <time>2020-01-26T07:54:18Z</time>
      </trkpt>
      <trkpt lat="45.76844" lon="-1.19371">
        <ele>56.8</ele>
        <time>2020-01-26T07:54:19Z</time>
      </trkpt>
      <trkpt lat="45.76846" lon="-1.19367">
        <ele>56.4</ele>
        <time>2020-01-26T07:54:20Z</time>
      </trkpt>
      <trkpt lat="45.76846" lon="-1.19364">
        <ele>56.2</ele>
        <time>2020-01-26T07:54:21Z</time>
      </trkpt>
      <trkpt lat="45.76847" lon="-1.19361">
        <ele>56.2</ele>
        <time>2020-01-26T07:54:22Z</time>
      </trkpt>
      <trkpt lat="45.76847" lon="-1.19358">
        <ele>55.6</ele>
        <time>2020-01-26T07:54:23Z</time>
      </trkpt>
      <trkpt lat="45.76848" lon="-1.19356">
        <ele>55.2</ele>
        <time>2020-01-26T07:54:24Z</time>
      </trkpt>
      <trkpt lat="45.76848" lon="-1.19353">
        <ele>54.8</ele>
        <time>2020-01-26T07:54:25Z</time>
      </trkpt>
      <trkpt lat="45.76849" lon="-1.19351">
        <ele>54.6</ele>
        <time>2020-01-26T07:54:26Z</time>
      </trkpt>
      <trkpt lat="45.76849" lon="-1.19349">
        <ele>54.2</ele>
        <time>2020-01-26T07:54:27Z</time>
      </trkpt>
      <trkpt lat="45.7685" lon="-1.19347">
        <ele>54</ele>
        <time>2020-01-26T07:54:28Z</time>
      </trkpt>
      <trkpt lat="45.76849" lon="-1.19343">
        <ele>53.8</ele>
        <time>2020-01-26T07:54:29Z</time>
      </trkpt>
      <trkpt lat="45.76849" lon="-1.19338">
        <ele>54</ele>
        <time>2020-01-26T07:54:30Z</time>
      </trkpt>
      <trkpt lat="45.7685" lon="-1.19335">
        <ele>54.4</ele>
        <time>2020-01-26T07:54:31Z</time>
      </trkpt>
      <trkpt lat="45.7685" lon="-1.19332">
        <ele>54.8</ele>
        <time>2020-01-26T07:54:32Z</time>
      </trkpt>
      <trkpt lat="45.76851" lon="-1.19331">
        <ele>54.8</ele>
        <time>2020-01-26T07:54:33Z</time>
      </trkpt>
      <trkpt lat="45.76851" lon="-1.1933">
        <ele>54.8</ele>
        <time>2020-01-26T07:54:34Z</time>
      </trkpt>
      <trkpt lat="45.76851" lon="-1.19328">
        <ele>55.2</ele>
        <time>2020-01-26T07:54:35Z</time>
      </trkpt>
      <trkpt lat="45.76851" lon="-1.19327">
        <ele>55.2</ele>
        <time>2020-01-26T07:54:36Z</time>
      </trkpt>
      <trkpt lat="45.7685" lon="-1.19323">
        <ele>55.4</ele>
        <time>2020-01-26T07:54:37Z</time>
      </trkpt>
      <trkpt lat="45.7685" lon="-1.19319">
        <ele>55.6</ele>
        <time>2020-01-26T07:54:38Z</time>
      </trkpt>
      <trkpt lat="45.76849" lon="-1.19316">
        <ele>56</ele>
        <time>2020-01-26T07:54:39Z</time>
      </trkpt>
      <trkpt lat="45.76849" lon="-1.19313">
        <ele>56.2</ele>
        <time>2020-01-26T07:54:40Z</time>
      </trkpt>
      <trkpt lat="45.76849" lon="-1.19309">
        <ele>56.6</ele>
        <time>2020-01-26T07:54:41Z</time>
      </trkpt>
      <trkpt lat="45.76848" lon="-1.19306">
        <ele>57.2</ele>
        <time>2020-01-26T07:54:42Z</time>
      </trkpt>
      <trkpt lat="45.76847" lon="-1.19304">
        <ele>57.6</ele>
        <time>2020-01-26T07:54:43Z</time>
      </trkpt>
      <trkpt lat="45.76847" lon="-1.19299">
        <ele>57.8</ele>
        <time>2020-01-26T07:54:44Z</time>
      </trkpt>
      <trkpt lat="45.76847" lon="-1.19293">
        <ele>57.6</ele>
        <time>2020-01-26T07:54:45Z</time>
      </trkpt>
      <trkpt lat="45.76847" lon="-1.19287">
        <ele>57.4</ele>
        <time>2020-01-26T07:54:46Z</time>
      </trkpt>
      <trkpt lat="45.76846" lon="-1.19283">
        <ele>57.6</ele>
        <time>2020-01-26T07:54:47Z</time>
      </trkpt>
      <trkpt lat="45.76845" lon="-1.19279">
        <ele>57.6</ele>
        <time>2020-01-26T07:54:48Z</time>
      </trkpt>
      <trkpt lat="45.76843" lon="-1.19276">
        <ele>57.8</ele>
        <time>2020-01-26T07:54:49Z</time>
      </trkpt>
      <trkpt lat="45.76843" lon="-1.19272">
        <ele>57.6</ele>
        <time>2020-01-26T07:54:50Z</time>
      </trkpt>
      <trkpt lat="45.76843" lon="-1.19269">
        <ele>57.4</ele>
        <time>2020-01-26T07:54:51Z</time>
      </trkpt>
      <trkpt lat="45.76844" lon="-1.19267">
        <ele>57.6</ele>
        <time>2020-01-26T07:54:52Z</time>
      </trkpt>
      <trkpt lat="45.76843" lon="-1.19266">
        <ele>57.6</ele>
        <time>2020-01-26T07:54:53Z</time>
      </trkpt>
      <trkpt lat="45.76843" lon="-1.19266">
        <ele>57.8</ele>
        <time>2020-01-26T07:54:54Z</time>
      </trkpt>
      <trkpt lat="45.76843" lon="-1.19266">
        <ele>57.8</ele>
        <time>2020-01-26T07:54:55Z</time>
      </trkpt>
      <trkpt lat="45.76844" lon="-1.19264">
        <ele>57.8</ele>
        <time>2020-01-26T07:54:56Z</time>
      </trkpt>
      <trkpt lat="45.76845" lon="-1.19261">
        <ele>58</ele>
        <time>2020-01-26T07:54:57Z</time>
      </trkpt>
      <trkpt lat="45.76847" lon="-1.19258">
        <ele>58</ele>
        <time>2020-01-26T07:54:58Z</time>
      </trkpt>
      <trkpt lat="45.76849" lon="-1.19254">
        <ele>58</ele>
        <time>2020-01-26T07:54:59Z</time>
      </trkpt>
      <trkpt lat="45.76851" lon="-1.19249">
        <ele>58</ele>
        <time>2020-01-26T07:55:00Z</time>
      </trkpt>
      <trkpt lat="45.76852" lon="-1.19245">
        <ele>58.2</ele>
        <time>2020-01-26T07:55:01Z</time>
      </trkpt>
      <trkpt lat="45.76854" lon="-1.19243">
        <ele>58.6</ele>
        <time>2020-01-26T07:55:02Z</time>
      </trkpt>
      <trkpt lat="45.76855" lon="-1.1924">
        <ele>59</ele>
        <time>2020-01-26T07:55:03Z</time>
      </trkpt>
      <trkpt lat="45.76857" lon="-1.19236">
        <ele>59.2</ele>
        <time>2020-01-26T07:55:04Z</time>
      </trkpt>
      <trkpt lat="45.76859" lon="-1.19233">
        <ele>59.4</ele>
        <time>2020-01-26T07:55:05Z</time>
      </trkpt>
      <trkpt lat="45.7686" lon="-1.19231">
        <ele>59.6</ele>
        <time>2020-01-26T07:55:06Z</time>
      </trkpt>
      <trkpt lat="45.76861" lon="-1.19228">
        <ele>59.6</ele>
        <time>2020-01-26T07:55:07Z</time>
      </trkpt>
      <trkpt lat="45.76863" lon="-1.19226">
        <ele>59.8</ele>
        <time>2020-01-26T07:55:08Z</time>
      </trkpt>
      <trkpt lat="45.76864" lon="-1.19222">
        <ele>60.2</ele>
        <time>2020-01-26T07:55:09Z</time>
      </trkpt>
      <trkpt lat="45.76866" lon="-1.19219">
        <ele>60.4</ele>
        <time>2020-01-26T07:55:10Z</time>
      </trkpt>
      <trkpt lat="45.76868" lon="-1.19216">
        <ele>60.4</ele>
        <time>2020-01-26T07:55:11Z</time>
      </trkpt>
      <trkpt lat="45.7687" lon="-1.19212">
        <ele>60.6</ele>
        <time>2020-01-26T07:55:12Z</time>
      </trkpt>
      <trkpt lat="45.76872" lon="-1.19209">
        <ele>60.4</ele>
        <time>2020-01-26T07:55:13Z</time>
      </trkpt>
      <trkpt lat="45.76874" lon="-1.19205">
        <ele>60.4</ele>
        <time>2020-01-26T07:55:14Z</time>
      </trkpt>
      <trkpt lat="45.76876" lon="-1.19202">
        <ele>60.2</ele>
        <time>2020-01-26T07:55:15Z</time>
      </trkpt>
      <trkpt lat="45.76878" lon="-1.19198">
        <ele>60.4</ele>
        <time>2020-01-26T07:55:16Z</time>
      </trkpt>
      <trkpt lat="45.7688" lon="-1.19195">
        <ele>60.6</ele>
        <time>2020-01-26T07:55:17Z</time>
      </trkpt>
      <trkpt lat="45.76882" lon="-1.19191">
        <ele>60.8</ele>
        <time>2020-01-26T07:55:18Z</time>
      </trkpt>
      <trkpt lat="45.76884" lon="-1.19188">
        <ele>61</ele>
        <time>2020-01-26T07:55:19Z</time>
      </trkpt>
      <trkpt lat="45.76885" lon="-1.19184">
        <ele>61.4</ele>
        <time>2020-01-26T07:55:20Z</time>
      </trkpt>
      <trkpt lat="45.76888" lon="-1.19181">
        <ele>62</ele>
        <time>2020-01-26T07:55:21Z</time>
      </trkpt>
      <trkpt lat="45.76889" lon="-1.19178">
        <ele>62.6</ele>
        <time>2020-01-26T07:55:22Z</time>
      </trkpt>
      <trkpt lat="45.76891" lon="-1.19174">
        <ele>63.2</ele>
        <time>2020-01-26T07:55:23Z</time>
      </trkpt>
      <trkpt lat="45.76894" lon="-1.19172">
        <ele>63.6</ele>
        <time>2020-01-26T07:55:24Z</time>
      </trkpt>
      <trkpt lat="45.76896" lon="-1.1917">
        <ele>64</ele>
        <time>2020-01-26T07:55:25Z</time>
      </trkpt>
      <trkpt lat="45.76898" lon="-1.19166">
        <ele>64.6</ele>
        <time>2020-01-26T07:55:26Z</time>
      </trkpt>
      <trkpt lat="45.769" lon="-1.19164">
        <ele>65.2</ele>
        <time>2020-01-26T07:55:27Z</time>
      </trkpt>
      <trkpt lat="45.76903" lon="-1.19162">
        <ele>65.8</ele>
        <time>2020-01-26T07:55:28Z</time>
      </trkpt>
      <trkpt lat="45.76907" lon="-1.19162">
        <ele>66.4</ele>
        <time>2020-01-26T07:55:29Z</time>
      </trkpt>
      <trkpt lat="45.76912" lon="-1.1916">
        <ele>66.8</ele>
        <time>2020-01-26T07:55:30Z</time>
      </trkpt>
      <trkpt lat="45.76915" lon="-1.19156">
        <ele>67.4</ele>
        <time>2020-01-26T07:55:31Z</time>
      </trkpt>
      <trkpt lat="45.76919" lon="-1.19153">
        <ele>67.6</ele>
        <time>2020-01-26T07:55:32Z</time>
      </trkpt>
      <trkpt lat="45.76924" lon="-1.19151">
        <ele>67.6</ele>
        <time>2020-01-26T07:55:33Z</time>
      </trkpt>
      <trkpt lat="45.76928" lon="-1.19148">
        <ele>67.8</ele>
        <time>2020-01-26T07:55:34Z</time>
      </trkpt>
      <trkpt lat="45.76932" lon="-1.19145">
        <ele>68.4</ele>
        <time>2020-01-26T07:55:35Z</time>
      </trkpt>
      <trkpt lat="45.76937" lon="-1.19142">
        <ele>69</ele>
        <time>2020-01-26T07:55:36Z</time>
      </trkpt>
      <trkpt lat="45.76941" lon="-1.19141">
        <ele>69.6</ele>
        <time>2020-01-26T07:55:37Z</time>
      </trkpt>
      <trkpt lat="45.76945" lon="-1.1914">
        <ele>69.8</ele>
        <time>2020-01-26T07:55:38Z</time>
      </trkpt>
      <trkpt lat="45.76948" lon="-1.19137">
        <ele>69.8</ele>
        <time>2020-01-26T07:55:39Z</time>
      </trkpt>
      <trkpt lat="45.76951" lon="-1.19134">
        <ele>69.8</ele>
        <time>2020-01-26T07:55:40Z</time>
      </trkpt>
      <trkpt lat="45.76954" lon="-1.1913">
        <ele>69.6</ele>
        <time>2020-01-26T07:55:41Z</time>
      </trkpt>
      <trkpt lat="45.76957" lon="-1.19127">
        <ele>69.4</ele>
        <time>2020-01-26T07:55:42Z</time>
      </trkpt>
      <trkpt lat="45.76959" lon="-1.19124">
        <ele>68.6</ele>
        <time>2020-01-26T07:55:43Z</time>
      </trkpt>
      <trkpt lat="45.76962" lon="-1.19121">
        <ele>67.6</ele>
        <time>2020-01-26T07:55:44Z</time>
      </trkpt>
      <trkpt lat="45.76965" lon="-1.19116">
        <ele>66.4</ele>
        <time>2020-01-26T07:55:45Z</time>
      </trkpt>
      <trkpt lat="45.76968" lon="-1.19112">
        <ele>65.6</ele>
        <time>2020-01-26T07:55:46Z</time>
      </trkpt>
      <trkpt lat="45.76971" lon="-1.19107">
        <ele>65.2</ele>
        <time>2020-01-26T07:55:47Z</time>
      </trkpt>
      <trkpt lat="45.76974" lon="-1.19101">
        <ele>65</ele>
        <time>2020-01-26T07:55:48Z</time>
      </trkpt>
      <trkpt lat="45.76977" lon="-1.19092">
        <ele>64.6</ele>
        <time>2020-01-26T07:55:49Z</time>
      </trkpt>
      <trkpt lat="45.76979" lon="-1.19086">
        <ele>64.4</ele>
        <time>2020-01-26T07:55:50Z</time>
      </trkpt>
      <trkpt lat="45.76983" lon="-1.19081">
        <ele>64.2</ele>
        <time>2020-01-26T07:55:51Z</time>
      </trkpt>
      <trkpt lat="45.76987" lon="-1.19075">
        <ele>63.8</ele>
        <time>2020-01-26T07:55:52Z</time>
      </trkpt>
      <trkpt lat="45.76992" lon="-1.19069">
        <ele>63.8</ele>
        <time>2020-01-26T07:55:53Z</time>
      </trkpt>
      <trkpt lat="45.76996" lon="-1.19063">
        <ele>63.4</ele>
        <time>2020-01-26T07:55:54Z</time>
      </trkpt>
      <trkpt lat="45.77001" lon="-1.19055">
        <ele>63</ele>
        <time>2020-01-26T07:55:55Z</time>
      </trkpt>
      <trkpt lat="45.77006" lon="-1.19048">
        <ele>63</ele>
        <time>2020-01-26T07:55:56Z</time>
      </trkpt>
      <trkpt lat="45.7701" lon="-1.1904">
        <ele>63.4</ele>
        <time>2020-01-26T07:55:57Z</time>
      </trkpt>
      <trkpt lat="45.77016" lon="-1.19032">
        <ele>63.4</ele>
        <time>2020-01-26T07:55:58Z</time>
      </trkpt>
      <trkpt lat="45.77022" lon="-1.19028">
        <ele>63</ele>
        <time>2020-01-26T07:55:59Z</time>
      </trkpt>
      <trkpt lat="45.77026" lon="-1.19023">
        <ele>62.8</ele>
        <time>2020-01-26T07:56:00Z</time>
      </trkpt>
      <trkpt lat="45.7703" lon="-1.19019">
        <ele>62.4</ele>
        <time>2020-01-26T07:56:01Z</time>
      </trkpt>
      <trkpt lat="45.77034" lon="-1.19014">
        <ele>61.8</ele>
        <time>2020-01-26T07:56:02Z</time>
      </trkpt>
      <trkpt lat="45.77038" lon="-1.19009">
        <ele>61</ele>
        <time>2020-01-26T07:56:03Z</time>
      </trkpt>
      <trkpt lat="45.77042" lon="-1.19004">
        <ele>60.8</ele>
        <time>2020-01-26T07:56:04Z</time>
      </trkpt>
      <trkpt lat="45.77046" lon="-1.18999">
        <ele>60.4</ele>
        <time>2020-01-26T07:56:05Z</time>
      </trkpt>
      <trkpt lat="45.7705" lon="-1.18993">
        <ele>60.2</ele>
        <time>2020-01-26T07:56:06Z</time>
      </trkpt>
      <trkpt lat="45.77054" lon="-1.18986">
        <ele>60</ele>
        <time>2020-01-26T07:56:07Z</time>
      </trkpt>
      <trkpt lat="45.77058" lon="-1.18982">
        <ele>60</ele>
        <time>2020-01-26T07:56:08Z</time>
      </trkpt>
      <trkpt lat="45.77064" lon="-1.18977">
        <ele>59.8</ele>
        <time>2020-01-26T07:56:09Z</time>
      </trkpt>
      <trkpt lat="45.77069" lon="-1.18972">
        <ele>59.6</ele>
        <time>2020-01-26T07:56:10Z</time>
      </trkpt>
      <trkpt lat="45.77076" lon="-1.18967">
        <ele>59.4</ele>
        <time>2020-01-26T07:56:11Z</time>
      </trkpt>
      <trkpt lat="45.77081" lon="-1.18962">
        <ele>59.2</ele>
        <time>2020-01-26T07:56:12Z</time>
      </trkpt>
      <trkpt lat="45.77087" lon="-1.18957">
        <ele>59.2</ele>
        <time>2020-01-26T07:56:13Z</time>
      </trkpt>
      <trkpt lat="45.77093" lon="-1.18951">
        <ele>59.4</ele>
        <time>2020-01-26T07:56:14Z</time>
      </trkpt>
      <trkpt lat="45.77098" lon="-1.18946">
        <ele>59.8</ele>
        <time>2020-01-26T07:56:15Z</time>
      </trkpt>
      <trkpt lat="45.77105" lon="-1.18943">
        <ele>59.8</ele>
        <time>2020-01-26T07:56:16Z</time>
      </trkpt>
      <trkpt lat="45.7711" lon="-1.18938">
        <ele>60.2</ele>
        <time>2020-01-26T07:56:17Z</time>
      </trkpt>
      <trkpt lat="45.77117" lon="-1.18934">
        <ele>60.4</ele>
        <time>2020-01-26T07:56:18Z</time>
      </trkpt>
      <trkpt lat="45.77122" lon="-1.1893">
        <ele>60.6</ele>
        <time>2020-01-26T07:56:19Z</time>
      </trkpt>
      <trkpt lat="45.77128" lon="-1.18926">
        <ele>61</ele>
        <time>2020-01-26T07:56:20Z</time>
      </trkpt>
      <trkpt lat="45.77134" lon="-1.18924">
        <ele>61.2</ele>
        <time>2020-01-26T07:56:21Z</time>
      </trkpt>
      <trkpt lat="45.77139" lon="-1.1892">
        <ele>61.4</ele>
        <time>2020-01-26T07:56:22Z</time>
      </trkpt>
      <trkpt lat="45.77145" lon="-1.18917">
        <ele>61.6</ele>
        <time>2020-01-26T07:56:23Z</time>
      </trkpt>
      <trkpt lat="45.7715" lon="-1.18913">
        <ele>62</ele>
        <time>2020-01-26T07:56:24Z</time>
      </trkpt>
      <trkpt lat="45.77154" lon="-1.18908">
        <ele>62.4</ele>
        <time>2020-01-26T07:56:25Z</time>
      </trkpt>
      <trkpt lat="45.77158" lon="-1.18906">
        <ele>62.8</ele>
        <time>2020-01-26T07:56:26Z</time>
      </trkpt>
      <trkpt lat="45.77161" lon="-1.18904">
        <ele>63.4</ele>
        <time>2020-01-26T07:56:27Z</time>
      </trkpt>
      <trkpt lat="45.77165" lon="-1.189">
        <ele>63.8</ele>
        <time>2020-01-26T07:56:28Z</time>
      </trkpt>
      <trkpt lat="45.7717" lon="-1.18896">
        <ele>63.6</ele>
        <time>2020-01-26T07:56:29Z</time>
      </trkpt>
      <trkpt lat="45.77174" lon="-1.18892">
        <ele>63.4</ele>
        <time>2020-01-26T07:56:30Z</time>
      </trkpt>
      <trkpt lat="45.77179" lon="-1.18889">
        <ele>63.4</ele>
        <time>2020-01-26T07:56:31Z</time>
      </trkpt>
      <trkpt lat="45.77184" lon="-1.18884">
        <ele>63.2</ele>
        <time>2020-01-26T07:56:32Z</time>
      </trkpt>
      <trkpt lat="45.77188" lon="-1.18879">
        <ele>62.8</ele>
        <time>2020-01-26T07:56:33Z</time>
      </trkpt>
      <trkpt lat="45.77194" lon="-1.18873">
        <ele>62.4</ele>
        <time>2020-01-26T07:56:34Z</time>
      </trkpt>
      <trkpt lat="45.77199" lon="-1.18869">
        <ele>62</ele>
        <time>2020-01-26T07:56:35Z</time>
      </trkpt>
      <trkpt lat="45.77203" lon="-1.18864">
        <ele>61.8</ele>
        <time>2020-01-26T07:56:36Z</time>
      </trkpt>
      <trkpt lat="45.77208" lon="-1.18859">
        <ele>61.6</ele>
        <time>2020-01-26T07:56:37Z</time>
      </trkpt>
      <trkpt lat="45.77212" lon="-1.18854">
        <ele>61.8</ele>
        <time>2020-01-26T07:56:38Z</time>
      </trkpt>
      <trkpt lat="45.77216" lon="-1.18849">
        <ele>61.8</ele>
        <time>2020-01-26T07:56:39Z</time>
      </trkpt>
      <trkpt lat="45.7722" lon="-1.18843">
        <ele>61.6</ele>
        <time>2020-01-26T07:56:40Z</time>
      </trkpt>
      <trkpt lat="45.77224" lon="-1.18836">
        <ele>61.4</ele>
        <time>2020-01-26T07:56:41Z</time>
      </trkpt>
      <trkpt lat="45.77228" lon="-1.1883">
        <ele>61.4</ele>
        <time>2020-01-26T07:56:42Z</time>
      </trkpt>
      <trkpt lat="45.77232" lon="-1.18824">
        <ele>61.2</ele>
        <time>2020-01-26T07:56:43Z</time>
      </trkpt>
      <trkpt lat="45.77236" lon="-1.18818">
        <ele>61.4</ele>
        <time>2020-01-26T07:56:44Z</time>
      </trkpt>
      <trkpt lat="45.7724" lon="-1.18815">
        <ele>61.4</ele>
        <time>2020-01-26T07:56:45Z</time>
      </trkpt>
      <trkpt lat="45.77244" lon="-1.18811">
        <ele>61.2</ele>
        <time>2020-01-26T07:56:46Z</time>
      </trkpt>
      <trkpt lat="45.77248" lon="-1.18806">
        <ele>61.4</ele>
        <time>2020-01-26T07:56:47Z</time>
      </trkpt>
      <trkpt lat="45.77253" lon="-1.18801">
        <ele>61.8</ele>
        <time>2020-01-26T07:56:48Z</time>
      </trkpt>
      <trkpt lat="45.77258" lon="-1.18797">
        <ele>62.4</ele>
        <time>2020-01-26T07:56:49Z</time>
      </trkpt>
      <trkpt lat="45.77263" lon="-1.18794">
        <ele>62.8</ele>
        <time>2020-01-26T07:56:50Z</time>
      </trkpt>
      <trkpt lat="45.77268" lon="-1.1879">
        <ele>63.4</ele>
        <time>2020-01-26T07:56:51Z</time>
      </trkpt>
      <trkpt lat="45.77273" lon="-1.18787">
        <ele>64</ele>
        <time>2020-01-26T07:56:52Z</time>
      </trkpt>
      <trkpt lat="45.77277" lon="-1.18784">
        <ele>64.6</ele>
        <time>2020-01-26T07:56:53Z</time>
      </trkpt>
      <trkpt lat="45.77282" lon="-1.18783">
        <ele>65</ele>
        <time>2020-01-26T07:56:54Z</time>
      </trkpt>
      <trkpt lat="45.77286" lon="-1.18781">
        <ele>65.2</ele>
        <time>2020-01-26T07:56:55Z</time>
      </trkpt>
      <trkpt lat="45.7729" lon="-1.18779">
        <ele>65.6</ele>
        <time>2020-01-26T07:56:56Z</time>
      </trkpt>
      <trkpt lat="45.77295" lon="-1.18779">
        <ele>66</ele>
        <time>2020-01-26T07:56:57Z</time>
      </trkpt>
      <trkpt lat="45.773" lon="-1.18778">
        <ele>66</ele>
        <time>2020-01-26T07:56:58Z</time>
      </trkpt>
      <trkpt lat="45.77304" lon="-1.18778">
        <ele>65.8</ele>
        <time>2020-01-26T07:56:59Z</time>
      </trkpt>
      <trkpt lat="45.77309" lon="-1.18777">
        <ele>65.4</ele>
        <time>2020-01-26T07:57:00Z</time>
      </trkpt>
      <trkpt lat="45.77313" lon="-1.18775">
        <ele>65.2</ele>
        <time>2020-01-26T07:57:01Z</time>
      </trkpt>
      <trkpt lat="45.77317" lon="-1.18774">
        <ele>65.2</ele>
        <time>2020-01-26T07:57:02Z</time>
      </trkpt>
      <trkpt lat="45.77322" lon="-1.18772">
        <ele>65</ele>
        <time>2020-01-26T07:57:03Z</time>
      </trkpt>
      <trkpt lat="45.77326" lon="-1.18771">
        <ele>65</ele>
        <time>2020-01-26T07:57:04Z</time>
      </trkpt>
      <trkpt lat="45.7733" lon="-1.18768">
        <ele>65</ele>
        <time>2020-01-26T07:57:05Z</time>
      </trkpt>
      <trkpt lat="45.77334" lon="-1.18767">
        <ele>65.2</ele>
        <time>2020-01-26T07:57:06Z</time>
      </trkpt>
      <trkpt lat="45.77338" lon="-1.18766">
        <ele>65.2</ele>
        <time>2020-01-26T07:57:07Z</time>
      </trkpt>
      <trkpt lat="45.77342" lon="-1.18765">
        <ele>65.2</ele>
        <time>2020-01-26T07:57:08Z</time>
      </trkpt>
      <trkpt lat="45.77346" lon="-1.18764">
        <ele>65.2</ele>
        <time>2020-01-26T07:57:09Z</time>
      </trkpt>
      <trkpt lat="45.77349" lon="-1.18762">
        <ele>65.2</ele>
        <time>2020-01-26T07:57:10Z</time>
      </trkpt>
      <trkpt lat="45.77351" lon="-1.18759">
        <ele>65.4</ele>
        <time>2020-01-26T07:57:11Z</time>
      </trkpt>
      <trkpt lat="45.77354" lon="-1.18757">
        <ele>65.8</ele>
        <time>2020-01-26T07:57:12Z</time>
      </trkpt>
      <trkpt lat="45.77358" lon="-1.18758">
        <ele>65.8</ele>
        <time>2020-01-26T07:57:13Z</time>
      </trkpt>
      <trkpt lat="45.77362" lon="-1.18756">
        <ele>65.6</ele>
        <time>2020-01-26T07:57:14Z</time>
      </trkpt>
      <trkpt lat="45.77365" lon="-1.18754">
        <ele>65.2</ele>
        <time>2020-01-26T07:57:15Z</time>
      </trkpt>
      <trkpt lat="45.7737" lon="-1.18753">
        <ele>64.8</ele>
        <time>2020-01-26T07:57:16Z</time>
      </trkpt>
      <trkpt lat="45.77375" lon="-1.18752">
        <ele>64.6</ele>
        <time>2020-01-26T07:57:17Z</time>
      </trkpt>
      <trkpt lat="45.7738" lon="-1.1875">
        <ele>64.8</ele>
        <time>2020-01-26T07:57:18Z</time>
      </trkpt>
      <trkpt lat="45.77385" lon="-1.18748">
        <ele>65</ele>
        <time>2020-01-26T07:57:19Z</time>
      </trkpt>
      <trkpt lat="45.77391" lon="-1.18747">
        <ele>65</ele>
        <time>2020-01-26T07:57:20Z</time>
      </trkpt>
      <trkpt lat="45.77395" lon="-1.18744">
        <ele>64.8</ele>
        <time>2020-01-26T07:57:21Z</time>
      </trkpt>
      <trkpt lat="45.774" lon="-1.18739">
        <ele>64.4</ele>
        <time>2020-01-26T07:57:22Z</time>
      </trkpt>
      <trkpt lat="45.77405" lon="-1.18735">
        <ele>64.2</ele>
        <time>2020-01-26T07:57:23Z</time>
      </trkpt>
      <trkpt lat="45.77409" lon="-1.18731">
        <ele>64</ele>
        <time>2020-01-26T07:57:24Z</time>
      </trkpt>
      <trkpt lat="45.77413" lon="-1.18725">
        <ele>63.6</ele>
        <time>2020-01-26T07:57:25Z</time>
      </trkpt>
      <trkpt lat="45.77416" lon="-1.18721">
        <ele>63.4</ele>
        <time>2020-01-26T07:57:26Z</time>
      </trkpt>
      <trkpt lat="45.7742" lon="-1.18716">
        <ele>63.2</ele>
        <time>2020-01-26T07:57:27Z</time>
      </trkpt>
      <trkpt lat="45.77425" lon="-1.18711">
        <ele>62.8</ele>
        <time>2020-01-26T07:57:28Z</time>
      </trkpt>
      <trkpt lat="45.77431" lon="-1.18707">
        <ele>62.8</ele>
        <time>2020-01-26T07:57:29Z</time>
      </trkpt>
      <trkpt lat="45.77436" lon="-1.18702">
        <ele>62.4</ele>
        <time>2020-01-26T07:57:30Z</time>
      </trkpt>
      <trkpt lat="45.77442" lon="-1.18695">
        <ele>62</ele>
        <time>2020-01-26T07:57:31Z</time>
      </trkpt>
      <trkpt lat="45.77448" lon="-1.18689">
        <ele>61.8</ele>
        <time>2020-01-26T07:57:32Z</time>
      </trkpt>
      <trkpt lat="45.77453" lon="-1.18683">
        <ele>61.6</ele>
        <time>2020-01-26T07:57:33Z</time>
      </trkpt>
      <trkpt lat="45.77458" lon="-1.18678">
        <ele>61.4</ele>
        <time>2020-01-26T07:57:34Z</time>
      </trkpt>
      <trkpt lat="45.77462" lon="-1.18673">
        <ele>61.6</ele>
        <time>2020-01-26T07:57:35Z</time>
      </trkpt>
      <trkpt lat="45.77466" lon="-1.18669">
        <ele>62</ele>
        <time>2020-01-26T07:57:36Z</time>
      </trkpt>
      <trkpt lat="45.77471" lon="-1.18665">
        <ele>63</ele>
        <time>2020-01-26T07:57:37Z</time>
      </trkpt>
      <trkpt lat="45.77476" lon="-1.18661">
        <ele>63.8</ele>
        <time>2020-01-26T07:57:38Z</time>
      </trkpt>
      <trkpt lat="45.77479" lon="-1.18657">
        <ele>64.6</ele>
        <time>2020-01-26T07:57:39Z</time>
      </trkpt>
      <trkpt lat="45.77484" lon="-1.18653">
        <ele>65.2</ele>
        <time>2020-01-26T07:57:40Z</time>
      </trkpt>
      <trkpt lat="45.77487" lon="-1.18648">
        <ele>65.8</ele>
        <time>2020-01-26T07:57:41Z</time>
      </trkpt>
      <trkpt lat="45.7749" lon="-1.18645">
        <ele>66</ele>
        <time>2020-01-26T07:57:42Z</time>
      </trkpt>
      <trkpt lat="45.77494" lon="-1.18642">
        <ele>66</ele>
        <time>2020-01-26T07:57:43Z</time>
      </trkpt>
      <trkpt lat="45.77497" lon="-1.18637">
        <ele>65.6</ele>
        <time>2020-01-26T07:57:44Z</time>
      </trkpt>
      <trkpt lat="45.775" lon="-1.18632">
        <ele>65.6</ele>
        <time>2020-01-26T07:57:45Z</time>
      </trkpt>
      <trkpt lat="45.77502" lon="-1.18626">
        <ele>65.6</ele>
        <time>2020-01-26T07:57:46Z</time>
      </trkpt>
      <trkpt lat="45.77504" lon="-1.18621">
        <ele>65.8</ele>
        <time>2020-01-26T07:57:47Z</time>
      </trkpt>
      <trkpt lat="45.77505" lon="-1.18617">
        <ele>65.6</ele>
        <time>2020-01-26T07:57:48Z</time>
      </trkpt>
      <trkpt lat="45.77507" lon="-1.18611">
        <ele>65.4</ele>
        <time>2020-01-26T07:57:49Z</time>
      </trkpt>
      <trkpt lat="45.77508" lon="-1.18606">
        <ele>65.2</ele>
        <time>2020-01-26T07:57:50Z</time>
      </trkpt>
      <trkpt lat="45.7751" lon="-1.18601">
        <ele>65.2</ele>
        <time>2020-01-26T07:57:51Z</time>
      </trkpt>
      <trkpt lat="45.77511" lon="-1.18597">
        <ele>65</ele>
        <time>2020-01-26T07:57:52Z</time>
      </trkpt>
      <trkpt lat="45.7751" lon="-1.18593">
        <ele>65</ele>
        <time>2020-01-26T07:57:53Z</time>
      </trkpt>
      <trkpt lat="45.7751" lon="-1.18588">
        <ele>65</ele>
        <time>2020-01-26T07:57:54Z</time>
      </trkpt>
      <trkpt lat="45.7751" lon="-1.18582">
        <ele>65.2</ele>
        <time>2020-01-26T07:57:55Z</time>
      </trkpt>
      <trkpt lat="45.77512" lon="-1.18577">
        <ele>65.4</ele>
        <time>2020-01-26T07:57:56Z</time>
      </trkpt>
      <trkpt lat="45.77514" lon="-1.18572">
        <ele>65.6</ele>
        <time>2020-01-26T07:57:57Z</time>
      </trkpt>
      <trkpt lat="45.77515" lon="-1.18566">
        <ele>65.8</ele>
        <time>2020-01-26T07:57:58Z</time>
      </trkpt>
      <trkpt lat="45.77515" lon="-1.18561">
        <ele>66.4</ele>
        <time>2020-01-26T07:57:59Z</time>
      </trkpt>
      <trkpt lat="45.77517" lon="-1.18555">
        <ele>66.8</ele>
        <time>2020-01-26T07:58:00Z</time>
      </trkpt>
      <trkpt lat="45.77518" lon="-1.18552">
        <ele>67</ele>
        <time>2020-01-26T07:58:01Z</time>
      </trkpt>
      <trkpt lat="45.7752" lon="-1.18547">
        <ele>67.2</ele>
        <time>2020-01-26T07:58:02Z</time>
      </trkpt>
      <trkpt lat="45.77523" lon="-1.18542">
        <ele>67.4</ele>
        <time>2020-01-26T07:58:03Z</time>
      </trkpt>
      <trkpt lat="45.77526" lon="-1.18539">
        <ele>67.4</ele>
        <time>2020-01-26T07:58:04Z</time>
      </trkpt>
      <trkpt lat="45.77528" lon="-1.18535">
        <ele>67</ele>
        <time>2020-01-26T07:58:05Z</time>
      </trkpt>
      <trkpt lat="45.77531" lon="-1.18529">
        <ele>66.8</ele>
        <time>2020-01-26T07:58:06Z</time>
      </trkpt>
      <trkpt lat="45.77533" lon="-1.18525">
        <ele>66.6</ele>
        <time>2020-01-26T07:58:07Z</time>
      </trkpt>
      <trkpt lat="45.77536" lon="-1.18522">
        <ele>66.4</ele>
        <time>2020-01-26T07:58:08Z</time>
      </trkpt>
      <trkpt lat="45.77539" lon="-1.18521">
        <ele>66.6</ele>
        <time>2020-01-26T07:58:09Z</time>
      </trkpt>
      <trkpt lat="45.77542" lon="-1.18518">
        <ele>66.6</ele>
        <time>2020-01-26T07:58:10Z</time>
      </trkpt>
      <trkpt lat="45.77545" lon="-1.18516">
        <ele>66.8</ele>
        <time>2020-01-26T07:58:11Z</time>
      </trkpt>
      <trkpt lat="45.77548" lon="-1.18514">
        <ele>67.4</ele>
        <time>2020-01-26T07:58:12Z</time>
      </trkpt>
      <trkpt lat="45.77551" lon="-1.18512">
        <ele>68</ele>
        <time>2020-01-26T07:58:13Z</time>
      </trkpt>
      <trkpt lat="45.77553" lon="-1.1851">
        <ele>68.8</ele>
        <time>2020-01-26T07:58:14Z</time>
      </trkpt>
      <trkpt lat="45.77555" lon="-1.18508">
        <ele>69.4</ele>
        <time>2020-01-26T07:58:15Z</time>
      </trkpt>
      <trkpt lat="45.77558" lon="-1.18508">
        <ele>70</ele>
        <time>2020-01-26T07:58:16Z</time>
      </trkpt>
      <trkpt lat="45.7756" lon="-1.18507">
        <ele>70.2</ele>
        <time>2020-01-26T07:58:17Z</time>
      </trkpt>
      <trkpt lat="45.77563" lon="-1.18508">
        <ele>70.4</ele>
        <time>2020-01-26T07:58:18Z</time>
      </trkpt>
      <trkpt lat="45.77566" lon="-1.18508">
        <ele>70.8</ele>
        <time>2020-01-26T07:58:19Z</time>
      </trkpt>
      <trkpt lat="45.77569" lon="-1.18507">
        <ele>71.4</ele>
        <time>2020-01-26T07:58:20Z</time>
      </trkpt>
      <trkpt lat="45.77572" lon="-1.18507">
        <ele>72.4</ele>
        <time>2020-01-26T07:58:21Z</time>
      </trkpt>
      <trkpt lat="45.77575" lon="-1.18506">
        <ele>73.4</ele>
        <time>2020-01-26T07:58:22Z</time>
      </trkpt>
      <trkpt lat="45.77578" lon="-1.18505">
        <ele>74.2</ele>
        <time>2020-01-26T07:58:23Z</time>
      </trkpt>
      <trkpt lat="45.7758" lon="-1.18503">
        <ele>75</ele>
        <time>2020-01-26T07:58:24Z</time>
      </trkpt>
      <trkpt lat="45.77583" lon="-1.185">
        <ele>75.4</ele>
        <time>2020-01-26T07:58:25Z</time>
      </trkpt>
      <trkpt lat="45.77585" lon="-1.18498">
        <ele>75.8</ele>
        <time>2020-01-26T07:58:26Z</time>
      </trkpt>
      <trkpt lat="45.77588" lon="-1.18495">
        <ele>76.4</ele>
        <time>2020-01-26T07:58:27Z</time>
      </trkpt>
      <trkpt lat="45.7759" lon="-1.18492">
        <ele>76.8</ele>
        <time>2020-01-26T07:58:28Z</time>
      </trkpt>
      <trkpt lat="45.77592" lon="-1.1849">
        <ele>77</ele>
        <time>2020-01-26T07:58:29Z</time>
      </trkpt>
      <trkpt lat="45.77595" lon="-1.18487">
        <ele>77.4</ele>
        <time>2020-01-26T07:58:30Z</time>
      </trkpt>
      <trkpt lat="45.77598" lon="-1.18486">
        <ele>77.4</ele>
        <time>2020-01-26T07:58:31Z</time>
      </trkpt>
      <trkpt lat="45.77601" lon="-1.18484">
        <ele>77.6</ele>
        <time>2020-01-26T07:58:32Z</time>
      </trkpt>
      <trkpt lat="45.77604" lon="-1.18483">
        <ele>77.8</ele>
        <time>2020-01-26T07:58:33Z</time>
      </trkpt>
      <trkpt lat="45.77607" lon="-1.18481">
        <ele>78</ele>
        <time>2020-01-26T07:58:34Z</time>
      </trkpt>
      <trkpt lat="45.7761" lon="-1.18481">
        <ele>78.2</ele>
        <time>2020-01-26T07:58:35Z</time>
      </trkpt>
      <trkpt lat="45.77612" lon="-1.1848">
        <ele>78.2</ele>
        <time>2020-01-26T07:58:36Z</time>
      </trkpt>
      <trkpt lat="45.77615" lon="-1.18481">
        <ele>77.8</ele>
        <time>2020-01-26T07:58:37Z</time>
      </trkpt>
      <trkpt lat="45.77617" lon="-1.1848">
        <ele>77.6</ele>
        <time>2020-01-26T07:58:38Z</time>
      </trkpt>
      <trkpt lat="45.7762" lon="-1.18481">
        <ele>76.6</ele>
        <time>2020-01-26T07:58:39Z</time>
      </trkpt>
      <trkpt lat="45.77624" lon="-1.1848">
        <ele>76</ele>
        <time>2020-01-26T07:58:40Z</time>
      </trkpt>
      <trkpt lat="45.77628" lon="-1.18481">
        <ele>75.8</ele>
        <time>2020-01-26T07:58:41Z</time>
      </trkpt>
      <trkpt lat="45.77633" lon="-1.18481">
        <ele>75.4</ele>
        <time>2020-01-26T07:58:42Z</time>
      </trkpt>
      <trkpt lat="45.77639" lon="-1.18482">
        <ele>75.6</ele>
        <time>2020-01-26T07:58:43Z</time>
      </trkpt>
      <trkpt lat="45.77643" lon="-1.18484">
        <ele>75.6</ele>
        <time>2020-01-26T07:58:44Z</time>
      </trkpt>
      <trkpt lat="45.77645" lon="-1.18488">
        <ele>75.4</ele>
        <time>2020-01-26T07:58:45Z</time>
      </trkpt>
      <trkpt lat="45.77647" lon="-1.18492">
        <ele>75.6</ele>
        <time>2020-01-26T07:58:46Z</time>
      </trkpt>
      <trkpt lat="45.77648" lon="-1.18495">
        <ele>75.4</ele>
        <time>2020-01-26T07:58:47Z</time>
      </trkpt>
      <trkpt lat="45.77649" lon="-1.18497">
        <ele>75</ele>
        <time>2020-01-26T07:58:48Z</time>
      </trkpt>
      <trkpt lat="45.7765" lon="-1.185">
        <ele>74.8</ele>
        <time>2020-01-26T07:58:49Z</time>
      </trkpt>
      <trkpt lat="45.77651" lon="-1.18506">
        <ele>74.8</ele>
        <time>2020-01-26T07:58:50Z</time>
      </trkpt>
      <trkpt lat="45.77652" lon="-1.18511">
        <ele>75</ele>
        <time>2020-01-26T07:58:51Z</time>
      </trkpt>
      <trkpt lat="45.77652" lon="-1.18516">
        <ele>75</ele>
        <time>2020-01-26T07:58:52Z</time>
      </trkpt>
      <trkpt lat="45.77653" lon="-1.18521">
        <ele>75</ele>
        <time>2020-01-26T07:58:53Z</time>
      </trkpt>
      <trkpt lat="45.77654" lon="-1.18526">
        <ele>75.2</ele>
        <time>2020-01-26T07:58:54Z</time>
      </trkpt>
      <trkpt lat="45.77655" lon="-1.18531">
        <ele>75.4</ele>
        <time>2020-01-26T07:58:55Z</time>
      </trkpt>
      <trkpt lat="45.77657" lon="-1.18535">
        <ele>75</ele>
        <time>2020-01-26T07:58:56Z</time>
      </trkpt>
      <trkpt lat="45.77658" lon="-1.1854">
        <ele>74.8</ele>
        <time>2020-01-26T07:58:57Z</time>
      </trkpt>
      <trkpt lat="45.7766" lon="-1.18545">
        <ele>74.4</ele>
        <time>2020-01-26T07:58:58Z</time>
      </trkpt>
      <trkpt lat="45.7766" lon="-1.1855">
        <ele>74.2</ele>
        <time>2020-01-26T07:58:59Z</time>
      </trkpt>
      <trkpt lat="45.77661" lon="-1.18554">
        <ele>74.2</ele>
        <time>2020-01-26T07:59:00Z</time>
      </trkpt>
      <trkpt lat="45.77663" lon="-1.18558">
        <ele>74.4</ele>
        <time>2020-01-26T07:59:01Z</time>
      </trkpt>
      <trkpt lat="45.77665" lon="-1.18563">
        <ele>75</ele>
        <time>2020-01-26T07:59:02Z</time>
      </trkpt>
      <trkpt lat="45.77667" lon="-1.18568">
        <ele>75</ele>
        <time>2020-01-26T07:59:03Z</time>
      </trkpt>
      <trkpt lat="45.77669" lon="-1.18573">
        <ele>74.8</ele>
        <time>2020-01-26T07:59:04Z</time>
      </trkpt>
      <trkpt lat="45.77671" lon="-1.18579">
        <ele>74.4</ele>
        <time>2020-01-26T07:59:05Z</time>
      </trkpt>
      <trkpt lat="45.77673" lon="-1.18585">
        <ele>74.2</ele>
        <time>2020-01-26T07:59:06Z</time>
      </trkpt>
      <trkpt lat="45.77675" lon="-1.1859">
        <ele>74.4</ele>
        <time>2020-01-26T07:59:07Z</time>
      </trkpt>
      <trkpt lat="45.77678" lon="-1.18596">
        <ele>74.6</ele>
        <time>2020-01-26T07:59:08Z</time>
      </trkpt>
      <trkpt lat="45.77679" lon="-1.18602">
        <ele>75.2</ele>
        <time>2020-01-26T07:59:09Z</time>
      </trkpt>
      <trkpt lat="45.77681" lon="-1.18609">
        <ele>75.6</ele>
        <time>2020-01-26T07:59:10Z</time>
      </trkpt>
      <trkpt lat="45.77683" lon="-1.18615">
        <ele>75.8</ele>
        <time>2020-01-26T07:59:11Z</time>
      </trkpt>
      <trkpt lat="45.77684" lon="-1.18623">
        <ele>75.4</ele>
        <time>2020-01-26T07:59:12Z</time>
      </trkpt>
      <trkpt lat="45.77686" lon="-1.1863">
        <ele>75.2</ele>
        <time>2020-01-26T07:59:13Z</time>
      </trkpt>
      <trkpt lat="45.77688" lon="-1.18637">
        <ele>75.2</ele>
        <time>2020-01-26T07:59:14Z</time>
      </trkpt>
      <trkpt lat="45.77691" lon="-1.18645">
        <ele>75.2</ele>
        <time>2020-01-26T07:59:15Z</time>
      </trkpt>
      <trkpt lat="45.77693" lon="-1.18651">
        <ele>75.4</ele>
        <time>2020-01-26T07:59:16Z</time>
      </trkpt>
      <trkpt lat="45.77694" lon="-1.18659">
        <ele>75.2</ele>
        <time>2020-01-26T07:59:17Z</time>
      </trkpt>
      <trkpt lat="45.77697" lon="-1.18666">
        <ele>75.2</ele>
        <time>2020-01-26T07:59:18Z</time>
      </trkpt>
      <trkpt lat="45.77698" lon="-1.18675">
        <ele>75.2</ele>
        <time>2020-01-26T07:59:19Z</time>
      </trkpt>
      <trkpt lat="45.77703" lon="-1.18683">
        <ele>74.8</ele>
        <time>2020-01-26T07:59:20Z</time>
      </trkpt>
      <trkpt lat="45.77704" lon="-1.18692">
        <ele>74.6</ele>
        <time>2020-01-26T07:59:21Z</time>
      </trkpt>
      <trkpt lat="45.77708" lon="-1.187">
        <ele>74.4</ele>
        <time>2020-01-26T07:59:22Z</time>
      </trkpt>
      <trkpt lat="45.7771" lon="-1.18707">
        <ele>74.4</ele>
        <time>2020-01-26T07:59:23Z</time>
      </trkpt>
      <trkpt lat="45.77712" lon="-1.18716">
        <ele>74.2</ele>
        <time>2020-01-26T07:59:24Z</time>
      </trkpt>
      <trkpt lat="45.77713" lon="-1.18724">
        <ele>74</ele>
        <time>2020-01-26T07:59:25Z</time>
      </trkpt>
      <trkpt lat="45.77715" lon="-1.18733">
        <ele>73.6</ele>
        <time>2020-01-26T07:59:26Z</time>
      </trkpt>
      <trkpt lat="45.77716" lon="-1.18742">
        <ele>73.2</ele>
        <time>2020-01-26T07:59:27Z</time>
      </trkpt>
      <trkpt lat="45.77718" lon="-1.18751">
        <ele>72.6</ele>
        <time>2020-01-26T07:59:28Z</time>
      </trkpt>
      <trkpt lat="45.77721" lon="-1.18761">
        <ele>72.2</ele>
        <time>2020-01-26T07:59:29Z</time>
      </trkpt>
      <trkpt lat="45.77723" lon="-1.18769">
        <ele>71.6</ele>
        <time>2020-01-26T07:59:30Z</time>
      </trkpt>
      <trkpt lat="45.77727" lon="-1.18778">
        <ele>71.4</ele>
        <time>2020-01-26T07:59:31Z</time>
      </trkpt>
      <trkpt lat="45.77729" lon="-1.18784">
        <ele>71.2</ele>
        <time>2020-01-26T07:59:32Z</time>
      </trkpt>
      <trkpt lat="45.77732" lon="-1.18793">
        <ele>70.8</ele>
        <time>2020-01-26T07:59:33Z</time>
      </trkpt>
      <trkpt lat="45.77735" lon="-1.188">
        <ele>70.6</ele>
        <time>2020-01-26T07:59:34Z</time>
      </trkpt>
      <trkpt lat="45.77738" lon="-1.18808">
        <ele>70.8</ele>
        <time>2020-01-26T07:59:35Z</time>
      </trkpt>
      <trkpt lat="45.77739" lon="-1.18816">
        <ele>70.8</ele>
        <time>2020-01-26T07:59:36Z</time>
      </trkpt>
      <trkpt lat="45.77742" lon="-1.18826">
        <ele>70.6</ele>
        <time>2020-01-26T07:59:37Z</time>
      </trkpt>
      <trkpt lat="45.77745" lon="-1.18834">
        <ele>70.4</ele>
        <time>2020-01-26T07:59:38Z</time>
      </trkpt>
      <trkpt lat="45.77749" lon="-1.18841">
        <ele>70</ele>
        <time>2020-01-26T07:59:39Z</time>
      </trkpt>
      <trkpt lat="45.77752" lon="-1.18849">
        <ele>69.8</ele>
        <time>2020-01-26T07:59:40Z</time>
      </trkpt>
      <trkpt lat="45.77755" lon="-1.18856">
        <ele>69</ele>
        <time>2020-01-26T07:59:41Z</time>
      </trkpt>
      <trkpt lat="45.77759" lon="-1.18863">
        <ele>68.4</ele>
        <time>2020-01-26T07:59:42Z</time>
      </trkpt>
      <trkpt lat="45.77761" lon="-1.18869">
        <ele>67.6</ele>
        <time>2020-01-26T07:59:43Z</time>
      </trkpt>
      <trkpt lat="45.77766" lon="-1.18876">
        <ele>66.8</ele>
        <time>2020-01-26T07:59:44Z</time>
      </trkpt>
      <trkpt lat="45.77769" lon="-1.18885">
        <ele>66</ele>
        <time>2020-01-26T07:59:45Z</time>
      </trkpt>
      <trkpt lat="45.77774" lon="-1.18892">
        <ele>65.6</ele>
        <time>2020-01-26T07:59:46Z</time>
      </trkpt>
      <trkpt lat="45.77779" lon="-1.189">
        <ele>65.2</ele>
        <time>2020-01-26T07:59:47Z</time>
      </trkpt>
      <trkpt lat="45.77782" lon="-1.18909">
        <ele>65.4</ele>
        <time>2020-01-26T07:59:48Z</time>
      </trkpt>
      <trkpt lat="45.77788" lon="-1.18915">
        <ele>65.4</ele>
        <time>2020-01-26T07:59:49Z</time>
      </trkpt>
      <trkpt lat="45.77793" lon="-1.18923">
        <ele>65.4</ele>
        <time>2020-01-26T07:59:50Z</time>
      </trkpt>
      <trkpt lat="45.77799" lon="-1.1893">
        <ele>65.4</ele>
        <time>2020-01-26T07:59:51Z</time>
      </trkpt>
      <trkpt lat="45.77805" lon="-1.18938">
        <ele>65.8</ele>
        <time>2020-01-26T07:59:52Z</time>
      </trkpt>
      <trkpt lat="45.7781" lon="-1.18947">
        <ele>65.8</ele>
        <time>2020-01-26T07:59:53Z</time>
      </trkpt>
      <trkpt lat="45.77816" lon="-1.18957">
        <ele>65.8</ele>
        <time>2020-01-26T07:59:54Z</time>
      </trkpt>
      <trkpt lat="45.77822" lon="-1.18966">
        <ele>65.8</ele>
        <time>2020-01-26T07:59:55Z</time>
      </trkpt>
      <trkpt lat="45.77827" lon="-1.18976">
        <ele>65.6</ele>
        <time>2020-01-26T07:59:56Z</time>
      </trkpt>
      <trkpt lat="45.77831" lon="-1.18985">
        <ele>65.2</ele>
        <time>2020-01-26T07:59:57Z</time>
      </trkpt>
      <trkpt lat="45.77833" lon="-1.18994">
        <ele>64.6</ele>
        <time>2020-01-26T07:59:58Z</time>
      </trkpt>
      <trkpt lat="45.77835" lon="-1.19001">
        <ele>64.2</ele>
        <time>2020-01-26T07:59:59Z</time>
      </trkpt>
      <trkpt lat="45.77838" lon="-1.19005">
        <ele>63.6</ele>
        <time>2020-01-26T08:00:00Z</time>
      </trkpt>
      <trkpt lat="45.7784" lon="-1.19012">
        <ele>63.2</ele>
        <time>2020-01-26T08:00:01Z</time>
      </trkpt>
      <trkpt lat="45.77841" lon="-1.19017">
        <ele>63</ele>
        <time>2020-01-26T08:00:02Z</time>
      </trkpt>
      <trkpt lat="45.77842" lon="-1.19024">
        <ele>62.6</ele>
        <time>2020-01-26T08:00:03Z</time>
      </trkpt>
      <trkpt lat="45.77843" lon="-1.1903">
        <ele>62.4</ele>
        <time>2020-01-26T08:00:04Z</time>
      </trkpt>
      <trkpt lat="45.77843" lon="-1.19035">
        <ele>61.8</ele>
        <time>2020-01-26T08:00:05Z</time>
      </trkpt>
      <trkpt lat="45.77847" lon="-1.1904">
        <ele>61.4</ele>
        <time>2020-01-26T08:00:06Z</time>
      </trkpt>
      <trkpt lat="45.77848" lon="-1.19047">
        <ele>60.6</ele>
        <time>2020-01-26T08:00:07Z</time>
      </trkpt>
      <trkpt lat="45.7785" lon="-1.19054">
        <ele>59.8</ele>
        <time>2020-01-26T08:00:08Z</time>
      </trkpt>
      <trkpt lat="45.77853" lon="-1.19062">
        <ele>59.2</ele>
        <time>2020-01-26T08:00:09Z</time>
      </trkpt>
      <trkpt lat="45.77855" lon="-1.19071">
        <ele>59.2</ele>
        <time>2020-01-26T08:00:10Z</time>
      </trkpt>
      <trkpt lat="45.77858" lon="-1.19076">
        <ele>58.8</ele>
        <time>2020-01-26T08:00:11Z</time>
      </trkpt>
      <trkpt lat="45.77862" lon="-1.19081">
        <ele>58.8</ele>
        <time>2020-01-26T08:00:12Z</time>
      </trkpt>
      <trkpt lat="45.77866" lon="-1.19086">
        <ele>58.6</ele>
        <time>2020-01-26T08:00:13Z</time>
      </trkpt>
      <trkpt lat="45.7787" lon="-1.1909">
        <ele>58.8</ele>
        <time>2020-01-26T08:00:14Z</time>
      </trkpt>
      <trkpt lat="45.77874" lon="-1.19095">
        <ele>58.8</ele>
        <time>2020-01-26T08:00:15Z</time>
      </trkpt>
      <trkpt lat="45.77879" lon="-1.19101">
        <ele>58.8</ele>
        <time>2020-01-26T08:00:16Z</time>
      </trkpt>
      <trkpt lat="45.77884" lon="-1.19108">
        <ele>59.4</ele>
        <time>2020-01-26T08:00:17Z</time>
      </trkpt>
      <trkpt lat="45.77888" lon="-1.19113">
        <ele>59.8</ele>
        <time>2020-01-26T08:00:18Z</time>
      </trkpt>
      <trkpt lat="45.77893" lon="-1.19118">
        <ele>60</ele>
        <time>2020-01-26T08:00:19Z</time>
      </trkpt>
      <trkpt lat="45.77897" lon="-1.19122">
        <ele>60.4</ele>
        <time>2020-01-26T08:00:20Z</time>
      </trkpt>
      <trkpt lat="45.77901" lon="-1.19127">
        <ele>60.6</ele>
        <time>2020-01-26T08:00:21Z</time>
      </trkpt>
      <trkpt lat="45.77905" lon="-1.19135">
        <ele>61</ele>
        <time>2020-01-26T08:00:22Z</time>
      </trkpt>
      <trkpt lat="45.7791" lon="-1.19143">
        <ele>61.2</ele>
        <time>2020-01-26T08:00:23Z</time>
      </trkpt>
      <trkpt lat="45.77914" lon="-1.19145">
        <ele>60.8</ele>
        <time>2020-01-26T08:00:24Z</time>
      </trkpt>
      <trkpt lat="45.77916" lon="-1.19145">
        <ele>60.6</ele>
        <time>2020-01-26T08:00:25Z</time>
      </trkpt>
      <trkpt lat="45.77919" lon="-1.19143">
        <ele>60.8</ele>
        <time>2020-01-26T08:00:26Z</time>
      </trkpt>
      <trkpt lat="45.7792" lon="-1.19139">
        <ele>60.6</ele>
        <time>2020-01-26T08:00:27Z</time>
      </trkpt>
      <trkpt lat="45.77921" lon="-1.19136">
        <ele>60.6</ele>
        <time>2020-01-26T08:00:28Z</time>
      </trkpt>
      <trkpt lat="45.77922" lon="-1.19133">
        <ele>60.4</ele>
        <time>2020-01-26T08:00:29Z</time>
      </trkpt>
      <trkpt lat="45.77922" lon="-1.1913">
        <ele>59.8</ele>
        <time>2020-01-26T08:00:30Z</time>
      </trkpt>
      <trkpt lat="45.77924" lon="-1.19126">
        <ele>59.2</ele>
        <time>2020-01-26T08:00:31Z</time>
      </trkpt>
      <trkpt lat="45.77926" lon="-1.19121">
        <ele>59.2</ele>
        <time>2020-01-26T08:00:32Z</time>
      </trkpt>
      <trkpt lat="45.77927" lon="-1.19116">
        <ele>59.2</ele>
        <time>2020-01-26T08:00:33Z</time>
      </trkpt>
      <trkpt lat="45.77929" lon="-1.19111">
        <ele>59.6</ele>
        <time>2020-01-26T08:00:34Z</time>
      </trkpt>
      <trkpt lat="45.7793" lon="-1.19107">
        <ele>60.2</ele>
        <time>2020-01-26T08:00:35Z</time>
      </trkpt>
      <trkpt lat="45.77932" lon="-1.19102">
        <ele>60.6</ele>
        <time>2020-01-26T08:00:36Z</time>
      </trkpt>
      <trkpt lat="45.77932" lon="-1.19095">
        <ele>61.4</ele>
        <time>2020-01-26T08:00:37Z</time>
      </trkpt>
      <trkpt lat="45.77933" lon="-1.19089">
        <ele>62</ele>
        <time>2020-01-26T08:00:38Z</time>
      </trkpt>
      <trkpt lat="45.77934" lon="-1.19084">
        <ele>62.8</ele>
        <time>2020-01-26T08:00:39Z</time>
      </trkpt>
      <trkpt lat="45.77934" lon="-1.19078">
        <ele>63.6</ele>
        <time>2020-01-26T08:00:40Z</time>
      </trkpt>
      <trkpt lat="45.77935" lon="-1.19073">
        <ele>63.8</ele>
        <time>2020-01-26T08:00:41Z</time>
      </trkpt>
      <trkpt lat="45.77936" lon="-1.19068">
        <ele>64</ele>
        <time>2020-01-26T08:00:42Z</time>
      </trkpt>
      <trkpt lat="45.77935" lon="-1.19063">
        <ele>64.2</ele>
        <time>2020-01-26T08:00:43Z</time>
      </trkpt>
      <trkpt lat="45.77936" lon="-1.19059">
        <ele>65</ele>
        <time>2020-01-26T08:00:44Z</time>
      </trkpt>
      <trkpt lat="45.77937" lon="-1.19053">
        <ele>65.6</ele>
        <time>2020-01-26T08:00:45Z</time>
      </trkpt>
      <trkpt lat="45.77937" lon="-1.19051">
        <ele>66.4</ele>
        <time>2020-01-26T08:00:46Z</time>
      </trkpt>
      <trkpt lat="45.77938" lon="-1.19048">
        <ele>66.8</ele>
        <time>2020-01-26T08:00:47Z</time>
      </trkpt>
      <trkpt lat="45.7794" lon="-1.19045">
        <ele>67</ele>
        <time>2020-01-26T08:00:48Z</time>
      </trkpt>
      <trkpt lat="45.77942" lon="-1.19041">
        <ele>67.4</ele>
        <time>2020-01-26T08:00:49Z</time>
      </trkpt>
      <trkpt lat="45.77943" lon="-1.19038">
        <ele>67.8</ele>
        <time>2020-01-26T08:00:50Z</time>
      </trkpt>
      <trkpt lat="45.77943" lon="-1.19034">
        <ele>68</ele>
        <time>2020-01-26T08:00:51Z</time>
      </trkpt>
      <trkpt lat="45.77943" lon="-1.19029">
        <ele>67.8</ele>
        <time>2020-01-26T08:00:52Z</time>
      </trkpt>
      <trkpt lat="45.77944" lon="-1.19025">
        <ele>68.4</ele>
        <time>2020-01-26T08:00:53Z</time>
      </trkpt>
      <trkpt lat="45.77945" lon="-1.1902">
        <ele>69.4</ele>
        <time>2020-01-26T08:00:54Z</time>
      </trkpt>
      <trkpt lat="45.77946" lon="-1.19016">
        <ele>70</ele>
        <time>2020-01-26T08:00:55Z</time>
      </trkpt>
      <trkpt lat="45.77948" lon="-1.19011">
        <ele>69.6</ele>
        <time>2020-01-26T08:00:56Z</time>
      </trkpt>
      <trkpt lat="45.77949" lon="-1.19008">
        <ele>69.6</ele>
        <time>2020-01-26T08:00:57Z</time>
      </trkpt>
      <trkpt lat="45.77949" lon="-1.19005">
        <ele>69.4</ele>
        <time>2020-01-26T08:00:58Z</time>
      </trkpt>
      <trkpt lat="45.7795" lon="-1.19">
        <ele>68.6</ele>
        <time>2020-01-26T08:00:59Z</time>
      </trkpt>
      <trkpt lat="45.77951" lon="-1.18996">
        <ele>67.8</ele>
        <time>2020-01-26T08:01:00Z</time>
      </trkpt>
      <trkpt lat="45.77952" lon="-1.18992">
        <ele>67.4</ele>
        <time>2020-01-26T08:01:01Z</time>
      </trkpt>
      <trkpt lat="45.77953" lon="-1.18987">
        <ele>67.2</ele>
        <time>2020-01-26T08:01:02Z</time>
      </trkpt>
      <trkpt lat="45.77955" lon="-1.18982">
        <ele>67</ele>
        <time>2020-01-26T08:01:03Z</time>
      </trkpt>
      <trkpt lat="45.77957" lon="-1.18978">
        <ele>66.4</ele>
        <time>2020-01-26T08:01:04Z</time>
      </trkpt>
      <trkpt lat="45.77959" lon="-1.18974">
        <ele>66</ele>
        <time>2020-01-26T08:01:05Z</time>
      </trkpt>
      <trkpt lat="45.77961" lon="-1.18969">
        <ele>65.6</ele>
        <time>2020-01-26T08:01:06Z</time>
      </trkpt>
      <trkpt lat="45.77963" lon="-1.18964">
        <ele>64.8</ele>
        <time>2020-01-26T08:01:07Z</time>
      </trkpt>
      <trkpt lat="45.77965" lon="-1.18958">
        <ele>64.2</ele>
        <time>2020-01-26T08:01:08Z</time>
      </trkpt>
      <trkpt lat="45.77968" lon="-1.18952">
        <ele>63.6</ele>
        <time>2020-01-26T08:01:09Z</time>
      </trkpt>
      <trkpt lat="45.7797" lon="-1.18948">
        <ele>63.2</ele>
        <time>2020-01-26T08:01:10Z</time>
      </trkpt>
      <trkpt lat="45.77973" lon="-1.18943">
        <ele>62.4</ele>
        <time>2020-01-26T08:01:11Z</time>
      </trkpt>
      <trkpt lat="45.77975" lon="-1.18936">
        <ele>61.8</ele>
        <time>2020-01-26T08:01:12Z</time>
      </trkpt>
      <trkpt lat="45.77978" lon="-1.18929">
        <ele>61.4</ele>
        <time>2020-01-26T08:01:13Z</time>
      </trkpt>
      <trkpt lat="45.77981" lon="-1.18922">
        <ele>60.8</ele>
        <time>2020-01-26T08:01:14Z</time>
      </trkpt>
      <trkpt lat="45.77984" lon="-1.18916">
        <ele>60.2</ele>
        <time>2020-01-26T08:01:15Z</time>
      </trkpt>
      <trkpt lat="45.77987" lon="-1.1891">
        <ele>60</ele>
        <time>2020-01-26T08:01:16Z</time>
      </trkpt>
      <trkpt lat="45.7799" lon="-1.18903">
        <ele>59.8</ele>
        <time>2020-01-26T08:01:17Z</time>
      </trkpt>
      <trkpt lat="45.77993" lon="-1.18894">
        <ele>59.6</ele>
        <time>2020-01-26T08:01:18Z</time>
      </trkpt>
      <trkpt lat="45.77996" lon="-1.18884">
        <ele>59.6</ele>
        <time>2020-01-26T08:01:19Z</time>
      </trkpt>
      <trkpt lat="45.78" lon="-1.18877">
        <ele>59.8</ele>
        <time>2020-01-26T08:01:20Z</time>
      </trkpt>
      <trkpt lat="45.78004" lon="-1.18869">
        <ele>59.6</ele>
        <time>2020-01-26T08:01:21Z</time>
      </trkpt>
      <trkpt lat="45.78007" lon="-1.18861">
        <ele>59.6</ele>
        <time>2020-01-26T08:01:22Z</time>
      </trkpt>
      <trkpt lat="45.78011" lon="-1.18852">
        <ele>59.8</ele>
        <time>2020-01-26T08:01:23Z</time>
      </trkpt>
      <trkpt lat="45.78014" lon="-1.18845">
        <ele>59.8</ele>
        <time>2020-01-26T08:01:24Z</time>
      </trkpt>
      <trkpt lat="45.78017" lon="-1.18839">
        <ele>59.8</ele>
        <time>2020-01-26T08:01:25Z</time>
      </trkpt>
      <trkpt lat="45.78022" lon="-1.18833">
        <ele>59.6</ele>
        <time>2020-01-26T08:01:26Z</time>
      </trkpt>
      <trkpt lat="45.78027" lon="-1.1883">
        <ele>59.2</ele>
        <time>2020-01-26T08:01:27Z</time>
      </trkpt>
      <trkpt lat="45.78031" lon="-1.18827">
        <ele>58.6</ele>
        <time>2020-01-26T08:01:28Z</time>
      </trkpt>
      <trkpt lat="45.78037" lon="-1.18825">
        <ele>58</ele>
        <time>2020-01-26T08:01:29Z</time>
      </trkpt>
      <trkpt lat="45.78043" lon="-1.1882">
        <ele>57.4</ele>
        <time>2020-01-26T08:01:30Z</time>
      </trkpt>
      <trkpt lat="45.78049" lon="-1.18816">
        <ele>57.2</ele>
        <time>2020-01-26T08:01:31Z</time>
      </trkpt>
      <trkpt lat="45.78056" lon="-1.18811">
        <ele>56.8</ele>
        <time>2020-01-26T08:01:32Z</time>
      </trkpt>
      <trkpt lat="45.78062" lon="-1.18806">
        <ele>57</ele>
        <time>2020-01-26T08:01:33Z</time>
      </trkpt>
      <trkpt lat="45.78067" lon="-1.18802">
        <ele>57.2</ele>
        <time>2020-01-26T08:01:34Z</time>
      </trkpt>
      <trkpt lat="45.78071" lon="-1.18797">
        <ele>57.6</ele>
        <time>2020-01-26T08:01:35Z</time>
      </trkpt>
      <trkpt lat="45.78074" lon="-1.18791">
        <ele>57.8</ele>
        <time>2020-01-26T08:01:36Z</time>
      </trkpt>
      <trkpt lat="45.78078" lon="-1.18784">
        <ele>58</ele>
        <time>2020-01-26T08:01:37Z</time>
      </trkpt>
      <trkpt lat="45.78082" lon="-1.18775">
        <ele>58.2</ele>
        <time>2020-01-26T08:01:38Z</time>
      </trkpt>
      <trkpt lat="45.78083" lon="-1.18763">
        <ele>58.6</ele>
        <time>2020-01-26T08:01:39Z</time>
      </trkpt>
      <trkpt lat="45.78085" lon="-1.18754">
        <ele>58.8</ele>
        <time>2020-01-26T08:01:40Z</time>
      </trkpt>
      <trkpt lat="45.78086" lon="-1.18746">
        <ele>58.8</ele>
        <time>2020-01-26T08:01:41Z</time>
      </trkpt>
      <trkpt lat="45.78087" lon="-1.18738">
        <ele>58.6</ele>
        <time>2020-01-26T08:01:42Z</time>
      </trkpt>
      <trkpt lat="45.78089" lon="-1.18731">
        <ele>58.4</ele>
        <time>2020-01-26T08:01:43Z</time>
      </trkpt>
      <trkpt lat="45.7809" lon="-1.18724">
        <ele>58.4</ele>
        <time>2020-01-26T08:01:44Z</time>
      </trkpt>
      <trkpt lat="45.78092" lon="-1.18717">
        <ele>58.2</ele>
        <time>2020-01-26T08:01:45Z</time>
      </trkpt>
      <trkpt lat="45.78093" lon="-1.1871">
        <ele>58.2</ele>
        <time>2020-01-26T08:01:46Z</time>
      </trkpt>
      <trkpt lat="45.78096" lon="-1.18704">
        <ele>58.2</ele>
        <time>2020-01-26T08:01:47Z</time>
      </trkpt>
      <trkpt lat="45.78099" lon="-1.18696">
        <ele>57.8</ele>
        <time>2020-01-26T08:01:48Z</time>
      </trkpt>
      <trkpt lat="45.78101" lon="-1.18689">
        <ele>58</ele>
        <time>2020-01-26T08:01:49Z</time>
      </trkpt>
      <trkpt lat="45.78103" lon="-1.18681">
        <ele>58</ele>
        <time>2020-01-26T08:01:50Z</time>
      </trkpt>
      <trkpt lat="45.78105" lon="-1.18674">
        <ele>58</ele>
        <time>2020-01-26T08:01:51Z</time>
      </trkpt>
      <trkpt lat="45.78108" lon="-1.18667">
        <ele>58.2</ele>
        <time>2020-01-26T08:01:52Z</time>
      </trkpt>
      <trkpt lat="45.7811" lon="-1.18659">
        <ele>58.4</ele>
        <time>2020-01-26T08:01:53Z</time>
      </trkpt>
      <trkpt lat="45.78112" lon="-1.18651">
        <ele>58.8</ele>
        <time>2020-01-26T08:01:54Z</time>
      </trkpt>
      <trkpt lat="45.78115" lon="-1.18642">
        <ele>58.8</ele>
        <time>2020-01-26T08:01:55Z</time>
      </trkpt>
      <trkpt lat="45.78117" lon="-1.18635">
        <ele>59</ele>
        <time>2020-01-26T08:01:56Z</time>
      </trkpt>
      <trkpt lat="45.78121" lon="-1.18629">
        <ele>59.2</ele>
        <time>2020-01-26T08:01:57Z</time>
      </trkpt>
      <trkpt lat="45.78124" lon="-1.18621">
        <ele>59.4</ele>
        <time>2020-01-26T08:01:58Z</time>
      </trkpt>
      <trkpt lat="45.78128" lon="-1.18614">
        <ele>59.6</ele>
        <time>2020-01-26T08:01:59Z</time>
      </trkpt>
      <trkpt lat="45.78132" lon="-1.18607">
        <ele>59.4</ele>
        <time>2020-01-26T08:02:00Z</time>
      </trkpt>
      <trkpt lat="45.78136" lon="-1.18602">
        <ele>59</ele>
        <time>2020-01-26T08:02:01Z</time>
      </trkpt>
      <trkpt lat="45.78141" lon="-1.18596">
        <ele>59</ele>
        <time>2020-01-26T08:02:02Z</time>
      </trkpt>
      <trkpt lat="45.78145" lon="-1.18591">
        <ele>59</ele>
        <time>2020-01-26T08:02:03Z</time>
      </trkpt>
      <trkpt lat="45.78149" lon="-1.18586">
        <ele>59.2</ele>
        <time>2020-01-26T08:02:04Z</time>
      </trkpt>
      <trkpt lat="45.78155" lon="-1.18582">
        <ele>59.6</ele>
        <time>2020-01-26T08:02:05Z</time>
      </trkpt>
      <trkpt lat="45.7816" lon="-1.18578">
        <ele>59.8</ele>
        <time>2020-01-26T08:02:06Z</time>
      </trkpt>
      <trkpt lat="45.78165" lon="-1.18574">
        <ele>60.2</ele>
        <time>2020-01-26T08:02:07Z</time>
      </trkpt>
      <trkpt lat="45.78169" lon="-1.18571">
        <ele>60.4</ele>
        <time>2020-01-26T08:02:08Z</time>
      </trkpt>
      <trkpt lat="45.78175" lon="-1.18567">
        <ele>60.8</ele>
        <time>2020-01-26T08:02:09Z</time>
      </trkpt>
      <trkpt lat="45.78179" lon="-1.18564">
        <ele>61.2</ele>
        <time>2020-01-26T08:02:10Z</time>
      </trkpt>
      <trkpt lat="45.78182" lon="-1.18562">
        <ele>61.6</ele>
        <time>2020-01-26T08:02:11Z</time>
      </trkpt>
      <trkpt lat="45.78186" lon="-1.18559">
        <ele>62</ele>
        <time>2020-01-26T08:02:12Z</time>
      </trkpt>
      <trkpt lat="45.78191" lon="-1.18558">
        <ele>62.2</ele>
        <time>2020-01-26T08:02:13Z</time>
      </trkpt>
      <trkpt lat="45.78195" lon="-1.18557">
        <ele>61.8</ele>
        <time>2020-01-26T08:02:14Z</time>
      </trkpt>
      <trkpt lat="45.782" lon="-1.18555">
        <ele>62</ele>
        <time>2020-01-26T08:02:15Z</time>
      </trkpt>
      <trkpt lat="45.78205" lon="-1.18553">
        <ele>62</ele>
        <time>2020-01-26T08:02:16Z</time>
      </trkpt>
      <trkpt lat="45.78211" lon="-1.18549">
        <ele>62.2</ele>
        <time>2020-01-26T08:02:17Z</time>
      </trkpt>
      <trkpt lat="45.78216" lon="-1.18546">
        <ele>62.4</ele>
        <time>2020-01-26T08:02:18Z</time>
      </trkpt>
      <trkpt lat="45.78222" lon="-1.18543">
        <ele>62.4</ele>
        <time>2020-01-26T08:02:19Z</time>
      </trkpt>
      <trkpt lat="45.78229" lon="-1.18541">
        <ele>62.4</ele>
        <time>2020-01-26T08:02:20Z</time>
      </trkpt>
      <trkpt lat="45.78234" lon="-1.18539">
        <ele>62.6</ele>
        <time>2020-01-26T08:02:21Z</time>
      </trkpt>
      <trkpt lat="45.78241" lon="-1.18537">
        <ele>63</ele>
        <time>2020-01-26T08:02:22Z</time>
      </trkpt>
      <trkpt lat="45.78245" lon="-1.18533">
        <ele>63.6</ele>
        <time>2020-01-26T08:02:23Z</time>
      </trkpt>
      <trkpt lat="45.78249" lon="-1.18531">
        <ele>64</ele>
        <time>2020-01-26T08:02:24Z</time>
      </trkpt>
      <trkpt lat="45.78253" lon="-1.18528">
        <ele>64</ele>
        <time>2020-01-26T08:02:25Z</time>
      </trkpt>
      <trkpt lat="45.78258" lon="-1.18527">
        <ele>63.8</ele>
        <time>2020-01-26T08:02:26Z</time>
      </trkpt>
      <trkpt lat="45.78263" lon="-1.18527">
        <ele>63.6</ele>
        <time>2020-01-26T08:02:27Z</time>
      </trkpt>
      <trkpt lat="45.78267" lon="-1.18528">
        <ele>63.6</ele>
        <time>2020-01-26T08:02:28Z</time>
      </trkpt>
      <trkpt lat="45.78273" lon="-1.18532">
        <ele>63.6</ele>
        <time>2020-01-26T08:02:29Z</time>
      </trkpt>
      <trkpt lat="45.78277" lon="-1.18537">
        <ele>63.4</ele>
        <time>2020-01-26T08:02:30Z</time>
      </trkpt>
      <trkpt lat="45.78281" lon="-1.18542">
        <ele>63.6</ele>
        <time>2020-01-26T08:02:31Z</time>
      </trkpt>
      <trkpt lat="45.78285" lon="-1.18546">
        <ele>63.4</ele>
        <time>2020-01-26T08:02:32Z</time>
      </trkpt>
      <trkpt lat="45.7829" lon="-1.1855">
        <ele>63.6</ele>
        <time>2020-01-26T08:02:33Z</time>
      </trkpt>
      <trkpt lat="45.78293" lon="-1.18555">
        <ele>64.2</ele>
        <time>2020-01-26T08:02:34Z</time>
      </trkpt>
      <trkpt lat="45.78298" lon="-1.18558">
        <ele>65</ele>
        <time>2020-01-26T08:02:35Z</time>
      </trkpt>
      <trkpt lat="45.78302" lon="-1.18561">
        <ele>66</ele>
        <time>2020-01-26T08:02:36Z</time>
      </trkpt>
      <trkpt lat="45.78305" lon="-1.18564">
        <ele>67.6</ele>
        <time>2020-01-26T08:02:37Z</time>
      </trkpt>
      <trkpt lat="45.78308" lon="-1.18566">
        <ele>68.6</ele>
        <time>2020-01-26T08:02:38Z</time>
      </trkpt>
      <trkpt lat="45.7831" lon="-1.18568">
        <ele>69.4</ele>
        <time>2020-01-26T08:02:39Z</time>
      </trkpt>
      <trkpt lat="45.78312" lon="-1.18569">
        <ele>70.2</ele>
        <time>2020-01-26T08:02:40Z</time>
      </trkpt>
      <trkpt lat="45.78315" lon="-1.18571">
        <ele>70.6</ele>
        <time>2020-01-26T08:02:41Z</time>
      </trkpt>
      <trkpt lat="45.78318" lon="-1.18575">
        <ele>70.4</ele>
        <time>2020-01-26T08:02:42Z</time>
      </trkpt>
      <trkpt lat="45.7832" lon="-1.18577">
        <ele>70</ele>
        <time>2020-01-26T08:02:43Z</time>
      </trkpt>
      <trkpt lat="45.78323" lon="-1.18578">
        <ele>69.8</ele>
        <time>2020-01-26T08:02:44Z</time>
      </trkpt>
      <trkpt lat="45.78326" lon="-1.18581">
        <ele>69.6</ele>
        <time>2020-01-26T08:02:45Z</time>
      </trkpt>
      <trkpt lat="45.78328" lon="-1.18585">
        <ele>69.4</ele>
        <time>2020-01-26T08:02:46Z</time>
      </trkpt>
      <trkpt lat="45.78331" lon="-1.18589">
        <ele>69.6</ele>
        <time>2020-01-26T08:02:47Z</time>
      </trkpt>
      <trkpt lat="45.78336" lon="-1.18591">
        <ele>69.6</ele>
        <time>2020-01-26T08:02:48Z</time>
      </trkpt>
      <trkpt lat="45.7834" lon="-1.18594">
        <ele>69.8</ele>
        <time>2020-01-26T08:02:49Z</time>
      </trkpt>
      <trkpt lat="45.78342" lon="-1.18597">
        <ele>69.8</ele>
        <time>2020-01-26T08:02:50Z</time>
      </trkpt>
      <trkpt lat="45.78344" lon="-1.186">
        <ele>69.6</ele>
        <time>2020-01-26T08:02:51Z</time>
      </trkpt>
      <trkpt lat="45.78346" lon="-1.18603">
        <ele>69.8</ele>
        <time>2020-01-26T08:02:52Z</time>
      </trkpt>
      <trkpt lat="45.78348" lon="-1.18605">
        <ele>69.8</ele>
        <time>2020-01-26T08:02:53Z</time>
      </trkpt>
      <trkpt lat="45.7835" lon="-1.18608">
        <ele>69.8</ele>
        <time>2020-01-26T08:02:54Z</time>
      </trkpt>
      <trkpt lat="45.78353" lon="-1.1861">
        <ele>69.8</ele>
        <time>2020-01-26T08:02:55Z</time>
      </trkpt>
      <trkpt lat="45.78355" lon="-1.18613">
        <ele>69.6</ele>
        <time>2020-01-26T08:02:56Z</time>
      </trkpt>
      <trkpt lat="45.78358" lon="-1.18615">
        <ele>69.2</ele>
        <time>2020-01-26T08:02:57Z</time>
      </trkpt>
      <trkpt lat="45.78362" lon="-1.18618">
        <ele>69.2</ele>
        <time>2020-01-26T08:02:58Z</time>
      </trkpt>
      <trkpt lat="45.78365" lon="-1.18621">
        <ele>69.4</ele>
        <time>2020-01-26T08:02:59Z</time>
      </trkpt>
      <trkpt lat="45.78368" lon="-1.18623">
        <ele>69.2</ele>
        <time>2020-01-26T08:03:00Z</time>
      </trkpt>
      <trkpt lat="45.7837" lon="-1.18626">
        <ele>69.2</ele>
        <time>2020-01-26T08:03:01Z</time>
      </trkpt>
      <trkpt lat="45.78372" lon="-1.1863">
        <ele>69.6</ele>
        <time>2020-01-26T08:03:02Z</time>
      </trkpt>
      <trkpt lat="45.78374" lon="-1.18631">
        <ele>70</ele>
        <time>2020-01-26T08:03:03Z</time>
      </trkpt>
      <trkpt lat="45.78376" lon="-1.18634">
        <ele>70</ele>
        <time>2020-01-26T08:03:04Z</time>
      </trkpt>
      <trkpt lat="45.7838" lon="-1.18636">
        <ele>70.2</ele>
        <time>2020-01-26T08:03:05Z</time>
      </trkpt>
      <trkpt lat="45.78384" lon="-1.1864">
        <ele>70.2</ele>
        <time>2020-01-26T08:03:06Z</time>
      </trkpt>
      <trkpt lat="45.78387" lon="-1.18644">
        <ele>70.4</ele>
        <time>2020-01-26T08:03:07Z</time>
      </trkpt>
      <trkpt lat="45.78391" lon="-1.18648">
        <ele>70.6</ele>
        <time>2020-01-26T08:03:08Z</time>
      </trkpt>
      <trkpt lat="45.78394" lon="-1.18652">
        <ele>71</ele>
        <time>2020-01-26T08:03:09Z</time>
      </trkpt>
      <trkpt lat="45.78397" lon="-1.18656">
        <ele>71.8</ele>
        <time>2020-01-26T08:03:10Z</time>
      </trkpt>
      <trkpt lat="45.784" lon="-1.1866">
        <ele>72</ele>
        <time>2020-01-26T08:03:11Z</time>
      </trkpt>
      <trkpt lat="45.78402" lon="-1.18666">
        <ele>72</ele>
        <time>2020-01-26T08:03:12Z</time>
      </trkpt>
      <trkpt lat="45.78403" lon="-1.18672">
        <ele>71.6</ele>
        <time>2020-01-26T08:03:13Z</time>
      </trkpt>
      <trkpt lat="45.78405" lon="-1.18676">
        <ele>71</ele>
        <time>2020-01-26T08:03:14Z</time>
      </trkpt>
      <trkpt lat="45.78406" lon="-1.18682">
        <ele>70.2</ele>
        <time>2020-01-26T08:03:15Z</time>
      </trkpt>
      <trkpt lat="45.78408" lon="-1.18687">
        <ele>69.4</ele>
        <time>2020-01-26T08:03:16Z</time>
      </trkpt>
      <trkpt lat="45.7841" lon="-1.18693">
        <ele>68.6</ele>
        <time>2020-01-26T08:03:17Z</time>
      </trkpt>
      <trkpt lat="45.7841" lon="-1.18699">
        <ele>68.2</ele>
        <time>2020-01-26T08:03:18Z</time>
      </trkpt>
      <trkpt lat="45.7841" lon="-1.18705">
        <ele>67.6</ele>
        <time>2020-01-26T08:03:19Z</time>
      </trkpt>
      <trkpt lat="45.7841" lon="-1.18713">
        <ele>67.2</ele>
        <time>2020-01-26T08:03:20Z</time>
      </trkpt>
      <trkpt lat="45.78411" lon="-1.18719">
        <ele>66.6</ele>
        <time>2020-01-26T08:03:21Z</time>
      </trkpt>
      <trkpt lat="45.78411" lon="-1.18724">
        <ele>66</ele>
        <time>2020-01-26T08:03:22Z</time>
      </trkpt>
      <trkpt lat="45.78413" lon="-1.18728">
        <ele>65</ele>
        <time>2020-01-26T08:03:23Z</time>
      </trkpt>
      <trkpt lat="45.78412" lon="-1.18735">
        <ele>64.2</ele>
        <time>2020-01-26T08:03:24Z</time>
      </trkpt>
      <trkpt lat="45.78411" lon="-1.18741">
        <ele>63.4</ele>
        <time>2020-01-26T08:03:25Z</time>
      </trkpt>
      <trkpt lat="45.78412" lon="-1.18748">
        <ele>63</ele>
        <time>2020-01-26T08:03:26Z</time>
      </trkpt>
      <trkpt lat="45.78411" lon="-1.18755">
        <ele>62.4</ele>
        <time>2020-01-26T08:03:27Z</time>
      </trkpt>
      <trkpt lat="45.7841" lon="-1.18762">
        <ele>61.8</ele>
        <time>2020-01-26T08:03:28Z</time>
      </trkpt>
      <trkpt lat="45.78408" lon="-1.18769">
        <ele>61.4</ele>
        <time>2020-01-26T08:03:29Z</time>
      </trkpt>
      <trkpt lat="45.78407" lon="-1.18776">
        <ele>60.8</ele>
        <time>2020-01-26T08:03:30Z</time>
      </trkpt>
      <trkpt lat="45.78405" lon="-1.18782">
        <ele>60.2</ele>
        <time>2020-01-26T08:03:31Z</time>
      </trkpt>
      <trkpt lat="45.78403" lon="-1.18789">
        <ele>59.4</ele>
        <time>2020-01-26T08:03:32Z</time>
      </trkpt>
      <trkpt lat="45.78402" lon="-1.18795">
        <ele>59.2</ele>
        <time>2020-01-26T08:03:33Z</time>
      </trkpt>
      <trkpt lat="45.78402" lon="-1.18801">
        <ele>59.2</ele>
        <time>2020-01-26T08:03:34Z</time>
      </trkpt>
      <trkpt lat="45.78402" lon="-1.18808">
        <ele>59</ele>
        <time>2020-01-26T08:03:35Z</time>
      </trkpt>
      <trkpt lat="45.78401" lon="-1.18815">
        <ele>59</ele>
        <time>2020-01-26T08:03:36Z</time>
      </trkpt>
      <trkpt lat="45.784" lon="-1.18823">
        <ele>59.6</ele>
        <time>2020-01-26T08:03:37Z</time>
      </trkpt>
      <trkpt lat="45.78399" lon="-1.18832">
        <ele>59.6</ele>
        <time>2020-01-26T08:03:38Z</time>
      </trkpt>
      <trkpt lat="45.78396" lon="-1.18842">
        <ele>59.4</ele>
        <time>2020-01-26T08:03:39Z</time>
      </trkpt>
      <trkpt lat="45.78394" lon="-1.18852">
        <ele>59.4</ele>
        <time>2020-01-26T08:03:40Z</time>
      </trkpt>
      <trkpt lat="45.78394" lon="-1.18861">
        <ele>59.2</ele>
        <time>2020-01-26T08:03:41Z</time>
      </trkpt>
      <trkpt lat="45.78395" lon="-1.18869">
        <ele>59.2</ele>
        <time>2020-01-26T08:03:42Z</time>
      </trkpt>
      <trkpt lat="45.78394" lon="-1.18879">
        <ele>59.2</ele>
        <time>2020-01-26T08:03:43Z</time>
      </trkpt>
      <trkpt lat="45.78391" lon="-1.18892">
        <ele>59.2</ele>
        <time>2020-01-26T08:03:44Z</time>
      </trkpt>
      <trkpt lat="45.78389" lon="-1.18903">
        <ele>59</ele>
        <time>2020-01-26T08:03:45Z</time>
      </trkpt>
      <trkpt lat="45.78385" lon="-1.18917">
        <ele>59</ele>
        <time>2020-01-26T08:03:46Z</time>
      </trkpt>
      <trkpt lat="45.78382" lon="-1.1893">
        <ele>58.2</ele>
        <time>2020-01-26T08:03:47Z</time>
      </trkpt>
      <trkpt lat="45.78381" lon="-1.18945">
        <ele>57.4</ele>
        <time>2020-01-26T08:03:48Z</time>
      </trkpt>
      <trkpt lat="45.78381" lon="-1.18959">
        <ele>56.6</ele>
        <time>2020-01-26T08:03:49Z</time>
      </trkpt>
      <trkpt lat="45.78381" lon="-1.18973">
        <ele>56.2</ele>
        <time>2020-01-26T08:03:50Z</time>
      </trkpt>
      <trkpt lat="45.78381" lon="-1.18986">
        <ele>56.2</ele>
        <time>2020-01-26T08:03:51Z</time>
      </trkpt>
      <trkpt lat="45.78382" lon="-1.18998">
        <ele>55.8</ele>
        <time>2020-01-26T08:03:52Z</time>
      </trkpt>
      <trkpt lat="45.78383" lon="-1.1901">
        <ele>56</ele>
        <time>2020-01-26T08:03:53Z</time>
      </trkpt>
      <trkpt lat="45.78383" lon="-1.19022">
        <ele>56</ele>
        <time>2020-01-26T08:03:54Z</time>
      </trkpt>
      <trkpt lat="45.78382" lon="-1.19034">
        <ele>56.4</ele>
        <time>2020-01-26T08:03:55Z</time>
      </trkpt>
      <trkpt lat="45.78381" lon="-1.19045">
        <ele>56.8</ele>
        <time>2020-01-26T08:03:56Z</time>
      </trkpt>
      <trkpt lat="45.7838" lon="-1.19054">
        <ele>57.2</ele>
        <time>2020-01-26T08:03:57Z</time>
      </trkpt>
      <trkpt lat="45.78378" lon="-1.19064">
        <ele>57.4</ele>
        <time>2020-01-26T08:03:58Z</time>
      </trkpt>
      <trkpt lat="45.78377" lon="-1.19073">
        <ele>57.6</ele>
        <time>2020-01-26T08:03:59Z</time>
      </trkpt>
      <trkpt lat="45.78375" lon="-1.19083">
        <ele>57.8</ele>
        <time>2020-01-26T08:04:00Z</time>
      </trkpt>
      <trkpt lat="45.78374" lon="-1.19092">
        <ele>58</ele>
        <time>2020-01-26T08:04:01Z</time>
      </trkpt>
      <trkpt lat="45.78372" lon="-1.19102">
        <ele>58.2</ele>
        <time>2020-01-26T08:04:02Z</time>
      </trkpt>
      <trkpt lat="45.78371" lon="-1.19111">
        <ele>58.2</ele>
        <time>2020-01-26T08:04:03Z</time>
      </trkpt>
      <trkpt lat="45.7837" lon="-1.19121">
        <ele>58.2</ele>
        <time>2020-01-26T08:04:04Z</time>
      </trkpt>
      <trkpt lat="45.78368" lon="-1.19131">
        <ele>58</ele>
        <time>2020-01-26T08:04:05Z</time>
      </trkpt>
      <trkpt lat="45.78366" lon="-1.19141">
        <ele>58</ele>
        <time>2020-01-26T08:04:06Z</time>
      </trkpt>
      <trkpt lat="45.78365" lon="-1.19151">
        <ele>58</ele>
        <time>2020-01-26T08:04:07Z</time>
      </trkpt>
      <trkpt lat="45.78364" lon="-1.19161">
        <ele>58</ele>
        <time>2020-01-26T08:04:08Z</time>
      </trkpt>
      <trkpt lat="45.78363" lon="-1.19172">
        <ele>58.2</ele>
        <time>2020-01-26T08:04:09Z</time>
      </trkpt>
      <trkpt lat="45.78363" lon="-1.19181">
        <ele>58.6</ele>
        <time>2020-01-26T08:04:10Z</time>
      </trkpt>
      <trkpt lat="45.78364" lon="-1.19189">
        <ele>59</ele>
        <time>2020-01-26T08:04:11Z</time>
      </trkpt>
      <trkpt lat="45.78365" lon="-1.19198">
        <ele>59.4</ele>
        <time>2020-01-26T08:04:12Z</time>
      </trkpt>
      <trkpt lat="45.78366" lon="-1.19206">
        <ele>59.6</ele>
        <time>2020-01-26T08:04:13Z</time>
      </trkpt>
      <trkpt lat="45.78366" lon="-1.19214">
        <ele>59.6</ele>
        <time>2020-01-26T08:04:14Z</time>
      </trkpt>
      <trkpt lat="45.78368" lon="-1.19222">
        <ele>59.8</ele>
        <time>2020-01-26T08:04:15Z</time>
      </trkpt>
      <trkpt lat="45.78372" lon="-1.19231">
        <ele>59.6</ele>
        <time>2020-01-26T08:04:16Z</time>
      </trkpt>
      <trkpt lat="45.78376" lon="-1.1924">
        <ele>59.2</ele>
        <time>2020-01-26T08:04:17Z</time>
      </trkpt>
      <trkpt lat="45.78381" lon="-1.19248">
        <ele>58.8</ele>
        <time>2020-01-26T08:04:18Z</time>
      </trkpt>
      <trkpt lat="45.78387" lon="-1.19255">
        <ele>59</ele>
        <time>2020-01-26T08:04:19Z</time>
      </trkpt>
      <trkpt lat="45.78394" lon="-1.1926">
        <ele>59</ele>
        <time>2020-01-26T08:04:20Z</time>
      </trkpt>
      <trkpt lat="45.784" lon="-1.19264">
        <ele>59.2</ele>
        <time>2020-01-26T08:04:21Z</time>
      </trkpt>
      <trkpt lat="45.78406" lon="-1.19266">
        <ele>59.6</ele>
        <time>2020-01-26T08:04:22Z</time>
      </trkpt>
      <trkpt lat="45.78411" lon="-1.19267">
        <ele>60</ele>
        <time>2020-01-26T08:04:23Z</time>
      </trkpt>
      <trkpt lat="45.78416" lon="-1.19266">
        <ele>60.2</ele>
        <time>2020-01-26T08:04:24Z</time>
      </trkpt>
      <trkpt lat="45.78423" lon="-1.19265">
        <ele>60.4</ele>
        <time>2020-01-26T08:04:25Z</time>
      </trkpt>
      <trkpt lat="45.78428" lon="-1.19265">
        <ele>60.8</ele>
        <time>2020-01-26T08:04:26Z</time>
      </trkpt>
      <trkpt lat="45.78433" lon="-1.19264">
        <ele>61.2</ele>
        <time>2020-01-26T08:04:27Z</time>
      </trkpt>
      <trkpt lat="45.78442" lon="-1.19271">
        <ele>61.4</ele>
        <time>2020-01-26T08:04:28Z</time>
      </trkpt>
      <trkpt lat="45.78448" lon="-1.19279">
        <ele>61.2</ele>
        <time>2020-01-26T08:04:29Z</time>
      </trkpt>
      <trkpt lat="45.78453" lon="-1.19288">
        <ele>61</ele>
        <time>2020-01-26T08:04:30Z</time>
      </trkpt>
      <trkpt lat="45.78457" lon="-1.19298">
        <ele>61</ele>
        <time>2020-01-26T08:04:31Z</time>
      </trkpt>
      <trkpt lat="45.78461" lon="-1.19308">
        <ele>61</ele>
        <time>2020-01-26T08:04:32Z</time>
      </trkpt>
      <trkpt lat="45.78465" lon="-1.19317">
        <ele>60.8</ele>
        <time>2020-01-26T08:04:33Z</time>
      </trkpt>
      <trkpt lat="45.78469" lon="-1.19326">
        <ele>60.8</ele>
        <time>2020-01-26T08:04:34Z</time>
      </trkpt>
      <trkpt lat="45.78473" lon="-1.19333">
        <ele>60.6</ele>
        <time>2020-01-26T08:04:35Z</time>
      </trkpt>
      <trkpt lat="45.78476" lon="-1.19339">
        <ele>60.4</ele>
        <time>2020-01-26T08:04:36Z</time>
      </trkpt>
      <trkpt lat="45.7848" lon="-1.19345">
        <ele>60.6</ele>
        <time>2020-01-26T08:04:37Z</time>
      </trkpt>
      <trkpt lat="45.78485" lon="-1.1935">
        <ele>60.6</ele>
        <time>2020-01-26T08:04:38Z</time>
      </trkpt>
      <trkpt lat="45.7849" lon="-1.19357">
        <ele>60.2</ele>
        <time>2020-01-26T08:04:39Z</time>
      </trkpt>
      <trkpt lat="45.78495" lon="-1.19362">
        <ele>60</ele>
        <time>2020-01-26T08:04:40Z</time>
      </trkpt>
      <trkpt lat="45.785" lon="-1.19368">
        <ele>59.6</ele>
        <time>2020-01-26T08:04:41Z</time>
      </trkpt>
      <trkpt lat="45.78506" lon="-1.19374">
        <ele>59.4</ele>
        <time>2020-01-26T08:04:42Z</time>
      </trkpt>
      <trkpt lat="45.78511" lon="-1.19379">
        <ele>59.2</ele>
        <time>2020-01-26T08:04:43Z</time>
      </trkpt>
      <trkpt lat="45.78517" lon="-1.19383">
        <ele>58.8</ele>
        <time>2020-01-26T08:04:44Z</time>
      </trkpt>
      <trkpt lat="45.78522" lon="-1.19386">
        <ele>58.6</ele>
        <time>2020-01-26T08:04:45Z</time>
      </trkpt>
      <trkpt lat="45.78528" lon="-1.19388">
        <ele>58.4</ele>
        <time>2020-01-26T08:04:46Z</time>
      </trkpt>
      <trkpt lat="45.78534" lon="-1.19391">
        <ele>58.4</ele>
        <time>2020-01-26T08:04:47Z</time>
      </trkpt>
      <trkpt lat="45.78541" lon="-1.19392">
        <ele>58.6</ele>
        <time>2020-01-26T08:04:48Z</time>
      </trkpt>
      <trkpt lat="45.78548" lon="-1.19391">
        <ele>58.4</ele>
        <time>2020-01-26T08:04:49Z</time>
      </trkpt>
      <trkpt lat="45.78553" lon="-1.19392">
        <ele>58.2</ele>
        <time>2020-01-26T08:04:50Z</time>
      </trkpt>
      <trkpt lat="45.7856" lon="-1.19393">
        <ele>58</ele>
        <time>2020-01-26T08:04:51Z</time>
      </trkpt>
      <trkpt lat="45.78567" lon="-1.1939">
        <ele>57.8</ele>
        <time>2020-01-26T08:04:52Z</time>
      </trkpt>
      <trkpt lat="45.78574" lon="-1.19388">
        <ele>57.6</ele>
        <time>2020-01-26T08:04:53Z</time>
      </trkpt>
      <trkpt lat="45.7858" lon="-1.19387">
        <ele>57.8</ele>
        <time>2020-01-26T08:04:54Z</time>
      </trkpt>
      <trkpt lat="45.78585" lon="-1.19384">
        <ele>58</ele>
        <time>2020-01-26T08:04:55Z</time>
      </trkpt>
      <trkpt lat="45.78591" lon="-1.19382">
        <ele>58.2</ele>
        <time>2020-01-26T08:04:56Z</time>
      </trkpt>
      <trkpt lat="45.78596" lon="-1.1938">
        <ele>58.4</ele>
        <time>2020-01-26T08:04:57Z</time>
      </trkpt>
      <trkpt lat="45.78601" lon="-1.19379">
        <ele>58.6</ele>
        <time>2020-01-26T08:04:58Z</time>
      </trkpt>
      <trkpt lat="45.78605" lon="-1.19377">
        <ele>58.8</ele>
        <time>2020-01-26T08:04:59Z</time>
      </trkpt>
      <trkpt lat="45.7861" lon="-1.19376">
        <ele>59</ele>
        <time>2020-01-26T08:05:00Z</time>
      </trkpt>
      <trkpt lat="45.78615" lon="-1.19376">
        <ele>59.2</ele>
        <time>2020-01-26T08:05:01Z</time>
      </trkpt>
      <trkpt lat="45.78617" lon="-1.19374">
        <ele>59.2</ele>
        <time>2020-01-26T08:05:02Z</time>
      </trkpt>
      <trkpt lat="45.78623" lon="-1.19371">
        <ele>59.2</ele>
        <time>2020-01-26T08:05:03Z</time>
      </trkpt>
      <trkpt lat="45.78629" lon="-1.1937">
        <ele>59</ele>
        <time>2020-01-26T08:05:04Z</time>
      </trkpt>
      <trkpt lat="45.78633" lon="-1.19369">
        <ele>58.8</ele>
        <time>2020-01-26T08:05:05Z</time>
      </trkpt>
      <trkpt lat="45.78638" lon="-1.1937">
        <ele>58.6</ele>
        <time>2020-01-26T08:05:06Z</time>
      </trkpt>
      <trkpt lat="45.78641" lon="-1.19374">
        <ele>58.4</ele>
        <time>2020-01-26T08:05:07Z</time>
      </trkpt>
      <trkpt lat="45.78643" lon="-1.19379">
        <ele>58.4</ele>
        <time>2020-01-26T08:05:08Z</time>
      </trkpt>
      <trkpt lat="45.78643" lon="-1.19386">
        <ele>58</ele>
        <time>2020-01-26T08:05:09Z</time>
      </trkpt>
      <trkpt lat="45.78643" lon="-1.19391">
        <ele>57.8</ele>
        <time>2020-01-26T08:05:10Z</time>
      </trkpt>
      <trkpt lat="45.78642" lon="-1.19398">
        <ele>57.6</ele>
        <time>2020-01-26T08:05:11Z</time>
      </trkpt>
      <trkpt lat="45.78641" lon="-1.19404">
        <ele>57.4</ele>
        <time>2020-01-26T08:05:12Z</time>
      </trkpt>
      <trkpt lat="45.7864" lon="-1.19409">
        <ele>57</ele>
        <time>2020-01-26T08:05:13Z</time>
      </trkpt>
      <trkpt lat="45.78639" lon="-1.19414">
        <ele>57</ele>
        <time>2020-01-26T08:05:14Z</time>
      </trkpt>
      <trkpt lat="45.78638" lon="-1.1942">
        <ele>57.4</ele>
        <time>2020-01-26T08:05:15Z</time>
      </trkpt>
      <trkpt lat="45.78638" lon="-1.19425">
        <ele>57.4</ele>
        <time>2020-01-26T08:05:16Z</time>
      </trkpt>
      <trkpt lat="45.78638" lon="-1.1943">
        <ele>57.4</ele>
        <time>2020-01-26T08:05:17Z</time>
      </trkpt>
      <trkpt lat="45.78636" lon="-1.19437">
        <ele>57.2</ele>
        <time>2020-01-26T08:05:18Z</time>
      </trkpt>
      <trkpt lat="45.78635" lon="-1.19443">
        <ele>57.2</ele>
        <time>2020-01-26T08:05:19Z</time>
      </trkpt>
      <trkpt lat="45.78634" lon="-1.19449">
        <ele>57.6</ele>
        <time>2020-01-26T08:05:20Z</time>
      </trkpt>
      <trkpt lat="45.78633" lon="-1.19455">
        <ele>57.8</ele>
        <time>2020-01-26T08:05:21Z</time>
      </trkpt>
      <trkpt lat="45.78632" lon="-1.19461">
        <ele>57.8</ele>
        <time>2020-01-26T08:05:22Z</time>
      </trkpt>
      <trkpt lat="45.78632" lon="-1.19466">
        <ele>57.8</ele>
        <time>2020-01-26T08:05:23Z</time>
      </trkpt>
      <trkpt lat="45.7863" lon="-1.19472">
        <ele>58.2</ele>
        <time>2020-01-26T08:05:24Z</time>
      </trkpt>
      <trkpt lat="45.7863" lon="-1.19477">
        <ele>58.6</ele>
        <time>2020-01-26T08:05:25Z</time>
      </trkpt>
      <trkpt lat="45.78629" lon="-1.19482">
        <ele>59</ele>
        <time>2020-01-26T08:05:26Z</time>
      </trkpt>
      <trkpt lat="45.78628" lon="-1.19487">
        <ele>59.2</ele>
        <time>2020-01-26T08:05:27Z</time>
      </trkpt>
      <trkpt lat="45.78627" lon="-1.19492">
        <ele>59.8</ele>
        <time>2020-01-26T08:05:28Z</time>
      </trkpt>
      <trkpt lat="45.78626" lon="-1.19497">
        <ele>60.4</ele>
        <time>2020-01-26T08:05:29Z</time>
      </trkpt>
      <trkpt lat="45.78625" lon="-1.19502">
        <ele>60.8</ele>
        <time>2020-01-26T08:05:30Z</time>
      </trkpt>
      <trkpt lat="45.78625" lon="-1.19506">
        <ele>61.4</ele>
        <time>2020-01-26T08:05:31Z</time>
      </trkpt>
      <trkpt lat="45.78624" lon="-1.19509">
        <ele>62</ele>
        <time>2020-01-26T08:05:32Z</time>
      </trkpt>
      <trkpt lat="45.78624" lon="-1.19514">
        <ele>62.8</ele>
        <time>2020-01-26T08:05:33Z</time>
      </trkpt>
      <trkpt lat="45.78623" lon="-1.19518">
        <ele>63.6</ele>
        <time>2020-01-26T08:05:34Z</time>
      </trkpt>
      <trkpt lat="45.78622" lon="-1.19524">
        <ele>64</ele>
        <time>2020-01-26T08:05:35Z</time>
      </trkpt>
      <trkpt lat="45.78621" lon="-1.19528">
        <ele>64.4</ele>
        <time>2020-01-26T08:05:36Z</time>
      </trkpt>
      <trkpt lat="45.78621" lon="-1.19532">
        <ele>64.8</ele>
        <time>2020-01-26T08:05:37Z</time>
      </trkpt>
      <trkpt lat="45.7862" lon="-1.19536">
        <ele>65.4</ele>
        <time>2020-01-26T08:05:38Z</time>
      </trkpt>
      <trkpt lat="45.78619" lon="-1.1954">
        <ele>65.8</ele>
        <time>2020-01-26T08:05:39Z</time>
      </trkpt>
      <trkpt lat="45.78618" lon="-1.19544">
        <ele>66.2</ele>
        <time>2020-01-26T08:05:40Z</time>
      </trkpt>
      <trkpt lat="45.78617" lon="-1.19549">
        <ele>66.6</ele>
        <time>2020-01-26T08:05:41Z</time>
      </trkpt>
      <trkpt lat="45.78617" lon="-1.19552">
        <ele>67.4</ele>
        <time>2020-01-26T08:05:42Z</time>
      </trkpt>
      <trkpt lat="45.78616" lon="-1.19557">
        <ele>68.2</ele>
        <time>2020-01-26T08:05:43Z</time>
      </trkpt>
      <trkpt lat="45.78615" lon="-1.1956">
        <ele>68.6</ele>
        <time>2020-01-26T08:05:44Z</time>
      </trkpt>
      <trkpt lat="45.78614" lon="-1.19564">
        <ele>69</ele>
        <time>2020-01-26T08:05:45Z</time>
      </trkpt>
      <trkpt lat="45.78614" lon="-1.19568">
        <ele>69.2</ele>
        <time>2020-01-26T08:05:46Z</time>
      </trkpt>
      <trkpt lat="45.78614" lon="-1.19571">
        <ele>69.4</ele>
        <time>2020-01-26T08:05:47Z</time>
      </trkpt>
      <trkpt lat="45.78613" lon="-1.19575">
        <ele>69.6</ele>
        <time>2020-01-26T08:05:48Z</time>
      </trkpt>
      <trkpt lat="45.78613" lon="-1.19579">
        <ele>70</ele>
        <time>2020-01-26T08:05:49Z</time>
      </trkpt>
      <trkpt lat="45.78612" lon="-1.19583">
        <ele>70</ele>
        <time>2020-01-26T08:05:50Z</time>
      </trkpt>
      <trkpt lat="45.78611" lon="-1.19588">
        <ele>70</ele>
        <time>2020-01-26T08:05:51Z</time>
      </trkpt>
      <trkpt lat="45.78611" lon="-1.19592">
        <ele>70.2</ele>
        <time>2020-01-26T08:05:52Z</time>
      </trkpt>
      <trkpt lat="45.7861" lon="-1.19595">
        <ele>70.4</ele>
        <time>2020-01-26T08:05:53Z</time>
      </trkpt>
      <trkpt lat="45.7861" lon="-1.19599">
        <ele>70.6</ele>
        <time>2020-01-26T08:05:54Z</time>
      </trkpt>
      <trkpt lat="45.78609" lon="-1.19603">
        <ele>71</ele>
        <time>2020-01-26T08:05:55Z</time>
      </trkpt>
      <trkpt lat="45.78609" lon="-1.19607">
        <ele>71.2</ele>
        <time>2020-01-26T08:05:56Z</time>
      </trkpt>
      <trkpt lat="45.78609" lon="-1.19611">
        <ele>71.4</ele>
        <time>2020-01-26T08:05:57Z</time>
      </trkpt>
      <trkpt lat="45.78609" lon="-1.19615">
        <ele>71.6</ele>
        <time>2020-01-26T08:05:58Z</time>
      </trkpt>
      <trkpt lat="45.78608" lon="-1.19619">
        <ele>71.6</ele>
        <time>2020-01-26T08:05:59Z</time>
      </trkpt>
      <trkpt lat="45.78608" lon="-1.19623">
        <ele>72</ele>
        <time>2020-01-26T08:06:00Z</time>
      </trkpt>
      <trkpt lat="45.78607" lon="-1.19627">
        <ele>72</ele>
        <time>2020-01-26T08:06:01Z</time>
      </trkpt>
      <trkpt lat="45.78607" lon="-1.1963">
        <ele>72</ele>
        <time>2020-01-26T08:06:02Z</time>
      </trkpt>
      <trkpt lat="45.78607" lon="-1.19634">
        <ele>72</ele>
        <time>2020-01-26T08:06:03Z</time>
      </trkpt>
      <trkpt lat="45.78606" lon="-1.19637">
        <ele>72</ele>
        <time>2020-01-26T08:06:04Z</time>
      </trkpt>
      <trkpt lat="45.78606" lon="-1.19641">
        <ele>72</ele>
        <time>2020-01-26T08:06:05Z</time>
      </trkpt>
      <trkpt lat="45.78606" lon="-1.19645">
        <ele>72</ele>
        <time>2020-01-26T08:06:06Z</time>
      </trkpt>
      <trkpt lat="45.78606" lon="-1.19649">
        <ele>72</ele>
        <time>2020-01-26T08:06:07Z</time>
      </trkpt>
      <trkpt lat="45.78606" lon="-1.19652">
        <ele>72.2</ele>
        <time>2020-01-26T08:06:08Z</time>
      </trkpt>
      <trkpt lat="45.78606" lon="-1.19656">
        <ele>72.2</ele>
        <time>2020-01-26T08:06:09Z</time>
      </trkpt>
      <trkpt lat="45.78606" lon="-1.1966">
        <ele>72.4</ele>
        <time>2020-01-26T08:06:10Z</time>
      </trkpt>
      <trkpt lat="45.78606" lon="-1.19664">
        <ele>72.2</ele>
        <time>2020-01-26T08:06:11Z</time>
      </trkpt>
      <trkpt lat="45.78606" lon="-1.19668">
        <ele>72.2</ele>
        <time>2020-01-26T08:06:12Z</time>
      </trkpt>
      <trkpt lat="45.78607" lon="-1.19672">
        <ele>72.2</ele>
        <time>2020-01-26T08:06:13Z</time>
      </trkpt>
      <trkpt lat="45.78607" lon="-1.19676">
        <ele>72.2</ele>
        <time>2020-01-26T08:06:14Z</time>
      </trkpt>
      <trkpt lat="45.78607" lon="-1.19681">
        <ele>72.4</ele>
        <time>2020-01-26T08:06:15Z</time>
      </trkpt>
      <trkpt lat="45.78608" lon="-1.19685">
        <ele>72.6</ele>
        <time>2020-01-26T08:06:16Z</time>
      </trkpt>
      <trkpt lat="45.78608" lon="-1.19689">
        <ele>72.6</ele>
        <time>2020-01-26T08:06:17Z</time>
      </trkpt>
      <trkpt lat="45.78608" lon="-1.19693">
        <ele>73</ele>
        <time>2020-01-26T08:06:18Z</time>
      </trkpt>
      <trkpt lat="45.78609" lon="-1.19697">
        <ele>73.6</ele>
        <time>2020-01-26T08:06:19Z</time>
      </trkpt>
      <trkpt lat="45.78609" lon="-1.19701">
        <ele>73.8</ele>
        <time>2020-01-26T08:06:20Z</time>
      </trkpt>
      <trkpt lat="45.78609" lon="-1.19705">
        <ele>74.2</ele>
        <time>2020-01-26T08:06:21Z</time>
      </trkpt>
      <trkpt lat="45.78609" lon="-1.1971">
        <ele>74.4</ele>
        <time>2020-01-26T08:06:22Z</time>
      </trkpt>
      <trkpt lat="45.78609" lon="-1.19714">
        <ele>74.6</ele>
        <time>2020-01-26T08:06:23Z</time>
      </trkpt>
      <trkpt lat="45.78609" lon="-1.19718">
        <ele>75</ele>
        <time>2020-01-26T08:06:24Z</time>
      </trkpt>
      <trkpt lat="45.78609" lon="-1.19722">
        <ele>75.2</ele>
        <time>2020-01-26T08:06:25Z</time>
      </trkpt>
      <trkpt lat="45.7861" lon="-1.19726">
        <ele>75.4</ele>
        <time>2020-01-26T08:06:26Z</time>
      </trkpt>
      <trkpt lat="45.7861" lon="-1.1973">
        <ele>75.6</ele>
        <time>2020-01-26T08:06:27Z</time>
      </trkpt>
      <trkpt lat="45.78609" lon="-1.19734">
        <ele>75.6</ele>
        <time>2020-01-26T08:06:28Z</time>
      </trkpt>
      <trkpt lat="45.78609" lon="-1.19738">
        <ele>75.6</ele>
        <time>2020-01-26T08:06:29Z</time>
      </trkpt>
      <trkpt lat="45.78609" lon="-1.19742">
        <ele>75.8</ele>
        <time>2020-01-26T08:06:30Z</time>
      </trkpt>
      <trkpt lat="45.78609" lon="-1.19746">
        <ele>76.2</ele>
        <time>2020-01-26T08:06:31Z</time>
      </trkpt>
      <trkpt lat="45.78608" lon="-1.19751">
        <ele>76.2</ele>
        <time>2020-01-26T08:06:32Z</time>
      </trkpt>
      <trkpt lat="45.78608" lon="-1.19756">
        <ele>76.4</ele>
        <time>2020-01-26T08:06:33Z</time>
      </trkpt>
      <trkpt lat="45.78607" lon="-1.19761">
        <ele>76.6</ele>
        <time>2020-01-26T08:06:34Z</time>
      </trkpt>
      <trkpt lat="45.78605" lon="-1.19767">
        <ele>76.6</ele>
        <time>2020-01-26T08:06:35Z</time>
      </trkpt>
      <trkpt lat="45.78604" lon="-1.19773">
        <ele>76.4</ele>
        <time>2020-01-26T08:06:36Z</time>
      </trkpt>
      <trkpt lat="45.78602" lon="-1.19779">
        <ele>76.4</ele>
        <time>2020-01-26T08:06:37Z</time>
      </trkpt>
      <trkpt lat="45.786" lon="-1.19785">
        <ele>76.2</ele>
        <time>2020-01-26T08:06:38Z</time>
      </trkpt>
      <trkpt lat="45.78599" lon="-1.19792">
        <ele>76.2</ele>
        <time>2020-01-26T08:06:39Z</time>
      </trkpt>
      <trkpt lat="45.78596" lon="-1.19798">
        <ele>75.8</ele>
        <time>2020-01-26T08:06:40Z</time>
      </trkpt>
      <trkpt lat="45.78595" lon="-1.19804">
        <ele>75.6</ele>
        <time>2020-01-26T08:06:41Z</time>
      </trkpt>
      <trkpt lat="45.78593" lon="-1.19811">
        <ele>75.2</ele>
        <time>2020-01-26T08:06:42Z</time>
      </trkpt>
      <trkpt lat="45.78591" lon="-1.19817">
        <ele>75</ele>
        <time>2020-01-26T08:06:43Z</time>
      </trkpt>
      <trkpt lat="45.78589" lon="-1.19824">
        <ele>74.6</ele>
        <time>2020-01-26T08:06:44Z</time>
      </trkpt>
      <trkpt lat="45.78588" lon="-1.19831">
        <ele>74.6</ele>
        <time>2020-01-26T08:06:45Z</time>
      </trkpt>
      <trkpt lat="45.78585" lon="-1.19839">
        <ele>74.4</ele>
        <time>2020-01-26T08:06:46Z</time>
      </trkpt>
      <trkpt lat="45.78583" lon="-1.19846">
        <ele>74</ele>
        <time>2020-01-26T08:06:47Z</time>
      </trkpt>
      <trkpt lat="45.7858" lon="-1.19853">
        <ele>73.6</ele>
        <time>2020-01-26T08:06:48Z</time>
      </trkpt>
      <trkpt lat="45.78578" lon="-1.19861">
        <ele>73.2</ele>
        <time>2020-01-26T08:06:49Z</time>
      </trkpt>
      <trkpt lat="45.78576" lon="-1.19869">
        <ele>73</ele>
        <time>2020-01-26T08:06:50Z</time>
      </trkpt>
      <trkpt lat="45.78573" lon="-1.19876">
        <ele>72.8</ele>
        <time>2020-01-26T08:06:51Z</time>
      </trkpt>
      <trkpt lat="45.78571" lon="-1.19884">
        <ele>72.6</ele>
        <time>2020-01-26T08:06:52Z</time>
      </trkpt>
      <trkpt lat="45.78568" lon="-1.19893">
        <ele>72.4</ele>
        <time>2020-01-26T08:06:53Z</time>
      </trkpt>
      <trkpt lat="45.78564" lon="-1.199">
        <ele>72</ele>
        <time>2020-01-26T08:06:54Z</time>
      </trkpt>
      <trkpt lat="45.78561" lon="-1.19909">
        <ele>71.6</ele>
        <time>2020-01-26T08:06:55Z</time>
      </trkpt>
      <trkpt lat="45.78559" lon="-1.19918">
        <ele>71.2</ele>
        <time>2020-01-26T08:06:56Z</time>
      </trkpt>
      <trkpt lat="45.78556" lon="-1.19928">
        <ele>70.6</ele>
        <time>2020-01-26T08:06:57Z</time>
      </trkpt>
      <trkpt lat="45.78553" lon="-1.19937">
        <ele>70.2</ele>
        <time>2020-01-26T08:06:58Z</time>
      </trkpt>
      <trkpt lat="45.7855" lon="-1.19945">
        <ele>69.6</ele>
        <time>2020-01-26T08:06:59Z</time>
      </trkpt>
      <trkpt lat="45.78547" lon="-1.19953">
        <ele>69</ele>
        <time>2020-01-26T08:07:00Z</time>
      </trkpt>
      <trkpt lat="45.78542" lon="-1.19958">
        <ele>68.2</ele>
        <time>2020-01-26T08:07:01Z</time>
      </trkpt>
      <trkpt lat="45.78537" lon="-1.19961">
        <ele>67.4</ele>
        <time>2020-01-26T08:07:02Z</time>
      </trkpt>
      <trkpt lat="45.78532" lon="-1.19961">
        <ele>67</ele>
        <time>2020-01-26T08:07:03Z</time>
      </trkpt>
      <trkpt lat="45.78526" lon="-1.19961">
        <ele>66.6</ele>
        <time>2020-01-26T08:07:04Z</time>
      </trkpt>
      <trkpt lat="45.7852" lon="-1.1996">
        <ele>66.2</ele>
        <time>2020-01-26T08:07:05Z</time>
      </trkpt>
      <trkpt lat="45.78514" lon="-1.19961">
        <ele>65.8</ele>
        <time>2020-01-26T08:07:06Z</time>
      </trkpt>
      <trkpt lat="45.78508" lon="-1.19961">
        <ele>65.6</ele>
        <time>2020-01-26T08:07:07Z</time>
      </trkpt>
      <trkpt lat="45.78503" lon="-1.19962">
        <ele>65.4</ele>
        <time>2020-01-26T08:07:08Z</time>
      </trkpt>
      <trkpt lat="45.78497" lon="-1.19961">
        <ele>65</ele>
        <time>2020-01-26T08:07:09Z</time>
      </trkpt>
      <trkpt lat="45.78492" lon="-1.19963">
        <ele>65</ele>
        <time>2020-01-26T08:07:10Z</time>
      </trkpt>
      <trkpt lat="45.78487" lon="-1.19964">
        <ele>64.8</ele>
        <time>2020-01-26T08:07:11Z</time>
      </trkpt>
      <trkpt lat="45.78482" lon="-1.19965">
        <ele>64.6</ele>
        <time>2020-01-26T08:07:12Z</time>
      </trkpt>
      <trkpt lat="45.78477" lon="-1.19965">
        <ele>64.4</ele>
        <time>2020-01-26T08:07:13Z</time>
      </trkpt>
      <trkpt lat="45.78473" lon="-1.19965">
        <ele>64</ele>
        <time>2020-01-26T08:07:14Z</time>
      </trkpt>
      <trkpt lat="45.78467" lon="-1.19964">
        <ele>63.8</ele>
        <time>2020-01-26T08:07:15Z</time>
      </trkpt>
      <trkpt lat="45.78461" lon="-1.19964">
        <ele>63.4</ele>
        <time>2020-01-26T08:07:16Z</time>
      </trkpt>
      <trkpt lat="45.78454" lon="-1.19964">
        <ele>63.2</ele>
        <time>2020-01-26T08:07:17Z</time>
      </trkpt>
      <trkpt lat="45.78448" lon="-1.19962">
        <ele>63</ele>
        <time>2020-01-26T08:07:18Z</time>
      </trkpt>
      <trkpt lat="45.78443" lon="-1.1996">
        <ele>63</ele>
        <time>2020-01-26T08:07:19Z</time>
      </trkpt>
      <trkpt lat="45.78437" lon="-1.19957">
        <ele>62.8</ele>
        <time>2020-01-26T08:07:20Z</time>
      </trkpt>
      <trkpt lat="45.78432" lon="-1.19954">
        <ele>62.8</ele>
        <time>2020-01-26T08:07:21Z</time>
      </trkpt>
      <trkpt lat="45.78427" lon="-1.19951">
        <ele>62.8</ele>
        <time>2020-01-26T08:07:22Z</time>
      </trkpt>
      <trkpt lat="45.78422" lon="-1.19948">
        <ele>62.8</ele>
        <time>2020-01-26T08:07:23Z</time>
      </trkpt>
      <trkpt lat="45.78417" lon="-1.19946">
        <ele>62.6</ele>
        <time>2020-01-26T08:07:24Z</time>
      </trkpt>
      <trkpt lat="45.78412" lon="-1.19943">
        <ele>62.4</ele>
        <time>2020-01-26T08:07:25Z</time>
      </trkpt>
      <trkpt lat="45.78407" lon="-1.19942">
        <ele>61.6</ele>
        <time>2020-01-26T08:07:26Z</time>
      </trkpt>
      <trkpt lat="45.78401" lon="-1.19939">
        <ele>61.2</ele>
        <time>2020-01-26T08:07:27Z</time>
      </trkpt>
      <trkpt lat="45.78395" lon="-1.19937">
        <ele>61.4</ele>
        <time>2020-01-26T08:07:28Z</time>
      </trkpt>
      <trkpt lat="45.78388" lon="-1.19935">
        <ele>61.8</ele>
        <time>2020-01-26T08:07:29Z</time>
      </trkpt>
      <trkpt lat="45.78383" lon="-1.19932">
        <ele>62</ele>
        <time>2020-01-26T08:07:30Z</time>
      </trkpt>
      <trkpt lat="45.78378" lon="-1.1993">
        <ele>62.2</ele>
        <time>2020-01-26T08:07:31Z</time>
      </trkpt>
      <trkpt lat="45.78373" lon="-1.19928">
        <ele>62.6</ele>
        <time>2020-01-26T08:07:32Z</time>
      </trkpt>
      <trkpt lat="45.78369" lon="-1.19925">
        <ele>63</ele>
        <time>2020-01-26T08:07:33Z</time>
      </trkpt>
      <trkpt lat="45.78364" lon="-1.19923">
        <ele>63.2</ele>
        <time>2020-01-26T08:07:34Z</time>
      </trkpt>
      <trkpt lat="45.78358" lon="-1.19919">
        <ele>63.4</ele>
        <time>2020-01-26T08:07:35Z</time>
      </trkpt>
      <trkpt lat="45.78352" lon="-1.19916">
        <ele>63.6</ele>
        <time>2020-01-26T08:07:36Z</time>
      </trkpt>
      <trkpt lat="45.78347" lon="-1.19914">
        <ele>63.6</ele>
        <time>2020-01-26T08:07:37Z</time>
      </trkpt>
      <trkpt lat="45.78341" lon="-1.19911">
        <ele>63.6</ele>
        <time>2020-01-26T08:07:38Z</time>
      </trkpt>
      <trkpt lat="45.78335" lon="-1.19907">
        <ele>63.6</ele>
        <time>2020-01-26T08:07:39Z</time>
      </trkpt>
      <trkpt lat="45.78329" lon="-1.19904">
        <ele>63.8</ele>
        <time>2020-01-26T08:07:40Z</time>
      </trkpt>
      <trkpt lat="45.78322" lon="-1.19902">
        <ele>63.8</ele>
        <time>2020-01-26T08:07:41Z</time>
      </trkpt>
      <trkpt lat="45.78315" lon="-1.19897">
        <ele>63.8</ele>
        <time>2020-01-26T08:07:42Z</time>
      </trkpt>
      <trkpt lat="45.78308" lon="-1.19892">
        <ele>63.8</ele>
        <time>2020-01-26T08:07:43Z</time>
      </trkpt>
      <trkpt lat="45.78302" lon="-1.19889">
        <ele>63.8</ele>
        <time>2020-01-26T08:07:44Z</time>
      </trkpt>
      <trkpt lat="45.78296" lon="-1.19885">
        <ele>63.6</ele>
        <time>2020-01-26T08:07:45Z</time>
      </trkpt>
      <trkpt lat="45.78289" lon="-1.19881">
        <ele>63.4</ele>
        <time>2020-01-26T08:07:46Z</time>
      </trkpt>
      <trkpt lat="45.78283" lon="-1.19878">
        <ele>63.4</ele>
        <time>2020-01-26T08:07:47Z</time>
      </trkpt>
      <trkpt lat="45.78276" lon="-1.19874">
        <ele>63.8</ele>
        <time>2020-01-26T08:07:48Z</time>
      </trkpt>
      <trkpt lat="45.7827" lon="-1.1987">
        <ele>63.8</ele>
        <time>2020-01-26T08:07:49Z</time>
      </trkpt>
      <trkpt lat="45.78263" lon="-1.19868">
        <ele>63.8</ele>
        <time>2020-01-26T08:07:50Z</time>
      </trkpt>
      <trkpt lat="45.78257" lon="-1.19864">
        <ele>63.6</ele>
        <time>2020-01-26T08:07:51Z</time>
      </trkpt>
      <trkpt lat="45.78251" lon="-1.19861">
        <ele>63.4</ele>
        <time>2020-01-26T08:07:52Z</time>
      </trkpt>
      <trkpt lat="45.78244" lon="-1.19858">
        <ele>63</ele>
        <time>2020-01-26T08:07:53Z</time>
      </trkpt>
      <trkpt lat="45.78239" lon="-1.19856">
        <ele>62.6</ele>
        <time>2020-01-26T08:07:54Z</time>
      </trkpt>
      <trkpt lat="45.78234" lon="-1.19856">
        <ele>62.2</ele>
        <time>2020-01-26T08:07:55Z</time>
      </trkpt>
      <trkpt lat="45.78227" lon="-1.19858">
        <ele>62.4</ele>
        <time>2020-01-26T08:07:56Z</time>
      </trkpt>
      <trkpt lat="45.78221" lon="-1.19859">
        <ele>62.6</ele>
        <time>2020-01-26T08:07:57Z</time>
      </trkpt>
      <trkpt lat="45.78215" lon="-1.19859">
        <ele>62.6</ele>
        <time>2020-01-26T08:07:58Z</time>
      </trkpt>
      <trkpt lat="45.7821" lon="-1.19859">
        <ele>62.8</ele>
        <time>2020-01-26T08:07:59Z</time>
      </trkpt>
      <trkpt lat="45.78204" lon="-1.19858">
        <ele>62.8</ele>
        <time>2020-01-26T08:08:00Z</time>
      </trkpt>
      <trkpt lat="45.78198" lon="-1.19856">
        <ele>62.6</ele>
        <time>2020-01-26T08:08:01Z</time>
      </trkpt>
      <trkpt lat="45.78192" lon="-1.19852">
        <ele>62.4</ele>
        <time>2020-01-26T08:08:02Z</time>
      </trkpt>
      <trkpt lat="45.78188" lon="-1.19849">
        <ele>62.6</ele>
        <time>2020-01-26T08:08:03Z</time>
      </trkpt>
      <trkpt lat="45.78184" lon="-1.19844">
        <ele>61.8</ele>
        <time>2020-01-26T08:08:04Z</time>
      </trkpt>
      <trkpt lat="45.78181" lon="-1.19841">
        <ele>60.8</ele>
        <time>2020-01-26T08:08:05Z</time>
      </trkpt>
      <trkpt lat="45.78175" lon="-1.19836">
        <ele>60.2</ele>
        <time>2020-01-26T08:08:06Z</time>
      </trkpt>
      <trkpt lat="45.78169" lon="-1.19832">
        <ele>59.6</ele>
        <time>2020-01-26T08:08:07Z</time>
      </trkpt>
      <trkpt lat="45.78165" lon="-1.19827">
        <ele>58.4</ele>
        <time>2020-01-26T08:08:08Z</time>
      </trkpt>
      <trkpt lat="45.7816" lon="-1.19822">
        <ele>57.8</ele>
        <time>2020-01-26T08:08:09Z</time>
      </trkpt>
      <trkpt lat="45.78155" lon="-1.19819">
        <ele>57.6</ele>
        <time>2020-01-26T08:08:10Z</time>
      </trkpt>
      <trkpt lat="45.78152" lon="-1.19816">
        <ele>57.8</ele>
        <time>2020-01-26T08:08:11Z</time>
      </trkpt>
      <trkpt lat="45.78148" lon="-1.19813">
        <ele>58</ele>
        <time>2020-01-26T08:08:12Z</time>
      </trkpt>
      <trkpt lat="45.78145" lon="-1.19811">
        <ele>58</ele>
        <time>2020-01-26T08:08:13Z</time>
      </trkpt>
      <trkpt lat="45.78143" lon="-1.19809">
        <ele>58</ele>
        <time>2020-01-26T08:08:14Z</time>
      </trkpt>
      <trkpt lat="45.78141" lon="-1.19806">
        <ele>58.2</ele>
        <time>2020-01-26T08:08:15Z</time>
      </trkpt>
      <trkpt lat="45.78139" lon="-1.19803">
        <ele>58.2</ele>
        <time>2020-01-26T08:08:16Z</time>
      </trkpt>
      <trkpt lat="45.78136" lon="-1.19799">
        <ele>58.2</ele>
        <time>2020-01-26T08:08:17Z</time>
      </trkpt>
      <trkpt lat="45.78133" lon="-1.19797">
        <ele>58</ele>
        <time>2020-01-26T08:08:18Z</time>
      </trkpt>
      <trkpt lat="45.78129" lon="-1.19794">
        <ele>57.8</ele>
        <time>2020-01-26T08:08:19Z</time>
      </trkpt>
      <trkpt lat="45.78125" lon="-1.19791">
        <ele>57.6</ele>
        <time>2020-01-26T08:08:20Z</time>
      </trkpt>
      <trkpt lat="45.7812" lon="-1.19787">
        <ele>57.2</ele>
        <time>2020-01-26T08:08:21Z</time>
      </trkpt>
      <trkpt lat="45.78115" lon="-1.19784">
        <ele>56.6</ele>
        <time>2020-01-26T08:08:22Z</time>
      </trkpt>
      <trkpt lat="45.7811" lon="-1.19781">
        <ele>56.2</ele>
        <time>2020-01-26T08:08:23Z</time>
      </trkpt>
      <trkpt lat="45.78106" lon="-1.19778">
        <ele>55.6</ele>
        <time>2020-01-26T08:08:24Z</time>
      </trkpt>
      <trkpt lat="45.78103" lon="-1.19776">
        <ele>55.2</ele>
        <time>2020-01-26T08:08:25Z</time>
      </trkpt>
      <trkpt lat="45.78099" lon="-1.19774">
        <ele>55</ele>
        <time>2020-01-26T08:08:26Z</time>
      </trkpt>
      <trkpt lat="45.78094" lon="-1.19773">
        <ele>54.6</ele>
        <time>2020-01-26T08:08:27Z</time>
      </trkpt>
      <trkpt lat="45.78088" lon="-1.19769">
        <ele>54.6</ele>
        <time>2020-01-26T08:08:28Z</time>
      </trkpt>
      <trkpt lat="45.78082" lon="-1.19766">
        <ele>54.4</ele>
        <time>2020-01-26T08:08:29Z</time>
      </trkpt>
      <trkpt lat="45.78077" lon="-1.19765">
        <ele>54.6</ele>
        <time>2020-01-26T08:08:30Z</time>
      </trkpt>
      <trkpt lat="45.78071" lon="-1.19762">
        <ele>54.6</ele>
        <time>2020-01-26T08:08:31Z</time>
      </trkpt>
      <trkpt lat="45.78065" lon="-1.1976">
        <ele>54.6</ele>
        <time>2020-01-26T08:08:32Z</time>
      </trkpt>
      <trkpt lat="45.7806" lon="-1.19758">
        <ele>54.6</ele>
        <time>2020-01-26T08:08:33Z</time>
      </trkpt>
      <trkpt lat="45.78056" lon="-1.19755">
        <ele>54.6</ele>
        <time>2020-01-26T08:08:34Z</time>
      </trkpt>
      <trkpt lat="45.78051" lon="-1.19753">
        <ele>54.6</ele>
        <time>2020-01-26T08:08:35Z</time>
      </trkpt>
      <trkpt lat="45.78046" lon="-1.19752">
        <ele>54.4</ele>
        <time>2020-01-26T08:08:36Z</time>
      </trkpt>
      <trkpt lat="45.78042" lon="-1.19751">
        <ele>54.4</ele>
        <time>2020-01-26T08:08:37Z</time>
      </trkpt>
      <trkpt lat="45.78037" lon="-1.1975">
        <ele>54.8</ele>
        <time>2020-01-26T08:08:38Z</time>
      </trkpt>
      <trkpt lat="45.78033" lon="-1.19749">
        <ele>55</ele>
        <time>2020-01-26T08:08:39Z</time>
      </trkpt>
      <trkpt lat="45.7803" lon="-1.19749">
        <ele>55</ele>
        <time>2020-01-26T08:08:40Z</time>
      </trkpt>
      <trkpt lat="45.78025" lon="-1.19748">
        <ele>55</ele>
        <time>2020-01-26T08:08:41Z</time>
      </trkpt>
      <trkpt lat="45.7802" lon="-1.19747">
        <ele>54.8</ele>
        <time>2020-01-26T08:08:42Z</time>
      </trkpt>
      <trkpt lat="45.78016" lon="-1.19747">
        <ele>54.6</ele>
        <time>2020-01-26T08:08:43Z</time>
      </trkpt>
      <trkpt lat="45.78011" lon="-1.19748">
        <ele>54.4</ele>
        <time>2020-01-26T08:08:44Z</time>
      </trkpt>
      <trkpt lat="45.78006" lon="-1.19749">
        <ele>54.4</ele>
        <time>2020-01-26T08:08:45Z</time>
      </trkpt>
      <trkpt lat="45.78001" lon="-1.19753">
        <ele>54.2</ele>
        <time>2020-01-26T08:08:46Z</time>
      </trkpt>
      <trkpt lat="45.77996" lon="-1.19756">
        <ele>54.2</ele>
        <time>2020-01-26T08:08:47Z</time>
      </trkpt>
      <trkpt lat="45.77992" lon="-1.19759">
        <ele>54.4</ele>
        <time>2020-01-26T08:08:48Z</time>
      </trkpt>
      <trkpt lat="45.77988" lon="-1.19764">
        <ele>54.6</ele>
        <time>2020-01-26T08:08:49Z</time>
      </trkpt>
      <trkpt lat="45.77982" lon="-1.19768">
        <ele>54.6</ele>
        <time>2020-01-26T08:08:50Z</time>
      </trkpt>
      <trkpt lat="45.77979" lon="-1.19771">
        <ele>55</ele>
        <time>2020-01-26T08:08:51Z</time>
      </trkpt>
      <trkpt lat="45.77973" lon="-1.19776">
        <ele>55</ele>
        <time>2020-01-26T08:08:52Z</time>
      </trkpt>
      <trkpt lat="45.77968" lon="-1.19781">
        <ele>55.2</ele>
        <time>2020-01-26T08:08:53Z</time>
      </trkpt>
      <trkpt lat="45.77963" lon="-1.19785">
        <ele>55.4</ele>
        <time>2020-01-26T08:08:54Z</time>
      </trkpt>
      <trkpt lat="45.77958" lon="-1.19789">
        <ele>55.8</ele>
        <time>2020-01-26T08:08:55Z</time>
      </trkpt>
      <trkpt lat="45.77954" lon="-1.19791">
        <ele>56.2</ele>
        <time>2020-01-26T08:08:56Z</time>
      </trkpt>
      <trkpt lat="45.7795" lon="-1.19794">
        <ele>56.4</ele>
        <time>2020-01-26T08:08:57Z</time>
      </trkpt>
      <trkpt lat="45.77945" lon="-1.19797">
        <ele>56.6</ele>
        <time>2020-01-26T08:08:58Z</time>
      </trkpt>
      <trkpt lat="45.7794" lon="-1.19799">
        <ele>57</ele>
        <time>2020-01-26T08:08:59Z</time>
      </trkpt>
      <trkpt lat="45.77937" lon="-1.198">
        <ele>57.4</ele>
        <time>2020-01-26T08:09:00Z</time>
      </trkpt>
      <trkpt lat="45.77932" lon="-1.198">
        <ele>57.6</ele>
        <time>2020-01-26T08:09:01Z</time>
      </trkpt>
      <trkpt lat="45.77928" lon="-1.19799">
        <ele>58</ele>
        <time>2020-01-26T08:09:02Z</time>
      </trkpt>
      <trkpt lat="45.77924" lon="-1.19795">
        <ele>58.4</ele>
        <time>2020-01-26T08:09:03Z</time>
      </trkpt>
      <trkpt lat="45.77918" lon="-1.19794">
        <ele>58.8</ele>
        <time>2020-01-26T08:09:04Z</time>
      </trkpt>
      <trkpt lat="45.77913" lon="-1.19793">
        <ele>59.4</ele>
        <time>2020-01-26T08:09:05Z</time>
      </trkpt>
      <trkpt lat="45.77909" lon="-1.19793">
        <ele>59.8</ele>
        <time>2020-01-26T08:09:06Z</time>
      </trkpt>
      <trkpt lat="45.77904" lon="-1.19793">
        <ele>59.8</ele>
        <time>2020-01-26T08:09:07Z</time>
      </trkpt>
      <trkpt lat="45.77898" lon="-1.19792">
        <ele>59.6</ele>
        <time>2020-01-26T08:09:08Z</time>
      </trkpt>
      <trkpt lat="45.77893" lon="-1.19792">
        <ele>59</ele>
        <time>2020-01-26T08:09:09Z</time>
      </trkpt>
      <trkpt lat="45.77886" lon="-1.1979">
        <ele>58.4</ele>
        <time>2020-01-26T08:09:10Z</time>
      </trkpt>
      <trkpt lat="45.7788" lon="-1.19789">
        <ele>58.4</ele>
        <time>2020-01-26T08:09:11Z</time>
      </trkpt>
      <trkpt lat="45.77874" lon="-1.19788">
        <ele>58.6</ele>
        <time>2020-01-26T08:09:12Z</time>
      </trkpt>
      <trkpt lat="45.77868" lon="-1.19787">
        <ele>58.6</ele>
        <time>2020-01-26T08:09:13Z</time>
      </trkpt>
      <trkpt lat="45.77862" lon="-1.19787">
        <ele>58.8</ele>
        <time>2020-01-26T08:09:14Z</time>
      </trkpt>
      <trkpt lat="45.77857" lon="-1.19786">
        <ele>58.8</ele>
        <time>2020-01-26T08:09:15Z</time>
      </trkpt>
      <trkpt lat="45.7785" lon="-1.19784">
        <ele>58.6</ele>
        <time>2020-01-26T08:09:16Z</time>
      </trkpt>
      <trkpt lat="45.77845" lon="-1.19784">
        <ele>59</ele>
        <time>2020-01-26T08:09:17Z</time>
      </trkpt>
      <trkpt lat="45.7784" lon="-1.19783">
        <ele>59.4</ele>
        <time>2020-01-26T08:09:18Z</time>
      </trkpt>
      <trkpt lat="45.77835" lon="-1.19783">
        <ele>59.6</ele>
        <time>2020-01-26T08:09:19Z</time>
      </trkpt>
      <trkpt lat="45.7783" lon="-1.19783">
        <ele>59.4</ele>
        <time>2020-01-26T08:09:20Z</time>
      </trkpt>
      <trkpt lat="45.77825" lon="-1.19783">
        <ele>59.2</ele>
        <time>2020-01-26T08:09:21Z</time>
      </trkpt>
      <trkpt lat="45.7782" lon="-1.19784">
        <ele>58.8</ele>
        <time>2020-01-26T08:09:22Z</time>
      </trkpt>
      <trkpt lat="45.77815" lon="-1.19784">
        <ele>58.2</ele>
        <time>2020-01-26T08:09:23Z</time>
      </trkpt>
      <trkpt lat="45.7781" lon="-1.19784">
        <ele>57.6</ele>
        <time>2020-01-26T08:09:24Z</time>
      </trkpt>
      <trkpt lat="45.77805" lon="-1.19786">
        <ele>57.2</ele>
        <time>2020-01-26T08:09:25Z</time>
      </trkpt>
      <trkpt lat="45.77801" lon="-1.19788">
        <ele>57</ele>
        <time>2020-01-26T08:09:26Z</time>
      </trkpt>
      <trkpt lat="45.77798" lon="-1.19795">
        <ele>57</ele>
        <time>2020-01-26T08:09:27Z</time>
      </trkpt>
      <trkpt lat="45.77797" lon="-1.19801">
        <ele>57</ele>
        <time>2020-01-26T08:09:28Z</time>
      </trkpt>
      <trkpt lat="45.77796" lon="-1.19807">
        <ele>57.6</ele>
        <time>2020-01-26T08:09:29Z</time>
      </trkpt>
      <trkpt lat="45.77796" lon="-1.19813">
        <ele>58</ele>
        <time>2020-01-26T08:09:30Z</time>
      </trkpt>
      <trkpt lat="45.77796" lon="-1.19818">
        <ele>58.2</ele>
        <time>2020-01-26T08:09:31Z</time>
      </trkpt>
      <trkpt lat="45.77797" lon="-1.19823">
        <ele>58.4</ele>
        <time>2020-01-26T08:09:32Z</time>
      </trkpt>
      <trkpt lat="45.77799" lon="-1.19827">
        <ele>58.2</ele>
        <time>2020-01-26T08:09:33Z</time>
      </trkpt>
      <trkpt lat="45.778" lon="-1.1983">
        <ele>58.2</ele>
        <time>2020-01-26T08:09:34Z</time>
      </trkpt>
      <trkpt lat="45.77801" lon="-1.19833">
        <ele>58.4</ele>
        <time>2020-01-26T08:09:35Z</time>
      </trkpt>
      <trkpt lat="45.77803" lon="-1.19835">
        <ele>58.8</ele>
        <time>2020-01-26T08:09:36Z</time>
      </trkpt>
      <trkpt lat="45.77803" lon="-1.19836">
        <ele>58.8</ele>
        <time>2020-01-26T08:09:37Z</time>
      </trkpt>
      <trkpt lat="45.77805" lon="-1.19838">
        <ele>59</ele>
        <time>2020-01-26T08:09:38Z</time>
      </trkpt>
      <trkpt lat="45.77806" lon="-1.19839">
        <ele>59.2</ele>
        <time>2020-01-26T08:09:39Z</time>
      </trkpt>
      <trkpt lat="45.77808" lon="-1.19841">
        <ele>59.6</ele>
        <time>2020-01-26T08:09:40Z</time>
      </trkpt>
      <trkpt lat="45.77809" lon="-1.19841">
        <ele>60</ele>
        <time>2020-01-26T08:09:41Z</time>
      </trkpt>
      <trkpt lat="45.7781" lon="-1.19842">
        <ele>60.6</ele>
        <time>2020-01-26T08:09:42Z</time>
      </trkpt>
      <trkpt lat="45.77811" lon="-1.19842">
        <ele>61</ele>
        <time>2020-01-26T08:09:43Z</time>
      </trkpt>
      <trkpt lat="45.77813" lon="-1.19842">
        <ele>61.8</ele>
        <time>2020-01-26T08:09:44Z</time>
      </trkpt>
      <trkpt lat="45.77815" lon="-1.19842">
        <ele>62.6</ele>
        <time>2020-01-26T08:09:45Z</time>
      </trkpt>
      <trkpt lat="45.77817" lon="-1.19841">
        <ele>63.4</ele>
        <time>2020-01-26T08:09:46Z</time>
      </trkpt>
      <trkpt lat="45.77819" lon="-1.19839">
        <ele>64.6</ele>
        <time>2020-01-26T08:09:47Z</time>
      </trkpt>
      <trkpt lat="45.77821" lon="-1.19837">
        <ele>65.8</ele>
        <time>2020-01-26T08:09:48Z</time>
      </trkpt>
      <trkpt lat="45.77822" lon="-1.19836">
        <ele>66.6</ele>
        <time>2020-01-26T08:09:49Z</time>
      </trkpt>
      <trkpt lat="45.77824" lon="-1.19835">
        <ele>67.4</ele>
        <time>2020-01-26T08:09:50Z</time>
      </trkpt>
      <trkpt lat="45.77827" lon="-1.19834">
        <ele>68.4</ele>
        <time>2020-01-26T08:09:51Z</time>
      </trkpt>
      <trkpt lat="45.77829" lon="-1.19833">
        <ele>69.2</ele>
        <time>2020-01-26T08:09:52Z</time>
      </trkpt>
      <trkpt lat="45.77831" lon="-1.19833">
        <ele>69.8</ele>
        <time>2020-01-26T08:09:53Z</time>
      </trkpt>
      <trkpt lat="45.77833" lon="-1.19834">
        <ele>70.8</ele>
        <time>2020-01-26T08:09:54Z</time>
      </trkpt>
      <trkpt lat="45.77835" lon="-1.19836">
        <ele>71</ele>
        <time>2020-01-26T08:09:55Z</time>
      </trkpt>
      <trkpt lat="45.77837" lon="-1.19836">
        <ele>71</ele>
        <time>2020-01-26T08:09:56Z</time>
      </trkpt>
      <trkpt lat="45.7784" lon="-1.19838">
        <ele>70.8</ele>
        <time>2020-01-26T08:09:57Z</time>
      </trkpt>
      <trkpt lat="45.77841" lon="-1.19839">
        <ele>70.8</ele>
        <time>2020-01-26T08:09:58Z</time>
      </trkpt>
      <trkpt lat="45.77843" lon="-1.19841">
        <ele>70.8</ele>
        <time>2020-01-26T08:09:59Z</time>
      </trkpt>
      <trkpt lat="45.77845" lon="-1.19843">
        <ele>70.8</ele>
        <time>2020-01-26T08:10:00Z</time>
      </trkpt>
      <trkpt lat="45.77846" lon="-1.19844">
        <ele>70.6</ele>
        <time>2020-01-26T08:10:01Z</time>
      </trkpt>
      <trkpt lat="45.77847" lon="-1.19846">
        <ele>70</ele>
        <time>2020-01-26T08:10:02Z</time>
      </trkpt>
      <trkpt lat="45.77848" lon="-1.19848">
        <ele>69.2</ele>
        <time>2020-01-26T08:10:03Z</time>
      </trkpt>
      <trkpt lat="45.7785" lon="-1.19851">
        <ele>69</ele>
        <time>2020-01-26T08:10:04Z</time>
      </trkpt>
      <trkpt lat="45.77851" lon="-1.19853">
        <ele>68.6</ele>
        <time>2020-01-26T08:10:05Z</time>
      </trkpt>
      <trkpt lat="45.77853" lon="-1.19855">
        <ele>68.2</ele>
        <time>2020-01-26T08:10:06Z</time>
      </trkpt>
      <trkpt lat="45.77853" lon="-1.19857">
        <ele>68</ele>
        <time>2020-01-26T08:10:07Z</time>
      </trkpt>
      <trkpt lat="45.77854" lon="-1.19859">
        <ele>67.4</ele>
        <time>2020-01-26T08:10:08Z</time>
      </trkpt>
      <trkpt lat="45.77855" lon="-1.19861">
        <ele>67</ele>
        <time>2020-01-26T08:10:09Z</time>
      </trkpt>
      <trkpt lat="45.77856" lon="-1.19863">
        <ele>66.8</ele>
        <time>2020-01-26T08:10:10Z</time>
      </trkpt>
      <trkpt lat="45.77856" lon="-1.19867">
        <ele>66</ele>
        <time>2020-01-26T08:10:11Z</time>
      </trkpt>
      <trkpt lat="45.77856" lon="-1.19869">
        <ele>65.8</ele>
        <time>2020-01-26T08:10:12Z</time>
      </trkpt>
      <trkpt lat="45.77856" lon="-1.19872">
        <ele>65.6</ele>
        <time>2020-01-26T08:10:13Z</time>
      </trkpt>
      <trkpt lat="45.77858" lon="-1.19875">
        <ele>65.8</ele>
        <time>2020-01-26T08:10:14Z</time>
      </trkpt>
      <trkpt lat="45.77858" lon="-1.19879">
        <ele>66</ele>
        <time>2020-01-26T08:10:15Z</time>
      </trkpt>
      <trkpt lat="45.77858" lon="-1.19882">
        <ele>66.6</ele>
        <time>2020-01-26T08:10:16Z</time>
      </trkpt>
      <trkpt lat="45.77858" lon="-1.19885">
        <ele>67</ele>
        <time>2020-01-26T08:10:17Z</time>
      </trkpt>
      <trkpt lat="45.77858" lon="-1.19888">
        <ele>67.8</ele>
        <time>2020-01-26T08:10:18Z</time>
      </trkpt>
      <trkpt lat="45.77859" lon="-1.19892">
        <ele>68.6</ele>
        <time>2020-01-26T08:10:19Z</time>
      </trkpt>
      <trkpt lat="45.77859" lon="-1.19895">
        <ele>69</ele>
        <time>2020-01-26T08:10:20Z</time>
      </trkpt>
      <trkpt lat="45.7786" lon="-1.19899">
        <ele>69.2</ele>
        <time>2020-01-26T08:10:21Z</time>
      </trkpt>
      <trkpt lat="45.77862" lon="-1.19902">
        <ele>69.6</ele>
        <time>2020-01-26T08:10:22Z</time>
      </trkpt>
      <trkpt lat="45.77863" lon="-1.19907">
        <ele>70.2</ele>
        <time>2020-01-26T08:10:23Z</time>
      </trkpt>
      <trkpt lat="45.77864" lon="-1.19913">
        <ele>70.4</ele>
        <time>2020-01-26T08:10:24Z</time>
      </trkpt>
      <trkpt lat="45.77864" lon="-1.19919">
        <ele>70.2</ele>
        <time>2020-01-26T08:10:25Z</time>
      </trkpt>
      <trkpt lat="45.77866" lon="-1.19924">
        <ele>70</ele>
        <time>2020-01-26T08:10:26Z</time>
      </trkpt>
      <trkpt lat="45.77869" lon="-1.19929">
        <ele>69.2</ele>
        <time>2020-01-26T08:10:27Z</time>
      </trkpt>
      <trkpt lat="45.7787" lon="-1.19934">
        <ele>69</ele>
        <time>2020-01-26T08:10:28Z</time>
      </trkpt>
      <trkpt lat="45.77872" lon="-1.19939">
        <ele>69</ele>
        <time>2020-01-26T08:10:29Z</time>
      </trkpt>
      <trkpt lat="45.77873" lon="-1.19944">
        <ele>68.8</ele>
        <time>2020-01-26T08:10:30Z</time>
      </trkpt>
      <trkpt lat="45.77874" lon="-1.19948">
        <ele>68.8</ele>
        <time>2020-01-26T08:10:31Z</time>
      </trkpt>
      <trkpt lat="45.77876" lon="-1.19953">
        <ele>68.8</ele>
        <time>2020-01-26T08:10:32Z</time>
      </trkpt>
      <trkpt lat="45.77877" lon="-1.19957">
        <ele>68.6</ele>
        <time>2020-01-26T08:10:33Z</time>
      </trkpt>
      <trkpt lat="45.77878" lon="-1.19963">
        <ele>68.2</ele>
        <time>2020-01-26T08:10:34Z</time>
      </trkpt>
      <trkpt lat="45.77879" lon="-1.19969">
        <ele>67.8</ele>
        <time>2020-01-26T08:10:35Z</time>
      </trkpt>
      <trkpt lat="45.7788" lon="-1.19974">
        <ele>67.4</ele>
        <time>2020-01-26T08:10:36Z</time>
      </trkpt>
      <trkpt lat="45.77881" lon="-1.19979">
        <ele>66.8</ele>
        <time>2020-01-26T08:10:37Z</time>
      </trkpt>
      <trkpt lat="45.77882" lon="-1.19985">
        <ele>66.4</ele>
        <time>2020-01-26T08:10:38Z</time>
      </trkpt>
      <trkpt lat="45.77884" lon="-1.19991">
        <ele>65.6</ele>
        <time>2020-01-26T08:10:39Z</time>
      </trkpt>
      <trkpt lat="45.77885" lon="-1.19997">
        <ele>64.8</ele>
        <time>2020-01-26T08:10:40Z</time>
      </trkpt>
      <trkpt lat="45.77887" lon="-1.20004">
        <ele>64</ele>
        <time>2020-01-26T08:10:41Z</time>
      </trkpt>
      <trkpt lat="45.77888" lon="-1.20011">
        <ele>63.6</ele>
        <time>2020-01-26T08:10:42Z</time>
      </trkpt>
      <trkpt lat="45.7789" lon="-1.20019">
        <ele>62.8</ele>
        <time>2020-01-26T08:10:43Z</time>
      </trkpt>
      <trkpt lat="45.77892" lon="-1.20027">
        <ele>62.4</ele>
        <time>2020-01-26T08:10:44Z</time>
      </trkpt>
      <trkpt lat="45.77894" lon="-1.20035">
        <ele>62</ele>
        <time>2020-01-26T08:10:45Z</time>
      </trkpt>
      <trkpt lat="45.77894" lon="-1.20042">
        <ele>62</ele>
        <time>2020-01-26T08:10:46Z</time>
      </trkpt>
      <trkpt lat="45.77896" lon="-1.2005">
        <ele>61.8</ele>
        <time>2020-01-26T08:10:47Z</time>
      </trkpt>
      <trkpt lat="45.77898" lon="-1.20056">
        <ele>61.8</ele>
        <time>2020-01-26T08:10:48Z</time>
      </trkpt>
      <trkpt lat="45.77897" lon="-1.20064">
        <ele>61.8</ele>
        <time>2020-01-26T08:10:49Z</time>
      </trkpt>
      <trkpt lat="45.77897" lon="-1.20071">
        <ele>62</ele>
        <time>2020-01-26T08:10:50Z</time>
      </trkpt>
      <trkpt lat="45.77898" lon="-1.20077">
        <ele>62</ele>
        <time>2020-01-26T08:10:51Z</time>
      </trkpt>
      <trkpt lat="45.77899" lon="-1.20085">
        <ele>62</ele>
        <time>2020-01-26T08:10:52Z</time>
      </trkpt>
      <trkpt lat="45.77898" lon="-1.20092">
        <ele>62</ele>
        <time>2020-01-26T08:10:53Z</time>
      </trkpt>
      <trkpt lat="45.77899" lon="-1.20098">
        <ele>62</ele>
        <time>2020-01-26T08:10:54Z</time>
      </trkpt>
      <trkpt lat="45.77899" lon="-1.20105">
        <ele>61.8</ele>
        <time>2020-01-26T08:10:55Z</time>
      </trkpt>
      <trkpt lat="45.77898" lon="-1.20113">
        <ele>61.4</ele>
        <time>2020-01-26T08:10:56Z</time>
      </trkpt>
      <trkpt lat="45.77898" lon="-1.20122">
        <ele>61.2</ele>
        <time>2020-01-26T08:10:57Z</time>
      </trkpt>
      <trkpt lat="45.77898" lon="-1.2013">
        <ele>60.8</ele>
        <time>2020-01-26T08:10:58Z</time>
      </trkpt>
      <trkpt lat="45.77898" lon="-1.2014">
        <ele>60.6</ele>
        <time>2020-01-26T08:10:59Z</time>
      </trkpt>
      <trkpt lat="45.77899" lon="-1.20149">
        <ele>60.8</ele>
        <time>2020-01-26T08:11:00Z</time>
      </trkpt>
      <trkpt lat="45.77899" lon="-1.20159">
        <ele>60.8</ele>
        <time>2020-01-26T08:11:01Z</time>
      </trkpt>
      <trkpt lat="45.779" lon="-1.20169">
        <ele>61.2</ele>
        <time>2020-01-26T08:11:02Z</time>
      </trkpt>
      <trkpt lat="45.77899" lon="-1.20178">
        <ele>61</ele>
        <time>2020-01-26T08:11:03Z</time>
      </trkpt>
      <trkpt lat="45.77898" lon="-1.20186">
        <ele>60.8</ele>
        <time>2020-01-26T08:11:04Z</time>
      </trkpt>
      <trkpt lat="45.77898" lon="-1.20191">
        <ele>60.8</ele>
        <time>2020-01-26T08:11:05Z</time>
      </trkpt>
      <trkpt lat="45.77897" lon="-1.20198">
        <ele>60.8</ele>
        <time>2020-01-26T08:11:06Z</time>
      </trkpt>
      <trkpt lat="45.77897" lon="-1.20204">
        <ele>60.6</ele>
        <time>2020-01-26T08:11:07Z</time>
      </trkpt>
      <trkpt lat="45.77895" lon="-1.2021">
        <ele>60.2</ele>
        <time>2020-01-26T08:11:08Z</time>
      </trkpt>
      <trkpt lat="45.77893" lon="-1.20215">
        <ele>59.4</ele>
        <time>2020-01-26T08:11:09Z</time>
      </trkpt>
      <trkpt lat="45.77893" lon="-1.20221">
        <ele>58.8</ele>
        <time>2020-01-26T08:11:10Z</time>
      </trkpt>
      <trkpt lat="45.77893" lon="-1.20226">
        <ele>58</ele>
        <time>2020-01-26T08:11:11Z</time>
      </trkpt>
      <trkpt lat="45.77894" lon="-1.2023">
        <ele>56.8</ele>
        <time>2020-01-26T08:11:12Z</time>
      </trkpt>
      <trkpt lat="45.77896" lon="-1.20234">
        <ele>56.2</ele>
        <time>2020-01-26T08:11:13Z</time>
      </trkpt>
      <trkpt lat="45.77898" lon="-1.20236">
        <ele>55.8</ele>
        <time>2020-01-26T08:11:14Z</time>
      </trkpt>
      <trkpt lat="45.779" lon="-1.20237">
        <ele>56.2</ele>
        <time>2020-01-26T08:11:15Z</time>
      </trkpt>
      <trkpt lat="45.77901" lon="-1.20237">
        <ele>57</ele>
        <time>2020-01-26T08:11:16Z</time>
      </trkpt>
      <trkpt lat="45.77903" lon="-1.20237">
        <ele>57.8</ele>
        <time>2020-01-26T08:11:17Z</time>
      </trkpt>
      <trkpt lat="45.77904" lon="-1.20237">
        <ele>58.6</ele>
        <time>2020-01-26T08:11:18Z</time>
      </trkpt>
      <trkpt lat="45.77905" lon="-1.20236">
        <ele>59.4</ele>
        <time>2020-01-26T08:11:19Z</time>
      </trkpt>
      <trkpt lat="45.77906" lon="-1.20236">
        <ele>60.4</ele>
        <time>2020-01-26T08:11:20Z</time>
      </trkpt>
      <trkpt lat="45.77907" lon="-1.20236">
        <ele>61</ele>
        <time>2020-01-26T08:11:21Z</time>
      </trkpt>
      <trkpt lat="45.7791" lon="-1.20237">
        <ele>61.8</ele>
        <time>2020-01-26T08:11:22Z</time>
      </trkpt>
      <trkpt lat="45.77911" lon="-1.20236">
        <ele>62.8</ele>
        <time>2020-01-26T08:11:23Z</time>
      </trkpt>
      <trkpt lat="45.77912" lon="-1.20236">
        <ele>63.6</ele>
        <time>2020-01-26T08:11:24Z</time>
      </trkpt>
      <trkpt lat="45.77913" lon="-1.20236">
        <ele>64.4</ele>
        <time>2020-01-26T08:11:25Z</time>
      </trkpt>
      <trkpt lat="45.77914" lon="-1.20236">
        <ele>65.2</ele>
        <time>2020-01-26T08:11:26Z</time>
      </trkpt>
      <trkpt lat="45.77916" lon="-1.20236">
        <ele>66.2</ele>
        <time>2020-01-26T08:11:27Z</time>
      </trkpt>
      <trkpt lat="45.77917" lon="-1.20236">
        <ele>67.2</ele>
        <time>2020-01-26T08:11:28Z</time>
      </trkpt>
      <trkpt lat="45.77919" lon="-1.20237">
        <ele>67.6</ele>
        <time>2020-01-26T08:11:29Z</time>
      </trkpt>
      <trkpt lat="45.77921" lon="-1.20238">
        <ele>68</ele>
        <time>2020-01-26T08:11:30Z</time>
      </trkpt>
      <trkpt lat="45.77922" lon="-1.20238">
        <ele>68.2</ele>
        <time>2020-01-26T08:11:31Z</time>
      </trkpt>
      <trkpt lat="45.77923" lon="-1.20238">
        <ele>68.2</ele>
        <time>2020-01-26T08:11:32Z</time>
      </trkpt>
      <trkpt lat="45.77925" lon="-1.20238">
        <ele>68.8</ele>
        <time>2020-01-26T08:11:33Z</time>
      </trkpt>
      <trkpt lat="45.77926" lon="-1.20239">
        <ele>69.2</ele>
        <time>2020-01-26T08:11:34Z</time>
      </trkpt>
      <trkpt lat="45.77928" lon="-1.20239">
        <ele>69.4</ele>
        <time>2020-01-26T08:11:35Z</time>
      </trkpt>
      <trkpt lat="45.77929" lon="-1.20239">
        <ele>69.8</ele>
        <time>2020-01-26T08:11:36Z</time>
      </trkpt>
      <trkpt lat="45.77931" lon="-1.20239">
        <ele>70.4</ele>
        <time>2020-01-26T08:11:37Z</time>
      </trkpt>
      <trkpt lat="45.77933" lon="-1.20239">
        <ele>70.8</ele>
        <time>2020-01-26T08:11:38Z</time>
      </trkpt>
      <trkpt lat="45.77934" lon="-1.2024">
        <ele>71.4</ele>
        <time>2020-01-26T08:11:39Z</time>
      </trkpt>
      <trkpt lat="45.77935" lon="-1.20239">
        <ele>71.8</ele>
        <time>2020-01-26T08:11:40Z</time>
      </trkpt>
      <trkpt lat="45.77937" lon="-1.20239">
        <ele>72.2</ele>
        <time>2020-01-26T08:11:41Z</time>
      </trkpt>
      <trkpt lat="45.77938" lon="-1.20239">
        <ele>72.6</ele>
        <time>2020-01-26T08:11:42Z</time>
      </trkpt>
      <trkpt lat="45.7794" lon="-1.20239">
        <ele>73</ele>
        <time>2020-01-26T08:11:43Z</time>
      </trkpt>
      <trkpt lat="45.77942" lon="-1.20239">
        <ele>73.4</ele>
        <time>2020-01-26T08:11:44Z</time>
      </trkpt>
      <trkpt lat="45.77943" lon="-1.20241">
        <ele>73.6</ele>
        <time>2020-01-26T08:11:45Z</time>
      </trkpt>
      <trkpt lat="45.77945" lon="-1.20243">
        <ele>73.6</ele>
        <time>2020-01-26T08:11:46Z</time>
      </trkpt>
      <trkpt lat="45.77947" lon="-1.20243">
        <ele>73.8</ele>
        <time>2020-01-26T08:11:47Z</time>
      </trkpt>
      <trkpt lat="45.77949" lon="-1.20243">
        <ele>74.2</ele>
        <time>2020-01-26T08:11:48Z</time>
      </trkpt>
      <trkpt lat="45.77951" lon="-1.20242">
        <ele>74.8</ele>
        <time>2020-01-26T08:11:49Z</time>
      </trkpt>
      <trkpt lat="45.77953" lon="-1.20242">
        <ele>75.4</ele>
        <time>2020-01-26T08:11:50Z</time>
      </trkpt>
      <trkpt lat="45.77956" lon="-1.20242">
        <ele>75.8</ele>
        <time>2020-01-26T08:11:51Z</time>
      </trkpt>
      <trkpt lat="45.77958" lon="-1.20242">
        <ele>76.4</ele>
        <time>2020-01-26T08:11:52Z</time>
      </trkpt>
      <trkpt lat="45.77959" lon="-1.20241">
        <ele>76.8</ele>
        <time>2020-01-26T08:11:53Z</time>
      </trkpt>
      <trkpt lat="45.7796" lon="-1.20241">
        <ele>77.2</ele>
        <time>2020-01-26T08:11:54Z</time>
      </trkpt>
      <trkpt lat="45.77962" lon="-1.20241">
        <ele>77.6</ele>
        <time>2020-01-26T08:11:55Z</time>
      </trkpt>
      <trkpt lat="45.77964" lon="-1.2024">
        <ele>78.2</ele>
        <time>2020-01-26T08:11:56Z</time>
      </trkpt>
      <trkpt lat="45.77967" lon="-1.2024">
        <ele>78.8</ele>
        <time>2020-01-26T08:11:57Z</time>
      </trkpt>
      <trkpt lat="45.77969" lon="-1.2024">
        <ele>79.2</ele>
        <time>2020-01-26T08:11:58Z</time>
      </trkpt>
      <trkpt lat="45.77971" lon="-1.2024">
        <ele>79.4</ele>
        <time>2020-01-26T08:11:59Z</time>
      </trkpt>
      <trkpt lat="45.77972" lon="-1.2024">
        <ele>79.6</ele>
        <time>2020-01-26T08:12:00Z</time>
      </trkpt>
      <trkpt lat="45.77974" lon="-1.20241">
        <ele>80</ele>
        <time>2020-01-26T08:12:01Z</time>
      </trkpt>
      <trkpt lat="45.77977" lon="-1.20241">
        <ele>80.2</ele>
        <time>2020-01-26T08:12:02Z</time>
      </trkpt>
      <trkpt lat="45.77978" lon="-1.20241">
        <ele>80.6</ele>
        <time>2020-01-26T08:12:03Z</time>
      </trkpt>
      <trkpt lat="45.7798" lon="-1.20242">
        <ele>81</ele>
        <time>2020-01-26T08:12:04Z</time>
      </trkpt>
      <trkpt lat="45.77982" lon="-1.20241">
        <ele>81.6</ele>
        <time>2020-01-26T08:12:05Z</time>
      </trkpt>
      <trkpt lat="45.77983" lon="-1.2024">
        <ele>82.2</ele>
        <time>2020-01-26T08:12:06Z</time>
      </trkpt>
      <trkpt lat="45.77985" lon="-1.2024">
        <ele>82.6</ele>
        <time>2020-01-26T08:12:07Z</time>
      </trkpt>
      <trkpt lat="45.77986" lon="-1.2024">
        <ele>83.2</ele>
        <time>2020-01-26T08:12:08Z</time>
      </trkpt>
      <trkpt lat="45.77988" lon="-1.2024">
        <ele>83.8</ele>
        <time>2020-01-26T08:12:09Z</time>
      </trkpt>
      <trkpt lat="45.77989" lon="-1.20239">
        <ele>84.2</ele>
        <time>2020-01-26T08:12:10Z</time>
      </trkpt>
      <trkpt lat="45.77991" lon="-1.20237">
        <ele>84.8</ele>
        <time>2020-01-26T08:12:11Z</time>
      </trkpt>
      <trkpt lat="45.77993" lon="-1.20237">
        <ele>85.4</ele>
        <time>2020-01-26T08:12:12Z</time>
      </trkpt>
      <trkpt lat="45.77994" lon="-1.20236">
        <ele>85.8</ele>
        <time>2020-01-26T08:12:13Z</time>
      </trkpt>
      <trkpt lat="45.77995" lon="-1.20236">
        <ele>86</ele>
        <time>2020-01-26T08:12:14Z</time>
      </trkpt>
      <trkpt lat="45.77997" lon="-1.20236">
        <ele>86</ele>
        <time>2020-01-26T08:12:15Z</time>
      </trkpt>
      <trkpt lat="45.77998" lon="-1.20237">
        <ele>86</ele>
        <time>2020-01-26T08:12:16Z</time>
      </trkpt>
      <trkpt lat="45.77999" lon="-1.20239">
        <ele>85.8</ele>
        <time>2020-01-26T08:12:17Z</time>
      </trkpt>
      <trkpt lat="45.78001" lon="-1.20239">
        <ele>85.4</ele>
        <time>2020-01-26T08:12:18Z</time>
      </trkpt>
      <trkpt lat="45.78003" lon="-1.20239">
        <ele>85.2</ele>
        <time>2020-01-26T08:12:19Z</time>
      </trkpt>
      <trkpt lat="45.78004" lon="-1.20239">
        <ele>85.2</ele>
        <time>2020-01-26T08:12:20Z</time>
      </trkpt>
      <trkpt lat="45.78006" lon="-1.20239">
        <ele>85.2</ele>
        <time>2020-01-26T08:12:21Z</time>
      </trkpt>
      <trkpt lat="45.78008" lon="-1.20238">
        <ele>85</ele>
        <time>2020-01-26T08:12:22Z</time>
      </trkpt>
      <trkpt lat="45.78009" lon="-1.20238">
        <ele>85</ele>
        <time>2020-01-26T08:12:23Z</time>
      </trkpt>
      <trkpt lat="45.7801" lon="-1.20238">
        <ele>85</ele>
        <time>2020-01-26T08:12:24Z</time>
      </trkpt>
      <trkpt lat="45.78012" lon="-1.20238">
        <ele>84.8</ele>
        <time>2020-01-26T08:12:25Z</time>
      </trkpt>
      <trkpt lat="45.78013" lon="-1.20238">
        <ele>84.6</ele>
        <time>2020-01-26T08:12:26Z</time>
      </trkpt>
      <trkpt lat="45.78014" lon="-1.20238">
        <ele>84</ele>
        <time>2020-01-26T08:12:27Z</time>
      </trkpt>
      <trkpt lat="45.78016" lon="-1.20238">
        <ele>83.4</ele>
        <time>2020-01-26T08:12:28Z</time>
      </trkpt>
      <trkpt lat="45.78017" lon="-1.20238">
        <ele>83</ele>
        <time>2020-01-26T08:12:29Z</time>
      </trkpt>
      <trkpt lat="45.78019" lon="-1.20238">
        <ele>83</ele>
        <time>2020-01-26T08:12:30Z</time>
      </trkpt>
      <trkpt lat="45.7802" lon="-1.20239">
        <ele>83</ele>
        <time>2020-01-26T08:12:31Z</time>
      </trkpt>
      <trkpt lat="45.78022" lon="-1.20239">
        <ele>83</ele>
        <time>2020-01-26T08:12:32Z</time>
      </trkpt>
      <trkpt lat="45.78024" lon="-1.20238">
        <ele>83</ele>
        <time>2020-01-26T08:12:33Z</time>
      </trkpt>
      <trkpt lat="45.78025" lon="-1.20239">
        <ele>83</ele>
        <time>2020-01-26T08:12:34Z</time>
      </trkpt>
      <trkpt lat="45.78027" lon="-1.20239">
        <ele>83.4</ele>
        <time>2020-01-26T08:12:35Z</time>
      </trkpt>
      <trkpt lat="45.78029" lon="-1.2024">
        <ele>83.8</ele>
        <time>2020-01-26T08:12:36Z</time>
      </trkpt>
      <trkpt lat="45.78031" lon="-1.2024">
        <ele>84</ele>
        <time>2020-01-26T08:12:37Z</time>
      </trkpt>
      <trkpt lat="45.78032" lon="-1.2024">
        <ele>84.6</ele>
        <time>2020-01-26T08:12:38Z</time>
      </trkpt>
      <trkpt lat="45.78033" lon="-1.2024">
        <ele>85</ele>
        <time>2020-01-26T08:12:39Z</time>
      </trkpt>
      <trkpt lat="45.78034" lon="-1.2024">
        <ele>85.2</ele>
        <time>2020-01-26T08:12:40Z</time>
      </trkpt>
      <trkpt lat="45.78036" lon="-1.2024">
        <ele>85.4</ele>
        <time>2020-01-26T08:12:41Z</time>
      </trkpt>
      <trkpt lat="45.78038" lon="-1.2024">
        <ele>85.2</ele>
        <time>2020-01-26T08:12:42Z</time>
      </trkpt>
      <trkpt lat="45.78039" lon="-1.20241">
        <ele>85</ele>
        <time>2020-01-26T08:12:43Z</time>
      </trkpt>
      <trkpt lat="45.7804" lon="-1.2024">
        <ele>84.8</ele>
        <time>2020-01-26T08:12:44Z</time>
      </trkpt>
      <trkpt lat="45.78042" lon="-1.2024">
        <ele>84.6</ele>
        <time>2020-01-26T08:12:45Z</time>
      </trkpt>
      <trkpt lat="45.78043" lon="-1.2024">
        <ele>84.4</ele>
        <time>2020-01-26T08:12:46Z</time>
      </trkpt>
      <trkpt lat="45.78045" lon="-1.20239">
        <ele>84.2</ele>
        <time>2020-01-26T08:12:47Z</time>
      </trkpt>
      <trkpt lat="45.78046" lon="-1.2024">
        <ele>84.2</ele>
        <time>2020-01-26T08:12:48Z</time>
      </trkpt>
      <trkpt lat="45.78047" lon="-1.2024">
        <ele>84.4</ele>
        <time>2020-01-26T08:12:49Z</time>
      </trkpt>
      <trkpt lat="45.78049" lon="-1.20239">
        <ele>84.8</ele>
        <time>2020-01-26T08:12:50Z</time>
      </trkpt>
      <trkpt lat="45.7805" lon="-1.20238">
        <ele>85.4</ele>
        <time>2020-01-26T08:12:51Z</time>
      </trkpt>
      <trkpt lat="45.78051" lon="-1.20238">
        <ele>86.2</ele>
        <time>2020-01-26T08:12:52Z</time>
      </trkpt>
      <trkpt lat="45.78052" lon="-1.20237">
        <ele>86.8</ele>
        <time>2020-01-26T08:12:53Z</time>
      </trkpt>
      <trkpt lat="45.78053" lon="-1.20237">
        <ele>87.4</ele>
        <time>2020-01-26T08:12:54Z</time>
      </trkpt>
      <trkpt lat="45.78054" lon="-1.20237">
        <ele>87.4</ele>
        <time>2020-01-26T08:12:55Z</time>
      </trkpt>
      <trkpt lat="45.78054" lon="-1.20237">
        <ele>87.4</ele>
        <time>2020-01-26T08:12:56Z</time>
      </trkpt>
      <trkpt lat="45.78056" lon="-1.20237">
        <ele>87.6</ele>
        <time>2020-01-26T08:12:57Z</time>
      </trkpt>
      <trkpt lat="45.78058" lon="-1.20236">
        <ele>87.6</ele>
        <time>2020-01-26T08:12:58Z</time>
      </trkpt>
      <trkpt lat="45.78059" lon="-1.20237">
        <ele>87.8</ele>
        <time>2020-01-26T08:12:59Z</time>
      </trkpt>
      <trkpt lat="45.7806" lon="-1.20238">
        <ele>88.4</ele>
        <time>2020-01-26T08:13:00Z</time>
      </trkpt>
      <trkpt lat="45.78062" lon="-1.20238">
        <ele>88.8</ele>
        <time>2020-01-26T08:13:01Z</time>
      </trkpt>
      <trkpt lat="45.78064" lon="-1.20238">
        <ele>89</ele>
        <time>2020-01-26T08:13:02Z</time>
      </trkpt>
      <trkpt lat="45.78064" lon="-1.20238">
        <ele>89.4</ele>
        <time>2020-01-26T08:13:03Z</time>
      </trkpt>
      <trkpt lat="45.78066" lon="-1.20238">
        <ele>89.6</ele>
        <time>2020-01-26T08:13:04Z</time>
      </trkpt>
      <trkpt lat="45.78067" lon="-1.20237">
        <ele>90</ele>
        <time>2020-01-26T08:13:05Z</time>
      </trkpt>
      <trkpt lat="45.78069" lon="-1.20237">
        <ele>90.4</ele>
        <time>2020-01-26T08:13:06Z</time>
      </trkpt>
      <trkpt lat="45.7807" lon="-1.20237">
        <ele>90.2</ele>
        <time>2020-01-26T08:13:07Z</time>
      </trkpt>
      <trkpt lat="45.78072" lon="-1.20237">
        <ele>90.2</ele>
        <time>2020-01-26T08:13:08Z</time>
      </trkpt>
      <trkpt lat="45.78075" lon="-1.20237">
        <ele>90.2</ele>
        <time>2020-01-26T08:13:09Z</time>
      </trkpt>
      <trkpt lat="45.78077" lon="-1.20237">
        <ele>90.2</ele>
        <time>2020-01-26T08:13:10Z</time>
      </trkpt>
      <trkpt lat="45.7808" lon="-1.20237">
        <ele>90</ele>
        <time>2020-01-26T08:13:11Z</time>
      </trkpt>
      <trkpt lat="45.7808" lon="-1.20238">
        <ele>89.8</ele>
        <time>2020-01-26T08:13:12Z</time>
      </trkpt>
      <trkpt lat="45.7808" lon="-1.20238">
        <ele>89.6</ele>
        <time>2020-01-26T08:13:13Z</time>
      </trkpt>
      <trkpt lat="45.78081" lon="-1.20238">
        <ele>89.4</ele>
        <time>2020-01-26T08:13:14Z</time>
      </trkpt>
      <trkpt lat="45.78082" lon="-1.20238">
        <ele>89.4</ele>
        <time>2020-01-26T08:13:15Z</time>
      </trkpt>
      <trkpt lat="45.78083" lon="-1.20238">
        <ele>89.4</ele>
        <time>2020-01-26T08:13:16Z</time>
      </trkpt>
      <trkpt lat="45.78083" lon="-1.20238">
        <ele>89.4</ele>
        <time>2020-01-26T08:13:17Z</time>
      </trkpt>
      <trkpt lat="45.78085" lon="-1.20237">
        <ele>89.4</ele>
        <time>2020-01-26T08:13:18Z</time>
      </trkpt>
      <trkpt lat="45.78087" lon="-1.20236">
        <ele>89.6</ele>
        <time>2020-01-26T08:13:19Z</time>
      </trkpt>
      <trkpt lat="45.7809" lon="-1.20235">
        <ele>89.8</ele>
        <time>2020-01-26T08:13:20Z</time>
      </trkpt>
      <trkpt lat="45.78093" lon="-1.20234">
        <ele>90.2</ele>
        <time>2020-01-26T08:13:21Z</time>
      </trkpt>
      <trkpt lat="45.78096" lon="-1.20233">
        <ele>90.4</ele>
        <time>2020-01-26T08:13:22Z</time>
      </trkpt>
      <trkpt lat="45.78099" lon="-1.20233">
        <ele>90.8</ele>
        <time>2020-01-26T08:13:23Z</time>
      </trkpt>
      <trkpt lat="45.78103" lon="-1.20233">
        <ele>91.2</ele>
        <time>2020-01-26T08:13:24Z</time>
      </trkpt>
      <trkpt lat="45.78112" lon="-1.20234">
        <ele>90.6</ele>
        <time>2020-01-26T08:13:25Z</time>
      </trkpt>
      <trkpt lat="45.78119" lon="-1.20234">
        <ele>90.2</ele>
        <time>2020-01-26T08:13:26Z</time>
      </trkpt>
      <trkpt lat="45.78124" lon="-1.20233">
        <ele>90</ele>
        <time>2020-01-26T08:13:27Z</time>
      </trkpt>
      <trkpt lat="45.78128" lon="-1.20235">
        <ele>89.6</ele>
        <time>2020-01-26T08:13:28Z</time>
      </trkpt>
      <trkpt lat="45.7813" lon="-1.20235">
        <ele>89.2</ele>
        <time>2020-01-26T08:13:29Z</time>
      </trkpt>
      <trkpt lat="45.78133" lon="-1.20236">
        <ele>88.6</ele>
        <time>2020-01-26T08:13:30Z</time>
      </trkpt>
      <trkpt lat="45.78136" lon="-1.20238">
        <ele>88.2</ele>
        <time>2020-01-26T08:13:31Z</time>
      </trkpt>
      <trkpt lat="45.78138" lon="-1.20243">
        <ele>87.4</ele>
        <time>2020-01-26T08:13:32Z</time>
      </trkpt>
      <trkpt lat="45.78139" lon="-1.20247">
        <ele>86.6</ele>
        <time>2020-01-26T08:13:33Z</time>
      </trkpt>
      <trkpt lat="45.7814" lon="-1.20253">
        <ele>86.2</ele>
        <time>2020-01-26T08:13:34Z</time>
      </trkpt>
      <trkpt lat="45.78139" lon="-1.20259">
        <ele>85.4</ele>
        <time>2020-01-26T08:13:35Z</time>
      </trkpt>
      <trkpt lat="45.7814" lon="-1.20265">
        <ele>84.4</ele>
        <time>2020-01-26T08:13:36Z</time>
      </trkpt>
      <trkpt lat="45.7814" lon="-1.20271">
        <ele>83.6</ele>
        <time>2020-01-26T08:13:37Z</time>
      </trkpt>
      <trkpt lat="45.7814" lon="-1.20278">
        <ele>82.6</ele>
        <time>2020-01-26T08:13:38Z</time>
      </trkpt>
      <trkpt lat="45.7814" lon="-1.20283">
        <ele>82</ele>
        <time>2020-01-26T08:13:39Z</time>
      </trkpt>
      <trkpt lat="45.78139" lon="-1.2029">
        <ele>81.4</ele>
        <time>2020-01-26T08:13:40Z</time>
      </trkpt>
      <trkpt lat="45.78138" lon="-1.20296">
        <ele>81</ele>
        <time>2020-01-26T08:13:41Z</time>
      </trkpt>
      <trkpt lat="45.78141" lon="-1.20299">
        <ele>81</ele>
        <time>2020-01-26T08:13:42Z</time>
      </trkpt>
      <trkpt lat="45.78139" lon="-1.20304">
        <ele>80.6</ele>
        <time>2020-01-26T08:13:43Z</time>
      </trkpt>
      <trkpt lat="45.78139" lon="-1.20309">
        <ele>80.6</ele>
        <time>2020-01-26T08:13:44Z</time>
      </trkpt>
      <trkpt lat="45.78138" lon="-1.20315">
        <ele>80.4</ele>
        <time>2020-01-26T08:13:45Z</time>
      </trkpt>
      <trkpt lat="45.78137" lon="-1.20321">
        <ele>79.8</ele>
        <time>2020-01-26T08:13:46Z</time>
      </trkpt>
      <trkpt lat="45.78136" lon="-1.20327">
        <ele>79</ele>
        <time>2020-01-26T08:13:47Z</time>
      </trkpt>
      <trkpt lat="45.78136" lon="-1.20333">
        <ele>78.2</ele>
        <time>2020-01-26T08:13:48Z</time>
      </trkpt>
      <trkpt lat="45.78133" lon="-1.20341">
        <ele>76.8</ele>
        <time>2020-01-26T08:13:49Z</time>
      </trkpt>
      <trkpt lat="45.78133" lon="-1.20348">
        <ele>76</ele>
        <time>2020-01-26T08:13:50Z</time>
      </trkpt>
      <trkpt lat="45.78133" lon="-1.20354">
        <ele>75</ele>
        <time>2020-01-26T08:13:51Z</time>
      </trkpt>
      <trkpt lat="45.78132" lon="-1.20364">
        <ele>74.4</ele>
        <time>2020-01-26T08:13:52Z</time>
      </trkpt>
      <trkpt lat="45.7813" lon="-1.20373">
        <ele>73.6</ele>
        <time>2020-01-26T08:13:53Z</time>
      </trkpt>
      <trkpt lat="45.78128" lon="-1.20381">
        <ele>72.8</ele>
        <time>2020-01-26T08:13:54Z</time>
      </trkpt>
      <trkpt lat="45.78128" lon="-1.2039">
        <ele>71.8</ele>
        <time>2020-01-26T08:13:55Z</time>
      </trkpt>
      <trkpt lat="45.78128" lon="-1.20398">
        <ele>71</ele>
        <time>2020-01-26T08:13:56Z</time>
      </trkpt>
      <trkpt lat="45.78128" lon="-1.20408">
        <ele>70.2</ele>
        <time>2020-01-26T08:13:57Z</time>
      </trkpt>
      <trkpt lat="45.78129" lon="-1.20418">
        <ele>69.6</ele>
        <time>2020-01-26T08:13:58Z</time>
      </trkpt>
      <trkpt lat="45.78129" lon="-1.20428">
        <ele>69.2</ele>
        <time>2020-01-26T08:13:59Z</time>
      </trkpt>
      <trkpt lat="45.78129" lon="-1.20435">
        <ele>69.2</ele>
        <time>2020-01-26T08:14:00Z</time>
      </trkpt>
      <trkpt lat="45.78127" lon="-1.20444">
        <ele>68.8</ele>
        <time>2020-01-26T08:14:01Z</time>
      </trkpt>
      <trkpt lat="45.78127" lon="-1.20454">
        <ele>68.6</ele>
        <time>2020-01-26T08:14:02Z</time>
      </trkpt>
      <trkpt lat="45.78127" lon="-1.20463">
        <ele>68.2</ele>
        <time>2020-01-26T08:14:03Z</time>
      </trkpt>
      <trkpt lat="45.78126" lon="-1.20473">
        <ele>67.6</ele>
        <time>2020-01-26T08:14:04Z</time>
      </trkpt>
      <trkpt lat="45.78125" lon="-1.20484">
        <ele>67.6</ele>
        <time>2020-01-26T08:14:05Z</time>
      </trkpt>
      <trkpt lat="45.78128" lon="-1.20494">
        <ele>67.6</ele>
        <time>2020-01-26T08:14:06Z</time>
      </trkpt>
      <trkpt lat="45.78128" lon="-1.20505">
        <ele>67.8</ele>
        <time>2020-01-26T08:14:07Z</time>
      </trkpt>
      <trkpt lat="45.78128" lon="-1.20517">
        <ele>67.8</ele>
        <time>2020-01-26T08:14:08Z</time>
      </trkpt>
      <trkpt lat="45.78128" lon="-1.20528">
        <ele>67.6</ele>
        <time>2020-01-26T08:14:09Z</time>
      </trkpt>
      <trkpt lat="45.78129" lon="-1.20539">
        <ele>67.2</ele>
        <time>2020-01-26T08:14:10Z</time>
      </trkpt>
      <trkpt lat="45.7813" lon="-1.20549">
        <ele>66.8</ele>
        <time>2020-01-26T08:14:11Z</time>
      </trkpt>
      <trkpt lat="45.78132" lon="-1.20561">
        <ele>66.4</ele>
        <time>2020-01-26T08:14:12Z</time>
      </trkpt>
      <trkpt lat="45.78131" lon="-1.20571">
        <ele>66.4</ele>
        <time>2020-01-26T08:14:13Z</time>
      </trkpt>
      <trkpt lat="45.78133" lon="-1.2058">
        <ele>66.2</ele>
        <time>2020-01-26T08:14:14Z</time>
      </trkpt>
      <trkpt lat="45.78134" lon="-1.20591">
        <ele>66</ele>
        <time>2020-01-26T08:14:15Z</time>
      </trkpt>
      <trkpt lat="45.78134" lon="-1.206">
        <ele>66</ele>
        <time>2020-01-26T08:14:16Z</time>
      </trkpt>
      <trkpt lat="45.78135" lon="-1.20612">
        <ele>66</ele>
        <time>2020-01-26T08:14:17Z</time>
      </trkpt>
      <trkpt lat="45.78134" lon="-1.20621">
        <ele>65.8</ele>
        <time>2020-01-26T08:14:18Z</time>
      </trkpt>
      <trkpt lat="45.78134" lon="-1.20631">
        <ele>65.8</ele>
        <time>2020-01-26T08:14:19Z</time>
      </trkpt>
      <trkpt lat="45.78133" lon="-1.2064">
        <ele>65.6</ele>
        <time>2020-01-26T08:14:20Z</time>
      </trkpt>
      <trkpt lat="45.78132" lon="-1.20649">
        <ele>65.4</ele>
        <time>2020-01-26T08:14:21Z</time>
      </trkpt>
      <trkpt lat="45.78131" lon="-1.20655">
        <ele>65.2</ele>
        <time>2020-01-26T08:14:22Z</time>
      </trkpt>
      <trkpt lat="45.78131" lon="-1.20661">
        <ele>64.8</ele>
        <time>2020-01-26T08:14:23Z</time>
      </trkpt>
      <trkpt lat="45.7813" lon="-1.20668">
        <ele>64.6</ele>
        <time>2020-01-26T08:14:24Z</time>
      </trkpt>
      <trkpt lat="45.78129" lon="-1.20675">
        <ele>64.6</ele>
        <time>2020-01-26T08:14:25Z</time>
      </trkpt>
      <trkpt lat="45.78129" lon="-1.20681">
        <ele>64.4</ele>
        <time>2020-01-26T08:14:26Z</time>
      </trkpt>
      <trkpt lat="45.78131" lon="-1.20685">
        <ele>64.8</ele>
        <time>2020-01-26T08:14:27Z</time>
      </trkpt>
      <trkpt lat="45.78133" lon="-1.20689">
        <ele>65.2</ele>
        <time>2020-01-26T08:14:28Z</time>
      </trkpt>
      <trkpt lat="45.78133" lon="-1.20695">
        <ele>65.2</ele>
        <time>2020-01-26T08:14:29Z</time>
      </trkpt>
      <trkpt lat="45.78133" lon="-1.20701">
        <ele>65.4</ele>
        <time>2020-01-26T08:14:30Z</time>
      </trkpt>
      <trkpt lat="45.78134" lon="-1.2071">
        <ele>65.6</ele>
        <time>2020-01-26T08:14:31Z</time>
      </trkpt>
      <trkpt lat="45.78135" lon="-1.20719">
        <ele>65.6</ele>
        <time>2020-01-26T08:14:32Z</time>
      </trkpt>
      <trkpt lat="45.78138" lon="-1.20726">
        <ele>65.6</ele>
        <time>2020-01-26T08:14:33Z</time>
      </trkpt>
      <trkpt lat="45.7814" lon="-1.20734">
        <ele>65.8</ele>
        <time>2020-01-26T08:14:34Z</time>
      </trkpt>
      <trkpt lat="45.78143" lon="-1.20742">
        <ele>65.8</ele>
        <time>2020-01-26T08:14:35Z</time>
      </trkpt>
      <trkpt lat="45.78147" lon="-1.2075">
        <ele>65.8</ele>
        <time>2020-01-26T08:14:36Z</time>
      </trkpt>
      <trkpt lat="45.78151" lon="-1.20754">
        <ele>66.2</ele>
        <time>2020-01-26T08:14:37Z</time>
      </trkpt>
      <trkpt lat="45.78154" lon="-1.20754">
        <ele>66.2</ele>
        <time>2020-01-26T08:14:38Z</time>
      </trkpt>
      <trkpt lat="45.78157" lon="-1.20754">
        <ele>66</ele>
        <time>2020-01-26T08:14:39Z</time>
      </trkpt>
      <trkpt lat="45.78162" lon="-1.20753">
        <ele>66.2</ele>
        <time>2020-01-26T08:14:40Z</time>
      </trkpt>
      <trkpt lat="45.78167" lon="-1.20753">
        <ele>66.4</ele>
        <time>2020-01-26T08:14:41Z</time>
      </trkpt>
      <trkpt lat="45.78174" lon="-1.20751">
        <ele>67</ele>
        <time>2020-01-26T08:14:42Z</time>
      </trkpt>
      <trkpt lat="45.7818" lon="-1.20749">
        <ele>67.2</ele>
        <time>2020-01-26T08:14:43Z</time>
      </trkpt>
      <trkpt lat="45.78183" lon="-1.20749">
        <ele>67</ele>
        <time>2020-01-26T08:14:44Z</time>
      </trkpt>
      <trkpt lat="45.78186" lon="-1.20749">
        <ele>67</ele>
        <time>2020-01-26T08:14:45Z</time>
      </trkpt>
      <trkpt lat="45.78189" lon="-1.2075">
        <ele>67.2</ele>
        <time>2020-01-26T08:14:46Z</time>
      </trkpt>
      <trkpt lat="45.78192" lon="-1.2075">
        <ele>67</ele>
        <time>2020-01-26T08:14:47Z</time>
      </trkpt>
      <trkpt lat="45.78194" lon="-1.2075">
        <ele>66.8</ele>
        <time>2020-01-26T08:14:48Z</time>
      </trkpt>
      <trkpt lat="45.78197" lon="-1.20749">
        <ele>66.6</ele>
        <time>2020-01-26T08:14:49Z</time>
      </trkpt>
      <trkpt lat="45.78197" lon="-1.20749">
        <ele>66.8</ele>
        <time>2020-01-26T08:14:50Z</time>
      </trkpt>
      <trkpt lat="45.78199" lon="-1.20749">
        <ele>66.8</ele>
        <time>2020-01-26T08:14:51Z</time>
      </trkpt>
      <trkpt lat="45.78201" lon="-1.20749">
        <ele>66.6</ele>
        <time>2020-01-26T08:14:52Z</time>
      </trkpt>
      <trkpt lat="45.78202" lon="-1.20748">
        <ele>66.8</ele>
        <time>2020-01-26T08:14:53Z</time>
      </trkpt>
      <trkpt lat="45.78203" lon="-1.20749">
        <ele>67.2</ele>
        <time>2020-01-26T08:14:54Z</time>
      </trkpt>
      <trkpt lat="45.78204" lon="-1.20748">
        <ele>67.4</ele>
        <time>2020-01-26T08:14:55Z</time>
      </trkpt>
      <trkpt lat="45.78205" lon="-1.20748">
        <ele>67.6</ele>
        <time>2020-01-26T08:14:56Z</time>
      </trkpt>
      <trkpt lat="45.78207" lon="-1.20748">
        <ele>68</ele>
        <time>2020-01-26T08:14:57Z</time>
      </trkpt>
      <trkpt lat="45.78209" lon="-1.20748">
        <ele>68.8</ele>
        <time>2020-01-26T08:14:58Z</time>
      </trkpt>
      <trkpt lat="45.78209" lon="-1.20747">
        <ele>69</ele>
        <time>2020-01-26T08:14:59Z</time>
      </trkpt>
      <trkpt lat="45.7821" lon="-1.20747">
        <ele>69</ele>
        <time>2020-01-26T08:15:00Z</time>
      </trkpt>
      <trkpt lat="45.78212" lon="-1.20747">
        <ele>69.4</ele>
        <time>2020-01-26T08:15:01Z</time>
      </trkpt>
      <trkpt lat="45.78215" lon="-1.20746">
        <ele>70</ele>
        <time>2020-01-26T08:15:02Z</time>
      </trkpt>
      <trkpt lat="45.78216" lon="-1.20745">
        <ele>70.6</ele>
        <time>2020-01-26T08:15:03Z</time>
      </trkpt>
      <trkpt lat="45.78218" lon="-1.20745">
        <ele>70.6</ele>
        <time>2020-01-26T08:15:04Z</time>
      </trkpt>
      <trkpt lat="45.7822" lon="-1.20745">
        <ele>70.6</ele>
        <time>2020-01-26T08:15:05Z</time>
      </trkpt>
      <trkpt lat="45.78222" lon="-1.20745">
        <ele>71</ele>
        <time>2020-01-26T08:15:06Z</time>
      </trkpt>
      <trkpt lat="45.78222" lon="-1.20745">
        <ele>71.6</ele>
        <time>2020-01-26T08:15:07Z</time>
      </trkpt>
      <trkpt lat="45.78224" lon="-1.20745">
        <ele>71.6</ele>
        <time>2020-01-26T08:15:08Z</time>
      </trkpt>
      <trkpt lat="45.78226" lon="-1.20745">
        <ele>72</ele>
        <time>2020-01-26T08:15:09Z</time>
      </trkpt>
      <trkpt lat="45.78227" lon="-1.20745">
        <ele>72.2</ele>
        <time>2020-01-26T08:15:10Z</time>
      </trkpt>
      <trkpt lat="45.78228" lon="-1.20745">
        <ele>72.4</ele>
        <time>2020-01-26T08:15:11Z</time>
      </trkpt>
      <trkpt lat="45.7823" lon="-1.20745">
        <ele>72.8</ele>
        <time>2020-01-26T08:15:12Z</time>
      </trkpt>
      <trkpt lat="45.78231" lon="-1.20745">
        <ele>73.2</ele>
        <time>2020-01-26T08:15:13Z</time>
      </trkpt>
      <trkpt lat="45.78233" lon="-1.20746">
        <ele>73.4</ele>
        <time>2020-01-26T08:15:14Z</time>
      </trkpt>
      <trkpt lat="45.78234" lon="-1.20746">
        <ele>73.8</ele>
        <time>2020-01-26T08:15:15Z</time>
      </trkpt>
      <trkpt lat="45.78235" lon="-1.20745">
        <ele>74</ele>
        <time>2020-01-26T08:15:16Z</time>
      </trkpt>
      <trkpt lat="45.78236" lon="-1.20745">
        <ele>74.4</ele>
        <time>2020-01-26T08:15:17Z</time>
      </trkpt>
      <trkpt lat="45.78237" lon="-1.20745">
        <ele>75</ele>
        <time>2020-01-26T08:15:18Z</time>
      </trkpt>
      <trkpt lat="45.78239" lon="-1.20745">
        <ele>75.6</ele>
        <time>2020-01-26T08:15:19Z</time>
      </trkpt>
      <trkpt lat="45.7824" lon="-1.20745">
        <ele>76.2</ele>
        <time>2020-01-26T08:15:20Z</time>
      </trkpt>
      <trkpt lat="45.78242" lon="-1.20744">
        <ele>76.6</ele>
        <time>2020-01-26T08:15:21Z</time>
      </trkpt>
      <trkpt lat="45.78244" lon="-1.20744">
        <ele>77</ele>
        <time>2020-01-26T08:15:22Z</time>
      </trkpt>
      <trkpt lat="45.78246" lon="-1.20743">
        <ele>77</ele>
        <time>2020-01-26T08:15:23Z</time>
      </trkpt>
      <trkpt lat="45.78248" lon="-1.20743">
        <ele>76.6</ele>
        <time>2020-01-26T08:15:24Z</time>
      </trkpt>
      <trkpt lat="45.78251" lon="-1.20742">
        <ele>76.2</ele>
        <time>2020-01-26T08:15:25Z</time>
      </trkpt>
      <trkpt lat="45.78253" lon="-1.20742">
        <ele>75.6</ele>
        <time>2020-01-26T08:15:26Z</time>
      </trkpt>
      <trkpt lat="45.78255" lon="-1.20743">
        <ele>75.2</ele>
        <time>2020-01-26T08:15:27Z</time>
      </trkpt>
      <trkpt lat="45.78257" lon="-1.20742">
        <ele>75.2</ele>
        <time>2020-01-26T08:15:28Z</time>
      </trkpt>
      <trkpt lat="45.78258" lon="-1.20742">
        <ele>75.2</ele>
        <time>2020-01-26T08:15:29Z</time>
      </trkpt>
      <trkpt lat="45.78258" lon="-1.20741">
        <ele>75.2</ele>
        <time>2020-01-26T08:15:30Z</time>
      </trkpt>
      <trkpt lat="45.7826" lon="-1.20741">
        <ele>75</ele>
        <time>2020-01-26T08:15:31Z</time>
      </trkpt>
      <trkpt lat="45.78264" lon="-1.2074">
        <ele>74.8</ele>
        <time>2020-01-26T08:15:32Z</time>
      </trkpt>
      <trkpt lat="45.78269" lon="-1.20741">
        <ele>74.6</ele>
        <time>2020-01-26T08:15:33Z</time>
      </trkpt>
      <trkpt lat="45.78274" lon="-1.20741">
        <ele>74.4</ele>
        <time>2020-01-26T08:15:34Z</time>
      </trkpt>
      <trkpt lat="45.78279" lon="-1.20741">
        <ele>74.6</ele>
        <time>2020-01-26T08:15:35Z</time>
      </trkpt>
      <trkpt lat="45.78282" lon="-1.20741">
        <ele>74.8</ele>
        <time>2020-01-26T08:15:36Z</time>
      </trkpt>
      <trkpt lat="45.78285" lon="-1.2074">
        <ele>75</ele>
        <time>2020-01-26T08:15:37Z</time>
      </trkpt>
      <trkpt lat="45.78289" lon="-1.20741">
        <ele>75</ele>
        <time>2020-01-26T08:15:38Z</time>
      </trkpt>
      <trkpt lat="45.78292" lon="-1.20741">
        <ele>74.4</ele>
        <time>2020-01-26T08:15:39Z</time>
      </trkpt>
      <trkpt lat="45.78294" lon="-1.20741">
        <ele>74.2</ele>
        <time>2020-01-26T08:15:40Z</time>
      </trkpt>
      <trkpt lat="45.78299" lon="-1.20741">
        <ele>74.2</ele>
        <time>2020-01-26T08:15:41Z</time>
      </trkpt>
      <trkpt lat="45.78302" lon="-1.20741">
        <ele>74.6</ele>
        <time>2020-01-26T08:15:42Z</time>
      </trkpt>
      <trkpt lat="45.78305" lon="-1.2074">
        <ele>75</ele>
        <time>2020-01-26T08:15:43Z</time>
      </trkpt>
      <trkpt lat="45.78308" lon="-1.2074">
        <ele>75.4</ele>
        <time>2020-01-26T08:15:44Z</time>
      </trkpt>
      <trkpt lat="45.7831" lon="-1.2074">
        <ele>76</ele>
        <time>2020-01-26T08:15:45Z</time>
      </trkpt>
      <trkpt lat="45.78314" lon="-1.20741">
        <ele>77</ele>
        <time>2020-01-26T08:15:46Z</time>
      </trkpt>
      <trkpt lat="45.78318" lon="-1.20742">
        <ele>77.4</ele>
        <time>2020-01-26T08:15:47Z</time>
      </trkpt>
      <trkpt lat="45.78321" lon="-1.20741">
        <ele>78.2</ele>
        <time>2020-01-26T08:15:48Z</time>
      </trkpt>
      <trkpt lat="45.78324" lon="-1.20741">
        <ele>78.8</ele>
        <time>2020-01-26T08:15:49Z</time>
      </trkpt>
      <trkpt lat="45.78327" lon="-1.20743">
        <ele>79.6</ele>
        <time>2020-01-26T08:15:50Z</time>
      </trkpt>
      <trkpt lat="45.78331" lon="-1.20744">
        <ele>80.2</ele>
        <time>2020-01-26T08:15:51Z</time>
      </trkpt>
      <trkpt lat="45.78333" lon="-1.20744">
        <ele>80.4</ele>
        <time>2020-01-26T08:15:52Z</time>
      </trkpt>
      <trkpt lat="45.78336" lon="-1.20745">
        <ele>80.6</ele>
        <time>2020-01-26T08:15:53Z</time>
      </trkpt>
      <trkpt lat="45.78338" lon="-1.20744">
        <ele>80.6</ele>
        <time>2020-01-26T08:15:54Z</time>
      </trkpt>
      <trkpt lat="45.78341" lon="-1.20744">
        <ele>81</ele>
        <time>2020-01-26T08:15:55Z</time>
      </trkpt>
      <trkpt lat="45.78344" lon="-1.20744">
        <ele>81.6</ele>
        <time>2020-01-26T08:15:56Z</time>
      </trkpt>
      <trkpt lat="45.78345" lon="-1.20744">
        <ele>81.6</ele>
        <time>2020-01-26T08:15:57Z</time>
      </trkpt>
      <trkpt lat="45.78347" lon="-1.20744">
        <ele>81.4</ele>
        <time>2020-01-26T08:15:58Z</time>
      </trkpt>
      <trkpt lat="45.78353" lon="-1.20743">
        <ele>81.4</ele>
        <time>2020-01-26T08:15:59Z</time>
      </trkpt>
      <trkpt lat="45.78357" lon="-1.20743">
        <ele>81.2</ele>
        <time>2020-01-26T08:16:00Z</time>
      </trkpt>
      <trkpt lat="45.7836" lon="-1.20743">
        <ele>81.2</ele>
        <time>2020-01-26T08:16:01Z</time>
      </trkpt>
      <trkpt lat="45.78363" lon="-1.20744">
        <ele>80.8</ele>
        <time>2020-01-26T08:16:02Z</time>
      </trkpt>
      <trkpt lat="45.78367" lon="-1.20744">
        <ele>80.6</ele>
        <time>2020-01-26T08:16:03Z</time>
      </trkpt>
      <trkpt lat="45.7837" lon="-1.20744">
        <ele>80.4</ele>
        <time>2020-01-26T08:16:04Z</time>
      </trkpt>
      <trkpt lat="45.78374" lon="-1.20745">
        <ele>80</ele>
        <time>2020-01-26T08:16:05Z</time>
      </trkpt>
      <trkpt lat="45.78376" lon="-1.20745">
        <ele>79.6</ele>
        <time>2020-01-26T08:16:06Z</time>
      </trkpt>
      <trkpt lat="45.78381" lon="-1.20745">
        <ele>78.6</ele>
        <time>2020-01-26T08:16:07Z</time>
      </trkpt>
      <trkpt lat="45.78385" lon="-1.20745">
        <ele>78</ele>
        <time>2020-01-26T08:16:08Z</time>
      </trkpt>
      <trkpt lat="45.7839" lon="-1.20746">
        <ele>77.2</ele>
        <time>2020-01-26T08:16:09Z</time>
      </trkpt>
      <trkpt lat="45.78397" lon="-1.20746">
        <ele>76.2</ele>
        <time>2020-01-26T08:16:10Z</time>
      </trkpt>
      <trkpt lat="45.78405" lon="-1.20744">
        <ele>75.4</ele>
        <time>2020-01-26T08:16:11Z</time>
      </trkpt>
      <trkpt lat="45.78417" lon="-1.20745">
        <ele>74.4</ele>
        <time>2020-01-26T08:16:12Z</time>
      </trkpt>
      <trkpt lat="45.78426" lon="-1.20743">
        <ele>73.8</ele>
        <time>2020-01-26T08:16:13Z</time>
      </trkpt>
      <trkpt lat="45.78439" lon="-1.20741">
        <ele>73.2</ele>
        <time>2020-01-26T08:16:14Z</time>
      </trkpt>
      <trkpt lat="45.78451" lon="-1.2074">
        <ele>72.6</ele>
        <time>2020-01-26T08:16:15Z</time>
      </trkpt>
      <trkpt lat="45.78463" lon="-1.20738">
        <ele>72.2</ele>
        <time>2020-01-26T08:16:16Z</time>
      </trkpt>
      <trkpt lat="45.78474" lon="-1.20738">
        <ele>71.6</ele>
        <time>2020-01-26T08:16:17Z</time>
      </trkpt>
      <trkpt lat="45.78484" lon="-1.20736">
        <ele>71</ele>
        <time>2020-01-26T08:16:18Z</time>
      </trkpt>
      <trkpt lat="45.78493" lon="-1.20735">
        <ele>70.4</ele>
        <time>2020-01-26T08:16:19Z</time>
      </trkpt>
      <trkpt lat="45.78498" lon="-1.20735">
        <ele>70</ele>
        <time>2020-01-26T08:16:20Z</time>
      </trkpt>
      <trkpt lat="45.78502" lon="-1.20738">
        <ele>69</ele>
        <time>2020-01-26T08:16:21Z</time>
      </trkpt>
      <trkpt lat="45.78506" lon="-1.20744">
        <ele>67.6</ele>
        <time>2020-01-26T08:16:22Z</time>
      </trkpt>
      <trkpt lat="45.7851" lon="-1.2075">
        <ele>66.6</ele>
        <time>2020-01-26T08:16:23Z</time>
      </trkpt>
      <trkpt lat="45.78513" lon="-1.20756">
        <ele>65.6</ele>
        <time>2020-01-26T08:16:24Z</time>
      </trkpt>
      <trkpt lat="45.78515" lon="-1.20762">
        <ele>64.8</ele>
        <time>2020-01-26T08:16:25Z</time>
      </trkpt>
      <trkpt lat="45.78516" lon="-1.20768">
        <ele>64</ele>
        <time>2020-01-26T08:16:26Z</time>
      </trkpt>
      <trkpt lat="45.78517" lon="-1.20774">
        <ele>63.6</ele>
        <time>2020-01-26T08:16:27Z</time>
      </trkpt>
      <trkpt lat="45.78517" lon="-1.20779">
        <ele>63.4</ele>
        <time>2020-01-26T08:16:28Z</time>
      </trkpt>
      <trkpt lat="45.78518" lon="-1.20783">
        <ele>63.6</ele>
        <time>2020-01-26T08:16:29Z</time>
      </trkpt>
      <trkpt lat="45.78519" lon="-1.20789">
        <ele>63.4</ele>
        <time>2020-01-26T08:16:30Z</time>
      </trkpt>
      <trkpt lat="45.78519" lon="-1.20794">
        <ele>63.2</ele>
        <time>2020-01-26T08:16:31Z</time>
      </trkpt>
      <trkpt lat="45.78519" lon="-1.20799">
        <ele>63</ele>
        <time>2020-01-26T08:16:32Z</time>
      </trkpt>
      <trkpt lat="45.78518" lon="-1.20805">
        <ele>62.6</ele>
        <time>2020-01-26T08:16:33Z</time>
      </trkpt>
      <trkpt lat="45.78519" lon="-1.20811">
        <ele>62.2</ele>
        <time>2020-01-26T08:16:34Z</time>
      </trkpt>
      <trkpt lat="45.78519" lon="-1.20817">
        <ele>62</ele>
        <time>2020-01-26T08:16:35Z</time>
      </trkpt>
      <trkpt lat="45.78519" lon="-1.20823">
        <ele>61.6</ele>
        <time>2020-01-26T08:16:36Z</time>
      </trkpt>
      <trkpt lat="45.78519" lon="-1.20829">
        <ele>61.2</ele>
        <time>2020-01-26T08:16:37Z</time>
      </trkpt>
      <trkpt lat="45.78519" lon="-1.20835">
        <ele>61</ele>
        <time>2020-01-26T08:16:38Z</time>
      </trkpt>
      <trkpt lat="45.7852" lon="-1.20841">
        <ele>60.8</ele>
        <time>2020-01-26T08:16:39Z</time>
      </trkpt>
      <trkpt lat="45.7852" lon="-1.20847">
        <ele>60.6</ele>
        <time>2020-01-26T08:16:40Z</time>
      </trkpt>
      <trkpt lat="45.7852" lon="-1.20852">
        <ele>60.4</ele>
        <time>2020-01-26T08:16:41Z</time>
      </trkpt>
      <trkpt lat="45.7852" lon="-1.20857">
        <ele>60.2</ele>
        <time>2020-01-26T08:16:42Z</time>
      </trkpt>
      <trkpt lat="45.7852" lon="-1.20861">
        <ele>60.2</ele>
        <time>2020-01-26T08:16:43Z</time>
      </trkpt>
      <trkpt lat="45.7852" lon="-1.20865">
        <ele>59.8</ele>
        <time>2020-01-26T08:16:44Z</time>
      </trkpt>
      <trkpt lat="45.78519" lon="-1.20868">
        <ele>59.4</ele>
        <time>2020-01-26T08:16:45Z</time>
      </trkpt>
      <trkpt lat="45.7852" lon="-1.20871">
        <ele>59</ele>
        <time>2020-01-26T08:16:46Z</time>
      </trkpt>
      <trkpt lat="45.7852" lon="-1.20875">
        <ele>58.8</ele>
        <time>2020-01-26T08:16:47Z</time>
      </trkpt>
      <trkpt lat="45.78521" lon="-1.20879">
        <ele>58.6</ele>
        <time>2020-01-26T08:16:48Z</time>
      </trkpt>
      <trkpt lat="45.78521" lon="-1.20884">
        <ele>58.4</ele>
        <time>2020-01-26T08:16:49Z</time>
      </trkpt>
      <trkpt lat="45.78521" lon="-1.20889">
        <ele>58.6</ele>
        <time>2020-01-26T08:16:50Z</time>
      </trkpt>
      <trkpt lat="45.78522" lon="-1.20893">
        <ele>58.8</ele>
        <time>2020-01-26T08:16:51Z</time>
      </trkpt>
      <trkpt lat="45.78522" lon="-1.20898">
        <ele>58.8</ele>
        <time>2020-01-26T08:16:52Z</time>
      </trkpt>
      <trkpt lat="45.78522" lon="-1.20903">
        <ele>58.8</ele>
        <time>2020-01-26T08:16:53Z</time>
      </trkpt>
      <trkpt lat="45.78522" lon="-1.20907">
        <ele>58.6</ele>
        <time>2020-01-26T08:16:54Z</time>
      </trkpt>
      <trkpt lat="45.78523" lon="-1.20912">
        <ele>58.2</ele>
        <time>2020-01-26T08:16:55Z</time>
      </trkpt>
      <trkpt lat="45.78523" lon="-1.20918">
        <ele>58.2</ele>
        <time>2020-01-26T08:16:56Z</time>
      </trkpt>
      <trkpt lat="45.78523" lon="-1.20924">
        <ele>57.8</ele>
        <time>2020-01-26T08:16:57Z</time>
      </trkpt>
      <trkpt lat="45.78524" lon="-1.20932">
        <ele>58</ele>
        <time>2020-01-26T08:16:58Z</time>
      </trkpt>
      <trkpt lat="45.78524" lon="-1.20939">
        <ele>58</ele>
        <time>2020-01-26T08:16:59Z</time>
      </trkpt>
      <trkpt lat="45.78525" lon="-1.20946">
        <ele>58.2</ele>
        <time>2020-01-26T08:17:00Z</time>
      </trkpt>
      <trkpt lat="45.78526" lon="-1.20953">
        <ele>58.4</ele>
        <time>2020-01-26T08:17:01Z</time>
      </trkpt>
      <trkpt lat="45.78525" lon="-1.20959">
        <ele>58.8</ele>
        <time>2020-01-26T08:17:02Z</time>
      </trkpt>
      <trkpt lat="45.78526" lon="-1.20965">
        <ele>59.4</ele>
        <time>2020-01-26T08:17:03Z</time>
      </trkpt>
      <trkpt lat="45.78526" lon="-1.2097">
        <ele>59.8</ele>
        <time>2020-01-26T08:17:04Z</time>
      </trkpt>
      <trkpt lat="45.78527" lon="-1.20976">
        <ele>60</ele>
        <time>2020-01-26T08:17:05Z</time>
      </trkpt>
      <trkpt lat="45.78526" lon="-1.20981">
        <ele>60</ele>
        <time>2020-01-26T08:17:06Z</time>
      </trkpt>
      <trkpt lat="45.78526" lon="-1.20985">
        <ele>60</ele>
        <time>2020-01-26T08:17:07Z</time>
      </trkpt>
      <trkpt lat="45.78524" lon="-1.20989">
        <ele>60.2</ele>
        <time>2020-01-26T08:17:08Z</time>
      </trkpt>
      <trkpt lat="45.78522" lon="-1.2099">
        <ele>60.4</ele>
        <time>2020-01-26T08:17:09Z</time>
      </trkpt>
      <trkpt lat="45.78521" lon="-1.2099">
        <ele>60.8</ele>
        <time>2020-01-26T08:17:10Z</time>
      </trkpt>
      <trkpt lat="45.7852" lon="-1.20991">
        <ele>61.2</ele>
        <time>2020-01-26T08:17:11Z</time>
      </trkpt>
      <trkpt lat="45.78518" lon="-1.20991">
        <ele>61.4</ele>
        <time>2020-01-26T08:17:12Z</time>
      </trkpt>
      <trkpt lat="45.78517" lon="-1.20991">
        <ele>61.2</ele>
        <time>2020-01-26T08:17:13Z</time>
      </trkpt>
      <trkpt lat="45.78516" lon="-1.20991">
        <ele>61.4</ele>
        <time>2020-01-26T08:17:14Z</time>
      </trkpt>
      <trkpt lat="45.78515" lon="-1.20991">
        <ele>61.4</ele>
        <time>2020-01-26T08:17:15Z</time>
      </trkpt>
      <trkpt lat="45.78514" lon="-1.20991">
        <ele>61.2</ele>
        <time>2020-01-26T08:17:16Z</time>
      </trkpt>
      <trkpt lat="45.78512" lon="-1.20991">
        <ele>61.4</ele>
        <time>2020-01-26T08:17:17Z</time>
      </trkpt>
      <trkpt lat="45.78511" lon="-1.20991">
        <ele>61.4</ele>
        <time>2020-01-26T08:17:18Z</time>
      </trkpt>
      <trkpt lat="45.78509" lon="-1.20991">
        <ele>61.6</ele>
        <time>2020-01-26T08:17:19Z</time>
      </trkpt>
      <trkpt lat="45.78508" lon="-1.20992">
        <ele>61.6</ele>
        <time>2020-01-26T08:17:20Z</time>
      </trkpt>
      <trkpt lat="45.78506" lon="-1.20992">
        <ele>61.8</ele>
        <time>2020-01-26T08:17:21Z</time>
      </trkpt>
      <trkpt lat="45.78506" lon="-1.20992">
        <ele>62.4</ele>
        <time>2020-01-26T08:17:22Z</time>
      </trkpt>
      <trkpt lat="45.78504" lon="-1.20992">
        <ele>62.8</ele>
        <time>2020-01-26T08:17:23Z</time>
      </trkpt>
      <trkpt lat="45.78504" lon="-1.20992">
        <ele>62.8</ele>
        <time>2020-01-26T08:17:24Z</time>
      </trkpt>
      <trkpt lat="45.78503" lon="-1.20992">
        <ele>63.2</ele>
        <time>2020-01-26T08:17:25Z</time>
      </trkpt>
      <trkpt lat="45.78502" lon="-1.20992">
        <ele>63.4</ele>
        <time>2020-01-26T08:17:26Z</time>
      </trkpt>
      <trkpt lat="45.78502" lon="-1.20992">
        <ele>63.6</ele>
        <time>2020-01-26T08:17:27Z</time>
      </trkpt>
      <trkpt lat="45.785" lon="-1.20993">
        <ele>63.8</ele>
        <time>2020-01-26T08:17:28Z</time>
      </trkpt>
      <trkpt lat="45.78498" lon="-1.20993">
        <ele>64</ele>
        <time>2020-01-26T08:17:29Z</time>
      </trkpt>
      <trkpt lat="45.78497" lon="-1.20993">
        <ele>64.2</ele>
        <time>2020-01-26T08:17:30Z</time>
      </trkpt>
      <trkpt lat="45.78496" lon="-1.20993">
        <ele>64.2</ele>
        <time>2020-01-26T08:17:31Z</time>
      </trkpt>
      <trkpt lat="45.78495" lon="-1.20993">
        <ele>64</ele>
        <time>2020-01-26T08:17:32Z</time>
      </trkpt>
      <trkpt lat="45.78494" lon="-1.20993">
        <ele>64</ele>
        <time>2020-01-26T08:17:33Z</time>
      </trkpt>
      <trkpt lat="45.78493" lon="-1.20993">
        <ele>64</ele>
        <time>2020-01-26T08:17:34Z</time>
      </trkpt>
      <trkpt lat="45.78492" lon="-1.20993">
        <ele>64</ele>
        <time>2020-01-26T08:17:35Z</time>
      </trkpt>
      <trkpt lat="45.7849" lon="-1.20993">
        <ele>64</ele>
        <time>2020-01-26T08:17:36Z</time>
      </trkpt>
      <trkpt lat="45.78489" lon="-1.20993">
        <ele>64</ele>
        <time>2020-01-26T08:17:37Z</time>
      </trkpt>
      <trkpt lat="45.78488" lon="-1.20993">
        <ele>63.8</ele>
        <time>2020-01-26T08:17:38Z</time>
      </trkpt>
      <trkpt lat="45.78487" lon="-1.20993">
        <ele>63.2</ele>
        <time>2020-01-26T08:17:39Z</time>
      </trkpt>
      <trkpt lat="45.78485" lon="-1.20993">
        <ele>63</ele>
        <time>2020-01-26T08:17:40Z</time>
      </trkpt>
      <trkpt lat="45.78484" lon="-1.20993">
        <ele>62.8</ele>
        <time>2020-01-26T08:17:41Z</time>
      </trkpt>
      <trkpt lat="45.78483" lon="-1.20993">
        <ele>62.8</ele>
        <time>2020-01-26T08:17:42Z</time>
      </trkpt>
      <trkpt lat="45.78482" lon="-1.20993">
        <ele>62.8</ele>
        <time>2020-01-26T08:17:43Z</time>
      </trkpt>
      <trkpt lat="45.7848" lon="-1.20994">
        <ele>63.2</ele>
        <time>2020-01-26T08:17:44Z</time>
      </trkpt>
      <trkpt lat="45.78479" lon="-1.20994">
        <ele>63.4</ele>
        <time>2020-01-26T08:17:45Z</time>
      </trkpt>
      <trkpt lat="45.78477" lon="-1.20993">
        <ele>63.8</ele>
        <time>2020-01-26T08:17:46Z</time>
      </trkpt>
      <trkpt lat="45.78476" lon="-1.20993">
        <ele>64.2</ele>
        <time>2020-01-26T08:17:47Z</time>
      </trkpt>
      <trkpt lat="45.78475" lon="-1.20993">
        <ele>64.6</ele>
        <time>2020-01-26T08:17:48Z</time>
      </trkpt>
      <trkpt lat="45.78474" lon="-1.20993">
        <ele>65</ele>
        <time>2020-01-26T08:17:49Z</time>
      </trkpt>
      <trkpt lat="45.78474" lon="-1.20993">
        <ele>65.2</ele>
        <time>2020-01-26T08:17:50Z</time>
      </trkpt>
      <trkpt lat="45.78474" lon="-1.20993">
        <ele>65.6</ele>
        <time>2020-01-26T08:17:51Z</time>
      </trkpt>
      <trkpt lat="45.78474" lon="-1.20993">
        <ele>66</ele>
        <time>2020-01-26T08:17:52Z</time>
      </trkpt>
      <trkpt lat="45.78474" lon="-1.20993">
        <ele>66.2</ele>
        <time>2020-01-26T08:17:53Z</time>
      </trkpt>
      <trkpt lat="45.78474" lon="-1.20993">
        <ele>66.8</ele>
        <time>2020-01-26T08:17:54Z</time>
      </trkpt>
      <trkpt lat="45.78474" lon="-1.20993">
        <ele>67</ele>
        <time>2020-01-26T08:17:55Z</time>
      </trkpt>
      <trkpt lat="45.78473" lon="-1.20993">
        <ele>67.2</ele>
        <time>2020-01-26T08:17:56Z</time>
      </trkpt>
      <trkpt lat="45.78473" lon="-1.20993">
        <ele>67.4</ele>
        <time>2020-01-26T08:17:57Z</time>
      </trkpt>
      <trkpt lat="45.78473" lon="-1.20993">
        <ele>67.8</ele>
        <time>2020-01-26T08:17:58Z</time>
      </trkpt>
      <trkpt lat="45.78472" lon="-1.20993">
        <ele>68.2</ele>
        <time>2020-01-26T08:17:59Z</time>
      </trkpt>
      <trkpt lat="45.78471" lon="-1.20993">
        <ele>68.4</ele>
        <time>2020-01-26T08:18:00Z</time>
      </trkpt>
      <trkpt lat="45.78471" lon="-1.20993">
        <ele>68.8</ele>
        <time>2020-01-26T08:18:01Z</time>
      </trkpt>
      <trkpt lat="45.78469" lon="-1.20993">
        <ele>69.2</ele>
        <time>2020-01-26T08:18:02Z</time>
      </trkpt>
      <trkpt lat="45.78469" lon="-1.20994">
        <ele>69.6</ele>
        <time>2020-01-26T08:18:03Z</time>
      </trkpt>
      <trkpt lat="45.78468" lon="-1.20994">
        <ele>70</ele>
        <time>2020-01-26T08:18:04Z</time>
      </trkpt>
      <trkpt lat="45.78468" lon="-1.20993">
        <ele>70.2</ele>
        <time>2020-01-26T08:18:05Z</time>
      </trkpt>
      <trkpt lat="45.78468" lon="-1.20993">
        <ele>70.4</ele>
        <time>2020-01-26T08:18:06Z</time>
      </trkpt>
      <trkpt lat="45.78466" lon="-1.20993">
        <ele>70.4</ele>
        <time>2020-01-26T08:18:07Z</time>
      </trkpt>
      <trkpt lat="45.78465" lon="-1.20993">
        <ele>70.6</ele>
        <time>2020-01-26T08:18:08Z</time>
      </trkpt>
      <trkpt lat="45.78465" lon="-1.20993">
        <ele>70.8</ele>
        <time>2020-01-26T08:18:09Z</time>
      </trkpt>
      <trkpt lat="45.78465" lon="-1.20993">
        <ele>71.2</ele>
        <time>2020-01-26T08:18:10Z</time>
      </trkpt>
      <trkpt lat="45.78464" lon="-1.20993">
        <ele>71.4</ele>
        <time>2020-01-26T08:18:11Z</time>
      </trkpt>
      <trkpt lat="45.78463" lon="-1.20993">
        <ele>71.8</ele>
        <time>2020-01-26T08:18:12Z</time>
      </trkpt>
      <trkpt lat="45.78462" lon="-1.20994">
        <ele>72.4</ele>
        <time>2020-01-26T08:18:13Z</time>
      </trkpt>
      <trkpt lat="45.78461" lon="-1.20994">
        <ele>72.8</ele>
        <time>2020-01-26T08:18:14Z</time>
      </trkpt>
      <trkpt lat="45.78461" lon="-1.20994">
        <ele>72.8</ele>
        <time>2020-01-26T08:18:15Z</time>
      </trkpt>
      <trkpt lat="45.7846" lon="-1.20994">
        <ele>72.8</ele>
        <time>2020-01-26T08:18:16Z</time>
      </trkpt>
      <trkpt lat="45.7846" lon="-1.20993">
        <ele>72.8</ele>
        <time>2020-01-26T08:18:17Z</time>
      </trkpt>
      <trkpt lat="45.78459" lon="-1.20994">
        <ele>73</ele>
        <time>2020-01-26T08:18:18Z</time>
      </trkpt>
      <trkpt lat="45.78458" lon="-1.20993">
        <ele>73</ele>
        <time>2020-01-26T08:18:19Z</time>
      </trkpt>
      <trkpt lat="45.78457" lon="-1.20993">
        <ele>73.2</ele>
        <time>2020-01-26T08:18:20Z</time>
      </trkpt>
      <trkpt lat="45.78457" lon="-1.20993">
        <ele>73.4</ele>
        <time>2020-01-26T08:18:21Z</time>
      </trkpt>
      <trkpt lat="45.78456" lon="-1.20993">
        <ele>73.4</ele>
        <time>2020-01-26T08:18:22Z</time>
      </trkpt>
      <trkpt lat="45.78456" lon="-1.20993">
        <ele>73.4</ele>
        <time>2020-01-26T08:18:23Z</time>
      </trkpt>
      <trkpt lat="45.78455" lon="-1.20994">
        <ele>73.4</ele>
        <time>2020-01-26T08:18:24Z</time>
      </trkpt>
      <trkpt lat="45.78455" lon="-1.20994">
        <ele>73.6</ele>
        <time>2020-01-26T08:18:25Z</time>
      </trkpt>
      <trkpt lat="45.78454" lon="-1.20994">
        <ele>73.6</ele>
        <time>2020-01-26T08:18:26Z</time>
      </trkpt>
      <trkpt lat="45.78453" lon="-1.20993">
        <ele>74</ele>
        <time>2020-01-26T08:18:27Z</time>
      </trkpt>
      <trkpt lat="45.78453" lon="-1.20994">
        <ele>74.2</ele>
        <time>2020-01-26T08:18:28Z</time>
      </trkpt>
      <trkpt lat="45.78452" lon="-1.20994">
        <ele>74.8</ele>
        <time>2020-01-26T08:18:29Z</time>
      </trkpt>
      <trkpt lat="45.78451" lon="-1.20994">
        <ele>75.4</ele>
        <time>2020-01-26T08:18:30Z</time>
      </trkpt>
      <trkpt lat="45.7845" lon="-1.20994">
        <ele>75.8</ele>
        <time>2020-01-26T08:18:31Z</time>
      </trkpt>
      <trkpt lat="45.78449" lon="-1.20994">
        <ele>76</ele>
        <time>2020-01-26T08:18:32Z</time>
      </trkpt>
      <trkpt lat="45.78448" lon="-1.20994">
        <ele>76.6</ele>
        <time>2020-01-26T08:18:33Z</time>
      </trkpt>
      <trkpt lat="45.78448" lon="-1.20994">
        <ele>77</ele>
        <time>2020-01-26T08:18:34Z</time>
      </trkpt>
      <trkpt lat="45.78447" lon="-1.20994">
        <ele>77.2</ele>
        <time>2020-01-26T08:18:35Z</time>
      </trkpt>
      <trkpt lat="45.78446" lon="-1.20994">
        <ele>77.6</ele>
        <time>2020-01-26T08:18:36Z</time>
      </trkpt>
      <trkpt lat="45.78445" lon="-1.20994">
        <ele>78</ele>
        <time>2020-01-26T08:18:37Z</time>
      </trkpt>
      <trkpt lat="45.78444" lon="-1.20995">
        <ele>78.2</ele>
        <time>2020-01-26T08:18:38Z</time>
      </trkpt>
      <trkpt lat="45.78444" lon="-1.20994">
        <ele>78.4</ele>
        <time>2020-01-26T08:18:39Z</time>
      </trkpt>
      <trkpt lat="45.78443" lon="-1.20994">
        <ele>78.8</ele>
        <time>2020-01-26T08:18:40Z</time>
      </trkpt>
      <trkpt lat="45.78442" lon="-1.20994">
        <ele>79.4</ele>
        <time>2020-01-26T08:18:41Z</time>
      </trkpt>
      <trkpt lat="45.78441" lon="-1.20995">
        <ele>79.8</ele>
        <time>2020-01-26T08:18:42Z</time>
      </trkpt>
      <trkpt lat="45.7844" lon="-1.20995">
        <ele>80.4</ele>
        <time>2020-01-26T08:18:43Z</time>
      </trkpt>
      <trkpt lat="45.78439" lon="-1.20995">
        <ele>80.8</ele>
        <time>2020-01-26T08:18:44Z</time>
      </trkpt>
      <trkpt lat="45.78438" lon="-1.20995">
        <ele>80.8</ele>
        <time>2020-01-26T08:18:45Z</time>
      </trkpt>
      <trkpt lat="45.78437" lon="-1.20995">
        <ele>80.8</ele>
        <time>2020-01-26T08:18:46Z</time>
      </trkpt>
      <trkpt lat="45.78436" lon="-1.20995">
        <ele>81.2</ele>
        <time>2020-01-26T08:18:47Z</time>
      </trkpt>
      <trkpt lat="45.78435" lon="-1.20995">
        <ele>81.4</ele>
        <time>2020-01-26T08:18:48Z</time>
      </trkpt>
      <trkpt lat="45.78434" lon="-1.20995">
        <ele>81.6</ele>
        <time>2020-01-26T08:18:49Z</time>
      </trkpt>
      <trkpt lat="45.78434" lon="-1.20995">
        <ele>81.6</ele>
        <time>2020-01-26T08:18:50Z</time>
      </trkpt>
      <trkpt lat="45.78432" lon="-1.20995">
        <ele>81.8</ele>
        <time>2020-01-26T08:18:51Z</time>
      </trkpt>
      <trkpt lat="45.78432" lon="-1.20995">
        <ele>81.8</ele>
        <time>2020-01-26T08:18:52Z</time>
      </trkpt>
      <trkpt lat="45.78431" lon="-1.20995">
        <ele>81.8</ele>
        <time>2020-01-26T08:18:53Z</time>
      </trkpt>
      <trkpt lat="45.7843" lon="-1.20996">
        <ele>82</ele>
        <time>2020-01-26T08:18:54Z</time>
      </trkpt>
      <trkpt lat="45.78429" lon="-1.20996">
        <ele>82.2</ele>
        <time>2020-01-26T08:18:55Z</time>
      </trkpt>
      <trkpt lat="45.78429" lon="-1.20996">
        <ele>82.4</ele>
        <time>2020-01-26T08:18:56Z</time>
      </trkpt>
      <trkpt lat="45.78428" lon="-1.20996">
        <ele>82.6</ele>
        <time>2020-01-26T08:18:57Z</time>
      </trkpt>
      <trkpt lat="45.78427" lon="-1.20995">
        <ele>83</ele>
        <time>2020-01-26T08:18:58Z</time>
      </trkpt>
      <trkpt lat="45.78426" lon="-1.20995">
        <ele>83.2</ele>
        <time>2020-01-26T08:18:59Z</time>
      </trkpt>
      <trkpt lat="45.78425" lon="-1.20995">
        <ele>83.4</ele>
        <time>2020-01-26T08:19:00Z</time>
      </trkpt>
      <trkpt lat="45.78424" lon="-1.20995">
        <ele>83.6</ele>
        <time>2020-01-26T08:19:01Z</time>
      </trkpt>
      <trkpt lat="45.78423" lon="-1.20995">
        <ele>83.6</ele>
        <time>2020-01-26T08:19:02Z</time>
      </trkpt>
      <trkpt lat="45.78422" lon="-1.20996">
        <ele>83.8</ele>
        <time>2020-01-26T08:19:03Z</time>
      </trkpt>
      <trkpt lat="45.78421" lon="-1.20996">
        <ele>84</ele>
        <time>2020-01-26T08:19:04Z</time>
      </trkpt>
      <trkpt lat="45.7842" lon="-1.20996">
        <ele>84.4</ele>
        <time>2020-01-26T08:19:05Z</time>
      </trkpt>
      <trkpt lat="45.78419" lon="-1.20996">
        <ele>84.4</ele>
        <time>2020-01-26T08:19:06Z</time>
      </trkpt>
      <trkpt lat="45.78418" lon="-1.20996">
        <ele>84.6</ele>
        <time>2020-01-26T08:19:07Z</time>
      </trkpt>
      <trkpt lat="45.78416" lon="-1.20996">
        <ele>84.8</ele>
        <time>2020-01-26T08:19:08Z</time>
      </trkpt>
      <trkpt lat="45.78415" lon="-1.20996">
        <ele>84.8</ele>
        <time>2020-01-26T08:19:09Z</time>
      </trkpt>
      <trkpt lat="45.78415" lon="-1.20996">
        <ele>84.8</ele>
        <time>2020-01-26T08:19:10Z</time>
      </trkpt>
      <trkpt lat="45.78413" lon="-1.20996">
        <ele>84.8</ele>
        <time>2020-01-26T08:19:11Z</time>
      </trkpt>
      <trkpt lat="45.78412" lon="-1.20996">
        <ele>85</ele>
        <time>2020-01-26T08:19:12Z</time>
      </trkpt>
      <trkpt lat="45.7841" lon="-1.20996">
        <ele>85</ele>
        <time>2020-01-26T08:19:13Z</time>
      </trkpt>
      <trkpt lat="45.78409" lon="-1.20996">
        <ele>85.2</ele>
        <time>2020-01-26T08:19:14Z</time>
      </trkpt>
      <trkpt lat="45.78407" lon="-1.20996">
        <ele>85.4</ele>
        <time>2020-01-26T08:19:15Z</time>
      </trkpt>
      <trkpt lat="45.78406" lon="-1.20996">
        <ele>85.2</ele>
        <time>2020-01-26T08:19:16Z</time>
      </trkpt>
      <trkpt lat="45.78405" lon="-1.20995">
        <ele>85.2</ele>
        <time>2020-01-26T08:19:17Z</time>
      </trkpt>
      <trkpt lat="45.78403" lon="-1.20995">
        <ele>85.2</ele>
        <time>2020-01-26T08:19:18Z</time>
      </trkpt>
      <trkpt lat="45.78401" lon="-1.20995">
        <ele>85.2</ele>
        <time>2020-01-26T08:19:19Z</time>
      </trkpt>
      <trkpt lat="45.78399" lon="-1.20995">
        <ele>85</ele>
        <time>2020-01-26T08:19:20Z</time>
      </trkpt>
      <trkpt lat="45.78397" lon="-1.20995">
        <ele>85</ele>
        <time>2020-01-26T08:19:21Z</time>
      </trkpt>
      <trkpt lat="45.78395" lon="-1.20995">
        <ele>85</ele>
        <time>2020-01-26T08:19:22Z</time>
      </trkpt>
      <trkpt lat="45.78394" lon="-1.20996">
        <ele>85</ele>
        <time>2020-01-26T08:19:23Z</time>
      </trkpt>
      <trkpt lat="45.78392" lon="-1.20996">
        <ele>85</ele>
        <time>2020-01-26T08:19:24Z</time>
      </trkpt>
      <trkpt lat="45.7839" lon="-1.20996">
        <ele>85</ele>
        <time>2020-01-26T08:19:25Z</time>
      </trkpt>
      <trkpt lat="45.78387" lon="-1.20996">
        <ele>85</ele>
        <time>2020-01-26T08:19:26Z</time>
      </trkpt>
      <trkpt lat="45.78385" lon="-1.20997">
        <ele>84.8</ele>
        <time>2020-01-26T08:19:27Z</time>
      </trkpt>
      <trkpt lat="45.78382" lon="-1.20997">
        <ele>84.6</ele>
        <time>2020-01-26T08:19:28Z</time>
      </trkpt>
      <trkpt lat="45.78379" lon="-1.20997">
        <ele>84.6</ele>
        <time>2020-01-26T08:19:29Z</time>
      </trkpt>
      <trkpt lat="45.78377" lon="-1.20997">
        <ele>84.4</ele>
        <time>2020-01-26T08:19:30Z</time>
      </trkpt>
      <trkpt lat="45.78374" lon="-1.20997">
        <ele>84.4</ele>
        <time>2020-01-26T08:19:31Z</time>
      </trkpt>
      <trkpt lat="45.78371" lon="-1.20997">
        <ele>84.2</ele>
        <time>2020-01-26T08:19:32Z</time>
      </trkpt>
      <trkpt lat="45.78368" lon="-1.20997">
        <ele>84</ele>
        <time>2020-01-26T08:19:33Z</time>
      </trkpt>
      <trkpt lat="45.78364" lon="-1.20998">
        <ele>83.6</ele>
        <time>2020-01-26T08:19:34Z</time>
      </trkpt>
      <trkpt lat="45.7836" lon="-1.20998">
        <ele>83.2</ele>
        <time>2020-01-26T08:19:35Z</time>
      </trkpt>
      <trkpt lat="45.78357" lon="-1.20999">
        <ele>82.6</ele>
        <time>2020-01-26T08:19:36Z</time>
      </trkpt>
      <trkpt lat="45.78352" lon="-1.20999">
        <ele>82.2</ele>
        <time>2020-01-26T08:19:37Z</time>
      </trkpt>
      <trkpt lat="45.78348" lon="-1.20999">
        <ele>82</ele>
        <time>2020-01-26T08:19:38Z</time>
      </trkpt>
      <trkpt lat="45.78343" lon="-1.21">
        <ele>81.4</ele>
        <time>2020-01-26T08:19:39Z</time>
      </trkpt>
      <trkpt lat="45.78338" lon="-1.21001">
        <ele>80.8</ele>
        <time>2020-01-26T08:19:40Z</time>
      </trkpt>
      <trkpt lat="45.78332" lon="-1.21001">
        <ele>80</ele>
        <time>2020-01-26T08:19:41Z</time>
      </trkpt>
      <trkpt lat="45.78325" lon="-1.21002">
        <ele>79.2</ele>
        <time>2020-01-26T08:19:42Z</time>
      </trkpt>
      <trkpt lat="45.78318" lon="-1.21002">
        <ele>78.2</ele>
        <time>2020-01-26T08:19:43Z</time>
      </trkpt>
      <trkpt lat="45.7831" lon="-1.21002">
        <ele>76.8</ele>
        <time>2020-01-26T08:19:44Z</time>
      </trkpt>
      <trkpt lat="45.78301" lon="-1.21003">
        <ele>75.8</ele>
        <time>2020-01-26T08:19:45Z</time>
      </trkpt>
      <trkpt lat="45.78291" lon="-1.21003">
        <ele>74.4</ele>
        <time>2020-01-26T08:19:46Z</time>
      </trkpt>
      <trkpt lat="45.78281" lon="-1.21002">
        <ele>72.8</ele>
        <time>2020-01-26T08:19:47Z</time>
      </trkpt>
      <trkpt lat="45.78269" lon="-1.21002">
        <ele>71.2</ele>
        <time>2020-01-26T08:19:48Z</time>
      </trkpt>
      <trkpt lat="45.78258" lon="-1.21002">
        <ele>69.8</ele>
        <time>2020-01-26T08:19:49Z</time>
      </trkpt>
      <trkpt lat="45.78247" lon="-1.21003">
        <ele>68.4</ele>
        <time>2020-01-26T08:19:50Z</time>
      </trkpt>
      <trkpt lat="45.78236" lon="-1.21004">
        <ele>67</ele>
        <time>2020-01-26T08:19:51Z</time>
      </trkpt>
      <trkpt lat="45.78229" lon="-1.21004">
        <ele>66</ele>
        <time>2020-01-26T08:19:52Z</time>
      </trkpt>
      <trkpt lat="45.78224" lon="-1.21005">
        <ele>65</ele>
        <time>2020-01-26T08:19:53Z</time>
      </trkpt>
      <trkpt lat="45.78222" lon="-1.21007">
        <ele>64.8</ele>
        <time>2020-01-26T08:19:54Z</time>
      </trkpt>
      <trkpt lat="45.7822" lon="-1.21011">
        <ele>64</ele>
        <time>2020-01-26T08:19:55Z</time>
      </trkpt>
      <trkpt lat="45.7822" lon="-1.21014">
        <ele>63.4</ele>
        <time>2020-01-26T08:19:56Z</time>
      </trkpt>
      <trkpt lat="45.78221" lon="-1.2102">
        <ele>62.6</ele>
        <time>2020-01-26T08:19:57Z</time>
      </trkpt>
      <trkpt lat="45.78223" lon="-1.21026">
        <ele>62</ele>
        <time>2020-01-26T08:19:58Z</time>
      </trkpt>
      <trkpt lat="45.78225" lon="-1.21033">
        <ele>61.2</ele>
        <time>2020-01-26T08:19:59Z</time>
      </trkpt>
      <trkpt lat="45.78227" lon="-1.21041">
        <ele>60.4</ele>
        <time>2020-01-26T08:20:00Z</time>
      </trkpt>
      <trkpt lat="45.78229" lon="-1.2105">
        <ele>59.8</ele>
        <time>2020-01-26T08:20:01Z</time>
      </trkpt>
      <trkpt lat="45.78231" lon="-1.2106">
        <ele>59.4</ele>
        <time>2020-01-26T08:20:02Z</time>
      </trkpt>
      <trkpt lat="45.78233" lon="-1.2107">
        <ele>58.8</ele>
        <time>2020-01-26T08:20:03Z</time>
      </trkpt>
      <trkpt lat="45.78236" lon="-1.21081">
        <ele>58.4</ele>
        <time>2020-01-26T08:20:04Z</time>
      </trkpt>
      <trkpt lat="45.78239" lon="-1.21091">
        <ele>58</ele>
        <time>2020-01-26T08:20:05Z</time>
      </trkpt>
      <trkpt lat="45.78243" lon="-1.211">
        <ele>57.4</ele>
        <time>2020-01-26T08:20:06Z</time>
      </trkpt>
      <trkpt lat="45.78247" lon="-1.2111">
        <ele>57</ele>
        <time>2020-01-26T08:20:07Z</time>
      </trkpt>
      <trkpt lat="45.7825" lon="-1.2112">
        <ele>56.8</ele>
        <time>2020-01-26T08:20:08Z</time>
      </trkpt>
      <trkpt lat="45.78254" lon="-1.21128">
        <ele>56.4</ele>
        <time>2020-01-26T08:20:09Z</time>
      </trkpt>
      <trkpt lat="45.78257" lon="-1.21135">
        <ele>56.2</ele>
        <time>2020-01-26T08:20:10Z</time>
      </trkpt>
      <trkpt lat="45.7826" lon="-1.21142">
        <ele>56.2</ele>
        <time>2020-01-26T08:20:11Z</time>
      </trkpt>
      <trkpt lat="45.78263" lon="-1.2115">
        <ele>56</ele>
        <time>2020-01-26T08:20:12Z</time>
      </trkpt>
      <trkpt lat="45.78265" lon="-1.21157">
        <ele>56</ele>
        <time>2020-01-26T08:20:13Z</time>
      </trkpt>
      <trkpt lat="45.78266" lon="-1.21164">
        <ele>56</ele>
        <time>2020-01-26T08:20:14Z</time>
      </trkpt>
      <trkpt lat="45.78267" lon="-1.21171">
        <ele>55.8</ele>
        <time>2020-01-26T08:20:15Z</time>
      </trkpt>
      <trkpt lat="45.78267" lon="-1.2118">
        <ele>55.8</ele>
        <time>2020-01-26T08:20:16Z</time>
      </trkpt>
      <trkpt lat="45.78268" lon="-1.21189">
        <ele>55.6</ele>
        <time>2020-01-26T08:20:17Z</time>
      </trkpt>
      <trkpt lat="45.7827" lon="-1.21196">
        <ele>55.6</ele>
        <time>2020-01-26T08:20:18Z</time>
      </trkpt>
      <trkpt lat="45.78274" lon="-1.21202">
        <ele>55.8</ele>
        <time>2020-01-26T08:20:19Z</time>
      </trkpt>
      <trkpt lat="45.78276" lon="-1.2121">
        <ele>55.6</ele>
        <time>2020-01-26T08:20:20Z</time>
      </trkpt>
      <trkpt lat="45.78278" lon="-1.21217">
        <ele>56</ele>
        <time>2020-01-26T08:20:21Z</time>
      </trkpt>
      <trkpt lat="45.78281" lon="-1.21225">
        <ele>56.2</ele>
        <time>2020-01-26T08:20:22Z</time>
      </trkpt>
      <trkpt lat="45.78284" lon="-1.21233">
        <ele>56.6</ele>
        <time>2020-01-26T08:20:23Z</time>
      </trkpt>
      <trkpt lat="45.78289" lon="-1.21239">
        <ele>56.8</ele>
        <time>2020-01-26T08:20:24Z</time>
      </trkpt>
      <trkpt lat="45.78293" lon="-1.21247">
        <ele>56.8</ele>
        <time>2020-01-26T08:20:25Z</time>
      </trkpt>
      <trkpt lat="45.78298" lon="-1.21253">
        <ele>57.2</ele>
        <time>2020-01-26T08:20:26Z</time>
      </trkpt>
      <trkpt lat="45.78302" lon="-1.21258">
        <ele>57.4</ele>
        <time>2020-01-26T08:20:27Z</time>
      </trkpt>
      <trkpt lat="45.78307" lon="-1.21261">
        <ele>57.6</ele>
        <time>2020-01-26T08:20:28Z</time>
      </trkpt>
      <trkpt lat="45.78312" lon="-1.21265">
        <ele>57.6</ele>
        <time>2020-01-26T08:20:29Z</time>
      </trkpt>
      <trkpt lat="45.78317" lon="-1.2127">
        <ele>57.6</ele>
        <time>2020-01-26T08:20:30Z</time>
      </trkpt>
      <trkpt lat="45.78321" lon="-1.21275">
        <ele>57.8</ele>
        <time>2020-01-26T08:20:31Z</time>
      </trkpt>
      <trkpt lat="45.78325" lon="-1.21282">
        <ele>58.2</ele>
        <time>2020-01-26T08:20:32Z</time>
      </trkpt>
      <trkpt lat="45.78331" lon="-1.21287">
        <ele>58.6</ele>
        <time>2020-01-26T08:20:33Z</time>
      </trkpt>
      <trkpt lat="45.78335" lon="-1.21291">
        <ele>59</ele>
        <time>2020-01-26T08:20:34Z</time>
      </trkpt>
      <trkpt lat="45.7834" lon="-1.21294">
        <ele>59.2</ele>
        <time>2020-01-26T08:20:35Z</time>
      </trkpt>
      <trkpt lat="45.78344" lon="-1.21297">
        <ele>59.4</ele>
        <time>2020-01-26T08:20:36Z</time>
      </trkpt>
      <trkpt lat="45.78348" lon="-1.21301">
        <ele>59.6</ele>
        <time>2020-01-26T08:20:37Z</time>
      </trkpt>
      <trkpt lat="45.78351" lon="-1.21304">
        <ele>59.4</ele>
        <time>2020-01-26T08:20:38Z</time>
      </trkpt>
      <trkpt lat="45.78353" lon="-1.21307">
        <ele>59.4</ele>
        <time>2020-01-26T08:20:39Z</time>
      </trkpt>
      <trkpt lat="45.78358" lon="-1.21309">
        <ele>59.4</ele>
        <time>2020-01-26T08:20:40Z</time>
      </trkpt>
      <trkpt lat="45.78365" lon="-1.2131">
        <ele>59.6</ele>
        <time>2020-01-26T08:20:41Z</time>
      </trkpt>
      <trkpt lat="45.7837" lon="-1.21311">
        <ele>59.8</ele>
        <time>2020-01-26T08:20:42Z</time>
      </trkpt>
      <trkpt lat="45.78375" lon="-1.21311">
        <ele>59.8</ele>
        <time>2020-01-26T08:20:43Z</time>
      </trkpt>
      <trkpt lat="45.78382" lon="-1.21312">
        <ele>59.6</ele>
        <time>2020-01-26T08:20:44Z</time>
      </trkpt>
      <trkpt lat="45.78389" lon="-1.21313">
        <ele>59.4</ele>
        <time>2020-01-26T08:20:45Z</time>
      </trkpt>
      <trkpt lat="45.78396" lon="-1.21316">
        <ele>59.6</ele>
        <time>2020-01-26T08:20:46Z</time>
      </trkpt>
      <trkpt lat="45.78402" lon="-1.21319">
        <ele>59.6</ele>
        <time>2020-01-26T08:20:47Z</time>
      </trkpt>
      <trkpt lat="45.78406" lon="-1.21324">
        <ele>59.6</ele>
        <time>2020-01-26T08:20:48Z</time>
      </trkpt>
      <trkpt lat="45.7841" lon="-1.2133">
        <ele>59.6</ele>
        <time>2020-01-26T08:20:49Z</time>
      </trkpt>
      <trkpt lat="45.78413" lon="-1.21336">
        <ele>59.8</ele>
        <time>2020-01-26T08:20:50Z</time>
      </trkpt>
      <trkpt lat="45.78416" lon="-1.21342">
        <ele>59.6</ele>
        <time>2020-01-26T08:20:51Z</time>
      </trkpt>
      <trkpt lat="45.7842" lon="-1.21348">
        <ele>59.4</ele>
        <time>2020-01-26T08:20:52Z</time>
      </trkpt>
      <trkpt lat="45.78423" lon="-1.21354">
        <ele>59.6</ele>
        <time>2020-01-26T08:20:53Z</time>
      </trkpt>
      <trkpt lat="45.78426" lon="-1.21361">
        <ele>59.6</ele>
        <time>2020-01-26T08:20:54Z</time>
      </trkpt>
      <trkpt lat="45.78429" lon="-1.21367">
        <ele>59.8</ele>
        <time>2020-01-26T08:20:55Z</time>
      </trkpt>
      <trkpt lat="45.78432" lon="-1.21373">
        <ele>60</ele>
        <time>2020-01-26T08:20:56Z</time>
      </trkpt>
      <trkpt lat="45.78435" lon="-1.2138">
        <ele>60</ele>
        <time>2020-01-26T08:20:57Z</time>
      </trkpt>
      <trkpt lat="45.78437" lon="-1.21386">
        <ele>60.4</ele>
        <time>2020-01-26T08:20:58Z</time>
      </trkpt>
      <trkpt lat="45.7844" lon="-1.21392">
        <ele>60.4</ele>
        <time>2020-01-26T08:20:59Z</time>
      </trkpt>
      <trkpt lat="45.78442" lon="-1.21399">
        <ele>60.4</ele>
        <time>2020-01-26T08:21:00Z</time>
      </trkpt>
      <trkpt lat="45.78444" lon="-1.21405">
        <ele>60.2</ele>
        <time>2020-01-26T08:21:01Z</time>
      </trkpt>
      <trkpt lat="45.78447" lon="-1.21412">
        <ele>60.2</ele>
        <time>2020-01-26T08:21:02Z</time>
      </trkpt>
      <trkpt lat="45.7845" lon="-1.21417">
        <ele>60.4</ele>
        <time>2020-01-26T08:21:03Z</time>
      </trkpt>
      <trkpt lat="45.78454" lon="-1.21423">
        <ele>60.6</ele>
        <time>2020-01-26T08:21:04Z</time>
      </trkpt>
      <trkpt lat="45.78459" lon="-1.21428">
        <ele>60.4</ele>
        <time>2020-01-26T08:21:05Z</time>
      </trkpt>
      <trkpt lat="45.78464" lon="-1.21433">
        <ele>60.4</ele>
        <time>2020-01-26T08:21:06Z</time>
      </trkpt>
      <trkpt lat="45.78469" lon="-1.2144">
        <ele>60.4</ele>
        <time>2020-01-26T08:21:07Z</time>
      </trkpt>
      <trkpt lat="45.78474" lon="-1.21447">
        <ele>60.6</ele>
        <time>2020-01-26T08:21:08Z</time>
      </trkpt>
      <trkpt lat="45.78477" lon="-1.21454">
        <ele>60.2</ele>
        <time>2020-01-26T08:21:09Z</time>
      </trkpt>
      <trkpt lat="45.78482" lon="-1.2146">
        <ele>60</ele>
        <time>2020-01-26T08:21:10Z</time>
      </trkpt>
      <trkpt lat="45.78487" lon="-1.21466">
        <ele>60</ele>
        <time>2020-01-26T08:21:11Z</time>
      </trkpt>
      <trkpt lat="45.78492" lon="-1.21471">
        <ele>60</ele>
        <time>2020-01-26T08:21:12Z</time>
      </trkpt>
      <trkpt lat="45.78496" lon="-1.21476">
        <ele>59.6</ele>
        <time>2020-01-26T08:21:13Z</time>
      </trkpt>
      <trkpt lat="45.785" lon="-1.21481">
        <ele>59.6</ele>
        <time>2020-01-26T08:21:14Z</time>
      </trkpt>
      <trkpt lat="45.78504" lon="-1.21487">
        <ele>59.4</ele>
        <time>2020-01-26T08:21:15Z</time>
      </trkpt>
      <trkpt lat="45.78507" lon="-1.21492">
        <ele>59</ele>
        <time>2020-01-26T08:21:16Z</time>
      </trkpt>
      <trkpt lat="45.78509" lon="-1.21495">
        <ele>58.8</ele>
        <time>2020-01-26T08:21:17Z</time>
      </trkpt>
      <trkpt lat="45.7851" lon="-1.21499">
        <ele>58.6</ele>
        <time>2020-01-26T08:21:18Z</time>
      </trkpt>
      <trkpt lat="45.78511" lon="-1.21501">
        <ele>58.4</ele>
        <time>2020-01-26T08:21:19Z</time>
      </trkpt>
      <trkpt lat="45.78508" lon="-1.21503">
        <ele>58.6</ele>
        <time>2020-01-26T08:21:20Z</time>
      </trkpt>
      <trkpt lat="45.78505" lon="-1.21503">
        <ele>58.6</ele>
        <time>2020-01-26T08:21:21Z</time>
      </trkpt>
      <trkpt lat="45.78502" lon="-1.21503">
        <ele>58.8</ele>
        <time>2020-01-26T08:21:22Z</time>
      </trkpt>
      <trkpt lat="45.78498" lon="-1.21503">
        <ele>58.6</ele>
        <time>2020-01-26T08:21:23Z</time>
      </trkpt>
      <trkpt lat="45.78494" lon="-1.21502">
        <ele>58.4</ele>
        <time>2020-01-26T08:21:24Z</time>
      </trkpt>
      <trkpt lat="45.7849" lon="-1.21502">
        <ele>58.4</ele>
        <time>2020-01-26T08:21:25Z</time>
      </trkpt>
      <trkpt lat="45.78486" lon="-1.21502">
        <ele>57.6</ele>
        <time>2020-01-26T08:21:26Z</time>
      </trkpt>
      <trkpt lat="45.78482" lon="-1.21503">
        <ele>57.2</ele>
        <time>2020-01-26T08:21:27Z</time>
      </trkpt>
      <trkpt lat="45.78477" lon="-1.21503">
        <ele>57</ele>
        <time>2020-01-26T08:21:28Z</time>
      </trkpt>
      <trkpt lat="45.78472" lon="-1.21503">
        <ele>56.8</ele>
        <time>2020-01-26T08:21:29Z</time>
      </trkpt>
      <trkpt lat="45.78468" lon="-1.21503">
        <ele>56.8</ele>
        <time>2020-01-26T08:21:30Z</time>
      </trkpt>
      <trkpt lat="45.78463" lon="-1.21504">
        <ele>56.8</ele>
        <time>2020-01-26T08:21:31Z</time>
      </trkpt>
      <trkpt lat="45.78458" lon="-1.21504">
        <ele>57.2</ele>
        <time>2020-01-26T08:21:32Z</time>
      </trkpt>
      <trkpt lat="45.78454" lon="-1.21505">
        <ele>57.4</ele>
        <time>2020-01-26T08:21:33Z</time>
      </trkpt>
      <trkpt lat="45.78449" lon="-1.21505">
        <ele>57.2</ele>
        <time>2020-01-26T08:21:34Z</time>
      </trkpt>
      <trkpt lat="45.78445" lon="-1.21505">
        <ele>57.4</ele>
        <time>2020-01-26T08:21:35Z</time>
      </trkpt>
      <trkpt lat="45.78441" lon="-1.21505">
        <ele>57.6</ele>
        <time>2020-01-26T08:21:36Z</time>
      </trkpt>
      <trkpt lat="45.78437" lon="-1.21506">
        <ele>58</ele>
        <time>2020-01-26T08:21:37Z</time>
      </trkpt>
      <trkpt lat="45.78433" lon="-1.21506">
        <ele>58.2</ele>
        <time>2020-01-26T08:21:38Z</time>
      </trkpt>
      <trkpt lat="45.78429" lon="-1.21506">
        <ele>58.6</ele>
        <time>2020-01-26T08:21:39Z</time>
      </trkpt>
      <trkpt lat="45.78425" lon="-1.21506">
        <ele>59</ele>
        <time>2020-01-26T08:21:40Z</time>
      </trkpt>
      <trkpt lat="45.78421" lon="-1.21506">
        <ele>59</ele>
        <time>2020-01-26T08:21:41Z</time>
      </trkpt>
      <trkpt lat="45.78418" lon="-1.21506">
        <ele>59</ele>
        <time>2020-01-26T08:21:42Z</time>
      </trkpt>
      <trkpt lat="45.78414" lon="-1.21507">
        <ele>59.2</ele>
        <time>2020-01-26T08:21:43Z</time>
      </trkpt>
      <trkpt lat="45.7841" lon="-1.21506">
        <ele>59.4</ele>
        <time>2020-01-26T08:21:44Z</time>
      </trkpt>
      <trkpt lat="45.78407" lon="-1.21507">
        <ele>59.6</ele>
        <time>2020-01-26T08:21:45Z</time>
      </trkpt>
      <trkpt lat="45.78403" lon="-1.21507">
        <ele>59.8</ele>
        <time>2020-01-26T08:21:46Z</time>
      </trkpt>
      <trkpt lat="45.78399" lon="-1.21507">
        <ele>59.8</ele>
        <time>2020-01-26T08:21:47Z</time>
      </trkpt>
      <trkpt lat="45.78395" lon="-1.21507">
        <ele>60.2</ele>
        <time>2020-01-26T08:21:48Z</time>
      </trkpt>
      <trkpt lat="45.78392" lon="-1.21507">
        <ele>60.4</ele>
        <time>2020-01-26T08:21:49Z</time>
      </trkpt>
      <trkpt lat="45.7839" lon="-1.21507">
        <ele>60.4</ele>
        <time>2020-01-26T08:21:50Z</time>
      </trkpt>
      <trkpt lat="45.78387" lon="-1.21507">
        <ele>60</ele>
        <time>2020-01-26T08:21:51Z</time>
      </trkpt>
      <trkpt lat="45.78384" lon="-1.21506">
        <ele>59.2</ele>
        <time>2020-01-26T08:21:52Z</time>
      </trkpt>
      <trkpt lat="45.78381" lon="-1.21507">
        <ele>58.2</ele>
        <time>2020-01-26T08:21:53Z</time>
      </trkpt>
      <trkpt lat="45.78378" lon="-1.21507">
        <ele>57.6</ele>
        <time>2020-01-26T08:21:54Z</time>
      </trkpt>
      <trkpt lat="45.78375" lon="-1.21507">
        <ele>57.6</ele>
        <time>2020-01-26T08:21:55Z</time>
      </trkpt>
      <trkpt lat="45.78371" lon="-1.21507">
        <ele>57.6</ele>
        <time>2020-01-26T08:21:56Z</time>
      </trkpt>
      <trkpt lat="45.78368" lon="-1.21507">
        <ele>57.6</ele>
        <time>2020-01-26T08:21:57Z</time>
      </trkpt>
      <trkpt lat="45.78365" lon="-1.21507">
        <ele>57.8</ele>
        <time>2020-01-26T08:21:58Z</time>
      </trkpt>
      <trkpt lat="45.78362" lon="-1.21507">
        <ele>57.8</ele>
        <time>2020-01-26T08:21:59Z</time>
      </trkpt>
      <trkpt lat="45.78358" lon="-1.21507">
        <ele>57.8</ele>
        <time>2020-01-26T08:22:00Z</time>
      </trkpt>
      <trkpt lat="45.78354" lon="-1.21507">
        <ele>58</ele>
        <time>2020-01-26T08:22:01Z</time>
      </trkpt>
      <trkpt lat="45.78351" lon="-1.21507">
        <ele>58.2</ele>
        <time>2020-01-26T08:22:02Z</time>
      </trkpt>
      <trkpt lat="45.78347" lon="-1.21507">
        <ele>58.4</ele>
        <time>2020-01-26T08:22:03Z</time>
      </trkpt>
      <trkpt lat="45.78344" lon="-1.21507">
        <ele>58.6</ele>
        <time>2020-01-26T08:22:04Z</time>
      </trkpt>
      <trkpt lat="45.78341" lon="-1.21507">
        <ele>58.6</ele>
        <time>2020-01-26T08:22:05Z</time>
      </trkpt>
      <trkpt lat="45.78337" lon="-1.21508">
        <ele>58.8</ele>
        <time>2020-01-26T08:22:06Z</time>
      </trkpt>
      <trkpt lat="45.78333" lon="-1.21508">
        <ele>58.6</ele>
        <time>2020-01-26T08:22:07Z</time>
      </trkpt>
      <trkpt lat="45.7833" lon="-1.21508">
        <ele>58.4</ele>
        <time>2020-01-26T08:22:08Z</time>
      </trkpt>
      <trkpt lat="45.78327" lon="-1.21508">
        <ele>58.2</ele>
        <time>2020-01-26T08:22:09Z</time>
      </trkpt>
      <trkpt lat="45.78324" lon="-1.21509">
        <ele>58.2</ele>
        <time>2020-01-26T08:22:10Z</time>
      </trkpt>
      <trkpt lat="45.78321" lon="-1.21509">
        <ele>58</ele>
        <time>2020-01-26T08:22:11Z</time>
      </trkpt>
      <trkpt lat="45.78319" lon="-1.21509">
        <ele>57.4</ele>
        <time>2020-01-26T08:22:12Z</time>
      </trkpt>
      <trkpt lat="45.78315" lon="-1.2151">
        <ele>57.4</ele>
        <time>2020-01-26T08:22:13Z</time>
      </trkpt>
      <trkpt lat="45.78313" lon="-1.21511">
        <ele>57.6</ele>
        <time>2020-01-26T08:22:14Z</time>
      </trkpt>
      <trkpt lat="45.7831" lon="-1.2151">
        <ele>58</ele>
        <time>2020-01-26T08:22:15Z</time>
      </trkpt>
      <trkpt lat="45.78307" lon="-1.21511">
        <ele>58.4</ele>
        <time>2020-01-26T08:22:16Z</time>
      </trkpt>
      <trkpt lat="45.78304" lon="-1.21511">
        <ele>58.8</ele>
        <time>2020-01-26T08:22:17Z</time>
      </trkpt>
      <trkpt lat="45.78302" lon="-1.21511">
        <ele>58.6</ele>
        <time>2020-01-26T08:22:18Z</time>
      </trkpt>
      <trkpt lat="45.78299" lon="-1.21511">
        <ele>59</ele>
        <time>2020-01-26T08:22:19Z</time>
      </trkpt>
      <trkpt lat="45.78296" lon="-1.21512">
        <ele>59</ele>
        <time>2020-01-26T08:22:20Z</time>
      </trkpt>
      <trkpt lat="45.78294" lon="-1.21512">
        <ele>59.4</ele>
        <time>2020-01-26T08:22:21Z</time>
      </trkpt>
      <trkpt lat="45.78291" lon="-1.21512">
        <ele>60</ele>
        <time>2020-01-26T08:22:22Z</time>
      </trkpt>
      <trkpt lat="45.78288" lon="-1.21512">
        <ele>60.4</ele>
        <time>2020-01-26T08:22:23Z</time>
      </trkpt>
      <trkpt lat="45.78285" lon="-1.21513">
        <ele>60.8</ele>
        <time>2020-01-26T08:22:24Z</time>
      </trkpt>
      <trkpt lat="45.78282" lon="-1.21513">
        <ele>61.4</ele>
        <time>2020-01-26T08:22:25Z</time>
      </trkpt>
      <trkpt lat="45.78279" lon="-1.21513">
        <ele>61.8</ele>
        <time>2020-01-26T08:22:26Z</time>
      </trkpt>
      <trkpt lat="45.78276" lon="-1.21514">
        <ele>62.4</ele>
        <time>2020-01-26T08:22:27Z</time>
      </trkpt>
      <trkpt lat="45.78274" lon="-1.21514">
        <ele>62.8</ele>
        <time>2020-01-26T08:22:28Z</time>
      </trkpt>
      <trkpt lat="45.78271" lon="-1.21514">
        <ele>63.4</ele>
        <time>2020-01-26T08:22:29Z</time>
      </trkpt>
      <trkpt lat="45.78269" lon="-1.21514">
        <ele>63.8</ele>
        <time>2020-01-26T08:22:30Z</time>
      </trkpt>
      <trkpt lat="45.78266" lon="-1.21514">
        <ele>64</ele>
        <time>2020-01-26T08:22:31Z</time>
      </trkpt>
      <trkpt lat="45.78263" lon="-1.21513">
        <ele>64.4</ele>
        <time>2020-01-26T08:22:32Z</time>
      </trkpt>
      <trkpt lat="45.7826" lon="-1.21513">
        <ele>64.8</ele>
        <time>2020-01-26T08:22:33Z</time>
      </trkpt>
      <trkpt lat="45.78257" lon="-1.21513">
        <ele>65</ele>
        <time>2020-01-26T08:22:34Z</time>
      </trkpt>
      <trkpt lat="45.78255" lon="-1.21514">
        <ele>65.6</ele>
        <time>2020-01-26T08:22:35Z</time>
      </trkpt>
      <trkpt lat="45.78252" lon="-1.21514">
        <ele>65.8</ele>
        <time>2020-01-26T08:22:36Z</time>
      </trkpt>
      <trkpt lat="45.78249" lon="-1.21515">
        <ele>66.2</ele>
        <time>2020-01-26T08:22:37Z</time>
      </trkpt>
      <trkpt lat="45.78246" lon="-1.21515">
        <ele>66.6</ele>
        <time>2020-01-26T08:22:38Z</time>
      </trkpt>
      <trkpt lat="45.78244" lon="-1.21515">
        <ele>67</ele>
        <time>2020-01-26T08:22:39Z</time>
      </trkpt>
      <trkpt lat="45.78241" lon="-1.21516">
        <ele>67</ele>
        <time>2020-01-26T08:22:40Z</time>
      </trkpt>
      <trkpt lat="45.78239" lon="-1.21516">
        <ele>67</ele>
        <time>2020-01-26T08:22:41Z</time>
      </trkpt>
      <trkpt lat="45.78236" lon="-1.21516">
        <ele>67</ele>
        <time>2020-01-26T08:22:42Z</time>
      </trkpt>
      <trkpt lat="45.78234" lon="-1.21516">
        <ele>66.8</ele>
        <time>2020-01-26T08:22:43Z</time>
      </trkpt>
      <trkpt lat="45.78231" lon="-1.21516">
        <ele>66.8</ele>
        <time>2020-01-26T08:22:44Z</time>
      </trkpt>
      <trkpt lat="45.78229" lon="-1.21516">
        <ele>66.6</ele>
        <time>2020-01-26T08:22:45Z</time>
      </trkpt>
      <trkpt lat="45.78226" lon="-1.21516">
        <ele>66.4</ele>
        <time>2020-01-26T08:22:46Z</time>
      </trkpt>
      <trkpt lat="45.78224" lon="-1.21516">
        <ele>66.4</ele>
        <time>2020-01-26T08:22:47Z</time>
      </trkpt>
      <trkpt lat="45.78221" lon="-1.21516">
        <ele>66.2</ele>
        <time>2020-01-26T08:22:48Z</time>
      </trkpt>
      <trkpt lat="45.78217" lon="-1.21516">
        <ele>66.2</ele>
        <time>2020-01-26T08:22:49Z</time>
      </trkpt>
      <trkpt lat="45.78214" lon="-1.21516">
        <ele>65.8</ele>
        <time>2020-01-26T08:22:50Z</time>
      </trkpt>
      <trkpt lat="45.78209" lon="-1.21516">
        <ele>65.4</ele>
        <time>2020-01-26T08:22:51Z</time>
      </trkpt>
      <trkpt lat="45.78204" lon="-1.21516">
        <ele>65</ele>
        <time>2020-01-26T08:22:52Z</time>
      </trkpt>
      <trkpt lat="45.78199" lon="-1.21516">
        <ele>64.6</ele>
        <time>2020-01-26T08:22:53Z</time>
      </trkpt>
      <trkpt lat="45.78193" lon="-1.21515">
        <ele>64.2</ele>
        <time>2020-01-26T08:22:54Z</time>
      </trkpt>
      <trkpt lat="45.78185" lon="-1.21515">
        <ele>63.6</ele>
        <time>2020-01-26T08:22:55Z</time>
      </trkpt>
      <trkpt lat="45.78178" lon="-1.21515">
        <ele>63</ele>
        <time>2020-01-26T08:22:56Z</time>
      </trkpt>
      <trkpt lat="45.78169" lon="-1.21515">
        <ele>62.4</ele>
        <time>2020-01-26T08:22:57Z</time>
      </trkpt>
      <trkpt lat="45.78161" lon="-1.21516">
        <ele>61.8</ele>
        <time>2020-01-26T08:22:58Z</time>
      </trkpt>
      <trkpt lat="45.78152" lon="-1.21517">
        <ele>60.8</ele>
        <time>2020-01-26T08:22:59Z</time>
      </trkpt>
      <trkpt lat="45.78144" lon="-1.21517">
        <ele>60.2</ele>
        <time>2020-01-26T08:23:00Z</time>
      </trkpt>
      <trkpt lat="45.78137" lon="-1.21516">
        <ele>59.6</ele>
        <time>2020-01-26T08:23:01Z</time>
      </trkpt>
      <trkpt lat="45.78131" lon="-1.21514">
        <ele>59</ele>
        <time>2020-01-26T08:23:02Z</time>
      </trkpt>
      <trkpt lat="45.78126" lon="-1.21511">
        <ele>58.6</ele>
        <time>2020-01-26T08:23:03Z</time>
      </trkpt>
      <trkpt lat="45.78122" lon="-1.21507">
        <ele>58</ele>
        <time>2020-01-26T08:23:04Z</time>
      </trkpt>
      <trkpt lat="45.78119" lon="-1.21503">
        <ele>57.6</ele>
        <time>2020-01-26T08:23:05Z</time>
      </trkpt>
      <trkpt lat="45.78115" lon="-1.215">
        <ele>57.4</ele>
        <time>2020-01-26T08:23:06Z</time>
      </trkpt>
      <trkpt lat="45.78112" lon="-1.21496">
        <ele>57.4</ele>
        <time>2020-01-26T08:23:07Z</time>
      </trkpt>
      <trkpt lat="45.78108" lon="-1.21491">
        <ele>57.4</ele>
        <time>2020-01-26T08:23:08Z</time>
      </trkpt>
      <trkpt lat="45.78104" lon="-1.21486">
        <ele>57.6</ele>
        <time>2020-01-26T08:23:09Z</time>
      </trkpt>
      <trkpt lat="45.78101" lon="-1.21481">
        <ele>57.8</ele>
        <time>2020-01-26T08:23:10Z</time>
      </trkpt>
      <trkpt lat="45.78099" lon="-1.21475">
        <ele>58</ele>
        <time>2020-01-26T08:23:11Z</time>
      </trkpt>
      <trkpt lat="45.78096" lon="-1.21469">
        <ele>58</ele>
        <time>2020-01-26T08:23:12Z</time>
      </trkpt>
      <trkpt lat="45.78093" lon="-1.21463">
        <ele>58</ele>
        <time>2020-01-26T08:23:13Z</time>
      </trkpt>
      <trkpt lat="45.78091" lon="-1.21457">
        <ele>58</ele>
        <time>2020-01-26T08:23:14Z</time>
      </trkpt>
      <trkpt lat="45.78089" lon="-1.21452">
        <ele>58.6</ele>
        <time>2020-01-26T08:23:15Z</time>
      </trkpt>
      <trkpt lat="45.78087" lon="-1.21447">
        <ele>59</ele>
        <time>2020-01-26T08:23:16Z</time>
      </trkpt>
      <trkpt lat="45.78085" lon="-1.21441">
        <ele>59.4</ele>
        <time>2020-01-26T08:23:17Z</time>
      </trkpt>
      <trkpt lat="45.78084" lon="-1.21435">
        <ele>59.8</ele>
        <time>2020-01-26T08:23:18Z</time>
      </trkpt>
      <trkpt lat="45.78083" lon="-1.21428">
        <ele>60.2</ele>
        <time>2020-01-26T08:23:19Z</time>
      </trkpt>
      <trkpt lat="45.78082" lon="-1.21424">
        <ele>60.6</ele>
        <time>2020-01-26T08:23:20Z</time>
      </trkpt>
      <trkpt lat="45.78082" lon="-1.21419">
        <ele>61</ele>
        <time>2020-01-26T08:23:21Z</time>
      </trkpt>
      <trkpt lat="45.78082" lon="-1.21416">
        <ele>61</ele>
        <time>2020-01-26T08:23:22Z</time>
      </trkpt>
      <trkpt lat="45.78082" lon="-1.21411">
        <ele>61</ele>
        <time>2020-01-26T08:23:23Z</time>
      </trkpt>
      <trkpt lat="45.78083" lon="-1.21406">
        <ele>61.2</ele>
        <time>2020-01-26T08:23:24Z</time>
      </trkpt>
      <trkpt lat="45.78083" lon="-1.21401">
        <ele>61.4</ele>
        <time>2020-01-26T08:23:25Z</time>
      </trkpt>
      <trkpt lat="45.78083" lon="-1.21396">
        <ele>61.6</ele>
        <time>2020-01-26T08:23:26Z</time>
      </trkpt>
      <trkpt lat="45.78083" lon="-1.21391">
        <ele>61.6</ele>
        <time>2020-01-26T08:23:27Z</time>
      </trkpt>
      <trkpt lat="45.78083" lon="-1.21386">
        <ele>61.8</ele>
        <time>2020-01-26T08:23:28Z</time>
      </trkpt>
      <trkpt lat="45.78083" lon="-1.21381">
        <ele>61.8</ele>
        <time>2020-01-26T08:23:29Z</time>
      </trkpt>
      <trkpt lat="45.78083" lon="-1.21377">
        <ele>61.8</ele>
        <time>2020-01-26T08:23:30Z</time>
      </trkpt>
      <trkpt lat="45.78083" lon="-1.21374">
        <ele>61.8</ele>
        <time>2020-01-26T08:23:31Z</time>
      </trkpt>
      <trkpt lat="45.78083" lon="-1.21371">
        <ele>61.6</ele>
        <time>2020-01-26T08:23:32Z</time>
      </trkpt>
      <trkpt lat="45.78083" lon="-1.21368">
        <ele>61.6</ele>
        <time>2020-01-26T08:23:33Z</time>
      </trkpt>
      <trkpt lat="45.78083" lon="-1.21364">
        <ele>61.6</ele>
        <time>2020-01-26T08:23:34Z</time>
      </trkpt>
      <trkpt lat="45.78083" lon="-1.2136">
        <ele>62</ele>
        <time>2020-01-26T08:23:35Z</time>
      </trkpt>
      <trkpt lat="45.78082" lon="-1.21356">
        <ele>62.2</ele>
        <time>2020-01-26T08:23:36Z</time>
      </trkpt>
      <trkpt lat="45.78082" lon="-1.21352">
        <ele>62.8</ele>
        <time>2020-01-26T08:23:37Z</time>
      </trkpt>
      <trkpt lat="45.78082" lon="-1.21347">
        <ele>63</ele>
        <time>2020-01-26T08:23:38Z</time>
      </trkpt>
      <trkpt lat="45.78082" lon="-1.21343">
        <ele>63.6</ele>
        <time>2020-01-26T08:23:39Z</time>
      </trkpt>
      <trkpt lat="45.78082" lon="-1.2134">
        <ele>64.2</ele>
        <time>2020-01-26T08:23:40Z</time>
      </trkpt>
      <trkpt lat="45.78082" lon="-1.21336">
        <ele>64.8</ele>
        <time>2020-01-26T08:23:41Z</time>
      </trkpt>
      <trkpt lat="45.78082" lon="-1.21332">
        <ele>65.2</ele>
        <time>2020-01-26T08:23:42Z</time>
      </trkpt>
      <trkpt lat="45.78083" lon="-1.21328">
        <ele>65.6</ele>
        <time>2020-01-26T08:23:43Z</time>
      </trkpt>
      <trkpt lat="45.78083" lon="-1.21324">
        <ele>66</ele>
        <time>2020-01-26T08:23:44Z</time>
      </trkpt>
      <trkpt lat="45.78083" lon="-1.21319">
        <ele>66.2</ele>
        <time>2020-01-26T08:23:45Z</time>
      </trkpt>
      <trkpt lat="45.78083" lon="-1.21316">
        <ele>66.4</ele>
        <time>2020-01-26T08:23:46Z</time>
      </trkpt>
      <trkpt lat="45.78083" lon="-1.21311">
        <ele>66.6</ele>
        <time>2020-01-26T08:23:47Z</time>
      </trkpt>
      <trkpt lat="45.78083" lon="-1.21307">
        <ele>67</ele>
        <time>2020-01-26T08:23:48Z</time>
      </trkpt>
      <trkpt lat="45.78083" lon="-1.21304">
        <ele>67</ele>
        <time>2020-01-26T08:23:49Z</time>
      </trkpt>
      <trkpt lat="45.78083" lon="-1.213">
        <ele>66.8</ele>
        <time>2020-01-26T08:23:50Z</time>
      </trkpt>
      <trkpt lat="45.78083" lon="-1.21295">
        <ele>67</ele>
        <time>2020-01-26T08:23:51Z</time>
      </trkpt>
      <trkpt lat="45.78083" lon="-1.21291">
        <ele>67.2</ele>
        <time>2020-01-26T08:23:52Z</time>
      </trkpt>
      <trkpt lat="45.78083" lon="-1.21287">
        <ele>67.4</ele>
        <time>2020-01-26T08:23:53Z</time>
      </trkpt>
      <trkpt lat="45.78083" lon="-1.21283">
        <ele>67.6</ele>
        <time>2020-01-26T08:23:54Z</time>
      </trkpt>
      <trkpt lat="45.78082" lon="-1.21279">
        <ele>67.8</ele>
        <time>2020-01-26T08:23:55Z</time>
      </trkpt>
      <trkpt lat="45.78082" lon="-1.21276">
        <ele>67.8</ele>
        <time>2020-01-26T08:23:56Z</time>
      </trkpt>
      <trkpt lat="45.78082" lon="-1.21272">
        <ele>68</ele>
        <time>2020-01-26T08:23:57Z</time>
      </trkpt>
      <trkpt lat="45.78081" lon="-1.21269">
        <ele>68</ele>
        <time>2020-01-26T08:23:58Z</time>
      </trkpt>
      <trkpt lat="45.78081" lon="-1.21265">
        <ele>68</ele>
        <time>2020-01-26T08:23:59Z</time>
      </trkpt>
      <trkpt lat="45.78081" lon="-1.21261">
        <ele>68</ele>
        <time>2020-01-26T08:24:00Z</time>
      </trkpt>
      <trkpt lat="45.78081" lon="-1.21256">
        <ele>67.8</ele>
        <time>2020-01-26T08:24:01Z</time>
      </trkpt>
      <trkpt lat="45.78081" lon="-1.21251">
        <ele>67.8</ele>
        <time>2020-01-26T08:24:02Z</time>
      </trkpt>
      <trkpt lat="45.7808" lon="-1.21246">
        <ele>67.8</ele>
        <time>2020-01-26T08:24:03Z</time>
      </trkpt>
      <trkpt lat="45.78079" lon="-1.21241">
        <ele>67.8</ele>
        <time>2020-01-26T08:24:04Z</time>
      </trkpt>
      <trkpt lat="45.78078" lon="-1.21235">
        <ele>67.6</ele>
        <time>2020-01-26T08:24:05Z</time>
      </trkpt>
      <trkpt lat="45.78078" lon="-1.21231">
        <ele>67.4</ele>
        <time>2020-01-26T08:24:06Z</time>
      </trkpt>
      <trkpt lat="45.78079" lon="-1.21227">
        <ele>67.2</ele>
        <time>2020-01-26T08:24:07Z</time>
      </trkpt>
      <trkpt lat="45.78078" lon="-1.21224">
        <ele>66.8</ele>
        <time>2020-01-26T08:24:08Z</time>
      </trkpt>
      <trkpt lat="45.78078" lon="-1.21219">
        <ele>66.6</ele>
        <time>2020-01-26T08:24:09Z</time>
      </trkpt>
      <trkpt lat="45.78078" lon="-1.21215">
        <ele>66.8</ele>
        <time>2020-01-26T08:24:10Z</time>
      </trkpt>
      <trkpt lat="45.78078" lon="-1.21212">
        <ele>66.8</ele>
        <time>2020-01-26T08:24:11Z</time>
      </trkpt>
      <trkpt lat="45.78077" lon="-1.21208">
        <ele>67.2</ele>
        <time>2020-01-26T08:24:12Z</time>
      </trkpt>
      <trkpt lat="45.78077" lon="-1.21205">
        <ele>67.4</ele>
        <time>2020-01-26T08:24:13Z</time>
      </trkpt>
      <trkpt lat="45.78077" lon="-1.21201">
        <ele>67.4</ele>
        <time>2020-01-26T08:24:14Z</time>
      </trkpt>
      <trkpt lat="45.78077" lon="-1.21198">
        <ele>67.4</ele>
        <time>2020-01-26T08:24:15Z</time>
      </trkpt>
      <trkpt lat="45.78077" lon="-1.21195">
        <ele>67.2</ele>
        <time>2020-01-26T08:24:16Z</time>
      </trkpt>
      <trkpt lat="45.78077" lon="-1.21191">
        <ele>67.4</ele>
        <time>2020-01-26T08:24:17Z</time>
      </trkpt>
      <trkpt lat="45.78077" lon="-1.21188">
        <ele>67.6</ele>
        <time>2020-01-26T08:24:18Z</time>
      </trkpt>
      <trkpt lat="45.78077" lon="-1.21185">
        <ele>67.8</ele>
        <time>2020-01-26T08:24:19Z</time>
      </trkpt>
      <trkpt lat="45.78077" lon="-1.21181">
        <ele>68</ele>
        <time>2020-01-26T08:24:20Z</time>
      </trkpt>
      <trkpt lat="45.78076" lon="-1.21178">
        <ele>68.6</ele>
        <time>2020-01-26T08:24:21Z</time>
      </trkpt>
      <trkpt lat="45.78075" lon="-1.21174">
        <ele>69.2</ele>
        <time>2020-01-26T08:24:22Z</time>
      </trkpt>
      <trkpt lat="45.78075" lon="-1.21171">
        <ele>70.2</ele>
        <time>2020-01-26T08:24:23Z</time>
      </trkpt>
      <trkpt lat="45.78075" lon="-1.21167">
        <ele>71.2</ele>
        <time>2020-01-26T08:24:24Z</time>
      </trkpt>
      <trkpt lat="45.78076" lon="-1.21163">
        <ele>72.2</ele>
        <time>2020-01-26T08:24:25Z</time>
      </trkpt>
      <trkpt lat="45.78075" lon="-1.2116">
        <ele>72.8</ele>
        <time>2020-01-26T08:24:26Z</time>
      </trkpt>
      <trkpt lat="45.78075" lon="-1.21156">
        <ele>73.4</ele>
        <time>2020-01-26T08:24:27Z</time>
      </trkpt>
      <trkpt lat="45.78075" lon="-1.21153">
        <ele>73.8</ele>
        <time>2020-01-26T08:24:28Z</time>
      </trkpt>
      <trkpt lat="45.78075" lon="-1.2115">
        <ele>74.4</ele>
        <time>2020-01-26T08:24:29Z</time>
      </trkpt>
      <trkpt lat="45.78075" lon="-1.21146">
        <ele>74.6</ele>
        <time>2020-01-26T08:24:30Z</time>
      </trkpt>
      <trkpt lat="45.78075" lon="-1.21143">
        <ele>74.6</ele>
        <time>2020-01-26T08:24:31Z</time>
      </trkpt>
      <trkpt lat="45.78075" lon="-1.2114">
        <ele>75</ele>
        <time>2020-01-26T08:24:32Z</time>
      </trkpt>
      <trkpt lat="45.78075" lon="-1.21137">
        <ele>75.4</ele>
        <time>2020-01-26T08:24:33Z</time>
      </trkpt>
      <trkpt lat="45.78075" lon="-1.21135">
        <ele>76</ele>
        <time>2020-01-26T08:24:34Z</time>
      </trkpt>
      <trkpt lat="45.78075" lon="-1.21131">
        <ele>76.8</ele>
        <time>2020-01-26T08:24:35Z</time>
      </trkpt>
      <trkpt lat="45.78075" lon="-1.21129">
        <ele>77.6</ele>
        <time>2020-01-26T08:24:36Z</time>
      </trkpt>
      <trkpt lat="45.78075" lon="-1.21126">
        <ele>78</ele>
        <time>2020-01-26T08:24:37Z</time>
      </trkpt>
      <trkpt lat="45.78075" lon="-1.21123">
        <ele>78.2</ele>
        <time>2020-01-26T08:24:38Z</time>
      </trkpt>
      <trkpt lat="45.78075" lon="-1.2112">
        <ele>78.4</ele>
        <time>2020-01-26T08:24:39Z</time>
      </trkpt>
      <trkpt lat="45.78075" lon="-1.21117">
        <ele>78.6</ele>
        <time>2020-01-26T08:24:40Z</time>
      </trkpt>
      <trkpt lat="45.78075" lon="-1.21112">
        <ele>79</ele>
        <time>2020-01-26T08:24:41Z</time>
      </trkpt>
      <trkpt lat="45.78075" lon="-1.21108">
        <ele>79</ele>
        <time>2020-01-26T08:24:42Z</time>
      </trkpt>
      <trkpt lat="45.78075" lon="-1.21104">
        <ele>79.2</ele>
        <time>2020-01-26T08:24:43Z</time>
      </trkpt>
      <trkpt lat="45.78075" lon="-1.211">
        <ele>79.2</ele>
        <time>2020-01-26T08:24:44Z</time>
      </trkpt>
      <trkpt lat="45.78075" lon="-1.21096">
        <ele>79.2</ele>
        <time>2020-01-26T08:24:45Z</time>
      </trkpt>
      <trkpt lat="45.78075" lon="-1.21093">
        <ele>79.6</ele>
        <time>2020-01-26T08:24:46Z</time>
      </trkpt>
      <trkpt lat="45.78076" lon="-1.2109">
        <ele>80.2</ele>
        <time>2020-01-26T08:24:47Z</time>
      </trkpt>
      <trkpt lat="45.78076" lon="-1.21086">
        <ele>80.4</ele>
        <time>2020-01-26T08:24:48Z</time>
      </trkpt>
      <trkpt lat="45.78076" lon="-1.21082">
        <ele>80.6</ele>
        <time>2020-01-26T08:24:49Z</time>
      </trkpt>
      <trkpt lat="45.78076" lon="-1.21079">
        <ele>80.4</ele>
        <time>2020-01-26T08:24:50Z</time>
      </trkpt>
      <trkpt lat="45.78076" lon="-1.21075">
        <ele>80.2</ele>
        <time>2020-01-26T08:24:51Z</time>
      </trkpt>
      <trkpt lat="45.78075" lon="-1.21072">
        <ele>80.2</ele>
        <time>2020-01-26T08:24:52Z</time>
      </trkpt>
      <trkpt lat="45.78075" lon="-1.21069">
        <ele>80.2</ele>
        <time>2020-01-26T08:24:53Z</time>
      </trkpt>
      <trkpt lat="45.78075" lon="-1.21066">
        <ele>80.2</ele>
        <time>2020-01-26T08:24:54Z</time>
      </trkpt>
      <trkpt lat="45.78075" lon="-1.21063">
        <ele>80</ele>
        <time>2020-01-26T08:24:55Z</time>
      </trkpt>
      <trkpt lat="45.78075" lon="-1.21061">
        <ele>80.2</ele>
        <time>2020-01-26T08:24:56Z</time>
      </trkpt>
      <trkpt lat="45.78075" lon="-1.21058">
        <ele>80.4</ele>
        <time>2020-01-26T08:24:57Z</time>
      </trkpt>
      <trkpt lat="45.78075" lon="-1.21055">
        <ele>80.4</ele>
        <time>2020-01-26T08:24:58Z</time>
      </trkpt>
      <trkpt lat="45.78075" lon="-1.21053">
        <ele>80.6</ele>
        <time>2020-01-26T08:24:59Z</time>
      </trkpt>
      <trkpt lat="45.78075" lon="-1.2105">
        <ele>81</ele>
        <time>2020-01-26T08:25:00Z</time>
      </trkpt>
      <trkpt lat="45.78075" lon="-1.21048">
        <ele>81.6</ele>
        <time>2020-01-26T08:25:01Z</time>
      </trkpt>
      <trkpt lat="45.78075" lon="-1.21046">
        <ele>81.8</ele>
        <time>2020-01-26T08:25:02Z</time>
      </trkpt>
      <trkpt lat="45.78075" lon="-1.21043">
        <ele>81.8</ele>
        <time>2020-01-26T08:25:03Z</time>
      </trkpt>
      <trkpt lat="45.78075" lon="-1.2104">
        <ele>82</ele>
        <time>2020-01-26T08:25:04Z</time>
      </trkpt>
      <trkpt lat="45.78075" lon="-1.21038">
        <ele>82.2</ele>
        <time>2020-01-26T08:25:05Z</time>
      </trkpt>
      <trkpt lat="45.78075" lon="-1.21036">
        <ele>82.6</ele>
        <time>2020-01-26T08:25:06Z</time>
      </trkpt>
      <trkpt lat="45.78074" lon="-1.21033">
        <ele>83</ele>
        <time>2020-01-26T08:25:07Z</time>
      </trkpt>
      <trkpt lat="45.78074" lon="-1.2103">
        <ele>83.6</ele>
        <time>2020-01-26T08:25:08Z</time>
      </trkpt>
      <trkpt lat="45.78074" lon="-1.21028">
        <ele>84</ele>
        <time>2020-01-26T08:25:09Z</time>
      </trkpt>
      <trkpt lat="45.78074" lon="-1.21025">
        <ele>84.4</ele>
        <time>2020-01-26T08:25:10Z</time>
      </trkpt>
      <trkpt lat="45.78074" lon="-1.21023">
        <ele>85.2</ele>
        <time>2020-01-26T08:25:11Z</time>
      </trkpt>
      <trkpt lat="45.78074" lon="-1.21021">
        <ele>85.8</ele>
        <time>2020-01-26T08:25:12Z</time>
      </trkpt>
      <trkpt lat="45.78073" lon="-1.21018">
        <ele>86.4</ele>
        <time>2020-01-26T08:25:13Z</time>
      </trkpt>
      <trkpt lat="45.78073" lon="-1.21016">
        <ele>86.8</ele>
        <time>2020-01-26T08:25:14Z</time>
      </trkpt>
      <trkpt lat="45.78074" lon="-1.21014">
        <ele>87.4</ele>
        <time>2020-01-26T08:25:15Z</time>
      </trkpt>
      <trkpt lat="45.78074" lon="-1.21012">
        <ele>88.4</ele>
        <time>2020-01-26T08:25:16Z</time>
      </trkpt>
      <trkpt lat="45.78074" lon="-1.2101">
        <ele>89</ele>
        <time>2020-01-26T08:25:17Z</time>
      </trkpt>
      <trkpt lat="45.78074" lon="-1.21008">
        <ele>89.4</ele>
        <time>2020-01-26T08:25:18Z</time>
      </trkpt>
      <trkpt lat="45.78074" lon="-1.21006">
        <ele>89.8</ele>
        <time>2020-01-26T08:25:19Z</time>
      </trkpt>
      <trkpt lat="45.78074" lon="-1.21004">
        <ele>90.2</ele>
        <time>2020-01-26T08:25:20Z</time>
      </trkpt>
      <trkpt lat="45.78074" lon="-1.21002">
        <ele>90.4</ele>
        <time>2020-01-26T08:25:21Z</time>
      </trkpt>
      <trkpt lat="45.78074" lon="-1.20999">
        <ele>90.2</ele>
        <time>2020-01-26T08:25:22Z</time>
      </trkpt>
      <trkpt lat="45.78074" lon="-1.20996">
        <ele>90.2</ele>
        <time>2020-01-26T08:25:23Z</time>
      </trkpt>
      <trkpt lat="45.78074" lon="-1.20994">
        <ele>90.2</ele>
        <time>2020-01-26T08:25:24Z</time>
      </trkpt>
      <trkpt lat="45.78074" lon="-1.20992">
        <ele>90.2</ele>
        <time>2020-01-26T08:25:25Z</time>
      </trkpt>
      <trkpt lat="45.78074" lon="-1.2099">
        <ele>90.4</ele>
        <time>2020-01-26T08:25:26Z</time>
      </trkpt>
      <trkpt lat="45.78074" lon="-1.20988">
        <ele>90.2</ele>
        <time>2020-01-26T08:25:27Z</time>
      </trkpt>
      <trkpt lat="45.78074" lon="-1.20986">
        <ele>90.8</ele>
        <time>2020-01-26T08:25:28Z</time>
      </trkpt>
      <trkpt lat="45.78074" lon="-1.20983">
        <ele>91</ele>
        <time>2020-01-26T08:25:29Z</time>
      </trkpt>
      <trkpt lat="45.78074" lon="-1.20981">
        <ele>91</ele>
        <time>2020-01-26T08:25:30Z</time>
      </trkpt>
      <trkpt lat="45.78074" lon="-1.20978">
        <ele>91</ele>
        <time>2020-01-26T08:25:31Z</time>
      </trkpt>
      <trkpt lat="45.78074" lon="-1.20976">
        <ele>91</ele>
        <time>2020-01-26T08:25:32Z</time>
      </trkpt>
      <trkpt lat="45.78074" lon="-1.20973">
        <ele>91</ele>
        <time>2020-01-26T08:25:33Z</time>
      </trkpt>
      <trkpt lat="45.78074" lon="-1.20971">
        <ele>91</ele>
        <time>2020-01-26T08:25:34Z</time>
      </trkpt>
      <trkpt lat="45.78074" lon="-1.20968">
        <ele>91.2</ele>
        <time>2020-01-26T08:25:35Z</time>
      </trkpt>
      <trkpt lat="45.78073" lon="-1.20966">
        <ele>91.4</ele>
        <time>2020-01-26T08:25:36Z</time>
      </trkpt>
      <trkpt lat="45.78073" lon="-1.20963">
        <ele>91.6</ele>
        <time>2020-01-26T08:25:37Z</time>
      </trkpt>
      <trkpt lat="45.78073" lon="-1.2096">
        <ele>92</ele>
        <time>2020-01-26T08:25:38Z</time>
      </trkpt>
      <trkpt lat="45.78073" lon="-1.20957">
        <ele>92.2</ele>
        <time>2020-01-26T08:25:39Z</time>
      </trkpt>
      <trkpt lat="45.78073" lon="-1.20954">
        <ele>92.4</ele>
        <time>2020-01-26T08:25:40Z</time>
      </trkpt>
      <trkpt lat="45.78073" lon="-1.20951">
        <ele>92.6</ele>
        <time>2020-01-26T08:25:41Z</time>
      </trkpt>
      <trkpt lat="45.78072" lon="-1.20948">
        <ele>92.6</ele>
        <time>2020-01-26T08:25:42Z</time>
      </trkpt>
      <trkpt lat="45.78072" lon="-1.20945">
        <ele>92.8</ele>
        <time>2020-01-26T08:25:43Z</time>
      </trkpt>
      <trkpt lat="45.78072" lon="-1.20943">
        <ele>93.4</ele>
        <time>2020-01-26T08:25:44Z</time>
      </trkpt>
      <trkpt lat="45.78073" lon="-1.2094">
        <ele>94</ele>
        <time>2020-01-26T08:25:45Z</time>
      </trkpt>
      <trkpt lat="45.78072" lon="-1.20937">
        <ele>94.6</ele>
        <time>2020-01-26T08:25:46Z</time>
      </trkpt>
      <trkpt lat="45.78072" lon="-1.20934">
        <ele>95</ele>
        <time>2020-01-26T08:25:47Z</time>
      </trkpt>
      <trkpt lat="45.78073" lon="-1.20932">
        <ele>95.4</ele>
        <time>2020-01-26T08:25:48Z</time>
      </trkpt>
      <trkpt lat="45.78073" lon="-1.2093">
        <ele>95.8</ele>
        <time>2020-01-26T08:25:49Z</time>
      </trkpt>
      <trkpt lat="45.78073" lon="-1.20926">
        <ele>95.8</ele>
        <time>2020-01-26T08:25:50Z</time>
      </trkpt>
      <trkpt lat="45.78073" lon="-1.20923">
        <ele>95.8</ele>
        <time>2020-01-26T08:25:51Z</time>
      </trkpt>
      <trkpt lat="45.78073" lon="-1.20919">
        <ele>96</ele>
        <time>2020-01-26T08:25:52Z</time>
      </trkpt>
      <trkpt lat="45.78073" lon="-1.20916">
        <ele>96</ele>
        <time>2020-01-26T08:25:53Z</time>
      </trkpt>
      <trkpt lat="45.78073" lon="-1.20913">
        <ele>95.6</ele>
        <time>2020-01-26T08:25:54Z</time>
      </trkpt>
      <trkpt lat="45.78073" lon="-1.20911">
        <ele>95.6</ele>
        <time>2020-01-26T08:25:55Z</time>
      </trkpt>
      <trkpt lat="45.78073" lon="-1.20907">
        <ele>95.6</ele>
        <time>2020-01-26T08:25:56Z</time>
      </trkpt>
      <trkpt lat="45.78073" lon="-1.20905">
        <ele>95.8</ele>
        <time>2020-01-26T08:25:57Z</time>
      </trkpt>
      <trkpt lat="45.78073" lon="-1.209">
        <ele>95.8</ele>
        <time>2020-01-26T08:25:58Z</time>
      </trkpt>
      <trkpt lat="45.78073" lon="-1.20896">
        <ele>95.8</ele>
        <time>2020-01-26T08:25:59Z</time>
      </trkpt>
      <trkpt lat="45.78073" lon="-1.20892">
        <ele>95.6</ele>
        <time>2020-01-26T08:26:00Z</time>
      </trkpt>
      <trkpt lat="45.78073" lon="-1.20887">
        <ele>95.4</ele>
        <time>2020-01-26T08:26:01Z</time>
      </trkpt>
      <trkpt lat="45.78073" lon="-1.20883">
        <ele>95</ele>
        <time>2020-01-26T08:26:02Z</time>
      </trkpt>
      <trkpt lat="45.78073" lon="-1.20879">
        <ele>94.6</ele>
        <time>2020-01-26T08:26:03Z</time>
      </trkpt>
      <trkpt lat="45.78072" lon="-1.20874">
        <ele>94.4</ele>
        <time>2020-01-26T08:26:04Z</time>
      </trkpt>
      <trkpt lat="45.78072" lon="-1.20868">
        <ele>94.2</ele>
        <time>2020-01-26T08:26:05Z</time>
      </trkpt>
      <trkpt lat="45.78071" lon="-1.20861">
        <ele>94</ele>
        <time>2020-01-26T08:26:06Z</time>
      </trkpt>
      <trkpt lat="45.78071" lon="-1.20854">
        <ele>93.4</ele>
        <time>2020-01-26T08:26:07Z</time>
      </trkpt>
      <trkpt lat="45.7807" lon="-1.20846">
        <ele>92.8</ele>
        <time>2020-01-26T08:26:08Z</time>
      </trkpt>
      <trkpt lat="45.7807" lon="-1.20838">
        <ele>92.4</ele>
        <time>2020-01-26T08:26:09Z</time>
      </trkpt>
      <trkpt lat="45.7807" lon="-1.20829">
        <ele>91.8</ele>
        <time>2020-01-26T08:26:10Z</time>
      </trkpt>
      <trkpt lat="45.7807" lon="-1.2082">
        <ele>91</ele>
        <time>2020-01-26T08:26:11Z</time>
      </trkpt>
      <trkpt lat="45.7807" lon="-1.20809">
        <ele>90.4</ele>
        <time>2020-01-26T08:26:12Z</time>
      </trkpt>
      <trkpt lat="45.78069" lon="-1.20799">
        <ele>89.6</ele>
        <time>2020-01-26T08:26:13Z</time>
      </trkpt>
      <trkpt lat="45.78069" lon="-1.20788">
        <ele>89</ele>
        <time>2020-01-26T08:26:14Z</time>
      </trkpt>
      <trkpt lat="45.78068" lon="-1.20778">
        <ele>88.4</ele>
        <time>2020-01-26T08:26:15Z</time>
      </trkpt>
      <trkpt lat="45.78068" lon="-1.20772">
        <ele>88.2</ele>
        <time>2020-01-26T08:26:16Z</time>
      </trkpt>
      <trkpt lat="45.78065" lon="-1.20768">
        <ele>87.8</ele>
        <time>2020-01-26T08:26:17Z</time>
      </trkpt>
      <trkpt lat="45.78062" lon="-1.20765">
        <ele>88.2</ele>
        <time>2020-01-26T08:26:18Z</time>
      </trkpt>
      <trkpt lat="45.78059" lon="-1.20764">
        <ele>88.6</ele>
        <time>2020-01-26T08:26:19Z</time>
      </trkpt>
      <trkpt lat="45.78055" lon="-1.20764">
        <ele>89</ele>
        <time>2020-01-26T08:26:20Z</time>
      </trkpt>
      <trkpt lat="45.78051" lon="-1.20764">
        <ele>89.2</ele>
        <time>2020-01-26T08:26:21Z</time>
      </trkpt>
      <trkpt lat="45.78046" lon="-1.20764">
        <ele>89.6</ele>
        <time>2020-01-26T08:26:22Z</time>
      </trkpt>
      <trkpt lat="45.78042" lon="-1.20765">
        <ele>89.8</ele>
        <time>2020-01-26T08:26:23Z</time>
      </trkpt>
      <trkpt lat="45.78039" lon="-1.20765">
        <ele>89.6</ele>
        <time>2020-01-26T08:26:24Z</time>
      </trkpt>
      <trkpt lat="45.78036" lon="-1.20766">
        <ele>89.4</ele>
        <time>2020-01-26T08:26:25Z</time>
      </trkpt>
      <trkpt lat="45.78031" lon="-1.20765">
        <ele>88.8</ele>
        <time>2020-01-26T08:26:26Z</time>
      </trkpt>
      <trkpt lat="45.78025" lon="-1.20764">
        <ele>87.8</ele>
        <time>2020-01-26T08:26:27Z</time>
      </trkpt>
      <trkpt lat="45.78016" lon="-1.20762">
        <ele>86.6</ele>
        <time>2020-01-26T08:26:28Z</time>
      </trkpt>
      <trkpt lat="45.78006" lon="-1.20761">
        <ele>85.2</ele>
        <time>2020-01-26T08:26:29Z</time>
      </trkpt>
      <trkpt lat="45.77996" lon="-1.2076">
        <ele>83.8</ele>
        <time>2020-01-26T08:26:30Z</time>
      </trkpt>
      <trkpt lat="45.77985" lon="-1.2076">
        <ele>82.6</ele>
        <time>2020-01-26T08:26:31Z</time>
      </trkpt>
      <trkpt lat="45.77973" lon="-1.20761">
        <ele>81.4</ele>
        <time>2020-01-26T08:26:32Z</time>
      </trkpt>
      <trkpt lat="45.77961" lon="-1.20761">
        <ele>80.6</ele>
        <time>2020-01-26T08:26:33Z</time>
      </trkpt>
      <trkpt lat="45.77949" lon="-1.20762">
        <ele>79.6</ele>
        <time>2020-01-26T08:26:34Z</time>
      </trkpt>
      <trkpt lat="45.77936" lon="-1.20763">
        <ele>78.6</ele>
        <time>2020-01-26T08:26:35Z</time>
      </trkpt>
      <trkpt lat="45.77922" lon="-1.20763">
        <ele>77.4</ele>
        <time>2020-01-26T08:26:36Z</time>
      </trkpt>
      <trkpt lat="45.77908" lon="-1.20763">
        <ele>75.4</ele>
        <time>2020-01-26T08:26:37Z</time>
      </trkpt>
      <trkpt lat="45.77894" lon="-1.20763">
        <ele>73.2</ele>
        <time>2020-01-26T08:26:38Z</time>
      </trkpt>
      <trkpt lat="45.7788" lon="-1.20764">
        <ele>71</ele>
        <time>2020-01-26T08:26:39Z</time>
      </trkpt>
      <trkpt lat="45.77866" lon="-1.20764">
        <ele>69</ele>
        <time>2020-01-26T08:26:40Z</time>
      </trkpt>
      <trkpt lat="45.77851" lon="-1.20763">
        <ele>67.2</ele>
        <time>2020-01-26T08:26:41Z</time>
      </trkpt>
      <trkpt lat="45.77839" lon="-1.20762">
        <ele>65.6</ele>
        <time>2020-01-26T08:26:42Z</time>
      </trkpt>
      <trkpt lat="45.77826" lon="-1.20762">
        <ele>64.4</ele>
        <time>2020-01-26T08:26:43Z</time>
      </trkpt>
      <trkpt lat="45.77813" lon="-1.20761">
        <ele>63.4</ele>
        <time>2020-01-26T08:26:44Z</time>
      </trkpt>
      <trkpt lat="45.77802" lon="-1.20761">
        <ele>62.4</ele>
        <time>2020-01-26T08:26:45Z</time>
      </trkpt>
      <trkpt lat="45.77792" lon="-1.20761">
        <ele>61.6</ele>
        <time>2020-01-26T08:26:46Z</time>
      </trkpt>
      <trkpt lat="45.77785" lon="-1.20761">
        <ele>60.6</ele>
        <time>2020-01-26T08:26:47Z</time>
      </trkpt>
      <trkpt lat="45.77779" lon="-1.20759">
        <ele>59.8</ele>
        <time>2020-01-26T08:26:48Z</time>
      </trkpt>
      <trkpt lat="45.77775" lon="-1.20755">
        <ele>59.4</ele>
        <time>2020-01-26T08:26:49Z</time>
      </trkpt>
      <trkpt lat="45.77772" lon="-1.20748">
        <ele>59</ele>
        <time>2020-01-26T08:26:50Z</time>
      </trkpt>
      <trkpt lat="45.7777" lon="-1.20742">
        <ele>59</ele>
        <time>2020-01-26T08:26:51Z</time>
      </trkpt>
      <trkpt lat="45.77766" lon="-1.20734">
        <ele>58.8</ele>
        <time>2020-01-26T08:26:52Z</time>
      </trkpt>
      <trkpt lat="45.77763" lon="-1.20726">
        <ele>58.2</ele>
        <time>2020-01-26T08:26:53Z</time>
      </trkpt>
      <trkpt lat="45.77759" lon="-1.20716">
        <ele>57.6</ele>
        <time>2020-01-26T08:26:54Z</time>
      </trkpt>
      <trkpt lat="45.77755" lon="-1.20707">
        <ele>57.2</ele>
        <time>2020-01-26T08:26:55Z</time>
      </trkpt>
      <trkpt lat="45.77752" lon="-1.207">
        <ele>57</ele>
        <time>2020-01-26T08:26:56Z</time>
      </trkpt>
      <trkpt lat="45.7775" lon="-1.20692">
        <ele>56.6</ele>
        <time>2020-01-26T08:26:57Z</time>
      </trkpt>
      <trkpt lat="45.77746" lon="-1.20682">
        <ele>56.2</ele>
        <time>2020-01-26T08:26:58Z</time>
      </trkpt>
      <trkpt lat="45.77744" lon="-1.20674">
        <ele>56</ele>
        <time>2020-01-26T08:26:59Z</time>
      </trkpt>
      <trkpt lat="45.77741" lon="-1.20665">
        <ele>55.6</ele>
        <time>2020-01-26T08:27:00Z</time>
      </trkpt>
      <trkpt lat="45.77739" lon="-1.20656">
        <ele>55.2</ele>
        <time>2020-01-26T08:27:01Z</time>
      </trkpt>
      <trkpt lat="45.77736" lon="-1.20648">
        <ele>55.2</ele>
        <time>2020-01-26T08:27:02Z</time>
      </trkpt>
      <trkpt lat="45.77734" lon="-1.20639">
        <ele>55.2</ele>
        <time>2020-01-26T08:27:03Z</time>
      </trkpt>
      <trkpt lat="45.77732" lon="-1.20631">
        <ele>55.2</ele>
        <time>2020-01-26T08:27:04Z</time>
      </trkpt>
      <trkpt lat="45.77731" lon="-1.20623">
        <ele>55</ele>
        <time>2020-01-26T08:27:05Z</time>
      </trkpt>
      <trkpt lat="45.77731" lon="-1.20615">
        <ele>54.8</ele>
        <time>2020-01-26T08:27:06Z</time>
      </trkpt>
      <trkpt lat="45.77729" lon="-1.20607">
        <ele>54.4</ele>
        <time>2020-01-26T08:27:07Z</time>
      </trkpt>
      <trkpt lat="45.77728" lon="-1.20599">
        <ele>54</ele>
        <time>2020-01-26T08:27:08Z</time>
      </trkpt>
      <trkpt lat="45.77727" lon="-1.20591">
        <ele>53.8</ele>
        <time>2020-01-26T08:27:09Z</time>
      </trkpt>
      <trkpt lat="45.77725" lon="-1.20582">
        <ele>53.6</ele>
        <time>2020-01-26T08:27:10Z</time>
      </trkpt>
      <trkpt lat="45.77724" lon="-1.20573">
        <ele>53.6</ele>
        <time>2020-01-26T08:27:11Z</time>
      </trkpt>
      <trkpt lat="45.77723" lon="-1.20566">
        <ele>53.8</ele>
        <time>2020-01-26T08:27:12Z</time>
      </trkpt>
      <trkpt lat="45.77721" lon="-1.20557">
        <ele>53.8</ele>
        <time>2020-01-26T08:27:13Z</time>
      </trkpt>
      <trkpt lat="45.77719" lon="-1.20548">
        <ele>54.2</ele>
        <time>2020-01-26T08:27:14Z</time>
      </trkpt>
      <trkpt lat="45.77718" lon="-1.20541">
        <ele>54.4</ele>
        <time>2020-01-26T08:27:15Z</time>
      </trkpt>
      <trkpt lat="45.77716" lon="-1.20532">
        <ele>54.8</ele>
        <time>2020-01-26T08:27:16Z</time>
      </trkpt>
      <trkpt lat="45.77715" lon="-1.20525">
        <ele>55</ele>
        <time>2020-01-26T08:27:17Z</time>
      </trkpt>
      <trkpt lat="45.77713" lon="-1.20518">
        <ele>55.4</ele>
        <time>2020-01-26T08:27:18Z</time>
      </trkpt>
      <trkpt lat="45.77713" lon="-1.2051">
        <ele>55.4</ele>
        <time>2020-01-26T08:27:19Z</time>
      </trkpt>
      <trkpt lat="45.77711" lon="-1.20501">
        <ele>55.6</ele>
        <time>2020-01-26T08:27:20Z</time>
      </trkpt>
      <trkpt lat="45.7771" lon="-1.20492">
        <ele>55.8</ele>
        <time>2020-01-26T08:27:21Z</time>
      </trkpt>
      <trkpt lat="45.77709" lon="-1.20483">
        <ele>56</ele>
        <time>2020-01-26T08:27:22Z</time>
      </trkpt>
      <trkpt lat="45.77708" lon="-1.20475">
        <ele>56.2</ele>
        <time>2020-01-26T08:27:23Z</time>
      </trkpt>
      <trkpt lat="45.77707" lon="-1.20468">
        <ele>56.2</ele>
        <time>2020-01-26T08:27:24Z</time>
      </trkpt>
      <trkpt lat="45.77707" lon="-1.2046">
        <ele>56.4</ele>
        <time>2020-01-26T08:27:25Z</time>
      </trkpt>
      <trkpt lat="45.77705" lon="-1.20453">
        <ele>56</ele>
        <time>2020-01-26T08:27:26Z</time>
      </trkpt>
      <trkpt lat="45.77705" lon="-1.20445">
        <ele>55.8</ele>
        <time>2020-01-26T08:27:27Z</time>
      </trkpt>
      <trkpt lat="45.77704" lon="-1.20438">
        <ele>55.8</ele>
        <time>2020-01-26T08:27:28Z</time>
      </trkpt>
      <trkpt lat="45.77703" lon="-1.20431">
        <ele>56</ele>
        <time>2020-01-26T08:27:29Z</time>
      </trkpt>
      <trkpt lat="45.77701" lon="-1.20424">
        <ele>56.2</ele>
        <time>2020-01-26T08:27:30Z</time>
      </trkpt>
      <trkpt lat="45.77699" lon="-1.20418">
        <ele>56.2</ele>
        <time>2020-01-26T08:27:31Z</time>
      </trkpt>
      <trkpt lat="45.77697" lon="-1.20412">
        <ele>56.4</ele>
        <time>2020-01-26T08:27:32Z</time>
      </trkpt>
      <trkpt lat="45.77694" lon="-1.20407">
        <ele>56.8</ele>
        <time>2020-01-26T08:27:33Z</time>
      </trkpt>
      <trkpt lat="45.77691" lon="-1.20402">
        <ele>57.2</ele>
        <time>2020-01-26T08:27:34Z</time>
      </trkpt>
      <trkpt lat="45.77688" lon="-1.20397">
        <ele>57.6</ele>
        <time>2020-01-26T08:27:35Z</time>
      </trkpt>
      <trkpt lat="45.77684" lon="-1.20393">
        <ele>58</ele>
        <time>2020-01-26T08:27:36Z</time>
      </trkpt>
      <trkpt lat="45.77681" lon="-1.2039">
        <ele>58.2</ele>
        <time>2020-01-26T08:27:37Z</time>
      </trkpt>
      <trkpt lat="45.77678" lon="-1.20386">
        <ele>59</ele>
        <time>2020-01-26T08:27:38Z</time>
      </trkpt>
      <trkpt lat="45.77676" lon="-1.20384">
        <ele>59.8</ele>
        <time>2020-01-26T08:27:39Z</time>
      </trkpt>
      <trkpt lat="45.77674" lon="-1.20381">
        <ele>60.4</ele>
        <time>2020-01-26T08:27:40Z</time>
      </trkpt>
      <trkpt lat="45.7767" lon="-1.20378">
        <ele>61</ele>
        <time>2020-01-26T08:27:41Z</time>
      </trkpt>
      <trkpt lat="45.77668" lon="-1.20374">
        <ele>61.6</ele>
        <time>2020-01-26T08:27:42Z</time>
      </trkpt>
      <trkpt lat="45.77666" lon="-1.2037">
        <ele>62.2</ele>
        <time>2020-01-26T08:27:43Z</time>
      </trkpt>
      <trkpt lat="45.77662" lon="-1.20366">
        <ele>62.6</ele>
        <time>2020-01-26T08:27:44Z</time>
      </trkpt>
      <trkpt lat="45.77661" lon="-1.20362">
        <ele>63.2</ele>
        <time>2020-01-26T08:27:45Z</time>
      </trkpt>
      <trkpt lat="45.7766" lon="-1.20358">
        <ele>63.6</ele>
        <time>2020-01-26T08:27:46Z</time>
      </trkpt>
      <trkpt lat="45.77658" lon="-1.20354">
        <ele>64.2</ele>
        <time>2020-01-26T08:27:47Z</time>
      </trkpt>
      <trkpt lat="45.77656" lon="-1.20349">
        <ele>64.8</ele>
        <time>2020-01-26T08:27:48Z</time>
      </trkpt>
      <trkpt lat="45.77654" lon="-1.20344">
        <ele>65</ele>
        <time>2020-01-26T08:27:49Z</time>
      </trkpt>
      <trkpt lat="45.77652" lon="-1.20338">
        <ele>65</ele>
        <time>2020-01-26T08:27:50Z</time>
      </trkpt>
      <trkpt lat="45.77649" lon="-1.20333">
        <ele>65</ele>
        <time>2020-01-26T08:27:51Z</time>
      </trkpt>
      <trkpt lat="45.77647" lon="-1.20329">
        <ele>65.2</ele>
        <time>2020-01-26T08:27:52Z</time>
      </trkpt>
      <trkpt lat="45.77644" lon="-1.20325">
        <ele>65.4</ele>
        <time>2020-01-26T08:27:53Z</time>
      </trkpt>
      <trkpt lat="45.77641" lon="-1.2032">
        <ele>65.6</ele>
        <time>2020-01-26T08:27:54Z</time>
      </trkpt>
      <trkpt lat="45.77639" lon="-1.20316">
        <ele>65.6</ele>
        <time>2020-01-26T08:27:55Z</time>
      </trkpt>
      <trkpt lat="45.77637" lon="-1.20312">
        <ele>65.8</ele>
        <time>2020-01-26T08:27:56Z</time>
      </trkpt>
      <trkpt lat="45.77634" lon="-1.20307">
        <ele>65.6</ele>
        <time>2020-01-26T08:27:57Z</time>
      </trkpt>
      <trkpt lat="45.77631" lon="-1.20303">
        <ele>65.4</ele>
        <time>2020-01-26T08:27:58Z</time>
      </trkpt>
      <trkpt lat="45.77627" lon="-1.20297">
        <ele>65.2</ele>
        <time>2020-01-26T08:27:59Z</time>
      </trkpt>
      <trkpt lat="45.77623" lon="-1.20294">
        <ele>65</ele>
        <time>2020-01-26T08:28:00Z</time>
      </trkpt>
      <trkpt lat="45.7762" lon="-1.20292">
        <ele>65.2</ele>
        <time>2020-01-26T08:28:01Z</time>
      </trkpt>
      <trkpt lat="45.77615" lon="-1.20292">
        <ele>65.2</ele>
        <time>2020-01-26T08:28:02Z</time>
      </trkpt>
      <trkpt lat="45.77612" lon="-1.20295">
        <ele>64.8</ele>
        <time>2020-01-26T08:28:03Z</time>
      </trkpt>
      <trkpt lat="45.77609" lon="-1.203">
        <ele>64.6</ele>
        <time>2020-01-26T08:28:04Z</time>
      </trkpt>
      <trkpt lat="45.77608" lon="-1.20305">
        <ele>64.4</ele>
        <time>2020-01-26T08:28:05Z</time>
      </trkpt>
      <trkpt lat="45.77609" lon="-1.2031">
        <ele>64.4</ele>
        <time>2020-01-26T08:28:06Z</time>
      </trkpt>
      <trkpt lat="45.77608" lon="-1.20315">
        <ele>64</ele>
        <time>2020-01-26T08:28:07Z</time>
      </trkpt>
      <trkpt lat="45.77609" lon="-1.2032">
        <ele>64</ele>
        <time>2020-01-26T08:28:08Z</time>
      </trkpt>
      <trkpt lat="45.77609" lon="-1.20325">
        <ele>64</ele>
        <time>2020-01-26T08:28:09Z</time>
      </trkpt>
      <trkpt lat="45.77609" lon="-1.2033">
        <ele>64</ele>
        <time>2020-01-26T08:28:10Z</time>
      </trkpt>
      <trkpt lat="45.7761" lon="-1.20334">
        <ele>64.2</ele>
        <time>2020-01-26T08:28:11Z</time>
      </trkpt>
      <trkpt lat="45.7761" lon="-1.20339">
        <ele>64.4</ele>
        <time>2020-01-26T08:28:12Z</time>
      </trkpt>
      <trkpt lat="45.7761" lon="-1.20343">
        <ele>64.8</ele>
        <time>2020-01-26T08:28:13Z</time>
      </trkpt>
      <trkpt lat="45.7761" lon="-1.20347">
        <ele>65.2</ele>
        <time>2020-01-26T08:28:14Z</time>
      </trkpt>
      <trkpt lat="45.7761" lon="-1.20351">
        <ele>65.4</ele>
        <time>2020-01-26T08:28:15Z</time>
      </trkpt>
      <trkpt lat="45.77611" lon="-1.20355">
        <ele>65.8</ele>
        <time>2020-01-26T08:28:16Z</time>
      </trkpt>
      <trkpt lat="45.77611" lon="-1.2036">
        <ele>66</ele>
        <time>2020-01-26T08:28:17Z</time>
      </trkpt>
      <trkpt lat="45.77611" lon="-1.20364">
        <ele>66</ele>
        <time>2020-01-26T08:28:18Z</time>
      </trkpt>
      <trkpt lat="45.77611" lon="-1.20369">
        <ele>66.4</ele>
        <time>2020-01-26T08:28:19Z</time>
      </trkpt>
      <trkpt lat="45.77612" lon="-1.20373">
        <ele>66.4</ele>
        <time>2020-01-26T08:28:20Z</time>
      </trkpt>
      <trkpt lat="45.77612" lon="-1.20378">
        <ele>66.6</ele>
        <time>2020-01-26T08:28:21Z</time>
      </trkpt>
      <trkpt lat="45.77612" lon="-1.20382">
        <ele>66.8</ele>
        <time>2020-01-26T08:28:22Z</time>
      </trkpt>
      <trkpt lat="45.77612" lon="-1.20387">
        <ele>67</ele>
        <time>2020-01-26T08:28:23Z</time>
      </trkpt>
      <trkpt lat="45.77612" lon="-1.20392">
        <ele>67.2</ele>
        <time>2020-01-26T08:28:24Z</time>
      </trkpt>
      <trkpt lat="45.77612" lon="-1.20397">
        <ele>67.4</ele>
        <time>2020-01-26T08:28:25Z</time>
      </trkpt>
      <trkpt lat="45.77612" lon="-1.20401">
        <ele>67.6</ele>
        <time>2020-01-26T08:28:26Z</time>
      </trkpt>
      <trkpt lat="45.77612" lon="-1.20406">
        <ele>68</ele>
        <time>2020-01-26T08:28:27Z</time>
      </trkpt>
      <trkpt lat="45.77612" lon="-1.20411">
        <ele>68.2</ele>
        <time>2020-01-26T08:28:28Z</time>
      </trkpt>
      <trkpt lat="45.77612" lon="-1.20416">
        <ele>68.4</ele>
        <time>2020-01-26T08:28:29Z</time>
      </trkpt>
      <trkpt lat="45.77612" lon="-1.2042">
        <ele>68.8</ele>
        <time>2020-01-26T08:28:30Z</time>
      </trkpt>
      <trkpt lat="45.77612" lon="-1.20425">
        <ele>68.8</ele>
        <time>2020-01-26T08:28:31Z</time>
      </trkpt>
      <trkpt lat="45.77613" lon="-1.20429">
        <ele>68.8</ele>
        <time>2020-01-26T08:28:32Z</time>
      </trkpt>
      <trkpt lat="45.77613" lon="-1.20434">
        <ele>69</ele>
        <time>2020-01-26T08:28:33Z</time>
      </trkpt>
      <trkpt lat="45.77613" lon="-1.20437">
        <ele>69.2</ele>
        <time>2020-01-26T08:28:34Z</time>
      </trkpt>
      <trkpt lat="45.77613" lon="-1.20442">
        <ele>69.4</ele>
        <time>2020-01-26T08:28:35Z</time>
      </trkpt>
      <trkpt lat="45.77613" lon="-1.20447">
        <ele>69.6</ele>
        <time>2020-01-26T08:28:36Z</time>
      </trkpt>
      <trkpt lat="45.77614" lon="-1.20451">
        <ele>70</ele>
        <time>2020-01-26T08:28:37Z</time>
      </trkpt>
      <trkpt lat="45.77614" lon="-1.20456">
        <ele>70.2</ele>
        <time>2020-01-26T08:28:38Z</time>
      </trkpt>
      <trkpt lat="45.77614" lon="-1.2046">
        <ele>70.4</ele>
        <time>2020-01-26T08:28:39Z</time>
      </trkpt>
      <trkpt lat="45.77614" lon="-1.20465">
        <ele>70.6</ele>
        <time>2020-01-26T08:28:40Z</time>
      </trkpt>
      <trkpt lat="45.77614" lon="-1.2047">
        <ele>70.6</ele>
        <time>2020-01-26T08:28:41Z</time>
      </trkpt>
      <trkpt lat="45.77615" lon="-1.20475">
        <ele>70.8</ele>
        <time>2020-01-26T08:28:42Z</time>
      </trkpt>
      <trkpt lat="45.77616" lon="-1.20479">
        <ele>70.8</ele>
        <time>2020-01-26T08:28:43Z</time>
      </trkpt>
      <trkpt lat="45.77616" lon="-1.20484">
        <ele>70.8</ele>
        <time>2020-01-26T08:28:44Z</time>
      </trkpt>
      <trkpt lat="45.77616" lon="-1.20489">
        <ele>70.8</ele>
        <time>2020-01-26T08:28:45Z</time>
      </trkpt>
      <trkpt lat="45.77616" lon="-1.20493">
        <ele>71</ele>
        <time>2020-01-26T08:28:46Z</time>
      </trkpt>
      <trkpt lat="45.77616" lon="-1.20498">
        <ele>71</ele>
        <time>2020-01-26T08:28:47Z</time>
      </trkpt>
      <trkpt lat="45.77617" lon="-1.20502">
        <ele>71</ele>
        <time>2020-01-26T08:28:48Z</time>
      </trkpt>
      <trkpt lat="45.77617" lon="-1.20507">
        <ele>71.2</ele>
        <time>2020-01-26T08:28:49Z</time>
      </trkpt>
      <trkpt lat="45.77617" lon="-1.20512">
        <ele>71.4</ele>
        <time>2020-01-26T08:28:50Z</time>
      </trkpt>
      <trkpt lat="45.77617" lon="-1.20517">
        <ele>71.6</ele>
        <time>2020-01-26T08:28:51Z</time>
      </trkpt>
      <trkpt lat="45.77617" lon="-1.20522">
        <ele>71.6</ele>
        <time>2020-01-26T08:28:52Z</time>
      </trkpt>
      <trkpt lat="45.77617" lon="-1.20526">
        <ele>71.8</ele>
        <time>2020-01-26T08:28:53Z</time>
      </trkpt>
      <trkpt lat="45.77617" lon="-1.20532">
        <ele>72</ele>
        <time>2020-01-26T08:28:54Z</time>
      </trkpt>
      <trkpt lat="45.77617" lon="-1.20537">
        <ele>72.4</ele>
        <time>2020-01-26T08:28:55Z</time>
      </trkpt>
      <trkpt lat="45.77617" lon="-1.20542">
        <ele>72.4</ele>
        <time>2020-01-26T08:28:56Z</time>
      </trkpt>
      <trkpt lat="45.77617" lon="-1.20548">
        <ele>72.4</ele>
        <time>2020-01-26T08:28:57Z</time>
      </trkpt>
      <trkpt lat="45.77617" lon="-1.20553">
        <ele>72.6</ele>
        <time>2020-01-26T08:28:58Z</time>
      </trkpt>
      <trkpt lat="45.77618" lon="-1.2056">
        <ele>72.4</ele>
        <time>2020-01-26T08:28:59Z</time>
      </trkpt>
      <trkpt lat="45.77618" lon="-1.20566">
        <ele>72.2</ele>
        <time>2020-01-26T08:29:00Z</time>
      </trkpt>
      <trkpt lat="45.77618" lon="-1.20573">
        <ele>72.2</ele>
        <time>2020-01-26T08:29:01Z</time>
      </trkpt>
      <trkpt lat="45.77618" lon="-1.2058">
        <ele>71.8</ele>
        <time>2020-01-26T08:29:02Z</time>
      </trkpt>
      <trkpt lat="45.77618" lon="-1.20588">
        <ele>71.6</ele>
        <time>2020-01-26T08:29:03Z</time>
      </trkpt>
      <trkpt lat="45.77618" lon="-1.20596">
        <ele>71.6</ele>
        <time>2020-01-26T08:29:04Z</time>
      </trkpt>
      <trkpt lat="45.77618" lon="-1.20605">
        <ele>71.4</ele>
        <time>2020-01-26T08:29:05Z</time>
      </trkpt>
      <trkpt lat="45.77618" lon="-1.20613">
        <ele>71.2</ele>
        <time>2020-01-26T08:29:06Z</time>
      </trkpt>
      <trkpt lat="45.77618" lon="-1.20623">
        <ele>71</ele>
        <time>2020-01-26T08:29:07Z</time>
      </trkpt>
      <trkpt lat="45.77619" lon="-1.20633">
        <ele>70.4</ele>
        <time>2020-01-26T08:29:08Z</time>
      </trkpt>
      <trkpt lat="45.77619" lon="-1.20643">
        <ele>70</ele>
        <time>2020-01-26T08:29:09Z</time>
      </trkpt>
      <trkpt lat="45.77619" lon="-1.20653">
        <ele>69.6</ele>
        <time>2020-01-26T08:29:10Z</time>
      </trkpt>
      <trkpt lat="45.7762" lon="-1.20662">
        <ele>69.2</ele>
        <time>2020-01-26T08:29:11Z</time>
      </trkpt>
      <trkpt lat="45.7762" lon="-1.20672">
        <ele>68.8</ele>
        <time>2020-01-26T08:29:12Z</time>
      </trkpt>
      <trkpt lat="45.7762" lon="-1.20681">
        <ele>68.6</ele>
        <time>2020-01-26T08:29:13Z</time>
      </trkpt>
      <trkpt lat="45.7762" lon="-1.2069">
        <ele>68.4</ele>
        <time>2020-01-26T08:29:14Z</time>
      </trkpt>
      <trkpt lat="45.77621" lon="-1.20698">
        <ele>68.4</ele>
        <time>2020-01-26T08:29:15Z</time>
      </trkpt>
      <trkpt lat="45.77622" lon="-1.20706">
        <ele>68.2</ele>
        <time>2020-01-26T08:29:16Z</time>
      </trkpt>
      <trkpt lat="45.77622" lon="-1.20713">
        <ele>68.2</ele>
        <time>2020-01-26T08:29:17Z</time>
      </trkpt>
      <trkpt lat="45.77622" lon="-1.20721">
        <ele>68.2</ele>
        <time>2020-01-26T08:29:18Z</time>
      </trkpt>
      <trkpt lat="45.77622" lon="-1.20728">
        <ele>68.2</ele>
        <time>2020-01-26T08:29:19Z</time>
      </trkpt>
      <trkpt lat="45.77623" lon="-1.20736">
        <ele>68.4</ele>
        <time>2020-01-26T08:29:20Z</time>
      </trkpt>
      <trkpt lat="45.77623" lon="-1.20743">
        <ele>68.2</ele>
        <time>2020-01-26T08:29:21Z</time>
      </trkpt>
      <trkpt lat="45.77623" lon="-1.20751">
        <ele>68.2</ele>
        <time>2020-01-26T08:29:22Z</time>
      </trkpt>
      <trkpt lat="45.77623" lon="-1.20758">
        <ele>68.2</ele>
        <time>2020-01-26T08:29:23Z</time>
      </trkpt>
      <trkpt lat="45.77623" lon="-1.20766">
        <ele>68.2</ele>
        <time>2020-01-26T08:29:24Z</time>
      </trkpt>
      <trkpt lat="45.77624" lon="-1.20774">
        <ele>68</ele>
        <time>2020-01-26T08:29:25Z</time>
      </trkpt>
      <trkpt lat="45.77624" lon="-1.20782">
        <ele>68</ele>
        <time>2020-01-26T08:29:26Z</time>
      </trkpt>
      <trkpt lat="45.77623" lon="-1.20789">
        <ele>68</ele>
        <time>2020-01-26T08:29:27Z</time>
      </trkpt>
      <trkpt lat="45.77624" lon="-1.20796">
        <ele>68</ele>
        <time>2020-01-26T08:29:28Z</time>
      </trkpt>
      <trkpt lat="45.77624" lon="-1.20803">
        <ele>68</ele>
        <time>2020-01-26T08:29:29Z</time>
      </trkpt>
      <trkpt lat="45.77624" lon="-1.2081">
        <ele>68</ele>
        <time>2020-01-26T08:29:30Z</time>
      </trkpt>
      <trkpt lat="45.77624" lon="-1.20817">
        <ele>68</ele>
        <time>2020-01-26T08:29:31Z</time>
      </trkpt>
      <trkpt lat="45.77624" lon="-1.20824">
        <ele>68.2</ele>
        <time>2020-01-26T08:29:32Z</time>
      </trkpt>
      <trkpt lat="45.77625" lon="-1.2083">
        <ele>68.4</ele>
        <time>2020-01-26T08:29:33Z</time>
      </trkpt>
      <trkpt lat="45.77624" lon="-1.20837">
        <ele>68.6</ele>
        <time>2020-01-26T08:29:34Z</time>
      </trkpt>
      <trkpt lat="45.77625" lon="-1.20844">
        <ele>68.6</ele>
        <time>2020-01-26T08:29:35Z</time>
      </trkpt>
      <trkpt lat="45.77625" lon="-1.20851">
        <ele>68.6</ele>
        <time>2020-01-26T08:29:36Z</time>
      </trkpt>
      <trkpt lat="45.77625" lon="-1.20857">
        <ele>68.4</ele>
        <time>2020-01-26T08:29:37Z</time>
      </trkpt>
      <trkpt lat="45.77626" lon="-1.20864">
        <ele>68.6</ele>
        <time>2020-01-26T08:29:38Z</time>
      </trkpt>
      <trkpt lat="45.77626" lon="-1.2087">
        <ele>68.6</ele>
        <time>2020-01-26T08:29:39Z</time>
      </trkpt>
      <trkpt lat="45.77626" lon="-1.20878">
        <ele>69</ele>
        <time>2020-01-26T08:29:40Z</time>
      </trkpt>
      <trkpt lat="45.77626" lon="-1.20885">
        <ele>69</ele>
        <time>2020-01-26T08:29:41Z</time>
      </trkpt>
      <trkpt lat="45.77626" lon="-1.20892">
        <ele>69</ele>
        <time>2020-01-26T08:29:42Z</time>
      </trkpt>
      <trkpt lat="45.77626" lon="-1.209">
        <ele>68.8</ele>
        <time>2020-01-26T08:29:43Z</time>
      </trkpt>
      <trkpt lat="45.77626" lon="-1.20907">
        <ele>68.6</ele>
        <time>2020-01-26T08:29:44Z</time>
      </trkpt>
      <trkpt lat="45.77626" lon="-1.20914">
        <ele>68.4</ele>
        <time>2020-01-26T08:29:45Z</time>
      </trkpt>
      <trkpt lat="45.77626" lon="-1.20922">
        <ele>68</ele>
        <time>2020-01-26T08:29:46Z</time>
      </trkpt>
      <trkpt lat="45.77626" lon="-1.2093">
        <ele>67.8</ele>
        <time>2020-01-26T08:29:47Z</time>
      </trkpt>
      <trkpt lat="45.77626" lon="-1.20938">
        <ele>67.6</ele>
        <time>2020-01-26T08:29:48Z</time>
      </trkpt>
      <trkpt lat="45.77626" lon="-1.20947">
        <ele>67.4</ele>
        <time>2020-01-26T08:29:49Z</time>
      </trkpt>
      <trkpt lat="45.77626" lon="-1.20955">
        <ele>67</ele>
        <time>2020-01-26T08:29:50Z</time>
      </trkpt>
      <trkpt lat="45.77626" lon="-1.20963">
        <ele>66.8</ele>
        <time>2020-01-26T08:29:51Z</time>
      </trkpt>
      <trkpt lat="45.77626" lon="-1.20971">
        <ele>66.4</ele>
        <time>2020-01-26T08:29:52Z</time>
      </trkpt>
      <trkpt lat="45.77626" lon="-1.2098">
        <ele>66</ele>
        <time>2020-01-26T08:29:53Z</time>
      </trkpt>
      <trkpt lat="45.77626" lon="-1.20988">
        <ele>65.8</ele>
        <time>2020-01-26T08:29:54Z</time>
      </trkpt>
      <trkpt lat="45.77627" lon="-1.20997">
        <ele>65.2</ele>
        <time>2020-01-26T08:29:55Z</time>
      </trkpt>
      <trkpt lat="45.77627" lon="-1.21007">
        <ele>65</ele>
        <time>2020-01-26T08:29:56Z</time>
      </trkpt>
      <trkpt lat="45.77627" lon="-1.21016">
        <ele>64.8</ele>
        <time>2020-01-26T08:29:57Z</time>
      </trkpt>
      <trkpt lat="45.77627" lon="-1.21026">
        <ele>64.6</ele>
        <time>2020-01-26T08:29:58Z</time>
      </trkpt>
      <trkpt lat="45.77628" lon="-1.21036">
        <ele>64.4</ele>
        <time>2020-01-26T08:29:59Z</time>
      </trkpt>
      <trkpt lat="45.77628" lon="-1.21047">
        <ele>64</ele>
        <time>2020-01-26T08:30:00Z</time>
      </trkpt>
      <trkpt lat="45.77628" lon="-1.21057">
        <ele>63.8</ele>
        <time>2020-01-26T08:30:01Z</time>
      </trkpt>
      <trkpt lat="45.77629" lon="-1.21067">
        <ele>63.6</ele>
        <time>2020-01-26T08:30:02Z</time>
      </trkpt>
      <trkpt lat="45.77629" lon="-1.21077">
        <ele>63.2</ele>
        <time>2020-01-26T08:30:03Z</time>
      </trkpt>
      <trkpt lat="45.77629" lon="-1.21089">
        <ele>62.8</ele>
        <time>2020-01-26T08:30:04Z</time>
      </trkpt>
      <trkpt lat="45.77629" lon="-1.21099">
        <ele>62.6</ele>
        <time>2020-01-26T08:30:05Z</time>
      </trkpt>
      <trkpt lat="45.7763" lon="-1.21109">
        <ele>62.4</ele>
        <time>2020-01-26T08:30:06Z</time>
      </trkpt>
      <trkpt lat="45.7763" lon="-1.2112">
        <ele>62.4</ele>
        <time>2020-01-26T08:30:07Z</time>
      </trkpt>
      <trkpt lat="45.77631" lon="-1.2113">
        <ele>62.2</ele>
        <time>2020-01-26T08:30:08Z</time>
      </trkpt>
      <trkpt lat="45.77631" lon="-1.2114">
        <ele>62.4</ele>
        <time>2020-01-26T08:30:09Z</time>
      </trkpt>
      <trkpt lat="45.77631" lon="-1.21149">
        <ele>62.4</ele>
        <time>2020-01-26T08:30:10Z</time>
      </trkpt>
      <trkpt lat="45.77631" lon="-1.21158">
        <ele>62.6</ele>
        <time>2020-01-26T08:30:11Z</time>
      </trkpt>
      <trkpt lat="45.77631" lon="-1.21166">
        <ele>62.6</ele>
        <time>2020-01-26T08:30:12Z</time>
      </trkpt>
      <trkpt lat="45.77631" lon="-1.21176">
        <ele>62.8</ele>
        <time>2020-01-26T08:30:13Z</time>
      </trkpt>
      <trkpt lat="45.77631" lon="-1.21185">
        <ele>63</ele>
        <time>2020-01-26T08:30:14Z</time>
      </trkpt>
      <trkpt lat="45.7763" lon="-1.21195">
        <ele>63.2</ele>
        <time>2020-01-26T08:30:15Z</time>
      </trkpt>
      <trkpt lat="45.7763" lon="-1.21205">
        <ele>63.4</ele>
        <time>2020-01-26T08:30:16Z</time>
      </trkpt>
      <trkpt lat="45.7763" lon="-1.21216">
        <ele>63.6</ele>
        <time>2020-01-26T08:30:17Z</time>
      </trkpt>
      <trkpt lat="45.7763" lon="-1.21226">
        <ele>63.6</ele>
        <time>2020-01-26T08:30:18Z</time>
      </trkpt>
      <trkpt lat="45.77631" lon="-1.21236">
        <ele>64</ele>
        <time>2020-01-26T08:30:19Z</time>
      </trkpt>
      <trkpt lat="45.77631" lon="-1.21245">
        <ele>64.6</ele>
        <time>2020-01-26T08:30:20Z</time>
      </trkpt>
      <trkpt lat="45.77631" lon="-1.21255">
        <ele>65</ele>
        <time>2020-01-26T08:30:21Z</time>
      </trkpt>
      <trkpt lat="45.77631" lon="-1.21264">
        <ele>65.2</ele>
        <time>2020-01-26T08:30:22Z</time>
      </trkpt>
      <trkpt lat="45.77631" lon="-1.21273">
        <ele>65.6</ele>
        <time>2020-01-26T08:30:23Z</time>
      </trkpt>
      <trkpt lat="45.77631" lon="-1.21283">
        <ele>66</ele>
        <time>2020-01-26T08:30:24Z</time>
      </trkpt>
      <trkpt lat="45.77632" lon="-1.21293">
        <ele>66.2</ele>
        <time>2020-01-26T08:30:25Z</time>
      </trkpt>
      <trkpt lat="45.77632" lon="-1.21301">
        <ele>66.4</ele>
        <time>2020-01-26T08:30:26Z</time>
      </trkpt>
      <trkpt lat="45.77632" lon="-1.2131">
        <ele>66.6</ele>
        <time>2020-01-26T08:30:27Z</time>
      </trkpt>
      <trkpt lat="45.77632" lon="-1.21318">
        <ele>66.4</ele>
        <time>2020-01-26T08:30:28Z</time>
      </trkpt>
      <trkpt lat="45.77632" lon="-1.21327">
        <ele>66.6</ele>
        <time>2020-01-26T08:30:29Z</time>
      </trkpt>
      <trkpt lat="45.77633" lon="-1.21335">
        <ele>66.6</ele>
        <time>2020-01-26T08:30:30Z</time>
      </trkpt>
      <trkpt lat="45.77633" lon="-1.21342">
        <ele>66.6</ele>
        <time>2020-01-26T08:30:31Z</time>
      </trkpt>
      <trkpt lat="45.77634" lon="-1.21349">
        <ele>66.8</ele>
        <time>2020-01-26T08:30:32Z</time>
      </trkpt>
      <trkpt lat="45.77634" lon="-1.21356">
        <ele>66.8</ele>
        <time>2020-01-26T08:30:33Z</time>
      </trkpt>
      <trkpt lat="45.77635" lon="-1.21364">
        <ele>66.8</ele>
        <time>2020-01-26T08:30:34Z</time>
      </trkpt>
      <trkpt lat="45.77635" lon="-1.21372">
        <ele>66.8</ele>
        <time>2020-01-26T08:30:35Z</time>
      </trkpt>
      <trkpt lat="45.77636" lon="-1.21381">
        <ele>67</ele>
        <time>2020-01-26T08:30:36Z</time>
      </trkpt>
      <trkpt lat="45.77636" lon="-1.21388">
        <ele>67</ele>
        <time>2020-01-26T08:30:37Z</time>
      </trkpt>
      <trkpt lat="45.77636" lon="-1.21396">
        <ele>67</ele>
        <time>2020-01-26T08:30:38Z</time>
      </trkpt>
      <trkpt lat="45.77636" lon="-1.21404">
        <ele>67</ele>
        <time>2020-01-26T08:30:39Z</time>
      </trkpt>
      <trkpt lat="45.77636" lon="-1.21413">
        <ele>67</ele>
        <time>2020-01-26T08:30:40Z</time>
      </trkpt>
      <trkpt lat="45.77636" lon="-1.21422">
        <ele>67</ele>
        <time>2020-01-26T08:30:41Z</time>
      </trkpt>
      <trkpt lat="45.77636" lon="-1.21431">
        <ele>67</ele>
        <time>2020-01-26T08:30:42Z</time>
      </trkpt>
      <trkpt lat="45.77636" lon="-1.2144">
        <ele>67</ele>
        <time>2020-01-26T08:30:43Z</time>
      </trkpt>
      <trkpt lat="45.77636" lon="-1.2145">
        <ele>66.8</ele>
        <time>2020-01-26T08:30:44Z</time>
      </trkpt>
      <trkpt lat="45.77637" lon="-1.2146">
        <ele>66.4</ele>
        <time>2020-01-26T08:30:45Z</time>
      </trkpt>
      <trkpt lat="45.77637" lon="-1.2147">
        <ele>66.2</ele>
        <time>2020-01-26T08:30:46Z</time>
      </trkpt>
      <trkpt lat="45.77637" lon="-1.21481">
        <ele>66</ele>
        <time>2020-01-26T08:30:47Z</time>
      </trkpt>
      <trkpt lat="45.77638" lon="-1.21492">
        <ele>65.8</ele>
        <time>2020-01-26T08:30:48Z</time>
      </trkpt>
      <trkpt lat="45.77639" lon="-1.21502">
        <ele>65.6</ele>
        <time>2020-01-26T08:30:49Z</time>
      </trkpt>
      <trkpt lat="45.77639" lon="-1.21514">
        <ele>65.2</ele>
        <time>2020-01-26T08:30:50Z</time>
      </trkpt>
      <trkpt lat="45.77639" lon="-1.21525">
        <ele>64.8</ele>
        <time>2020-01-26T08:30:51Z</time>
      </trkpt>
      <trkpt lat="45.7764" lon="-1.21536">
        <ele>64.6</ele>
        <time>2020-01-26T08:30:52Z</time>
      </trkpt>
      <trkpt lat="45.77641" lon="-1.21547">
        <ele>64.4</ele>
        <time>2020-01-26T08:30:53Z</time>
      </trkpt>
      <trkpt lat="45.77643" lon="-1.21558">
        <ele>64.2</ele>
        <time>2020-01-26T08:30:54Z</time>
      </trkpt>
      <trkpt lat="45.77647" lon="-1.21569">
        <ele>64</ele>
        <time>2020-01-26T08:30:55Z</time>
      </trkpt>
      <trkpt lat="45.7765" lon="-1.21578">
        <ele>64</ele>
        <time>2020-01-26T08:30:56Z</time>
      </trkpt>
      <trkpt lat="45.77656" lon="-1.21586">
        <ele>64</ele>
        <time>2020-01-26T08:30:57Z</time>
      </trkpt>
      <trkpt lat="45.77661" lon="-1.21593">
        <ele>64</ele>
        <time>2020-01-26T08:30:58Z</time>
      </trkpt>
      <trkpt lat="45.77667" lon="-1.21599">
        <ele>64</ele>
        <time>2020-01-26T08:30:59Z</time>
      </trkpt>
      <trkpt lat="45.77673" lon="-1.21605">
        <ele>63.8</ele>
        <time>2020-01-26T08:31:00Z</time>
      </trkpt>
      <trkpt lat="45.77679" lon="-1.21611">
        <ele>63.6</ele>
        <time>2020-01-26T08:31:01Z</time>
      </trkpt>
      <trkpt lat="45.77685" lon="-1.21617">
        <ele>63.4</ele>
        <time>2020-01-26T08:31:02Z</time>
      </trkpt>
      <trkpt lat="45.77691" lon="-1.21623">
        <ele>63.4</ele>
        <time>2020-01-26T08:31:03Z</time>
      </trkpt>
      <trkpt lat="45.77697" lon="-1.21629">
        <ele>63.2</ele>
        <time>2020-01-26T08:31:04Z</time>
      </trkpt>
      <trkpt lat="45.77702" lon="-1.21635">
        <ele>63.2</ele>
        <time>2020-01-26T08:31:05Z</time>
      </trkpt>
      <trkpt lat="45.77708" lon="-1.21641">
        <ele>63.2</ele>
        <time>2020-01-26T08:31:06Z</time>
      </trkpt>
      <trkpt lat="45.77713" lon="-1.21647">
        <ele>63.2</ele>
        <time>2020-01-26T08:31:07Z</time>
      </trkpt>
      <trkpt lat="45.77719" lon="-1.21654">
        <ele>63</ele>
        <time>2020-01-26T08:31:08Z</time>
      </trkpt>
      <trkpt lat="45.77724" lon="-1.21661">
        <ele>63</ele>
        <time>2020-01-26T08:31:09Z</time>
      </trkpt>
      <trkpt lat="45.77731" lon="-1.21665">
        <ele>63.2</ele>
        <time>2020-01-26T08:31:10Z</time>
      </trkpt>
      <trkpt lat="45.77738" lon="-1.2167">
        <ele>63.2</ele>
        <time>2020-01-26T08:31:11Z</time>
      </trkpt>
      <trkpt lat="45.77744" lon="-1.21675">
        <ele>63.2</ele>
        <time>2020-01-26T08:31:12Z</time>
      </trkpt>
      <trkpt lat="45.77749" lon="-1.21679">
        <ele>62.8</ele>
        <time>2020-01-26T08:31:13Z</time>
      </trkpt>
      <trkpt lat="45.77754" lon="-1.21684">
        <ele>62.6</ele>
        <time>2020-01-26T08:31:14Z</time>
      </trkpt>
      <trkpt lat="45.77759" lon="-1.21688">
        <ele>62.6</ele>
        <time>2020-01-26T08:31:15Z</time>
      </trkpt>
      <trkpt lat="45.77764" lon="-1.21693">
        <ele>62.4</ele>
        <time>2020-01-26T08:31:16Z</time>
      </trkpt>
      <trkpt lat="45.77768" lon="-1.21698">
        <ele>62.6</ele>
        <time>2020-01-26T08:31:17Z</time>
      </trkpt>
      <trkpt lat="45.77773" lon="-1.21701">
        <ele>63</ele>
        <time>2020-01-26T08:31:18Z</time>
      </trkpt>
      <trkpt lat="45.77778" lon="-1.21706">
        <ele>63.2</ele>
        <time>2020-01-26T08:31:19Z</time>
      </trkpt>
      <trkpt lat="45.77782" lon="-1.2171">
        <ele>63.4</ele>
        <time>2020-01-26T08:31:20Z</time>
      </trkpt>
      <trkpt lat="45.77786" lon="-1.21714">
        <ele>63.6</ele>
        <time>2020-01-26T08:31:21Z</time>
      </trkpt>
      <trkpt lat="45.77791" lon="-1.21718">
        <ele>63.6</ele>
        <time>2020-01-26T08:31:22Z</time>
      </trkpt>
      <trkpt lat="45.77795" lon="-1.21723">
        <ele>64</ele>
        <time>2020-01-26T08:31:23Z</time>
      </trkpt>
      <trkpt lat="45.77799" lon="-1.21727">
        <ele>64</ele>
        <time>2020-01-26T08:31:24Z</time>
      </trkpt>
      <trkpt lat="45.77803" lon="-1.21732">
        <ele>64</ele>
        <time>2020-01-26T08:31:25Z</time>
      </trkpt>
      <trkpt lat="45.77807" lon="-1.21735">
        <ele>63.8</ele>
        <time>2020-01-26T08:31:26Z</time>
      </trkpt>
      <trkpt lat="45.77811" lon="-1.21739">
        <ele>63.8</ele>
        <time>2020-01-26T08:31:27Z</time>
      </trkpt>
      <trkpt lat="45.77815" lon="-1.21742">
        <ele>63.8</ele>
        <time>2020-01-26T08:31:28Z</time>
      </trkpt>
      <trkpt lat="45.77818" lon="-1.21746">
        <ele>64.2</ele>
        <time>2020-01-26T08:31:29Z</time>
      </trkpt>
      <trkpt lat="45.77821" lon="-1.21748">
        <ele>64.4</ele>
        <time>2020-01-26T08:31:30Z</time>
      </trkpt>
      <trkpt lat="45.77825" lon="-1.21753">
        <ele>64.6</ele>
        <time>2020-01-26T08:31:31Z</time>
      </trkpt>
      <trkpt lat="45.77829" lon="-1.21757">
        <ele>64.6</ele>
        <time>2020-01-26T08:31:32Z</time>
      </trkpt>
      <trkpt lat="45.77832" lon="-1.21763">
        <ele>64.8</ele>
        <time>2020-01-26T08:31:33Z</time>
      </trkpt>
      <trkpt lat="45.77837" lon="-1.21767">
        <ele>65</ele>
        <time>2020-01-26T08:31:34Z</time>
      </trkpt>
      <trkpt lat="45.7784" lon="-1.21772">
        <ele>65</ele>
        <time>2020-01-26T08:31:35Z</time>
      </trkpt>
      <trkpt lat="45.77845" lon="-1.21776">
        <ele>64.8</ele>
        <time>2020-01-26T08:31:36Z</time>
      </trkpt>
      <trkpt lat="45.77851" lon="-1.21779">
        <ele>64.6</ele>
        <time>2020-01-26T08:31:37Z</time>
      </trkpt>
      <trkpt lat="45.77857" lon="-1.21777">
        <ele>64</ele>
        <time>2020-01-26T08:31:38Z</time>
      </trkpt>
      <trkpt lat="45.77863" lon="-1.21777">
        <ele>63.6</ele>
        <time>2020-01-26T08:31:39Z</time>
      </trkpt>
      <trkpt lat="45.7787" lon="-1.21776">
        <ele>63.2</ele>
        <time>2020-01-26T08:31:40Z</time>
      </trkpt>
      <trkpt lat="45.77877" lon="-1.21777">
        <ele>62.6</ele>
        <time>2020-01-26T08:31:41Z</time>
      </trkpt>
      <trkpt lat="45.77882" lon="-1.21775">
        <ele>62.2</ele>
        <time>2020-01-26T08:31:42Z</time>
      </trkpt>
      <trkpt lat="45.77885" lon="-1.21777">
        <ele>62</ele>
        <time>2020-01-26T08:31:43Z</time>
      </trkpt>
      <trkpt lat="45.77887" lon="-1.21777">
        <ele>62</ele>
        <time>2020-01-26T08:31:44Z</time>
      </trkpt>
      <trkpt lat="45.77888" lon="-1.21777">
        <ele>62.2</ele>
        <time>2020-01-26T08:31:45Z</time>
      </trkpt>
      <trkpt lat="45.77889" lon="-1.21779">
        <ele>62.2</ele>
        <time>2020-01-26T08:31:46Z</time>
      </trkpt>
      <trkpt lat="45.7789" lon="-1.2178">
        <ele>62.4</ele>
        <time>2020-01-26T08:31:47Z</time>
      </trkpt>
      <trkpt lat="45.77891" lon="-1.2178">
        <ele>62.6</ele>
        <time>2020-01-26T08:31:48Z</time>
      </trkpt>
      <trkpt lat="45.77893" lon="-1.21781">
        <ele>62.6</ele>
        <time>2020-01-26T08:31:49Z</time>
      </trkpt>
      <trkpt lat="45.77893" lon="-1.21781">
        <ele>63</ele>
        <time>2020-01-26T08:31:50Z</time>
      </trkpt>
      <trkpt lat="45.77894" lon="-1.21782">
        <ele>63.6</ele>
        <time>2020-01-26T08:31:51Z</time>
      </trkpt>
      <trkpt lat="45.77894" lon="-1.21782">
        <ele>63.8</ele>
        <time>2020-01-26T08:31:52Z</time>
      </trkpt>
      <trkpt lat="45.77895" lon="-1.21782">
        <ele>64.2</ele>
        <time>2020-01-26T08:31:53Z</time>
      </trkpt>
      <trkpt lat="45.77895" lon="-1.21782">
        <ele>64.4</ele>
        <time>2020-01-26T08:31:54Z</time>
      </trkpt>
      <trkpt lat="45.77895" lon="-1.21781">
        <ele>64.6</ele>
        <time>2020-01-26T08:31:55Z</time>
      </trkpt>
      <trkpt lat="45.77895" lon="-1.21781">
        <ele>64.6</ele>
        <time>2020-01-26T08:31:56Z</time>
      </trkpt>
      <trkpt lat="45.77895" lon="-1.21781">
        <ele>64.8</ele>
        <time>2020-01-26T08:31:57Z</time>
      </trkpt>
      <trkpt lat="45.77895" lon="-1.21781">
        <ele>64.8</ele>
        <time>2020-01-26T08:31:58Z</time>
      </trkpt>
      <trkpt lat="45.77895" lon="-1.21781">
        <ele>65.2</ele>
        <time>2020-01-26T08:31:59Z</time>
      </trkpt>
      <trkpt lat="45.77895" lon="-1.21781">
        <ele>65.4</ele>
        <time>2020-01-26T08:32:00Z</time>
      </trkpt>
      <trkpt lat="45.77895" lon="-1.21781">
        <ele>65.2</ele>
        <time>2020-01-26T08:32:01Z</time>
      </trkpt>
      <trkpt lat="45.77895" lon="-1.21781">
        <ele>65.2</ele>
        <time>2020-01-26T08:32:02Z</time>
      </trkpt>
      <trkpt lat="45.77895" lon="-1.21781">
        <ele>65.2</ele>
        <time>2020-01-26T08:32:03Z</time>
      </trkpt>
      <trkpt lat="45.77895" lon="-1.21781">
        <ele>65</ele>
        <time>2020-01-26T08:32:04Z</time>
      </trkpt>
      <trkpt lat="45.77895" lon="-1.21781">
        <ele>65</ele>
        <time>2020-01-26T08:32:05Z</time>
      </trkpt>
      <trkpt lat="45.77895" lon="-1.21781">
        <ele>65</ele>
        <time>2020-01-26T08:32:06Z</time>
      </trkpt>
      <trkpt lat="45.77895" lon="-1.21781">
        <ele>65</ele>
        <time>2020-01-26T08:32:07Z</time>
      </trkpt>
      <trkpt lat="45.77895" lon="-1.21781">
        <ele>65</ele>
        <time>2020-01-26T08:32:08Z</time>
      </trkpt>
      <trkpt lat="45.77895" lon="-1.21781">
        <ele>65</ele>
        <time>2020-01-26T08:32:09Z</time>
      </trkpt>
      <trkpt lat="45.77895" lon="-1.21782">
        <ele>65</ele>
        <time>2020-01-26T08:32:10Z</time>
      </trkpt>
      <trkpt lat="45.77896" lon="-1.21782">
        <ele>65</ele>
        <time>2020-01-26T08:32:11Z</time>
      </trkpt>
      <trkpt lat="45.77897" lon="-1.21782">
        <ele>65</ele>
        <time>2020-01-26T08:32:12Z</time>
      </trkpt>
      <trkpt lat="45.77898" lon="-1.21783">
        <ele>65</ele>
        <time>2020-01-26T08:32:13Z</time>
      </trkpt>
      <trkpt lat="45.77899" lon="-1.21784">
        <ele>65</ele>
        <time>2020-01-26T08:32:14Z</time>
      </trkpt>
      <trkpt lat="45.779" lon="-1.21785">
        <ele>65</ele>
        <time>2020-01-26T08:32:15Z</time>
      </trkpt>
      <trkpt lat="45.779" lon="-1.21786">
        <ele>65</ele>
        <time>2020-01-26T08:32:16Z</time>
      </trkpt>
      <trkpt lat="45.77901" lon="-1.21788">
        <ele>64.8</ele>
        <time>2020-01-26T08:32:17Z</time>
      </trkpt>
      <trkpt lat="45.77903" lon="-1.21789">
        <ele>64.6</ele>
        <time>2020-01-26T08:32:18Z</time>
      </trkpt>
      <trkpt lat="45.77903" lon="-1.21791">
        <ele>64.4</ele>
        <time>2020-01-26T08:32:19Z</time>
      </trkpt>
      <trkpt lat="45.77905" lon="-1.21792">
        <ele>64.2</ele>
        <time>2020-01-26T08:32:20Z</time>
      </trkpt>
      <trkpt lat="45.77906" lon="-1.21795">
        <ele>64</ele>
        <time>2020-01-26T08:32:21Z</time>
      </trkpt>
      <trkpt lat="45.77908" lon="-1.21798">
        <ele>64</ele>
        <time>2020-01-26T08:32:22Z</time>
      </trkpt>
      <trkpt lat="45.77909" lon="-1.21799">
        <ele>63.8</ele>
        <time>2020-01-26T08:32:23Z</time>
      </trkpt>
      <trkpt lat="45.77911" lon="-1.21801">
        <ele>63.6</ele>
        <time>2020-01-26T08:32:24Z</time>
      </trkpt>
      <trkpt lat="45.77913" lon="-1.21802">
        <ele>63.8</ele>
        <time>2020-01-26T08:32:25Z</time>
      </trkpt>
      <trkpt lat="45.77914" lon="-1.21804">
        <ele>64</ele>
        <time>2020-01-26T08:32:26Z</time>
      </trkpt>
      <trkpt lat="45.77914" lon="-1.21807">
        <ele>64.2</ele>
        <time>2020-01-26T08:32:27Z</time>
      </trkpt>
      <trkpt lat="45.77915" lon="-1.2181">
        <ele>64.4</ele>
        <time>2020-01-26T08:32:28Z</time>
      </trkpt>
      <trkpt lat="45.77915" lon="-1.21812">
        <ele>64.6</ele>
        <time>2020-01-26T08:32:29Z</time>
      </trkpt>
      <trkpt lat="45.77916" lon="-1.21816">
        <ele>64.4</ele>
        <time>2020-01-26T08:32:30Z</time>
      </trkpt>
      <trkpt lat="45.77917" lon="-1.2182">
        <ele>64</ele>
        <time>2020-01-26T08:32:31Z</time>
      </trkpt>
      <trkpt lat="45.77918" lon="-1.21823">
        <ele>63.8</ele>
        <time>2020-01-26T08:32:32Z</time>
      </trkpt>
      <trkpt lat="45.77918" lon="-1.21827">
        <ele>63.4</ele>
        <time>2020-01-26T08:32:33Z</time>
      </trkpt>
      <trkpt lat="45.77918" lon="-1.21831">
        <ele>63</ele>
        <time>2020-01-26T08:32:34Z</time>
      </trkpt>
      <trkpt lat="45.77918" lon="-1.21835">
        <ele>62.8</ele>
        <time>2020-01-26T08:32:35Z</time>
      </trkpt>
      <trkpt lat="45.77918" lon="-1.21839">
        <ele>62.6</ele>
        <time>2020-01-26T08:32:36Z</time>
      </trkpt>
      <trkpt lat="45.77917" lon="-1.21842">
        <ele>62.4</ele>
        <time>2020-01-26T08:32:37Z</time>
      </trkpt>
      <trkpt lat="45.77916" lon="-1.21843">
        <ele>62.4</ele>
        <time>2020-01-26T08:32:38Z</time>
      </trkpt>
      <trkpt lat="45.77916" lon="-1.21843">
        <ele>62.2</ele>
        <time>2020-01-26T08:32:39Z</time>
      </trkpt>
      <trkpt lat="45.77916" lon="-1.21843">
        <ele>62.2</ele>
        <time>2020-01-26T08:32:40Z</time>
      </trkpt>
      <trkpt lat="45.77916" lon="-1.21843">
        <ele>62.2</ele>
        <time>2020-01-26T08:32:41Z</time>
      </trkpt>
      <trkpt lat="45.77916" lon="-1.21843">
        <ele>62</ele>
        <time>2020-01-26T08:32:42Z</time>
      </trkpt>
      <trkpt lat="45.77916" lon="-1.21842">
        <ele>62</ele>
        <time>2020-01-26T08:32:43Z</time>
      </trkpt>
      <trkpt lat="45.77916" lon="-1.21843">
        <ele>62</ele>
        <time>2020-01-26T08:32:44Z</time>
      </trkpt>
      <trkpt lat="45.77916" lon="-1.21843">
        <ele>62</ele>
        <time>2020-01-26T08:32:45Z</time>
      </trkpt>
      <trkpt lat="45.77916" lon="-1.21843">
        <ele>62</ele>
        <time>2020-01-26T08:32:46Z</time>
      </trkpt>
      <trkpt lat="45.77916" lon="-1.21843">
        <ele>61.8</ele>
        <time>2020-01-26T08:32:47Z</time>
      </trkpt>
      <trkpt lat="45.77916" lon="-1.21843">
        <ele>61.6</ele>
        <time>2020-01-26T08:32:48Z</time>
      </trkpt>
      <trkpt lat="45.77916" lon="-1.21843">
        <ele>61.4</ele>
        <time>2020-01-26T08:32:49Z</time>
      </trkpt>
      <trkpt lat="45.77916" lon="-1.21843">
        <ele>61.4</ele>
        <time>2020-01-26T08:32:50Z</time>
      </trkpt>
      <trkpt lat="45.77916" lon="-1.21843">
        <ele>61.2</ele>
        <time>2020-01-26T08:32:51Z</time>
      </trkpt>
      <trkpt lat="45.77916" lon="-1.21843">
        <ele>61.2</ele>
        <time>2020-01-26T08:32:52Z</time>
      </trkpt>
      <trkpt lat="45.77916" lon="-1.21843">
        <ele>61.2</ele>
        <time>2020-01-26T08:32:53Z</time>
      </trkpt>
      <trkpt lat="45.77916" lon="-1.21843">
        <ele>61.2</ele>
        <time>2020-01-26T08:32:54Z</time>
      </trkpt>
      <trkpt lat="45.77917" lon="-1.21843">
        <ele>61</ele>
        <time>2020-01-26T08:32:55Z</time>
      </trkpt>
      <trkpt lat="45.77916" lon="-1.21843">
        <ele>61</ele>
        <time>2020-01-26T08:32:56Z</time>
      </trkpt>
      <trkpt lat="45.77916" lon="-1.21843">
        <ele>61.2</ele>
        <time>2020-01-26T08:32:57Z</time>
      </trkpt>
      <trkpt lat="45.77916" lon="-1.21843">
        <ele>61.2</ele>
        <time>2020-01-26T08:32:58Z</time>
      </trkpt>
      <trkpt lat="45.77916" lon="-1.21843">
        <ele>61.4</ele>
        <time>2020-01-26T08:32:59Z</time>
      </trkpt>
      <trkpt lat="45.77916" lon="-1.21843">
        <ele>61.6</ele>
        <time>2020-01-26T08:33:00Z</time>
      </trkpt>
      <trkpt lat="45.77916" lon="-1.21843">
        <ele>61.6</ele>
        <time>2020-01-26T08:33:01Z</time>
      </trkpt>
      <trkpt lat="45.77917" lon="-1.21844">
        <ele>61.8</ele>
        <time>2020-01-26T08:33:02Z</time>
      </trkpt>
      <trkpt lat="45.77918" lon="-1.21845">
        <ele>61.8</ele>
        <time>2020-01-26T08:33:03Z</time>
      </trkpt>
      <trkpt lat="45.77919" lon="-1.21846">
        <ele>61.8</ele>
        <time>2020-01-26T08:33:04Z</time>
      </trkpt>
      <trkpt lat="45.7792" lon="-1.21847">
        <ele>61.8</ele>
        <time>2020-01-26T08:33:05Z</time>
      </trkpt>
      <trkpt lat="45.77921" lon="-1.21848">
        <ele>62</ele>
        <time>2020-01-26T08:33:06Z</time>
      </trkpt>
      <trkpt lat="45.77922" lon="-1.2185">
        <ele>62</ele>
        <time>2020-01-26T08:33:07Z</time>
      </trkpt>
      <trkpt lat="45.77923" lon="-1.21852">
        <ele>62</ele>
        <time>2020-01-26T08:33:08Z</time>
      </trkpt>
      <trkpt lat="45.77924" lon="-1.21854">
        <ele>62</ele>
        <time>2020-01-26T08:33:09Z</time>
      </trkpt>
      <trkpt lat="45.77925" lon="-1.21856">
        <ele>62</ele>
        <time>2020-01-26T08:33:10Z</time>
      </trkpt>
      <trkpt lat="45.77927" lon="-1.21858">
        <ele>62</ele>
        <time>2020-01-26T08:33:11Z</time>
      </trkpt>
      <trkpt lat="45.77929" lon="-1.21861">
        <ele>62</ele>
        <time>2020-01-26T08:33:12Z</time>
      </trkpt>
      <trkpt lat="45.7793" lon="-1.21863">
        <ele>62.2</ele>
        <time>2020-01-26T08:33:13Z</time>
      </trkpt>
      <trkpt lat="45.77932" lon="-1.21866">
        <ele>62.4</ele>
        <time>2020-01-26T08:33:14Z</time>
      </trkpt>
      <trkpt lat="45.77934" lon="-1.21869">
        <ele>62.6</ele>
        <time>2020-01-26T08:33:15Z</time>
      </trkpt>
      <trkpt lat="45.77936" lon="-1.21873">
        <ele>62.6</ele>
        <time>2020-01-26T08:33:16Z</time>
      </trkpt>
      <trkpt lat="45.77938" lon="-1.21876">
        <ele>62.8</ele>
        <time>2020-01-26T08:33:17Z</time>
      </trkpt>
      <trkpt lat="45.77941" lon="-1.21879">
        <ele>62.8</ele>
        <time>2020-01-26T08:33:18Z</time>
      </trkpt>
      <trkpt lat="45.77944" lon="-1.21881">
        <ele>62.8</ele>
        <time>2020-01-26T08:33:19Z</time>
      </trkpt>
      <trkpt lat="45.77947" lon="-1.21884">
        <ele>63</ele>
        <time>2020-01-26T08:33:20Z</time>
      </trkpt>
      <trkpt lat="45.7795" lon="-1.21887">
        <ele>62.8</ele>
        <time>2020-01-26T08:33:21Z</time>
      </trkpt>
      <trkpt lat="45.77953" lon="-1.2189">
        <ele>62.6</ele>
        <time>2020-01-26T08:33:22Z</time>
      </trkpt>
      <trkpt lat="45.77954" lon="-1.21892">
        <ele>62.6</ele>
        <time>2020-01-26T08:33:23Z</time>
      </trkpt>
      <trkpt lat="45.77956" lon="-1.21894">
        <ele>62.6</ele>
        <time>2020-01-26T08:33:24Z</time>
      </trkpt>
      <trkpt lat="45.77958" lon="-1.21894">
        <ele>62.8</ele>
        <time>2020-01-26T08:33:25Z</time>
      </trkpt>
      <trkpt lat="45.77959" lon="-1.21893">
        <ele>62.6</ele>
        <time>2020-01-26T08:33:26Z</time>
      </trkpt>
      <trkpt lat="45.77961" lon="-1.21891">
        <ele>62.4</ele>
        <time>2020-01-26T08:33:27Z</time>
      </trkpt>
      <trkpt lat="45.77964" lon="-1.21884">
        <ele>61.8</ele>
        <time>2020-01-26T08:33:28Z</time>
      </trkpt>
      <trkpt lat="45.77967" lon="-1.21876">
        <ele>61.4</ele>
        <time>2020-01-26T08:33:29Z</time>
      </trkpt>
      <trkpt lat="45.77971" lon="-1.21869">
        <ele>61</ele>
        <time>2020-01-26T08:33:30Z</time>
      </trkpt>
      <trkpt lat="45.77976" lon="-1.21864">
        <ele>60.8</ele>
        <time>2020-01-26T08:33:31Z</time>
      </trkpt>
      <trkpt lat="45.77979" lon="-1.2186">
        <ele>60.2</ele>
        <time>2020-01-26T08:33:32Z</time>
      </trkpt>
      <trkpt lat="45.77983" lon="-1.21856">
        <ele>60</ele>
        <time>2020-01-26T08:33:33Z</time>
      </trkpt>
      <trkpt lat="45.77988" lon="-1.21853">
        <ele>60</ele>
        <time>2020-01-26T08:33:34Z</time>
      </trkpt>
      <trkpt lat="45.77991" lon="-1.21852">
        <ele>60</ele>
        <time>2020-01-26T08:33:35Z</time>
      </trkpt>
      <trkpt lat="45.77994" lon="-1.21853">
        <ele>59.8</ele>
        <time>2020-01-26T08:33:36Z</time>
      </trkpt>
      <trkpt lat="45.77997" lon="-1.21854">
        <ele>59.8</ele>
        <time>2020-01-26T08:33:37Z</time>
      </trkpt>
      <trkpt lat="45.78" lon="-1.21858">
        <ele>59.6</ele>
        <time>2020-01-26T08:33:38Z</time>
      </trkpt>
      <trkpt lat="45.78001" lon="-1.21861">
        <ele>59.2</ele>
        <time>2020-01-26T08:33:39Z</time>
      </trkpt>
      <trkpt lat="45.78003" lon="-1.21864">
        <ele>59</ele>
        <time>2020-01-26T08:33:40Z</time>
      </trkpt>
      <trkpt lat="45.78004" lon="-1.21866">
        <ele>58.6</ele>
        <time>2020-01-26T08:33:41Z</time>
      </trkpt>
      <trkpt lat="45.78006" lon="-1.21869">
        <ele>58.2</ele>
        <time>2020-01-26T08:33:42Z</time>
      </trkpt>
      <trkpt lat="45.78008" lon="-1.21874">
        <ele>57.8</ele>
        <time>2020-01-26T08:33:43Z</time>
      </trkpt>
      <trkpt lat="45.78011" lon="-1.21877">
        <ele>57.6</ele>
        <time>2020-01-26T08:33:44Z</time>
      </trkpt>
      <trkpt lat="45.78014" lon="-1.2188">
        <ele>57.2</ele>
        <time>2020-01-26T08:33:45Z</time>
      </trkpt>
      <trkpt lat="45.78017" lon="-1.21883">
        <ele>57.2</ele>
        <time>2020-01-26T08:33:46Z</time>
      </trkpt>
      <trkpt lat="45.7802" lon="-1.21885">
        <ele>56.8</ele>
        <time>2020-01-26T08:33:47Z</time>
      </trkpt>
      <trkpt lat="45.78024" lon="-1.21886">
        <ele>56.6</ele>
        <time>2020-01-26T08:33:48Z</time>
      </trkpt>
      <trkpt lat="45.78026" lon="-1.21882">
        <ele>56.2</ele>
        <time>2020-01-26T08:33:49Z</time>
      </trkpt>
      <trkpt lat="45.78028" lon="-1.21879">
        <ele>55.6</ele>
        <time>2020-01-26T08:33:50Z</time>
      </trkpt>
      <trkpt lat="45.78031" lon="-1.21876">
        <ele>55</ele>
        <time>2020-01-26T08:33:51Z</time>
      </trkpt>
      <trkpt lat="45.78035" lon="-1.21873">
        <ele>54.8</ele>
        <time>2020-01-26T08:33:52Z</time>
      </trkpt>
      <trkpt lat="45.78039" lon="-1.21872">
        <ele>54.4</ele>
        <time>2020-01-26T08:33:53Z</time>
      </trkpt>
      <trkpt lat="45.78042" lon="-1.21869">
        <ele>53.8</ele>
        <time>2020-01-26T08:33:54Z</time>
      </trkpt>
      <trkpt lat="45.78045" lon="-1.21865">
        <ele>53.4</ele>
        <time>2020-01-26T08:33:55Z</time>
      </trkpt>
      <trkpt lat="45.78048" lon="-1.2186">
        <ele>52.8</ele>
        <time>2020-01-26T08:33:56Z</time>
      </trkpt>
      <trkpt lat="45.78052" lon="-1.21856">
        <ele>52.4</ele>
        <time>2020-01-26T08:33:57Z</time>
      </trkpt>
      <trkpt lat="45.78056" lon="-1.21852">
        <ele>51.8</ele>
        <time>2020-01-26T08:33:58Z</time>
      </trkpt>
      <trkpt lat="45.78061" lon="-1.21847">
        <ele>51.8</ele>
        <time>2020-01-26T08:33:59Z</time>
      </trkpt>
      <trkpt lat="45.78065" lon="-1.21843">
        <ele>52.2</ele>
        <time>2020-01-26T08:34:00Z</time>
      </trkpt>
      <trkpt lat="45.78069" lon="-1.21839">
        <ele>52.6</ele>
        <time>2020-01-26T08:34:01Z</time>
      </trkpt>
      <trkpt lat="45.78072" lon="-1.21838">
        <ele>53.2</ele>
        <time>2020-01-26T08:34:02Z</time>
      </trkpt>
      <trkpt lat="45.78071" lon="-1.21838">
        <ele>53.6</ele>
        <time>2020-01-26T08:34:03Z</time>
      </trkpt>
      <trkpt lat="45.78071" lon="-1.21838">
        <ele>54</ele>
        <time>2020-01-26T08:34:04Z</time>
      </trkpt>
      <trkpt lat="45.78072" lon="-1.21838">
        <ele>54.2</ele>
        <time>2020-01-26T08:34:05Z</time>
      </trkpt>
      <trkpt lat="45.78072" lon="-1.21837">
        <ele>54.4</ele>
        <time>2020-01-26T08:34:06Z</time>
      </trkpt>
      <trkpt lat="45.78073" lon="-1.21837">
        <ele>54.6</ele>
        <time>2020-01-26T08:34:07Z</time>
      </trkpt>
      <trkpt lat="45.78074" lon="-1.21835">
        <ele>55</ele>
        <time>2020-01-26T08:34:08Z</time>
      </trkpt>
      <trkpt lat="45.78075" lon="-1.21834">
        <ele>55.2</ele>
        <time>2020-01-26T08:34:09Z</time>
      </trkpt>
      <trkpt lat="45.78077" lon="-1.21833">
        <ele>55.4</ele>
        <time>2020-01-26T08:34:10Z</time>
      </trkpt>
      <trkpt lat="45.78079" lon="-1.21831">
        <ele>55.6</ele>
        <time>2020-01-26T08:34:11Z</time>
      </trkpt>
      <trkpt lat="45.78081" lon="-1.21832">
        <ele>56</ele>
        <time>2020-01-26T08:34:12Z</time>
      </trkpt>
      <trkpt lat="45.78083" lon="-1.21833">
        <ele>56.2</ele>
        <time>2020-01-26T08:34:13Z</time>
      </trkpt>
      <trkpt lat="45.78085" lon="-1.21833">
        <ele>56.6</ele>
        <time>2020-01-26T08:34:14Z</time>
      </trkpt>
      <trkpt lat="45.78088" lon="-1.21835">
        <ele>56.8</ele>
        <time>2020-01-26T08:34:15Z</time>
      </trkpt>
      <trkpt lat="45.7809" lon="-1.21838">
        <ele>56.8</ele>
        <time>2020-01-26T08:34:16Z</time>
      </trkpt>
      <trkpt lat="45.78093" lon="-1.21843">
        <ele>56.8</ele>
        <time>2020-01-26T08:34:17Z</time>
      </trkpt>
      <trkpt lat="45.78096" lon="-1.21845">
        <ele>57.2</ele>
        <time>2020-01-26T08:34:18Z</time>
      </trkpt>
      <trkpt lat="45.78099" lon="-1.21845">
        <ele>57.4</ele>
        <time>2020-01-26T08:34:19Z</time>
      </trkpt>
      <trkpt lat="45.78103" lon="-1.21843">
        <ele>57.6</ele>
        <time>2020-01-26T08:34:20Z</time>
      </trkpt>
      <trkpt lat="45.78107" lon="-1.21843">
        <ele>58</ele>
        <time>2020-01-26T08:34:21Z</time>
      </trkpt>
      <trkpt lat="45.78109" lon="-1.21847">
        <ele>58.2</ele>
        <time>2020-01-26T08:34:22Z</time>
      </trkpt>
      <trkpt lat="45.78112" lon="-1.2185">
        <ele>58.4</ele>
        <time>2020-01-26T08:34:23Z</time>
      </trkpt>
      <trkpt lat="45.78116" lon="-1.2185">
        <ele>58.2</ele>
        <time>2020-01-26T08:34:24Z</time>
      </trkpt>
      <trkpt lat="45.78117" lon="-1.21847">
        <ele>58.4</ele>
        <time>2020-01-26T08:34:25Z</time>
      </trkpt>
      <trkpt lat="45.78119" lon="-1.21845">
        <ele>58</ele>
        <time>2020-01-26T08:34:26Z</time>
      </trkpt>
      <trkpt lat="45.78122" lon="-1.21844">
        <ele>57.8</ele>
        <time>2020-01-26T08:34:27Z</time>
      </trkpt>
      <trkpt lat="45.78124" lon="-1.21843">
        <ele>57.4</ele>
        <time>2020-01-26T08:34:28Z</time>
      </trkpt>
      <trkpt lat="45.78127" lon="-1.21842">
        <ele>57.2</ele>
        <time>2020-01-26T08:34:29Z</time>
      </trkpt>
      <trkpt lat="45.7813" lon="-1.21841">
        <ele>57</ele>
        <time>2020-01-26T08:34:30Z</time>
      </trkpt>
      <trkpt lat="45.78133" lon="-1.21843">
        <ele>57</ele>
        <time>2020-01-26T08:34:31Z</time>
      </trkpt>
      <trkpt lat="45.78136" lon="-1.21843">
        <ele>57</ele>
        <time>2020-01-26T08:34:32Z</time>
      </trkpt>
      <trkpt lat="45.7814" lon="-1.21843">
        <ele>57.2</ele>
        <time>2020-01-26T08:34:33Z</time>
      </trkpt>
      <trkpt lat="45.78143" lon="-1.21842">
        <ele>57.4</ele>
        <time>2020-01-26T08:34:34Z</time>
      </trkpt>
      <trkpt lat="45.78144" lon="-1.21838">
        <ele>57</ele>
        <time>2020-01-26T08:34:35Z</time>
      </trkpt>
      <trkpt lat="45.78146" lon="-1.21834">
        <ele>56.8</ele>
        <time>2020-01-26T08:34:36Z</time>
      </trkpt>
      <trkpt lat="45.78146" lon="-1.21829">
        <ele>56.6</ele>
        <time>2020-01-26T08:34:37Z</time>
      </trkpt>
      <trkpt lat="45.78146" lon="-1.21824">
        <ele>56.4</ele>
        <time>2020-01-26T08:34:38Z</time>
      </trkpt>
      <trkpt lat="45.78148" lon="-1.2182">
        <ele>56</ele>
        <time>2020-01-26T08:34:39Z</time>
      </trkpt>
      <trkpt lat="45.78151" lon="-1.21818">
        <ele>56</ele>
        <time>2020-01-26T08:34:40Z</time>
      </trkpt>
      <trkpt lat="45.78154" lon="-1.2182">
        <ele>56</ele>
        <time>2020-01-26T08:34:41Z</time>
      </trkpt>
      <trkpt lat="45.78156" lon="-1.21822">
        <ele>56</ele>
        <time>2020-01-26T08:34:42Z</time>
      </trkpt>
      <trkpt lat="45.7816" lon="-1.21823">
        <ele>56.2</ele>
        <time>2020-01-26T08:34:43Z</time>
      </trkpt>
      <trkpt lat="45.78164" lon="-1.21823">
        <ele>56.4</ele>
        <time>2020-01-26T08:34:44Z</time>
      </trkpt>
      <trkpt lat="45.78168" lon="-1.21825">
        <ele>57</ele>
        <time>2020-01-26T08:34:45Z</time>
      </trkpt>
      <trkpt lat="45.7817" lon="-1.21829">
        <ele>57.4</ele>
        <time>2020-01-26T08:34:46Z</time>
      </trkpt>
      <trkpt lat="45.78173" lon="-1.21832">
        <ele>58.2</ele>
        <time>2020-01-26T08:34:47Z</time>
      </trkpt>
      <trkpt lat="45.78174" lon="-1.21835">
        <ele>58.8</ele>
        <time>2020-01-26T08:34:48Z</time>
      </trkpt>
      <trkpt lat="45.78175" lon="-1.21838">
        <ele>59.4</ele>
        <time>2020-01-26T08:34:49Z</time>
      </trkpt>
      <trkpt lat="45.78176" lon="-1.21843">
        <ele>59.4</ele>
        <time>2020-01-26T08:34:50Z</time>
      </trkpt>
      <trkpt lat="45.78176" lon="-1.2185">
        <ele>58.6</ele>
        <time>2020-01-26T08:34:51Z</time>
      </trkpt>
      <trkpt lat="45.78177" lon="-1.21855">
        <ele>57.6</ele>
        <time>2020-01-26T08:34:52Z</time>
      </trkpt>
      <trkpt lat="45.78183" lon="-1.21856">
        <ele>56.8</ele>
        <time>2020-01-26T08:34:53Z</time>
      </trkpt>
      <trkpt lat="45.78188" lon="-1.21857">
        <ele>56.4</ele>
        <time>2020-01-26T08:34:54Z</time>
      </trkpt>
      <trkpt lat="45.78194" lon="-1.21856">
        <ele>56</ele>
        <time>2020-01-26T08:34:55Z</time>
      </trkpt>
      <trkpt lat="45.782" lon="-1.21853">
        <ele>55.8</ele>
        <time>2020-01-26T08:34:56Z</time>
      </trkpt>
      <trkpt lat="45.78204" lon="-1.21851">
        <ele>55.6</ele>
        <time>2020-01-26T08:34:57Z</time>
      </trkpt>
      <trkpt lat="45.78207" lon="-1.21847">
        <ele>56</ele>
        <time>2020-01-26T08:34:58Z</time>
      </trkpt>
      <trkpt lat="45.7821" lon="-1.21843">
        <ele>56</ele>
        <time>2020-01-26T08:34:59Z</time>
      </trkpt>
      <trkpt lat="45.78212" lon="-1.2184">
        <ele>56.2</ele>
        <time>2020-01-26T08:35:00Z</time>
      </trkpt>
      <trkpt lat="45.78214" lon="-1.21836">
        <ele>56.6</ele>
        <time>2020-01-26T08:35:01Z</time>
      </trkpt>
      <trkpt lat="45.78216" lon="-1.21834">
        <ele>56.8</ele>
        <time>2020-01-26T08:35:02Z</time>
      </trkpt>
      <trkpt lat="45.78219" lon="-1.21831">
        <ele>57.4</ele>
        <time>2020-01-26T08:35:03Z</time>
      </trkpt>
      <trkpt lat="45.78221" lon="-1.2183">
        <ele>57.8</ele>
        <time>2020-01-26T08:35:04Z</time>
      </trkpt>
      <trkpt lat="45.78223" lon="-1.21828">
        <ele>58.4</ele>
        <time>2020-01-26T08:35:05Z</time>
      </trkpt>
      <trkpt lat="45.78224" lon="-1.21826">
        <ele>59</ele>
        <time>2020-01-26T08:35:06Z</time>
      </trkpt>
      <trkpt lat="45.78225" lon="-1.21823">
        <ele>59.8</ele>
        <time>2020-01-26T08:35:07Z</time>
      </trkpt>
      <trkpt lat="45.78226" lon="-1.21819">
        <ele>59.8</ele>
        <time>2020-01-26T08:35:08Z</time>
      </trkpt>
      <trkpt lat="45.78228" lon="-1.21815">
        <ele>59.6</ele>
        <time>2020-01-26T08:35:09Z</time>
      </trkpt>
      <trkpt lat="45.78229" lon="-1.21809">
        <ele>59.4</ele>
        <time>2020-01-26T08:35:10Z</time>
      </trkpt>
      <trkpt lat="45.78229" lon="-1.21798">
        <ele>59</ele>
        <time>2020-01-26T08:35:11Z</time>
      </trkpt>
      <trkpt lat="45.78231" lon="-1.21791">
        <ele>58.8</ele>
        <time>2020-01-26T08:35:12Z</time>
      </trkpt>
      <trkpt lat="45.78236" lon="-1.21788">
        <ele>58.6</ele>
        <time>2020-01-26T08:35:13Z</time>
      </trkpt>
      <trkpt lat="45.7824" lon="-1.21789">
        <ele>58.8</ele>
        <time>2020-01-26T08:35:14Z</time>
      </trkpt>
      <trkpt lat="45.78244" lon="-1.21792">
        <ele>58.8</ele>
        <time>2020-01-26T08:35:15Z</time>
      </trkpt>
      <trkpt lat="45.78246" lon="-1.21798">
        <ele>58.6</ele>
        <time>2020-01-26T08:35:16Z</time>
      </trkpt>
      <trkpt lat="45.78248" lon="-1.21803">
        <ele>58.6</ele>
        <time>2020-01-26T08:35:17Z</time>
      </trkpt>
      <trkpt lat="45.78248" lon="-1.21807">
        <ele>58.8</ele>
        <time>2020-01-26T08:35:18Z</time>
      </trkpt>
      <trkpt lat="45.78249" lon="-1.21811">
        <ele>58.8</ele>
        <time>2020-01-26T08:35:19Z</time>
      </trkpt>
      <trkpt lat="45.7825" lon="-1.21816">
        <ele>58.8</ele>
        <time>2020-01-26T08:35:20Z</time>
      </trkpt>
      <trkpt lat="45.78252" lon="-1.21821">
        <ele>59.2</ele>
        <time>2020-01-26T08:35:21Z</time>
      </trkpt>
      <trkpt lat="45.78255" lon="-1.21826">
        <ele>59.2</ele>
        <time>2020-01-26T08:35:22Z</time>
      </trkpt>
      <trkpt lat="45.78257" lon="-1.21829">
        <ele>59</ele>
        <time>2020-01-26T08:35:23Z</time>
      </trkpt>
      <trkpt lat="45.78263" lon="-1.2183">
        <ele>58.8</ele>
        <time>2020-01-26T08:35:24Z</time>
      </trkpt>
      <trkpt lat="45.78267" lon="-1.21834">
        <ele>58.4</ele>
        <time>2020-01-26T08:35:25Z</time>
      </trkpt>
      <trkpt lat="45.7827" lon="-1.21837">
        <ele>57.8</ele>
        <time>2020-01-26T08:35:26Z</time>
      </trkpt>
      <trkpt lat="45.78273" lon="-1.21841">
        <ele>57.8</ele>
        <time>2020-01-26T08:35:27Z</time>
      </trkpt>
      <trkpt lat="45.78276" lon="-1.21844">
        <ele>57.8</ele>
        <time>2020-01-26T08:35:28Z</time>
      </trkpt>
      <trkpt lat="45.78278" lon="-1.21848">
        <ele>57.6</ele>
        <time>2020-01-26T08:35:29Z</time>
      </trkpt>
      <trkpt lat="45.78279" lon="-1.21852">
        <ele>57.6</ele>
        <time>2020-01-26T08:35:30Z</time>
      </trkpt>
      <trkpt lat="45.7828" lon="-1.21857">
        <ele>57.2</ele>
        <time>2020-01-26T08:35:31Z</time>
      </trkpt>
      <trkpt lat="45.78285" lon="-1.2186">
        <ele>56.2</ele>
        <time>2020-01-26T08:35:32Z</time>
      </trkpt>
      <trkpt lat="45.78288" lon="-1.21862">
        <ele>55</ele>
        <time>2020-01-26T08:35:33Z</time>
      </trkpt>
      <trkpt lat="45.7829" lon="-1.21864">
        <ele>54</ele>
        <time>2020-01-26T08:35:34Z</time>
      </trkpt>
      <trkpt lat="45.78292" lon="-1.21865">
        <ele>53.2</ele>
        <time>2020-01-26T08:35:35Z</time>
      </trkpt>
      <trkpt lat="45.78295" lon="-1.21867">
        <ele>52.8</ele>
        <time>2020-01-26T08:35:36Z</time>
      </trkpt>
      <trkpt lat="45.78295" lon="-1.21873">
        <ele>52</ele>
        <time>2020-01-26T08:35:37Z</time>
      </trkpt>
      <trkpt lat="45.78295" lon="-1.21877">
        <ele>51.8</ele>
        <time>2020-01-26T08:35:38Z</time>
      </trkpt>
      <trkpt lat="45.78295" lon="-1.21882">
        <ele>51.6</ele>
        <time>2020-01-26T08:35:39Z</time>
      </trkpt>
      <trkpt lat="45.78297" lon="-1.21885">
        <ele>51.2</ele>
        <time>2020-01-26T08:35:40Z</time>
      </trkpt>
      <trkpt lat="45.783" lon="-1.21888">
        <ele>51.2</ele>
        <time>2020-01-26T08:35:41Z</time>
      </trkpt>
      <trkpt lat="45.78304" lon="-1.21887">
        <ele>50.8</ele>
        <time>2020-01-26T08:35:42Z</time>
      </trkpt>
      <trkpt lat="45.78309" lon="-1.21887">
        <ele>51</ele>
        <time>2020-01-26T08:35:43Z</time>
      </trkpt>
      <trkpt lat="45.78312" lon="-1.21887">
        <ele>51</ele>
        <time>2020-01-26T08:35:44Z</time>
      </trkpt>
      <trkpt lat="45.78316" lon="-1.21889">
        <ele>51</ele>
        <time>2020-01-26T08:35:45Z</time>
      </trkpt>
      <trkpt lat="45.78318" lon="-1.21893">
        <ele>51.2</ele>
        <time>2020-01-26T08:35:46Z</time>
      </trkpt>
      <trkpt lat="45.78321" lon="-1.21897">
        <ele>51.2</ele>
        <time>2020-01-26T08:35:47Z</time>
      </trkpt>
      <trkpt lat="45.78322" lon="-1.21901">
        <ele>50.8</ele>
        <time>2020-01-26T08:35:48Z</time>
      </trkpt>
      <trkpt lat="45.78323" lon="-1.21906">
        <ele>50.6</ele>
        <time>2020-01-26T08:35:49Z</time>
      </trkpt>
      <trkpt lat="45.78324" lon="-1.21911">
        <ele>50.4</ele>
        <time>2020-01-26T08:35:50Z</time>
      </trkpt>
      <trkpt lat="45.78325" lon="-1.21916">
        <ele>50.2</ele>
        <time>2020-01-26T08:35:51Z</time>
      </trkpt>
      <trkpt lat="45.78327" lon="-1.21922">
        <ele>50</ele>
        <time>2020-01-26T08:35:52Z</time>
      </trkpt>
      <trkpt lat="45.78327" lon="-1.21927">
        <ele>49.8</ele>
        <time>2020-01-26T08:35:53Z</time>
      </trkpt>
      <trkpt lat="45.78327" lon="-1.2193">
        <ele>49.4</ele>
        <time>2020-01-26T08:35:54Z</time>
      </trkpt>
      <trkpt lat="45.78325" lon="-1.21932">
        <ele>49.2</ele>
        <time>2020-01-26T08:35:55Z</time>
      </trkpt>
      <trkpt lat="45.78322" lon="-1.21936">
        <ele>48.6</ele>
        <time>2020-01-26T08:35:56Z</time>
      </trkpt>
      <trkpt lat="45.78321" lon="-1.21943">
        <ele>48.2</ele>
        <time>2020-01-26T08:35:57Z</time>
      </trkpt>
      <trkpt lat="45.78323" lon="-1.21947">
        <ele>47.6</ele>
        <time>2020-01-26T08:35:58Z</time>
      </trkpt>
      <trkpt lat="45.78325" lon="-1.21952">
        <ele>47.4</ele>
        <time>2020-01-26T08:35:59Z</time>
      </trkpt>
      <trkpt lat="45.78327" lon="-1.21958">
        <ele>47.2</ele>
        <time>2020-01-26T08:36:00Z</time>
      </trkpt>
      <trkpt lat="45.78328" lon="-1.21964">
        <ele>47.2</ele>
        <time>2020-01-26T08:36:01Z</time>
      </trkpt>
      <trkpt lat="45.78329" lon="-1.21967">
        <ele>47.4</ele>
        <time>2020-01-26T08:36:02Z</time>
      </trkpt>
      <trkpt lat="45.78331" lon="-1.2197">
        <ele>47.8</ele>
        <time>2020-01-26T08:36:03Z</time>
      </trkpt>
      <trkpt lat="45.78331" lon="-1.21973">
        <ele>48.4</ele>
        <time>2020-01-26T08:36:04Z</time>
      </trkpt>
      <trkpt lat="45.78332" lon="-1.21974">
        <ele>48.8</ele>
        <time>2020-01-26T08:36:05Z</time>
      </trkpt>
      <trkpt lat="45.78332" lon="-1.21976">
        <ele>48.6</ele>
        <time>2020-01-26T08:36:06Z</time>
      </trkpt>
      <trkpt lat="45.78332" lon="-1.21978">
        <ele>48.4</ele>
        <time>2020-01-26T08:36:07Z</time>
      </trkpt>
      <trkpt lat="45.78331" lon="-1.21982">
        <ele>48</ele>
        <time>2020-01-26T08:36:08Z</time>
      </trkpt>
      <trkpt lat="45.78329" lon="-1.21985">
        <ele>47.6</ele>
        <time>2020-01-26T08:36:09Z</time>
      </trkpt>
      <trkpt lat="45.78326" lon="-1.21988">
        <ele>47.6</ele>
        <time>2020-01-26T08:36:10Z</time>
      </trkpt>
      <trkpt lat="45.78324" lon="-1.21991">
        <ele>47.8</ele>
        <time>2020-01-26T08:36:11Z</time>
      </trkpt>
      <trkpt lat="45.78322" lon="-1.21995">
        <ele>47.8</ele>
        <time>2020-01-26T08:36:12Z</time>
      </trkpt>
      <trkpt lat="45.78318" lon="-1.21997">
        <ele>48.2</ele>
        <time>2020-01-26T08:36:13Z</time>
      </trkpt>
      <trkpt lat="45.78314" lon="-1.21997">
        <ele>48.4</ele>
        <time>2020-01-26T08:36:14Z</time>
      </trkpt>
      <trkpt lat="45.78308" lon="-1.21997">
        <ele>48.2</ele>
        <time>2020-01-26T08:36:15Z</time>
      </trkpt>
      <trkpt lat="45.78304" lon="-1.21996">
        <ele>48.4</ele>
        <time>2020-01-26T08:36:16Z</time>
      </trkpt>
      <trkpt lat="45.78299" lon="-1.21995">
        <ele>48.8</ele>
        <time>2020-01-26T08:36:17Z</time>
      </trkpt>
      <trkpt lat="45.78295" lon="-1.21993">
        <ele>49</ele>
        <time>2020-01-26T08:36:18Z</time>
      </trkpt>
      <trkpt lat="45.78291" lon="-1.2199">
        <ele>49.2</ele>
        <time>2020-01-26T08:36:19Z</time>
      </trkpt>
      <trkpt lat="45.78288" lon="-1.21987">
        <ele>50</ele>
        <time>2020-01-26T08:36:20Z</time>
      </trkpt>
      <trkpt lat="45.78286" lon="-1.21983">
        <ele>51</ele>
        <time>2020-01-26T08:36:21Z</time>
      </trkpt>
      <trkpt lat="45.78285" lon="-1.21979">
        <ele>52.4</ele>
        <time>2020-01-26T08:36:22Z</time>
      </trkpt>
      <trkpt lat="45.78284" lon="-1.21976">
        <ele>53.6</ele>
        <time>2020-01-26T08:36:23Z</time>
      </trkpt>
      <trkpt lat="45.78282" lon="-1.21972">
        <ele>54.8</ele>
        <time>2020-01-26T08:36:24Z</time>
      </trkpt>
      <trkpt lat="45.78284" lon="-1.21969">
        <ele>56</ele>
        <time>2020-01-26T08:36:25Z</time>
      </trkpt>
      <trkpt lat="45.78284" lon="-1.21965">
        <ele>56.6</ele>
        <time>2020-01-26T08:36:26Z</time>
      </trkpt>
      <trkpt lat="45.78281" lon="-1.21961">
        <ele>57</ele>
        <time>2020-01-26T08:36:27Z</time>
      </trkpt>
      <trkpt lat="45.78278" lon="-1.21956">
        <ele>57</ele>
        <time>2020-01-26T08:36:28Z</time>
      </trkpt>
      <trkpt lat="45.78272" lon="-1.21949">
        <ele>57</ele>
        <time>2020-01-26T08:36:29Z</time>
      </trkpt>
      <trkpt lat="45.78268" lon="-1.21941">
        <ele>56.8</ele>
        <time>2020-01-26T08:36:30Z</time>
      </trkpt>
      <trkpt lat="45.78265" lon="-1.21932">
        <ele>56.6</ele>
        <time>2020-01-26T08:36:31Z</time>
      </trkpt>
      <trkpt lat="45.7826" lon="-1.21928">
        <ele>56.2</ele>
        <time>2020-01-26T08:36:32Z</time>
      </trkpt>
      <trkpt lat="45.78253" lon="-1.21925">
        <ele>55.8</ele>
        <time>2020-01-26T08:36:33Z</time>
      </trkpt>
      <trkpt lat="45.78248" lon="-1.21922">
        <ele>55.8</ele>
        <time>2020-01-26T08:36:34Z</time>
      </trkpt>
      <trkpt lat="45.78243" lon="-1.21921">
        <ele>55.6</ele>
        <time>2020-01-26T08:36:35Z</time>
      </trkpt>
      <trkpt lat="45.78239" lon="-1.21922">
        <ele>55.2</ele>
        <time>2020-01-26T08:36:36Z</time>
      </trkpt>
      <trkpt lat="45.78236" lon="-1.21924">
        <ele>55.2</ele>
        <time>2020-01-26T08:36:37Z</time>
      </trkpt>
      <trkpt lat="45.78231" lon="-1.21925">
        <ele>54.8</ele>
        <time>2020-01-26T08:36:38Z</time>
      </trkpt>
      <trkpt lat="45.78228" lon="-1.21922">
        <ele>54.6</ele>
        <time>2020-01-26T08:36:39Z</time>
      </trkpt>
      <trkpt lat="45.78226" lon="-1.21917">
        <ele>54.4</ele>
        <time>2020-01-26T08:36:40Z</time>
      </trkpt>
      <trkpt lat="45.78222" lon="-1.21914">
        <ele>54.4</ele>
        <time>2020-01-26T08:36:41Z</time>
      </trkpt>
      <trkpt lat="45.7822" lon="-1.21908">
        <ele>54.2</ele>
        <time>2020-01-26T08:36:42Z</time>
      </trkpt>
      <trkpt lat="45.78219" lon="-1.21902">
        <ele>54.2</ele>
        <time>2020-01-26T08:36:43Z</time>
      </trkpt>
      <trkpt lat="45.78219" lon="-1.21899">
        <ele>54.4</ele>
        <time>2020-01-26T08:36:44Z</time>
      </trkpt>
      <trkpt lat="45.78219" lon="-1.21896">
        <ele>54.2</ele>
        <time>2020-01-26T08:36:45Z</time>
      </trkpt>
      <trkpt lat="45.78218" lon="-1.21893">
        <ele>54</ele>
        <time>2020-01-26T08:36:46Z</time>
      </trkpt>
      <trkpt lat="45.78216" lon="-1.21892">
        <ele>54</ele>
        <time>2020-01-26T08:36:47Z</time>
      </trkpt>
      <trkpt lat="45.78213" lon="-1.21891">
        <ele>53.6</ele>
        <time>2020-01-26T08:36:48Z</time>
      </trkpt>
      <trkpt lat="45.7821" lon="-1.21892">
        <ele>53.2</ele>
        <time>2020-01-26T08:36:49Z</time>
      </trkpt>
      <trkpt lat="45.78208" lon="-1.21892">
        <ele>53</ele>
        <time>2020-01-26T08:36:50Z</time>
      </trkpt>
      <trkpt lat="45.78205" lon="-1.21892">
        <ele>53</ele>
        <time>2020-01-26T08:36:51Z</time>
      </trkpt>
      <trkpt lat="45.78203" lon="-1.2189">
        <ele>53</ele>
        <time>2020-01-26T08:36:52Z</time>
      </trkpt>
      <trkpt lat="45.782" lon="-1.21887">
        <ele>52.8</ele>
        <time>2020-01-26T08:36:53Z</time>
      </trkpt>
      <trkpt lat="45.78196" lon="-1.21886">
        <ele>52.6</ele>
        <time>2020-01-26T08:36:54Z</time>
      </trkpt>
      <trkpt lat="45.78191" lon="-1.2189">
        <ele>52.4</ele>
        <time>2020-01-26T08:36:55Z</time>
      </trkpt>
      <trkpt lat="45.78188" lon="-1.21892">
        <ele>52.2</ele>
        <time>2020-01-26T08:36:56Z</time>
      </trkpt>
      <trkpt lat="45.78185" lon="-1.21895">
        <ele>52</ele>
        <time>2020-01-26T08:36:57Z</time>
      </trkpt>
      <trkpt lat="45.78183" lon="-1.21899">
        <ele>51.8</ele>
        <time>2020-01-26T08:36:58Z</time>
      </trkpt>
      <trkpt lat="45.78185" lon="-1.21903">
        <ele>51.4</ele>
        <time>2020-01-26T08:36:59Z</time>
      </trkpt>
      <trkpt lat="45.78186" lon="-1.21907">
        <ele>50.8</ele>
        <time>2020-01-26T08:37:00Z</time>
      </trkpt>
      <trkpt lat="45.78187" lon="-1.2191">
        <ele>50.4</ele>
        <time>2020-01-26T08:37:01Z</time>
      </trkpt>
      <trkpt lat="45.78189" lon="-1.21912">
        <ele>50.4</ele>
        <time>2020-01-26T08:37:02Z</time>
      </trkpt>
      <trkpt lat="45.7819" lon="-1.21914">
        <ele>50.8</ele>
        <time>2020-01-26T08:37:03Z</time>
      </trkpt>
      <trkpt lat="45.78191" lon="-1.21917">
        <ele>51.2</ele>
        <time>2020-01-26T08:37:04Z</time>
      </trkpt>
      <trkpt lat="45.78191" lon="-1.21921">
        <ele>51.6</ele>
        <time>2020-01-26T08:37:05Z</time>
      </trkpt>
      <trkpt lat="45.78189" lon="-1.21923">
        <ele>52.2</ele>
        <time>2020-01-26T08:37:06Z</time>
      </trkpt>
      <trkpt lat="45.78189" lon="-1.21927">
        <ele>53</ele>
        <time>2020-01-26T08:37:07Z</time>
      </trkpt>
      <trkpt lat="45.78189" lon="-1.2193">
        <ele>53.4</ele>
        <time>2020-01-26T08:37:08Z</time>
      </trkpt>
      <trkpt lat="45.78189" lon="-1.21933">
        <ele>54</ele>
        <time>2020-01-26T08:37:09Z</time>
      </trkpt>
      <trkpt lat="45.78189" lon="-1.21937">
        <ele>54.2</ele>
        <time>2020-01-26T08:37:10Z</time>
      </trkpt>
      <trkpt lat="45.78189" lon="-1.21942">
        <ele>54.2</ele>
        <time>2020-01-26T08:37:11Z</time>
      </trkpt>
      <trkpt lat="45.78191" lon="-1.21946">
        <ele>54</ele>
        <time>2020-01-26T08:37:12Z</time>
      </trkpt>
      <trkpt lat="45.78194" lon="-1.21946">
        <ele>54</ele>
        <time>2020-01-26T08:37:13Z</time>
      </trkpt>
      <trkpt lat="45.78197" lon="-1.21947">
        <ele>54</ele>
        <time>2020-01-26T08:37:14Z</time>
      </trkpt>
      <trkpt lat="45.78201" lon="-1.21948">
        <ele>54.2</ele>
        <time>2020-01-26T08:37:15Z</time>
      </trkpt>
      <trkpt lat="45.78206" lon="-1.21952">
        <ele>55</ele>
        <time>2020-01-26T08:37:16Z</time>
      </trkpt>
      <trkpt lat="45.78208" lon="-1.21957">
        <ele>55.2</ele>
        <time>2020-01-26T08:37:17Z</time>
      </trkpt>
      <trkpt lat="45.7821" lon="-1.21962">
        <ele>55.4</ele>
        <time>2020-01-26T08:37:18Z</time>
      </trkpt>
      <trkpt lat="45.78208" lon="-1.21968">
        <ele>55.4</ele>
        <time>2020-01-26T08:37:19Z</time>
      </trkpt>
      <trkpt lat="45.78205" lon="-1.21972">
        <ele>55.4</ele>
        <time>2020-01-26T08:37:20Z</time>
      </trkpt>
      <trkpt lat="45.78202" lon="-1.21978">
        <ele>54.8</ele>
        <time>2020-01-26T08:37:21Z</time>
      </trkpt>
      <trkpt lat="45.782" lon="-1.21983">
        <ele>54.4</ele>
        <time>2020-01-26T08:37:22Z</time>
      </trkpt>
      <trkpt lat="45.78197" lon="-1.21988">
        <ele>54.2</ele>
        <time>2020-01-26T08:37:23Z</time>
      </trkpt>
      <trkpt lat="45.78195" lon="-1.21991">
        <ele>54</ele>
        <time>2020-01-26T08:37:24Z</time>
      </trkpt>
      <trkpt lat="45.78192" lon="-1.21993">
        <ele>53.8</ele>
        <time>2020-01-26T08:37:25Z</time>
      </trkpt>
      <trkpt lat="45.7819" lon="-1.21995">
        <ele>53.6</ele>
        <time>2020-01-26T08:37:26Z</time>
      </trkpt>
      <trkpt lat="45.78188" lon="-1.21996">
        <ele>53.4</ele>
        <time>2020-01-26T08:37:27Z</time>
      </trkpt>
      <trkpt lat="45.78186" lon="-1.21997">
        <ele>53.6</ele>
        <time>2020-01-26T08:37:28Z</time>
      </trkpt>
      <trkpt lat="45.78185" lon="-1.21998">
        <ele>53.6</ele>
        <time>2020-01-26T08:37:29Z</time>
      </trkpt>
      <trkpt lat="45.78184" lon="-1.22">
        <ele>53.8</ele>
        <time>2020-01-26T08:37:30Z</time>
      </trkpt>
      <trkpt lat="45.78181" lon="-1.22001">
        <ele>53.8</ele>
        <time>2020-01-26T08:37:31Z</time>
      </trkpt>
      <trkpt lat="45.78179" lon="-1.22002">
        <ele>53.8</ele>
        <time>2020-01-26T08:37:32Z</time>
      </trkpt>
      <trkpt lat="45.78176" lon="-1.22004">
        <ele>53.6</ele>
        <time>2020-01-26T08:37:33Z</time>
      </trkpt>
      <trkpt lat="45.78174" lon="-1.22007">
        <ele>53.4</ele>
        <time>2020-01-26T08:37:34Z</time>
      </trkpt>
      <trkpt lat="45.78172" lon="-1.2201">
        <ele>53.4</ele>
        <time>2020-01-26T08:37:35Z</time>
      </trkpt>
      <trkpt lat="45.7817" lon="-1.22014">
        <ele>53.2</ele>
        <time>2020-01-26T08:37:36Z</time>
      </trkpt>
      <trkpt lat="45.78169" lon="-1.22016">
        <ele>53.2</ele>
        <time>2020-01-26T08:37:37Z</time>
      </trkpt>
      <trkpt lat="45.78167" lon="-1.22019">
        <ele>53.2</ele>
        <time>2020-01-26T08:37:38Z</time>
      </trkpt>
      <trkpt lat="45.78165" lon="-1.22022">
        <ele>53.4</ele>
        <time>2020-01-26T08:37:39Z</time>
      </trkpt>
      <trkpt lat="45.78164" lon="-1.22026">
        <ele>54.2</ele>
        <time>2020-01-26T08:37:40Z</time>
      </trkpt>
      <trkpt lat="45.78164" lon="-1.2203">
        <ele>54.8</ele>
        <time>2020-01-26T08:37:41Z</time>
      </trkpt>
      <trkpt lat="45.78163" lon="-1.22033">
        <ele>55.4</ele>
        <time>2020-01-26T08:37:42Z</time>
      </trkpt>
      <trkpt lat="45.78165" lon="-1.22037">
        <ele>55.6</ele>
        <time>2020-01-26T08:37:43Z</time>
      </trkpt>
      <trkpt lat="45.78167" lon="-1.22041">
        <ele>55.6</ele>
        <time>2020-01-26T08:37:44Z</time>
      </trkpt>
      <trkpt lat="45.78168" lon="-1.22045">
        <ele>56.2</ele>
        <time>2020-01-26T08:37:45Z</time>
      </trkpt>
      <trkpt lat="45.78168" lon="-1.22048">
        <ele>56.6</ele>
        <time>2020-01-26T08:37:46Z</time>
      </trkpt>
      <trkpt lat="45.7817" lon="-1.22051">
        <ele>56.8</ele>
        <time>2020-01-26T08:37:47Z</time>
      </trkpt>
      <trkpt lat="45.7817" lon="-1.22054">
        <ele>56.8</ele>
        <time>2020-01-26T08:37:48Z</time>
      </trkpt>
      <trkpt lat="45.78168" lon="-1.22058">
        <ele>56.8</ele>
        <time>2020-01-26T08:37:49Z</time>
      </trkpt>
      <trkpt lat="45.78168" lon="-1.22062">
        <ele>57</ele>
        <time>2020-01-26T08:37:50Z</time>
      </trkpt>
      <trkpt lat="45.78168" lon="-1.22066">
        <ele>57.2</ele>
        <time>2020-01-26T08:37:51Z</time>
      </trkpt>
      <trkpt lat="45.78172" lon="-1.22068">
        <ele>57.4</ele>
        <time>2020-01-26T08:37:52Z</time>
      </trkpt>
      <trkpt lat="45.78173" lon="-1.22071">
        <ele>57.6</ele>
        <time>2020-01-26T08:37:53Z</time>
      </trkpt>
      <trkpt lat="45.78175" lon="-1.22074">
        <ele>58.2</ele>
        <time>2020-01-26T08:37:54Z</time>
      </trkpt>
      <trkpt lat="45.78176" lon="-1.22078">
        <ele>58.6</ele>
        <time>2020-01-26T08:37:55Z</time>
      </trkpt>
      <trkpt lat="45.78177" lon="-1.22082">
        <ele>58.8</ele>
        <time>2020-01-26T08:37:56Z</time>
      </trkpt>
      <trkpt lat="45.78179" lon="-1.22086">
        <ele>58.8</ele>
        <time>2020-01-26T08:37:57Z</time>
      </trkpt>
      <trkpt lat="45.7818" lon="-1.22091">
        <ele>58.8</ele>
        <time>2020-01-26T08:37:58Z</time>
      </trkpt>
      <trkpt lat="45.7818" lon="-1.22096">
        <ele>58.8</ele>
        <time>2020-01-26T08:37:59Z</time>
      </trkpt>
      <trkpt lat="45.78181" lon="-1.22099">
        <ele>59</ele>
        <time>2020-01-26T08:38:00Z</time>
      </trkpt>
      <trkpt lat="45.78181" lon="-1.22101">
        <ele>59</ele>
        <time>2020-01-26T08:38:01Z</time>
      </trkpt>
      <trkpt lat="45.78182" lon="-1.22101">
        <ele>59.2</ele>
        <time>2020-01-26T08:38:02Z</time>
      </trkpt>
      <trkpt lat="45.78182" lon="-1.22101">
        <ele>59.4</ele>
        <time>2020-01-26T08:38:03Z</time>
      </trkpt>
      <trkpt lat="45.78182" lon="-1.22102">
        <ele>59.8</ele>
        <time>2020-01-26T08:38:04Z</time>
      </trkpt>
      <trkpt lat="45.78182" lon="-1.22102">
        <ele>60</ele>
        <time>2020-01-26T08:38:05Z</time>
      </trkpt>
      <trkpt lat="45.78183" lon="-1.22104">
        <ele>60</ele>
        <time>2020-01-26T08:38:06Z</time>
      </trkpt>
      <trkpt lat="45.78183" lon="-1.22106">
        <ele>59.8</ele>
        <time>2020-01-26T08:38:07Z</time>
      </trkpt>
      <trkpt lat="45.78184" lon="-1.22108">
        <ele>59.8</ele>
        <time>2020-01-26T08:38:08Z</time>
      </trkpt>
      <trkpt lat="45.78185" lon="-1.2211">
        <ele>60.2</ele>
        <time>2020-01-26T08:38:09Z</time>
      </trkpt>
      <trkpt lat="45.78186" lon="-1.22113">
        <ele>60.4</ele>
        <time>2020-01-26T08:38:10Z</time>
      </trkpt>
      <trkpt lat="45.78186" lon="-1.22115">
        <ele>60.8</ele>
        <time>2020-01-26T08:38:11Z</time>
      </trkpt>
      <trkpt lat="45.78187" lon="-1.22118">
        <ele>61</ele>
        <time>2020-01-26T08:38:12Z</time>
      </trkpt>
      <trkpt lat="45.78188" lon="-1.22119">
        <ele>61.4</ele>
        <time>2020-01-26T08:38:13Z</time>
      </trkpt>
      <trkpt lat="45.78188" lon="-1.22121">
        <ele>61.6</ele>
        <time>2020-01-26T08:38:14Z</time>
      </trkpt>
      <trkpt lat="45.78188" lon="-1.22124">
        <ele>61.8</ele>
        <time>2020-01-26T08:38:15Z</time>
      </trkpt>
      <trkpt lat="45.78188" lon="-1.22126">
        <ele>61.8</ele>
        <time>2020-01-26T08:38:16Z</time>
      </trkpt>
      <trkpt lat="45.78188" lon="-1.22129">
        <ele>62</ele>
        <time>2020-01-26T08:38:17Z</time>
      </trkpt>
      <trkpt lat="45.78188" lon="-1.22132">
        <ele>62.2</ele>
        <time>2020-01-26T08:38:18Z</time>
      </trkpt>
      <trkpt lat="45.78186" lon="-1.22136">
        <ele>62.4</ele>
        <time>2020-01-26T08:38:19Z</time>
      </trkpt>
      <trkpt lat="45.78182" lon="-1.22138">
        <ele>62.6</ele>
        <time>2020-01-26T08:38:20Z</time>
      </trkpt>
      <trkpt lat="45.78179" lon="-1.22138">
        <ele>62.8</ele>
        <time>2020-01-26T08:38:21Z</time>
      </trkpt>
      <trkpt lat="45.78176" lon="-1.22137">
        <ele>62.4</ele>
        <time>2020-01-26T08:38:22Z</time>
      </trkpt>
      <trkpt lat="45.78172" lon="-1.22137">
        <ele>61.8</ele>
        <time>2020-01-26T08:38:23Z</time>
      </trkpt>
      <trkpt lat="45.78166" lon="-1.22137">
        <ele>61</ele>
        <time>2020-01-26T08:38:24Z</time>
      </trkpt>
      <trkpt lat="45.78162" lon="-1.22134">
        <ele>60.6</ele>
        <time>2020-01-26T08:38:25Z</time>
      </trkpt>
      <trkpt lat="45.78158" lon="-1.22134">
        <ele>60</ele>
        <time>2020-01-26T08:38:26Z</time>
      </trkpt>
      <trkpt lat="45.78155" lon="-1.22133">
        <ele>59.6</ele>
        <time>2020-01-26T08:38:27Z</time>
      </trkpt>
      <trkpt lat="45.78152" lon="-1.22135">
        <ele>59.2</ele>
        <time>2020-01-26T08:38:28Z</time>
      </trkpt>
      <trkpt lat="45.78147" lon="-1.22139">
        <ele>59.2</ele>
        <time>2020-01-26T08:38:29Z</time>
      </trkpt>
      <trkpt lat="45.78143" lon="-1.22141">
        <ele>59</ele>
        <time>2020-01-26T08:38:30Z</time>
      </trkpt>
      <trkpt lat="45.7814" lon="-1.22139">
        <ele>59</ele>
        <time>2020-01-26T08:38:31Z</time>
      </trkpt>
      <trkpt lat="45.78138" lon="-1.22137">
        <ele>59.4</ele>
        <time>2020-01-26T08:38:32Z</time>
      </trkpt>
      <trkpt lat="45.78137" lon="-1.22135">
        <ele>59.8</ele>
        <time>2020-01-26T08:38:33Z</time>
      </trkpt>
      <trkpt lat="45.78136" lon="-1.22135">
        <ele>60.2</ele>
        <time>2020-01-26T08:38:34Z</time>
      </trkpt>
      <trkpt lat="45.78134" lon="-1.22136">
        <ele>60.4</ele>
        <time>2020-01-26T08:38:35Z</time>
      </trkpt>
      <trkpt lat="45.78133" lon="-1.22139">
        <ele>60.2</ele>
        <time>2020-01-26T08:38:36Z</time>
      </trkpt>
      <trkpt lat="45.78133" lon="-1.22145">
        <ele>60.2</ele>
        <time>2020-01-26T08:38:37Z</time>
      </trkpt>
      <trkpt lat="45.78135" lon="-1.22152">
        <ele>59.8</ele>
        <time>2020-01-26T08:38:38Z</time>
      </trkpt>
      <trkpt lat="45.78138" lon="-1.22158">
        <ele>59.6</ele>
        <time>2020-01-26T08:38:39Z</time>
      </trkpt>
      <trkpt lat="45.78139" lon="-1.22164">
        <ele>59</ele>
        <time>2020-01-26T08:38:40Z</time>
      </trkpt>
      <trkpt lat="45.78139" lon="-1.2217">
        <ele>58.4</ele>
        <time>2020-01-26T08:38:41Z</time>
      </trkpt>
      <trkpt lat="45.78134" lon="-1.22167">
        <ele>57.8</ele>
        <time>2020-01-26T08:38:42Z</time>
      </trkpt>
      <trkpt lat="45.78131" lon="-1.2217">
        <ele>57.2</ele>
        <time>2020-01-26T08:38:43Z</time>
      </trkpt>
      <trkpt lat="45.7813" lon="-1.22173">
        <ele>56.8</ele>
        <time>2020-01-26T08:38:44Z</time>
      </trkpt>
      <trkpt lat="45.7813" lon="-1.22176">
        <ele>56.6</ele>
        <time>2020-01-26T08:38:45Z</time>
      </trkpt>
      <trkpt lat="45.78128" lon="-1.2218">
        <ele>56</ele>
        <time>2020-01-26T08:38:46Z</time>
      </trkpt>
      <trkpt lat="45.78125" lon="-1.22183">
        <ele>55.8</ele>
        <time>2020-01-26T08:38:47Z</time>
      </trkpt>
      <trkpt lat="45.7812" lon="-1.22185">
        <ele>55.8</ele>
        <time>2020-01-26T08:38:48Z</time>
      </trkpt>
      <trkpt lat="45.78116" lon="-1.22186">
        <ele>55.6</ele>
        <time>2020-01-26T08:38:49Z</time>
      </trkpt>
      <trkpt lat="45.78112" lon="-1.22188">
        <ele>55.4</ele>
        <time>2020-01-26T08:38:50Z</time>
      </trkpt>
      <trkpt lat="45.78108" lon="-1.22191">
        <ele>55.4</ele>
        <time>2020-01-26T08:38:51Z</time>
      </trkpt>
      <trkpt lat="45.78107" lon="-1.22197">
        <ele>55.8</ele>
        <time>2020-01-26T08:38:52Z</time>
      </trkpt>
      <trkpt lat="45.78107" lon="-1.22204">
        <ele>56</ele>
        <time>2020-01-26T08:38:53Z</time>
      </trkpt>
      <trkpt lat="45.78106" lon="-1.22211">
        <ele>56.2</ele>
        <time>2020-01-26T08:38:54Z</time>
      </trkpt>
      <trkpt lat="45.78107" lon="-1.22217">
        <ele>56.2</ele>
        <time>2020-01-26T08:38:55Z</time>
      </trkpt>
      <trkpt lat="45.78107" lon="-1.22223">
        <ele>56.2</ele>
        <time>2020-01-26T08:38:56Z</time>
      </trkpt>
      <trkpt lat="45.78107" lon="-1.2223">
        <ele>56.2</ele>
        <time>2020-01-26T08:38:57Z</time>
      </trkpt>
      <trkpt lat="45.78107" lon="-1.22237">
        <ele>56.4</ele>
        <time>2020-01-26T08:38:58Z</time>
      </trkpt>
      <trkpt lat="45.78107" lon="-1.22243">
        <ele>56.6</ele>
        <time>2020-01-26T08:38:59Z</time>
      </trkpt>
      <trkpt lat="45.78106" lon="-1.2225">
        <ele>56.4</ele>
        <time>2020-01-26T08:39:00Z</time>
      </trkpt>
      <trkpt lat="45.78105" lon="-1.22257">
        <ele>56.4</ele>
        <time>2020-01-26T08:39:01Z</time>
      </trkpt>
      <trkpt lat="45.78102" lon="-1.22261">
        <ele>56.4</ele>
        <time>2020-01-26T08:39:02Z</time>
      </trkpt>
      <trkpt lat="45.78099" lon="-1.22265">
        <ele>56.6</ele>
        <time>2020-01-26T08:39:03Z</time>
      </trkpt>
      <trkpt lat="45.78094" lon="-1.22264">
        <ele>56.4</ele>
        <time>2020-01-26T08:39:04Z</time>
      </trkpt>
      <trkpt lat="45.78091" lon="-1.22264">
        <ele>56.2</ele>
        <time>2020-01-26T08:39:05Z</time>
      </trkpt>
      <trkpt lat="45.78088" lon="-1.22264">
        <ele>56</ele>
        <time>2020-01-26T08:39:06Z</time>
      </trkpt>
      <trkpt lat="45.78084" lon="-1.22261">
        <ele>55.8</ele>
        <time>2020-01-26T08:39:07Z</time>
      </trkpt>
      <trkpt lat="45.78081" lon="-1.22258">
        <ele>55.6</ele>
        <time>2020-01-26T08:39:08Z</time>
      </trkpt>
      <trkpt lat="45.78077" lon="-1.22257">
        <ele>55.8</ele>
        <time>2020-01-26T08:39:09Z</time>
      </trkpt>
      <trkpt lat="45.78075" lon="-1.22261">
        <ele>55.8</ele>
        <time>2020-01-26T08:39:10Z</time>
      </trkpt>
      <trkpt lat="45.78074" lon="-1.22264">
        <ele>56</ele>
        <time>2020-01-26T08:39:11Z</time>
      </trkpt>
      <trkpt lat="45.7807" lon="-1.22268">
        <ele>56.6</ele>
        <time>2020-01-26T08:39:12Z</time>
      </trkpt>
      <trkpt lat="45.78067" lon="-1.22269">
        <ele>57</ele>
        <time>2020-01-26T08:39:13Z</time>
      </trkpt>
      <trkpt lat="45.78063" lon="-1.22271">
        <ele>57.4</ele>
        <time>2020-01-26T08:39:14Z</time>
      </trkpt>
      <trkpt lat="45.7806" lon="-1.22272">
        <ele>58.4</ele>
        <time>2020-01-26T08:39:15Z</time>
      </trkpt>
      <trkpt lat="45.78057" lon="-1.22272">
        <ele>58.8</ele>
        <time>2020-01-26T08:39:16Z</time>
      </trkpt>
      <trkpt lat="45.78055" lon="-1.22272">
        <ele>59.2</ele>
        <time>2020-01-26T08:39:17Z</time>
      </trkpt>
      <trkpt lat="45.78055" lon="-1.22273">
        <ele>59.4</ele>
        <time>2020-01-26T08:39:18Z</time>
      </trkpt>
      <trkpt lat="45.78054" lon="-1.22275">
        <ele>59.8</ele>
        <time>2020-01-26T08:39:19Z</time>
      </trkpt>
      <trkpt lat="45.78054" lon="-1.22278">
        <ele>60</ele>
        <time>2020-01-26T08:39:20Z</time>
      </trkpt>
      <trkpt lat="45.78054" lon="-1.22282">
        <ele>60</ele>
        <time>2020-01-26T08:39:21Z</time>
      </trkpt>
      <trkpt lat="45.78055" lon="-1.22285">
        <ele>60</ele>
        <time>2020-01-26T08:39:22Z</time>
      </trkpt>
      <trkpt lat="45.78054" lon="-1.22289">
        <ele>60</ele>
        <time>2020-01-26T08:39:23Z</time>
      </trkpt>
      <trkpt lat="45.78053" lon="-1.22293">
        <ele>60</ele>
        <time>2020-01-26T08:39:24Z</time>
      </trkpt>
      <trkpt lat="45.78051" lon="-1.22296">
        <ele>60</ele>
        <time>2020-01-26T08:39:25Z</time>
      </trkpt>
      <trkpt lat="45.78048" lon="-1.22298">
        <ele>60</ele>
        <time>2020-01-26T08:39:26Z</time>
      </trkpt>
      <trkpt lat="45.78045" lon="-1.22301">
        <ele>59.8</ele>
        <time>2020-01-26T08:39:27Z</time>
      </trkpt>
      <trkpt lat="45.78043" lon="-1.22305">
        <ele>59.4</ele>
        <time>2020-01-26T08:39:28Z</time>
      </trkpt>
      <trkpt lat="45.78041" lon="-1.22308">
        <ele>59.2</ele>
        <time>2020-01-26T08:39:29Z</time>
      </trkpt>
      <trkpt lat="45.7804" lon="-1.22312">
        <ele>59</ele>
        <time>2020-01-26T08:39:30Z</time>
      </trkpt>
      <trkpt lat="45.78037" lon="-1.22317">
        <ele>59</ele>
        <time>2020-01-26T08:39:31Z</time>
      </trkpt>
      <trkpt lat="45.78036" lon="-1.22322">
        <ele>59.2</ele>
        <time>2020-01-26T08:39:32Z</time>
      </trkpt>
      <trkpt lat="45.78035" lon="-1.22328">
        <ele>59.2</ele>
        <time>2020-01-26T08:39:33Z</time>
      </trkpt>
      <trkpt lat="45.78035" lon="-1.22331">
        <ele>58.8</ele>
        <time>2020-01-26T08:39:34Z</time>
      </trkpt>
      <trkpt lat="45.78033" lon="-1.22337">
        <ele>58.8</ele>
        <time>2020-01-26T08:39:35Z</time>
      </trkpt>
      <trkpt lat="45.7803" lon="-1.22342">
        <ele>59</ele>
        <time>2020-01-26T08:39:36Z</time>
      </trkpt>
      <trkpt lat="45.78027" lon="-1.22345">
        <ele>59.2</ele>
        <time>2020-01-26T08:39:37Z</time>
      </trkpt>
      <trkpt lat="45.78024" lon="-1.22345">
        <ele>59.4</ele>
        <time>2020-01-26T08:39:38Z</time>
      </trkpt>
      <trkpt lat="45.78022" lon="-1.22344">
        <ele>59.6</ele>
        <time>2020-01-26T08:39:39Z</time>
      </trkpt>
      <trkpt lat="45.78018" lon="-1.22343">
        <ele>59.6</ele>
        <time>2020-01-26T08:39:40Z</time>
      </trkpt>
      <trkpt lat="45.78014" lon="-1.22342">
        <ele>59.8</ele>
        <time>2020-01-26T08:39:41Z</time>
      </trkpt>
      <trkpt lat="45.78011" lon="-1.22341">
        <ele>60</ele>
        <time>2020-01-26T08:39:42Z</time>
      </trkpt>
      <trkpt lat="45.78007" lon="-1.22338">
        <ele>60</ele>
        <time>2020-01-26T08:39:43Z</time>
      </trkpt>
      <trkpt lat="45.78004" lon="-1.22336">
        <ele>60.2</ele>
        <time>2020-01-26T08:39:44Z</time>
      </trkpt>
      <trkpt lat="45.78001" lon="-1.22333">
        <ele>60.4</ele>
        <time>2020-01-26T08:39:45Z</time>
      </trkpt>
      <trkpt lat="45.77998" lon="-1.2233">
        <ele>60.4</ele>
        <time>2020-01-26T08:39:46Z</time>
      </trkpt>
      <trkpt lat="45.77994" lon="-1.22326">
        <ele>60.6</ele>
        <time>2020-01-26T08:39:47Z</time>
      </trkpt>
      <trkpt lat="45.77991" lon="-1.22323">
        <ele>60.8</ele>
        <time>2020-01-26T08:39:48Z</time>
      </trkpt>
      <trkpt lat="45.77987" lon="-1.22323">
        <ele>60.8</ele>
        <time>2020-01-26T08:39:49Z</time>
      </trkpt>
      <trkpt lat="45.77987" lon="-1.22329">
        <ele>60.8</ele>
        <time>2020-01-26T08:39:50Z</time>
      </trkpt>
      <trkpt lat="45.77987" lon="-1.22334">
        <ele>60.8</ele>
        <time>2020-01-26T08:39:51Z</time>
      </trkpt>
      <trkpt lat="45.77986" lon="-1.22338">
        <ele>60.6</ele>
        <time>2020-01-26T08:39:52Z</time>
      </trkpt>
      <trkpt lat="45.77986" lon="-1.22344">
        <ele>60.4</ele>
        <time>2020-01-26T08:39:53Z</time>
      </trkpt>
      <trkpt lat="45.77984" lon="-1.2235">
        <ele>60.4</ele>
        <time>2020-01-26T08:39:54Z</time>
      </trkpt>
      <trkpt lat="45.7798" lon="-1.22355">
        <ele>60</ele>
        <time>2020-01-26T08:39:55Z</time>
      </trkpt>
      <trkpt lat="45.77976" lon="-1.22359">
        <ele>59.4</ele>
        <time>2020-01-26T08:39:56Z</time>
      </trkpt>
      <trkpt lat="45.77972" lon="-1.22365">
        <ele>58.8</ele>
        <time>2020-01-26T08:39:57Z</time>
      </trkpt>
      <trkpt lat="45.77969" lon="-1.22372">
        <ele>58.4</ele>
        <time>2020-01-26T08:39:58Z</time>
      </trkpt>
      <trkpt lat="45.77964" lon="-1.22376">
        <ele>57.4</ele>
        <time>2020-01-26T08:39:59Z</time>
      </trkpt>
      <trkpt lat="45.77961" lon="-1.22382">
        <ele>56.8</ele>
        <time>2020-01-26T08:40:00Z</time>
      </trkpt>
      <trkpt lat="45.77958" lon="-1.22386">
        <ele>56.4</ele>
        <time>2020-01-26T08:40:01Z</time>
      </trkpt>
      <trkpt lat="45.77954" lon="-1.22389">
        <ele>56</ele>
        <time>2020-01-26T08:40:02Z</time>
      </trkpt>
      <trkpt lat="45.7795" lon="-1.22393">
        <ele>55.6</ele>
        <time>2020-01-26T08:40:03Z</time>
      </trkpt>
      <trkpt lat="45.77946" lon="-1.22396">
        <ele>55.2</ele>
        <time>2020-01-26T08:40:04Z</time>
      </trkpt>
      <trkpt lat="45.7794" lon="-1.224">
        <ele>54.8</ele>
        <time>2020-01-26T08:40:05Z</time>
      </trkpt>
      <trkpt lat="45.77937" lon="-1.22406">
        <ele>54.4</ele>
        <time>2020-01-26T08:40:06Z</time>
      </trkpt>
      <trkpt lat="45.77934" lon="-1.22411">
        <ele>54</ele>
        <time>2020-01-26T08:40:07Z</time>
      </trkpt>
      <trkpt lat="45.77928" lon="-1.22413">
        <ele>54</ele>
        <time>2020-01-26T08:40:08Z</time>
      </trkpt>
      <trkpt lat="45.77923" lon="-1.22415">
        <ele>53.8</ele>
        <time>2020-01-26T08:40:09Z</time>
      </trkpt>
      <trkpt lat="45.77918" lon="-1.22415">
        <ele>53.8</ele>
        <time>2020-01-26T08:40:10Z</time>
      </trkpt>
      <trkpt lat="45.77914" lon="-1.22412">
        <ele>53.8</ele>
        <time>2020-01-26T08:40:11Z</time>
      </trkpt>
      <trkpt lat="45.77911" lon="-1.22409">
        <ele>54</ele>
        <time>2020-01-26T08:40:12Z</time>
      </trkpt>
      <trkpt lat="45.77906" lon="-1.22407">
        <ele>54</ele>
        <time>2020-01-26T08:40:13Z</time>
      </trkpt>
      <trkpt lat="45.77901" lon="-1.22407">
        <ele>53.6</ele>
        <time>2020-01-26T08:40:14Z</time>
      </trkpt>
      <trkpt lat="45.77897" lon="-1.22409">
        <ele>53.6</ele>
        <time>2020-01-26T08:40:15Z</time>
      </trkpt>
      <trkpt lat="45.77895" lon="-1.22417">
        <ele>53.6</ele>
        <time>2020-01-26T08:40:16Z</time>
      </trkpt>
      <trkpt lat="45.77893" lon="-1.22424">
        <ele>53.8</ele>
        <time>2020-01-26T08:40:17Z</time>
      </trkpt>
      <trkpt lat="45.77893" lon="-1.2243">
        <ele>54</ele>
        <time>2020-01-26T08:40:18Z</time>
      </trkpt>
      <trkpt lat="45.77892" lon="-1.22437">
        <ele>54.4</ele>
        <time>2020-01-26T08:40:19Z</time>
      </trkpt>
      <trkpt lat="45.7789" lon="-1.22444">
        <ele>54.6</ele>
        <time>2020-01-26T08:40:20Z</time>
      </trkpt>
      <trkpt lat="45.77888" lon="-1.22449">
        <ele>54.8</ele>
        <time>2020-01-26T08:40:21Z</time>
      </trkpt>
      <trkpt lat="45.77887" lon="-1.22452">
        <ele>55.2</ele>
        <time>2020-01-26T08:40:22Z</time>
      </trkpt>
      <trkpt lat="45.77885" lon="-1.22458">
        <ele>55.4</ele>
        <time>2020-01-26T08:40:23Z</time>
      </trkpt>
      <trkpt lat="45.77882" lon="-1.22462">
        <ele>55.8</ele>
        <time>2020-01-26T08:40:24Z</time>
      </trkpt>
      <trkpt lat="45.7788" lon="-1.22466">
        <ele>56</ele>
        <time>2020-01-26T08:40:25Z</time>
      </trkpt>
      <trkpt lat="45.77879" lon="-1.22471">
        <ele>56.2</ele>
        <time>2020-01-26T08:40:26Z</time>
      </trkpt>
      <trkpt lat="45.77877" lon="-1.22473">
        <ele>56.2</ele>
        <time>2020-01-26T08:40:27Z</time>
      </trkpt>
      <trkpt lat="45.77875" lon="-1.22474">
        <ele>56.2</ele>
        <time>2020-01-26T08:40:28Z</time>
      </trkpt>
      <trkpt lat="45.77872" lon="-1.22473">
        <ele>55.8</ele>
        <time>2020-01-26T08:40:29Z</time>
      </trkpt>
      <trkpt lat="45.7787" lon="-1.22471">
        <ele>56</ele>
        <time>2020-01-26T08:40:30Z</time>
      </trkpt>
      <trkpt lat="45.77866" lon="-1.22469">
        <ele>56</ele>
        <time>2020-01-26T08:40:31Z</time>
      </trkpt>
      <trkpt lat="45.77864" lon="-1.22467">
        <ele>55.6</ele>
        <time>2020-01-26T08:40:32Z</time>
      </trkpt>
      <trkpt lat="45.77861" lon="-1.22466">
        <ele>55.6</ele>
        <time>2020-01-26T08:40:33Z</time>
      </trkpt>
      <trkpt lat="45.77858" lon="-1.22462">
        <ele>55.4</ele>
        <time>2020-01-26T08:40:34Z</time>
      </trkpt>
      <trkpt lat="45.77856" lon="-1.2246">
        <ele>55</ele>
        <time>2020-01-26T08:40:35Z</time>
      </trkpt>
      <trkpt lat="45.77853" lon="-1.22458">
        <ele>54.8</ele>
        <time>2020-01-26T08:40:36Z</time>
      </trkpt>
      <trkpt lat="45.77851" lon="-1.22456">
        <ele>54.6</ele>
        <time>2020-01-26T08:40:37Z</time>
      </trkpt>
      <trkpt lat="45.77848" lon="-1.22453">
        <ele>54.4</ele>
        <time>2020-01-26T08:40:38Z</time>
      </trkpt>
      <trkpt lat="45.77846" lon="-1.22451">
        <ele>54</ele>
        <time>2020-01-26T08:40:39Z</time>
      </trkpt>
      <trkpt lat="45.77843" lon="-1.2245">
        <ele>53.8</ele>
        <time>2020-01-26T08:40:40Z</time>
      </trkpt>
      <trkpt lat="45.7784" lon="-1.22448">
        <ele>53.8</ele>
        <time>2020-01-26T08:40:41Z</time>
      </trkpt>
      <trkpt lat="45.77838" lon="-1.22446">
        <ele>53.8</ele>
        <time>2020-01-26T08:40:42Z</time>
      </trkpt>
      <trkpt lat="45.77834" lon="-1.22446">
        <ele>53.6</ele>
        <time>2020-01-26T08:40:43Z</time>
      </trkpt>
      <trkpt lat="45.7783" lon="-1.22448">
        <ele>53.4</ele>
        <time>2020-01-26T08:40:44Z</time>
      </trkpt>
      <trkpt lat="45.77826" lon="-1.22449">
        <ele>53.4</ele>
        <time>2020-01-26T08:40:45Z</time>
      </trkpt>
      <trkpt lat="45.77823" lon="-1.22448">
        <ele>53.2</ele>
        <time>2020-01-26T08:40:46Z</time>
      </trkpt>
      <trkpt lat="45.77821" lon="-1.22444">
        <ele>53.2</ele>
        <time>2020-01-26T08:40:47Z</time>
      </trkpt>
      <trkpt lat="45.77822" lon="-1.22438">
        <ele>53.2</ele>
        <time>2020-01-26T08:40:48Z</time>
      </trkpt>
      <trkpt lat="45.77822" lon="-1.22432">
        <ele>53.2</ele>
        <time>2020-01-26T08:40:49Z</time>
      </trkpt>
      <trkpt lat="45.77822" lon="-1.22426">
        <ele>53.2</ele>
        <time>2020-01-26T08:40:50Z</time>
      </trkpt>
      <trkpt lat="45.77822" lon="-1.2242">
        <ele>53.6</ele>
        <time>2020-01-26T08:40:51Z</time>
      </trkpt>
      <trkpt lat="45.77822" lon="-1.22417">
        <ele>53.4</ele>
        <time>2020-01-26T08:40:52Z</time>
      </trkpt>
      <trkpt lat="45.77822" lon="-1.22413">
        <ele>52.8</ele>
        <time>2020-01-26T08:40:53Z</time>
      </trkpt>
      <trkpt lat="45.77822" lon="-1.22408">
        <ele>52.4</ele>
        <time>2020-01-26T08:40:54Z</time>
      </trkpt>
      <trkpt lat="45.77823" lon="-1.22403">
        <ele>51.8</ele>
        <time>2020-01-26T08:40:55Z</time>
      </trkpt>
      <trkpt lat="45.77823" lon="-1.22398">
        <ele>51.6</ele>
        <time>2020-01-26T08:40:56Z</time>
      </trkpt>
      <trkpt lat="45.77821" lon="-1.22392">
        <ele>51.2</ele>
        <time>2020-01-26T08:40:57Z</time>
      </trkpt>
      <trkpt lat="45.77818" lon="-1.22388">
        <ele>51.2</ele>
        <time>2020-01-26T08:40:58Z</time>
      </trkpt>
      <trkpt lat="45.77814" lon="-1.22382">
        <ele>51.4</ele>
        <time>2020-01-26T08:40:59Z</time>
      </trkpt>
      <trkpt lat="45.77811" lon="-1.22378">
        <ele>51.8</ele>
        <time>2020-01-26T08:41:00Z</time>
      </trkpt>
      <trkpt lat="45.77807" lon="-1.22376">
        <ele>52.4</ele>
        <time>2020-01-26T08:41:01Z</time>
      </trkpt>
      <trkpt lat="45.77804" lon="-1.22375">
        <ele>52.6</ele>
        <time>2020-01-26T08:41:02Z</time>
      </trkpt>
      <trkpt lat="45.778" lon="-1.22374">
        <ele>53</ele>
        <time>2020-01-26T08:41:03Z</time>
      </trkpt>
      <trkpt lat="45.77797" lon="-1.22372">
        <ele>53.6</ele>
        <time>2020-01-26T08:41:04Z</time>
      </trkpt>
      <trkpt lat="45.77794" lon="-1.2237">
        <ele>54.4</ele>
        <time>2020-01-26T08:41:05Z</time>
      </trkpt>
      <trkpt lat="45.77792" lon="-1.22365">
        <ele>54.8</ele>
        <time>2020-01-26T08:41:06Z</time>
      </trkpt>
      <trkpt lat="45.7779" lon="-1.2236">
        <ele>55</ele>
        <time>2020-01-26T08:41:07Z</time>
      </trkpt>
      <trkpt lat="45.77788" lon="-1.22356">
        <ele>55.4</ele>
        <time>2020-01-26T08:41:08Z</time>
      </trkpt>
      <trkpt lat="45.77785" lon="-1.22353">
        <ele>55.8</ele>
        <time>2020-01-26T08:41:09Z</time>
      </trkpt>
      <trkpt lat="45.77782" lon="-1.22351">
        <ele>55.8</ele>
        <time>2020-01-26T08:41:10Z</time>
      </trkpt>
      <trkpt lat="45.77777" lon="-1.22349">
        <ele>56.4</ele>
        <time>2020-01-26T08:41:11Z</time>
      </trkpt>
      <trkpt lat="45.77774" lon="-1.22348">
        <ele>56.8</ele>
        <time>2020-01-26T08:41:12Z</time>
      </trkpt>
      <trkpt lat="45.77772" lon="-1.22349">
        <ele>57.4</ele>
        <time>2020-01-26T08:41:13Z</time>
      </trkpt>
      <trkpt lat="45.77769" lon="-1.2235">
        <ele>58</ele>
        <time>2020-01-26T08:41:14Z</time>
      </trkpt>
      <trkpt lat="45.77767" lon="-1.22352">
        <ele>58.6</ele>
        <time>2020-01-26T08:41:15Z</time>
      </trkpt>
      <trkpt lat="45.77767" lon="-1.22356">
        <ele>58.8</ele>
        <time>2020-01-26T08:41:16Z</time>
      </trkpt>
      <trkpt lat="45.77768" lon="-1.2236">
        <ele>59.2</ele>
        <time>2020-01-26T08:41:17Z</time>
      </trkpt>
      <trkpt lat="45.77768" lon="-1.22364">
        <ele>59</ele>
        <time>2020-01-26T08:41:18Z</time>
      </trkpt>
      <trkpt lat="45.77767" lon="-1.22369">
        <ele>58.8</ele>
        <time>2020-01-26T08:41:19Z</time>
      </trkpt>
      <trkpt lat="45.77767" lon="-1.22375">
        <ele>58.6</ele>
        <time>2020-01-26T08:41:20Z</time>
      </trkpt>
      <trkpt lat="45.77768" lon="-1.22383">
        <ele>58.4</ele>
        <time>2020-01-26T08:41:21Z</time>
      </trkpt>
      <trkpt lat="45.7777" lon="-1.22389">
        <ele>58</ele>
        <time>2020-01-26T08:41:22Z</time>
      </trkpt>
      <trkpt lat="45.77773" lon="-1.22393">
        <ele>57.8</ele>
        <time>2020-01-26T08:41:23Z</time>
      </trkpt>
      <trkpt lat="45.77776" lon="-1.224">
        <ele>57.6</ele>
        <time>2020-01-26T08:41:24Z</time>
      </trkpt>
      <trkpt lat="45.77778" lon="-1.22405">
        <ele>57.8</ele>
        <time>2020-01-26T08:41:25Z</time>
      </trkpt>
      <trkpt lat="45.77781" lon="-1.2241">
        <ele>57.8</ele>
        <time>2020-01-26T08:41:26Z</time>
      </trkpt>
      <trkpt lat="45.77785" lon="-1.22412">
        <ele>57.8</ele>
        <time>2020-01-26T08:41:27Z</time>
      </trkpt>
      <trkpt lat="45.77789" lon="-1.22415">
        <ele>57.8</ele>
        <time>2020-01-26T08:41:28Z</time>
      </trkpt>
      <trkpt lat="45.77792" lon="-1.22417">
        <ele>57.8</ele>
        <time>2020-01-26T08:41:29Z</time>
      </trkpt>
      <trkpt lat="45.77792" lon="-1.22422">
        <ele>57.8</ele>
        <time>2020-01-26T08:41:30Z</time>
      </trkpt>
      <trkpt lat="45.77793" lon="-1.22427">
        <ele>57.6</ele>
        <time>2020-01-26T08:41:31Z</time>
      </trkpt>
      <trkpt lat="45.77792" lon="-1.22433">
        <ele>56.4</ele>
        <time>2020-01-26T08:41:32Z</time>
      </trkpt>
      <trkpt lat="45.77792" lon="-1.2244">
        <ele>55.2</ele>
        <time>2020-01-26T08:41:33Z</time>
      </trkpt>
      <trkpt lat="45.77792" lon="-1.22446">
        <ele>54.4</ele>
        <time>2020-01-26T08:41:34Z</time>
      </trkpt>
      <trkpt lat="45.77795" lon="-1.22453">
        <ele>53.8</ele>
        <time>2020-01-26T08:41:35Z</time>
      </trkpt>
      <trkpt lat="45.77795" lon="-1.2246">
        <ele>53.6</ele>
        <time>2020-01-26T08:41:36Z</time>
      </trkpt>
      <trkpt lat="45.77796" lon="-1.22466">
        <ele>53.6</ele>
        <time>2020-01-26T08:41:37Z</time>
      </trkpt>
      <trkpt lat="45.77797" lon="-1.22471">
        <ele>53</ele>
        <time>2020-01-26T08:41:38Z</time>
      </trkpt>
      <trkpt lat="45.77801" lon="-1.22474">
        <ele>52.2</ele>
        <time>2020-01-26T08:41:39Z</time>
      </trkpt>
      <trkpt lat="45.77805" lon="-1.22478">
        <ele>51.4</ele>
        <time>2020-01-26T08:41:40Z</time>
      </trkpt>
      <trkpt lat="45.77808" lon="-1.22483">
        <ele>51.4</ele>
        <time>2020-01-26T08:41:41Z</time>
      </trkpt>
      <trkpt lat="45.7781" lon="-1.22489">
        <ele>51</ele>
        <time>2020-01-26T08:41:42Z</time>
      </trkpt>
      <trkpt lat="45.77813" lon="-1.22493">
        <ele>51</ele>
        <time>2020-01-26T08:41:43Z</time>
      </trkpt>
      <trkpt lat="45.77813" lon="-1.22495">
        <ele>51.2</ele>
        <time>2020-01-26T08:41:44Z</time>
      </trkpt>
      <trkpt lat="45.7781" lon="-1.22497">
        <ele>51.4</ele>
        <time>2020-01-26T08:41:45Z</time>
      </trkpt>
      <trkpt lat="45.77805" lon="-1.225">
        <ele>51.6</ele>
        <time>2020-01-26T08:41:46Z</time>
      </trkpt>
      <trkpt lat="45.77801" lon="-1.22501">
        <ele>51.4</ele>
        <time>2020-01-26T08:41:47Z</time>
      </trkpt>
      <trkpt lat="45.77796" lon="-1.22505">
        <ele>51.6</ele>
        <time>2020-01-26T08:41:48Z</time>
      </trkpt>
      <trkpt lat="45.77796" lon="-1.22512">
        <ele>51.6</ele>
        <time>2020-01-26T08:41:49Z</time>
      </trkpt>
      <trkpt lat="45.77795" lon="-1.22514">
        <ele>51.8</ele>
        <time>2020-01-26T08:41:50Z</time>
      </trkpt>
      <trkpt lat="45.77794" lon="-1.22514">
        <ele>51.8</ele>
        <time>2020-01-26T08:41:51Z</time>
      </trkpt>
      <trkpt lat="45.77792" lon="-1.22516">
        <ele>51.8</ele>
        <time>2020-01-26T08:41:52Z</time>
      </trkpt>
      <trkpt lat="45.77791" lon="-1.22519">
        <ele>51.6</ele>
        <time>2020-01-26T08:41:53Z</time>
      </trkpt>
      <trkpt lat="45.77793" lon="-1.22523">
        <ele>51.8</ele>
        <time>2020-01-26T08:41:54Z</time>
      </trkpt>
      <trkpt lat="45.77795" lon="-1.22527">
        <ele>51.8</ele>
        <time>2020-01-26T08:41:55Z</time>
      </trkpt>
      <trkpt lat="45.77795" lon="-1.22532">
        <ele>51.8</ele>
        <time>2020-01-26T08:41:56Z</time>
      </trkpt>
      <trkpt lat="45.77796" lon="-1.22538">
        <ele>51.8</ele>
        <time>2020-01-26T08:41:57Z</time>
      </trkpt>
      <trkpt lat="45.77794" lon="-1.22544">
        <ele>51.6</ele>
        <time>2020-01-26T08:41:58Z</time>
      </trkpt>
      <trkpt lat="45.77794" lon="-1.2255">
        <ele>51.8</ele>
        <time>2020-01-26T08:41:59Z</time>
      </trkpt>
      <trkpt lat="45.77793" lon="-1.22556">
        <ele>51.8</ele>
        <time>2020-01-26T08:42:00Z</time>
      </trkpt>
      <trkpt lat="45.77791" lon="-1.22562">
        <ele>52.4</ele>
        <time>2020-01-26T08:42:01Z</time>
      </trkpt>
      <trkpt lat="45.77789" lon="-1.22568">
        <ele>52.6</ele>
        <time>2020-01-26T08:42:02Z</time>
      </trkpt>
      <trkpt lat="45.77788" lon="-1.22573">
        <ele>53</ele>
        <time>2020-01-26T08:42:03Z</time>
      </trkpt>
      <trkpt lat="45.77786" lon="-1.2258">
        <ele>53.2</ele>
        <time>2020-01-26T08:42:04Z</time>
      </trkpt>
      <trkpt lat="45.77784" lon="-1.22585">
        <ele>53.6</ele>
        <time>2020-01-26T08:42:05Z</time>
      </trkpt>
      <trkpt lat="45.77782" lon="-1.22591">
        <ele>54</ele>
        <time>2020-01-26T08:42:06Z</time>
      </trkpt>
      <trkpt lat="45.7778" lon="-1.22597">
        <ele>54.6</ele>
        <time>2020-01-26T08:42:07Z</time>
      </trkpt>
      <trkpt lat="45.77779" lon="-1.22603">
        <ele>54.8</ele>
        <time>2020-01-26T08:42:08Z</time>
      </trkpt>
      <trkpt lat="45.77778" lon="-1.22609">
        <ele>55.2</ele>
        <time>2020-01-26T08:42:09Z</time>
      </trkpt>
      <trkpt lat="45.77775" lon="-1.22614">
        <ele>55.4</ele>
        <time>2020-01-26T08:42:10Z</time>
      </trkpt>
      <trkpt lat="45.77775" lon="-1.22621">
        <ele>55.2</ele>
        <time>2020-01-26T08:42:11Z</time>
      </trkpt>
      <trkpt lat="45.77776" lon="-1.22626">
        <ele>55.2</ele>
        <time>2020-01-26T08:42:12Z</time>
      </trkpt>
      <trkpt lat="45.77777" lon="-1.2263">
        <ele>55.4</ele>
        <time>2020-01-26T08:42:13Z</time>
      </trkpt>
      <trkpt lat="45.77777" lon="-1.22633">
        <ele>55.8</ele>
        <time>2020-01-26T08:42:14Z</time>
      </trkpt>
      <trkpt lat="45.77777" lon="-1.22637">
        <ele>55.8</ele>
        <time>2020-01-26T08:42:15Z</time>
      </trkpt>
      <trkpt lat="45.77777" lon="-1.22641">
        <ele>55.6</ele>
        <time>2020-01-26T08:42:16Z</time>
      </trkpt>
      <trkpt lat="45.7778" lon="-1.22646">
        <ele>55.2</ele>
        <time>2020-01-26T08:42:17Z</time>
      </trkpt>
      <trkpt lat="45.77781" lon="-1.22653">
        <ele>55</ele>
        <time>2020-01-26T08:42:18Z</time>
      </trkpt>
      <trkpt lat="45.77781" lon="-1.22659">
        <ele>54.6</ele>
        <time>2020-01-26T08:42:19Z</time>
      </trkpt>
      <trkpt lat="45.77782" lon="-1.22665">
        <ele>54.6</ele>
        <time>2020-01-26T08:42:20Z</time>
      </trkpt>
      <trkpt lat="45.77782" lon="-1.22671">
        <ele>54.4</ele>
        <time>2020-01-26T08:42:21Z</time>
      </trkpt>
      <trkpt lat="45.77782" lon="-1.22678">
        <ele>54.2</ele>
        <time>2020-01-26T08:42:22Z</time>
      </trkpt>
      <trkpt lat="45.77782" lon="-1.22684">
        <ele>54</ele>
        <time>2020-01-26T08:42:23Z</time>
      </trkpt>
      <trkpt lat="45.77782" lon="-1.22691">
        <ele>53.8</ele>
        <time>2020-01-26T08:42:24Z</time>
      </trkpt>
      <trkpt lat="45.77781" lon="-1.22698">
        <ele>53.6</ele>
        <time>2020-01-26T08:42:25Z</time>
      </trkpt>
      <trkpt lat="45.7778" lon="-1.22705">
        <ele>53.4</ele>
        <time>2020-01-26T08:42:26Z</time>
      </trkpt>
      <trkpt lat="45.77778" lon="-1.22711">
        <ele>53.6</ele>
        <time>2020-01-26T08:42:27Z</time>
      </trkpt>
      <trkpt lat="45.77776" lon="-1.22717">
        <ele>52.8</ele>
        <time>2020-01-26T08:42:28Z</time>
      </trkpt>
      <trkpt lat="45.77773" lon="-1.22722">
        <ele>52.4</ele>
        <time>2020-01-26T08:42:29Z</time>
      </trkpt>
      <trkpt lat="45.77773" lon="-1.22727">
        <ele>51.8</ele>
        <time>2020-01-26T08:42:30Z</time>
      </trkpt>
      <trkpt lat="45.77776" lon="-1.22729">
        <ele>51.8</ele>
        <time>2020-01-26T08:42:31Z</time>
      </trkpt>
      <trkpt lat="45.7778" lon="-1.22729">
        <ele>51.6</ele>
        <time>2020-01-26T08:42:32Z</time>
      </trkpt>
      <trkpt lat="45.77783" lon="-1.22733">
        <ele>51.4</ele>
        <time>2020-01-26T08:42:33Z</time>
      </trkpt>
      <trkpt lat="45.77786" lon="-1.22737">
        <ele>51.4</ele>
        <time>2020-01-26T08:42:34Z</time>
      </trkpt>
      <trkpt lat="45.77788" lon="-1.22741">
        <ele>51.2</ele>
        <time>2020-01-26T08:42:35Z</time>
      </trkpt>
      <trkpt lat="45.77789" lon="-1.22747">
        <ele>50.8</ele>
        <time>2020-01-26T08:42:36Z</time>
      </trkpt>
      <trkpt lat="45.77789" lon="-1.22753">
        <ele>50.4</ele>
        <time>2020-01-26T08:42:37Z</time>
      </trkpt>
      <trkpt lat="45.77792" lon="-1.22758">
        <ele>50.4</ele>
        <time>2020-01-26T08:42:38Z</time>
      </trkpt>
      <trkpt lat="45.77795" lon="-1.2276">
        <ele>50.2</ele>
        <time>2020-01-26T08:42:39Z</time>
      </trkpt>
      <trkpt lat="45.778" lon="-1.22757">
        <ele>49.4</ele>
        <time>2020-01-26T08:42:40Z</time>
      </trkpt>
      <trkpt lat="45.77805" lon="-1.22758">
        <ele>48.8</ele>
        <time>2020-01-26T08:42:41Z</time>
      </trkpt>
      <trkpt lat="45.77809" lon="-1.22759">
        <ele>48.6</ele>
        <time>2020-01-26T08:42:42Z</time>
      </trkpt>
      <trkpt lat="45.77813" lon="-1.2276">
        <ele>48.2</ele>
        <time>2020-01-26T08:42:43Z</time>
      </trkpt>
      <trkpt lat="45.77817" lon="-1.22759">
        <ele>48.2</ele>
        <time>2020-01-26T08:42:44Z</time>
      </trkpt>
      <trkpt lat="45.7782" lon="-1.22761">
        <ele>48.2</ele>
        <time>2020-01-26T08:42:45Z</time>
      </trkpt>
      <trkpt lat="45.77823" lon="-1.22765">
        <ele>48.4</ele>
        <time>2020-01-26T08:42:46Z</time>
      </trkpt>
      <trkpt lat="45.77824" lon="-1.22768">
        <ele>48.6</ele>
        <time>2020-01-26T08:42:47Z</time>
      </trkpt>
      <trkpt lat="45.77826" lon="-1.22773">
        <ele>48.6</ele>
        <time>2020-01-26T08:42:48Z</time>
      </trkpt>
      <trkpt lat="45.77828" lon="-1.22777">
        <ele>48.8</ele>
        <time>2020-01-26T08:42:49Z</time>
      </trkpt>
      <trkpt lat="45.77834" lon="-1.22777">
        <ele>48.6</ele>
        <time>2020-01-26T08:42:50Z</time>
      </trkpt>
      <trkpt lat="45.77837" lon="-1.22781">
        <ele>48.4</ele>
        <time>2020-01-26T08:42:51Z</time>
      </trkpt>
      <trkpt lat="45.77838" lon="-1.22787">
        <ele>48</ele>
        <time>2020-01-26T08:42:52Z</time>
      </trkpt>
      <trkpt lat="45.7784" lon="-1.22793">
        <ele>47.8</ele>
        <time>2020-01-26T08:42:53Z</time>
      </trkpt>
      <trkpt lat="45.77842" lon="-1.228">
        <ele>47.8</ele>
        <time>2020-01-26T08:42:54Z</time>
      </trkpt>
      <trkpt lat="45.77847" lon="-1.22801">
        <ele>48</ele>
        <time>2020-01-26T08:42:55Z</time>
      </trkpt>
      <trkpt lat="45.77851" lon="-1.22802">
        <ele>48.2</ele>
        <time>2020-01-26T08:42:56Z</time>
      </trkpt>
      <trkpt lat="45.77856" lon="-1.228">
        <ele>48.4</ele>
        <time>2020-01-26T08:42:57Z</time>
      </trkpt>
      <trkpt lat="45.7786" lon="-1.22798">
        <ele>48.4</ele>
        <time>2020-01-26T08:42:58Z</time>
      </trkpt>
      <trkpt lat="45.77864" lon="-1.22794">
        <ele>48.2</ele>
        <time>2020-01-26T08:42:59Z</time>
      </trkpt>
      <trkpt lat="45.77869" lon="-1.22791">
        <ele>47.8</ele>
        <time>2020-01-26T08:43:00Z</time>
      </trkpt>
      <trkpt lat="45.77874" lon="-1.22792">
        <ele>48.2</ele>
        <time>2020-01-26T08:43:01Z</time>
      </trkpt>
      <trkpt lat="45.77878" lon="-1.22793">
        <ele>48.6</ele>
        <time>2020-01-26T08:43:02Z</time>
      </trkpt>
      <trkpt lat="45.77882" lon="-1.22798">
        <ele>49</ele>
        <time>2020-01-26T08:43:03Z</time>
      </trkpt>
      <trkpt lat="45.77885" lon="-1.22803">
        <ele>49.2</ele>
        <time>2020-01-26T08:43:04Z</time>
      </trkpt>
      <trkpt lat="45.7789" lon="-1.22805">
        <ele>49.4</ele>
        <time>2020-01-26T08:43:05Z</time>
      </trkpt>
      <trkpt lat="45.77893" lon="-1.22808">
        <ele>49.6</ele>
        <time>2020-01-26T08:43:06Z</time>
      </trkpt>
      <trkpt lat="45.77898" lon="-1.2281">
        <ele>50</ele>
        <time>2020-01-26T08:43:07Z</time>
      </trkpt>
      <trkpt lat="45.77902" lon="-1.22812">
        <ele>50</ele>
        <time>2020-01-26T08:43:08Z</time>
      </trkpt>
      <trkpt lat="45.77906" lon="-1.2281">
        <ele>50.2</ele>
        <time>2020-01-26T08:43:09Z</time>
      </trkpt>
      <trkpt lat="45.77913" lon="-1.22807">
        <ele>50</ele>
        <time>2020-01-26T08:43:10Z</time>
      </trkpt>
      <trkpt lat="45.77917" lon="-1.22803">
        <ele>50</ele>
        <time>2020-01-26T08:43:11Z</time>
      </trkpt>
      <trkpt lat="45.77921" lon="-1.22798">
        <ele>50.2</ele>
        <time>2020-01-26T08:43:12Z</time>
      </trkpt>
      <trkpt lat="45.77923" lon="-1.22792">
        <ele>49.8</ele>
        <time>2020-01-26T08:43:13Z</time>
      </trkpt>
      <trkpt lat="45.77925" lon="-1.22787">
        <ele>49.6</ele>
        <time>2020-01-26T08:43:14Z</time>
      </trkpt>
      <trkpt lat="45.77928" lon="-1.22783">
        <ele>49.4</ele>
        <time>2020-01-26T08:43:15Z</time>
      </trkpt>
      <trkpt lat="45.77931" lon="-1.2278">
        <ele>49.4</ele>
        <time>2020-01-26T08:43:16Z</time>
      </trkpt>
      <trkpt lat="45.77936" lon="-1.22784">
        <ele>49.6</ele>
        <time>2020-01-26T08:43:17Z</time>
      </trkpt>
      <trkpt lat="45.7794" lon="-1.22789">
        <ele>50</ele>
        <time>2020-01-26T08:43:18Z</time>
      </trkpt>
      <trkpt lat="45.77941" lon="-1.22797">
        <ele>50.2</ele>
        <time>2020-01-26T08:43:19Z</time>
      </trkpt>
      <trkpt lat="45.77941" lon="-1.22804">
        <ele>50.6</ele>
        <time>2020-01-26T08:43:20Z</time>
      </trkpt>
      <trkpt lat="45.77942" lon="-1.22809">
        <ele>51.2</ele>
        <time>2020-01-26T08:43:21Z</time>
      </trkpt>
      <trkpt lat="45.77942" lon="-1.22815">
        <ele>51.4</ele>
        <time>2020-01-26T08:43:22Z</time>
      </trkpt>
      <trkpt lat="45.77941" lon="-1.22819">
        <ele>51.8</ele>
        <time>2020-01-26T08:43:23Z</time>
      </trkpt>
      <trkpt lat="45.77941" lon="-1.22822">
        <ele>51.6</ele>
        <time>2020-01-26T08:43:24Z</time>
      </trkpt>
      <trkpt lat="45.77941" lon="-1.22828">
        <ele>51.4</ele>
        <time>2020-01-26T08:43:25Z</time>
      </trkpt>
      <trkpt lat="45.7794" lon="-1.22835">
        <ele>51</ele>
        <time>2020-01-26T08:43:26Z</time>
      </trkpt>
      <trkpt lat="45.77941" lon="-1.22842">
        <ele>50.8</ele>
        <time>2020-01-26T08:43:27Z</time>
      </trkpt>
      <trkpt lat="45.77941" lon="-1.2285">
        <ele>50.6</ele>
        <time>2020-01-26T08:43:28Z</time>
      </trkpt>
      <trkpt lat="45.77942" lon="-1.22856">
        <ele>50.4</ele>
        <time>2020-01-26T08:43:29Z</time>
      </trkpt>
      <trkpt lat="45.77942" lon="-1.22863">
        <ele>50.4</ele>
        <time>2020-01-26T08:43:30Z</time>
      </trkpt>
      <trkpt lat="45.77942" lon="-1.22872">
        <ele>50.6</ele>
        <time>2020-01-26T08:43:31Z</time>
      </trkpt>
      <trkpt lat="45.77942" lon="-1.22881">
        <ele>51</ele>
        <time>2020-01-26T08:43:32Z</time>
      </trkpt>
      <trkpt lat="45.77942" lon="-1.22891">
        <ele>51.2</ele>
        <time>2020-01-26T08:43:33Z</time>
      </trkpt>
      <trkpt lat="45.77942" lon="-1.22901">
        <ele>51.4</ele>
        <time>2020-01-26T08:43:34Z</time>
      </trkpt>
      <trkpt lat="45.77942" lon="-1.22912">
        <ele>51.6</ele>
        <time>2020-01-26T08:43:35Z</time>
      </trkpt>
      <trkpt lat="45.77942" lon="-1.22924">
        <ele>51.6</ele>
        <time>2020-01-26T08:43:36Z</time>
      </trkpt>
      <trkpt lat="45.77943" lon="-1.22935">
        <ele>51.4</ele>
        <time>2020-01-26T08:43:37Z</time>
      </trkpt>
      <trkpt lat="45.77944" lon="-1.22947">
        <ele>51.4</ele>
        <time>2020-01-26T08:43:38Z</time>
      </trkpt>
      <trkpt lat="45.77945" lon="-1.22958">
        <ele>51.2</ele>
        <time>2020-01-26T08:43:39Z</time>
      </trkpt>
      <trkpt lat="45.77945" lon="-1.2297">
        <ele>51.2</ele>
        <time>2020-01-26T08:43:40Z</time>
      </trkpt>
      <trkpt lat="45.77946" lon="-1.2298">
        <ele>51.2</ele>
        <time>2020-01-26T08:43:41Z</time>
      </trkpt>
      <trkpt lat="45.77945" lon="-1.22991">
        <ele>51.2</ele>
        <time>2020-01-26T08:43:42Z</time>
      </trkpt>
      <trkpt lat="45.77945" lon="-1.23001">
        <ele>51</ele>
        <time>2020-01-26T08:43:43Z</time>
      </trkpt>
      <trkpt lat="45.77945" lon="-1.2301">
        <ele>51</ele>
        <time>2020-01-26T08:43:44Z</time>
      </trkpt>
      <trkpt lat="45.77947" lon="-1.23019">
        <ele>51.4</ele>
        <time>2020-01-26T08:43:45Z</time>
      </trkpt>
      <trkpt lat="45.77948" lon="-1.23027">
        <ele>51.4</ele>
        <time>2020-01-26T08:43:46Z</time>
      </trkpt>
      <trkpt lat="45.77948" lon="-1.23037">
        <ele>51.6</ele>
        <time>2020-01-26T08:43:47Z</time>
      </trkpt>
      <trkpt lat="45.77948" lon="-1.23044">
        <ele>51.8</ele>
        <time>2020-01-26T08:43:48Z</time>
      </trkpt>
      <trkpt lat="45.77949" lon="-1.23052">
        <ele>52</ele>
        <time>2020-01-26T08:43:49Z</time>
      </trkpt>
      <trkpt lat="45.77949" lon="-1.2306">
        <ele>52.4</ele>
        <time>2020-01-26T08:43:50Z</time>
      </trkpt>
      <trkpt lat="45.7795" lon="-1.23067">
        <ele>52.8</ele>
        <time>2020-01-26T08:43:51Z</time>
      </trkpt>
      <trkpt lat="45.7795" lon="-1.23075">
        <ele>53</ele>
        <time>2020-01-26T08:43:52Z</time>
      </trkpt>
      <trkpt lat="45.7795" lon="-1.23083">
        <ele>53.2</ele>
        <time>2020-01-26T08:43:53Z</time>
      </trkpt>
      <trkpt lat="45.77951" lon="-1.2309">
        <ele>53.2</ele>
        <time>2020-01-26T08:43:54Z</time>
      </trkpt>
      <trkpt lat="45.77951" lon="-1.23097">
        <ele>53.2</ele>
        <time>2020-01-26T08:43:55Z</time>
      </trkpt>
      <trkpt lat="45.77951" lon="-1.23104">
        <ele>53.2</ele>
        <time>2020-01-26T08:43:56Z</time>
      </trkpt>
      <trkpt lat="45.77951" lon="-1.23112">
        <ele>53.2</ele>
        <time>2020-01-26T08:43:57Z</time>
      </trkpt>
      <trkpt lat="45.77951" lon="-1.2312">
        <ele>53.4</ele>
        <time>2020-01-26T08:43:58Z</time>
      </trkpt>
      <trkpt lat="45.77951" lon="-1.23127">
        <ele>53.4</ele>
        <time>2020-01-26T08:43:59Z</time>
      </trkpt>
      <trkpt lat="45.77951" lon="-1.23134">
        <ele>53.4</ele>
        <time>2020-01-26T08:44:00Z</time>
      </trkpt>
      <trkpt lat="45.7795" lon="-1.23141">
        <ele>53.8</ele>
        <time>2020-01-26T08:44:01Z</time>
      </trkpt>
      <trkpt lat="45.77949" lon="-1.23149">
        <ele>54.2</ele>
        <time>2020-01-26T08:44:02Z</time>
      </trkpt>
      <trkpt lat="45.77948" lon="-1.23156">
        <ele>54.4</ele>
        <time>2020-01-26T08:44:03Z</time>
      </trkpt>
      <trkpt lat="45.77946" lon="-1.23163">
        <ele>54.6</ele>
        <time>2020-01-26T08:44:04Z</time>
      </trkpt>
      <trkpt lat="45.77945" lon="-1.2317">
        <ele>54.8</ele>
        <time>2020-01-26T08:44:05Z</time>
      </trkpt>
      <trkpt lat="45.77943" lon="-1.23177">
        <ele>55.2</ele>
        <time>2020-01-26T08:44:06Z</time>
      </trkpt>
      <trkpt lat="45.77942" lon="-1.23185">
        <ele>55.6</ele>
        <time>2020-01-26T08:44:07Z</time>
      </trkpt>
      <trkpt lat="45.77942" lon="-1.23191">
        <ele>56</ele>
        <time>2020-01-26T08:44:08Z</time>
      </trkpt>
      <trkpt lat="45.77942" lon="-1.23197">
        <ele>56</ele>
        <time>2020-01-26T08:44:09Z</time>
      </trkpt>
      <trkpt lat="45.77941" lon="-1.23204">
        <ele>56</ele>
        <time>2020-01-26T08:44:10Z</time>
      </trkpt>
      <trkpt lat="45.77939" lon="-1.23211">
        <ele>56</ele>
        <time>2020-01-26T08:44:11Z</time>
      </trkpt>
      <trkpt lat="45.77937" lon="-1.23218">
        <ele>56</ele>
        <time>2020-01-26T08:44:12Z</time>
      </trkpt>
      <trkpt lat="45.77935" lon="-1.23224">
        <ele>56</ele>
        <time>2020-01-26T08:44:13Z</time>
      </trkpt>
      <trkpt lat="45.77934" lon="-1.23232">
        <ele>56</ele>
        <time>2020-01-26T08:44:14Z</time>
      </trkpt>
      <trkpt lat="45.77933" lon="-1.23239">
        <ele>55.4</ele>
        <time>2020-01-26T08:44:15Z</time>
      </trkpt>
      <trkpt lat="45.77932" lon="-1.23244">
        <ele>55.2</ele>
        <time>2020-01-26T08:44:16Z</time>
      </trkpt>
      <trkpt lat="45.7793" lon="-1.23251">
        <ele>54.8</ele>
        <time>2020-01-26T08:44:17Z</time>
      </trkpt>
      <trkpt lat="45.77929" lon="-1.23257">
        <ele>54.6</ele>
        <time>2020-01-26T08:44:18Z</time>
      </trkpt>
      <trkpt lat="45.77928" lon="-1.23263">
        <ele>54.4</ele>
        <time>2020-01-26T08:44:19Z</time>
      </trkpt>
      <trkpt lat="45.77927" lon="-1.23268">
        <ele>54.4</ele>
        <time>2020-01-26T08:44:20Z</time>
      </trkpt>
      <trkpt lat="45.77926" lon="-1.23273">
        <ele>54.6</ele>
        <time>2020-01-26T08:44:21Z</time>
      </trkpt>
      <trkpt lat="45.77924" lon="-1.2328">
        <ele>54.8</ele>
        <time>2020-01-26T08:44:22Z</time>
      </trkpt>
      <trkpt lat="45.77922" lon="-1.23286">
        <ele>54.8</ele>
        <time>2020-01-26T08:44:23Z</time>
      </trkpt>
      <trkpt lat="45.77921" lon="-1.23293">
        <ele>54.6</ele>
        <time>2020-01-26T08:44:24Z</time>
      </trkpt>
      <trkpt lat="45.77921" lon="-1.23299">
        <ele>54.2</ele>
        <time>2020-01-26T08:44:25Z</time>
      </trkpt>
      <trkpt lat="45.77921" lon="-1.23305">
        <ele>54</ele>
        <time>2020-01-26T08:44:26Z</time>
      </trkpt>
      <trkpt lat="45.77921" lon="-1.23313">
        <ele>53.6</ele>
        <time>2020-01-26T08:44:27Z</time>
      </trkpt>
      <trkpt lat="45.7792" lon="-1.23321">
        <ele>53.2</ele>
        <time>2020-01-26T08:44:28Z</time>
      </trkpt>
      <trkpt lat="45.77919" lon="-1.23328">
        <ele>53</ele>
        <time>2020-01-26T08:44:29Z</time>
      </trkpt>
      <trkpt lat="45.77917" lon="-1.23336">
        <ele>52.4</ele>
        <time>2020-01-26T08:44:30Z</time>
      </trkpt>
      <trkpt lat="45.77917" lon="-1.23344">
        <ele>52.2</ele>
        <time>2020-01-26T08:44:31Z</time>
      </trkpt>
      <trkpt lat="45.77917" lon="-1.23352">
        <ele>52</ele>
        <time>2020-01-26T08:44:32Z</time>
      </trkpt>
      <trkpt lat="45.77916" lon="-1.2336">
        <ele>52</ele>
        <time>2020-01-26T08:44:33Z</time>
      </trkpt>
      <trkpt lat="45.77916" lon="-1.23369">
        <ele>52</ele>
        <time>2020-01-26T08:44:34Z</time>
      </trkpt>
      <trkpt lat="45.77915" lon="-1.23377">
        <ele>52</ele>
        <time>2020-01-26T08:44:35Z</time>
      </trkpt>
      <trkpt lat="45.77914" lon="-1.23385">
        <ele>52.4</ele>
        <time>2020-01-26T08:44:36Z</time>
      </trkpt>
      <trkpt lat="45.77913" lon="-1.23393">
        <ele>52.8</ele>
        <time>2020-01-26T08:44:37Z</time>
      </trkpt>
      <trkpt lat="45.77913" lon="-1.23401">
        <ele>53</ele>
        <time>2020-01-26T08:44:38Z</time>
      </trkpt>
      <trkpt lat="45.77912" lon="-1.23408">
        <ele>53.2</ele>
        <time>2020-01-26T08:44:39Z</time>
      </trkpt>
      <trkpt lat="45.77911" lon="-1.23417">
        <ele>53.2</ele>
        <time>2020-01-26T08:44:40Z</time>
      </trkpt>
      <trkpt lat="45.77911" lon="-1.23424">
        <ele>53.4</ele>
        <time>2020-01-26T08:44:41Z</time>
      </trkpt>
      <trkpt lat="45.7791" lon="-1.23432">
        <ele>53.6</ele>
        <time>2020-01-26T08:44:42Z</time>
      </trkpt>
      <trkpt lat="45.7791" lon="-1.2344">
        <ele>54</ele>
        <time>2020-01-26T08:44:43Z</time>
      </trkpt>
      <trkpt lat="45.7791" lon="-1.23447">
        <ele>54.2</ele>
        <time>2020-01-26T08:44:44Z</time>
      </trkpt>
      <trkpt lat="45.7791" lon="-1.23454">
        <ele>54.4</ele>
        <time>2020-01-26T08:44:45Z</time>
      </trkpt>
      <trkpt lat="45.77909" lon="-1.23462">
        <ele>54.6</ele>
        <time>2020-01-26T08:44:46Z</time>
      </trkpt>
      <trkpt lat="45.7791" lon="-1.23469">
        <ele>55</ele>
        <time>2020-01-26T08:44:47Z</time>
      </trkpt>
      <trkpt lat="45.77911" lon="-1.23476">
        <ele>55</ele>
        <time>2020-01-26T08:44:48Z</time>
      </trkpt>
      <trkpt lat="45.77911" lon="-1.23483">
        <ele>54.6</ele>
        <time>2020-01-26T08:44:49Z</time>
      </trkpt>
      <trkpt lat="45.77912" lon="-1.23491">
        <ele>54.6</ele>
        <time>2020-01-26T08:44:50Z</time>
      </trkpt>
      <trkpt lat="45.77913" lon="-1.23497">
        <ele>54.4</ele>
        <time>2020-01-26T08:44:51Z</time>
      </trkpt>
      <trkpt lat="45.77913" lon="-1.23505">
        <ele>54.2</ele>
        <time>2020-01-26T08:44:52Z</time>
      </trkpt>
      <trkpt lat="45.77913" lon="-1.2351">
        <ele>54.2</ele>
        <time>2020-01-26T08:44:53Z</time>
      </trkpt>
      <trkpt lat="45.77913" lon="-1.23518">
        <ele>54.2</ele>
        <time>2020-01-26T08:44:54Z</time>
      </trkpt>
      <trkpt lat="45.77911" lon="-1.23526">
        <ele>54</ele>
        <time>2020-01-26T08:44:55Z</time>
      </trkpt>
      <trkpt lat="45.7791" lon="-1.23535">
        <ele>53.8</ele>
        <time>2020-01-26T08:44:56Z</time>
      </trkpt>
      <trkpt lat="45.7791" lon="-1.23542">
        <ele>53.6</ele>
        <time>2020-01-26T08:44:57Z</time>
      </trkpt>
      <trkpt lat="45.7791" lon="-1.23549">
        <ele>53.8</ele>
        <time>2020-01-26T08:44:58Z</time>
      </trkpt>
      <trkpt lat="45.77911" lon="-1.23556">
        <ele>53.6</ele>
        <time>2020-01-26T08:44:59Z</time>
      </trkpt>
      <trkpt lat="45.77911" lon="-1.23563">
        <ele>53.4</ele>
        <time>2020-01-26T08:45:00Z</time>
      </trkpt>
      <trkpt lat="45.77911" lon="-1.23569">
        <ele>53.2</ele>
        <time>2020-01-26T08:45:01Z</time>
      </trkpt>
      <trkpt lat="45.77911" lon="-1.23575">
        <ele>53.2</ele>
        <time>2020-01-26T08:45:02Z</time>
      </trkpt>
      <trkpt lat="45.77911" lon="-1.2358">
        <ele>53.4</ele>
        <time>2020-01-26T08:45:03Z</time>
      </trkpt>
      <trkpt lat="45.77911" lon="-1.23585">
        <ele>53.6</ele>
        <time>2020-01-26T08:45:04Z</time>
      </trkpt>
      <trkpt lat="45.7791" lon="-1.23589">
        <ele>54</ele>
        <time>2020-01-26T08:45:05Z</time>
      </trkpt>
      <trkpt lat="45.77908" lon="-1.23592">
        <ele>54</ele>
        <time>2020-01-26T08:45:06Z</time>
      </trkpt>
      <trkpt lat="45.77905" lon="-1.23593">
        <ele>54.6</ele>
        <time>2020-01-26T08:45:07Z</time>
      </trkpt>
      <trkpt lat="45.77902" lon="-1.23594">
        <ele>55.2</ele>
        <time>2020-01-26T08:45:08Z</time>
      </trkpt>
      <trkpt lat="45.77901" lon="-1.23596">
        <ele>55.8</ele>
        <time>2020-01-26T08:45:09Z</time>
      </trkpt>
      <trkpt lat="45.779" lon="-1.236">
        <ele>56.2</ele>
        <time>2020-01-26T08:45:10Z</time>
      </trkpt>
      <trkpt lat="45.77898" lon="-1.23606">
        <ele>56.4</ele>
        <time>2020-01-26T08:45:11Z</time>
      </trkpt>
    </trkseg>
  </trk>
</gpx>